<<back to data home page

    Month/Day/Year       Maximum   Minimum    Rel    Dew       Rainfall  Seasonal  Soil     Soil      Baro       Wind    Wind        Peak     Peak Speed    Leaf     Net       EvapPan  EvapPan    EvapPan   EvapPan
    and                  Air Temp  Air Temp   Hum    Point     Inches    Rainfall  Temp     Moisture  Pressure   Speed   Direction   Speed    Direction    Wetness  Radiation   Wind    WindRun    H20Temp   Level  
    Local Time           Deg F     Deg F      %      Deg F               Inches    Deg F    dS/m      mbar       MPH     comp  deg   MPH      comp  deg      mV        W_m2     MPH      Miles     Deg F     Inches
---------------------------------------------------------------------------------------------------------------------------------------------------------------------------------------------------------------------
   04/03/2020 02:20      47.2      46.7       82     41.9      0.00     13.93      66.0     0.52      1015.4     0.4     SSE   158   1.5     SSE     151     273       -57       0.0       0.3      56.9      8.57
   04/03/2020 02:10      47.1      46.9       83     42.0      0.00     13.93      66.0     0.52      1015.5     0.4     SSE   160   1.1       S     182     271       -58       0.0       0.3      57.1      8.57
   04/03/2020 02:00      48.0      47.0       81     42.0      0.00     13.93      66.4     0.52      1015.6     1.0     SSE   161   2.5       S     185     271       -58       0.3       0.3      57.7      8.57
   04/03/2020 01:50      48.0      47.1       83     42.5      0.00     13.93      66.3     0.52      1015.6     1.4     SSW   197   2.5     SSW     212     271       -55       0.3       0.2      57.9      8.57
   04/03/2020 01:40      47.9      47.2       82     42.4      0.00     13.93      66.3     0.52      1015.6     0.0     ENE    71   0.7     ENE      63     271       -57       0.0       0.2      58.1      8.57
   04/03/2020 01:30      48.1      47.5       82     42.7      0.00     13.93      66.2     0.52      1015.6     0.2       S   183   0.9       S     180     271       -57       0.0       0.2      58.2      8.57
   04/03/2020 01:20      48.3      48.0       82     42.9      0.00     13.93      66.5     0.52      1015.6     0.3     SSE   156   1.1     SSE     150     270       -58       0.1       0.2      58.7      8.57
   04/03/2020 01:10      48.7      48.1       81     42.9      0.00     13.93      66.6     0.52      1015.6     0.6     SSE   152   1.6      SE     143     271       -59       0.0       0.2      59.0      8.57
   04/03/2020 01:00      48.9      48.5       81     43.3      0.00     13.93      66.0     0.52      1015.6     0.2       S   171   1.0       S     174     272       -60       0.0       0.2      58.8      8.57
   04/03/2020 00:50      48.8      48.1       83     43.4      0.00     13.93      66.1     0.52      1015.5     0.4      SE   139   1.5      SE     137     271       -60       0.0       0.2      58.9      8.57
   04/03/2020 00:40      48.5      48.0       82     43.1      0.00     13.93      66.0     0.52      1015.5     0.6       S   173   1.7       S     179     270       -62       0.3       0.2      59.2      8.57
   04/03/2020 00:30      48.7      48.3       81     43.0      0.00     13.93      66.0     0.52      1015.5     0.8      SE   144   1.8       S     184     270       -65       0.0       0.1      59.4      8.57
   04/03/2020 00:20      49.4      48.5       80     43.2      0.00     13.93      65.9     0.52      1015.5     1.1       S   174   2.1     SSW     205     273       -65       0.7       0.1      59.6      8.57
   04/03/2020 00:10      49.7      49.2       79     43.4      0.00     13.93      66.0     0.52      1015.5     0.1      SE   145   1.0      SE     142     272       -65       0.0       0.0      60.0      8.57
   04/03/2020 00:00      50.0      49.4       79     43.4      0.00     13.93      66.4     0.52      1015.5     0.4     SSE   158   1.0     SSE     167     272       -66       0.0      24.6      60.5      8.57
   04/02/2020 23:50      50.0      49.4       78     43.3      0.00     13.93      66.5     0.52      1015.6     0.4       S   173   1.0     SSE     151     273       -66       0.2      24.6      60.9      8.57
   04/02/2020 23:40      50.5      49.7       77     43.2      0.00     13.93      66.4     0.52      1015.5     0.6     SSE   159   1.4       S     180     272       -66       0.2      24.6      61.2      8.57
   04/02/2020 23:30      50.8      50.3       77     43.7      0.00     13.93      66.6     0.52      1015.5     0.0      SW   222   0.7     SSW     211     272       -66       0.0      24.6      61.5      8.57
   04/02/2020 23:20      50.9      50.3       77     43.8      0.00     13.93      66.6     0.52      1015.5     0.4     SSE   149   1.1      SE     143     272       -66       0.1      24.6      61.8      8.57
   04/02/2020 23:10      51.3      50.7       75     43.4      0.00     13.93      66.6     0.52      1015.5     0.8       S   177   2.0       S     188     272       -66       0.3      24.5      62.2      8.57
   04/02/2020 23:00      51.9      51.2       74     43.5      0.00     13.93      67.0     0.52      1015.5     0.5       S   186   2.0      SW     226     271       -66       0.0      24.5      62.7      8.57
   04/02/2020 22:50      51.9      51.6       75     44.0      0.00     13.93      66.8     0.52      1015.6     0.8     SSW   194   1.2     SSE     166     271       -66       0.0      24.5      63.1      8.58
   04/02/2020 22:40      52.5      51.8       75     44.4      0.00     13.93      67.0     0.52      1015.5     0.0      SW   216   0.8      SW     217     271       -67       0.0      24.5      63.3      8.58
   04/02/2020 22:30      52.2      51.8       75     44.5      0.00     13.93      67.0     0.52      1015.4     0.0       S   182   0.6       S     182     271       -68       0.0      24.5      63.6      8.58
   04/02/2020 22:20      52.4      51.8       75     44.4      0.00     13.93      66.9     0.52      1015.4     0.5       S   182   1.0       S     171     271       -68       0.2      24.5      63.8      8.58
   04/02/2020 22:10      52.9      51.7       75     44.3      0.00     13.93      66.9     0.52      1015.4     0.9       S   186   1.4       S     179     270       -67       0.5      24.4      64.2      8.58
   04/02/2020 22:00      54.0      52.8       71     44.4      0.00     13.93      66.6     0.52      1015.5     0.9       S   180   2.5       S     185     270       -68       0.4      24.4      64.2      8.58
   04/02/2020 21:50      53.7      53.3       71     44.5      0.00     13.93      66.7     0.52      1015.6     1.2     SSW   197   1.6     SSW     195     270       -68       0.6      24.3      64.5      8.58
   04/02/2020 21:40      54.6      53.6       70     44.4      0.00     13.93      66.7     0.52      1015.6     1.0       S   181   1.5       S     180     270       -70       0.5      24.2      64.9      8.58
   04/02/2020 21:30      55.5      54.5       67     44.2      0.00     13.93      66.6     0.52      1015.7     0.1     SSE   157   1.2      SE     142     270       -70       0.0      24.1      65.1      8.58
   04/02/2020 21:20      56.3      55.5       65     44.2      0.00     13.93      66.6     0.52      1015.7     0.3       S   170   1.1       S     180     270       -69       0.0      24.1      65.6      8.58
   04/02/2020 21:10      56.8      56.2       63     44.0      0.00     13.93      66.6     0.52      1015.6     0.6       S   186   1.6     SSW     198     269       -66       0.0      24.1      65.8      8.58
   04/02/2020 21:00      56.9      56.5       62     44.0      0.00     13.93      66.8     0.52      1015.4     1.5     SSW   198   2.8      SW     221     269       -63       0.7      24.1      65.9      8.59
   04/02/2020 20:50      57.3      56.7       61     43.9      0.00     13.93      66.8     0.52      1015.3     1.4       S   184   3.2     SSW     198     269       -69       0.4      24.0      66.2      8.59
   04/02/2020 20:40      57.4      57.0       61     43.9      0.00     13.93      66.8     0.52      1015.3     1.7     SSW   194   3.4      SW     216     269       -72       0.7      23.9      66.6      8.59
   04/02/2020 20:30      57.4      57.1       61     44.1      0.00     13.93      66.7     0.52      1015.2     2.0     SSW   201   3.2     WSW     253     269       -72       1.0      23.8      67.0      8.59
   04/02/2020 20:20      58.2      57.1       61     44.3      0.00     13.93      66.8     0.52      1015.0     0.6     SSW   208   1.7     SSW     192     269       -73       0.2      23.6      67.3      8.59
   04/02/2020 20:10      58.5      58.2       59     44.1      0.00     13.93      66.7     0.52      1015.0     1.4     WSW   244   2.5      SW     229     268       -74       0.4      23.6      67.7      8.59
   04/02/2020 20:00      59.6      58.4       57     44.0      0.00     13.93      66.9     0.52      1015.0     1.5      SW   235   2.9      SW     229     268       -76       0.4      23.5      68.5      8.59
   04/02/2020 19:50      59.8      59.3       57     44.2      0.00     13.93      66.8     0.52      1014.9     1.6       W   277   5.2     NNW     342     268       -77       1.0      23.5      68.9      8.59
   04/02/2020 19:40      60.2      59.8       58     45.1      0.00     13.93      66.8     0.52      1014.8     1.7      NW   306   3.9     NNW     338     268       -77       0.7      23.3      69.2      8.59
   04/02/2020 19:30      60.7      60.1       58     45.4      0.00     13.93      66.7     0.52      1014.8     2.2     WSW   241   4.7     WSW     239     268       -77       1.3      23.2      69.5      8.60
   04/02/2020 19:20      61.4      60.7       56     45.4      0.00     13.93      66.7     0.52      1014.8     2.8     WSW   250   5.7     WSW     241     268       -75       1.9      23.0      69.9      8.60
   04/02/2020 19:10      61.6      61.3       56     45.6      0.00     13.93      66.7     0.52      1014.7     3.2       W   267   6.1      SW     218     268       -70       2.0      22.6      70.4      8.60
   04/02/2020 19:00      62.4      61.5       56     46.0      0.00     13.93      66.4     0.52      1014.7     3.8       W   268   7.5     WSW     250     268       -63       2.6      22.3      70.8      8.60
   04/02/2020 18:50      62.9      62.2       55     46.4      0.00     13.93      66.4     0.52      1014.7     3.5       W   274   6.4     WSW     251     268       -52       2.0      21.9      71.1      8.60
   04/02/2020 18:40      63.1      62.8       55     46.7      0.00     13.93      66.3     0.52      1014.7     3.5     WSW   257   7.2       W     268     268       -31       2.4      21.6      71.5      8.61
   04/02/2020 18:30      63.5      62.8       55     46.9      0.00     13.93      66.0     0.52      1014.7     4.8     WSW   238   7.5       W     261     268        -8       3.1      21.1      71.6      8.61
   04/02/2020 18:20      63.8      63.4       55     47.2      0.00     13.93      66.0     0.52      1014.6     4.7     WSW   249   9.5     WNW     284     268        22       3.0      20.6      71.9      8.61
   04/02/2020 18:10      64.2      63.4       55     47.5      0.00     13.93      65.9     0.52      1014.5     4.5     WSW   246   7.8      SW     236     268        37       3.1      20.1      72.0      8.61
   04/02/2020 18:00      63.5      63.0       57     47.7      0.00     13.93      66.0     0.52      1014.6     3.6     WSW   244   7.6       W     266     268        53       2.5      19.6      72.6      8.61
   04/02/2020 17:50      63.5      62.5       58     47.9      0.00     13.93      66.1     0.52      1014.6     3.1      SW   235   8.2      SW     218     268        47       2.2      19.2      72.8      8.61
   04/02/2020 17:40      63.0      62.7       58     48.0      0.00     13.93      66.0     0.52      1014.6     3.7      SW   231   6.5      SW     221     268        32       2.4      18.9      73.0      8.62
   04/02/2020 17:30      63.1      62.7       58     48.0      0.00     13.93      66.0     0.52      1014.6     3.8      SW   223   6.2     WNW     281     268        33       2.5      18.5      73.4      8.62
   04/02/2020 17:20      63.4      62.8       58     48.1      0.00     13.93      65.9     0.52      1014.6     3.8     SSW   210   8.6     WSW     238     268        21       2.4      18.1      73.6      8.62
   04/02/2020 17:10      63.4      62.9       58     48.1      0.00     13.93      65.8     0.52      1014.6     3.0      SW   228   4.7     WSW     236     268        25       1.9      17.6      73.8      8.62
   04/02/2020 17:00      63.3      62.9       58     48.0      0.00     13.93      65.9     0.52      1014.6     4.8     SSW   211   9.8     SSW     203     268        38       3.2      17.3      74.2      8.62
   04/02/2020 16:50      63.5      63.2       58     48.3      0.00     13.93      65.8     0.52      1014.6     3.7     SSW   207   6.5      SW     230     268        42       2.5      16.8      74.5      8.63
   04/02/2020 16:40      63.4      63.0       58     48.3      0.00     13.93      65.7     0.52      1014.6     4.1      SW   218   7.0      SW     216     268        59       2.6      16.4      74.9      8.63
   04/02/2020 16:30      63.8      63.0       57     48.1      0.00     13.93      65.7     0.52      1014.6     4.0      SW   226   7.5     WSW     242     268        91       2.6      15.9      75.2      8.63
   04/02/2020 16:20      63.8      63.1       57     48.0      0.00     13.93      65.4     0.52      1014.6     4.4      SW   231   8.4      SW     221     268       123       2.8      15.5      75.2      8.63
   04/02/2020 16:10      63.8      63.3       57     48.2      0.00     13.93      65.4     0.52      1014.6     4.1      SW   215   6.2     SSW     195     267       101       2.6      15.0      75.4      8.63
   04/02/2020 16:00      63.3      62.9       58     48.1      0.00     13.93      65.2     0.52      1014.7     3.6       S   186   7.8     SSE     149     268        87       2.5      14.6      76.1      8.64
   04/02/2020 15:50      63.4      62.7       58     47.8      0.00     13.93      65.1     0.52      1014.7     3.9       S   175   8.3       S     180     267        57       2.4      14.2      76.3      8.64
   04/02/2020 15:40      64.0      63.3       57     48.2      0.00     13.93      65.2     0.52      1014.7     4.2       S   182   7.4     SSW     193     267        60       2.9      13.8      76.7      8.64
   04/02/2020 15:30      64.1      63.5       57     48.1      0.00     13.93      65.0     0.52      1014.7     4.1       S   171   6.9      SE     130     267       108       2.9      13.3      77.3      8.65
   04/02/2020 15:20      64.5      64.1       56     48.2      0.00     13.93      65.0     0.51      1014.6     3.9       S   179   7.6       S     176     267        81       2.6      12.8      77.7      8.65
   04/02/2020 15:10      65.5      64.4       54     47.9      0.00     13.93      64.9     0.51      1014.6     4.7       S   179   6.8     SSW     208     267       130       3.1      12.4      78.1      8.65
   04/02/2020 15:00      66.8      65.0       52     47.9      0.00     13.93      65.1     0.51      1014.5     5.4     SSW   200   8.8       S     186     267        86       3.6      11.9      78.1      8.66
   04/02/2020 14:50      67.7      66.6       50     47.8      0.00     13.93      65.0     0.51      1014.5     5.7       S   177  10.3       S     190     266       424       3.6      11.3      78.1      8.66
   04/02/2020 14:40      67.8      66.0       49     47.6      0.00     13.93      64.9     0.51      1014.4     4.7     SSE   150   9.4     ESE     123     266       513       2.9      10.7      77.7      8.66
   04/02/2020 14:30      66.9      66.0       51     47.7      0.00     13.93      64.7     0.51      1014.4     5.8       S   173   9.8       S     179     266       513       3.7      10.2      77.6      8.67
   04/02/2020 14:20      67.0      65.8       50     47.5      0.00     13.93      64.7     0.51      1014.5     6.5       S   173  11.1     SSW     196     265       527       4.3       9.6      77.3      8.67
   04/02/2020 14:10      68.0      66.4       50     47.9      0.00     13.93      64.8     0.51      1014.4     7.4       S   173  11.9       S     181     265       538       4.5       8.9      76.8      8.67
   04/02/2020 14:00      69.2      68.1       47     47.4      0.00     13.93      64.1     0.51      1014.4     5.7       S   178  10.5       S     174     265       537       3.6       8.1      75.8      8.68
   04/02/2020 13:50      69.7      67.6       44     45.8      0.00     13.93      64.1     0.51      1014.4     4.5       S   176  10.4       S     190     265       524       3.2       7.5      75.2      8.68
   04/02/2020 13:40      72.7      69.7       37     43.0      0.00     13.93      64.1     0.51      1014.4     2.7       S   178   7.5      SW     228     265       540       2.0       7.0      74.8      8.68
   04/02/2020 13:30      72.8      71.3       22     31.1      0.00     13.93      64.0     0.51      1014.5     1.3       N   351   3.9     WNW     299     263       540       1.1       6.6      74.2      8.68
   04/02/2020 13:20      72.4      70.2       22     30.6      0.00     13.93      64.0     0.51      1014.5     1.5     WNW   296   3.9     WSW     237     263       545       1.1       6.5      73.7      8.69
   04/02/2020 13:10      71.5      70.3       22     29.9      0.00     13.93      64.0     0.51      1014.6     1.6      NW   308   4.5     NNE      17     263       545       0.9       6.3      73.1      8.69
   04/02/2020 13:00      71.1      70.2       22     29.7      0.00     13.93      64.4     0.51      1014.8     2.2      NE    44   4.5     NNE      24     263       547       1.1       6.1      72.8      8.69
   04/02/2020 12:50      71.1      69.6       21     29.1      0.00     13.93      64.3     0.51      1014.8     1.8       N   352   5.2       N       0     263       548       0.9       5.9      72.2      8.69
   04/02/2020 12:40      70.4      68.8       24     31.4      0.00     13.93      64.4     0.51      1014.9     1.4     ENE    63   5.6       W     278     263       550       1.1       5.8      71.4      8.69
   04/02/2020 12:30      69.9      69.1       25     31.9      0.00     13.93      64.4     0.51      1015.0     2.0      NW   313   5.4       W     260     263       547       1.6       5.6      70.8      8.70
   04/02/2020 12:20      69.3      67.1       27     32.8      0.00     13.93      64.5     0.51      1015.0     1.5     NNW   348   4.2     NNE      23     264       546       0.9       5.3      70.0      8.70
   04/02/2020 12:10      68.8      67.1       26     31.6      0.00     13.93      64.3     0.51      1015.1     2.6     ESE   115   5.7     ENE      77     263       542       1.6       5.2      69.4      8.70
   04/02/2020 12:00      68.7      66.9       28     33.8      0.00     13.93      64.8     0.51      1015.2     2.2       E    97   5.1     ESE     105     264       538       1.5       4.9      69.1      8.70
   04/02/2020 11:50      67.1      65.8       32     35.9      0.00     13.93      64.7     0.51      1015.3     2.2       W   268   4.7       N       0     264       529       1.7       4.7      68.5      8.70
   04/02/2020 11:40      66.6      66.1       33     36.1      0.00     13.93      64.8     0.51      1015.4     2.0      SE   142   4.6     SSW     198     264       519       1.6       4.4      67.8      8.70
   04/02/2020 11:30      66.0      65.3       33     35.6      0.00     13.93      64.9     0.51      1015.4     2.8      SW   233   5.5     SSW     196     265       511       2.0       4.1      67.2      8.70
   04/02/2020 11:20      65.7      65.1       33     35.7      0.00     13.93      64.9     0.51      1015.5     2.5     ESE   106   5.1     ESE     103     264       501       1.5       3.8      66.5      8.71
   04/02/2020 11:10      65.9      64.7       34     36.3      0.00     13.93      64.9     0.51      1015.5     1.9     ESE   107   4.0     ESE     121     264       489       1.1       3.5      65.9      8.71
   04/02/2020 11:00      65.0      63.8       36     36.9      0.00     13.93      64.2     0.51      1015.4     2.6     SSE   166   5.0       S     187     265       477       1.9       3.3      64.7      8.71
   04/02/2020 10:50      65.4      63.8       35     36.3      0.00     13.93      64.2     0.51      1015.4     2.3      SE   139   4.4     SSW     209     265       460       1.4       3.0      64.1      8.71
   04/02/2020 10:40      65.4      64.0       36     37.0      0.00     13.93      64.3     0.51      1015.4     0.6      SW   216   2.2      SW     226     265       443       0.5       2.8      63.6      8.71
   04/02/2020 10:30      64.5      63.3       38     38.2      0.00     13.93      64.2     0.51      1015.3     1.3     NNW   341   3.2     ENE      60     266       437       1.1       2.7      63.2      8.71
   04/02/2020 10:20      63.7      62.4       40     38.5      0.00     13.93      64.3     0.51      1015.4     2.0       E    83   4.6     ESE     121     266       462       1.0       2.5      62.8      8.71
   04/02/2020 10:10      62.2      61.4       42     38.6      0.00     13.93      64.3     0.51      1015.3     1.3     ENE    62   3.8     NNE      25     266       285       0.5       2.3      62.5      8.71
   04/02/2020 10:00      62.7      62.0       45     40.5      0.00     13.93      64.4     0.51      1015.2     1.3     NNE    32   4.4       N       2     267       218       0.5       2.3      62.3      8.71
   04/02/2020 09:50      62.5      60.6       46     40.7      0.00     13.93      64.3     0.51      1015.2     1.2     ENE    64   2.7     SSE     163     266       281       0.4       2.2      62.1      8.71
   04/02/2020 09:40      61.2      60.5       47     40.6      0.00     13.93      64.4     0.51      1015.2     1.7     NNE    31   3.7     NNE      31     267       240       0.4       2.1      61.8      8.71
   04/02/2020 09:30      61.4      60.6       49     41.8      0.00     13.93      64.4     0.51      1015.2     0.7     NNW   333   2.3      NW     324     267       242       0.2       2.1      61.6      8.71
   04/02/2020 09:20      61.0      60.1       52     43.0      0.00     13.93      64.5     0.51      1015.1     0.8     NNE    33   3.2     NNE      15     268       205       0.2       2.0      61.3      8.71
   04/02/2020 09:10      60.8      59.8       54     43.6      0.00     13.93      64.5     0.51      1015.0     1.3       E    91   3.2       S     185     268       232       0.9       2.0      61.2      8.71
   04/02/2020 09:00      60.7      59.0       55     43.6      0.00     13.93      65.0     0.51      1014.9     1.0      NE    39   3.4      NE      49     267       319       0.4       1.8      61.4      8.71
   04/02/2020 08:50      59.1      58.2       54     41.9      0.00     13.93      65.0     0.51      1014.8     1.5      NE    45   2.9     ENE      66     269       288       0.4       1.8      61.1      8.71
   04/02/2020 08:40      59.5      58.3       57     43.6      0.00     13.93      65.0     0.51      1014.7     1.3      NE    54   3.2     NNE      34     270       159       0.2       1.7      60.9      8.71
   04/02/2020 08:30      59.5      58.6       57     43.6      0.00     13.93      65.0     0.51      1014.6     1.1      NE    43   3.2     NNW     345     269       221       0.3       1.7      60.8      8.71
   04/02/2020 08:20      59.5      58.5       55     42.7      0.00     13.93      65.1     0.51      1014.6     1.3     ENE    61   3.7      NE      42     270       223       0.5       1.6      60.8      8.71
   04/02/2020 08:10      58.6      57.9       56     42.6      0.00     13.93      65.2     0.51      1014.5     1.4      NE    48   3.2     NNE      29     270       202       0.2       1.5      60.6      8.71
   04/02/2020 08:00      58.0      56.0       75     49.3      0.00     13.93      64.8     0.51      1014.5     1.8       E    84   3.8     ENE      70     272       178       0.8       1.5      60.3      8.71
   04/02/2020 07:50      56.1      55.5       80     49.7      0.00     13.93      64.8     0.51      1014.4     1.4       E    96   4.0     ENE      79     273        63       0.6       1.4      60.2      8.71
   04/02/2020 07:40      55.7      55.3       81     49.8      0.00     13.93      64.8     0.51      1014.4     0.8     ESE   121   2.4       E     101     278        28       0.2       1.2      60.3      8.71
   04/02/2020 07:30      55.5      55.2       82     50.1      0.00     13.93      64.9     0.51      1014.3     0.7       E    98   2.6      SE     128     282        13       0.4       1.2      60.3      8.71
   04/02/2020 07:20      55.4      55.1       83     50.3      0.00     13.93      64.9     0.51      1014.2     0.6     ENE    75   2.3     ENE      71     286         4       0.0       1.2      60.3      8.71
   04/02/2020 07:10      55.3      54.9       84     50.4      0.00     13.93      64.9     0.51      1014.1     0.6      NE    40   1.9     WNW     302     290         2       0.0       1.1      60.4      8.71
   04/02/2020 07:00      55.4      54.9       84     50.5      0.00     13.93      65.0     0.51      1014.0     1.6     NNE    28   3.0     NNE      16     292        -3       0.0       1.1      60.5      8.71
   04/02/2020 06:50      55.2      54.8       85     50.7      0.00     13.93      65.1     0.51      1014.0     0.3      NE    40   1.6     NNE      26     295        -5       0.0       1.1      60.6      8.71
   04/02/2020 06:40      54.9      54.6       87     50.9      0.00     13.93      65.1     0.51      1014.0     0.5     NNE    13   2.3     NNE      20     297        -6       0.1       1.1      60.7      8.71
   04/02/2020 06:30      54.8      54.5       87     50.9      0.00     13.93      65.2     0.51      1014.0     0.1     NNW   337   1.2      NE      34     300        -7       0.0       1.1      60.8      8.71
   04/02/2020 06:20      54.9      54.5       88     51.1      0.00     13.93      65.2     0.51      1014.0     0.6     NNW   336   2.1       N       9     301        -7       0.0       1.1      60.9      8.71
   04/02/2020 06:10      55.0      54.5       88     51.2      0.00     13.93      65.2     0.51      1014.0     0.2     NNE    31   1.6       N       3     303        -7       0.0       1.1      60.9      8.71
   04/02/2020 06:00      54.8      54.3       88     51.1      0.00     13.93      64.7     0.51      1013.9     0.0       E    80   0.7       E      86     305        -7       0.0       1.1      60.6      8.71
   04/02/2020 05:50      54.5      54.2       89     51.1      0.00     13.93      64.7     0.51      1013.9     0.2     ESE   103   0.9       E      81     307        -8       0.0       1.1      60.7      8.71
   04/02/2020 05:40      54.3      54.0       89     51.0      0.00     13.93      64.7     0.52      1013.9     0.3       E    97   1.4       E     100     312        -7       0.0       1.1      60.7      8.71
   04/02/2020 05:30      54.2      53.8       90     51.0      0.00     13.93      64.8     0.52      1013.8     0.8     ESE   116   2.7       E      83     323        -7       0.3       1.1      60.9      8.71
   04/02/2020 05:20      54.1      53.7       90     51.1      0.00     13.93      65.0     0.52      1013.8     0.9     ESE   106   2.6       E      99     333        -7       0.2       1.1      61.1      8.71
   04/02/2020 05:10      53.9      53.6       91     51.1      0.00     13.93      65.1     0.52      1013.8     1.2     ESE   106   3.5     ESE     110     346        -7       0.5       1.0      61.3      8.71
   04/02/2020 05:00      54.0      53.6       91     51.0      0.00     13.93      65.7     0.52      1013.8     1.1       E   100   3.2       E      98     378        -7       0.4       1.0      62.0      8.71
   04/02/2020 04:50      54.2      53.6       90     51.1      0.00     13.93      65.7     0.52      1013.9     1.7     ESE   107   3.0     ENE      77     382        -7       0.6       0.9      62.1      8.71
   04/02/2020 04:40      54.2      53.8       90     51.2      0.00     13.93      65.7     0.52      1013.8     0.8       E    92   2.7     ENE      70     356        -7       0.3       0.8      62.3      8.71
   04/02/2020 04:30      54.5      53.9       90     51.3      0.00     13.93      65.8     0.52      1013.8     1.5       E    83   3.5       E      89     362        -7       0.4       0.8      62.4      8.71
   04/02/2020 04:20      54.8      54.3       90     51.6      0.00     13.93      65.8     0.51      1013.7     0.9       E    89   2.4     ESE     103     354        -7       0.3       0.7      62.5      8.71
   04/02/2020 04:10      54.9      54.5       89     51.7      0.00     13.93      65.8     0.52      1013.8     0.8     ENE    75   2.8     ESE     101     371        -7       0.3       0.6      62.7      8.71
   04/02/2020 04:00      55.1      54.7       89     51.9      0.00     13.93      65.2     0.52      1013.7     0.6     ENE    77   3.0     ENE      73     313        -7       0.2       0.6      62.1      8.71
   04/02/2020 03:50      55.1      54.7       90     51.9      0.00     13.93      65.1     0.52      1013.7     0.9     ENE    78   2.5     ENE      70     300        -7       0.2       0.6      62.1      8.71
   04/02/2020 03:40      54.9      54.7       90     52.0      0.00     13.93      65.0     0.52      1013.7     0.8     ESE   117   2.3      SE     134     307        -7       0.0       0.5      62.2      8.71
   04/02/2020 03:30      55.1      54.8       90     52.2      0.00     13.93      65.0     0.52      1013.7     0.5     ESE   105   1.9     SSE     146     319        -7       0.1       0.5      62.3      8.71
   04/02/2020 03:20      55.2      54.8       90     52.1      0.00     13.93      65.0     0.52      1013.7     0.6       E    91   1.8       E      98     356        -6       0.0       0.5      62.4      8.71
   04/02/2020 03:10      55.4      54.9       89     51.9      0.00     13.93      65.1     0.52      1013.7     1.3       E    82   3.4       E      84     373        -6       0.6       0.5      62.5      8.71
   04/02/2020 03:00      55.5      55.2       88     51.8      0.00     13.93      65.7     0.52      1013.7     0.6       E    83   2.4     ESE     106     377        -7       0.2       0.4      63.0      8.71
   04/02/2020 02:50      56.2      55.4       85     51.1      0.00     13.93      66.0     0.52      1013.7     1.0     SSE   161   2.7     SSE     147     351        -9       0.5       0.3      63.4      8.71
   04/02/2020 02:40      56.4      55.9       81     50.3      0.00     13.93      66.1     0.52      1013.7     1.0     SSE   159   2.7     SSW     203     282       -11       0.5       0.3      63.6      8.71
   04/02/2020 02:30      56.6      56.2       79     50.0      0.00     13.93      66.2     0.52      1013.7     0.0     ESE   114   0.7     ESE     103     274       -11       0.0       0.2      63.7      8.71
   04/02/2020 02:20      56.4      56.0       79     49.7      0.00     13.93      66.1     0.52      1013.7     0.0       N     0   0.0       E     100     272       -11       0.0       0.2      63.9      8.71
   04/02/2020 02:10      56.2      55.9       79     49.8      0.00     13.93      66.2     0.52      1013.7     0.0       N     0   0.0       E     100     272       -11       0.0       0.2      63.9      8.71
   04/02/2020 02:00      56.1      55.7       81     50.0      0.00     13.93      65.5     0.52      1013.7     0.0       N     0   0.0      SE     142     272       -11       0.0       0.2      63.8      8.71
   04/02/2020 01:50      56.0      55.4       81     50.1      0.00     13.93      65.5     0.52      1013.6     0.3     WSW   255   2.0       W     268     272       -12       0.1       0.2      63.9      8.71
   04/02/2020 01:40      55.7      55.4       82     50.2      0.00     13.93      65.6     0.52      1013.6     1.4      SW   235   2.4     WSW     237     272       -14       0.8       0.2      64.0      8.71
   04/02/2020 01:30      55.5      55.1       83     50.2      0.00     13.93      65.6     0.52      1013.6     0.0      NE    54   0.5      NE      47     273       -15       0.0       0.0      64.1      8.71
   04/02/2020 01:20      55.2      54.7       83     50.1      0.00     13.93      65.6     0.52      1013.6     0.3     ESE   118   1.6      SE     136     273       -13       0.0       0.0      64.1      8.71
   04/02/2020 01:10      54.9      54.5       84     49.9      0.00     13.93      65.7     0.52      1013.5     0.3       E    83   1.1       E      83     273       -11       0.0       0.0      64.3      8.71
   04/02/2020 01:00      54.6      53.8       85     49.8      0.00     13.93      65.8     0.52      1013.5     0.1       E    81   0.8       E      90     273        -9       0.0       0.0      64.6      8.71
   04/02/2020 00:50      53.9      53.0       86     49.5      0.00     13.93      65.9     0.52      1013.5     0.2     ESE   123   1.2     SSE     149     272        -8       0.0       0.0      64.7      8.71
   04/02/2020 00:40      53.3      52.6       87     49.2      0.00     13.93      65.9     0.52      1013.5     0.1       S   190   0.9     SSW     213     272       -17       0.0       0.0      64.8      8.71
   04/02/2020 00:30      52.9      52.3       87     48.9      0.00     13.93      65.9     0.52      1013.5     0.3     SSE   168   1.2       S     175     279       -26       0.1       0.0      65.0      8.71
   04/02/2020 00:20      52.5      52.2       87     48.5      0.00     13.93      65.9     0.52      1013.5     0.3     SSE   166   1.1       S     177     284       -32       0.0       0.0      65.3      8.71
   04/02/2020 00:10      52.5      52.2       87     48.4      0.00     13.93      66.0     0.52      1013.5     0.0       S   176   0.4       S     176     283       -37       0.0       0.0      65.6      8.71
   04/02/2020 00:00      52.9      52.4       86     48.6      0.00     13.93      66.3     0.52      1013.4     0.0     SSE   148   0.7       S     179     281       -45       0.0      21.6      66.1      8.71
   04/01/2020 23:50      52.9      52.0       87     48.7      0.00     13.93      66.4     0.52      1013.2     1.0       S   189   2.1       S     183     278       -48       0.3      21.6      66.4      8.71
   04/01/2020 23:40      52.9      52.1       86     48.5      0.00     13.93      66.3     0.52      1013.2     0.2       S   182   1.0       S     185     275       -53       0.0      21.6      66.7      8.72
   04/01/2020 23:30      53.2      52.7       85     48.5      0.00     13.93      66.3     0.52      1013.1     0.2       S   169   1.0       S     180     269       -56       0.0      21.6      67.1      8.72
   04/01/2020 23:20      53.6      53.2       84     48.8      0.00     13.93      66.4     0.52      1013.0     1.0     SSW   192   2.3     SSW     194     264       -58       0.2      21.6      67.4      8.72
   04/01/2020 23:10      54.2      53.5       83     48.8      0.00     13.93      66.4     0.52      1012.9     0.0     SSE   151   0.6     SSE     151     262       -62       0.0      21.5      67.8      8.72
   04/01/2020 23:00      54.3      54.0       83     49.2      0.00     13.93      65.7     0.52      1012.9     0.4     SSE   156   1.4     SSE     154     260       -64       0.0      21.5      67.4      8.72
   04/01/2020 22:50      54.5      53.8       83     49.0      0.00     13.93      65.7     0.52      1012.8     0.3     SSE   162   2.2       S     177     260       -66       0.0      21.5      67.8      8.72
   04/01/2020 22:40      54.7      54.1       83     49.5      0.00     13.93      65.8     0.52      1012.8     1.2       S   190   2.1     SSW     192     267       -64       0.6      21.5      68.2      8.72
   04/01/2020 22:30      54.9      54.1       83     49.7      0.00     13.93      65.7     0.52      1012.8     0.5     SSE   161   1.7       S     178     260       -64       0.1      21.4      68.6      8.72
   04/01/2020 22:20      55.3      54.6       83     49.9      0.00     13.93      65.7     0.52      1012.7     0.7       S   190   2.3       S     186     263       -65       0.2      21.4      68.9      8.72
   04/01/2020 22:10      55.3      54.9       82     49.8      0.00     13.93      65.8     0.52      1012.8     0.6       S   184   1.3       S     181     264       -66       0.0      21.3      69.2      8.72
   04/01/2020 22:00      56.2      55.3       80     49.7      0.00     13.93      66.0     0.52      1012.8     0.7       S   184   1.7       S     189     270       -66       0.0      21.3      69.9      8.73
   04/01/2020 21:50      56.3      56.0       80     49.9      0.00     13.93      66.0     0.52      1012.7     0.4     SSW   193   1.0     SSW     207     272       -66       0.0      21.3      70.2      8.73
   04/01/2020 21:40      56.5      56.1       79     50.0      0.00     13.93      66.0     0.52      1012.5     0.0     ESE   122   0.6      SE     135     272       -68       0.0      21.3      70.6      8.73
   04/01/2020 21:30      56.8      56.5       79     50.3      0.00     13.93      65.9     0.52      1012.4     0.0     SSE   154   0.9     SSE     158     272       -68       0.0      21.3      70.9      8.73
   04/01/2020 21:20      57.2      56.8       78     50.4      0.00     13.93      65.9     0.52      1012.3     1.0     SSW   201   1.7     SSW     206     272       -68       0.3      21.3      71.3      8.73
   04/01/2020 21:10      57.9      57.1       77     50.4      0.00     13.93      65.9     0.52      1012.2     1.5     SSW   203   2.0      SW     215     271       -69       0.4      21.3      71.7      8.73
   04/01/2020 21:00      58.6      57.9       76     50.6      0.00     13.93      66.2     0.52      1012.1     0.1       S   189   1.1     SSW     200     271       -71       0.1      21.2      72.4      8.73
   04/01/2020 20:50      59.2      58.5       75     50.8      0.00     13.93      66.1     0.52      1012.0     0.1     ESE   107   1.6       E      79     270       -73       0.0      21.2      72.7      8.73
   04/01/2020 20:40      59.9      59.1       73     51.0      0.00     13.93      66.1     0.52      1011.8     0.4     ESE   106   1.6      NE      54     270       -73       0.1      21.2      73.0      8.73
   04/01/2020 20:30      60.7      59.8       72     51.0      0.00     13.93      66.0     0.52      1011.7     0.6     ENE    71   2.5     ENE      59     270       -74       0.2      21.2      73.4      8.73
   04/01/2020 20:20      61.2      60.5       70     51.0      0.00     13.93      66.0     0.52      1011.5     0.7     ENE    69   2.8     ENE      77     270       -74       0.0      21.1      73.7      8.74
   04/01/2020 20:10      61.1      60.8       68     50.3      0.00     13.93      66.0     0.52      1011.4     1.0      NE    53   2.6      NE      36     270       -74       0.0      21.1      74.0      8.74
   04/01/2020 20:00      61.9      61.0       63     48.8      0.00     13.93      65.3     0.52      1011.2     0.0       S   182   1.1      SW     221     269       -74       0.2      21.1      73.6      8.74
   04/01/2020 19:50      62.3      61.7       63     49.2      0.00     13.93      65.3     0.52      1011.0     1.5     SSW   192   1.9       S     188     269       -75       0.9      21.1      74.2      8.74
   04/01/2020 19:40      62.9      62.1       64     50.1      0.00     13.93      65.5     0.52      1010.9     1.7       S   177   3.0       S     188     269       -77       1.0      21.0      74.7      8.74
   04/01/2020 19:30      63.4      62.7       64     50.6      0.00     13.93      65.5     0.52      1010.8     1.7       S   174   3.5       S     190     268       -78       1.1      20.8      75.2      8.75
   04/01/2020 19:20      64.2      63.3       63     50.8      0.00     13.93      65.4     0.52      1010.8     1.8       S   173   3.4     SSE     165     268       -77       1.1      20.6      75.7      8.75
   04/01/2020 19:10      64.7      64.1       62     50.9      0.00     13.93      65.3     0.52      1010.7     2.2       S   178   5.0       S     170     268       -74       1.4      20.4      76.1      8.75
   04/01/2020 19:00      65.5      64.8       60     51.1      0.00     13.93      65.4     0.52      1010.7     2.0       S   177   4.6     SSW     195     268       -70       1.3      20.2      77.0      8.75
   04/01/2020 18:50      67.6      65.4       58     51.1      0.00     13.93      65.2     0.51      1010.7     2.9       S   186   4.6      SW     221     268       -61       1.8      20.0      77.6      8.76
   04/01/2020 18:40      68.6      67.5       53     50.6      0.00     13.93      65.2     0.51      1010.7     2.7      SW   217   5.3     WSW     253     268       -38       1.7      19.7      78.1      8.76
   04/01/2020 18:30      69.5      68.4       52     50.6      0.00     13.93      65.0     0.51      1010.5     3.4     WSW   249   7.8       W     265     267       -19       2.1      19.4      78.4      8.76
   04/01/2020 18:20      70.0      69.2       51     50.6      0.00     13.93      64.9     0.51      1010.5     2.7      SW   231   5.4     WSW     245     267         5       1.8      19.0      78.7      8.77
   04/01/2020 18:10      71.7      70.0       50     51.2      0.00     13.93      64.8     0.51      1010.4     2.7     SSW   212   6.6       W     265     267        27       1.8      18.8      79.0      8.77
   04/01/2020 18:00      71.9      71.2       48     50.9      0.00     13.93      64.5     0.51      1010.3     1.7      SW   226   4.7      SW     231     267        54       0.9      18.5      79.0      8.77
   04/01/2020 17:50      71.8      71.3       48     50.5      0.00     13.93      64.4     0.51      1010.3     2.8      SW   231   5.5       W     266     267        82       1.9      18.3      79.2      8.77
   04/01/2020 17:40      72.3      71.6       46     50.3      0.00     13.93      64.4     0.51      1010.2     2.8      SW   217   5.8     WSW     237     267       109       1.9      18.0      79.4      8.78
   04/01/2020 17:30      72.3      71.5       47     50.3      0.00     13.93      64.4     0.51      1010.1     2.9     SSW   199   5.5       W     270     266       137       1.7      17.7      79.5      8.78
   04/01/2020 17:20      72.3      71.5       46     49.9      0.00     13.93      64.4     0.51      1010.1     4.5       S   188   7.5     SSW     213     266       164       3.0      17.4      79.7      8.78
   04/01/2020 17:10      72.5      72.0       46     50.1      0.00     13.93      64.2     0.51      1010.0     3.9       S   176   6.7      SE     139     266       189       2.5      16.9      79.7      8.78
   04/01/2020 17:00      72.9      72.2       45     50.1      0.00     13.93      64.0     0.51      1009.9     4.7       S   178   7.9     SSW     195     266       214       3.2      16.5      80.0      8.79
   04/01/2020 16:50      73.0      72.4       44     49.9      0.00     13.93      64.1     0.51      1009.9     4.6       S   179   8.9     ESE     124     266       239       3.0      15.9      80.0      8.79
   04/01/2020 16:40      73.4      72.8       44     50.1      0.00     13.93      64.0     0.51      1010.0     4.6     SSW   198  10.2     SSW     204     266       262       2.8      15.5      79.9      8.80
   04/01/2020 16:30      73.5      72.8       44     50.2      0.00     13.93      63.9     0.51      1010.0     4.3       S   180   7.7       S     181     266       283       2.6      15.0      80.0      8.80
   04/01/2020 16:20      73.4      72.8       44     50.3      0.00     13.93      63.9     0.51      1010.1     4.5     SSW   196  10.0     SSW     194     266       306       2.9      14.6      80.0      8.80
   04/01/2020 16:10      73.5      72.3       45     50.0      0.00     13.93      63.9     0.51      1010.1     5.1     SSW   203   8.8      SW     232     266       329       3.5      14.1      79.8      8.80
   04/01/2020 16:00      73.9      73.0       44     50.4      0.00     13.93      64.0     0.51      1010.1     4.8      SW   232   9.2     WSW     258     266       349       3.2      13.5      79.7      8.81
   04/01/2020 15:50      73.8      73.3       44     50.1      0.00     13.93      63.8     0.51      1010.1     5.8      SW   236  10.1     WSW     240     266       370       3.8      12.9      79.4      8.81
   04/01/2020 15:40      74.7      73.8       43     50.5      0.00     13.93      63.7     0.51      1010.1     4.5     SSW   198   9.2      SW     218     266       392       3.1      12.3      79.3      8.81
   04/01/2020 15:30      74.3      73.3       44     50.8      0.00     13.93      63.6     0.51      1010.2     4.7     SSW   210   9.9     WSW     255     266       418       3.2      11.8      78.8      8.82
   04/01/2020 15:20      74.0      72.9       46     51.2      0.00     13.93      63.5     0.51      1010.2     4.5     SSW   195   9.1     SSW     206     266       439       3.1      11.3      78.4      8.82
   04/01/2020 15:10      75.4      73.9       45     51.8      0.00     13.93      63.3     0.51      1010.2     4.3       S   184   7.6       S     183     266       461       2.8      10.7      77.9      8.82
   04/01/2020 15:00      75.7      74.2       45     52.0      0.00     13.93      63.4     0.51      1010.3     3.3     SSW   203   8.6     SSW     203     266       506       2.3      10.3      77.5      8.82
   04/01/2020 14:50      74.5      73.3       45     51.4      0.00     13.93      63.4     0.51      1010.3     4.1     SSW   196   8.1     SSE     156     266       487       2.3       9.9      77.1      8.83
   04/01/2020 14:40      74.5      72.9       45     51.1      0.00     13.93      63.2     0.51      1010.4     4.8      SW   220   9.6     SSE     149     266       490       3.1       9.5      76.5      8.83
   04/01/2020 14:30      74.8      73.6       44     50.8      0.00     13.93      63.1     0.51      1010.5     4.5     SSW   204   8.7       S     181     266       497       3.1       9.0      75.9      8.83
   04/01/2020 14:20      74.4      73.3       43     50.1      0.00     13.93      63.1     0.51      1010.5     3.6       S   178   8.3      SE     139     265       509       2.3       8.5      75.3      8.83
   04/01/2020 14:10      73.9      72.6       43     49.8      0.00     13.93      63.0     0.51      1010.6     4.2       S   186   9.1     SSW     198     266       521       3.0       8.1      74.8      8.83
   04/01/2020 14:00      73.0      72.2       44     49.8      0.00     13.93      62.9     0.51      1010.6     5.6     SSE   167  10.7     SSE     166     266       532       3.5       7.6      74.1      8.84
   04/01/2020 13:50      73.6      72.2       44     49.5      0.00     13.93      62.8     0.51      1010.7     5.8     SSE   152  11.1     SSW     197     265       538       3.7       7.0      73.6      8.84
   04/01/2020 13:40      74.3      73.0       42     49.4      0.00     13.93      62.9     0.51      1010.7     6.1     SSE   164  10.3     SSE     152     265       541       3.7       6.4      73.0      8.84
   04/01/2020 13:30      75.0      74.4       43     50.9      0.00     13.93      62.8     0.51      1010.8     4.2       S   169   8.0      SE     138     265       542       2.8       5.8      72.4      8.84
   04/01/2020 13:20      76.4      74.2       43     51.3      0.00     13.93      62.7     0.51      1010.8     3.4      SW   218   8.8     WSW     240     265       516       2.4       5.3      71.6      8.84
   04/01/2020 13:10      75.7      73.1       43     50.2      0.00     13.93      62.6     0.51      1010.9     1.4      NE    51   3.4      NE      48     265       427       0.8       4.9      71.0      8.85
   04/01/2020 13:00      74.9      72.8       42     49.3      0.00     13.93      62.5     0.51      1011.0     2.9      SE   124   5.5      SE     136     266       283       1.8       4.8      70.5      8.85
   04/01/2020 12:50      74.9      74.3       39     48.2      0.00     13.93      62.4     0.51      1011.1     2.5      SW   218   6.0       S     179     265       526       1.8       4.5      70.0      8.85
   04/01/2020 12:40      74.3      73.3       40     47.8      0.00     13.93      62.5     0.51      1011.1     2.7     ESE   123   5.8     SSE     163     265       540       1.7       4.2      69.3      8.85
   04/01/2020 12:30      74.9      73.9       39     48.1      0.00     13.93      62.6     0.50      1011.2     2.5     ESE   120   6.9     SSE     149     265       534       1.5       3.9      68.6      8.85
   04/01/2020 12:20      74.8      73.5       40     47.9      0.00     13.93      62.6     0.51      1011.4     2.0       E    88   6.9     ESE     106     265       533       1.2       3.7      67.9      8.85
   04/01/2020 12:10      73.7      72.0       41     47.7      0.00     13.93      62.6     0.50      1011.5     1.9     ESE   112   5.1       E      80     265       528       1.4       3.5      67.2      8.85
   04/01/2020 12:00      72.4      71.5       42     47.7      0.00     13.93      62.0     0.50      1011.7     2.7     SSE   155   6.2      SE     139     265       525       1.7       3.2      65.8      8.86
   04/01/2020 11:50      72.3      71.4       43     47.8      0.00     13.93      62.1     0.51      1011.8     2.9     SSW   196   5.6       S     186     265       517       2.2       3.0      65.0      8.86
   04/01/2020 11:40      72.3      71.4       42     47.6      0.00     13.93      62.2     0.51      1012.0     2.4     SSW   196   6.2      SE     134     265       505       1.7       2.6      64.2      8.86
   04/01/2020 11:30      72.3      71.0       42     47.1      0.00     13.93      62.1     0.50      1012.1     1.4       E    91   3.7      SE     127     265       494       0.9       2.3      63.5      8.86
   04/01/2020 11:20      72.0      70.6       42     47.2      0.00     13.93      62.0     0.50      1012.1     1.6      NE    54   3.7       E      90     266       485       1.0       2.2      62.8      8.86
   04/01/2020 11:10      70.7      69.7       43     46.9      0.00     13.93      62.2     0.51      1012.2     1.7     NNE    23   4.4     NNE      32     266       474       1.0       2.0      62.1      8.86
   04/01/2020 11:00      70.5      69.7       44     47.3      0.00     13.93      62.7     0.51      1012.3     1.3     NNE    16   3.6     NNE      24     266       461       0.6       1.8      62.1      8.86
   04/01/2020 10:50      69.9      69.2       45     47.0      0.00     13.93      62.7     0.51      1012.3     1.4     ENE    58   3.7      NE      48     266       449       0.9       1.8      61.4      8.86
   04/01/2020 10:40      69.5      68.6       46     47.6      0.00     13.93      62.8     0.51      1012.4     1.1     SSW   200   3.4     SSW     205     266       434       0.9       1.6      60.9      8.86
   04/01/2020 10:30      68.6      66.5       49     48.1      0.00     13.93      62.8     0.51      1012.5     1.0      NE    55   4.7      SE     139     266       417       0.6       1.4      60.3      8.86
   04/01/2020 10:20      67.4      66.7       49     47.6      0.00     13.93      62.7     0.51      1012.6     1.8      NE    39   4.0       N      10     266       400       0.7       1.3      59.6      8.86
   04/01/2020 10:10      67.5      65.9       51     48.0      0.00     13.93      62.5     0.51      1012.6     1.1      NE    47   3.6       N       2     266       380       0.4       1.2      58.8      8.86
   04/01/2020 10:00      66.3      65.7       52     48.1      0.00     13.93      62.7     0.51      1012.7     1.4      NE    46   3.1       E      86     266       362       0.5       1.2      58.7      8.86
   04/01/2020 09:50      65.9      64.8       54     48.3      0.00     13.93      62.7     0.51      1012.7     1.1      NE    40   2.8     ENE      77     266       344       0.3       1.1      58.3      8.86
   04/01/2020 09:40      64.9      63.9       54     47.7      0.00     13.93      62.7     0.51      1012.7     1.2     ENE    72   3.1     NNE      13     267       327       0.7       1.0      57.8      8.86
   04/01/2020 09:30      63.9      62.7       57     47.9      0.00     13.93      62.8     0.51      1012.6     0.7       N     0   2.5     ENE      62     267       309       0.4       0.9      57.5      8.86
   04/01/2020 09:20      62.9      61.8       60     48.2      0.00     13.93      63.2     0.51      1012.6     0.7       N     2   3.2       N       5     268       288       0.1       0.8      57.4      8.86
   04/01/2020 09:10      62.9      62.1       59     48.1      0.00     13.93      63.0     0.51      1012.6     1.1     NNE    17   3.4     NNE      32     267       268       0.3       0.8      56.9      8.86
   04/01/2020 09:00      62.8      61.7       60     48.1      0.00     13.93      63.2     0.51      1012.6     0.2       N    11   1.6     NNE      14     268       243       0.1       0.8      56.8      8.86
   04/01/2020 08:50      61.8      60.6       62     48.0      0.00     13.93      63.5     0.51      1012.6     0.3     NNW   328   1.3       W     268     270       221       0.2       0.8      56.8      8.86
   04/01/2020 08:40      60.9      59.9       63     48.0      0.00     13.93      63.8     0.51      1012.6     0.5     NNE    14   1.7     NNE      20     269       198       0.2       0.7      56.9      8.86
   04/01/2020 08:30      60.1      59.6       64     47.6      0.00     13.93      63.8     0.51      1012.5     0.3     NNW   343   1.1       N     349     271       170       0.0       0.7      56.8      8.86
   04/01/2020 08:20      60.3      59.6       64     47.7      0.00     13.93      64.0     0.51      1012.5     0.5     ENE    60   1.6       E      92     273       139       0.0       0.7      56.7      8.86
   04/01/2020 08:10      59.7      59.4       64     47.2      0.00     13.93      63.9     0.51      1012.4     0.0       N     0   0.0     NNW     333     281       111       0.0       0.7      56.7      8.86
   04/01/2020 08:00      59.5      57.5       67     47.6      0.00     13.93      63.0     0.51      1012.3     0.0       N     0   0.0     ENE      77     301       101       0.0       0.7      56.0      8.86
   04/01/2020 07:50      57.5      53.8       77     48.3      0.00     13.93      63.1     0.51      1012.2     0.0       N     0   0.0       E      79     316        91       0.0       0.7      55.9      8.86
   04/01/2020 07:40      53.7      50.7       86     47.9      0.00     13.93      63.1     0.51      1012.1     0.0       N     0   0.0     ESE     103     322        69       0.0       0.7      55.9      8.86
   04/01/2020 07:30      50.8      49.6       87     46.4      0.00     13.93      63.1     0.51      1011.9     0.0      SE   124   0.1     ESE     118     326        19       0.0       0.7      55.9      8.86
   04/01/2020 07:20      49.7      49.2       88     46.0      0.00     13.93      63.1     0.51      1011.9     0.7     SSE   147   1.5     SSE     150     324        -5       0.0       0.7      56.0      8.86
   04/01/2020 07:10      49.3      48.9       88     45.7      0.00     13.93      63.1     0.51      1011.8     0.3       S   182   1.2     SSW     197     322       -16       0.1       0.7      56.1      8.86
   04/01/2020 07:00      49.2      48.7       88     45.6      0.00     13.93      63.4     0.51      1011.7     0.1     SSE   156   0.9       S     174     319       -26       0.0       0.7      56.7      8.86
   04/01/2020 06:50      48.9      48.5       88     45.2      0.00     13.93      63.4     0.51      1011.6     0.6       S   169   1.5      SE     142     316       -33       0.1       0.7      56.9      8.86
   04/01/2020 06:40      49.4      48.7       87     45.5      0.00     13.93      63.5     0.51      1011.4     0.5     SSE   158   1.2     SSE     149     310       -37       0.3       0.6      57.1      8.86
   04/01/2020 06:30      49.4      49.0       86     45.4      0.00     13.93      63.5     0.51      1011.3     0.7       S   185   2.0       S     188     303       -41       0.5       0.6      57.3      8.86
   04/01/2020 06:20      50.0      49.4       86     45.7      0.00     13.93      63.6     0.51      1011.3     1.0     SSE   169   1.8     SSW     213     298       -43       0.0       0.5      57.6      8.86
   04/01/2020 06:10      50.1      49.7       86     45.9      0.00     13.93      63.6     0.51      1011.1     0.5       S   177   1.7     SSW     195     294       -45       0.2       0.5      57.8      8.86
   04/01/2020 06:00      50.0      49.8       86     45.8      0.00     13.93      63.6     0.51      1011.0     0.2       S   187   1.3       S     185     289       -49       0.0       0.5      58.1      8.86
   04/01/2020 05:50      50.6      50.0       85     45.9      0.00     13.93      63.6     0.51      1011.0     0.1     SSE   160   0.6       S     170     283       -52       0.0       0.5      58.4      8.86
   04/01/2020 05:40      50.9      50.5       84     46.0      0.00     13.93      63.7     0.51      1011.0     0.0       S   176   0.7       S     174     275       -55       0.0       0.5      58.6      8.86
   04/01/2020 05:30      50.8      50.5       84     45.9      0.00     13.93      63.7     0.51      1010.9     0.3       S   176   0.9      SE     145     268       -57       0.0       0.5      58.8      8.86
   04/01/2020 05:20      51.1      50.5       83     45.8      0.00     13.93      63.7     0.51      1011.0     0.5     SSE   159   1.3      SE     136     264       -59       0.0       0.5      59.0      8.86
   04/01/2020 05:10      51.8      50.8       81     45.7      0.00     13.93      63.8     0.51      1010.9     0.3     SSE   162   1.3     SSE     149     262       -60       0.0       0.5      59.2      8.86
   04/01/2020 05:00      51.9      51.6       81     46.1      0.00     13.93      63.6     0.51      1010.9     0.8     SSE   157   1.2     SSE     154     264       -59       0.0       0.5      59.3      8.86
   04/01/2020 04:50      52.2      51.7       80     46.0      0.00     13.93      63.6     0.51      1011.0     0.3      SE   144   1.1      SE     132     270       -59       0.0       0.5      59.5      8.86
   04/01/2020 04:40      52.5      52.1       79     46.1      0.00     13.93      63.6     0.51      1011.0     0.8       S   178   1.9     SSW     197     271       -57       0.4       0.5      59.8      8.86
   04/01/2020 04:30      52.7      52.2       79     46.1      0.00     13.93      63.6     0.51      1011.0     0.4       S   184   1.3     SSW     206     271       -56       0.1       0.4      60.0      8.86
   04/01/2020 04:20      53.3      52.5       78     46.2      0.00     13.93      63.7     0.51      1011.1     0.4     SSE   169   1.5       S     173     272       -54       0.1       0.4      60.2      8.87
   04/01/2020 04:10      53.7      53.1       77     46.4      0.00     13.93      63.7     0.51      1011.1     0.5     SSE   152   1.5       S     177     272       -51       0.1       0.3      60.4      8.87
   04/01/2020 04:00      53.8      53.3       77     46.5      0.00     13.93      63.9     0.51      1011.1     0.2      SW   222   0.8     SSW     205     272       -48       0.0       0.3      60.6      8.87
   04/01/2020 03:50      54.3      53.6       76     46.4      0.00     13.93      64.0     0.51      1011.1     0.0      SE   127   0.6     SSE     150     272       -46       0.0       0.3      60.9      8.87
   04/01/2020 03:40      54.3      54.1       74     46.2      0.00     13.93      64.0     0.51      1011.2     0.3      SE   135   0.9       S     178     272       -44       0.0       0.3      61.1      8.87
   04/01/2020 03:30      54.5      54.1       74     46.1      0.00     13.93      64.0     0.51      1011.3     0.4     SSE   166   1.1       S     170     271       -43       0.0       0.3      61.2      8.87
   04/01/2020 03:20      54.7      54.1       74     46.5      0.00     13.93      64.0     0.51      1011.4     0.3       S   180   1.2       S     184     271       -43       0.0       0.3      61.4      8.87
   04/01/2020 03:10      54.9      54.5       74     46.5      0.00     13.93      64.0     0.51      1011.4     0.3      SE   141   0.8      SE     131     271       -43       0.0       0.3      61.5      8.87
   04/01/2020 03:00      55.3      54.7       72     46.0      0.00     13.93      64.2     0.51      1011.5     0.4     SSE   164   1.1      SE     139     271       -42       0.0       0.3      61.8      8.87
   04/01/2020 02:50      55.3      54.9       71     45.8      0.00     13.93      64.2     0.51      1011.5     0.0     SSE   154   0.7     SSE     154     271       -41       0.0       0.3      62.0      8.87
   04/01/2020 02:40      55.2      54.9       71     45.9      0.00     13.93      64.1     0.51      1011.6     0.0       N     0   0.0      SE     140     271       -41       0.0       0.3      62.1      8.87
   04/01/2020 02:30      55.3      54.9       71     45.8      0.00     13.93      64.1     0.51      1011.6     0.0      SE   144   0.7      SE     140     271       -41       0.0       0.3      62.3      8.87
   04/01/2020 02:20      55.5      55.1       70     45.7      0.00     13.93      64.2     0.51      1011.8     0.3       S   174   0.9     SSE     154     270       -42       0.0       0.3      62.4      8.87
   04/01/2020 02:10      55.6      55.1       70     45.7      0.00     13.93      64.2     0.51      1011.9     0.5     SSE   157   1.1      SE     144     270       -42       0.0       0.3      62.7      8.87
   04/01/2020 02:00      55.3      54.9       71     45.9      0.00     13.93      64.0     0.51      1012.0     0.5       S   172   1.2       S     185     270       -44       0.0       0.3      62.5      8.87
   04/01/2020 01:50      55.0      54.6       72     46.1      0.00     13.93      64.0     0.51      1012.1     0.3     SSE   167   1.4      SE     143     270       -45       0.2       0.3      62.7      8.87
   04/01/2020 01:40      55.7      54.8       71     45.9      0.00     13.93      64.0     0.51      1012.1     0.4     SSE   154   1.6      SE     138     270       -46       0.0       0.3      62.9      8.87
   04/01/2020 01:30      56.1      55.4       69     45.7      0.00     13.93      64.0     0.51      1012.1     0.0     SSW   195   0.0     SSW     195     270       -46       0.0       0.3      63.2      8.87
   04/01/2020 01:20      56.5      56.0       67     45.3      0.00     13.93      64.1     0.51      1012.1     0.1      SE   140   0.9      SE     132     270       -46       0.0       0.3      63.4      8.87
   04/01/2020 01:10      56.7      56.2       66     45.3      0.00     13.93      64.1     0.51      1012.1     0.4     SSW   198   1.4     SSW     205     270       -45       0.1       0.2      63.5      8.87
   04/01/2020 01:00      57.1      56.6       66     45.6      0.00     13.93      64.6     0.51      1012.2     0.4     SSW   197   1.7      SW     230     270       -44       0.3       0.2      64.4      8.87
   04/01/2020 00:50      57.0      56.1       67     45.7      0.00     13.93      64.7     0.51      1012.3     0.9      SW   234   2.3     WSW     247     270       -43       0.4       0.2      64.6      8.87
   04/01/2020 00:40      56.5      56.0       68     45.8      0.00     13.93      64.5     0.51      1012.4     0.9     ESE   119   2.5       S     185     270       -43       0.3       0.1      64.7      8.88
   04/01/2020 00:30      56.6      56.3       67     45.6      0.00     13.93      64.5     0.51      1012.5     0.7     SSE   162   1.8      SE     142     270       -44       0.4       0.0      64.9      8.88
   04/01/2020 00:20      56.7      56.4       67     45.7      0.00     13.93      64.6     0.51      1012.6     0.3       S   175   1.0       S     173     270       -47       0.0       0.0      65.2      8.88
   04/01/2020 00:10      56.8      56.4       67     45.7      0.00     13.93      64.5     0.51      1012.6     0.8     SSE   167   1.5       S     187     270       -48       0.0       0.0      65.3      8.88
   04/01/2020 00:00      57.2      56.6       66     45.7      0.00     13.93      64.3     0.51      1012.6     0.3      SE   137   1.0     SSE     153     270       -48       0.0      15.5      65.3      8.88
   03/31/2020 23:50      57.5      57.0       66     45.8      0.00     13.93      64.4     0.51      1012.7     0.6       S   177   1.7     SSW     209     269       -49       0.0      15.5      65.6      8.88
   03/31/2020 23:40      57.7      57.3       64     45.3      0.00     13.93      64.4     0.51      1012.8     0.5      SE   146   1.2      SE     144     270       -51       0.0      15.5      65.8      8.88
   03/31/2020 23:30      58.2      57.5       63     45.2      0.00     13.93      64.2     0.51      1012.8     1.1       S   175   2.6       S     185     269       -52       0.3      15.5      66.0      8.88
   03/31/2020 23:20      58.4      58.0       63     45.5      0.00     13.93      64.3     0.51      1012.9     0.3     SSW   192   1.3     SSW     194     269       -54       0.0      15.4      66.3      8.88
   03/31/2020 23:10      58.8      58.1       62     45.7      0.00     13.93      64.4     0.51      1012.9     1.2     SSW   205   2.4     SSW     206     269       -55       0.1      15.4      66.6      8.88
   03/31/2020 23:00      59.5      58.7       61     45.6      0.00     13.93      64.2     0.51      1013.0     0.5     ENE    78   1.4     ENE      57     269       -57       0.0      15.4      67.0      8.88
   03/31/2020 22:50      59.7      59.1       58     44.6      0.00     13.93      64.1     0.51      1013.1     0.6       S   172   1.9       S     182     269       -54       0.1      15.4      67.2      8.88
   03/31/2020 22:40      59.7      59.3       60     45.7      0.00     13.93      64.3     0.51      1013.1     0.4     SSW   205   2.5     SSW     198     269       -52       0.2      15.4      67.4      8.88
   03/31/2020 22:30      60.3      59.5       59     45.4      0.00     13.93      64.3     0.51      1013.1     0.3     SSE   155   0.9     SSE     147     268       -50       0.0      15.3      67.6      8.89
   03/31/2020 22:20      60.4      60.1       58     45.4      0.00     13.93      64.3     0.51      1013.1     0.0     WSW   243   0.7     WSW     248     268       -49       0.0      15.3      67.8      8.89
   03/31/2020 22:10      60.7      60.2       58     45.6      0.00     13.93      64.0     0.51      1013.2     0.6       S   177   1.6     SSW     199     268       -50       0.1      15.3      68.1      8.89
   03/31/2020 22:00      61.0      60.3       57     45.3      0.00     13.93      63.6     0.51      1013.2     1.0       S   188   2.0     SSW     201     268       -52       0.3      15.3      68.0      8.89
   03/31/2020 21:50      61.4      60.9       58     46.3      0.00     13.93      63.6     0.51      1013.2     0.4       S   184   1.5      SW     218     268       -54       0.0      15.2      68.4      8.89
   03/31/2020 21:40      62.0      61.2       59     47.0      0.00     13.93      63.7     0.51      1013.2     0.3     SSE   163   1.0     ENE      74     268       -55       0.0      15.2      68.5      8.89
   03/31/2020 21:30      62.5      61.7       57     46.5      0.00     13.93      63.7     0.51      1013.3     0.5       S   172   1.2       S     175     268       -55       0.0      15.2      68.8      8.89
   03/31/2020 21:20      63.2      62.3       53     45.3      0.00     13.93      63.8     0.51      1013.3     0.4     SSE   160   1.2     SSE     148     268       -54       0.0      15.2      69.2      8.89
   03/31/2020 21:10      63.5      63.0       52     45.4      0.00     13.93      63.9     0.51      1013.3     0.3       S   180   1.3       S     184     268       -53       0.1      15.2      69.4      8.89
   03/31/2020 21:00      64.1      63.5       51     45.5      0.00     13.93      63.7     0.51      1013.3     0.7     SSW   203   1.8      SW     220     268       -51       0.2      15.2      69.7      8.89
   03/31/2020 20:50      64.8      64.2       50     45.5      0.00     13.93      63.7     0.51      1013.3     0.9       S   182   1.9       S     186     268       -50       0.2      15.2      70.0      8.90
   03/31/2020 20:40      64.9      64.3       51     45.9      0.00     13.93      64.2     0.51      1013.2     0.1     SSW   208   1.3      SW     218     268       -51       0.0      15.1      70.6      8.90
   03/31/2020 20:30      66.3      64.8       50     46.1      0.00     13.93      64.3     0.51      1013.2     0.0     SSW   212   0.5     SSW     212     267       -53       0.0      15.1      71.1      8.90
   03/31/2020 20:20      67.4      66.3       46     45.4      0.00     13.93      63.9     0.51      1013.2     0.0     SSW   206   1.5     SSW     212     267       -53       0.1      15.1      71.0      8.90
   03/31/2020 20:10      67.8      67.3       44     44.8      0.00     13.93      64.1     0.51      1013.2     0.2       S   191   1.3     SSW     199     267       -54       0.0      15.1      71.3      8.90
   03/31/2020 20:00      68.9      67.6       43     44.9      0.00     13.93      64.0     0.51      1013.2     1.3     SSW   202   3.0      SW     221     267       -56       0.5      15.1      71.7      8.90
   03/31/2020 19:50      69.2      68.7       42     44.7      0.00     13.93      64.3     0.51      1013.2     1.9     SSW   193   3.0     SSW     202     266       -57       1.0      15.0      72.3      8.90
   03/31/2020 19:40      69.5      68.9       42     45.3      0.00     13.93      64.2     0.51      1013.1     2.3     SSW   198   4.4     SSW     204     266       -59       1.3      14.9      72.7      8.91
   03/31/2020 19:30      70.0      69.3       42     45.7      0.00     13.93      64.2     0.51      1013.1     2.4     SSW   201   3.4     SSW     197     266       -57       1.4      14.7      72.9      8.91
   03/31/2020 19:20      70.6      69.8       42     45.8      0.00     13.93      64.1     0.51      1013.1     2.1     SSW   203   3.4     SSW     201     266       -56       1.1      14.4      73.3      8.91
   03/31/2020 19:10      70.8      70.2       42     46.0      0.00     13.93      64.1     0.51      1013.2     1.9     SSW   210   3.5     WSW     237     266       -52       1.2      14.2      73.6      8.91
   03/31/2020 19:00      71.9      70.6       42     46.6      0.00     13.93      62.8     0.51      1013.1     1.7     SSW   199   2.5     SSW     200     266       -43       0.8      14.1      72.6      8.91
   03/31/2020 18:50      73.1      71.7       39     46.3      0.00     13.93      62.7     0.51      1013.2     1.1      SW   228   2.7       W     277     266       -36       0.5      13.9      72.9      8.92
   03/31/2020 18:40      73.6      72.9       37     45.7      0.00     13.93      62.7     0.51      1013.2     1.1     WNW   294   2.9       W     265     266       -27       0.6      13.8      73.1      8.92
   03/31/2020 18:30      74.0      73.3       37     46.0      0.00     13.93      62.5     0.51      1013.2     0.9       W   274   3.6       S     187     266        -4       0.6      13.7      73.4      8.92
   03/31/2020 18:20      73.5      73.1       37     45.8      0.00     13.93      62.5     0.51      1013.3     1.9      SW   225   3.0       S     190     266        17       1.1      13.6      73.5      8.92
   03/31/2020 18:10      73.4      73.1       38     45.9      0.00     13.93      62.5     0.51      1013.3     2.0     SSW   202   4.4     SSW     210     266        -3       1.3      13.5      73.6      8.92
   03/31/2020 18:00      73.6      73.3       37     45.6      0.00     13.93      62.6     0.51      1013.4     1.8       S   177   3.9      SE     141     266        -0       1.2      13.3      74.2      8.92
   03/31/2020 17:50      74.4      73.5       35     44.7      0.00     13.93      62.6     0.51      1013.5     2.3       S   170   4.4     SSW     209     266        10       1.5      13.1      74.4      8.93
   03/31/2020 17:40      75.0      74.3       35     44.8      0.00     13.93      63.0     0.51      1013.6     2.5       S   172   4.8     SSE     156     266        40       1.7      12.8      74.9      8.93
   03/31/2020 17:30      74.9      74.5       33     43.9      0.00     13.93      63.2     0.51      1013.5     2.6     SSE   165   4.7      SE     145     266       116       1.9      12.5      75.2      8.93
   03/31/2020 17:20      75.5      74.6       32     42.9      0.00     13.93      63.0     0.51      1013.5     2.8       S   173   4.8       S     187     265       145       1.7      12.2      75.2      8.93
   03/31/2020 17:10      75.0      74.5       32     43.1      0.00     13.93      63.1     0.51      1013.6     3.6     SSE   156   6.0      SE     137     266       181       1.9      11.9      75.3      8.93
   03/31/2020 17:00      75.1      74.7       33     43.8      0.00     13.93      62.1     0.51      1013.7     3.3       S   171   6.1       S     185     266       119       2.2      11.6      74.4      8.94
   03/31/2020 16:50      75.3      74.7       33     44.0      0.00     13.93      61.8     0.51      1013.7     4.0       S   176   7.3      SE     137     265       106       2.5      11.2      74.4      8.94
   03/31/2020 16:40      75.7      75.1       32     43.9      0.00     13.93      61.7     0.51      1013.6     3.8     SSE   159   8.3       S     188     265        87       2.4      10.8      74.4      8.94
   03/31/2020 16:30      76.4      75.4       32     44.1      0.00     13.93      61.6     0.51      1013.7     3.8     SSE   165   7.6     SSW     197     265        96       2.1      10.4      74.1      8.94
   03/31/2020 16:20      76.7      76.3       31     43.9      0.00     13.93      61.3     0.51      1013.6     3.5     SSE   154   5.5      SE     129     265       145       2.2      10.1      73.9      8.95
   03/31/2020 16:10      77.9      76.6       30     43.7      0.00     13.93      61.2     0.51      1013.7     4.5       S   188   7.1     SSE     157     265       224       3.0       9.7      73.5      8.95
   03/31/2020 16:00      78.6      77.9       31     44.7      0.00     13.93      61.9     0.51      1013.8     3.1     SSW   192   5.5     SSW     212     264       240       2.2       9.2      73.9      8.95
   03/31/2020 15:50      78.3      77.7       30     44.5      0.00     13.93      61.7     0.51      1013.8     3.8       S   185   7.4      SW     224     265       240       2.6       8.8      73.5      8.96
   03/31/2020 15:40      78.5      77.6       31     44.6      0.00     13.93      61.6     0.51      1013.8     3.8       S   187   6.2       S     187     265       179       2.6       8.4      73.2      8.96
   03/31/2020 15:30      80.0      78.1       30     44.4      0.00     13.93      61.5     0.50      1013.9     4.3       S   176   8.1     SSW     196     264       207       3.0       8.0      72.8      8.96
   03/31/2020 15:20      81.3      80.1       26     42.5      0.00     13.93      61.4     0.50      1014.0     2.7       S   171   6.7       S     180     264       268       1.8       7.5      72.3      8.97
   03/31/2020 15:10      82.0      80.8       25     42.0      0.00     13.93      61.3     0.50      1014.2     2.1     SSE   148   5.0      SW     227     264       383       1.8       7.2      71.7      8.97
   03/31/2020 15:00      81.2      80.3       26     42.3      0.00     13.93      62.0     0.50      1014.4     3.1      SW   230   5.9      SW     226     264       498       2.2       6.9      71.9      8.97
   03/31/2020 14:50      81.3      80.4       26     42.4      0.00     13.93      62.2     0.50      1014.5     2.4      SE   124   5.3      SE     130     264       463       1.8       6.5      71.5      8.97
   03/31/2020 14:40      81.1      80.3       26     42.6      0.00     13.93      62.1     0.50      1014.6     1.4       E    92   2.8     NNE      29     264       392       0.9       6.2      71.1      8.97
   03/31/2020 14:30      80.3      79.5       26     42.0      0.00     13.93      62.2     0.50      1014.7     1.6      SW   230   6.0     WSW     257     264       440       1.6       6.0      70.5      8.97
   03/31/2020 14:20      79.9      79.3       27     42.3      0.00     13.93      62.1     0.50      1014.8     1.9     ENE    69   4.2     ESE     106     264       404       0.9       5.8      70.0      8.97
   03/31/2020 14:10      80.0      78.8       27     42.4      0.00     13.93      62.2     0.50      1014.9     1.3     NNE    14   3.1      NE      54     263       450       1.0       5.6      69.6      8.98
   03/31/2020 14:00      79.3      78.4       26     41.4      0.00     13.93      60.8     0.50      1015.1     1.5       N   353   4.8     ENE      76     263       424       1.3       5.5      67.7      8.98
   03/31/2020 13:50      79.3      78.6       26     40.9      0.00     13.93      60.7     0.50      1015.3     1.7       W   277   4.2       W     261     263       352       1.3       5.3      67.1      8.98
   03/31/2020 13:40      79.3      78.4       26     41.1      0.00     13.93      60.7     0.50      1015.5     1.5     NNW   344   4.4      NW     322     264       361       0.6       5.1      66.6      8.98
   03/31/2020 13:30      79.0      77.5       26     40.9      0.00     13.93      60.6     0.50      1015.6     2.2       E    92   4.2      SE     135     264       428       1.2       5.0      66.1      8.98
   03/31/2020 13:20      79.1      78.2       25     40.0      0.00     13.93      60.6     0.50      1015.8     1.2     SSE   158   3.4     SSE     167     263       457       1.0       4.8      65.6      8.98
   03/31/2020 13:10      78.6      77.5       26     40.4      0.00     13.93      60.7     0.50      1016.0     1.7      NE    41   4.1      NE      53     263       453       0.8       4.6      64.9      8.98
   03/31/2020 13:00      77.9      76.6       26     39.2      0.00     13.93      60.5     0.50      1016.1     1.5     ESE   110   4.9     ENE      71     263       501       0.9       4.4      64.2      8.98
   03/31/2020 12:50      77.8      76.7       25     39.1      0.00     13.93      60.5     0.50      1016.3     1.7     ENE    64   4.4     NNE      31     263       479       1.1       4.3      63.6      8.99
   03/31/2020 12:40      77.8      76.2       26     39.1      0.00     13.93      60.4     0.50      1016.4     1.2     ENE    58   3.5       E      89     263       485       0.8       4.1      63.0      8.99
   03/31/2020 12:30      76.2      75.4       27     39.4      0.00     13.93      60.7     0.50      1016.6     1.4      NE    35   3.5     NNE      21     264       423       0.6       4.0      62.4      8.99
   03/31/2020 12:20      76.5      75.3       27     39.5      0.00     13.93      60.7     0.50      1016.8     1.9       N     9   5.0      NE      42     264       475       0.7       3.9      61.8      8.99
   03/31/2020 12:10      76.2      75.7       27     39.5      0.00     13.93      61.0     0.50      1017.0     1.7      NE    55   3.4       E      84     264       489       0.8       3.8      61.7      8.99
   03/31/2020 12:00      75.9      74.3       28     39.8      0.00     13.93      60.9     0.50      1017.1     1.7      NE    53   3.9     NNE      22     264       487       0.8       3.7      60.7      8.99
   03/31/2020 11:50      74.5      73.3       29     39.7      0.00     13.93      60.9     0.50      1017.2     1.6     NNW   340   3.6     WSW     240     264       387       0.9       3.5      60.0      8.99
   03/31/2020 11:40      74.0      73.2       29     38.9      0.00     13.93      60.9     0.50      1017.4     1.7      SE   128   3.4     ESE     108     264       401       1.0       3.4      59.4      8.99
   03/31/2020 11:30      73.5      72.8       29     39.4      0.00     13.93      60.8     0.50      1017.6     1.8     ESE   117   4.7       E      83     265       384       0.9       3.2      58.8      8.99
   03/31/2020 11:20      74.1      73.3       29     39.6      0.00     13.93      61.0     0.50      1017.6     1.2     ESE   105   4.3     ENE      71     265       396       0.9       3.0      58.4      8.99
   03/31/2020 11:10      73.6      72.2       30     39.6      0.00     13.93      61.0     0.50      1017.7     0.8       E    84   2.4      SE     126     264       389       0.6       2.9      57.8      8.99
   03/31/2020 11:00      72.2      70.3       31     39.0      0.00     13.93      61.0     0.50      1017.7     1.6       E    91   3.5       E      91     265       412       0.9       2.8      57.4      8.99
   03/31/2020 10:50      70.8      69.8       32     39.4      0.00     13.93      61.1     0.50      1017.8     2.0      SE   143   4.3      SE     135     266       399       0.9       2.6      56.9      8.99
   03/31/2020 10:40      69.8      68.1       34     39.3      0.00     13.93      61.3     0.50      1017.9     1.8     ESE   114   4.4       E      99     266       332       0.9       2.5      56.3      8.99
   03/31/2020 10:30      68.4      67.9       35     39.8      0.00     13.93      61.3     0.50      1017.9     2.9     ESE   119   4.4     SSE     156     266       260       1.3       2.3      56.0      8.99
   03/31/2020 10:20      68.3      67.6       36     40.1      0.00     13.93      61.3     0.50      1017.9     1.8       E    84   4.4     ENE      72     266       267       0.7       2.1      55.8      8.99
   03/31/2020 10:10      67.7      66.7       37     40.2      0.00     13.93      61.4     0.50      1018.1     1.7     ESE   103   4.3     SSE     161     266       264       0.8       2.0      55.5      8.99
   03/31/2020 10:00      66.5      65.1       42     42.3      0.00     13.93      61.2     0.50      1018.3     1.2     ESE   124   3.1     ESE     105     267       251       0.5       1.9      55.2      8.99
   03/31/2020 09:50      65.5      65.0       48     44.8      0.00     13.93      61.2     0.50      1018.3     1.4      NE    46   2.5      NE      44     268       196       0.0       1.8      54.8      8.99
   03/31/2020 09:40      65.5      65.3       50     46.5      0.00     13.93      61.0     0.50      1018.3     0.7     NNE    12   2.8     NNE      14     268       183       0.0       1.8      54.4      8.99
   03/31/2020 09:30      65.5      63.5       51     46.3      0.00     13.93      61.0     0.50      1018.4     0.4       E    81   1.9      NE      54     268       181       0.1       1.8      54.2      8.99
   03/31/2020 09:20      63.5      61.8       55     46.4      0.00     13.93      61.0     0.50      1018.5     1.1     ENE    77   2.4       S     184     268       206       0.2       1.8      54.0      8.99
   03/31/2020 09:10      61.9      60.1       58     45.9      0.00     13.93      61.1     0.50      1018.6     1.6       S   177   3.4     SSE     165     269       184       1.4       1.7      53.7      8.99
   03/31/2020 09:00      60.3      59.2       58     45.0      0.00     13.93      61.3     0.50      1018.9     0.3      NE    45   1.2       S     169     269       141       0.0       1.5      53.4      8.99
   03/31/2020 08:50      59.2      58.0       59     44.4      0.00     13.93      61.1     0.50      1019.0     0.3       S   189   1.2       S     190     270       106       0.0       1.5      53.2      8.99
   03/31/2020 08:40      58.3      57.5       61     44.7      0.00     13.93      61.3     0.50      1018.9     1.1      NE    37   2.8     ENE      63     270       112       0.0       1.5      53.1      8.99
   03/31/2020 08:30      58.4      56.9       62     44.8      0.00     13.93      61.3     0.50      1018.8     1.2     ENE    79   2.4       N     355     271       147       0.4       1.5      53.0      8.99
   03/31/2020 08:20      57.0      54.5       67     44.7      0.00     13.93      61.3     0.50      1019.0     0.9      SE   139   2.1       S     175     271       155       0.5       1.4      52.9      8.99
   03/31/2020 08:10      54.7      53.2       69     44.2      0.00     13.93      61.3     0.50      1019.1     0.8     ESE   117   1.9     SSW     203     272       130       0.4       1.3      52.8      8.99
   03/31/2020 08:00      53.0      51.8       75     44.6      0.00     13.93      61.8     0.50      1019.2     0.5     NNE    32   1.6       N       5     272        80       0.0       1.3      52.9      8.99
   03/31/2020 07:50      52.0      50.0       78     44.5      0.00     13.93      61.9     0.50      1019.2     1.5       W   275   2.5     WSW     252     272        54       0.5       1.3      52.7      8.99
   03/31/2020 07:40      50.0      48.4       82     44.0      0.00     13.93      61.9     0.50      1019.3     0.5     SSW   210   1.6     SSW     196     284        59       0.2       1.2      52.7      8.99
   03/31/2020 07:30      48.5      47.4       84     43.4      0.00     13.93      61.9     0.50      1019.2     0.5      SE   129   2.0     SSW     193     296        36       0.0       1.2      52.6      8.99
   03/31/2020 07:20      47.5      46.9       85     42.9      0.00     13.93      62.0     0.50      1019.2     1.0       S   174   3.0     SSW     211     307        10       0.5       1.2      52.6      8.99
   03/31/2020 07:10      47.1      46.7       85     42.6      0.00     13.93      61.9     0.50      1019.0     0.7     ENE    65   2.7     SSE     149     315        -6       0.2       1.1      52.7      8.99
   03/31/2020 07:00      47.1      46.7       85     42.8      0.00     13.93      61.0     0.50      1018.9     1.5      SW   228   3.0     WSW     254     320       -17       0.6       1.0      52.1      8.99
   03/31/2020 06:50      46.9      46.1       86     42.5      0.00     13.93      61.1     0.51      1018.7     1.7     SSW   211   4.5     SSW     204     326       -23       1.0       0.9      52.3      8.99
   03/31/2020 06:40      47.0      46.3       86     42.7      0.00     13.93      61.1     0.51      1018.6     0.6      SE   130   2.4     ENE      64     329       -25       0.3       0.8      52.5      8.99
   03/31/2020 06:30      46.7      45.9       87     42.7      0.00     13.93      61.2     0.51      1018.6     1.6       W   278   3.8     SSW     206     330       -26       0.8       0.7      52.7      8.99
   03/31/2020 06:20      46.6      45.9       86     42.3      0.00     13.93      61.5     0.51      1018.7     0.4       S   170   1.0      SE     142     333       -28       0.0       0.6      53.0      8.99
   03/31/2020 06:10      46.8      46.3       87     42.8      0.00     13.93      61.3     0.51      1018.7     1.1     SSE   149   2.5     SSW     213     328       -29       0.4       0.6      53.1      8.99
   03/31/2020 06:00      46.5      46.1       87     42.6      0.00     13.93      61.2     0.51      1018.8     0.9       S   186   2.4     SSW     202     328       -30       0.5       0.5      53.3      8.99
   03/31/2020 05:50      46.9      46.4       86     42.7      0.00     13.93      61.3     0.51      1018.6     0.4      SE   130   1.5     ENE      62     325       -27       0.0       0.4      53.5      8.99
   03/31/2020 05:40      47.0      46.6       87     43.0      0.00     13.93      61.4     0.51      1018.6     0.3     SSE   162   1.0     SSE     167     323       -26       0.0       0.4      53.6      9.00
   03/31/2020 05:30      47.0      46.6       87     43.2      0.00     13.93      61.4     0.51      1018.6     0.0       N     0   0.0      SE     143     322       -26       0.0       0.4      53.8      9.00
   03/31/2020 05:20      46.7      46.4       87     42.9      0.00     13.93      61.4     0.51      1018.6     0.4     SSE   159   1.6       S     182     319       -28       0.2       0.4      54.0      9.00
   03/31/2020 05:10      46.7      46.4       87     42.9      0.00     13.93      61.4     0.51      1018.7     0.4     SSE   156   1.3      SE     135     316       -30       0.0       0.4      54.1      9.00
   03/31/2020 05:00      46.9      46.4       87     42.8      0.00     13.93      62.6     0.51      1018.8     0.4     SSE   168   1.2     SSW     197     314       -31       0.0       0.4      55.0      9.00
   03/31/2020 04:50      47.0      46.7       86     43.0      0.00     13.93      62.7     0.51      1018.8     0.3       S   170   1.3       S     188     310       -32       0.1       0.4      55.1      9.00
   03/31/2020 04:40      47.1      46.4       87     43.0      0.00     13.93      62.7     0.51      1018.9     0.2      SE   146   1.1      SE     137     307       -33       0.1       0.4      55.3      9.00
   03/31/2020 04:30      47.0      46.2       87     42.9      0.00     13.93      62.7     0.51      1019.0     0.8       S   170   1.7     SSW     199     307       -32       0.3       0.3      55.6      9.00
   03/31/2020 04:20      46.7      46.2       86     42.5      0.00     13.93      62.7     0.51      1019.1     0.5     SSE   169   1.4      SE     142     305       -33       0.0       0.3      55.8      9.00
   03/31/2020 04:10      46.8      46.4       86     42.6      0.00     13.93      62.8     0.51      1019.3     0.2       W   273   0.9     WSW     257     303       -35       0.0       0.3      56.0      9.00
   03/31/2020 04:00      46.8      46.4       86     42.8      0.00     13.93      62.4     0.51      1019.4     0.6       S   179   1.3      SW     217     300       -37       0.0       0.3      55.8      9.00
   03/31/2020 03:50      46.5      46.2       86     42.5      0.00     13.93      62.5     0.51      1019.7     0.4     SSE   165   1.3     SSW     206     296       -41       0.0       0.3      55.9      9.00
   03/31/2020 03:40      46.7      46.1       85     42.2      0.00     13.93      62.5     0.51      1019.8     0.3     SSE   155   1.1     SSE     153     292       -45       0.0       0.3      56.1      9.00
   03/31/2020 03:30      47.4      46.6       84     42.5      0.00     13.93      62.5     0.51      1019.8     0.8     SSE   160   1.6     SSE     151     286       -48       0.2       0.3      56.4      9.00
   03/31/2020 03:20      47.1      46.5       85     42.6      0.00     13.93      62.6     0.51      1019.9     0.5      SW   232   1.4      SW     221     281       -49       0.0       0.2      56.6      9.00
   03/31/2020 03:10      47.1      46.6       84     42.4      0.00     13.93      62.6     0.51      1020.0     0.0      SW   220   0.7      SW     221     280       -52       0.0       0.2      57.0      9.00
   03/31/2020 03:00      47.7      46.9       84     42.5      0.00     13.93      62.4     0.51      1020.1     0.7      SE   140   1.6      SE     139     275       -55       0.0       0.2      56.9      9.00
   03/31/2020 02:50      47.9      47.5       83     42.8      0.00     13.93      62.1     0.51      1020.2     0.0       N     0   0.0      SE     136     266       -56       0.0       0.2      57.2      9.00
   03/31/2020 02:40      48.0      47.6       83     43.0      0.00     13.93      62.1     0.51      1020.4     0.3       S   176   1.0     SSW     196     262       -56       0.1       0.2      57.4      9.00
   03/31/2020 02:30      48.1      47.8       83     42.8      0.00     13.93      62.2     0.51      1020.6     0.7     SSE   152   1.9      SE     137     260       -58       0.2       0.2      57.7      9.00
   03/31/2020 02:20      48.2      47.8       82     42.6      0.00     13.93      62.2     0.51      1020.7     1.0     SSE   167   2.1       S     191     259       -59       0.0       0.2      57.8      9.00
   03/31/2020 02:10      48.6      48.0       81     42.7      0.00     13.93      62.2     0.51      1020.5     0.8       S   172   1.3     SSE     163     262       -58       0.2       0.2      58.0      9.00
   03/31/2020 02:00      48.8      48.3       81     42.9      0.00     13.93      62.2     0.51      1020.5     0.2       S   177   0.9     SSW     192     262       -57       0.1       0.1      58.4      9.00
   03/31/2020 01:50      48.3      47.8       82     42.9      0.00     13.93      62.2     0.51      1020.6     0.0       S   188   0.9       S     178     261       -56       0.0       0.1      58.5      9.00
   03/31/2020 01:40      48.5      48.0       81     42.7      0.00     13.93      62.2     0.51      1020.8     0.2      SE   139   1.0      SE     146     259       -58       0.0       0.1      58.7      9.00
   03/31/2020 01:30      49.1      48.3       80     42.8      0.00     13.93      62.3     0.51      1020.9     0.2      SE   144   1.0      SE     139     260       -59       0.0       0.1      58.8      9.00
   03/31/2020 01:20      49.4      49.0       79     43.1      0.00     13.93      62.4     0.51      1021.2     0.4     SSE   146   1.2      SE     143     262       -60       0.0       0.1      59.1      9.01
   03/31/2020 01:10      49.7      49.1       79     43.3      0.00     13.93      62.1     0.51      1021.3     0.7     SSE   163   1.4       S     172     264       -60       0.2       0.1      59.2      9.01
   03/31/2020 01:00      49.6      48.9       78     42.7      0.00     13.93      62.5     0.51      1021.3     0.3     SSE   164   0.9     SSE     158     263       -61       0.1       0.0      59.8      9.01
   03/31/2020 00:50      50.4      49.7       77     42.9      0.00     13.93      62.5     0.51      1021.4     0.4     SSE   168   1.1     SSE     165     266       -61       0.2       0.0      60.1      9.01
   03/31/2020 00:40      50.4      50.0       75     42.8      0.00     13.93      62.5     0.51      1021.4     0.0       S   179   0.6     SSE     166     267       -60       0.0       0.0      60.3      9.01
   03/31/2020 00:30      50.4      50.1       76     42.9      0.00     13.93      62.5     0.51      1021.6     0.3       S   185   1.1       S     187     268       -61       0.0       0.0      60.6      9.01
   03/31/2020 00:20      50.7      50.2       75     42.9      0.00     13.93      62.6     0.51      1021.6     0.1     SSE   150   0.9      SE     146     266       -62       0.0       0.0      60.9      9.01
   03/31/2020 00:10      51.0      50.5       75     43.3      0.00     13.93      62.5     0.51      1021.8     0.0       S   187   0.5       S     188     268       -62       0.0       0.0      61.0      9.01
   03/31/2020 00:00      51.0      50.5       77     43.7      0.00     13.93      63.5     0.51      1021.9     0.7     SSE   159   1.5       S     172     268       -62       0.1      21.3      62.1      9.01
   03/30/2020 23:50      51.0      50.5       77     43.7      0.00     13.93      63.5     0.51      1022.0     0.8     SSE   151   1.8      SE     141     266       -63       0.3      21.3      62.5      9.01
   03/30/2020 23:40      51.1      50.7       76     43.8      0.00     13.93      63.5     0.51      1022.0     0.5     SSE   155   1.3     SSE     149     268       -63       0.2      21.2      62.8      9.01
   03/30/2020 23:30      51.6      51.0       75     43.7      0.00     13.93      63.4     0.51      1022.0     0.7       S   172   1.4     SSW     194     266       -63       0.6      21.2      63.0      9.01
   03/30/2020 23:20      51.9      51.4       74     43.6      0.00     13.93      63.5     0.51      1022.1     0.9       S   177   2.4      SW     222     266       -63       0.2      21.1      63.4      9.01
   03/30/2020 23:10      52.4      51.8       73     43.7      0.00     13.93      63.5     0.51      1022.2     1.0       S   182   1.8     SSW     204     268       -63       0.4      21.1      63.7      9.02
   03/30/2020 23:00      52.5      52.2       73     43.9      0.00     13.93      62.6     0.51      1022.3     0.5     SSW   193   1.7      SW     231     268       -64       0.0      21.0      63.0      9.02
   03/30/2020 22:50      52.9      52.4       72     43.9      0.00     13.93      62.6     0.51      1022.4     0.2     SSE   169   1.0     SSE     148     267       -65       0.0      21.0      63.3      9.02
   03/30/2020 22:40      53.2      52.7       72     44.0      0.00     13.93      62.6     0.51      1022.5     0.8     SSW   202   1.8     SSW     196     268       -64       0.1      21.0      63.6      9.02
   03/30/2020 22:30      53.6      53.0       72     44.4      0.00     13.93      62.5     0.51      1022.6     0.2       S   178   1.7     SSW     194     267       -66       0.1      20.9      63.9      9.02
   03/30/2020 22:20      54.0      53.4       71     44.4      0.00     13.93      62.6     0.51      1022.6     0.3     SSW   194   1.2       S     178     268       -68       0.2      20.9      64.2      9.02
   03/30/2020 22:10      54.2      53.7       70     44.5      0.00     13.93      62.6     0.51      1022.6     0.6       S   179   1.4       S     187     268       -69       0.3      20.9      64.5      9.02
   03/30/2020 22:00      54.7      54.1       69     44.5      0.00     13.93      62.6     0.51      1022.6     0.2      SE   140   0.8       E      96     268       -69       0.0      20.9      64.9      9.02
   03/30/2020 21:50      54.8      54.4       69     44.5      0.00     13.93      62.5     0.51      1022.5     0.2       S   174   1.2       S     183     268       -70       0.0      20.9      65.2      9.02
   03/30/2020 21:40      55.7      54.7       67     44.4      0.00     13.93      62.5     0.51      1022.6     0.4       S   176   1.3       S     180     268       -70       0.0      20.9      65.6      9.02
   03/30/2020 21:30      57.0      55.7       64     44.2      0.00     13.93      62.6     0.51      1022.4     0.2     SSE   154   1.0     SSE     162     268       -71       0.0      20.9      66.1      9.02
   03/30/2020 21:20      57.9      57.0       61     44.3      0.00     13.93      62.6     0.51      1022.3     0.0       N     0   0.0       S     179     268       -73       0.0      20.9      66.4      9.03
   03/30/2020 21:10      58.6      57.7       60     44.3      0.00     13.93      62.5     0.51      1022.3     0.6     SSW   193   1.6     SSW     210     268       -74       0.0      20.9      66.7      9.03
   03/30/2020 21:00      58.7      58.3       59     44.4      0.00     13.93      62.8     0.51      1022.2     1.5     SSW   196   3.3      SW     221     268       -74       0.9      20.8      67.2      9.03
   03/30/2020 20:50      59.1      58.6       58     44.3      0.00     13.93      62.8     0.51      1022.0     0.5       S   186   1.8      SW     215     268       -75       0.1      20.7      67.5      9.03
   03/30/2020 20:40      59.7      58.8       57     44.3      0.00     13.93      62.7     0.51      1021.9     1.2     SSW   201   2.5     SSW     195     268       -75       0.7      20.7      67.9      9.03
   03/30/2020 20:30      60.2      59.7       56     44.2      0.00     13.93      62.7     0.51      1021.8     1.3     SSW   205   3.4       S     188     268       -77       0.7      20.6      68.3      9.03
   03/30/2020 20:20      60.6      59.8       56     44.2      0.00     13.93      62.6     0.51      1021.7     1.2     SSW   208   3.6      SW     226     268       -78       0.5      20.4      68.6      9.04
   03/30/2020 20:10      61.3      60.3       54     44.2      0.00     13.93      62.6     0.51      1021.6     1.4     SSW   192   3.4      SW     226     268       -79       0.8      20.4      69.1      9.04
   03/30/2020 20:00      61.6      61.3       52     43.8      0.00     13.93      61.9     0.51      1021.5     2.4     WSW   250   4.6      SW     230     267       -80       1.3      20.2      69.1      9.04
   03/30/2020 19:50      62.0      61.5       50     43.0      0.00     13.93      61.9     0.51      1021.4     3.3      SW   232   6.6     WSW     240     267       -81       1.9      20.0      69.5      9.04
   03/30/2020 19:40      62.7      62.0       48     42.3      0.00     13.93      61.7     0.51      1021.2     3.0     WSW   238   4.1     WSW     237     267       -82       1.7      19.7      69.9      9.04
   03/30/2020 19:30      63.5      62.5       46     42.2      0.00     13.93      61.6     0.51      1021.1     2.5      SW   229   4.6      SW     231     267       -83       1.5      19.4      70.2      9.04
   03/30/2020 19:20      64.4      63.3       45     42.1      0.00     13.93      61.5     0.51      1021.1     3.4      SW   235   5.4     WSW     241     267       -82       2.1      19.1      70.6      9.05
   03/30/2020 19:10      64.9      64.3       44     42.0      0.00     13.93      61.4     0.51      1021.0     3.2     WSW   255   6.2     WSW     241     266       -79       2.1      18.8      71.0      9.05
   03/30/2020 19:00      65.9      64.9       41     41.4      0.00     13.93      61.8     0.51      1021.0     2.2     WSW   253   5.1     WSW     257     266       -77       1.2      18.5      71.7      9.05
   03/30/2020 18:50      67.0      66.0       39     41.0      0.00     13.93      61.7     0.51      1020.9     2.3     WNW   289   5.1     WNW     292     266       -70       1.1      18.3      72.1      9.06
   03/30/2020 18:40      67.7      66.9       39     41.5      0.00     13.93      61.6     0.51      1020.7     2.8     WNW   292   5.8       W     276     266       -46       2.1      18.1      72.6      9.06
   03/30/2020 18:30      68.5      67.4       38     41.7      0.00     13.93      61.5     0.51      1020.8     2.9     WNW   296   6.8     WSW     241     266       -25       1.8      17.8      72.9      9.06
   03/30/2020 18:20      69.5      68.6       37     42.0      0.00     13.93      61.4     0.51      1020.7     2.9     WNW   282   5.8     WSW     254     266        -0       2.3      17.5      73.2      9.07
   03/30/2020 18:10      70.3      69.2       36     41.8      0.00     13.93      61.3     0.51      1020.6     3.7       W   277   8.9      NW     307     266        24       2.4      17.1      73.3      9.07
   03/30/2020 18:00      70.4      69.9       33     39.9      0.00     13.93      61.7     0.50      1020.5     4.5     WSW   248   7.1      SW     229     266        52       3.0      16.7      74.5      9.07
   03/30/2020 17:50      71.5      70.3       29     37.4      0.00     13.93      61.8     0.50      1020.5     5.3     WSW   241   9.6     WSW     244     266        79       3.7      16.2      74.6      9.08
   03/30/2020 17:40      71.8      71.3       25     34.3      0.00     13.93      61.6     0.50      1020.4     4.9     WSW   249   7.7      SW     214     265       106       3.3      15.6      74.8      9.08
   03/30/2020 17:30      72.2      71.5       25     33.7      0.00     13.93      61.5     0.50      1020.5     4.4     WSW   237   7.9     WSW     242     265       133       3.1      15.0      74.9      9.08
   03/30/2020 17:20      72.3      71.8       23     32.6      0.00     13.93      61.4     0.50      1020.4     5.1      SW   222   9.3      SW     222     265       160       3.6      14.5      75.0      9.09
   03/30/2020 17:10      73.4      72.1       25     35.0      0.00     13.93      61.4     0.50      1020.4     5.6      SW   225   9.5     WSW     254     265       185       3.7      13.9      75.0      9.09
   03/30/2020 17:00      73.6      72.7       29     39.1      0.00     13.93      61.5     0.50      1020.4     4.2     WSW   241   8.3     WSW     239     266       210       3.1      13.3      75.1      9.09
   03/30/2020 16:50      74.1      72.9       30     40.3      0.00     13.93      61.3     0.50      1020.4     4.6       W   268   8.8       W     266     266       233       3.0      12.8      74.8      9.10
   03/30/2020 16:40      74.0      73.3       30     40.3      0.00     13.93      61.2     0.50      1020.5     4.3       W   265   8.0       W     268     266       257       3.0      12.3      74.5      9.10
   03/30/2020 16:30      74.4      73.5       27     38.1      0.00     13.93      61.1     0.50      1020.5     4.6     WSW   258   9.7     WNW     282     265       279       3.1      11.8      74.2      9.10
   03/30/2020 16:20      74.7      73.7       27     38.0      0.00     13.93      61.0     0.50      1020.7     3.7       W   278   9.3       W     267     265       301       2.5      11.3      73.8      9.11
   03/30/2020 16:10      74.3      73.7       27     38.2      0.00     13.93      60.8     0.50      1020.6     4.1       W   263   8.1     WSW     254     265       322       2.9      10.8      73.4      9.11
   03/30/2020 16:00      74.7      73.0       26     37.2      0.00     13.93      60.0     0.50      1020.7     2.8       W   276   6.4       W     264     264       341       2.0      10.3      72.0      9.11
   03/30/2020 15:50      74.2      73.0       26     36.7      0.00     13.93      60.0     0.50      1020.8     4.3     WSW   251   8.3     WSW     248     265       366       3.2      10.0      71.6      9.11
   03/30/2020 15:40      74.9      73.3       27     37.7      0.00     13.93      59.9     0.50      1020.8     5.1     WSW   243   9.9       W     264     265       385       3.7       9.5      71.2      9.11
   03/30/2020 15:30      75.4      74.4       26     37.6      0.00     13.93      59.8     0.50      1020.9     2.3       W   260   4.8       W     274     265       399       1.4       8.9      70.8      9.12
   03/30/2020 15:20      74.3      73.3       26     36.5      0.00     13.93      59.8     0.50      1021.0     2.6       W   275   6.9      SW     232     265       420       1.6       8.7      70.3      9.12
   03/30/2020 15:10      74.8      73.4       26     37.3      0.00     13.93      59.7     0.50      1021.1     4.6       W   259   8.4     WSW     257     265       440       3.1       8.4      69.8      9.12
   03/30/2020 15:00      74.8      73.3       29     39.4      0.00     13.93      59.3     0.50      1021.1     3.1       W   268   7.6      SW     215     265       452       2.3       7.9      69.3      9.12
   03/30/2020 14:50      74.6      73.6       30     40.5      0.00     13.93      59.1     0.50      1021.2     2.9     WNW   285   8.9       W     263     265       465       2.1       7.5      68.8      9.13
   03/30/2020 14:40      73.8      72.5       31     41.1      0.00     13.93      59.1     0.50      1021.4     2.2       W   277   5.9      SW     236     265       478       1.7       7.1      68.3      9.13
   03/30/2020 14:30      73.5      72.5       33     41.9      0.00     13.93      59.1     0.50      1021.6     4.0       W   263   7.6     WSW     253     265       491       3.0       6.9      67.7      9.13
   03/30/2020 14:20      74.5      71.9       33     42.5      0.00     13.93      58.9     0.50      1021.7     3.1      NW   307  12.1      NW     324     265       501       2.1       6.4      67.0      9.13
   03/30/2020 14:10      72.1      70.8       34     41.5      0.00     13.93      59.0     0.50      1021.8     3.0     SSW   192   8.6     SSW     212     265       511       2.4       6.0      66.4      9.13
   03/30/2020 14:00      73.7      72.2       33     42.2      0.00     13.93      59.0     0.50      1022.0     2.2     WSW   249   5.7     WSW     253     265       517       1.7       5.6      65.6      9.13
   03/30/2020 13:50      73.3      72.4       31     40.9      0.00     13.93      58.9     0.50      1022.2     1.8       N   353   4.2     WNW     291     265       521       1.1       5.3      64.9      9.13
   03/30/2020 13:40      73.8      72.4       30     40.1      0.00     13.93      58.8     0.50      1022.3     1.8     NNE    21   4.4     NNE      28     264       529       0.9       5.2      64.2      9.14
   03/30/2020 13:30      72.8      70.8       30     39.5      0.00     13.93      58.6     0.50      1022.4     1.9     NNE    12   6.0       N       4     265       535       1.0       5.0      63.5      9.14
   03/30/2020 13:20      71.4      69.8       29     37.3      0.00     13.93      58.5     0.50      1022.8     1.4     NNE    26   3.6     NNE      20     265       541       0.8       4.8      62.7      9.14
   03/30/2020 13:10      70.7      69.8       29     36.9      0.00     13.93      58.4     0.50      1023.0     3.3      SW   223   6.5      SW     235     265       547       2.3       4.7      61.9      9.14
   03/30/2020 13:00      71.6      70.5       31     38.6      0.00     13.93      58.9     0.50      1023.2     1.5     NNW   334   6.3       W     267     264       540       1.3       4.3      61.6      9.14
   03/30/2020 12:50      71.3      70.4       32     39.5      0.00     13.93      58.9     0.50      1023.3     1.1      NE    55   2.9       N       1     265       545       0.9       4.1      60.9      9.14
   03/30/2020 12:40      70.7      69.5       33     39.5      0.00     13.93      58.8     0.50      1023.6     1.3     NNE    26   2.6      NE      36     265       545       0.9       4.0      60.1      9.15
   03/30/2020 12:30      70.1      68.5       34     39.3      0.00     13.93      58.8     0.50      1023.8     1.9     WNW   299   4.7      SW     234     265       545       1.3       3.8      59.4      9.15
   03/30/2020 12:20      69.4      68.2       33     38.5      0.00     13.93      58.8     0.50      1023.9     2.3     WSW   251   5.7      SW     233     264       542       1.7       3.6      58.6      9.15
   03/30/2020 12:10      68.7      67.3       33     37.5      0.00     13.93      58.8     0.50      1024.0     1.4      NE    35   3.0      NE      54     265       538       1.0       3.3      57.9      9.15
   03/30/2020 12:00      67.7      66.9       34     37.9      0.00     13.93      59.6     0.50      1024.2     1.7     SSE   149   4.1       W     277     265       532       1.3       3.2      57.8      9.15
   03/30/2020 11:50      67.4      65.9       37     39.4      0.00     13.93      59.5     0.50      1024.2     1.8     SSE   163   4.4      SW     230     265       525       1.3       3.0      57.0      9.15
   03/30/2020 11:40      67.2      65.7       39     40.7      0.00     13.93      59.5     0.50      1024.3     2.0      NW   314   4.6      NW     306     266       516       1.4       2.7      56.2      9.15
   03/30/2020 11:30      66.0      64.9       41     41.0      0.00     13.93      59.6     0.50      1024.4     1.7      SW   233   4.6     SSW     205     265       504       1.3       2.5      55.5      9.15
   03/30/2020 11:20      66.0      65.2       41     41.3      0.00     13.93      59.0     0.50      1024.4     1.8      NW   306   4.3       W     260     265       495       1.0       2.3      54.5      9.15
   03/30/2020 11:10      65.4      63.9       43     41.8      0.00     13.93      58.9     0.50      1024.5     1.1      NW   315   2.6       W     264     266       481       0.8       2.1      53.7      9.15
   03/30/2020 11:00      64.9      64.3       44     42.1      0.00     13.93      59.6     0.50      1024.4     1.5      NE    38   3.9       E      89     266       470       0.8       2.0      53.5      9.15
   03/30/2020 10:50      64.7      62.9       45     42.2      0.00     13.93      59.7     0.50      1024.4     1.2     SSE   148   3.7     SSW     208     266       456       0.9       1.8      52.9      9.15
   03/30/2020 10:40      63.8      62.7       47     42.5      0.00     13.93      59.7     0.50      1024.4     1.3      SE   127   4.0       E      93     266       441       0.9       1.7      52.4      9.15
   03/30/2020 10:30      62.6      61.0       49     42.7      0.00     13.93      59.7     0.50      1024.4     0.7     NNE    21   2.1       N       1     266       422       0.6       1.5      51.9      9.15
   03/30/2020 10:20      61.6      60.3       52     43.2      0.00     13.93      59.8     0.50      1024.4     1.7      NE    47   3.3     ENE      60     266       404       0.4       1.4      51.4      9.15
   03/30/2020 10:10      60.6      60.1       52     42.6      0.00     13.93      59.8     0.50      1024.5     1.7     NNE    15   3.9     NNW     332     268       387       0.4       1.4      51.0      9.16
   03/30/2020 10:00      60.8      60.0       52     42.5      0.00     13.93      58.8     0.50      1024.5     1.1      NE    34   3.6      NE      44     291       369       0.3       1.3      49.7      9.16
   03/30/2020 09:50      60.2      59.0       52     42.2      0.00     13.93      58.9     0.50      1024.5     1.6     ENE    65   4.3     ENE      70     306       352       0.6       1.2      49.3      9.16
   03/30/2020 09:40      59.0      58.3       54     42.1      0.00     13.93      59.0     0.50      1024.5     2.1       E    92   4.9       E      87     314       333       0.9       1.1      48.9      9.15
   03/30/2020 09:30      58.6      57.9       58     43.6      0.00     13.93      59.3     0.50      1024.5     1.6      NE    50   3.6     ENE      62     320       310       0.2       1.0      48.5      9.15
   03/30/2020 09:20      58.0      56.9       60     44.0      0.00     13.93      59.3     0.50      1024.5     1.0     ENE    60   2.6      SE     144     324       290       0.2       1.0      48.3      9.16
   03/30/2020 09:10      56.9      55.1       65     44.4      0.00     13.93      59.3     0.50      1024.6     0.6     NNE    33   2.5      NE      43     326       272       0.0       0.9      48.0      9.16
   03/30/2020 09:00      55.3      54.9       67     44.4      0.00     13.93      60.0     0.50      1024.6     1.1     NNE    12   2.4     NNE      31     336       247       0.1       0.9      48.6      9.16
   03/30/2020 08:50      56.0      55.1       66     44.5      0.00     13.93      60.0     0.50      1024.4     1.2     NNE    28   3.3     NNE      19     365       242       0.1       0.9      48.5      9.16
   03/30/2020 08:40      55.7      54.1       68     44.6      0.00     13.93      60.1     0.50      1024.2     0.4     ENE    56   2.5     NNE      28     380       244       0.0       0.9      48.3      9.16
   03/30/2020 08:30      54.0      52.0       71     44.1      0.00     13.93      60.2     0.50      1024.0     0.5      SE   124   1.7      SE     130     400       222       0.0       0.9      48.0      9.16
   03/30/2020 08:20      52.0      50.1       76     43.9      0.00     13.93      60.2     0.50      1023.8     0.4     NNW   338   1.9      SE     131     413       194       0.0       0.8      48.0      9.16
   03/30/2020 08:10      50.4      49.1       80     43.8      0.00     13.93      60.2     0.50      1023.6     0.9      SE   124   2.1      SE     135     421       163       0.0       0.8      47.9      9.16
   03/30/2020 08:00      48.8      47.7       86     44.1      0.00     13.93      59.8     0.50      1023.4     1.2     NNE    17   2.2     NNE      23     431       125       0.0       0.8      47.6      9.16
   03/30/2020 07:50      47.8      45.9       90     44.1      0.00     13.93      59.8     0.50      1023.2     1.1      NE    39   1.9     NNE      33     440        86       0.0       0.8      47.6      9.16
   03/30/2020 07:40      45.9      43.4       93     42.6      0.00     13.93      59.8     0.50      1023.1     0.9     SSE   147   1.9     SSE     159     443        48       0.0       0.8      47.6      9.16
   03/30/2020 07:30      43.3      42.3       93     40.7      0.00     13.93      59.9     0.50      1023.0     0.7      SE   145   1.6      SE     135     450        22       0.0       0.8      47.7      9.16
   03/30/2020 07:20      42.5      42.1       93     40.3      0.00     13.93      59.9     0.50      1022.9     0.2     SSE   147   0.8     ENE      67     450         9       0.0       0.8      47.7      9.16
   03/30/2020 07:10      42.5      41.5       93     40.1      0.00     13.93      59.8     0.50      1022.8     0.4      SE   138   1.2      SE     126     451         5       0.0       0.8      47.8      9.16
   03/30/2020 07:00      42.0      41.2       93     39.5      0.00     13.93      60.2     0.50      1022.6     0.6      SE   141   1.5      SE     132     448       -10       0.0       0.8      47.8      9.16
   03/30/2020 06:50      42.5      40.8       93     40.0      0.00     13.93      60.2     0.50      1022.5     1.4     SSW   191   2.5     SSW     211     443       -14       0.6       0.8      47.9      9.16
   03/30/2020 06:40      41.0      40.8       93     39.0      0.00     13.93      60.2     0.50      1022.5     0.7       S   172   1.4       S     179     441       -18       0.2       0.7      48.1      9.16
   03/30/2020 06:30      41.7      41.0       93     39.4      0.00     13.93      60.2     0.50      1022.4     0.6     SSW   193   1.8     SSW     198     435       -19       0.0       0.7      48.3      9.16
   03/30/2020 06:20      41.5      41.2       93     39.5      0.00     13.93      60.3     0.50      1022.3     0.3     SSW   208   1.1     SSW     208     435       -20       0.0       0.7      48.5      9.16
   03/30/2020 06:10      41.6      41.2       93     39.4      0.00     13.93      60.3     0.50      1022.2     0.8       S   182   1.7     SSW     206     431       -20       0.0       0.7      48.6      9.16
   03/30/2020 06:00      41.9      41.1       92     39.5      0.00     13.93      59.5     0.50      1022.1     0.9       S   171   1.6       S     179     430       -20       0.3       0.7      48.1      9.16
   03/30/2020 05:50      41.7      41.0       92     39.3      0.00     13.93      59.6     0.50      1022.1     0.3       S   180   0.8       S     179     426       -20       0.0       0.6      48.3      9.16
   03/30/2020 05:40      41.8      41.4       92     39.5      0.00     13.93      59.6     0.50      1022.2     0.0      SE   125   0.6      SE     125     424       -20       0.0       0.6      48.5      9.16
   03/30/2020 05:30      42.2      41.8       92     39.9      0.00     13.93      59.7     0.50      1022.2     0.6      SW   222   1.5     WSW     250     419       -20       0.0       0.6      48.6      9.16
   03/30/2020 05:20      42.2      41.8       92     39.9      0.00     13.93      59.7     0.50      1022.2     0.1       S   179   0.9       S     183     417       -21       0.0       0.6      48.9      9.16
   03/30/2020 05:10      42.6      42.0       92     40.0      0.00     13.93      59.8     0.50      1022.3     0.0     ENE    57   0.9     ENE      62     414       -22       0.0       0.6      49.0      9.16
   03/30/2020 05:00      43.0      42.2       92     40.5      0.00     13.93      60.2     0.50      1022.3     0.9      SE   140   1.7      SE     136     412       -22       0.2       0.6      49.6      9.16
   03/30/2020 04:50      42.9      42.0       91     40.0      0.00     13.93      60.3     0.50      1022.2     0.3     SSE   157   1.0     SSE     147     405       -22       0.0       0.6      49.9      9.16
   03/30/2020 04:40      43.1      42.7       92     40.6      0.00     13.93      60.3     0.50      1022.0     0.5       S   177   1.6     SSW     197     410       -22       0.0       0.6      50.1      9.16
   03/30/2020 04:30      42.8      42.5       91     40.2      0.00     13.93      60.3     0.50      1022.0     0.2     SSE   158   1.0     SSE     148     407       -23       0.0       0.6      50.3      9.16
   03/30/2020 04:20      43.3      42.8       91     40.5      0.00     13.93      60.3     0.50      1022.0     0.4       S   170   1.1       S     187     402       -23       0.0       0.6      50.4      9.16
   03/30/2020 04:10      43.4      43.0       90     40.6      0.00     13.93      60.4     0.50      1022.0     0.7       S   186   1.7      SW     220     399       -23       0.0       0.6      50.7      9.16
   03/30/2020 04:00      43.9      43.3       90     41.1      0.00     13.93      60.8     0.50      1022.0     0.3     SSW   203   1.4      SW     227     396       -24       0.0       0.6      51.5      9.16
   03/30/2020 03:50      43.9      43.1       90     40.8      0.00     13.93      60.8     0.50      1021.9     0.6     SSW   202   2.1      SW     234     393       -24       0.0       0.6      51.8      9.16
   03/30/2020 03:40      44.3      43.7       90     41.4      0.00     13.93      60.9     0.50      1021.8     0.2     ESE   120   0.9      SE     129     391       -25       0.0       0.5      52.0      9.16
   03/30/2020 03:30      44.2      43.7       90     41.3      0.00     13.93      60.9     0.50      1021.6     0.5     SSE   147   1.2      SE     140     387       -26       0.2       0.5      52.2      9.16
   03/30/2020 03:20      44.4      43.7       89     41.1      0.00     13.93      61.0     0.50      1021.5     0.3       S   170   1.6     SSW     195     386       -27       0.0       0.5      52.4      9.16
   03/30/2020 03:10      44.4      44.0       89     41.3      0.00     13.93      61.0     0.50      1021.4     0.4       S   171   1.2     SSW     197     379       -27       0.0       0.5      52.5      9.16
   03/30/2020 03:00      44.7      44.0       89     41.1      0.00     13.93      60.6     0.50      1021.4     0.4     SSE   154   1.5      SE     133     374       -28       0.0       0.5      52.4      9.16
   03/30/2020 02:50      44.8      44.4       89     41.5      0.00     13.93      60.7     0.50      1021.3     0.2       S   176   0.8     SSE     153     373       -28       0.1       0.5      52.5      9.16
   03/30/2020 02:40      44.6      44.0       88     41.0      0.00     13.93      60.8     0.50      1021.3     0.5     SSW   196   1.3      SW     227     369       -29       0.1       0.5      52.8      9.16
   03/30/2020 02:30      44.9      44.1       88     41.4      0.00     13.93      60.8     0.50      1021.4     0.9       S   185   2.9     WSW     249     366       -29       0.1       0.5      53.1      9.16
   03/30/2020 02:20      45.0      44.2       89     41.5      0.00     13.93      60.8     0.50      1021.4     1.2     SSW   201   3.3     WSW     251     363       -30       0.5       0.4      53.3      9.16
   03/30/2020 02:10      44.8      44.5       89     41.5      0.00     13.93      60.8     0.50      1021.3     0.1     SSW   203   0.6     SSW     205     359       -31       0.0       0.3      53.5      9.16
   03/30/2020 02:00      45.6      44.8       88     42.0      0.00     13.93      61.4     0.50      1021.2     0.5     ESE   103   1.3       E      87     356       -32       0.1       0.3      54.2      9.16
   03/30/2020 01:50      45.6      45.1       89     42.3      0.00     13.93      60.8     0.50      1021.2     0.3     SSE   158   0.8     SSE     167     350       -33       0.0       0.3      54.0      9.16
   03/30/2020 01:40      45.5      45.1       88     42.0      0.00     13.93      60.8     0.50      1021.2     0.2       S   181   1.0     SSE     167     346       -35       0.1       0.3      54.2      9.16
   03/30/2020 01:30      45.8      45.4       88     42.1      0.00     13.93      60.6     0.50      1021.2     0.1      SE   138   0.7       E      93     341       -38       0.1       0.3      54.1      9.16
   03/30/2020 01:20      46.6      45.7       88     42.8      0.00     13.93      60.5     0.50      1021.3     1.0       S   189   2.4      SW     230     335       -38       0.5       0.3      54.2      9.16
   03/30/2020 01:10      46.5      45.9       88     42.8      0.00     13.93      60.5     0.50      1021.3     0.5       S   182   1.5      SW     231     331       -40       0.2       0.2      54.5      9.17
   03/30/2020 01:00      46.8      46.1       87     42.9      0.00     13.93      60.9     0.50      1021.2     0.7       S   186   2.2     SSW     207     327       -44       0.1       0.1      55.2      9.17
   03/30/2020 00:50      47.5      46.6       87     43.3      0.00     13.93      60.9     0.50      1021.1     0.1      SE   144   1.0     SSE     148     322       -47       0.0       0.1      55.4      9.17
   03/30/2020 00:40      47.6      46.9       86     43.3      0.00     13.93      60.8     0.50      1021.1     0.4     SSW   205   1.5       S     191     315       -50       0.2       0.1      55.7      9.17
   03/30/2020 00:30      48.1      47.4       86     43.9      0.00     13.93      60.9     0.50      1021.0     0.1       E    95   0.7       E      89     309       -53       0.0       0.0      56.0      9.17
   03/30/2020 00:20      48.0      47.8       86     44.0      0.00     13.93      60.9     0.50      1020.7     0.4     WSW   252   1.4      SW     216     302       -56       0.3       0.0      56.1      9.17
   03/30/2020 00:10      48.3      47.8       86     44.0      0.00     13.93      60.9     0.50      1020.6     1.1      SE   126   2.1       S     173     297       -59       0.3       0.0      56.4      9.17
   03/30/2020 00:00      48.9      48.3       85     44.2      0.00     13.93      61.5     0.50      1020.4     0.9     SSE   159   1.7      SE     142     288       -63       0.2      39.6      56.9      9.17
   03/29/2020 23:50      49.5      48.7       84     44.5      0.00     13.93      61.5     0.50      1020.3     1.5     SSW   205   2.8     SSW     199     280       -64       0.6      39.6      57.1      9.17
   03/29/2020 23:40      49.9      49.3       83     44.8      0.00     13.93      61.6     0.50      1020.3     0.6      SE   130   1.4       S     182     275       -66       0.0      39.5      57.4      9.17
   03/29/2020 23:30      50.8      49.8       81     45.0      0.00     13.93      61.5     0.50      1020.3     0.8     ESE   109   1.6     ENE      73     264       -69       0.4      39.5      57.6      9.17
   03/29/2020 23:20      50.6      50.1       83     45.2      0.00     13.93      61.6     0.50      1020.3     1.1     SSW   209   2.8     SSW     209     264       -68       0.4      39.4      57.9      9.17
   03/29/2020 23:10      51.3      50.2       81     45.1      0.00     13.93      61.5     0.50      1020.4     0.7       S   173   1.5     ENE      65     263       -69       0.3      39.3      58.1      9.17
   03/29/2020 23:00      52.0      51.3       80     45.6      0.00     13.93      61.0     0.50      1020.2     1.0       S   185   3.2      SW     234     266       -71       0.4      39.3      57.8      9.17
   03/29/2020 22:50      51.9      51.4       80     45.8      0.00     13.93      61.0     0.50      1020.0     1.5       W   271   4.1      SW     228     273       -70       0.7      39.2      57.9      9.17
   03/29/2020 22:40      51.9      51.0       81     45.8      0.00     13.93      61.0     0.50      1020.1     1.2      SW   233   4.0       S     184     271       -71       0.8      39.1      58.1      9.17
   03/29/2020 22:30      51.8      51.0       80     45.6      0.00     13.93      61.0     0.50      1020.2     0.3     NNE    26   1.5     WNW     295     264       -70       0.0      39.0      58.4      9.17
   03/29/2020 22:20      52.2      51.6       79     45.6      0.00     13.93      61.0     0.50      1020.2     0.6     ESE   123   1.6      SE     140     266       -71       0.0      39.0      58.5      9.17
   03/29/2020 22:10      52.2      51.8       79     45.8      0.00     13.93      61.0     0.50      1020.0     1.9     SSW   213   4.3     WSW     247     271       -71       1.1      39.0      58.7      9.17
   03/29/2020 22:00      52.1      51.6       80     45.7      0.00     13.93      61.0     0.50      1019.9     2.1     SSW   193   3.5      SW     223     271       -70       1.3      38.8      59.2      9.17
   03/29/2020 21:50      52.5      51.9       78     45.7      0.00     13.93      61.0     0.50      1019.8     1.8     SSW   198   2.3     SSW     199     268       -70       1.0      38.6      59.5      9.18
   03/29/2020 21:40      52.9      52.2       78     45.7      0.00     13.93      61.0     0.50      1020.0     1.4       S   185   2.6     SSW     211     270       -71       1.0      38.4      59.8      9.18
   03/29/2020 21:30      53.6      52.7       76     45.8      0.00     13.93      61.0     0.50      1020.1     1.6     SSW   209   5.5     WSW     258     268       -71       0.8      38.2      60.1      9.18
   03/29/2020 21:20      53.7      53.3       75     45.8      0.00     13.93      60.9     0.50      1020.0     4.0     WSW   241   6.2     WSW     239     270       -71       2.6      38.1      60.3      9.18
   03/29/2020 21:10      53.8      53.5       75     45.8      0.00     13.93      60.9     0.50      1020.0     3.4     WSW   246   5.7     WSW     246     270       -71       2.2      37.7      60.6      9.18
   03/29/2020 21:00      54.0      53.5       74     45.8      0.00     13.93      60.6     0.50      1019.8     3.3     WSW   240   6.7     SSW     207     270       -72       2.1      37.3      60.6      9.18
   03/29/2020 20:50      54.1      53.6       74     45.6      0.00     13.93      60.6     0.50      1019.7     2.8      SW   228   5.0      SW     227     270       -72       1.6      37.0      60.8      9.18
   03/29/2020 20:40      54.2      53.8       73     45.6      0.00     13.93      60.6     0.50      1019.5     4.4      SW   232   7.4      SW     233     270       -72       2.8      36.7      61.1      9.18
   03/29/2020 20:30      54.5      54.0       72     45.4      0.00     13.93      60.5     0.50      1019.5     3.4      SW   235   6.0     WSW     251     270       -72       2.3      36.2      61.4      9.18
   03/29/2020 20:20      54.7      54.3       71     45.3      0.00     13.93      60.5     0.50      1019.3     4.5      SW   236   8.6       W     263     270       -73       2.9      35.8      61.8      9.18
   03/29/2020 20:10      54.8      54.4       70     45.2      0.00     13.93      60.5     0.50      1019.2     3.6      SW   236   7.0     WSW     252     270       -71       2.4      35.4      62.1      9.18
   03/29/2020 20:00      55.3      54.7       69     45.1      0.00     13.93      60.8     0.50      1019.2     4.3      SW   232   7.3     WSW     238     269       -73       2.6      35.0      62.6      9.18
   03/29/2020 19:50      55.6      55.0       68     45.1      0.00     13.93      60.8     0.50      1019.2     3.8     WSW   240   6.5       W     262     269       -65       2.8      34.5      63.0      9.19
   03/29/2020 19:40      55.9      55.4       67     45.0      0.00     13.93      60.8     0.50      1019.1     6.3      SW   235  11.1       S     189     269       -55       4.2      34.0      63.3      9.19
   03/29/2020 19:30      56.4      55.7       66     45.0      0.00     13.93      60.6     0.50      1019.0     6.3      SW   234  11.0     WSW     243     269       -48       4.2      33.4      63.6      9.19
   03/29/2020 19:20      57.1      56.2       65     44.9      0.00     13.93      60.5     0.50      1018.9     6.5     WSW   243  10.8     WSW     254     269       -46       4.5      32.7      64.1      9.19
   03/29/2020 19:10      57.6      56.9       63     44.7      0.00     13.93      60.4     0.50      1018.7     7.0     WSW   252  10.9     WSW     250     269       -52       4.6      31.9      64.6      9.19
   03/29/2020 19:00      58.2      57.5       61     44.5      0.00     13.93      60.7     0.50      1018.5     6.5     WSW   256  12.4     WSW     257     269       -51       4.5      31.2      65.3      9.20
   03/29/2020 18:50      58.6      58.1       59     44.2      0.00     13.93      60.7     0.50      1018.4     6.8     WSW   256  10.7      SW     231     269       -43       4.6      30.4      65.7      9.20
   03/29/2020 18:40      58.8      58.5       58     44.1      0.00     13.93      60.6     0.50      1018.2     6.2     WSW   258  10.3       W     279     268       -24       4.1      29.6      66.1      9.20
   03/29/2020 18:30      59.0      58.5       58     44.0      0.00     13.93      60.5     0.50      1018.3     8.7      SW   236  13.1      SW     232     268        -7       5.9      29.0      66.5      9.20
   03/29/2020 18:20      60.4      59.0       56     44.3      0.00     13.93      60.5     0.50      1018.3     8.2      SW   234  14.0     WSW     237     268        32       5.5      28.0      66.9      9.21
   03/29/2020 18:10      60.6      60.0       56     44.3      0.00     13.93      60.3     0.50      1018.2     6.3     WSW   247  10.1     WSW     256     268        56       4.1      27.1      67.0      9.21
   03/29/2020 18:00      60.5      59.9       54     43.4      0.00     13.93      60.4     0.50      1018.0     6.8     WSW   244  11.5     WSW     244     268        80       4.5      26.4      67.0      9.21
   03/29/2020 17:50      60.9      60.0       53     43.4      0.00     13.93      60.2     0.50      1018.0     6.5      SW   234  12.3     WSW     247     268        85       4.6      25.6      67.2      9.21
   03/29/2020 17:40      61.1      60.3       52     43.0      0.00     13.93      60.2     0.50      1017.8     6.4      SW   223  10.6     WSW     253     268       119       4.3      24.9      67.3      9.21
   03/29/2020 17:30      61.1      60.8       50     42.3      0.00     13.93      60.1     0.50      1017.8     7.0      SW   232  10.8     WSW     249     268       137       4.7      24.2      67.4      9.22
   03/29/2020 17:20      61.6      60.8       51     43.2      0.00     13.93      60.1     0.50      1017.8     6.4     WSW   248  11.3     WSW     242     268       173       4.3      23.4      67.5      9.22
   03/29/2020 17:10      61.4      60.9       51     42.9      0.00     13.93      60.0     0.50      1017.7     7.8      SW   231  11.9      SW     231     267       182       5.1      22.6      67.4      9.22
   03/29/2020 17:00      62.6      61.0       51     43.1      0.00     13.93      60.1     0.50      1017.8     8.2     WSW   239  12.5     WSW     252     267       227       5.5      21.8      67.8      9.23
   03/29/2020 16:50      63.0      62.5       48     42.6      0.00     13.93      60.0     0.50      1017.8     6.2       W   263  10.9     WSW     240     267       268       4.3      20.9      67.7      9.23
   03/29/2020 16:40      63.2      62.5       48     43.0      0.00     13.93      60.0     0.50      1017.8     6.1      SW   233  10.3      SW     222     267       290       4.3      20.2      67.6      9.23
   03/29/2020 16:30      63.3      62.0       48     42.8      0.00     13.93      59.4     0.50      1017.8     5.6     WSW   240   9.0      SW     225     267       313       3.8      19.5      66.9      9.23
   03/29/2020 16:20      62.8      61.9       48     42.5      0.00     13.93      58.8     0.50      1017.8     5.6       W   265  11.2      SW     235     267       174       4.0      18.8      66.2      9.23
   03/29/2020 16:10      63.7      62.6       46     42.4      0.00     13.93      58.8     0.50      1017.8     5.9     WSW   256  11.5     WNW     292     267       272       3.9      18.1      66.0      9.24
   03/29/2020 16:00      63.9      62.4       45     41.5      0.00     13.93      59.2     0.50      1017.8     6.0     WSW   246  10.8     WSW     248     267       291       4.0      17.5      66.2      9.24
   03/29/2020 15:50      65.1      63.6       42     41.2      0.00     13.93      59.1     0.50      1017.8     5.7       W   260   9.9      SW     229     267       349       3.8      16.8      66.0      9.24
   03/29/2020 15:40      64.4      63.3       45     42.0      0.00     13.93      59.2     0.50      1017.8     4.7     WSW   257  11.2      SW     235     267       354       3.4      16.2      65.7      9.24
   03/29/2020 15:30      63.6      62.7       46     42.0      0.00     13.93      59.0     0.50      1017.9     5.3     WSW   243  11.2     WNW     283     267       287       3.6      15.6      65.3      9.24
   03/29/2020 15:20      64.6      62.7       44     41.5      0.00     13.93      59.0     0.50      1018.0     6.6     SSW   205  10.6      SW     217     267       380       4.5      15.0      64.9      9.25
   03/29/2020 15:10      64.4      63.2       44     41.2      0.00     13.93      58.8     0.50      1018.2     4.7       W   268   8.7     WNW     286     267       359       3.0      14.3      64.4      9.25
   03/29/2020 15:00      64.6      63.3       43     41.0      0.00     13.93      59.6     0.50      1018.3     5.1     WSW   242   8.3     WSW     238     266       343       3.6      13.8      64.7      9.25
   03/29/2020 14:50      64.8      63.5       41     40.2      0.00     13.93      59.7     0.50      1018.3     6.4      SW   230  11.4      SW     236     267       436       4.6      13.2      64.3      9.26
   03/29/2020 14:40      64.8      63.6       41     40.2      0.00     13.93      59.6     0.50      1018.3     5.2     WSW   241   9.5      SW     231     266       516       3.5      12.4      63.9      9.26
   03/29/2020 14:30      65.1      64.2       41     40.7      0.00     13.93      59.6     0.50      1018.4     5.3     WSW   251  11.5     SSW     207     266       527       3.8      11.8      63.4      9.26
   03/29/2020 14:20      64.4      63.1       43     41.0      0.00     13.93      59.6     0.50      1018.4     5.9     WSW   253  11.1       W     276     267       528       4.1      11.2      62.9      9.26
   03/29/2020 14:10      64.5      63.2       45     42.0      0.00     13.93      59.6     0.50      1018.5     5.6     WSW   249  10.9      SW     227     267       428       3.9      10.5      62.4      9.26
   03/29/2020 14:00      64.3      63.5       46     42.5      0.00     13.93      58.4     0.50      1018.6     6.6      SW   228  14.1      SW     230     266       627       4.6       9.9      60.7      9.26
   03/29/2020 13:50      64.8      63.1       49     44.3      0.00     13.93      58.5     0.50      1018.8     6.3      SW   218  10.6       S     174     267       730       4.4       9.1      60.1      9.26
   03/29/2020 13:40      63.6      62.9       50     44.5      0.00     13.93      58.5     0.50      1019.0     5.8      SW   228   9.9      SW     230     267       570       4.1       8.4      59.5      9.27
   03/29/2020 13:30      63.3      61.7       51     44.3      0.00     13.93      58.4     0.50      1019.2     5.1     WSW   249   9.7     WSW     238     267       485       3.6       7.7      58.9      9.27
   03/29/2020 13:20      62.3      61.7       52     44.0      0.00     13.93      58.4     0.50      1019.4     5.0      SW   231  11.1      SW     231     267       251       3.2       7.1      58.6      9.27
   03/29/2020 13:10      62.3      61.8       49     42.8      0.00     13.93      58.4     0.50      1019.5     3.8     WSW   243   6.9     WSW     256     267       179       2.7       6.6      58.3      9.27
   03/29/2020 13:00      62.8      61.9       47     41.7      0.00     13.93      58.5     0.50      1019.5     3.0     WSW   240   7.0      SW     222     267       142       2.0       6.1      58.1      9.27
   03/29/2020 12:50      62.5      62.1       45     40.9      0.00     13.93      58.5     0.50      1019.6     2.4       S   189   4.6     WSW     249     267       138       1.8       5.8      58.0      9.27
   03/29/2020 12:40      63.3      62.3       44     40.5      0.00     13.93      58.5     0.50      1019.6     3.2      SW   222   6.5       W     271     267       165       2.3       5.5      57.8      9.27
   03/29/2020 12:30      64.0      62.9       43     40.4      0.00     13.93      58.6     0.50      1019.7     1.8     SSE   147   5.6     SSW     192     266       272       1.4       5.1      57.5      9.27
   03/29/2020 12:20      64.6      62.8       46     42.4      0.00     13.93      58.6     0.50      1019.7     2.7      SE   127   8.5     SSE     152     266       487       1.4       4.9      56.9      9.28
   03/29/2020 12:10      64.0      62.7       45     41.7      0.00     13.93      58.6     0.50      1019.8     4.2     SSE   159   7.4     ESE     112     266       619       2.5       4.6      56.3      9.28
   03/29/2020 12:00      63.3      61.4       48     42.4      0.00     13.93      58.2     0.50      1019.8     3.7     SSE   162   7.9       S     183     266       570       2.6       4.2      55.1      9.28
   03/29/2020 11:50      61.4      60.2       48     40.6      0.00     13.93      58.2     0.50      1019.8     3.5      SW   224   6.6     SSW     203     268       206       2.3       3.8      54.5      9.28
   03/29/2020 11:40      62.0      60.9       47     41.2      0.00     13.93      58.1     0.50      1019.9     3.2       S   171   6.2     WSW     246     267       106       1.9       3.4      54.3      9.28
   03/29/2020 11:30      62.1      60.9       49     42.1      0.00     13.93      58.2     0.50      1020.0     2.1     SSE   163   5.7     SSW     204     266       390       1.4       3.1      53.8      9.28
   03/29/2020 11:20      62.4      61.4       50     42.9      0.00     13.93      58.1     0.50      1019.9     2.2      SE   129   5.3     SSE     163     266       373       1.5       2.8      53.3      9.28
   03/29/2020 11:10      62.0      61.5       51     43.3      0.00     13.93      58.2     0.50      1020.0     1.1       N   358   2.8      NW     314     266       450       0.8       2.6      52.6      9.28
   03/29/2020 11:00      61.5      60.5       52     43.5      0.00     13.93      58.7     0.50      1020.1     1.6      NW   321   3.9       N     355     266       459       1.3       2.4      52.5      9.28
   03/29/2020 10:50      61.4      60.2       53     43.6      0.00     13.93      58.7     0.50      1020.3     1.4     WNW   302   4.3     WSW     237     266       442       1.4       2.2      52.1      9.28
   03/29/2020 10:40      60.6      59.0       55     43.6      0.00     13.93      58.7     0.50      1020.3     1.1     NNW   331   2.7       N       0     266       430       1.1       2.0      51.6      9.28
   03/29/2020 10:30      59.1      58.4       56     43.1      0.00     13.93      58.8     0.50      1020.3     0.9     NNE    32   2.9       N     355     267       412       0.8       1.8      51.1      9.28
   03/29/2020 10:20      58.7      58.0       57     43.4      0.00     13.93      58.8     0.50      1020.2     1.1       N   358   2.4       W     264     266       391       0.5       1.7      50.7      9.28
   03/29/2020 10:10      58.8      57.7       58     43.9      0.00     13.93      58.8     0.50      1020.2     0.7     NNW   347   2.7     ENE      62     266       378       0.6       1.6      50.2      9.28
   03/29/2020 10:00      58.1      57.4       60     44.0      0.00     13.93      59.3     0.50      1020.2     1.2       N     4   2.7       N     353     267       354       0.3       1.5      50.4      9.28
   03/29/2020 09:50      58.0      56.0       62     44.4      0.00     13.93      59.4     0.50      1020.2     0.6      NE    34   2.3     NNE      20     267       335       0.2       1.4      50.0      9.28
   03/29/2020 09:40      56.9      55.4       64     44.1      0.00     13.93      59.4     0.50      1020.2     1.5     SSE   152   3.7       S     175     268       317       0.9       1.4      49.6      9.28
   03/29/2020 09:30      56.8      55.5       65     44.7      0.00     13.93      59.4     0.50      1020.1     0.6      NE    41   2.6     NNE      20     277       297       0.2       1.3      49.3      9.28
   03/29/2020 09:20      55.8      53.8       69     44.5      0.00     13.93      59.4     0.50      1020.1     0.5       E    85   1.9       N       4     294       276       0.4       1.2      49.0      9.29
   03/29/2020 09:10      54.7      53.8       68     43.8      0.00     13.93      59.5     0.50      1020.1     1.5      SE   125   4.8      SE     124     302       251       0.7       1.1      48.8      9.29
   03/29/2020 09:00      54.5      53.6       66     43.2      0.00     13.93      58.9     0.50      1020.0     0.4     NNW   333   2.8     NNE      12     311       228       0.3       1.0      48.3      9.29
   03/29/2020 08:50      53.7      52.7       67     42.6      0.00     13.93      58.9     0.50      1019.9     0.3      NW   308   1.2      NW     320     337       204       0.0       1.0      48.1      9.29
   03/29/2020 08:40      53.4      51.7       69     42.6      0.00     13.93      59.0     0.50      1019.8     0.2     WSW   253   1.2     WSW     246     353       189       0.3       1.0      47.9      9.29
   03/29/2020 08:30      52.1      51.0       71     42.6      0.00     13.93      59.0     0.50      1019.8     0.0      NW   306   0.8     NNW     334     367       191       0.0       0.9      47.8      9.29
   03/29/2020 08:20      51.0      49.3       76     42.8      0.00     13.93      59.1     0.50      1019.7     0.1     NNW   329   1.1      NW     314     377       168       0.0       0.9      47.8      9.29
   03/29/2020 08:10      49.4      48.6       82     43.7      0.00     13.93      59.1     0.50      1019.8     0.4     NNW   347   1.7     NNE      12     386       142       0.0       0.9      47.7      9.29
   03/29/2020 08:00      48.4      46.4       88     44.0      0.00     13.93      59.4     0.50      1019.6     0.3     WSW   245   1.7     WSW     244     396       116       0.1       0.9      47.7      9.29
   03/29/2020 07:50      46.5      45.4       90     43.3      0.00     13.93      59.4     0.50      1019.5     0.3     WSW   252   1.6     WSW     252     400        91       0.0       0.9      47.6      9.29
   03/29/2020 07:40      45.4      43.4       92     42.3      0.00     13.93      59.4     0.50      1019.4     0.0       N     0   0.0     WSW     245     402        86       0.0       0.9      47.6      9.29
   03/29/2020 07:30      43.5      42.3       92     40.7      0.00     13.93      59.4     0.50      1019.3     0.0       N     0   0.0       S     185     402        51       0.0       0.9      47.7      9.29
   03/29/2020 07:20      42.4      41.7       92     39.8      0.00     13.93      59.4     0.50      1019.3     0.0       N     0   0.0      SE     141     405        13       0.0       0.9      47.7      9.29
   03/29/2020 07:10      42.3      41.7       91     39.6      0.00     13.93      59.5     0.50      1019.0     0.0      SE   141   0.6      SE     141     404        -4       0.0       0.9      47.8      9.29
   03/29/2020 07:00      42.5      41.8       91     39.8      0.00     13.93      59.9     0.50      1018.9     0.0       N     0   0.0       S     175     401       -13       0.0       0.9      48.2      9.29
   03/29/2020 06:50      42.4      42.0       91     39.9      0.00     13.93      59.9     0.50      1018.8     0.6     SSW   202   1.4      SW     216     399       -17       0.0       0.9      48.4      9.29
   03/29/2020 06:40      42.3      42.1       91     39.7      0.00     13.93      59.9     0.50      1018.6     0.6       S   187   1.4     SSW     192     396       -21       0.0       0.9      48.5      9.29
   03/29/2020 06:30      42.9      42.1       90     39.9      0.00     13.93      59.9     0.50      1018.5     0.0       N     0   0.0     ESE     119     391       -23       0.0       0.9      48.7      9.29
   03/29/2020 06:20      43.4      42.8       91     40.6      0.00     13.93      60.0     0.50      1018.5     0.0       E    82   0.6       E      82     388       -23       0.0       0.9      48.8      9.29
   03/29/2020 06:10      43.6      43.2       91     40.9      0.00     13.93      60.0     0.50      1018.5     0.2      SE   141   0.8       S     173     382       -21       0.0       0.9      48.9      9.29
   03/29/2020 06:00      43.4      43.0       91     40.8      0.00     13.93      59.6     0.50      1018.6     0.3      SE   133   1.0      SE     137     380       -13       0.0       0.9      48.7      9.29
   03/29/2020 05:50      43.2      42.4       91     40.4      0.00     13.93      59.7     0.50      1018.5     0.4       S   186   1.3       S     190     380        -9       0.0       0.9      48.7      9.29
   03/29/2020 05:40      42.5      42.1       91     39.8      0.00     13.93      59.6     0.50      1018.4     0.1     SSE   148   0.7      SE     140     381        -9       0.0       0.9      48.8      9.29
   03/29/2020 05:30      42.3      41.7       91     39.5      0.00     13.93      59.7     0.50      1018.3     0.2     SSW   199   1.0     SSW     207     382       -12       0.0       0.9      48.9      9.29
   03/29/2020 05:20      41.9      41.6       90     39.1      0.00     13.93      59.7     0.50      1018.2     0.1     ESE   112   1.1     ENE      77     388       -20       0.1       0.9      49.0      9.29
   03/29/2020 05:10      42.3      41.9       90     39.4      0.00     13.93      59.7     0.50      1018.2     0.7     SSE   162   1.6      SE     146     388       -23       0.5       0.8      49.1      9.29
   03/29/2020 05:00      42.3      41.9       90     39.3      0.00     13.93      59.7     0.50      1018.2     0.4      SE   146   1.3      SE     144     384       -24       0.3       0.8      49.2      9.29
   03/29/2020 04:50      42.6      41.5       90     39.3      0.00     13.93      59.7     0.50      1018.2     1.2       S   185   2.7     SSW     203     380       -24       0.6       0.7      49.4      9.29
   03/29/2020 04:40      42.3      41.6       89     39.1      0.00     13.93      59.7     0.50      1018.2     1.0     SSE   166   1.8     SSW     198     376       -25       0.3       0.6      49.6      9.29
   03/29/2020 04:30      42.6      42.1       89     39.4      0.00     13.93      59.8     0.50      1018.3     0.1     SSW   208   1.0      SW     230     372       -26       0.0       0.6      49.8      9.29
   03/29/2020 04:20      42.8      42.3       89     39.6      0.00     13.93      59.8     0.50      1018.3     0.5     SSW   208   1.7     SSW     209     367       -27       0.2       0.5      50.0      9.29
   03/29/2020 04:10      42.7      42.3       89     39.6      0.00     13.93      59.8     0.50      1018.3     0.3     SSW   213   1.9       W     271     365       -27       0.2       0.5      50.2      9.29
   03/29/2020 04:00      42.6      42.3       89     39.5      0.00     13.93      59.3     0.50      1018.3     0.3     SSE   148   1.1     ESE     103     360       -28       0.2       0.5      50.0      9.29
   03/29/2020 03:50      42.9      42.0       88     39.2      0.00     13.93      59.4     0.50      1018.3     1.1     SSE   147   2.1      SE     143     356       -29       0.2       0.4      50.2      9.29
   03/29/2020 03:40      42.9      42.6       88     39.4      0.00     13.93      59.4     0.50      1018.3     0.5     SSE   169   1.2       S     176     350       -30       0.3       0.4      50.5      9.29
   03/29/2020 03:30      43.4      42.8       88     39.8      0.00     13.93      59.4     0.50      1018.5     0.1      SW   233   0.7       W     272     347       -31       0.0       0.4      50.6      9.29
   03/29/2020 03:20      43.4      43.0       88     39.8      0.00     13.93      59.4     0.50      1018.5     0.4       S   179   1.5     SSW     213     343       -31       0.1       0.4      50.8      9.29
   03/29/2020 03:10      43.5      42.8       87     39.7      0.00     13.93      59.4     0.50      1018.5     0.1     ESE   102   0.8     ESE     101     338       -34       0.0       0.3      51.0      9.29
   03/29/2020 03:00      44.0      43.1       86     39.5      0.00     13.93      60.2     0.50      1018.7     0.5       S   170   1.4       S     179     335       -34       0.3       0.3      51.6      9.29
   03/29/2020 02:50      44.3      43.9       86     40.0      0.00     13.93      60.3     0.50      1018.8     0.5     SSE   168   1.3       S     178     330       -35       0.3       0.3      51.9      9.29
   03/29/2020 02:40      44.5      44.0       85     40.0      0.00     13.93      60.3     0.50      1018.9     0.7       S   190   2.0      SW     221     328       -33       0.1       0.2      52.1      9.29
   03/29/2020 02:30      44.4      43.7       86     40.2      0.00     13.93      60.4     0.50      1019.0     0.8      SW   218   2.5      SW     218     326       -33       0.0       0.2      52.3      9.29
   03/29/2020 02:20      44.2      43.5       86     39.9      0.00     13.93      60.4     0.50      1019.0     0.2     SSE   153   0.9      SE     140     324       -36       0.0       0.2      52.5      9.29
   03/29/2020 02:10      44.4      43.9       85     39.9      0.00     13.93      60.4     0.50      1019.1     0.2      SE   144   1.1      SE     144     322       -36       0.0       0.2      52.6      9.29
   03/29/2020 02:00      44.5      44.0       85     40.0      0.00     13.93      61.4     0.50      1019.1     0.3      NE    42   0.9      SE     126     321       -38       0.0       0.2      53.5      9.29
   03/29/2020 01:50      44.8      44.2       85     40.2      0.00     13.93      61.4     0.50      1019.1     0.7       S   170   1.7     SSW     204     317       -40       0.1       0.2      53.7      9.29
   03/29/2020 01:40      44.6      44.0       86     40.2      0.00     13.93      61.4     0.50      1019.1     1.1       S   176   2.4     SSW     199     314       -41       0.7       0.2      53.9      9.29
   03/29/2020 01:30      44.6      44.1       85     40.1      0.00     13.93      61.4     0.50      1019.2     0.0       S   187   0.7       S     187     313       -44       0.0       0.0      54.2      9.29
   03/29/2020 01:20      44.9      44.4       85     40.3      0.00     13.93      60.8     0.50      1019.3     0.0     SSE   148   0.8     SSE     151     311       -46       0.0       0.0      54.1      9.30
   03/29/2020 01:10      45.2      44.8       85     40.6      0.00     13.93      60.4     0.50      1019.3     0.0      SE   141   0.3      SE     141     307       -47       0.0       0.0      54.0      9.30
   03/29/2020 01:00      45.6      45.0       84     40.9      0.00     13.93      60.3     0.50      1019.2     0.3     SSE   152   1.1      SE     141     305       -49       0.0       0.0      54.1      9.30
   03/29/2020 00:50      45.9      45.5       85     41.3      0.00     13.93      60.6     0.50      1019.2     0.3       S   178   1.3     SSW     194     301       -51       0.0       0.0      54.4      9.30
   03/29/2020 00:40      45.9      45.6       85     41.5      0.00     13.93      60.5     0.50      1019.3     0.4     SSE   154   1.3      SE     145     299       -54       0.0       0.0      54.7      9.30
   03/29/2020 00:30      46.4      45.8       84     41.5      0.00     13.93      60.7     0.50      1019.3     0.4     SSE   160   1.1       S     171     294       -56       0.1       0.0      55.0      9.30
   03/29/2020 00:20      46.7      46.2       84     41.9      0.00     13.93      60.7     0.50      1019.4     0.4       S   170   1.1     SSE     164     290       -57       0.0       0.0      55.3      9.30
   03/29/2020 00:10      46.6      46.3       85     42.1      0.00     13.93      60.7     0.50      1019.3     0.5       S   187   1.1       S     178     287       -58       0.0       0.0      55.4      9.30
   03/29/2020 00:00      47.2      46.2       83     41.8      0.00     13.93      61.1     0.51      1019.4     0.3     SSE   151   1.1      SE     141     285       -64       0.0      24.3      56.1      9.30
   03/28/2020 23:50      48.1      47.1       82     42.2      0.00     13.93      61.3     0.51      1019.5     0.0      SE   129   0.6      SE     126     278       -66       0.0      24.3      56.5      9.30
   03/28/2020 23:40      48.7      48.0       81     42.9      0.00     13.93      61.3     0.51      1019.5     0.3      SE   145   0.9     SSE     146     273       -67       0.0      24.3      56.7      9.30
   03/28/2020 23:30      49.5      48.6       80     43.2      0.00     13.93      61.3     0.51      1019.5     0.7     SSE   159   1.5       S     180     266       -68       0.2      24.3      57.0      9.30
   03/28/2020 23:20      50.0      49.4       79     43.5      0.00     13.93      61.3     0.51      1019.6     0.8     SSE   165   1.7       S     170     266       -68       0.2      24.2      57.2      9.30
   03/28/2020 23:10      50.1      49.8       79     43.8      0.00     13.93      61.4     0.51      1019.5     0.7       S   175   2.0       S     186     271       -65       0.2      24.2      57.4      9.30
   03/28/2020 23:00      50.0      49.3       81     44.0      0.00     13.93      60.3     0.51      1019.6     1.1     SSW   197   2.4     SSW     203     272       -57       0.2      24.2      56.7      9.30
   03/28/2020 22:50      50.1      49.4       80     43.7      0.00     13.93      60.4     0.51      1019.7     0.1      SE   143   1.1       S     174     266       -61       0.0      24.1      56.9      9.30
   03/28/2020 22:40      50.9      50.1       78     44.0      0.00     13.93      60.3     0.51      1019.7     0.6     SSE   169   1.8       S     190     267       -69       0.0      24.1      57.1      9.31
   03/28/2020 22:30      51.3      50.7       77     44.1      0.00     13.93      60.4     0.51      1019.7     1.9     SSW   202   2.6     SSW     204     270       -69       1.2      24.1      57.3      9.31
   03/28/2020 22:20      51.8      51.1       76     44.2      0.00     13.93      60.3     0.51      1019.7     0.9       S   190   1.7     SSW     204     270       -69       0.5      23.9      57.6      9.31
   03/28/2020 22:10      52.2      51.8       75     44.3      0.00     13.93      60.3     0.51      1019.7     1.4     SSW   203   2.6       S     179     270       -66       0.7      23.9      57.9      9.31
   03/28/2020 22:00      52.5      52.0       74     44.4      0.00     13.93      60.9     0.51      1019.7     1.8     SSW   203   3.9      SW     220     270       -62       0.9      23.7      58.1      9.31
   03/28/2020 21:50      52.9      52.3       73     44.3      0.00     13.93      60.9     0.51      1019.7     1.2     SSW   208   2.1       S     182     270       -58       0.6      23.6      58.4      9.31
   03/28/2020 21:40      52.9      52.6       73     44.2      0.00     13.93      60.9     0.51      1019.7     1.9     SSW   211   3.7     WSW     242     270       -47       1.2      23.5      58.5      9.31
   03/28/2020 21:30      53.2      52.7       72     44.0      0.00     13.93      60.9     0.51      1019.7     1.3     SSW   197   3.5       S     173     270       -43       0.7      23.3      58.8      9.31
   03/28/2020 21:20      53.2      52.9       71     43.9      0.00     13.93      60.8     0.51      1019.7     2.3     SSW   209   4.0     SSW     196     270       -44       1.4      23.2      58.8      9.31
   03/28/2020 21:10      53.3      52.9       70     43.7      0.00     13.93      60.8     0.51      1019.6     2.4     SSW   204   4.5      SW     227     270       -43       1.5      22.9      59.1      9.31
   03/28/2020 21:00      53.1      52.7       70     43.4      0.00     13.93      60.9     0.51      1019.5     2.9     SSW   208   5.4     SSW     194     270       -58       1.8      22.7      59.7      9.31
   03/28/2020 20:50      53.3      52.9       69     43.2      0.00     13.93      60.9     0.51      1019.4     2.3     SSW   200   3.3     SSW     208     270       -66       1.4      22.4      60.0      9.31
   03/28/2020 20:40      53.6      53.0       68     42.9      0.00     13.93      60.9     0.51      1019.3     2.1      SW   221   4.7      SW     215     269       -67       1.1      22.1      60.2      9.32
   03/28/2020 20:30      54.0      53.4       66     42.6      0.00     13.93      60.8     0.51      1019.2     2.3      SW   215   4.1       S     181     269       -67       1.4      22.0      60.6      9.32
   03/28/2020 20:20      54.3      53.8       65     42.6      0.00     13.93      60.8     0.51      1019.2     2.7      SW   222   5.9     WSW     238     269       -69       1.8      21.7      60.9      9.32
   03/28/2020 20:10      54.3      54.1       64     42.5      0.00     13.93      60.8     0.51      1019.2     2.5      SW   226   4.4     WSW     246     269       -68       1.6      21.4      61.1      9.32
   03/28/2020 20:00      54.7      54.3       62     42.0      0.00     13.93      60.5     0.51      1019.1     2.7      SW   226   4.5      SW     232     269       -68       1.5      21.2      61.2      9.32
   03/28/2020 19:50      54.9      54.5       61     41.5      0.00     13.93      60.4     0.51      1019.1     2.7      SW   224   4.3     WSW     250     269       -66       1.5      20.9      61.5      9.32
   03/28/2020 19:40      55.4      54.7       60     41.4      0.00     13.93      60.4     0.51      1019.1     2.6      SW   229   4.4     WSW     253     268       -63       1.6      20.7      61.8      9.32
   03/28/2020 19:30      55.7      55.2       59     41.3      0.00     13.93      60.4     0.51      1019.1     2.7     WSW   246   6.7     WNW     284     268       -72       1.6      20.4      62.0      9.32
   03/28/2020 19:20      56.1      55.5       59     41.5      0.00     13.93      60.4     0.51      1019.1     2.9     WSW   242   4.7     WSW     240     268       -76       1.8      20.2      62.4      9.32
   03/28/2020 19:10      56.6      56.0       58     41.6      0.00     13.93      60.3     0.51      1019.2     3.5     WSW   249   7.1     WSW     241     268       -74       2.4      19.9      62.8      9.32
   03/28/2020 19:00      57.7      56.6       55     41.0      0.00     13.93      60.5     0.51      1019.2     3.8     WSW   240   7.1       W     273     268       -70       2.6      19.5      63.4      9.33
   03/28/2020 18:50      58.8      57.6       50     39.3      0.00     13.93      60.5     0.51      1019.2     3.6     WSW   245   6.5     WSW     249     268       -62       2.5      19.0      63.8      9.33
   03/28/2020 18:40      59.1      58.5       48     39.1      0.00     13.93      60.4     0.50      1019.1     3.1     WSW   242   5.8     SSW     211     267       -40       1.9      18.6      64.2      9.33
   03/28/2020 18:30      59.8      59.0       47     39.1      0.00     13.93      60.3     0.50      1019.1     3.9      SW   226   7.1      SW     227     267       -24       2.6      18.3      64.4      9.33
   03/28/2020 18:20      60.2      59.6       47     39.7      0.00     13.93      60.3     0.50      1019.1     2.8     WSW   244   6.2       W     265     267         0       1.8      17.9      64.7      9.33
   03/28/2020 18:10      60.4      59.8       47     40.1      0.00     13.93      60.3     0.50      1019.1     3.1     WSW   239   6.1     WSW     258     267        17       2.1      17.6      64.9      9.34
   03/28/2020 18:00      60.5      59.8       47     39.9      0.00     13.93      59.4     0.50      1019.0     3.6      SW   226   6.7      SW     221     267        21       2.2      17.2      64.0      9.34
   03/28/2020 17:50      60.7      60.3       47     40.0      0.00     13.93      59.4     0.50      1019.1     3.6      SW   224   7.3      SW     226     267        53       2.5      16.9      64.1      9.34
   03/28/2020 17:40      60.9      60.4       46     39.9      0.00     13.93      59.3     0.50      1019.1     3.7     SSW   208   7.3      SW     235     267       106       2.5      16.4      64.2      9.34
   03/28/2020 17:30      60.9      60.4       47     40.3      0.00     13.93      59.2     0.50      1019.2     3.6      SW   229   5.9       W     265     267        83       2.5      16.0      64.3      9.34
   03/28/2020 17:20      60.9      60.4       46     39.9      0.00     13.93      59.2     0.50      1019.2     3.8     SSW   210   6.6      SW     217     267       107       2.7      15.6      64.3      9.34
   03/28/2020 17:10      60.8      60.4       46     39.6      0.00     13.93      59.2     0.50      1019.2     3.9     SSW   208   6.4      SW     220     267       137       2.6      15.2      64.3      9.34
   03/28/2020 17:00      61.1      60.6       46     40.1      0.00     13.93      59.6     0.50      1019.2     4.3      SW   221   8.9      SW     219     267       116       2.9      14.7      64.8      9.35
   03/28/2020 16:50      61.2      60.8       45     39.3      0.00     13.93      59.5     0.50      1019.2     3.4     SSW   196   7.2      SW     218     267       108       2.4      14.3      64.8      9.35
   03/28/2020 16:40      61.6      60.9       44     38.9      0.00     13.93      59.5     0.50      1019.2     4.1       S   190   7.8     SSW     204     267       156       2.5      13.8      64.7      9.35
   03/28/2020 16:30      61.7      61.4       44     39.3      0.00     13.93      59.4     0.50      1019.2     4.4       S   177   7.8      SE     141     267       189       2.7      13.4      64.5      9.35
   03/28/2020 16:20      61.8      61.3       45     39.8      0.00     13.93      59.3     0.50      1019.2     3.6     SSE   160   8.3       S     186     267       233       2.2      13.0      64.2      9.35
   03/28/2020 16:10      61.9      61.3       45     40.3      0.00     13.93      59.3     0.50      1019.3     3.6       S   171   6.0      SE     143     267       213       2.3      12.6      63.9      9.35
   03/28/2020 16:00      61.3      60.7       47     40.4      0.00     13.93      59.6     0.50      1019.4     4.2       S   177   8.8       S     183     267       236       3.0      12.2      64.2      9.35
   03/28/2020 15:50      61.6      61.0       47     41.0      0.00     13.93      59.6     0.50      1019.4     4.7     SSW   194   7.8     SSW     195     267       146       3.1      11.7      64.0      9.36
   03/28/2020 15:40      62.5      61.7       48     42.2      0.00     13.93      59.4     0.50      1019.4     3.7     SSW   201   7.2     SSW     199     267       177       2.6      11.2      63.8      9.36
   03/28/2020 15:30      63.2      62.2       47     42.1      0.00     13.93      59.4     0.50      1019.6     3.1     SSW   204   8.9     SSW     209     267       236       2.1      10.8      63.6      9.36
   03/28/2020 15:20      62.5      61.6       47     41.9      0.00     13.93      59.3     0.50      1019.7     3.2     SSW   210   6.4     SSW     203     267       350       2.0      10.4      63.2      9.36
   03/28/2020 15:10      61.9      61.4       48     41.6      0.00     13.93      59.1     0.50      1019.8     3.2       S   191   6.0      SW     219     267       181       2.1      10.1      63.0      9.36
   03/28/2020 15:00      61.5      60.9       48     41.3      0.00     13.93      58.8     0.50      1019.9     2.0     SSW   192   5.6       S     184     267       147       1.5       9.7      62.6      9.36
   03/28/2020 14:50      61.7      60.9       48     41.4      0.00     13.93      58.7     0.50      1020.1     2.0     SSE   167   5.0     SSW     199     267       124       1.4       9.5      62.5      9.36
   03/28/2020 14:40      61.9      61.5       47     41.4      0.00     13.93      58.7     0.50      1020.2     2.1     SSE   156   4.3     ESE     119     267       163       1.4       9.3      62.3      9.37
   03/28/2020 14:30      62.4      61.7       45     40.4      0.00     13.93      58.6     0.50      1020.3     2.7     WSW   247   5.6     WNW     288     267       229       1.8       9.0      62.0      9.37
   03/28/2020 14:20      63.5      62.2       46     41.8      0.00     13.93      58.6     0.50      1020.4     2.3     SSW   206   6.2     SSW     207     267       179       1.8       8.7      61.8      9.37
   03/28/2020 14:10      63.3      62.2       45     40.8      0.00     13.93      58.6     0.50      1020.6     1.8     SSW   211   6.1     SSW     212     266       223       1.5       8.4      61.6      9.37
   03/28/2020 14:00      63.2      62.0       45     40.7      0.00     13.93      58.5     0.50      1020.7     2.0      SE   127   5.2      SE     133     266       496       1.2       8.2      60.7      9.37
   03/28/2020 13:50      63.7      61.7       46     41.6      0.00     13.93      58.4     0.50      1020.9     1.7      SE   132   5.1      SE     143     266       488       1.2       8.0      60.1      9.37
   03/28/2020 13:40      61.7      60.8       50     42.3      0.00     13.93      58.3     0.50      1021.1     3.7     SSE   160   8.6     SSW     192     267       487       2.5       7.8      59.6      9.37
   03/28/2020 13:30      61.9      61.0       51     43.0      0.00     13.93      58.4     0.50      1021.2     4.8     SSE   163   9.4      SE     142     267       576       2.7       7.3      59.0      9.38
   03/28/2020 13:20      62.5      61.6       48     42.2      0.00     13.93      58.3     0.50      1021.3     4.9       S   173   7.9     SSW     208     266       589       3.6       6.9      58.5      9.38
   03/28/2020 13:10      62.5      59.9       49     42.3      0.00     13.93      58.3     0.50      1021.5     1.5       S   191   4.4       S     190     266       544       1.2       6.3      57.8      9.38
   03/28/2020 13:00      59.7      58.9       53     42.2      0.00     13.93      58.1     0.50      1021.7     2.8      SE   133   6.2      SE     128     267       326       1.4       6.1      57.3      9.38
   03/28/2020 12:50      60.1      59.0       52     41.8      0.00     13.93      58.1     0.50      1021.8     2.5     SSE   163   5.1     SSE     158     268       110       1.5       5.9      57.0      9.38
   03/28/2020 12:40      60.0      59.5       50     41.1      0.00     13.93      58.0     0.50      1021.9     2.0     SSW   207   5.4     SSE     150     267       101       1.5       5.6      56.8      9.38
   03/28/2020 12:30      60.3      59.5       48     40.2      0.00     13.93      58.0     0.50      1022.1     1.3     SSW   199   3.8      SW     222     267       103       0.8       5.4      56.5      9.38
   03/28/2020 12:20      61.2      59.4       46     39.6      0.00     13.93      57.9     0.50      1022.2     1.9     ESE   122   6.4      SE     124     267        92       1.2       5.2      56.4      9.39
   03/28/2020 12:10      61.9      60.8       44     39.2      0.00     13.93      57.8     0.50      1022.2     2.3     SSE   150   4.8      SE     136     266       462       1.3       5.0      56.0      9.39
   03/28/2020 12:00      60.9      59.0       46     39.2      0.00     13.93      58.2     0.50      1022.4     2.0     SSE   148   4.6      SE     133     266       520       1.3       4.8      55.6      9.39
   03/28/2020 11:50      61.6      59.5       45     39.5      0.00     13.93      58.1     0.50      1022.4     2.3       E    85   5.1       E      87     266       187       1.3       4.6      55.2      9.39
   03/28/2020 11:40      61.6      60.8       45     39.9      0.00     13.93      58.0     0.50      1022.5     2.1       E    80   5.2       E      86     266       477       1.4       4.4      54.7      9.39
   03/28/2020 11:30      61.1      59.4       47     39.9      0.00     13.93      58.0     0.50      1022.7     1.5     ESE   107   3.7       E      88     266       472       0.8       4.1      54.0      9.39
   03/28/2020 11:20      60.5      59.4       47     39.4      0.00     13.93      57.9     0.50      1022.8     2.2     WSW   249   4.6       S     176     266       463       2.0       4.0      53.4      9.39
   03/28/2020 11:10      60.8      60.1       47     39.9      0.00     13.93      57.9     0.50      1022.8     1.9       N   350   4.4     NNW     343     266       497       0.8       3.7      52.9      9.39
   03/28/2020 11:00      60.3      58.7       49     40.2      0.00     13.93      58.3     0.50      1022.9     1.4      NW   319   3.4     WSW     258     266       473       0.9       3.5      52.5      9.39
   03/28/2020 10:50      59.4      58.4       49     39.6      0.00     13.93      58.4     0.50      1022.8     1.9     NNE    14   5.0       W     267     266       438       1.2       3.4      52.0      9.39
   03/28/2020 10:40      59.1      58.4       51     40.5      0.00     13.93      58.4     0.50      1023.0     1.7      NE    39   3.5      NE      38     266       442       0.9       3.2      51.5      9.39
   03/28/2020 10:30      58.6      56.9       57     42.4      0.00     13.93      58.4     0.50      1023.0     0.9     NNW   340   2.7     NNW     335     266       409       0.5       3.0      51.0      9.39
   03/28/2020 10:20      57.5      56.9       57     42.3      0.00     13.93      58.5     0.50      1022.9     1.6     NNW   344   4.5      NE      39     267       340       0.5       3.0      50.6      9.39
   03/28/2020 10:10      57.2      55.5       59     42.4      0.00     13.93      58.5     0.50      1022.9     1.1      NW   326   2.7     WNW     292     267       344       0.9       2.9      50.3      9.39
   03/28/2020 10:00      55.4      54.7       61     41.9      0.00     13.93      58.8     0.50      1023.0     2.5     WSW   258   6.4       W     262     267       373       1.9       2.7      50.1      9.39
   03/28/2020 09:50      55.0      54.6       61     41.8      0.00     13.93      58.8     0.50      1022.9     2.5       W   276   5.3       W     281     267       348       1.6       2.4      49.8      9.40
   03/28/2020 09:40      54.7      54.0       62     41.5      0.00     13.93      58.7     0.50      1022.9     1.0      NW   316   2.7      NW     311     268       185       0.7       2.2      49.5      9.40
   03/28/2020 09:30      54.6      53.4       61     41.0      0.00     13.93      58.8     0.50      1022.9     0.9     WSW   254   3.1      SW     230     268       217       0.6       2.1      49.4      9.40
   03/28/2020 09:20      53.4      51.9       62     40.0      0.00     13.93      58.9     0.50      1022.9     1.7       W   266   3.6       W     274     280       272       1.0       1.9      49.2      9.40
   03/28/2020 09:10      51.9      50.8       63     39.2      0.00     13.93      59.0     0.50      1022.8     2.1       W   278   3.6     WNW     282     294       211       1.3       1.8      49.1      9.40
   03/28/2020 09:00      50.9      50.4       64     38.9      0.00     13.93      58.8     0.50      1022.7     1.7       W   271   2.8     WSW     253     303       109       0.9       1.6      48.7      9.40
   03/28/2020 08:50      50.6      50.2       64     38.5      0.00     13.93      58.7     0.50      1022.5     1.2       W   278   2.9     WNW     289     307        91       0.7       1.4      48.5      9.40
   03/28/2020 08:40      50.5      50.2       62     37.9      0.00     13.93      58.8     0.50      1022.5     1.2     WSW   241   2.7       W     267     310       104       0.7       1.3      48.5      9.40
   03/28/2020 08:30      51.1      50.4       62     38.2      0.00     13.93      58.8     0.50      1022.4     1.2       W   274   2.5     WSW     253     312       142       0.6       1.2      48.2      9.40
   03/28/2020 08:20      50.7      48.3       67     39.0      0.00     13.93      58.9     0.50      1022.1     0.0       W   272   0.7       W     264     316       184       0.0       1.1      48.0      9.40
   03/28/2020 08:10      48.4      47.2       71     38.7      0.00     13.93      58.8     0.50      1022.0     0.3     WNW   291   1.3      NW     312     321        79       0.0       1.1      48.0      9.40
   03/28/2020 08:00      47.5      46.9       73     38.8      0.00     13.93      58.9     0.50      1021.8     0.3       S   171   1.5     WNW     301     329        42       0.0       1.1      47.9      9.40
   03/28/2020 07:50      47.0      45.7       75     38.9      0.00     13.93      58.9     0.50      1021.8     0.0     ENE    77   0.6     ESE     106     337        45       0.0       1.1      47.7      9.40
   03/28/2020 07:40      45.8      44.7       79     39.1      0.00     13.93      58.9     0.50      1021.8     0.0      SE   128   0.4     ESE     123     348        48       0.0       1.1      47.7      9.40
   03/28/2020 07:30      44.7      44.0       80     38.5      0.00     13.93      59.0     0.50      1021.7     0.5     SSE   148   1.5      SE     140     357        30       0.0       1.1      47.6      9.40
   03/28/2020 07:20      44.3      44.0       79     38.0      0.00     13.93      59.0     0.50      1021.7     0.7     SSE   148   1.7      SE     141     363        12       0.0       1.1      47.7      9.40
   03/28/2020 07:10      44.2      43.7       79     38.1      0.00     13.93      59.1     0.50      1021.7     1.3       S   180   2.4       S     174     367         4       0.6       1.1      47.6      9.40
   03/28/2020 07:00      43.8      43.1       84     38.8      0.00     13.93      58.6     0.50      1021.8     1.4       S   172   2.4       S     186     372        -5       0.6       1.0      47.4      9.40
   03/28/2020 06:50      43.3      42.6       86     39.0      0.00     13.93      58.7     0.50      1021.8     1.0     SSE   163   2.5     SSE     166     376        -8       0.4       0.9      47.5      9.40
   03/28/2020 06:40      42.7      41.7       88     38.8      0.00     13.93      58.7     0.50      1021.8     1.7     SSE   150   3.2      SE     126     380        -3       0.7       0.8      47.4      9.40
   03/28/2020 06:30      41.8      41.0       88     38.0      0.00     13.93      58.7     0.50      1021.7     1.3     SSE   153   2.8     SSE     168     389        -8       0.2       0.7      47.5      9.40
   03/28/2020 06:20      41.8      41.1       87     37.8      0.00     13.93      58.7     0.50      1021.6     0.5     SSE   155   1.7     SSE     149     394       -18       0.2       0.6      47.7      9.40
   03/28/2020 06:10      42.0      41.7       86     38.0      0.00     13.93      58.7     0.50      1021.7     0.4     SSE   168   1.1     SSE     163     393       -21       0.2       0.6      47.9      9.40
   03/28/2020 06:00      42.3      41.9       86     38.1      0.00     13.93      59.1     0.50      1021.7     0.0       S   189   0.2       S     189     390       -22       0.0       0.6      48.4      9.40
   03/28/2020 05:50      43.1      42.2       85     38.4      0.00     13.93      59.2     0.50      1021.7     0.2      SE   136   0.9     ESE     103     389       -22       0.0       0.6      48.5      9.40
   03/28/2020 05:40      43.3      42.8       86     39.3      0.00     13.93      59.1     0.50      1021.8     0.0       S   188   0.9       S     178     386       -18       0.0       0.6      48.6      9.41
   03/28/2020 05:30      43.4      43.0       87     39.5      0.00     13.93      59.2     0.50      1021.8     0.2     SSE   158   0.8     SSE     147     386       -12       0.0       0.6      48.7      9.41
   03/28/2020 05:20      43.6      43.1       88     40.1      0.00     13.93      59.2     0.50      1021.7     0.0      SE   127   0.7      SE     127     389       -16       0.0       0.6      48.9      9.41
   03/28/2020 05:10      43.5      43.1       90     40.7      0.00     13.93      59.2     0.50      1021.6     0.5       S   172   1.1       S     176     390        -9       0.0       0.6      48.9      9.41
   03/28/2020 05:00      43.5      43.0       92     40.8      0.00     13.93      58.9     0.50      1021.4     0.4     SSW   195   1.0      SW     229     393        -7       0.0       0.6      48.7      9.41
   03/28/2020 04:50      43.0      42.1       92     40.5      0.00     13.93      59.0     0.50      1021.4     0.2     SSE   148   1.0      SE     142     397        -4       0.0       0.6      48.7      9.41
   03/28/2020 04:40      42.2      41.5       92     39.7      0.00     13.93      59.1     0.50      1021.5     0.6     SSE   157   1.3      SE     141     403        -6       0.0       0.6      48.8      9.41
   03/28/2020 04:30      41.9      41.5       92     39.5      0.00     13.93      59.2     0.50      1021.5     0.4     SSE   163   1.4      SE     139     405       -15       0.1       0.6      49.0      9.41
   03/28/2020 04:20      42.0      41.5       92     39.6      0.00     13.93      59.2     0.50      1021.5     0.7     SSW   195   1.7     SSW     209     404       -21       0.2       0.5      49.1      9.41
   03/28/2020 04:10      42.2      42.0       92     40.0      0.00     13.93      59.2     0.50      1021.6     0.3      SE   142   0.9       S     172     401       -20       0.0       0.5      49.4      9.41
   03/28/2020 04:00      42.2      41.7       93     39.9      0.00     13.93      59.6     0.50      1021.6     0.0       N     0   0.0     SSE     147     396       -12       0.0       0.5      49.7      9.41
   03/28/2020 03:50      41.8      41.4       93     39.6      0.00     13.93      59.6     0.50      1021.7     0.7     SSE   155   2.1      SE     135     396       -10       0.1       0.5      49.8      9.41
   03/28/2020 03:40      41.5      41.1       93     39.3      0.00     13.93      59.7     0.50      1021.7     0.4       S   173   1.2     SSW     192     400       -21       0.2       0.5      49.9      9.41
   03/28/2020 03:30      41.2      40.6       92     38.8      0.00     13.93      59.7     0.50      1021.7     0.2     SSE   154   0.9      SE     141     397       -18       0.0       0.5      50.1      9.41
   03/28/2020 03:20      41.5      40.9       92     38.9      0.00     13.93      59.8     0.50      1021.7     0.2     SSE   160   0.9       S     169     396       -23       0.1       0.4      50.3      9.41
   03/28/2020 03:10      41.7      41.2       92     39.2      0.00     13.93      59.8     0.50      1021.7     0.6     SSW   205   1.5     WSW     240     393       -23       0.0       0.4      50.6      9.41
   03/28/2020 03:00      41.8      41.2       92     39.4      0.00     13.93      60.0     0.50      1021.7     0.1     SSE   163   0.7     SSE     160     391       -24       0.0       0.4      51.2      9.41
   03/28/2020 02:50      42.3      41.6       91     39.8      0.00     13.93      60.1     0.50      1021.8     0.1     SSE   154   0.9     SSE     155     387       -24       0.0       0.4      51.5      9.41
   03/28/2020 02:40      42.3      41.7       92     39.7      0.00     13.93      60.2     0.50      1021.9     0.1     SSE   161   1.1     SSE     157     384       -25       0.0       0.4      51.7      9.41
   03/28/2020 02:30      42.6      41.8       91     39.8      0.00     13.93      60.2     0.50      1021.8     0.5     SSE   165   1.4      SE     144     382       -26       0.2       0.4      52.0      9.41
   03/28/2020 02:20      42.8      42.4       91     40.2      0.00     13.93      60.3     0.50      1021.8     0.3     SSE   162   1.3     SSE     163     380       -26       0.0       0.4      52.2      9.41
   03/28/2020 02:10      43.1      42.5       91     40.4      0.00     13.93      60.3     0.50      1021.8     0.0       S   170   0.6     SSE     168     374       -27       0.1       0.3      52.5      9.41
   03/28/2020 02:00      43.3      42.6       91     40.5      0.00     13.93      59.9     0.50      1021.8     0.2       S   176   0.8       S     172     369       -27       0.1       0.3      52.3      9.41
   03/28/2020 01:50      43.2      42.3       91     40.1      0.00     13.93      59.9     0.50      1021.8     0.4     SSE   160   1.1     SSE     168     363       -29       0.4       0.3      52.5      9.42
   03/28/2020 01:40      43.3      42.7       91     40.4      0.00     13.93      59.9     0.50      1021.9     0.0     SSE   157   0.6     SSE     159     355       -30       0.0       0.2      52.8      9.42
   03/28/2020 01:30      43.1      42.6       90     40.2      0.00     13.93      59.9     0.50      1022.0     0.7       S   170   1.7     SSE     163     348       -30       0.3       0.2      53.0      9.42
   03/28/2020 01:20      43.4      42.7       90     40.3      0.00     13.93      59.9     0.50      1022.0     0.1       S   177   0.9     SSE     168     342       -32       0.1       0.2      53.1      9.42
   03/28/2020 01:10      43.6      43.3       90     40.6      0.00     13.93      60.0     0.50      1022.0     0.1     SSE   156   0.8     SSE     150     334       -33       0.0       0.2      53.4      9.42
   03/28/2020 01:00      44.2      43.4       89     40.8      0.00     13.93      59.5     0.50      1021.9     0.7     SSE   154   2.1      SE     146     327       -34       0.2       0.2      53.3      9.42
   03/28/2020 00:50      44.3      44.0       89     41.2      0.00     13.93      59.7     0.50      1021.8     0.7       S   189   1.6       S     187     322       -35       0.1       0.1      53.6      9.42
   03/28/2020 00:40      44.4      44.0       89     41.1      0.00     13.93      59.7     0.50      1021.8     0.4     SSE   150   1.4     SSE     151     317       -38       0.0       0.1      53.8      9.42
   03/28/2020 00:30      44.8      44.1       88     41.2      0.00     13.93      59.8     0.50      1021.8     0.5     SSE   153   1.6      SE     131     312       -40       0.2       0.0      53.9      9.42
   03/28/2020 00:20      45.1      44.6       88     41.6      0.00     13.93      59.8     0.50      1021.8     0.3     SSE   161   1.1      SE     143     305       -42       0.1       0.0      54.2      9.42
   03/28/2020 00:10      45.0      44.6       88     41.3      0.00     13.93      59.8     0.50      1021.9     0.4     SSE   168   1.0     SSE     149     301       -46       0.2       0.0      54.4      9.42
   03/28/2020 00:00      45.6      44.8       86     41.5      0.00     13.93      60.2     0.51      1021.9     0.2     SSE   160   1.4     SSE     153     296       -50       0.0      36.0      54.9      9.42
   03/27/2020 23:50      45.9      45.5       86     41.7      0.00     13.93      60.1     0.50      1021.9     0.9       S   190   1.9     SSW     198     290       -53       0.5      36.0      55.2      9.42
   03/27/2020 23:40      46.0      45.6       86     41.8      0.00     13.93      60.2     0.51      1021.9     0.0       S   174   1.0       S     185     285       -59       0.0      35.9      55.5      9.42
   03/27/2020 23:30      46.4      45.6       84     41.4      0.00     13.93      60.2     0.51      1021.8     0.3     SSE   165   0.9     SSE     159     280       -64       0.0      35.9      55.6      9.42
   03/27/2020 23:20      47.0      46.2       83     41.7      0.00     13.93      60.2     0.51      1021.8     0.1       S   173   0.9       S     181     273       -67       0.1      35.9      55.9      9.43
   03/27/2020 23:10      47.5      46.5       82     41.6      0.00     13.93      60.2     0.51      1021.8     0.6     SSW   200   2.1     WSW     245     270       -70       0.0      35.9      56.2      9.43
   03/27/2020 23:00      47.5      47.0       81     41.8      0.00     13.93      60.4     0.51      1021.9     0.9       S   174   2.2     WSW     257     271       -70       0.4      35.8      56.9      9.43
   03/27/2020 22:50      48.9      47.4       78     41.8      0.00     13.93      60.4     0.51      1021.9     0.6      SE   145   1.8       N       7     271       -71       0.0      35.8      57.1      9.43
   03/27/2020 22:40      49.2      48.7       78     42.4      0.00     13.93      60.4     0.51      1021.9     0.3      NE    41   1.2      NE      42     273       -71       0.0      35.8      57.4      9.43
   03/27/2020 22:30      49.4      48.9       77     42.4      0.00     13.93      60.4     0.51      1021.9     1.3     SSE   169   2.5     SSW     196     273       -71       0.6      35.8      57.6      9.43
   03/27/2020 22:20      50.1      49.4       75     42.3      0.00     13.93      60.3     0.51      1021.8     0.9       S   186   1.9       S     173     272       -72       0.3      35.7      57.9      9.43
   03/27/2020 22:10      50.6      50.1       74     42.5      0.00     13.93      60.5     0.51      1021.8     1.8      SW   217   3.0     SSW     205     271       -73       0.9      35.6      58.1      9.43
   03/27/2020 22:00      50.7      50.3       74     42.5      0.00     13.93      60.0     0.51      1021.8     2.0      SW   235   3.3     WSW     245     271       -73       0.8      35.5      58.0      9.43
   03/27/2020 21:50      50.6      50.2       74     42.4      0.00     13.93      60.4     0.51      1021.7     1.6      SW   226   3.7       S     183     270       -73       0.4      35.3      58.5      9.43
   03/27/2020 21:40      50.3      49.8       74     42.3      0.00     13.93      60.9     0.51      1021.6     1.8     SSW   192   3.8     SSW     193     270       -73       0.8      35.3      59.1      9.43
   03/27/2020 21:30      50.5      49.9       74     42.2      0.00     13.93      60.7     0.51      1021.6     1.4     SSE   166   2.9       S     177     270       -73       0.8      35.1      59.4      9.44
   03/27/2020 21:20      51.4      50.5       72     42.2      0.00     13.93      60.8     0.51      1021.4     0.8     SSW   193   1.8     SSW     193     270       -73       0.3      35.0      59.8      9.44
   03/27/2020 21:10      51.6      51.3       71     42.3      0.00     13.93      60.8     0.51      1021.3     1.0     SSW   202   3.6     WSW     241     270       -75       0.6      34.9      60.1      9.44
   03/27/2020 21:00      52.0      51.4       70     42.3      0.00     13.93      60.0     0.51      1021.1     1.4     SSW   211   2.8      SW     219     270       -76       0.5      34.8      59.5      9.44
   03/27/2020 20:50      52.2      51.8       69     42.3      0.00     13.93      59.9     0.51      1021.0     2.4     SSW   203   4.3     SSW     196     269       -77       1.5      34.8      59.8      9.44
   03/27/2020 20:40      52.5      52.1       68     42.2      0.00     13.93      59.9     0.51      1020.9     2.7     SSW   212   4.7     WSW     254     269       -78       1.6      34.5      60.1      9.44
   03/27/2020 20:30      52.9      52.4       67     42.2      0.00     13.93      59.9     0.51      1020.7     3.4      SW   226   6.2       W     268     269       -78       2.1      34.2      60.5      9.44
   03/27/2020 20:20      53.0      52.6       67     42.0      0.00     13.93      59.8     0.51      1020.6     3.5      SW   229   6.5      SW     219     269       -78       2.2      33.9      60.8      9.45
   03/27/2020 20:10      53.0      52.6       66     41.8      0.00     13.93      59.8     0.51      1020.5     2.7      SW   226   4.8     WSW     245     269       -79       1.5      33.5      61.1      9.45
   03/27/2020 20:00      53.3      52.7       65     41.6      0.00     13.93      59.4     0.51      1020.5     2.3     SSW   210   5.1      SW     214     269       -80       1.5      33.3      61.4      9.45
   03/27/2020 19:50      53.8      53.2       63     41.5      0.00     13.93      59.4     0.51      1020.5     3.8      SW   229   6.8     WSW     247     268       -80       2.4      33.0      61.7      9.45
   03/27/2020 19:40      54.3      53.6       62     41.0      0.00     13.93      59.3     0.51      1020.3     4.3      SW   230   7.9       W     261     268       -81       2.9      32.6      62.2      9.45
   03/27/2020 19:30      54.8      54.1       59     40.6      0.00     13.93      59.4     0.51      1020.2     3.9      SW   235   6.8     SSW     195     268       -82       2.6      32.1      62.7      9.45
   03/27/2020 19:20      55.2      54.6       58     40.4      0.00     13.93      59.4     0.51      1020.0     3.6     WSW   253   8.6      NW     309     268       -81       2.6      31.7      63.0      9.45
   03/27/2020 19:10      55.6      54.9       57     40.3      0.00     13.93      59.1     0.51      1019.9     6.2     WSW   245   9.4      SW     234     268       -77       4.1      31.3      63.3      9.46
   03/27/2020 19:00      56.1      55.6       57     40.8      0.00     13.93      59.4     0.50      1019.7     4.6     WSW   245   7.8      SW     235     268       -72       3.1      30.6      64.2      9.46
   03/27/2020 18:50      56.8      56.0       54     40.1      0.00     13.93      59.4     0.50      1019.7     5.9     WSW   237   9.4      SW     227     267       -66       3.9      30.1      64.8      9.46
   03/27/2020 18:40      57.6      56.8       52     39.5      0.00     13.93      59.5     0.50      1019.7     6.5      SW   235  11.4      SW     224     267       -44       4.5      29.4      65.5      9.46
   03/27/2020 18:30      58.2      57.4       49     38.5      0.00     13.93      59.3     0.50      1019.6     6.7      SW   235  11.5      SW     229     267       -25       4.7      28.7      66.0      9.47
   03/27/2020 18:20      59.0      58.1       45     37.4      0.00     13.93      59.3     0.50      1019.4     5.6      SW   235  11.1     WSW     250     267        -3       3.9      27.9      66.2      9.47
   03/27/2020 18:10      59.9      58.6       43     36.9      0.00     13.93      59.2     0.50      1019.3     7.2      SW   233  11.5       S     181     266        23       5.0      27.2      66.5      9.47
   03/27/2020 18:00      60.5      59.8       42     36.8      0.00     13.93      59.2     0.50      1019.2     6.3     WSW   257   9.8     WSW     238     266        48       4.4      26.4      66.9      9.48
   03/27/2020 17:50      61.1      60.3       40     36.3      0.00     13.93      59.1     0.50      1019.0     6.1       W   265  11.8       W     272     266        75       4.3      25.7      67.0      9.48
   03/27/2020 17:40      60.9      60.1       39     35.2      0.00     13.93      59.0     0.50      1018.9     5.4     WSW   243  11.4      SW     235     266       103       3.7      24.9      67.2      9.48
   03/27/2020 17:30      61.3      60.5       37     34.4      0.00     13.93      58.9     0.50      1018.7     7.0      SW   231  12.1      SW     221     266       132       4.7      24.3      67.3      9.49
   03/27/2020 17:20      61.3      60.6       37     34.5      0.00     13.93      58.8     0.50      1018.7     6.9     WSW   250  13.3       W     279     266       159       4.7      23.5      67.5      9.49
   03/27/2020 17:10      61.5      60.6       37     34.6      0.00     13.93      58.7     0.50      1018.6     8.0      SW   234  13.0     WSW     237     266       186       5.5      22.8      67.6      9.49
   03/27/2020 17:00      63.0      61.6       33     33.3      0.00     13.93      58.7     0.50      1018.5     6.5     WSW   248  12.5      SW     219     266       210       4.5      21.8      67.7      9.50
   03/27/2020 16:50      62.8      62.2       32     32.3      0.00     13.93      58.7     0.50      1018.4     6.5       W   261  15.0       W     276     265       235       4.5      21.1      67.8      9.50
   03/27/2020 16:40      63.2      62.2       32     32.2      0.00     13.93      58.6     0.50      1018.3     7.1     WSW   238  12.1      NW     315     265       262       5.2      20.3      67.7      9.50
   03/27/2020 16:30      63.5      62.5       31     32.0      0.00     13.93      58.5     0.50      1018.2     6.4     WSW   245  10.8     WSW     258     266       286       4.5      19.5      67.6      9.51
   03/27/2020 16:20      63.6      63.1       31     31.9      0.00     13.93      58.5     0.50      1018.1     6.8     WSW   251  11.9       S     186     265       307       4.8      18.7      67.3      9.51
   03/27/2020 16:10      64.0      63.2       30     31.6      0.00     13.93      58.4     0.50      1018.0     5.9     WSW   258  10.9       W     259     265       325       4.2      17.9      67.1      9.51
   03/27/2020 16:00      63.5      62.8       29     30.8      0.00     13.93      57.9     0.50      1018.0     5.5     WSW   245   9.2       W     264     265       354       3.8      17.2      66.3      9.52
   03/27/2020 15:50      63.8      63.0       29     30.3      0.00     13.93      57.7     0.50      1018.1     6.5      SW   223   9.6     WSW     247     265       378       4.5      16.6      66.0      9.52
   03/27/2020 15:40      64.4      63.5       28     29.8      0.00     13.93      57.5     0.50      1018.0     4.6     SSW   206   9.6       W     263     265       387       3.4      15.8      65.5      9.52
   03/27/2020 15:30      64.9      63.6       27     29.2      0.00     13.93      57.4     0.50      1018.1     4.2     SSW   208  10.3     SSW     206     265       404       3.1      15.3      65.0      9.53
   03/27/2020 15:20      64.1      63.5       27     28.9      0.00     13.93      57.3     0.50      1018.1     5.0     WSW   251   8.9     WSW     241     264       424       3.6      14.7      64.4      9.53
   03/27/2020 15:10      64.1      63.5       26     27.9      0.00     13.93      56.8     0.50      1018.1     4.2     SSW   202   8.7       W     265     264       438       3.0      14.1      63.7      9.53
   03/27/2020 15:00      64.7      63.8       25     27.9      0.00     13.93      57.3     0.50      1018.2     4.0      SW   224   8.2     WSW     247     264       454       3.0      13.6      63.8      9.54
   03/27/2020 14:50      65.8      63.3       25     27.6      0.00     13.93      57.3     0.50      1018.3     4.2     WSW   239   9.6     WSW     241     264       469       3.0      13.1      63.3      9.54
   03/27/2020 14:40      65.0      63.3       25     27.3      0.00     13.93      57.1     0.50      1018.4     2.3       W   276   7.4     WSW     251     264       479       1.8      12.6      62.7      9.54
   03/27/2020 14:30      64.5      62.5       23     25.3      0.00     13.93      57.1     0.50      1018.5     4.4       S   170   9.0      SE     144     264       496       3.1      12.3      62.2      9.54
   03/27/2020 14:20      65.0      63.7       24     26.4      0.00     13.93      57.1     0.50      1018.6     3.2      SW   216   6.7     SSE     168     264       509       2.5      11.8      61.6      9.55
   03/27/2020 14:10      65.8      64.0       24     27.3      0.00     13.93      57.0     0.50      1018.6     3.5     WNW   283   9.3     WSW     254     263       517       2.5      11.4      61.0      9.55
   03/27/2020 14:00      65.8      64.4       24     28.0      0.00     13.93      57.7     0.50      1018.6     3.1     WNW   293   7.4       W     274     263       523       2.4      11.0      61.0      9.55
   03/27/2020 13:50      65.1      64.5       24     26.8      0.00     13.93      57.6     0.50      1018.7     1.8     WNW   300   6.6       W     267     263       538       1.8      10.6      60.4      9.55
   03/27/2020 13:40      65.2      63.7       25     27.7      0.00     13.93      57.5     0.50      1018.7     3.6     WNW   289   7.7     WSW     255     263       548       2.6      10.3      59.8      9.55
   03/27/2020 13:30      65.5      64.3       23     26.1      0.00     13.93      57.4     0.50      1018.7     3.4     WNW   285   8.6      SW     228     263       549       2.5       9.8      59.3      9.56
   03/27/2020 13:20      65.1      62.5       24     26.1      0.00     13.93      57.4     0.50      1018.8     1.4       N     9   6.0     WNW     288     263       564       0.8       9.4      58.6      9.56
   03/27/2020 13:10      64.4      62.6       24     25.9      0.00     13.93      57.2     0.50      1018.9     1.7      SW   217   4.3     WNW     303     263       412       1.4       9.3      58.0      9.56
   03/27/2020 13:00      64.4      63.0       25     26.8      0.00     13.93      57.4     0.50      1019.0     2.3       N   355   6.2       N       0     263       568       1.0       9.0      57.4      9.56
   03/27/2020 12:50      63.5      62.6       25     26.6      0.00     13.93      57.3     0.50      1019.1     2.3     NNW   338   5.4       N     355     263       555       1.1       8.9      56.6      9.56
   03/27/2020 12:40      63.6      62.7       24     26.1      0.00     13.93      57.3     0.50      1019.2     3.3       N   350   9.7     NNE      12     264       548       1.7       8.7      56.0      9.57
   03/27/2020 12:30      64.0      62.8       25     26.7      0.00     13.93      57.1     0.50      1019.3     2.1     NNE    11   5.3     NNW     327     264       547       1.3       8.4      55.3      9.57
   03/27/2020 12:20      63.0      62.5       26     27.3      0.00     13.93      57.1     0.50      1019.4     2.9     NNE    20   6.9     NNE      12     264       541       1.2       8.2      54.6      9.57
   03/27/2020 12:10      63.3      61.3       29     29.3      0.00     13.93      57.2     0.50      1019.5     1.6      NE    43   4.6      NE      44     264       538       1.1       8.0      53.9      9.57
   03/27/2020 12:00      61.5      60.5       28     27.7      0.00     13.93      57.3     0.50      1019.5     5.5       W   273  11.7       W     265     264       537       3.8       7.8      53.4      9.57
   03/27/2020 11:50      62.0      61.3       29     28.8      0.00     13.93      57.3     0.50      1019.6     2.7      NW   321   9.7       W     267     264       521       1.9       7.2      52.8      9.58
   03/27/2020 11:40      61.7      60.9       30     29.5      0.00     13.93      57.4     0.50      1019.6     1.9      NE    55   4.1       E      93     264       512       1.1       6.9      52.2      9.58
   03/27/2020 11:30      61.6      59.9       30     29.1      0.00     13.93      57.4     0.50      1019.7     1.7      NE    39   6.2      NW     309     264       502       1.0       6.7      51.5      9.58
   03/27/2020 11:20      60.0      59.0       31     29.2      0.00     13.93      57.4     0.50      1019.6     2.4       N     3   4.9       N       0     264       492       1.0       6.5      50.8      9.58
   03/27/2020 11:10      59.2      58.3       30     27.2      0.00     13.93      57.7     0.50      1019.5     3.6     WSW   246   8.1       W     278     264       484       2.7       6.4      50.3      9.58
   03/27/2020 11:00      60.0      58.7       31     28.7      0.00     13.93      57.2     0.50      1019.5     2.0     NNW   346   5.8     NNW     334     264       465       1.4       5.9      49.2      9.58
   03/27/2020 10:50      58.8      57.7       32     28.2      0.00     13.93      57.0     0.50      1019.5     2.2       N    10   5.3       N       7     264       452       0.7       5.7      48.6      9.59
   03/27/2020 10:40      58.6      57.8       32     28.3      0.00     13.93      57.2     0.50      1019.4     2.8     NNW   339   7.5      NE      37     265       438       1.4       5.6      48.1      9.59
   03/27/2020 10:30      57.8      57.1       33     28.4      0.00     13.93      57.3     0.50      1019.5     2.6      NW   307   7.0       W     270     265       420       1.7       5.3      47.6      9.59
   03/27/2020 10:20      57.6      56.9       33     28.5      0.00     13.93      57.3     0.50      1019.5     2.4     NNW   329   5.1      NW     312     265       403       0.9       5.0      47.2      9.59
   03/27/2020 10:10      57.1      56.0       33     28.2      0.00     13.93      56.9     0.50      1019.5     1.7     NNW   328   5.2     WNW     287     265       383       0.9       4.9      46.3      9.59
   03/27/2020 10:00      55.9      54.5       35     28.3      0.00     13.93      57.1     0.50      1019.5     1.1     NNW   331   3.3      NW     310     265       364       0.6       4.7      46.2      9.59
   03/27/2020 09:50      54.7      54.3       37     28.6      0.00     13.93      57.2     0.50      1019.5     3.3       W   279   7.3      SW     223     266       348       2.0       4.7      45.8      9.59
   03/27/2020 09:40      54.5      53.8       37     28.3      0.00     13.93      57.1     0.50      1019.4     2.1     WNW   298   5.0     WSW     237     266       330       1.4       4.3      45.3      9.60
   03/27/2020 09:30      54.3      53.3       36     27.6      0.00     13.93      57.2     0.50      1019.4     1.5     WSW   250   4.2       W     279     266       309       0.8       4.1      45.0      9.60
   03/27/2020 09:20      53.7      53.2       38     28.7      0.00     13.93      57.3     0.50      1019.3     1.9       W   270   3.6       W     279     266       289       1.1       4.0      44.7      9.60
   03/27/2020 09:10      53.9      52.4       38     28.4      0.00     13.93      57.3     0.50      1019.3     1.2     SSW   209   4.2     SSW     200     267       268       0.8       3.8      44.5      9.60
   03/27/2020 09:00      52.4      51.8       41     29.1      0.00     13.93      57.2     0.50      1019.3     2.1      SW   229   3.5     WSW     247     268       246       1.4       3.6      44.2      9.60
   03/27/2020 08:50      52.6      51.7       40     28.5      0.00     13.93      57.2     0.50      1019.1     1.4     SSW   205   3.6      SW     217     269       221       0.8       3.4      44.0      9.60
   03/27/2020 08:40      51.9      50.8       41     28.4      0.00     13.93      57.3     0.50      1019.0     1.4      SW   224   2.7     WSW     245     269       194       1.0       3.3      43.7      9.60
   03/27/2020 08:30      51.9      50.7       45     30.9      0.00     13.93      57.3     0.50      1018.9     1.5       S   189   3.0      SW     231     270       165       1.0       3.1      43.6      9.60
   03/27/2020 08:20      51.7      50.5       47     31.4      0.00     13.93      57.4     0.50      1018.8     0.2      NE    46   1.2      SE     126     270       132       0.0       2.9      43.5      9.60
   03/27/2020 08:10      50.9      49.8       47     30.9      0.00     13.93      57.5     0.50      1018.7     1.0       S   175   3.0     SSW     196     270       102       0.5       2.9      43.5      9.61
   03/27/2020 08:00      50.3      48.3       50     31.2      0.00     13.93      57.9     0.50      1018.6     0.4      SW   234   1.8       W     259     270        70       0.0       2.9      43.9      9.61
   03/27/2020 07:50      48.4      46.8       52     30.6      0.00     13.93      57.9     0.50      1018.4     1.0      SW   230   3.0     WSW     239     270        40       0.2       2.9      43.9      9.61
   03/27/2020 07:40      46.8      45.5       53     29.9      0.00     13.93      57.9     0.50      1018.3     1.5     SSW   208   2.4     SSW     208     270         9       0.5       2.8      43.9      9.61
   03/27/2020 07:30      45.6      44.4       54     29.6      0.00     13.93      58.0     0.50      1018.2     1.9      SW   218   4.4      SW     215     270       -18       1.0       2.7      43.9      9.61
   03/27/2020 07:20      46.1      44.6       54     29.7      0.00     13.93      58.0     0.50      1018.0     2.2      SW   232   5.0     WSW     241     271       -38       0.7       2.6      44.0      9.61
   03/27/2020 07:10      46.1      44.6       52     28.8      0.00     13.93      58.0     0.50      1017.8     1.6     NNW   331   4.4      NW     322     270       -56       0.3       2.4      44.2      9.61
   03/27/2020 07:00      45.2      44.5       53     28.9      0.00     13.93      58.6     0.50      1017.7     1.2       N   349   3.1      NW     317     271       -63       0.3       2.4      44.5      9.61
   03/27/2020 06:50      44.7      42.0       57     29.0      0.00     13.93      58.4     0.50      1017.7     1.5     NNW   346   4.1      NE      51     271       -64       0.3       2.3      44.6      9.62
   03/27/2020 06:40      43.2      42.0       60     29.8      0.00     13.93      58.8     0.50      1017.6     1.7     SSW   202   5.5       S     188     271       -67       0.8       2.3      44.8      9.62
   03/27/2020 06:30      43.1      42.4       60     29.8      0.00     13.93      58.9     0.50      1017.4     1.8     WSW   250   4.1      SW     226     271       -67       0.7       2.2      44.9      9.62
   03/27/2020 06:20      43.4      39.0       65     29.9      0.00     13.93      58.9     0.50      1017.3     2.0       S   190   5.1     SSW     208     271       -66       0.9       2.0      45.0      9.62
   03/27/2020 06:10      40.1      39.3       70     30.7      0.00     13.93      58.9     0.50      1017.2     1.1     SSE   147   2.5      SE     143     272       -67       0.4       1.9      45.3      9.62
   03/27/2020 06:00      41.7      40.3       65     30.1      0.00     13.93      58.4     0.50      1017.2     1.2     SSE   157   3.1     SSW     195     271       -67       0.5       1.8      45.1      9.62
   03/27/2020 05:50      43.1      41.7       60     29.3      0.00     13.93      58.6     0.50      1017.1     1.6     SSW   192   3.6     SSW     193     271       -67       0.7       1.7      45.3      9.62
   03/27/2020 05:40      44.1      43.0       56     29.1      0.00     13.93      58.6     0.50      1017.0     0.9      SE   144   2.9      SW     215     271       -68       0.4       1.6      45.5      9.62
   03/27/2020 05:30      44.3      43.6       55     28.9      0.00     13.93      58.6     0.50      1016.9     2.0      SW   228   4.6     WSW     255     271       -69       0.7       1.6      45.6      9.62
   03/27/2020 05:20      44.1      40.9       57     28.8      0.00     13.93      58.6     0.50      1016.9     1.3       W   280   3.5     WNW     289     271       -70       0.2       1.5      45.6      9.63
   03/27/2020 05:10      40.8      37.7       72     30.5      0.00     13.93      58.6     0.50      1016.9     1.5     WSW   247   3.2       S     189     272       -67       0.6       1.4      45.9      9.63
   03/27/2020 05:00      38.0      37.4       77     31.2      0.00     13.93      58.6     0.50      1016.9     1.1       S   183   2.6       S     180     273       -68       0.7       1.3      46.2      9.63
   03/27/2020 04:50      37.7      37.5       78     31.3      0.00     13.93      58.7     0.50      1016.8     0.7       S   173   2.0     SSW     214     275       -69       0.4       1.2      46.5      9.63
   03/27/2020 04:40      38.2      37.6       78     31.4      0.00     13.93      58.7     0.50      1016.7     0.5     SSE   158   1.7      SE     144     275       -70       0.2       1.1      46.7      9.63
   03/27/2020 04:30      38.4      38.0       78     31.8      0.00     13.93      58.6     0.50      1016.6     0.4       S   184   2.1      SW     218     275       -71       0.2       1.1      46.9      9.63
   03/27/2020 04:20      38.5      38.0       78     32.1      0.00     13.93      58.3     0.50      1016.5     0.8      SE   136   1.8     NNE      15     277       -72       0.5       1.1      46.9      9.63
   03/27/2020 04:10      38.6      38.2       79     32.4      0.00     13.93      58.8     0.50      1016.5     1.0      SE   143   2.1     SSE     151     278       -71       0.2       1.0      47.2      9.63
   03/27/2020 04:00      38.9      38.2       79     32.6      0.00     13.93      59.3     0.50      1016.4     0.9      SE   140   1.8      SE     140     279       -71       0.2       1.0      47.8      9.63
   03/27/2020 03:50      39.4      38.8       78     32.9      0.00     13.93      59.3     0.50      1016.5     0.6     SSE   149   1.6     ESE     115     278       -72       0.2       0.9      48.0      9.64
   03/27/2020 03:40      39.3      38.8       79     33.2      0.00     13.93      59.2     0.50      1016.6     0.8       S   171   1.8     SSE     148     280       -71       0.4       0.9      48.3      9.64
   03/27/2020 03:30      39.3      38.8       81     33.6      0.00     13.93      59.3     0.50      1016.5     0.8     ESE   119   2.7     WSW     251     281       -71       0.3       0.8      48.4      9.64
   03/27/2020 03:20      39.8      38.8       79     33.3      0.00     13.93      59.4     0.50      1016.5     0.7     SSE   153   2.1       S     175     281       -71       0.3       0.8      48.7      9.64
   03/27/2020 03:10      40.3      39.8       76     33.3      0.00     13.93      59.6     0.50      1016.6     0.4      SE   135   1.8     SSW     192     281       -71       0.2       0.7      49.0      9.64
   03/27/2020 03:00      40.5      40.3       76     33.4      0.00     13.93      58.7     0.50      1016.6     0.6       S   179   2.0       S     176     282       -62       0.3       0.7      48.5      9.64
   03/27/2020 02:50      40.5      39.8       78     33.8      0.00     13.93      58.7     0.50      1016.6     0.8     SSW   194   2.1     SSW     203     285       -56       0.3       0.6      48.8      9.64
   03/27/2020 02:40      40.4      39.9       78     33.7      0.00     13.93      58.8     0.50      1016.6     0.4     ESE   111   1.6     SSE     153     288       -61       0.0       0.6      49.0      9.64
   03/27/2020 02:30      40.5      39.9       79     34.1      0.00     13.93      58.8     0.50      1016.6     1.3     SSE   165   2.6     SSE     161     292       -60       0.4       0.6      49.2      9.64
   03/27/2020 02:20      40.3      39.9       81     34.7      0.00     13.93      58.8     0.50      1016.7     1.0      SE   142   1.9      SE     144     295       -58       0.2       0.5      49.4      9.64
   03/27/2020 02:10      40.2      39.8       82     34.8      0.00     13.93      58.8     0.50      1016.7     0.9     SSE   150   1.8      SE     133     296       -58       0.0       0.5      49.6      9.64
   03/27/2020 02:00      40.3      39.8       83     35.2      0.00     13.93      59.3     0.50      1016.7     1.2     SSE   156   2.3     SSE     147     293       -58       0.3       0.5      50.5      9.65
   03/27/2020 01:50      40.4      39.8       82     35.3      0.00     13.93      59.4     0.50      1016.6     0.7     SSE   153   1.7     SSE     149     293       -59       0.1       0.4      50.7      9.65
   03/27/2020 01:40      40.5      40.0       84     35.6      0.00     13.93      59.1     0.50      1016.6     0.8       S   173   2.2       S     170     290       -61       0.2       0.4      50.7      9.65
   03/27/2020 01:30      40.7      40.1       84     36.0      0.00     13.93      59.0     0.50      1016.6     0.7       S   172   1.9       S     181     289       -62       0.3       0.4      50.8      9.65
   03/27/2020 01:20      40.9      40.5       85     36.5      0.00     13.93      59.0     0.50      1016.6     0.3       S   175   1.0       S     183     287       -62       0.2       0.3      51.1      9.65
   03/27/2020 01:10      41.2      40.7       85     36.6      0.00     13.93      59.1     0.50      1016.6     0.4      SE   145   1.4     SSE     167     284       -65       0.2       0.3      51.4      9.65
   03/27/2020 01:00      41.5      41.0       84     36.7      0.00     13.93      59.4     0.50      1016.6     0.5     SSE   158   1.5       S     173     277       -67       0.0       0.2      51.7      9.65
   03/27/2020 00:50      42.5      41.3       82     36.6      0.00     13.93      59.5     0.50      1016.6     0.6     SSE   157   1.9       S     190     273       -70       0.2       0.2      52.0      9.65
   03/27/2020 00:40      42.9      42.3       82     37.2      0.00     13.93      59.4     0.50      1016.5     1.0     SSW   206   2.2     SSW     202     271       -70       0.6       0.2      52.4      9.65
   03/27/2020 00:30      43.1      42.6       81     37.3      0.00     13.93      59.3     0.50      1016.5     0.6     SSE   153   2.6       S     187     270       -71       0.4       0.1      52.6      9.65
   03/27/2020 00:20      43.4      42.9       81     37.7      0.00     13.93      59.3     0.50      1016.5     0.5     SSE   147   1.4      SE     129     270       -72       0.0       0.0      52.9      9.66
   03/27/2020 00:10      43.3      42.7       81     37.5      0.00     13.93      59.4     0.50      1016.4     1.0       S   180   2.0     SSW     200     271       -71       0.2       0.0      53.2      9.66
   03/27/2020 00:00      43.7      43.2       80     37.8      0.00     13.93      59.0     0.50      1016.5     0.7     SSE   168   1.4       S     177     271       -67       0.3      33.1      52.9      9.66
   03/26/2020 23:50      44.2      43.3       79     37.7      0.00     13.93      58.9     0.50      1016.5     0.7       S   181   1.7     SSW     197     271       -69       0.3      33.0      53.1      9.66
   03/26/2020 23:40      44.7      44.0       77     37.9      0.00     13.93      59.0     0.50      1016.5     0.8     SSE   160   1.6     SSW     198     271       -67       0.2      33.0      53.4      9.66
   03/26/2020 23:30      44.7      44.1       78     38.0      0.00     13.93      59.0     0.50      1016.6     1.2       S   181   2.5      SE     141     272       -57       0.3      33.0      53.6      9.66
   03/26/2020 23:20      44.4      44.1       77     37.7      0.00     13.93      59.0     0.50      1016.6     0.6     SSE   151   2.6      SE     141     271       -45       0.0      32.9      53.7      9.66
   03/26/2020 23:10      44.4      44.0       77     37.5      0.00     13.93      59.0     0.50      1016.6     0.5     SSE   166   1.3     SSE     159     271       -40       0.2      32.9      53.8      9.66
   03/26/2020 23:00      44.3      43.9       77     37.3      0.00     13.93      59.3     0.50      1016.6     0.3     SSE   161   0.9       S     173     271       -41       0.0      32.9      54.3      9.66
   03/26/2020 22:50      44.1      43.5       78     37.3      0.00     13.93      59.3     0.51      1016.7     0.2       S   184   1.0       S     174     271       -36       0.0      32.9      54.5      9.66
   03/26/2020 22:40      43.8      43.3       78     37.2      0.00     13.93      59.6     0.51      1016.6     0.0     ESE   108   0.5       E      86     271       -46       0.0      32.9      54.8      9.66
   03/26/2020 22:30      43.8      43.2       77     36.9      0.00     13.93      59.5     0.51      1016.5     0.4     SSE   162   0.9     SSE     150     271       -55       0.1      32.9      55.0      9.66
   03/26/2020 22:20      43.8      43.4       77     36.9      0.00     13.93      59.6     0.50      1016.5     0.6     SSE   164   1.3     SSE     157     271       -59       0.0      32.8      55.3      9.66
   03/26/2020 22:10      44.2      43.7       76     36.7      0.00     13.93      59.5     0.51      1016.5     0.4     SSE   161   1.1     SSE     167     271       -71       0.2      32.8      55.5      9.67
   03/26/2020 22:00      44.4      43.7       75     36.6      0.00     13.93      59.9     0.50      1016.4     1.1     SSW   197   1.9     SSW     208     271       -71       0.3      32.8      55.9      9.67
   03/26/2020 21:50      44.6      44.0       73     36.3      0.00     13.93      59.8     0.51      1016.3     0.7     SSE   161   2.5     SSW     203     271       -70       0.2      32.8      56.2      9.67
   03/26/2020 21:40      45.1      44.5       72     36.4      0.00     13.93      59.8     0.51      1016.2     0.9     SSW   205   2.6      SW     217     271       -64       0.4      32.7      56.5      9.67
   03/26/2020 21:30      45.6      45.0       70     36.0      0.00     13.93      59.8     0.51      1016.1     0.9     SSE   163   3.0     SSW     206     271       -65       0.3      32.6      56.7      9.67
   03/26/2020 21:20      45.4      44.9       69     35.7      0.00     13.93      59.8     0.51      1016.0     1.7     SSW   208   3.4     SSW     205     271       -66       0.8      32.6      57.0      9.67
   03/26/2020 21:10      45.7      45.0       68     35.5      0.00     13.93      59.8     0.51      1015.9     0.2       S   179   0.8      SW     217     270       -75       0.0      32.5      57.3      9.67
   03/26/2020 21:00      47.1      45.7       64     35.2      0.00     13.93      58.9     0.51      1015.7     0.6      SE   129   1.1      SE     137     270       -75       0.0      32.5      56.8      9.67
   03/26/2020 20:50      48.1      46.9       62     35.1      0.00     13.93      58.9     0.51      1015.6     0.7     ENE    75   1.6     ENE      77     269       -76       0.3      32.5      57.1      9.67
   03/26/2020 20:40      48.1      47.8       60     34.8      0.00     13.93      58.9     0.51      1015.5     1.7     SSW   201   5.4      SW     221     269       -75       1.0      32.4      57.4      9.68
   03/26/2020 20:30      48.0      47.8       60     34.7      0.00     13.93      58.8     0.51      1015.4     3.3     SSW   201   5.5     SSW     195     269       -70       1.8      32.3      57.8      9.68
   03/26/2020 20:20      48.1      47.8       59     34.1      0.00     13.93      58.8     0.51      1015.5     2.1     SSW   209   3.2     WSW     245     269       -69       1.1      32.0      58.0      9.68
   03/26/2020 20:10      48.2      47.8       57     33.5      0.00     13.93      58.8     0.51      1015.5     2.2      SW   218   3.6      SW     224     268       -75       1.0      31.8      58.3      9.68
   03/26/2020 20:00      48.5      48.1       55     32.7      0.00     13.93      59.3     0.51      1015.4     1.8      SW   218   3.4      SW     215     268       -79       0.8      31.6      59.1      9.68
   03/26/2020 19:50      49.0      48.3       53     32.4      0.00     13.93      59.2     0.51      1015.4     2.4      SW   219   5.0      SW     215     268       -82       1.3      31.5      59.5      9.69
   03/26/2020 19:40      49.4      48.9       52     32.4      0.00     13.93      59.2     0.51      1015.4     3.9      SW   231   7.5      SW     215     268       -82       2.1      31.3      59.8      9.69
   03/26/2020 19:30      49.7      49.2       52     32.6      0.00     13.93      59.1     0.51      1015.4     4.4     WSW   236   7.7      SW     215     268       -82       2.5      30.9      60.3      9.69
   03/26/2020 19:20      50.0      49.5       52     32.8      0.00     13.93      59.0     0.51      1015.3     4.6     WSW   242   8.0      SW     217     268       -81       2.8      30.5      60.7      9.70
   03/26/2020 19:10      50.6      49.8       52     33.1      0.00     13.93      59.0     0.51      1015.2     6.4     WSW   238   9.6     WSW     238     268       -79       3.8      30.0      61.2      9.70
   03/26/2020 19:00      51.7      50.3       50     32.9      0.00     13.93      59.5     0.51      1015.1     6.3      SW   236  12.1     WSW     259     268       -76       3.7      29.4      62.5      9.70
   03/26/2020 18:50      53.7      51.7       48     33.3      0.00     13.93      59.4     0.51      1014.9     4.7     WSW   238  10.6      SW     230     268       -59       2.8      28.8      63.2      9.71
   03/26/2020 18:40      54.1      53.5       47     34.1      0.00     13.93      59.4     0.51      1014.8     2.1     WNW   287   5.4       W     275     267       -46       0.9      28.3      63.7      9.71
   03/26/2020 18:30      54.1      53.6       47     34.2      0.00     13.93      59.3     0.50      1014.8     1.7     WNW   282   4.6      SW     231     267       -22       1.2      28.2      64.0      9.71
   03/26/2020 18:20      53.9      53.6       47     34.2      0.00     13.93      59.3     0.51      1014.8     2.4     WNW   301   5.2       W     279     267         3       1.4      28.0      64.1      9.71
   03/26/2020 18:10      54.0      53.5       47     34.0      0.00     13.93      59.2     0.50      1014.8     2.2      NW   308   5.5      NW     325     267         5       1.3      27.7      64.3      9.72
   03/26/2020 18:00      54.2      53.6       46     33.7      0.00     13.93      58.4     0.50      1014.8     2.4      NW   313   7.7     WNW     301     267        39       1.0      27.5      64.0      9.72
   03/26/2020 17:50      53.8      53.5       47     33.9      0.00     13.93      58.3     0.50      1014.8     3.1      NW   311   8.5       W     276     267        61       1.4      27.4      64.2      9.72
   03/26/2020 17:40      54.8      53.7       48     35.1      0.00     13.93      58.3     0.50      1014.7     6.1     WSW   252  11.5     WSW     244     267        70       3.6      27.1      64.6      9.72
   03/26/2020 17:30      54.6      54.1       45     33.6      0.00     13.93      58.2     0.50      1014.7     8.5     WSW   243  14.3      SW     217     267       163       5.2      26.5      64.7      9.73
   03/26/2020 17:20      54.5      54.0       45     33.5      0.00     13.93      58.1     0.50      1014.7     9.0      SW   234  14.5     WSW     254     267       179       5.4      25.6      65.0      9.73
   03/26/2020 17:10      55.4      54.0       45     33.7      0.00     13.93      58.0     0.50      1014.8    10.6      SW   235  15.2     SSW     212     267       190       6.3      24.7      65.3      9.74
   03/26/2020 17:00      55.8      55.3       46     35.2      0.00     13.93      58.3     0.50      1014.7     7.3       W   260  11.8      SW     230     267       211       4.3      23.7      65.2      9.74
   03/26/2020 16:50      56.3      55.5       42     33.1      0.00     13.93      58.1     0.50      1014.7     7.7     WSW   238  16.5      SW     231     266       232       4.6      23.0      65.5      9.75
   03/26/2020 16:40      56.9      55.5       41     32.9      0.00     13.93      58.0     0.50      1014.7     7.6      SW   228  14.9      SW     233     266       304       4.6      22.3      65.5      9.75
   03/26/2020 16:30      56.6      56.1       40     32.1      0.00     13.93      58.0     0.50      1014.7     8.2     WSW   252  16.0      SW     233     266       345       5.1      21.5      65.5      9.75
   03/26/2020 16:20      56.4      55.5       40     32.3      0.00     13.93      57.9     0.50      1014.7     6.7       W   260  13.5       W     264     266       277       4.2      20.6      65.4      9.76
   03/26/2020 16:10      57.1      56.4       40     32.6      0.00     13.93      57.8     0.50      1014.8     7.0     WSW   250  11.2      SW     235     266       292       4.2      19.9      65.4      9.76
   03/26/2020 16:00      56.5      55.9       41     32.8      0.00     13.93      57.6     0.50      1014.6     6.1       W   270  10.6     WSW     247     266       255       4.0      19.2      65.2      9.77
   03/26/2020 15:50      57.2      56.5       40     32.9      0.00     13.93      57.3     0.50      1014.6     7.2     WSW   257  13.5      SW     232     266       329       4.3      18.6      65.2      9.77
   03/26/2020 15:40      58.1      56.6       39     32.4      0.00     13.93      57.3     0.50      1014.6     7.6     WSW   248  13.0      SW     217     266       364       4.6      17.9      64.9      9.78
   03/26/2020 15:30      58.1      57.2       37     31.8      0.00     13.93      57.6     0.50      1014.7     6.0       W   271  11.5       W     261     266       435       3.4      17.1      65.0      9.78
   03/26/2020 15:20      57.9      56.6       37     30.9      0.00     13.93      57.5     0.50      1014.8     7.2      SW   236  14.7      SW     229     266       440       4.4      16.5      64.8      9.78
   03/26/2020 15:10      58.7      57.3       34     30.1      0.00     13.93      57.5     0.50      1014.8     7.2      SW   215  13.7     SSW     205     266       452       4.6      15.8      64.6      9.79
   03/26/2020 15:00      58.3      57.3       35     30.1      0.00     13.93      56.6     0.50      1014.8     5.0     WSW   255   9.0       W     268     266       469       3.1      15.1      63.6      9.79
   03/26/2020 14:50      58.4      57.5       34     29.3      0.00     13.93      56.6     0.50      1015.0     7.1     WSW   248  12.9     WSW     254     266       484       4.4      14.6      63.2      9.80
   03/26/2020 14:40      58.3      57.6       31     27.8      0.00     13.93      56.5     0.50      1014.9     6.5     SSW   213  10.2     SSW     203     266       496       4.1      13.8      62.8      9.80
   03/26/2020 14:30      59.6      58.1       30     27.8      0.00     13.93      56.4     0.50      1015.1     4.7     WSW   256   9.4     SSW     204     265       502       2.9      13.2      62.3      9.81
   03/26/2020 14:20      58.7      57.6       30     27.3      0.00     13.93      56.4     0.50      1015.2     4.8     WSW   251   8.9      SW     234     266       514       3.0      12.7      61.8      9.81
   03/26/2020 14:10      58.7      57.5       29     25.8      0.00     13.93      56.2     0.50      1015.3     6.4     WSW   247  10.3       W     272     266       525       3.7      12.2      61.2      9.81
   03/26/2020 14:00      59.0      58.2       28     26.1      0.00     13.93      56.9     0.50      1015.4     5.1       W   274   8.2     WNW     283     265       532       2.9      11.6      61.1      9.82
   03/26/2020 13:50      58.8      57.3       28     24.7      0.00     13.93      56.9     0.50      1015.5     4.6     WSW   250   9.8      SW     223     266       541       2.8      11.1      60.5      9.82
   03/26/2020 13:40      58.2      57.1       28     24.7      0.00     13.93      56.7     0.50      1015.6     6.2     WSW   255  10.5     WSW     258     265       548       3.7      10.6      60.0      9.83
   03/26/2020 13:30      58.7      58.0       27     24.3      0.00     13.93      56.7     0.50      1015.7     4.8      SW   234   8.8      SW     220     266       552       3.0      10.0      59.6      9.84
   03/26/2020 13:20      58.7      57.5       28     25.0      0.00     13.93      56.7     0.50      1015.8     4.9      SW   233   9.8      SW     223     265       557       3.2       9.5      59.0      9.84
   03/26/2020 13:10      58.1      57.0       27     24.2      0.00     13.93      56.7     0.50      1016.0     5.0       W   265   9.5      SW     219     265       558       3.0       9.0      58.3      9.85
   03/26/2020 13:00      59.4      57.8       29     26.4      0.00     13.93      57.5     0.50      1016.1     4.5      SW   228  10.4     WSW     245     266       557       3.1       8.5      58.3      9.85
   03/26/2020 12:50      58.9      56.5       31     27.7      0.00     13.93      57.4     0.50      1016.2     2.0       W   267   5.5     WSW     243     265       556       1.4       8.0      57.6      9.86
   03/26/2020 12:40      57.3      56.6       31     26.4      0.00     13.93      57.4     0.50      1016.3     4.2     WSW   252   8.7     SSW     211     266       559       2.6       7.7      56.9      9.86
   03/26/2020 12:30      57.1      56.5       33     27.9      0.00     13.93      57.3     0.50      1016.3     4.3     SSW   210   8.3     SSW     213     266       562       2.7       7.3      56.3      9.87
   03/26/2020 12:20      57.1      56.1       35     29.4      0.00     13.93      57.3     0.50      1016.5     4.3     SSW   210   8.7       S     183     266       573       2.6       6.8      55.6      9.88
   03/26/2020 12:10      57.3      56.0       37     30.6      0.00     13.93      57.3     0.50      1016.6     3.3      SW   225   6.0     WSW     251     266       577       2.3       6.4      54.9      9.89
   03/26/2020 11:00      57.8      56.4       37     31.0      0.00     13.93      56.6     0.50      1016.7     3.0     SSW   207   7.6     SSW     202     266       550       2.0       6.0      53.6      9.89
   03/26/2020 11:00      56.3      54.6       38     30.5      0.00     13.93      56.9     0.50      1017.2     2.3     SSW   196   7.6      SW     227     266       466       1.6       4.2      49.8      9.93
   03/26/2020 10:50      56.7      55.7       38     31.3      0.00     13.93      56.6     0.50      1016.8     3.2     WSW   248   8.3       S     191     265       534       2.2       5.7      53.0      9.90
   03/26/2020 10:50      56.2      54.5       38     30.3      0.00     13.93      57.0     0.50      1017.3     1.1      NW   323   2.9     NNW     329     266       449       0.4       3.9      49.2      9.94
   03/26/2020 10:40      56.7      55.2       38     30.5      0.00     13.93      56.6     0.50      1016.9     2.6     WSW   250   8.2     WSW     246     266       524       1.7       5.3      52.4      9.91
   03/26/2020 10:40      54.6      53.6       40     30.1      0.00     13.93      57.0     0.50      1017.4     2.1       W   264   4.4     SSW     210     266       437       1.2       3.9      48.7      9.95
   03/26/2020 10:30      55.9      55.0       38     30.3      0.00     13.93      56.6     0.50      1017.0     2.7     WSW   252   6.7       S     177     266       510       1.9       5.1      51.7      9.91
   03/26/2020 10:30      54.2      52.9       40     29.6      0.00     13.93      57.0     0.50      1017.4     1.7       W   271   4.4      SW     228     266       420       1.3       3.7      48.1      9.96
   03/26/2020 10:20      55.4      54.5       39     30.7      0.00     13.93      56.7     0.50      1017.0     2.4     WSW   253   5.3      SW     222     266       494       1.6       4.7      51.1      9.92
   03/26/2020 10:20      54.0      52.9       39     29.0      0.00     13.93      57.0     0.50      1017.4     3.0       W   267   5.4       W     265     266       403       1.8       3.4      47.8      9.96
   03/26/2020 10:10      55.0      54.6       39     30.7      0.00     13.93      56.6     0.50      1017.0     2.3      SE   143   4.1     SSE     162     266       485       1.9       4.5      50.6      9.93
   03/26/2020 10:10      53.6      52.7       38     27.9      0.00     13.93      57.1     0.50      1017.3     1.1      SW   223   3.7     SSW     214     266       385       0.8       3.1      47.4      9.97
   03/26/2020 10:00      53.9      52.7       40     29.8      0.00     13.93      56.9     0.50      1017.3     1.9     WNW   286   5.8       W     280     266       366       1.1       3.0      46.5      9.98
   03/26/2020 09:50      52.7      52.0       44     31.1      0.00     13.93      56.9     0.50      1017.2     1.3     WSW   252   3.2     SSW     201     266       348       0.7       2.8      45.7      9.99
   03/26/2020 09:40      53.0      51.7       44     30.9      0.00     13.93      57.1     0.50      1017.3     1.2     WSW   242   3.5     WSW     252     275       331       0.7       2.7      44.8     10.01
   03/26/2020 09:30      51.9      51.0       48     32.6      0.00     13.93      57.1     0.50      1017.3     0.8      NW   321   2.3      NW     316     292       310       0.3       2.6      44.4      9.37
   03/26/2020 09:20      51.5      50.8       51     33.6      0.00     13.93      57.1     0.50      1017.4     1.1     WNW   294   2.7     NNE      19     304       290       0.6       2.5      44.0      9.37
   03/26/2020 09:10      51.3      50.2       54     34.4      0.00     13.93      57.2     0.50      1017.5     0.8       W   273   2.0       W     274     311       268       0.3       2.4      43.7      9.37
   03/26/2020 09:00      50.6      49.9       57     35.7      0.00     13.93      57.4     0.50      1017.4     1.0     WNW   288   2.7       W     270     319       242       0.3       2.4      43.6      9.37
   03/26/2020 08:50      50.8      48.6       62     37.1      0.00     13.93      57.5     0.50      1017.4     0.3     NNE    17   1.1       N       0     357       217       0.0       2.3      43.4      9.37
   03/26/2020 08:40      48.9      47.6       65     37.2      0.00     13.93      57.4     0.50      1017.4     0.4     NNE    25   1.2      NE      40     376       214       0.0       2.3      43.1      9.37
   03/26/2020 08:30      47.6      46.0       69     37.1      0.00     13.93      57.7     0.50      1017.3     0.3     NNW   346   1.8     NNE      26     393       205       0.0       2.3      43.2      9.37
   03/26/2020 08:20      46.1      44.5       72     36.9      0.00     13.93      58.1     0.50      1017.2     0.2     ENE    67   0.8     ESE     123     403       179       0.0       2.3      43.4      9.37
   03/26/2020 08:10      44.5      43.6       77     37.2      0.00     13.93      58.1     0.50      1017.2     0.4     ESE   120   1.2     ESE     123     413       157       0.0       2.3      43.4      9.37
   03/26/2020 08:00      43.5      42.2       83     38.1      0.00     13.93      57.7     0.50      1017.2     0.3     NNE    17   1.3     NNE      18     432       130       0.0       2.3      43.0      9.37
   03/26/2020 07:50      42.2      41.2       87     38.0      0.00     13.93      57.8     0.50      1017.2     0.0     NNE    26   0.5     NNE      23     440        97       0.0       2.3      43.1      9.37
   03/26/2020 07:40      41.4      39.8       90     37.8      0.00     13.93      57.8     0.50      1017.2     0.0       N     0   0.0     ENE      66     439        57       0.0       2.3      43.1      9.37
   03/26/2020 07:30      39.8      36.8       92     36.1      0.00     13.93      57.9     0.50      1017.0     0.0       N     0   0.0     SSE     155     436        21       0.0       2.3      43.1      9.37
   03/26/2020 07:20      36.9      36.6       92     34.5      0.00     13.93      58.0     0.50      1016.8     1.1      SE   142   2.2      SE     141     429         4       0.0       2.3      43.2      9.37
   03/26/2020 07:10      36.7      35.9       92     34.2      0.00     13.93      58.0     0.50      1016.8     1.1      SW   224   1.9     WSW     242     421       -13       0.0       2.3      43.3      9.37
   03/26/2020 07:00      36.2      35.7       92     33.7      0.00     13.93      58.0     0.50      1016.7     0.4       S   184   1.1     SSW     206     423       -17       0.0       2.3      43.6      9.37
   03/26/2020 06:50      36.6      36.0       92     34.1      0.00     13.93      58.0     0.50      1016.7     0.1       S   176   1.0       S     176     428       -22       0.0       2.3      43.7      9.37
   03/26/2020 06:40      36.5      36.1       92     34.1      0.00     13.93      58.1     0.50      1016.6     0.0       N     0   0.0       S     176     424       -24       0.0       2.3      44.0      9.37
   03/26/2020 06:30      36.2      35.7       91     33.7      0.00     13.93      58.1     0.50      1016.5     0.3       S   185   1.4       S     176     417       -25       0.0       2.3      44.1      9.37
   03/26/2020 06:20      37.0      36.1       91     34.3      0.00     13.93      58.2     0.50      1016.4     0.0      SE   144   0.8      SE     140     409       -25       0.0       2.3      44.3      9.37
   03/26/2020 06:10      36.9      36.5       91     34.4      0.00     13.93      58.2     0.50      1016.4     0.3       S   184   2.3       S     191     408       -25       0.1       2.3      44.5      9.37
   03/26/2020 06:00      37.0      36.4       91     34.2      0.00     13.93      59.0     0.50      1016.4     0.1     SSE   147   0.8     SSE     149     405       -26       0.0       2.3      45.1      9.37
   03/26/2020 05:50      37.2      37.0       91     34.7      0.00     13.93      59.0     0.50      1016.4     0.3     SSE   150   1.3     SSE     153     398       -26       0.0       2.3      45.3      9.37
   03/26/2020 05:40      37.2      36.6       91     34.4      0.00     13.93      59.0     0.50      1016.4     0.2       S   180   0.7     SSE     152     394       -27       0.0       2.3      45.5      9.37
   03/26/2020 05:30      37.5      36.5       90     34.3      0.00     13.93      59.1     0.50      1016.4     0.6      SE   137   1.7      SE     140     388       -27       0.0       2.3      45.7      9.37
   03/26/2020 05:20      37.5      37.0       90     34.6      0.00     13.93      59.2     0.50      1016.4     1.3       S   189   3.1     SSW     203     381       -28       0.4       2.3      45.9      9.37
   03/26/2020 05:10      37.5      37.0       90     34.6      0.00     13.93      59.1     0.50      1016.4     0.4      SE   146   1.2      SE     141     372       -29       0.0       2.2      46.0      9.37
   03/26/2020 05:00      37.6      37.3       90     34.7      0.00     13.93      58.6     0.50      1016.3     1.1       S   176   2.1     SSW     196     363       -30       0.2       2.2      45.9      9.37
   03/26/2020 04:50      37.9      37.5       89     34.8      0.00     13.93      58.5     0.50      1016.4     0.4     SSE   166   0.9     SSE     168     355       -31       0.0       2.2      46.1      9.37
   03/26/2020 04:40      38.2      37.5       89     34.9      0.00     13.93      58.5     0.50      1016.4     0.0      SE   139   0.9      SE     135     349       -32       0.0       2.1      46.3      9.37
   03/26/2020 04:30      38.6      37.6       89     35.2      0.00     13.93      58.6     0.50      1016.3     1.7     SSW   203   2.9     SSW     209     342       -32       0.3       2.1      46.5      9.37
   03/26/2020 04:20      38.3      38.0       89     35.1      0.00     13.93      58.6     0.50      1016.3     0.3     SSW   197   1.6     SSW     210     336       -36       0.0       2.1      46.7      9.37
   03/26/2020 04:10      38.7      38.0       88     35.1      0.00     13.93      58.8     0.50      1016.2     0.0       S   176   0.8       S     176     330       -38       0.0       2.1      47.0      9.37
   03/26/2020 04:00      38.9      38.5       88     35.5      0.00     13.93      58.7     0.51      1016.3     0.3     SSE   148   0.9     SSE     148     325       -39       0.0       2.1      47.1      9.37
   03/26/2020 03:50      38.8      38.4       88     35.3      0.00     13.93      58.9     0.50      1016.3     0.7     SSW   201   1.7       S     189     318       -40       0.1       2.1      47.3      9.37
   03/26/2020 03:40      39.3      38.5       87     35.5      0.00     13.93      58.8     0.51      1016.4     0.0     SSE   160   0.4     SSE     160     314       -44       0.0       2.1      47.5      9.37
   03/26/2020 03:30      39.3      38.9       87     35.6      0.00     13.93      58.9     0.51      1016.4     0.2      SE   134   1.4      SE     141     310       -46       0.0       2.1      47.7      9.37
   03/26/2020 03:20      39.6      39.0       87     35.9      0.00     13.93      58.9     0.51      1016.4     0.8     SSE   156   1.8     SSW     198     305       -49       0.0       2.1      47.9      9.37
   03/26/2020 03:10      39.4      39.0       87     35.7      0.00     13.93      58.8     0.51      1016.4     0.8     SSE   165   2.0       S     174     300       -53       0.3       2.1      47.9      9.38
   03/26/2020 03:00      39.3      38.8       86     35.2      0.00     13.93      58.9     0.51      1016.4     0.9     SSE   165   1.7     SSE     163     296       -57       0.4       2.0      48.3      9.38
   03/26/2020 02:50      39.9      39.3       84     35.3      0.00     13.93      58.8     0.51      1016.5     0.6       S   172   1.3       S     175     291       -62       0.0       2.0      48.5      9.38
   03/26/2020 02:40      40.7      39.9       83     35.4      0.00     13.93      59.0     0.51      1016.6     0.6       S   170   1.3       S     175     286       -66       0.0       1.9      48.8      9.38
   03/26/2020 02:30      41.2      40.5       82     35.6      0.00     13.93      59.0     0.51      1016.6     0.8     SSW   198   2.2     WSW     239     281       -69       0.0       1.9      49.0      9.38
   03/26/2020 02:20      41.4      41.0       81     35.7      0.00     13.93      59.1     0.51      1016.7     0.4      SE   143   1.2     SSE     163     277       -70       0.2       1.9      49.2      9.38
   03/26/2020 02:10      42.1      41.3       78     35.4      0.00     13.93      59.1     0.51      1016.6     0.3     SSE   153   1.7     SSE     169     273       -71       0.0       1.9      49.4      9.38
   03/26/2020 02:00      42.0      41.1       78     35.2      0.00     13.93      59.4     0.51      1016.6     2.2     SSW   196   3.1     SSW     192     273       -70       0.8       1.9      50.1      9.38
   03/26/2020 01:50      42.3      41.7       78     35.7      0.00     13.93      59.4     0.51      1016.7     1.2       S   188   2.6     SSW     206     273       -71       0.2       1.7      50.4      9.38
   03/26/2020 01:40      43.5      42.1       75     35.2      0.00     13.93      59.4     0.51      1016.7     0.0     SSE   168   0.7       S     182     273       -73       0.0       1.7      50.6      9.38
   03/26/2020 01:30      44.8      43.5       71     35.4      0.00     13.93      59.4     0.51      1016.7     0.3     SSE   150   1.1      SE     140     273       -74       0.0       1.7      50.8      9.38
   03/26/2020 01:20      45.3      44.6       69     35.2      0.00     13.93      59.3     0.51      1016.7     1.6       S   185   3.4      SW     223     271       -74       0.6       1.7      50.9      9.38
   03/26/2020 01:10      46.1      45.3       67     35.3      0.00     13.93      59.3     0.51      1016.7     1.3     SSW   205   3.1     SSW     213     271       -75       0.6       1.6      51.1      9.38
   03/26/2020 01:00      46.6      46.2       65     35.4      0.00     13.93      58.9     0.51      1016.7     0.7     NNW   337   2.3       W     279     271       -77       0.0       1.5      50.9      9.38
   03/26/2020 00:50      46.7      46.4       64     35.2      0.00     13.93      59.0     0.51      1016.6     2.3     WSW   252   6.4       W     264     271       -77       1.0       1.5      51.1      9.38
   03/26/2020 00:40      46.7      46.4       64     35.2      0.00     13.93      59.1     0.51      1016.5     3.2      SW   231   6.8      SW     234     271       -78       1.5       1.3      51.4      9.38
   03/26/2020 00:30      46.8      46.5       64     35.3      0.00     13.93      59.3     0.51      1016.4     4.3     WSW   237   7.1     SSW     210     271       -78       2.2       1.1      51.8      9.38
   03/26/2020 00:20      46.9      46.5       64     35.3      0.00     13.93      59.4     0.51      1016.5     4.4      SW   235   7.0      SW     233     271       -78       2.4       0.7      52.1      9.38
   03/26/2020 00:10      47.1      46.6       64     35.3      0.00     13.93      59.3     0.51      1016.4     3.8      SW   234   6.2      SW     226     270       -79       1.7       0.3      52.3      9.38
   03/26/2020 00:00      47.5      47.0       63     35.2      0.00     13.93      59.2     0.51      1016.6     3.2     WSW   237   5.6     WSW     245     270       -78       1.6      33.9      52.4      9.38
   03/25/2020 23:50      47.6      47.3       62     35.2      0.00     13.93      59.3     0.51      1016.5     2.7     WSW   249   6.5     WSW     259     270       -78       1.1      33.6      52.6      9.39
   03/25/2020 23:40      48.1      47.4       61     35.1      0.00     13.93      59.3     0.51      1016.5     3.2      SW   235   8.4     WNW     298     270       -79       1.7      33.5      53.0      9.38
   03/25/2020 23:30      48.3      48.0       61     35.2      0.00     13.93      59.4     0.51      1016.6     5.3      SW   226   9.2     WSW     253     270       -79       2.8      33.2      53.3      9.39
   03/25/2020 23:20      48.6      48.1       62     35.8      0.00     13.93      59.5     0.51      1016.5     3.3      SW   219   5.6     WSW     240     270       -79       1.8      32.7      53.5      9.39
   03/25/2020 23:10      48.8      48.3       63     36.5      0.00     13.93      59.4     0.51      1016.5     3.5      SW   216   8.0     WSW     243     270       -78       1.9      32.4      53.8      9.39
   03/25/2020 23:00      49.4      48.7       63     37.0      0.00     13.93      59.3     0.51      1016.5     3.6      SW   216   8.4      SW     231     270       -77       2.1      32.1      54.1      9.39
   03/25/2020 22:50      49.7      49.2       63     37.4      0.00     13.93      59.4     0.51      1016.6     4.8      SW   230   9.2      SW     224     270       -72       2.5      31.8      54.4      9.39
   03/25/2020 22:40      50.0      49.5       63     37.7      0.00     13.93      59.5     0.51      1016.5     4.3      SW   231   9.2      SW     225     270       -67       2.2      31.3      54.7      9.39
   03/25/2020 22:30      50.1      49.7       63     37.7      0.00     13.93      59.5     0.51      1016.5     3.4      SW   231   6.4       W     267     270       -58       1.6      30.9      54.9      9.39
   03/25/2020 22:20      50.4      49.9       64     38.5      0.00     13.93      59.8     0.51      1016.5     3.6      SW   221   8.3     WSW     239     270       -62       1.8      30.7      55.4      9.39
   03/25/2020 22:10      50.5      50.1       64     38.7      0.00     13.93      59.8     0.51      1016.5     3.6      SW   215   7.0     SSW     198     270       -52       1.9      30.4      55.6      9.39
   03/25/2020 22:00      50.5      50.1       65     39.1      0.00     13.93      59.1     0.51      1016.4     3.1      SW   215   5.7     WSW     242     270       -53       1.6      30.1      55.3      9.39
   03/25/2020 21:50      50.5      50.1       67     39.6      0.00     13.93      59.1     0.51      1016.4     3.0     SSW   211   5.5     WSW     240     270       -47       1.5      29.8      55.5      9.39
   03/25/2020 21:40      50.5      50.1       67     39.7      0.00     13.93      59.1     0.51      1016.3     2.7     WSW   240   4.1     SSW     199     270       -48       1.2      29.6      55.6      9.39
   03/25/2020 21:30      50.5      50.2       67     39.6      0.00     13.93      59.1     0.51      1016.2     2.3      SW   219   4.5      SW     227     270       -49       1.0      29.4      55.9      9.39
   03/25/2020 21:20      50.8      50.2       66     39.5      0.00     13.93      59.1     0.51      1016.2     2.9      SW   225   4.8     WSW     253     270       -57       1.5      29.2      56.0      9.40
   03/25/2020 21:10      51.0      50.7       65     39.4      0.00     13.93      59.1     0.51      1016.2     3.4      SW   227   6.5     WSW     239     270       -49       1.8      28.9      56.3      9.40
   03/25/2020 21:00      51.0      50.8       64     39.3      0.00     13.93      59.5     0.51      1016.1     4.2      SW   236   8.6      SW     229     270       -44       2.2      28.6      56.8      9.40
   03/25/2020 20:50      51.1      50.7       64     39.2      0.00     13.93      59.5     0.51      1016.0     3.0     WSW   240   6.5     WNW     287     270       -39       1.4      28.3      57.0      9.40
   03/25/2020 20:40      51.2      50.9       63     38.9      0.00     13.93      59.5     0.51      1015.9     4.0     WSW   243   7.9     WSW     255     270       -37       2.1      28.0      57.2      9.40
   03/25/2020 20:30      51.1      50.9       63     38.9      0.00     13.93      59.5     0.51      1015.9     4.3      SW   227   7.6      SW     227     270       -42       2.3      27.7      57.4      9.40
   03/25/2020 20:20      51.3      51.0       63     39.1      0.00     13.93      59.5     0.51      1015.9     3.6      SW   224   6.6       W     271     270       -44       1.9      27.3      57.7      9.40
   03/25/2020 20:10      51.3      51.0       63     39.1      0.00     13.93      59.6     0.51      1015.9     4.4      SW   227   6.6     WSW     242     270       -39       2.3      27.0      58.0      9.40
   03/25/2020 20:00      51.5      51.1       62     38.8      0.00     13.93      59.2     0.51      1015.9     4.5     WSW   237   7.6      SW     229     270       -36       2.6      26.6      57.9      9.40
   03/25/2020 19:50      51.4      51.0       61     38.4      0.00     13.93      59.2     0.51      1015.8     5.2     WSW   243   8.3     WSW     240     270       -42       2.8      26.2      58.2      9.41
   03/25/2020 19:40      51.4      51.0       59     37.5      0.00     13.93      59.8     0.51      1015.8     4.9      SW   226   7.7     WSW     251     270       -62       2.6      25.7      59.0      9.41
   03/25/2020 19:30      52.0      51.3       56     36.5      0.00     13.93      59.8     0.51      1015.9     4.1      SW   224   7.0       W     267     269       -77       2.0      25.3      59.3      9.41
   03/25/2020 19:20      52.4      51.9       54     36.0      0.00     13.93      59.7     0.51      1015.9     5.6      SW   228   9.4     WSW     239     269       -78       3.0      25.0      59.7      9.41
   03/25/2020 19:10      52.9      52.2       53     36.1      0.00     13.93      59.8     0.51      1015.8     4.4      SW   232   8.3     WSW     249     269       -75       2.4      24.5      60.1      9.42
   03/25/2020 19:00      53.1      52.6       53     36.4      0.00     13.93      59.5     0.51      1015.8     6.8     WSW   239  11.3     WSW     248     269       -71       3.6      24.1      60.4      9.42
   03/25/2020 18:50      53.8      53.0       53     36.8      0.00     13.93      59.0     0.51      1015.7     8.0     WSW   237  15.8     WNW     289     269       -66       4.5      23.5      60.8      9.42
   03/25/2020 18:40      54.7      53.8       54     37.8      0.00     13.93      59.5     0.51      1015.5     6.4      SW   236  12.2      SW     223     269       -42       3.6      22.7      61.4      9.42
   03/25/2020 18:30      55.6      54.6       52     37.8      0.00     13.93      59.7     0.51      1015.5     6.2      SW   236  10.7      SW     222     269       -19       3.3      22.1      62.1      9.42
   03/25/2020 18:20      56.1      55.5       51     38.0      0.00     13.93      59.5     0.51      1015.5     6.2     WSW   256   9.3     WSW     253     269         6       3.4      21.6      62.1      9.43
   03/25/2020 18:10      56.6      56.0       50     38.0      0.00     13.93      59.5     0.51      1015.5     6.1     WSW   243  11.9      SW     228     268        42       3.4      21.0      62.4      9.43
   03/25/2020 18:00      57.2      56.1       48     37.5      0.00     13.93      58.8     0.51      1015.5     6.0     WSW   250   8.9     WNW     288     268        52       3.5      20.4      62.1      9.43
   03/25/2020 17:50      57.7      57.0       50     39.0      0.00     13.93      59.0     0.51      1015.5     5.6     WSW   253  10.1     WSW     238     268       110       3.4      19.9      62.5      9.43
   03/25/2020 17:40      57.9      56.8       52     40.0      0.00     13.93      59.1     0.51      1015.4     5.4     WSW   241  10.1      SW     234     269       125       2.9      19.3      62.6      9.43
   03/25/2020 17:30      57.9      56.9       53     40.3      0.00     13.93      59.1     0.51      1015.3     5.1     WSW   250   8.5       W     262     269       162       2.8      18.8      62.6      9.44
   03/25/2020 17:20      57.9      57.1       52     40.2      0.00     13.93      59.1     0.51      1015.3     6.2     WSW   237  10.4      SW     233     268       187       3.7      18.3      62.5      9.44
   03/25/2020 17:10      57.7      57.0       52     39.9      0.00     13.93      59.0     0.51      1015.4     6.6     SSW   214   9.0     SSW     194     269       167       3.7      17.7      62.4      9.44
   03/25/2020 17:00      58.2      57.5       51     39.8      0.00     13.93      59.3     0.51      1015.3     7.6      SW   216  12.7      SW     230     269       240       4.3      17.1      62.6      9.44
   03/25/2020 16:50      58.5      57.5       50     39.7      0.00     13.93      59.3     0.51      1015.3     6.2     WSW   238  10.3      SW     235     268       250       3.4      16.4      62.6      9.44
   03/25/2020 16:40      59.0      57.9       49     39.3      0.00     13.93      59.3     0.51      1015.4     6.8     WSW   239  13.2     WSW     257     268       245       3.7      15.8      62.6      9.44
   03/25/2020 16:30      59.0      57.9       49     39.5      0.00     13.93      59.2     0.51      1015.5     6.5      SW   219  11.9     WSW     240     269       229       3.8      15.2      62.5      9.45
   03/25/2020 16:20      58.6      58.1       51     40.2      0.00     13.93      59.2     0.51      1015.4     5.9      SW   236  11.1      SW     233     269       202       3.3      14.6      62.3      9.45
   03/25/2020 16:10      58.5      58.0       52     40.8      0.00     13.93      59.2     0.51      1015.5     4.3     WSW   238   8.0      SW     221     269       147       2.4      14.1      62.3      9.45
   03/25/2020 16:00      58.5      57.2       54     41.7      0.00     13.93      58.9     0.51      1015.6     4.7      SW   225  10.3       W     272     269       227       2.9      13.7      61.9      9.45
   03/25/2020 15:50      57.4      56.9       56     41.5      0.00     13.93      58.9     0.51      1015.7     5.4      SW   217   8.6      SW     221     283       255       3.1      13.2      61.7      9.45
   03/25/2020 15:40      57.1      56.0       64     44.4      0.00     13.93      58.9     0.51      1015.8     2.5       W   279   8.3     WNW     291     269       144       1.2      12.7      61.6      9.45
   03/25/2020 15:30      58.3      56.0       61     43.7      0.00     13.93      58.9     0.51      1016.0     4.6       W   271  11.0      SW     232     270        97       2.3      12.4      61.8      9.45
   03/25/2020 15:20      59.3      58.3       51     40.7      0.00     13.93      58.8     0.51      1015.9     4.4      SW   226  17.4     SSW     207     269        75       2.4      12.1      62.0      9.45
   03/25/2020 15:10      59.9      58.0       52     41.7      0.00     13.93      58.7     0.51      1016.0     1.6       S   173   3.8      SW     222     268       342       0.9      11.6      61.8      9.45
   03/25/2020 15:00      57.9      57.2       55     41.3      0.00     13.93      58.9     0.51      1016.1     2.5     SSW   209   5.1     SSW     210     269       113       1.2      11.5      61.7      9.45
   03/25/2020 14:50      57.4      57.0       54     40.9      0.00     13.93      58.9     0.51      1016.3     3.3      SW   218   5.6       S     183     269        62       1.8      11.3      61.9      9.45
   03/25/2020 14:40      57.7      57.3       55     41.3      0.00     13.93      58.9     0.51      1016.5     3.9     SSW   193   7.1     SSW     201     269        75       2.3      11.0      62.0      9.45
   03/25/2020 14:30      57.9      57.5       55     41.6      0.00     13.93      58.8     0.51      1016.6     2.3       S   171   4.8      SW     214     269       107       1.3      10.6      62.0      9.46
   03/25/2020 14:20      58.0      57.5       54     41.2      0.00     13.93      58.8     0.51      1016.8     3.9     SSW   205   8.7       S     187     269       240       2.2      10.4      61.9      9.46
   03/25/2020 14:10      57.7      56.9       56     41.7      0.00     13.93      58.8     0.51      1017.0     3.3      SW   219   7.0       S     188     269       164       1.8      10.0      61.7      9.46
   03/25/2020 14:00      57.5      57.0       57     41.9      0.00     13.93      58.2     0.51      1017.1     3.8     SSW   196   6.3     SSE     167     269        82       2.2       9.7      61.0      9.46
   03/25/2020 13:50      58.1      57.4       56     42.2      0.00     13.93      58.2     0.51      1017.2     2.8     SSE   160   5.5     SSW     194     269        88       1.4       9.3      60.9      9.46
   03/25/2020 13:40      58.2      57.4       56     42.4      0.00     13.93      58.2     0.51      1017.3     2.7     SSE   159   6.1     SSE     161     269       235       1.7       9.1      60.7      9.46
   03/25/2020 13:30      57.7      57.2       58     42.8      0.00     13.93      58.2     0.51      1017.5     3.9       S   169   6.8       S     179     269       275       2.5       8.8      60.5      9.46
   03/25/2020 13:20      57.7      57.2       59     43.3      0.00     13.93      58.2     0.51      1017.5     3.8     SSE   163   7.0     SSE     146     269       273       2.0       8.4      60.3      9.46
   03/25/2020 13:10      57.5      56.8       60     43.5      0.00     13.93      58.2     0.51      1017.8     4.5     SSE   148   9.8     SSE     148     270       253       2.0       8.1      60.0      9.46
   03/25/2020 13:00      57.7      56.8       60     43.8      0.00     13.93      58.3     0.51      1018.0     4.3       S   173   8.7       S     185     274       189       2.2       7.8      60.1      9.46
   03/25/2020 12:50      57.7      56.8       62     44.3      0.00     13.93      58.4     0.51      1018.1     4.7     SSE   160   9.2       S     186     296       312       2.4       7.4      59.8      9.46
   03/25/2020 12:40      57.0      56.5       63     44.2      0.00     13.93      58.3     0.51      1018.2     3.8       S   184   7.8       S     191     311       234       2.0       7.0      59.4      9.46
   03/25/2020 12:30      56.9      56.5       62     44.0      0.00     13.93      58.2     0.51      1018.3     2.7     SSE   159   6.2     ESE     122     321       243       1.7       6.7      59.2      9.46
   03/25/2020 12:20      56.6      55.3       67     45.2      0.00     13.93      58.3     0.51      1018.5     3.3     SSE   148   5.8     ESE     122     328       401       1.7       6.4      58.8      9.46
   03/25/2020 12:10      55.5      54.8       69     45.3      0.00     13.93      58.2     0.51      1018.6     3.2       S   169   5.4     SSW     204     363       258       1.5       6.1      58.3      9.46
   03/25/2020 12:00      55.8      54.9       68     45.1      0.00     13.93      58.6     0.51      1018.7     3.4     SSE   159   6.5      SE     144     332       117       1.8       5.8      58.6      9.46
   03/25/2020 11:50      57.5      55.7       63     43.8      0.00     13.93      58.6     0.51      1018.7     3.5     SSE   162   7.5      SE     133     278        65       1.7       5.5      58.6      9.46
   03/25/2020 11:40      58.2      57.5       55     41.8      0.00     13.93      58.6     0.51      1018.8     2.4     SSW   205   7.0     WSW     237     268        76       1.5       5.3      58.5      9.46
   03/25/2020 11:30      59.7      58.0       52     41.3      0.00     13.93      58.6     0.51      1018.8     3.4     SSW   199   6.0     WSW     249     268       193       2.1       5.0      58.4      9.46
   03/25/2020 11:20      60.4      59.0       52     42.2      0.00     13.93      58.6     0.51      1018.9     3.5     SSW   205   8.2       S     188     267       494       2.2       4.7      57.8      9.46
   03/25/2020 11:10      58.9      57.9       54     41.7      0.00     13.93      58.6     0.51      1019.0     3.0     SSW   210   6.3     SSW     208     267       663       1.8       4.3      57.0      9.46
   03/25/2020 11:00      59.4      57.5       53     41.3      0.00     13.93      58.4     0.51      1019.2     3.1      SW   221   6.6       S     191     268       390       1.7       4.0      56.1      9.46
   03/25/2020 10:50      59.5      57.3       53     41.5      0.00     13.93      58.4     0.51      1019.3     0.9     WNW   290   2.6     SSW     211     267       382       0.8       3.7      55.7      9.46
   03/25/2020 10:40      57.8      57.3       56     41.8      0.00     13.93      58.4     0.51      1019.3     2.6      SW   229   5.9       S     186     268       414       1.6       3.6      55.1      9.46
   03/25/2020 10:30      57.5      57.0       56     41.5      0.00     13.93      58.5     0.51      1019.4     1.4     ENE    62   3.6       S     183     268       372       1.0       3.3      54.6      9.46
   03/25/2020 10:20      57.4      56.0       57     41.5      0.00     13.93      58.5     0.51      1019.4     1.2     WNW   296   4.9       W     276     268       157       0.8       3.1      54.3      9.46
   03/25/2020 10:10      57.0      56.2       58     41.8      0.00     13.93      58.5     0.51      1019.5     1.9       W   264   5.1     WSW     246     267       381       1.0       3.0      53.8      9.47
   03/25/2020 10:00      56.5      55.6       59     42.0      0.00     13.93      58.8     0.51      1019.6     2.4     WSW   240   5.5      SW     220     268       405       1.6       2.9      53.6      9.46
   03/25/2020 09:50      56.4      55.2       59     41.7      0.00     13.93      58.8     0.51      1019.6     0.9       N     2   3.8     WSW     239     269       213       0.5       2.6      53.3      9.47
   03/25/2020 09:40      55.3      53.9       62     41.8      0.00     13.93      58.8     0.51      1019.6     2.8       S   180   6.1     SSW     203     268       389       1.7       2.5      53.0      9.47
   03/25/2020 09:30      54.5      53.6       64     41.9      0.00     13.93      58.9     0.51      1019.7     3.5     SSW   208   6.1     SSE     156     268       320       1.9       2.2      52.5      9.47
   03/25/2020 09:20      53.9      53.6       64     41.9      0.00     13.93      58.9     0.51      1019.8     3.4     SSW   210   5.8     SSW     212     270       242       1.9       1.9      52.2      9.47
   03/25/2020 09:10      54.0      53.5       65     42.2      0.00     13.93      59.0     0.51      1019.8     3.8      SW   230   6.6       W     273     270       307       2.0       1.6      51.9      9.47
   03/25/2020 09:00      53.7      52.7       66     42.0      0.00     13.93      58.4     0.51      1019.8     3.3      SW   227   6.3     SSW     200     270       251       1.8       1.2      51.2      9.47
   03/25/2020 08:50      53.4      52.7       68     42.6      0.00     13.93      58.4     0.51      1019.8     3.2     WSW   244   6.1     SSW     207     272       193       1.8       0.9      51.0      9.47
   03/25/2020 08:40      53.2      52.7       68     42.8      0.00     13.93      58.7     0.51      1019.7     2.0     WNW   287   4.8       W     277     272       174       0.9       0.6      51.1      9.47
   03/25/2020 08:30      53.0      52.2       71     43.5      0.00     13.93      58.9     0.51      1019.6     0.8     WNW   295   2.9     NNW     339     273       112       0.2       0.5      51.1      9.47
   03/25/2020 08:20      52.5      52.1       72     43.7      0.00     13.93      59.0     0.51      1019.6     1.0      SW   227   2.8     WSW     246     273        69       0.4       0.5      51.2      9.47
   03/25/2020 08:10      52.4      51.6       74     44.1      0.00     13.93      59.0     0.51      1019.5     1.1     NNE    21   2.7     ENE      73     280        93       0.4       0.4      51.0      9.47
   03/25/2020 08:00      51.8      49.7       79     44.8      0.00     13.93      59.2     0.51      1019.4     0.4     NNE    14   1.5     NNE      14     298        78       0.0       0.3      51.4      9.47
   03/25/2020 07:50      49.8      47.6       86     44.8      0.00     13.93      59.3     0.51      1019.4     0.4     ESE   103   1.2     NNE      23     307        51       0.0       0.3      51.4      9.47
   03/25/2020 07:40      47.5      45.6       89     43.6      0.00     13.93      58.8     0.51      1019.3     0.2     SSE   156   0.9       S     176     309        28       0.0       0.3      51.1      9.47
   03/25/2020 07:30      45.7      45.4       89     42.5      0.00     13.93      58.9     0.51      1019.2     0.3      SE   132   1.2      SE     140     306       -20       0.0       0.3      51.2      9.47
   03/25/2020 07:20      45.8      45.3       89     42.5      0.00     13.93      58.9     0.51      1019.2     0.7       S   186   1.7     SSW     194     301       -38       0.1       0.3      51.3      9.47
   03/25/2020 07:10      45.9      45.4       88     42.4      0.00     13.93      58.9     0.51      1019.1     0.6       S   178   1.2       S     169     295       -52       0.0       0.3      51.4      9.47
   03/25/2020 07:00      46.2      45.9       88     42.5      0.00     13.93      59.0     0.51      1019.2     0.5     SSE   155   0.9     SSE     151     290       -59       0.0       0.3      51.6      9.47
   03/25/2020 06:50      47.1      45.9       86     42.4      0.00     13.93      58.8     0.51      1019.1     0.4       S   170   1.1     SSE     165     283       -66       0.0       0.3      51.7      9.47
   03/25/2020 06:40      47.8      47.0       84     43.0      0.00     13.93      58.8     0.51      1019.2     0.5       S   181   1.1     SSW     198     275       -64       0.0       0.3      51.9      9.47
   03/25/2020 06:30      48.6      47.8       83     43.2      0.00     13.93      59.0     0.51      1019.1     0.3       S   189   0.9       S     185     274       -61       0.0       0.3      52.2      9.47
   03/25/2020 06:20      48.9      48.3       82     43.5      0.00     13.93      59.0     0.51      1019.0     0.5       S   176   1.2       S     177     273       -40       0.0       0.3      52.3      9.47
   03/25/2020 06:10      49.0      48.7       82     43.5      0.00     13.93      59.1     0.51      1018.9     0.6       S   187   1.2       S     187     273       -22       0.0       0.3      52.4      9.47
   03/25/2020 06:00      49.0      48.7       82     43.5      0.00     13.93      58.6     0.51      1018.9     0.2     WNW   291   1.2       W     278     273       -17       0.0       0.3      52.2      9.47
   03/25/2020 05:50      49.0      48.7       82     43.5      0.00     13.93      58.6     0.51      1018.9     0.1       W   259   0.6      SW     233     273       -14       0.0       0.3      52.2      9.47
   03/25/2020 05:40      49.1      48.7       82     43.5      0.00     13.93      58.7     0.51      1019.0     0.6      SW   221   1.6     WSW     242     273       -18       0.0       0.3      52.3      9.47
   03/25/2020 05:30      48.9      48.6       82     43.6      0.00     13.93      58.8     0.51      1019.0     1.1     WSW   245   2.2     WSW     240     273       -17       0.0       0.3      52.3      9.48
   03/25/2020 05:20      48.8      48.4       83     43.8      0.00     13.93      58.7     0.51      1018.9     1.0     WSW   244   2.4       W     273     273       -15       0.2       0.3      52.4      9.48
   03/25/2020 05:10      48.7      48.2       84     43.7      0.00     13.93      58.8     0.51      1018.9     0.1      SW   215   0.9     SSW     212     273       -16       0.0       0.3      52.4      9.48
   03/25/2020 05:00      48.3      47.9       84     43.4      0.00     13.93      59.2     0.51      1018.9     0.2     SSW   192   0.9     SSW     204     273       -15       0.0       0.3      52.8      9.48
   03/25/2020 04:50      48.3      48.0       84     43.6      0.00     13.93      59.3     0.51      1018.8     0.0       S   174   0.4       S     173     273       -22       0.0       0.3      52.9      9.48
   03/25/2020 04:40      48.2      47.8       85     43.6      0.00     13.93      59.4     0.51      1018.8     0.8     SSW   207   1.9     SSW     204     273       -19       0.0       0.3      52.9      9.48
   03/25/2020 04:30      48.0      47.5       86     44.0      0.00     13.93      59.4     0.51      1018.9     0.7      SW   218   1.6     SSW     210     273       -17       0.0       0.3      53.0      9.48
   03/25/2020 04:20      47.7      47.2       88     44.0      0.00     13.93      59.6     0.51      1018.8     0.9     WNW   286   1.6       W     275     273       -20       0.1       0.3      53.1      9.48
   03/25/2020 04:10      47.4      46.9       88     43.8      0.00     13.93      59.4     0.51      1018.8     0.3       W   268   1.8       W     280     274       -18       0.0       0.2      53.0      9.48
   03/25/2020 04:00      47.0      46.7       88     43.4      0.00     13.93      59.4     0.51      1018.9     0.2       S   181   1.0       S     177     274       -21       0.0       0.2      53.1      9.48
   03/25/2020 03:50      47.2      46.7       87     43.4      0.00     13.93      59.4     0.51      1018.9     0.4     SSE   167   1.1      SE     138     274       -38       0.0       0.2      53.2      9.48
   03/25/2020 03:40      47.3      46.9       87     43.4      0.00     13.93      59.5     0.51      1019.0     0.8     SSW   206   1.6     SSW     191     274       -36       0.0       0.2      53.4      9.48
   03/25/2020 03:30      47.3      47.0       86     43.3      0.00     13.93      59.5     0.51      1019.0     0.5     WSW   247   1.0     WSW     248     274       -44       0.0       0.2      53.5      9.48
   03/25/2020 03:20      47.3      46.9       85     43.0      0.00     13.93      59.5     0.51      1019.2     0.1      SE   139   0.8      SE     138     274       -36       0.0       0.2      53.6      9.48
   03/25/2020 03:10      47.7      47.1       84     43.0      0.00     13.93      59.4     0.51      1019.2     0.3       S   180   1.2     SSW     198     274       -45       0.0       0.2      53.8      9.48
   03/25/2020 03:00      48.1      47.5       84     43.3      0.00     13.93      59.8     0.51      1019.2     0.5       S   180   1.3     SSW     200     273       -48       0.0       0.2      54.1      9.48
   03/25/2020 02:50      48.1      47.8       84     43.2      0.00     13.93      59.6     0.51      1019.5     0.0     SSW   199   0.4     SSW     199     273       -36       0.0       0.2      54.0      9.48
   03/25/2020 02:40      48.4      48.0       83     43.3      0.00     13.93      59.6     0.51      1019.7     0.5       S   188   1.3       S     175     273       -35       0.0       0.2      54.1      9.48
   03/25/2020 02:30      48.9      48.3       82     43.4      0.00     13.93      59.6     0.51      1019.6     0.3       S   186   0.9     SSE     166     273       -35       0.0       0.2      54.3      9.48
   03/25/2020 02:20      49.4      48.8       81     43.4      0.00     13.93      59.5     0.51      1019.5     0.0       E    85   0.7       E      94     273       -39       0.0       0.2      54.4      9.48
   03/25/2020 02:10      49.4      49.1       81     43.5      0.00     13.93      59.5     0.51      1019.8     0.5     WNW   284   2.1       W     271     272       -27       0.0       0.2      54.4      9.48
   03/25/2020 02:00      49.4      49.1       81     43.7      0.00     13.93      59.5     0.51      1019.7     0.0     WNW   303   0.7     WNW     300     273       -24       0.0       0.2      54.5      9.49
   03/25/2020 01:50      49.3      48.8       82     43.9      0.00     13.93      59.6     0.51      1019.9     0.2     WNW   289   1.1       W     267     272       -23       0.0       0.2      54.5      9.48
   03/25/2020 01:40      48.9      48.5       83     44.0      0.00     13.93      59.5     0.51      1020.0     0.2     WSW   255   1.2     WNW     303     273       -24       0.0       0.2      54.6      9.49
   03/25/2020 01:30      48.7      48.4       83     43.6      0.00     13.93      60.0     0.51      1020.2     0.1       S   174   0.9       S     172     273       -23       0.0       0.2      54.9      9.49
   03/25/2020 01:20      48.6      48.2       84     43.6      0.00     13.93      60.1     0.51      1020.2     0.7       S   185   1.6     SSW     201     273       -24       0.0       0.2      55.3      9.49
   03/25/2020 01:10      48.4      47.9       84     43.6      0.00     13.93      60.3     0.51      1020.1     1.1     SSW   199   1.7     SSW     200     273       -23       0.1       0.2      55.4      9.49
   03/25/2020 01:00      48.2      47.8       84     43.3      0.00     13.93      59.7     0.51      1020.1     0.7       S   179   2.1     SSW     209     273       -25       0.4       0.2      55.0      9.49
   03/25/2020 00:50      48.0      47.6       84     43.1      0.00     13.93      60.0     0.51      1020.1     1.0       S   176   2.0     SSW     206     273       -28       0.0       0.1      55.3      9.49
   03/25/2020 00:40      48.0      47.8       83     42.9      0.00     13.93      60.0     0.51      1019.9     0.8       S   174   1.9       S     174     273       -41       0.4       0.1      55.4      9.49
   03/25/2020 00:30      48.1      47.7       83     43.0      0.00     13.93      59.9     0.51      1020.0     0.5     SSE   167   1.4       S     180     273       -34       0.0       0.0      55.5      9.49
   03/25/2020 00:20      48.0      47.7       83     42.9      0.00     13.93      60.0     0.51      1020.1     1.1       S   173   1.8       S     169     273       -37       0.2       0.0      55.7      9.49
   03/25/2020 00:10      48.1      47.7       82     42.7      0.00     13.93      60.0     0.51      1019.9     0.2     SSE   156   0.7      SE     135     273       -46       0.1       0.0      55.8      9.49
   03/25/2020 00:00      48.2      47.8       81     42.5      0.00     13.93      60.2     0.51      1020.2     0.7       S   173   2.3     SSW     200     273       -31       0.2      26.1      56.2      9.49
   03/24/2020 23:50      48.0      47.3       82     42.5      0.00     13.93      60.2     0.51      1020.2     1.5       S   180   2.4       S     185     273       -40       0.7      26.1      56.5      9.49
   03/24/2020 23:40      48.1      47.5       81     42.2      0.00     13.93      60.3     0.51      1020.2     1.1     SSE   159   2.4       S     181     273       -53       0.4      26.0      56.6      9.49
   03/24/2020 23:30      48.2      47.9       79     42.1      0.00     13.93      60.3     0.51      1020.4     0.9       S   186   1.9       S     184     273       -56       0.3      25.9      56.9      9.49
   03/24/2020 23:20      48.9      48.2       78     42.1      0.00     13.93      60.3     0.51      1020.6     0.8       S   173   2.0     SSW     196     272       -54       0.3      25.9      57.1      9.49
   03/24/2020 23:10      48.9      48.5       78     42.2      0.00     13.93      60.3     0.51      1020.6     0.6       S   185   1.6     SSW     212     272       -47       0.1      25.8      57.3      9.49
   03/24/2020 23:00      49.4      48.7       77     42.1      0.00     13.93      60.0     0.51      1020.8     0.9     SSE   160   2.4     SSW     201     272       -52       0.1      25.8      57.1      9.49
   03/24/2020 22:50      49.8      49.3       75     42.0      0.00     13.93      59.8     0.51      1020.9     1.7       S   183   2.3      SW     219     272       -58       0.6      25.8      57.3      9.49
   03/24/2020 22:40      50.0      49.6       75     42.1      0.00     13.93      59.8     0.51      1020.7     1.3     SSW   195   2.8       S     186     271       -65       0.3      25.7      57.4      9.49
   03/24/2020 22:30      50.1      49.8       75     42.2      0.00     13.93      59.8     0.51      1020.9     2.0     SSW   205   3.4      SW     223     271       -61       0.9      25.6      57.6      9.50
   03/24/2020 22:20      50.3      49.9       74     42.2      0.00     13.93      59.7     0.51      1020.7     1.1       S   186   3.7       W     260     271       -57       0.3      25.5      57.9      9.50
   03/24/2020 22:10      50.1      49.9       75     42.3      0.00     13.93      59.8     0.51      1020.9     2.3     SSW   194   4.4     SSW     203     271       -60       1.0      25.4      58.1      9.50
   03/24/2020 22:00      50.3      49.9       74     42.3      0.00     13.93      59.9     0.51      1020.6     1.7     SSW   194   3.7     SSW     210     271       -62       0.7      25.3      58.2      9.50
   03/24/2020 21:50      50.5      50.1       74     42.2      0.00     13.93      59.8     0.51      1020.7     2.2     SSW   195   3.8       S     173     270       -58       0.9      25.1      58.5      9.50
   03/24/2020 21:40      50.8      50.2       73     42.0      0.00     13.93      59.9     0.51      1020.8     2.0     SSW   200   4.1     SSW     206     270       -62       0.8      25.0      58.7      9.50
   03/24/2020 21:30      51.0      50.6       72     42.1      0.00     13.93      59.9     0.51      1020.7     2.5     SSW   212   5.7       S     174     270       -65       1.3      24.9      58.9      9.50
   03/24/2020 21:20      51.0      50.6       71     41.7      0.00     13.93      59.8     0.51      1020.6     2.9     SSW   204   5.9     SSW     198     270       -64       1.6      24.7      59.2      9.50
   03/24/2020 21:10      51.1      50.8       69     41.3      0.00     13.93      59.9     0.51      1020.6     2.1      SW   215   3.6     SSW     214     270       -66       0.9      24.4      59.4      9.50
   03/24/2020 21:00      51.5      51.0       68     40.9      0.00     13.93      59.8     0.51      1020.6     2.0     SSW   206   3.9       S     170     270       -65       0.8      24.3      59.4      9.51
   03/24/2020 20:50      51.9      51.4       66     40.8      0.00     13.93      59.8     0.51      1020.6     2.1     SSW   212   4.2     SSW     205     270       -68       0.9      24.1      59.8      9.51
   03/24/2020 20:40      52.1      51.7       66     40.8      0.00     13.93      59.7     0.51      1020.5     3.0      SW   231   5.9      SW     235     270       -53       1.5      24.0      60.0      9.51
   03/24/2020 20:30      52.1      51.8       67     41.2      0.00     13.93      59.7     0.51      1020.6     3.8     WSW   242   7.0      SW     214     270       -40       1.9      23.7      60.1      9.51
   03/24/2020 20:20      52.3      51.9       66     41.3      0.00     13.93      59.7     0.51      1020.5     3.6     WSW   237   6.9     WSW     242     270       -61       1.9      23.4      60.5      9.51
   03/24/2020 20:10      52.5      52.1       67     41.6      0.00     13.93      59.7     0.51      1020.3     3.1     WSW   239   5.6      SW     214     270       -72       1.5      23.1      60.9      9.51
   03/24/2020 20:00      52.9      52.3       67     41.8      0.00     13.93      59.6     0.52      1020.3     3.7     WSW   238   6.9     WSW     238     270       -69       1.9      22.8      61.9      9.52
   03/24/2020 19:50      53.2      52.7       66     41.9      0.00     13.93      59.6     0.51      1020.3     3.9     WSW   242   6.9     WNW     290     270       -76       2.1      22.5      62.2      9.52
   03/24/2020 19:40      53.8      53.1       64     41.7      0.00     13.93      59.5     0.51      1020.3     4.4      SW   235   7.0      SW     217     270       -76       2.4      22.1      62.6      9.52
   03/24/2020 19:30      54.2      53.6       63     41.4      0.00     13.93      59.4     0.51      1020.2     4.5      SW   235  10.0     WSW     256     270       -78       2.5      21.7      62.9      9.52
   03/24/2020 19:20      55.1      54.1       61     41.5      0.00     13.93      59.4     0.52      1020.1     6.1     WSW   239   9.5      SW     232     269       -78       3.4      21.3      63.5      9.52
   03/24/2020 19:10      55.8      54.9       61     42.3      0.00     13.93      59.4     0.51      1020.1     5.1     WSW   255   9.9     WSW     237     270       -74       2.7      20.8      63.8      9.53
   03/24/2020 19:00      56.2      55.8       61     42.8      0.00     13.93      59.8     0.51      1020.1     4.7       W   263   8.6     WNW     289     270       -57       2.6      20.3      64.9      9.53
   03/24/2020 18:50      56.6      56.0       61     42.8      0.00     13.93      59.8     0.51      1020.0     5.4     WSW   249  10.3       W     263     269       -45       2.7      19.9      65.3      9.53
   03/24/2020 18:40      57.0      56.5       60     42.9      0.00     13.93      59.7     0.51      1020.0     4.7     WSW   245   8.5     WSW     251     269       -42       2.5      19.4      65.8      9.53
   03/24/2020 18:30      58.1      56.9       59     43.2      0.00     13.93      59.7     0.51      1019.9     5.7     WSW   248   9.1      SW     222     269       -16       3.2      19.0      66.4      9.54
   03/24/2020 18:20      58.8      58.0       58     43.6      0.00     13.93      59.7     0.51      1019.8     5.2     WSW   246   9.2       W     271     269        46       3.0      18.5      66.8      9.54
   03/24/2020 18:10      59.5      58.6       57     43.8      0.00     13.93      59.6     0.51      1019.6     5.6     WSW   246   9.0      SW     232     268       106       3.2      18.0      67.0      9.54
   03/24/2020 18:00      60.0      59.4       56     44.1      0.00     13.93      58.8     0.51      1019.6     5.8     WSW   256  10.5     WSW     245     268       142       3.4      17.4      66.1      9.54
   03/24/2020 17:50      60.3      59.9       56     44.3      0.00     13.93      58.6     0.51      1019.5     6.1     WSW   247  10.4       W     271     268       179       3.3      16.9      66.2      9.54
   03/24/2020 17:40      60.5      59.5       56     44.5      0.00     13.93      58.7     0.51      1019.4     4.8     WSW   247   9.8     WSW     247     268       199       2.7      16.3      66.0      9.55
   03/24/2020 17:30      61.1      59.5       55     44.1      0.00     13.93      58.6     0.51      1019.1     5.9     WSW   251   9.9     WSW     247     269       171       3.3      15.9      66.1      9.55
   03/24/2020 17:20      60.8      59.5       56     44.0      0.00     13.93      58.5     0.51      1019.2     4.8     WSW   250   8.8     WSW     257     268       169       2.8      15.3      66.1      9.55
   03/24/2020 17:10      61.3      59.8       55     44.2      0.00     13.93      58.5     0.51      1019.0     5.1      SW   232   8.4     WNW     293     268        59       2.8      14.8      66.1      9.55
   03/24/2020 17:00      61.6      60.8       53     44.0      0.00     13.93      58.7     0.51      1019.1     5.0      SW   230   9.7      SW     226     268       315       3.0      14.4      66.2      9.56
   03/24/2020 16:50      61.9      61.2       53     44.2      0.00     13.93      58.7     0.51      1019.2     5.5     SSW   212   9.8     WSW     241     268       308       3.2      13.9      65.8      9.56
   03/24/2020 16:40      61.9      61.3       53     44.2      0.00     13.93      58.6     0.51      1019.2     5.2      SW   232   8.2      SW     227     268       319       2.9      13.3      65.5      9.56
   03/24/2020 16:30      62.1      61.0       53     44.4      0.00     13.93      58.6     0.51      1019.3     5.5     WSW   243   9.8     WSW     253     268       340       3.1      12.9      65.2      9.56
   03/24/2020 16:20      61.9      61.0       54     44.3      0.00     13.93      58.4     0.51      1019.4     4.4      SW   232   7.2     WSW     250     268       348       2.6      12.3      64.8      9.56
   03/24/2020 16:10      62.4      61.1       53     44.5      0.00     13.93      58.4     0.51      1019.5     5.9     WSW   237   9.3     WSW     253     268       407       3.5      11.9      64.4      9.56
   03/24/2020 16:00      62.9      61.4       53     45.0      0.00     13.93      59.0     0.51      1019.5     4.1       W   267   9.4       W     260     268       413       2.3      11.3      64.4      9.57
   03/24/2020 15:50      61.6      61.0       54     44.7      0.00     13.93      59.0     0.51      1019.8     5.8     WSW   243   9.5       W     265     269       449       3.3      11.0      64.0      9.57
   03/24/2020 15:40      61.7      61.1       54     44.7      0.00     13.93      59.0     0.51      1019.9     5.6      SW   232   8.8     SSW     212     269       424       3.2      10.4      63.7      9.57
   03/24/2020 15:30      62.3      61.5       54     45.1      0.00     13.93      59.0     0.51      1020.0     5.3     WSW   242   9.4      SW     223     268       463       3.1       9.9      63.3      9.57
   03/24/2020 15:20      61.6      60.6       55     44.9      0.00     13.93      58.9     0.51      1020.1     4.6     WSW   238   7.9     WNW     300     269       324       2.7       9.4      62.9      9.57
   03/24/2020 15:10      61.8      60.2       55     44.8      0.00     13.93      58.9     0.51      1020.3     6.1     WSW   240   9.9     WSW     258     268       466       3.4       8.9      62.5      9.57
   03/24/2020 15:00      62.4      60.2       54     44.4      0.00     13.93      58.0     0.51      1020.3     5.6     WSW   249  11.2      NW     314     268       145       3.0       8.4      61.5      9.57
   03/24/2020 14:50      62.5      61.5       52     44.2      0.00     13.93      58.1     0.51      1020.4     4.4       W   263   7.9     WSW     258     268       485       2.5       7.9      61.2      9.57
   03/24/2020 14:40      62.2      60.6       53     43.9      0.00     13.93      58.1     0.51      1020.5     2.0     WSW   259   6.2      SW     224     268       345       1.1       7.4      60.8      9.57
   03/24/2020 14:30      61.1      60.5       54     44.0      0.00     13.93      58.0     0.51      1020.7     3.8       S   189   8.3     SSW     204     268       285       2.2       7.3      60.5      9.57
   03/24/2020 14:20      60.8      60.0       54     43.7      0.00     13.93      58.1     0.51      1020.9     3.0     WSW   246   6.6     WNW     284     268       295       1.8       6.9      60.2      9.57
   03/24/2020 14:10      60.4      59.9       55     43.7      0.00     13.93      58.0     0.51      1021.1     3.6       W   270   8.2       W     277     268       225       1.8       6.6      60.0      9.58
   03/24/2020 14:00      61.0      60.1       54     43.9      0.00     13.93      58.1     0.51      1021.3     3.9     WSW   250   7.1     WNW     296     268       394       2.3       6.3      59.8      9.58
   03/24/2020 13:50      60.4      59.0       56     44.1      0.00     13.93      58.0     0.51      1021.4     3.6     WSW   244   6.4       W     267     268       407       2.0       5.9      59.3      9.58
   03/24/2020 13:40      59.3      58.6       59     44.6      0.00     13.93      58.2     0.51      1021.6     4.9     WSW   242   7.4     WSW     250     269       212       2.7       5.5      58.9      9.58
   03/24/2020 13:30      60.2      59.2       58     45.0      0.00     13.93      58.1     0.51      1021.7     4.8     WSW   255   9.3     WSW     247     269       226       2.7       5.1      58.7      9.58
   03/24/2020 13:20      59.9      59.3       57     44.6      0.00     13.93      58.1     0.51      1021.7     4.3     WSW   246   7.8     WNW     290     269       359       2.4       4.6      58.4      9.58
   03/24/2020 13:10      60.1      59.4       56     44.1      0.00     13.93      58.2     0.51      1021.8     4.5      SW   224   7.6      SW     229     268       266       2.5       4.2      58.0      9.58
   03/24/2020 13:00      59.9      58.3       60     45.1      0.00     13.93      57.6     0.51      1022.0     2.4      SW   223   4.8     SSW     194     269       335       1.3       3.8      57.1      9.58
   03/24/2020 12:50      58.3      57.8       62     45.2      0.00     13.93      57.5     0.51      1022.1     2.8       S   180   5.1      SE     126     270       156       1.4       3.6      56.7      9.58
   03/24/2020 12:40      58.6      58.0       62     45.5      0.00     13.93      57.5     0.51      1022.2     3.8     SSE   153   7.5      SE     135     270       166       1.9       3.4      56.6      9.58
   03/24/2020 12:30      58.6      58.0       63     45.8      0.00     13.93      57.5     0.51      1022.3     3.5     SSE   149   6.5      SE     136     270       199       1.8       3.1      56.4      9.58
   03/24/2020 12:20      58.7      57.5       64     46.1      0.00     13.93      57.5     0.51      1022.4     2.5      SE   133   7.2       S     169     270       281       1.4       2.8      56.1      9.58
   03/24/2020 12:10      57.6      56.9       68     46.6      0.00     13.93      57.5     0.51      1022.5     2.8      SE   126   6.3     ESE     110     270       200       1.7       2.5      55.6      9.58
   03/24/2020 12:00      56.9      56.4       69     46.5      0.00     13.93      58.0     0.51      1022.7     2.9     SSE   168   6.8     SSW     206     270       102       1.6       2.3      55.8      9.59
   03/24/2020 11:50      57.2      56.6       69     46.7      0.00     13.93      58.0     0.51      1022.7     2.4     SSE   164   6.9       S     183     270        46       1.3       2.0      55.7      9.59
   03/24/2020 11:40      57.4      56.8       68     46.6      0.00     13.93      57.9     0.51      1022.6     1.9     ESE   107   5.1      NE      51     270        91       0.7       1.8      55.7      9.59
   03/24/2020 11:30      58.0      57.1       68     47.3      0.00     13.93      57.9     0.51      1022.7     2.0     ENE    74   4.4     ENE      58     270       123       0.8       1.7      55.5      9.59
   03/24/2020 11:20      58.2      56.9       68     47.3      0.00     13.93      58.0     0.51      1022.6     1.4     ENE    77   4.2     ENE      67     270       246       0.6       1.5      55.3      9.59
   03/24/2020 11:10      57.1      56.2       70     47.1      0.00     13.93      57.9     0.51      1022.6     0.8     ESE   105   2.2      SE     143     270       177       0.5       1.4      54.9      9.59
   03/24/2020 11:00      56.4      56.0       71     46.8      0.00     13.93      58.6     0.51      1022.6     1.3      SE   132   3.7      SE     139     271       125       0.7       1.4      55.2      9.59
   03/24/2020 10:50      56.6      56.1       71     47.0      0.00     13.93      58.6     0.51      1022.5     0.8     ESE   112   2.1     SSW     195     272        86       0.3       1.2      55.0      9.59
   03/24/2020 10:40      56.6      55.9       71     47.0      0.00     13.93      58.2     0.51      1022.5     0.4     ENE    77   2.2     ENE      73     280        64       0.2       1.2      54.6      9.59
   03/24/2020 10:30      56.6      56.0       70     46.7      0.00     13.93      57.8     0.51      1022.6     0.9     ESE   108   2.7     ENE      75     287        91       0.5       1.2      54.3      9.59
   03/24/2020 10:20      56.8      56.3       70     47.0      0.00     13.93      57.7     0.51      1022.7     0.8     ENE    61   2.7       E      96     294       132       0.4       1.1      54.2      9.59
   03/24/2020 10:10      56.8      56.1       70     47.0      0.00     13.93      57.8     0.51      1022.7     1.3       E    95   2.6     ESE     117     301       195       0.7       1.0      53.9      9.59
   03/24/2020 10:00      56.6      55.9       71     47.0      0.00     13.93      57.6     0.51      1022.7     0.9     ENE    73   2.6     NNE      15     307       198       0.4       0.9      53.3      9.59
   03/24/2020 09:50      55.9      55.2       73     46.9      0.00     13.93      57.6     0.51      1022.8     1.0       N   353   3.0     NNE      18     313       186       0.2       0.8      52.9      9.59
   03/24/2020 09:40      55.5      54.6       74     46.9      0.00     13.93      57.7     0.51      1022.7     1.4     ENE    59   2.9       E      84     318       192       0.4       0.8      52.7      9.59
   03/24/2020 09:30      55.4      54.7       74     47.0      0.00     13.93      57.6     0.51      1022.7     1.2      SE   124   2.9     ESE     118     322       166       0.6       0.7      52.4      9.59
   03/24/2020 09:20      55.1      54.0       76     47.3      0.00     13.93      57.7     0.51      1022.7     0.3     ESE   110   1.2       E     101     324       156       0.1       0.6      52.2      9.59
   03/24/2020 09:10      54.2      53.8       78     47.2      0.00     13.93      57.6     0.51      1022.7     1.1       E   101   3.4       E      96     326       165       0.5       0.6      52.0      9.59
   03/24/2020 09:00      53.7      52.8       80     47.2      0.00     13.93      58.1     0.51      1022.6     0.6     ESE   107   2.1     ESE     102     327       160       0.4       0.5      52.2      9.59
   03/24/2020 08:50      53.0      52.5       81     47.0      0.00     13.93      58.0     0.51      1022.5     0.9     ESE   104   2.1       E     101     329       131       0.4       0.5      52.0      9.59
   03/24/2020 08:40      52.9      52.1       83     47.3      0.00     13.93      58.1     0.51      1022.5     0.5      SE   129   1.8      SE     132     332       134       0.2       0.4      51.8      9.59
   03/24/2020 08:30      52.1      51.4       85     47.5      0.00     13.93      58.1     0.51      1022.4     0.2     SSW   211   0.9      SW     233     348       111       0.0       0.4      51.7      9.59
   03/24/2020 08:20      51.6      50.7       88     47.5      0.00     13.93      58.1     0.51      1022.4     0.2     SSW   193   0.9       S     190     366        88       0.0       0.4      51.6      9.59
   03/24/2020 08:10      50.9      50.5       90     47.8      0.00     13.93      58.2     0.51      1022.2     0.1      SE   137   0.7     SSE     151     380        72       0.0       0.3      51.4      9.59
   03/24/2020 08:00      50.8      50.1       91     47.8      0.00     13.93      58.8     0.51      1022.1     0.0       N     0   0.0     WNW     292     397        53       0.0       0.3      51.8      9.59
   03/24/2020 07:50      50.3      49.8       92     47.7      0.00     13.93      58.8     0.51      1022.0     0.0       N     0   0.0       S     182     412        44       0.0       0.3      51.7      9.59
   03/24/2020 07:40      49.9      49.2       92     47.3      0.00     13.93      58.8     0.51      1021.9     0.1      SE   143   0.8      SE     133     425        36       0.0       0.3      51.6      9.60
   03/24/2020 07:30      49.4      48.8       92     46.9      0.00     13.93      58.9     0.51      1021.9     1.3     SSW   195   2.6     SSW     202     437        21       0.4       0.3      51.5      9.60
   03/24/2020 07:20      49.1      48.8       92     46.7      0.00     13.93      59.0     0.51      1021.8     0.1     ESE   105   0.9     ESE     106     447         8       0.0       0.3      51.4      9.60
   03/24/2020 07:10      49.0      48.7       92     46.6      0.00     13.93      58.8     0.51      1021.8     0.0      SE   132   0.6      SE     132     452         2       0.0       0.3      51.3      9.60
   03/24/2020 07:00      48.9      48.6       92     46.6      0.00     13.93      57.8     0.51      1021.7     0.0     WNW   281   0.8      SE     132     457        -2       0.0       0.3      50.5      9.60
   03/24/2020 06:50      48.8      48.3       93     46.5      0.00     13.93      57.8     0.51      1021.7     0.0       N     0   0.0     SSW     203     459        -3       0.0       0.3      50.6      9.60
   03/24/2020 06:40      48.5      48.3       93     46.3      0.00     13.93      57.9     0.51      1021.6     0.0       N     0   0.0      SE     131     461        -4       0.0       0.3      50.6      9.60
   03/24/2020 06:30      48.5      48.3       93     46.3      0.00     13.93      57.9     0.51      1021.6     0.2      SE   130   0.8      SE     131     461        -4       0.0       0.3      50.6      9.60
   03/24/2020 06:20      48.5      48.1       93     46.3      0.00     13.93      58.0     0.51      1021.6     0.0      NW   304   0.5      NW     304     462        -5       0.0       0.3      50.6      9.60
   03/24/2020 06:10      48.3      48.0       93     46.2      0.00     13.93      57.9     0.51      1021.5     0.0     WNW   303   0.8      NW     304     465        -5       0.0       0.3      50.7      9.60
   03/24/2020 06:00      48.2      47.8       93     46.1      0.00     13.93      58.6     0.52      1021.5     0.2       S   186   1.2       W     262     466        -4       0.0       0.3      51.0      9.60
   03/24/2020 05:50      48.0      47.6       93     46.0      0.00     13.93      58.7     0.52      1021.5     0.6       W   273   1.6       W     271     468        -3       0.0       0.3      51.0      9.60
   03/24/2020 05:40      47.7      47.2       93     45.6      0.00     13.93      58.7     0.52      1021.5     1.3     SSE   160   2.0      SE     137     471        -3       0.1       0.3      51.1      9.60
   03/24/2020 05:30      47.6      47.2       93     45.6      0.00     13.93      58.8     0.52      1021.5     0.5      SE   144   1.3      SE     141     475        -6       0.0       0.3      51.1      9.60
   03/24/2020 05:20      47.7      47.3       94     45.7      0.00     13.93      58.8     0.52      1021.5     0.2     SSW   207   1.2     SSW     208     476       -12       0.0       0.3      51.1      9.60
   03/24/2020 05:10      47.5      47.1       94     45.6      0.00     13.93      58.8     0.52      1021.5     1.0     WSW   246   2.1      SW     214     476        -7       0.2       0.3      51.1      9.60
   03/24/2020 05:00      47.1      46.4       94     45.2      0.00     13.93      58.8     0.52      1021.4     0.0     SSW   205   0.5     SSW     205     479        -5       0.0       0.2      51.3      9.60
   03/24/2020 04:50      46.7      46.2       94     44.7      0.00     13.93      58.8     0.52      1021.4     0.0     SSE   163   0.8       S     176     480        -5       0.0       0.2      51.4      9.60
   03/24/2020 04:40      46.5      46.1       94     44.6      0.00     13.93      58.8     0.52      1021.5     0.1      SE   142   1.0      SE     141     481        -7       0.0       0.2      51.4      9.60
   03/24/2020 04:30      46.2      45.9       94     44.4      0.00     13.93      58.9     0.52      1021.5     0.2     SSE   157   1.2     SSE     151     481        -9       0.0       0.2      51.4      9.61
   03/24/2020 04:20      46.1      45.6       94     44.2      0.00     13.93      58.9     0.52      1021.5     0.4     SSE   153   1.6     SSE     151     481       -12       0.0       0.2      51.5      9.60
   03/24/2020 04:10      45.6      45.4       94     43.8      0.00     13.93      58.9     0.52      1021.6     1.0     SSE   147   2.5      SE     139     480       -13       0.0       0.2      51.5      9.60
   03/24/2020 04:00      45.7      45.0       94     43.8      0.00     13.93      59.3     0.52      1021.8     1.2     SSE   159   2.5      SW     219     477       -10       0.2       0.2      52.2      9.61
   03/24/2020 03:50      45.3      44.7       94     43.3      0.00     13.93      59.3     0.52      1021.8     1.5      SW   229   2.6      SW     234     478       -12       0.5       0.2      52.3      9.61
   03/24/2020 03:40      45.1      44.8       94     43.2      0.00     13.93      59.4     0.52      1021.8     0.0       N     0   0.0     ENE      75     478       -16       0.0       0.0      52.5      9.61
   03/24/2020 03:30      45.0      44.5       94     43.1      0.00     13.93      59.4     0.52      1022.0     0.0       E    94   0.7      SE     128     476       -17       0.0       0.0      52.6      9.61
   03/24/2020 03:20      44.8      44.2       93     42.7      0.00     13.93      59.4     0.52      1022.0     0.7      SE   140   1.6      SE     138     472       -20       0.0       0.0      52.8      9.61
   03/24/2020 03:10      45.3      44.5       93     43.0      0.00     13.93      59.4     0.52      1022.0     0.2     SSE   147   1.1      SE     143     468       -20       0.0       0.0      52.9      9.61
   03/24/2020 03:00      45.2      44.9       93     43.2      0.00     13.93      58.9     0.52      1022.1     0.0       N     0   0.0     SSE     161     463       -20       0.0       0.0      52.4      9.61
   03/24/2020 02:50      45.2      44.8       93     43.1      0.00     13.93      59.0     0.52      1022.2     0.0     SSE   164   0.5     SSE     167     461       -20       0.0       0.0      52.6      9.61
   03/24/2020 02:40      45.1      44.8       93     43.1      0.00     13.93      59.0     0.52      1022.3     0.4     SSE   147   1.2      SE     133     459       -22       0.0       0.0      52.8      9.61
   03/24/2020 02:30      45.6      45.0       93     43.3      0.00     13.93      59.0     0.52      1022.2     0.4     SSE   160   1.0       S     179     455       -23       0.0       0.0      53.0      9.61
   03/24/2020 02:20      45.6      45.1       93     43.3      0.00     13.93      59.0     0.52      1022.2     0.3     SSE   160   0.9     SSE     163     451       -24       0.0       0.0      53.2      9.61
   03/24/2020 02:10      45.8      45.5       93     43.6      0.00     13.93      59.3     0.52      1022.3     0.6     SSW   206   1.3     SSW     199     445       -24       0.0       0.0      53.6      9.62
   03/24/2020 02:00      46.3      45.6       92     43.8      0.00     13.93      59.0     0.52      1022.2     0.7       S   187   1.6       S     190     442       -24       0.0       0.0      53.3      9.62
   03/24/2020 01:50      46.1      45.4       92     43.6      0.00     13.93      59.2     0.52      1022.3     0.5     SSE   159   1.6      SE     140     437       -25       0.0       0.0      53.8      9.62
   03/24/2020 01:40      46.2      45.9       92     43.8      0.00     13.93      59.3     0.52      1022.3     0.1      NE    50   0.8     NNE      27     431       -25       0.0       0.0      54.0      9.62
   03/24/2020 01:30      46.4      45.9       92     43.8      0.00     13.93      59.3     0.52      1022.3     0.0     SSE   164   0.8     SSE     163     423       -26       0.0       0.0      54.1      9.62
   03/24/2020 01:20      46.5      46.2       92     44.0      0.00     13.93      59.3     0.52      1022.3     0.4       S   171   1.5       S     175     418       -26       0.0       0.0      54.4      9.62
   03/24/2020 01:10      46.6      46.4       91     44.1      0.00     13.93      59.3     0.52      1022.2     0.3     SSE   147   0.8      SE     141     423       -27       0.0       0.0      54.6      9.62
   03/24/2020 01:00      47.2      46.8       91     44.5      0.00     13.93      59.3     0.52      1022.2     1.5     SSW   206   2.2      SW     222     413       -27       0.0       0.0      54.6      9.62
   03/24/2020 00:50      47.7      47.0       91     44.8      0.00     13.93      59.3     0.52      1022.1     0.3     SSE   168   0.9       S     172     405       -29       0.0       0.0      54.8      9.62
   03/24/2020 00:40      48.0      47.5       90     45.1      0.00     13.93      59.4     0.52      1022.3     0.0       N     0   0.0     SSE     148     394       -31       0.0       0.0      55.1      9.62
   03/24/2020 00:30      48.5      47.8       90     45.5      0.00     13.93      59.4     0.52      1022.3     0.3     SSE   158   0.8     SSE     157     377       -32       0.0       0.0      55.2      9.62
   03/24/2020 00:20      48.6      48.1       90     45.5      0.00     13.93      59.4     0.52      1022.4     0.5     SSE   166   1.1      SE     146     357       -33       0.0       0.0      55.4      9.62
   03/24/2020 00:10      48.8      48.4       90     45.7      0.00     13.93      59.4     0.52      1022.4     0.8     SSE   166   1.4     SSE     164     344       -35       0.2       0.0      55.6      9.62
   03/24/2020 00:00      48.9      48.6       89     45.8      0.00     13.93      60.0     0.52      1022.4     1.1       S   173   1.8       S     174     333       -37       0.3      24.9      56.5      9.62
   03/23/2020 23:50      49.4      48.7       89     45.9      0.00     13.93      60.1     0.52      1022.4     1.2       S   176   1.8       S     184     324       -40       0.4      24.8      56.7      9.62
   03/23/2020 23:40      49.3      48.9       88     45.7      0.00     13.93      60.1     0.52      1022.5     0.9       S   170   1.8       S     170     315       -44       0.4      24.7      57.0      9.62
   03/23/2020 23:30      49.9      49.2       87     45.8      0.00     13.93      60.1     0.52      1022.5     1.1     SSE   167   1.8       S     172     308       -48       0.5      24.7      57.2      9.62
   03/23/2020 23:20      50.0      49.7       87     46.1      0.00     13.93      60.1     0.52      1022.4     0.9     SSE   167   2.1       S     183     301       -51       0.0      24.6      57.4      9.62
   03/23/2020 23:10      50.0      49.7       86     45.9      0.00     13.93      60.1     0.52      1022.4     1.6       S   180   2.8     SSW     199     294       -57       0.6      24.6      57.6      9.63
   03/23/2020 23:00      50.0      49.2       86     45.7      0.00     13.93      59.9     0.52      1022.4     1.3       S   185   2.1      SW     216     288       -63       0.1      24.5      57.5      9.63
   03/23/2020 22:50      49.8      49.3       85     45.1      0.00     13.93      60.4     0.52      1022.4     0.8       S   172   1.4     SSW     191     282       -66       0.0      24.5      58.1      9.63
   03/23/2020 22:40      50.6      49.8       82     44.9      0.00     13.93      60.5     0.52      1022.3     1.0       S   173   1.9     SSW     198     277       -68       0.4      24.5      58.3      9.63
   03/23/2020 22:30      51.8      50.5       79     44.9      0.00     13.93      60.4     0.52      1022.5     1.5       S   189   2.0       S     174     273       -68       0.8      24.4      58.6      9.63
   03/23/2020 22:20      52.2      51.6       77     45.0      0.00     13.93      60.4     0.52      1022.5     1.6     SSW   196   2.5     SSW     196     272       -69       0.9      24.3      58.9      9.63
   03/23/2020 22:10      52.7      52.0       75     44.8      0.00     13.93      60.5     0.52      1022.5     1.2     SSW   194   2.1      SW     217     272       -70       0.4      24.1      59.1      9.63
   03/23/2020 22:00      53.4      52.7       73     44.6      0.00     13.93      59.1     0.52      1022.5     1.9     SSW   193   3.2      SW     216     271       -72       0.8      24.1      58.5      9.63
   03/23/2020 21:50      53.8      53.3       71     44.5      0.00     13.93      59.1     0.52      1022.4     2.3      SW   220   4.6     SSW     208     270       -73       1.0      23.9      58.8      9.64
   03/23/2020 21:40      54.3      53.6       70     44.3      0.00     13.93      59.0     0.52      1022.3     2.9      SW   234   4.4     WSW     237     270       -71       1.4      23.8      59.0      9.64
   03/23/2020 21:30      54.3      54.0       69     44.2      0.00     13.93      59.1     0.52      1022.3     2.2      SW   227   4.1      SW     217     270       -47       1.0      23.5      59.2      9.64
   03/23/2020 21:20      54.8      54.1       68     44.3      0.00     13.93      59.1     0.52      1022.2     2.5     WSW   238   4.3     WSW     247     270       -33       1.3      23.4      59.5      9.64
   03/23/2020 21:10      54.7      54.5       67     44.0      0.00     13.93      59.2     0.52      1022.1     2.6     WSW   237   4.1      SW     235     270       -25       1.2      23.1      59.6      9.64
   03/23/2020 21:00      54.8      54.5       67     43.8      0.00     13.93      60.1     0.52      1022.1     2.7      SW   231   4.2      SW     224     270       -22       1.4      22.9      60.6      9.64
   03/23/2020 20:50      54.9      54.6       67     43.9      0.00     13.93      60.1     0.52      1022.0     2.9      SW   234   4.7     WSW     255     270       -22       1.5      22.7      60.8      9.64
   03/23/2020 20:40      54.9      54.7       67     43.9      0.00     13.93      60.1     0.52      1021.9     2.2     WSW   244   4.0       W     276     270       -23       1.1      22.5      60.9      9.65
   03/23/2020 20:30      55.0      54.8       67     44.2      0.00     13.93      59.8     0.52      1021.8     1.5     WSW   257   3.3     WSW     246     270       -24       0.4      22.3      60.7      9.65
   03/23/2020 20:20      55.1      54.8       66     44.0      0.00     13.93      59.9     0.52      1021.7     2.2     WSW   237   4.5     WSW     247     270       -26       1.1      22.2      60.9      9.65
   03/23/2020 20:10      55.2      54.7       67     44.2      0.00     13.93      59.8     0.52      1021.7     2.8     WSW   239   4.4       W     261     270       -35       1.4      22.0      61.1      9.65
   03/23/2020 20:00      55.3      55.0       67     44.3      0.00     13.93      58.6     0.52      1021.6     1.9     WSW   238   3.9     WSW     253     270       -34       0.8      21.8      60.7      9.65
   03/23/2020 19:50      55.5      55.0       67     44.4      0.00     13.93      58.6     0.52      1021.5     2.8     WSW   238   6.1      SW     223     270       -35       1.5      21.7      60.9      9.65
   03/23/2020 19:40      55.8      55.3       66     44.4      0.00     13.93      58.6     0.52      1021.4     3.9      SW   233   6.8      SW     234     270       -38       2.0      21.4      61.1      9.65
   03/23/2020 19:30      55.8      55.5       66     44.5      0.00     13.93      58.5     0.52      1021.3     3.5     WSW   244   5.9      SW     231     270       -35       1.8      21.1      61.3      9.65
   03/23/2020 19:20      56.2      55.6       66     44.6      0.00     13.93      58.6     0.52      1021.2     2.7       W   267   6.0      SW     215     270       -30       1.1      20.8      61.6      9.66
   03/23/2020 19:10      56.3      55.9       65     44.7      0.00     13.93      58.4     0.52      1021.2     3.5       W   279   9.5     WSW     258     270       -26       1.8      20.6      61.7      9.66
   03/23/2020 19:00      56.5      56.0       66     45.0      0.00     13.93      59.2     0.52      1021.2     3.1       W   266   4.9      NW     317     270       -25       1.8      20.3      62.5      9.66
   03/23/2020 18:50      56.8      56.3       65     45.0      0.00     13.93      59.2     0.52      1021.2     4.3     WSW   239   8.0      SW     234     270       -28       2.5      20.0      62.8      9.66
   03/23/2020 18:40      57.4      56.7       65     45.3      0.00     13.93      59.2     0.52      1021.1     4.6     WSW   239   7.5     WSW     251     270       -18       2.7      19.6      63.0      9.66
   03/23/2020 18:30      57.7      57.4       63     45.2      0.00     13.93      59.2     0.52      1021.1     3.4      SW   229   7.2     WSW     242     270         2       1.8      19.1      63.2      9.66
   03/23/2020 18:20      57.7      57.4       61     44.3      0.00     13.93      59.1     0.52      1021.0     3.4     SSW   203   6.1     SSW     212     270         6       1.8      18.8      63.3      9.66
   03/23/2020 18:10      57.8      57.4       62     44.6      0.00     13.93      59.1     0.52      1021.0     3.2     SSW   206   6.3     SSW     201     270         4       1.7      18.5      63.5      9.67
   03/23/2020 18:00      57.7      57.4       64     45.4      0.00     13.93      58.2     0.52      1020.9     2.9     SSW   192   4.8     SSE     168     270         2       1.6      18.3      63.1      9.67
   03/23/2020 17:50      57.9      57.5       64     45.5      0.00     13.93      58.2     0.52      1020.9     4.0       S   188   7.1       S     172     270         0       2.3      18.0      63.2      9.67
   03/23/2020 17:40      58.1      57.8       64     45.9      0.00     13.93      58.2     0.52      1020.7     3.8       S   174   7.4     SSE     154     270         2       2.3      17.6      63.6      9.67
   03/23/2020 17:30      58.4      58.0       65     46.4      0.00     13.93      58.1     0.52      1020.6     3.2     SSE   166   6.6      SE     144     270        13       1.6      17.2      63.9      9.67
   03/23/2020 17:20      59.0      58.3       64     46.4      0.00     13.93      58.0     0.52      1020.6     3.4     SSE   154   6.9      SE     128     270        30       1.5      17.0      64.1      9.68
   03/23/2020 17:10      59.4      58.7       62     46.1      0.00     13.93      58.1     0.52      1020.6     3.6     SSE   163   7.1      SE     140     270        54       2.0      16.7      64.3      9.68
   03/23/2020 17:00      59.4      59.0       60     45.3      0.00     13.93      59.0     0.52      1020.6     3.3       S   174   7.2      SW     224     269        64       1.6      16.4      65.3      9.68
   03/23/2020 16:50      59.3      58.8       60     45.0      0.00     13.93      59.0     0.52      1020.7     3.4     SSW   193   6.5       S     181     269        80       1.9      16.1      65.4      9.68
   03/23/2020 16:40      59.1      58.6       61     45.3      0.00     13.93      58.9     0.52      1020.7     3.6       S   185   8.2     SSW     193     269        61       1.9      15.8      65.4      9.68
   03/23/2020 16:30      59.1      58.7       60     45.2      0.00     13.93      58.9     0.52      1020.7     3.8       S   176   6.9       S     190     269        51       2.0      15.5      65.8      9.69
   03/23/2020 16:20      59.3      58.9       60     45.3      0.00     13.93      58.8     0.52      1020.5     3.8       S   181   6.1     SSW     192     269        68       2.1      15.2      66.0      9.69
   03/23/2020 16:10      59.4      59.1       60     45.5      0.00     13.93      58.8     0.52      1020.5     4.5       S   188   8.3      SW     217     269       106       2.7      14.8      66.2      9.69
   03/23/2020 16:00      59.5      59.1       60     45.3      0.00     13.93      57.7     0.52      1020.5     4.2       S   176   7.2      SE     140     269       143       2.5      14.4      65.3      9.69
   03/23/2020 15:50      60.0      59.0       58     44.5      0.00     13.93      57.7     0.52      1020.6     5.6     SSW   199  11.3      SW     230     269       168       3.2      14.0      65.5      9.69
   03/23/2020 15:40      59.8      59.4       58     44.9      0.00     13.93      57.6     0.52      1020.5     4.8     SSW   203   7.5     SSE     167     269       174       2.7      13.4      65.5      9.69
   03/23/2020 15:30      60.3      59.5       57     44.7      0.00     13.93      57.6     0.52      1020.5     5.7     SSW   211   9.6      SW     228     269       185       3.3      13.0      65.6      9.69
   03/23/2020 15:20      61.3      60.3       56     45.2      0.00     13.93      57.6     0.52      1020.4     5.4      SW   220  10.4     SSW     206     268       213       3.0      12.4      65.5      9.70
   03/23/2020 15:10      61.9      60.8       59     46.6      0.00     13.93      57.5     0.52      1020.5     5.6     SSW   210   9.9     SSW     201     268       364       3.2      11.9      65.1      9.70
   03/23/2020 15:00      61.9      60.6       60     47.1      0.00     13.93      58.1     0.52      1020.5     4.7     SSE   162   9.1     ESE     121     269       303       2.4      11.4      65.2      9.70
   03/23/2020 14:50      62.9      60.5       58     46.8      0.00     13.93      58.0     0.52      1020.5     6.1     SSE   168  10.3      SE     127     269       450       3.3      11.0      64.8      9.70
   03/23/2020 14:40      63.0      60.9       58     46.8      0.00     13.93      58.0     0.52      1020.7     4.0     SSW   197   9.9       S     190     268       631       2.5      10.4      64.3      9.70
   03/23/2020 14:30      61.4      60.9       59     46.6      0.00     13.93      58.0     0.52      1020.8     3.8       S   188   7.3      SW     216     269       244       2.1      10.0      64.1      9.70
   03/23/2020 14:20      61.3      59.9       60     46.4      0.00     13.93      58.1     0.52      1020.9     2.8     SSE   154   6.7     SSE     165     268       304       1.6       9.7      63.9      9.70
   03/23/2020 14:10      60.5      60.0       59     45.8      0.00     13.93      58.2     0.52      1020.9     3.4     SSE   167   6.2      SE     140     268       180       1.8       9.4      63.6      9.71
   03/23/2020 14:00      61.1      59.9       59     46.2      0.00     13.93      57.2     0.52      1020.9     4.6       S   186   8.7       S     189     268       254       2.7       9.2      62.5      9.71
   03/23/2020 13:50      61.4      60.7       59     46.5      0.00     13.93      57.2     0.52      1021.0     4.9     SSW   199   8.8       S     185     268       567       2.9       8.7      62.0      9.71
   03/23/2020 13:40      61.5      60.6       58     46.2      0.00     13.93      57.3     0.52      1021.0     4.1       S   185  11.0     SSW     206     268       598       2.5       8.2      61.5      9.71
   03/23/2020 13:30      61.0      60.5       55     44.7      0.00     13.93      57.2     0.52      1021.0     1.6     ENE    75   3.9     ENE      70     268       191       0.7       7.8      61.2      9.71
   03/23/2020 13:20      60.9      60.3       54     43.8      0.01     13.93      57.1     0.52      1021.1     1.4       W   275   3.1     WNW     283     268       118       0.8       7.7      61.0      9.71
   03/23/2020 13:10      60.7      60.0       54     43.6      0.00     13.92      57.2     0.52      1021.1     1.6       W   262   3.9     SSW     205     268       144       1.2       7.5      60.9      9.71
   03/23/2020 13:00      61.1      60.2       54     44.0      0.00     13.92      57.6     0.52      1021.3     2.6       S   178   5.8      SE     140     268       212       1.6       7.3      61.2      9.71
   03/23/2020 12:50      61.5      59.5       58     45.9      0.00     13.92      57.8     0.52      1021.3     2.8     SSE   167   5.3     SSE     158     268       561       1.5       7.1      61.1      9.72
   03/23/2020 12:40      59.7      57.8       62     45.8      0.00     13.92      57.9     0.52      1021.4     3.9       S   176   7.1       S     175     269       444       2.1       6.8      60.9      9.72
   03/23/2020 12:30      58.1      57.6       65     46.1      0.00     13.92      58.0     0.52      1021.5     4.7       S   185   7.9      SW     231     270       151       2.7       6.5      60.5      9.72
   03/23/2020 12:20      59.6      58.2       62     45.9      0.00     13.92      57.9     0.52      1021.5     4.0     SSW   204   8.2     WSW     237     269       101       2.3       6.0      60.4      9.72
   03/23/2020 12:10      59.8      59.5       54     43.1      0.00     13.92      57.9     0.52      1021.4     1.9       W   269   4.0       W     268     268       173       0.9       5.6      60.3      9.72
   03/23/2020 12:00      59.6      59.0       55     43.1      0.00     13.92      57.1     0.52      1021.2     2.1     WNW   290   4.2       W     263     269       161       1.2       5.5      59.0      9.72
   03/23/2020 11:50      60.0      59.4       53     42.6      0.00     13.92      57.1     0.52      1021.2     2.4       W   267   5.9       W     263     268       189       1.5       5.3      58.8      9.72
   03/23/2020 11:40      59.6      58.8       55     43.2      0.00     13.92      57.1     0.52      1021.1     3.4      SW   235   6.0      SW     223     268       314       2.0       5.0      58.4      9.72
   03/23/2020 11:30      60.9      59.4       55     44.1      0.00     13.92      57.1     0.52      1021.1     3.5      SW   229   8.3      SW     226     268       400       2.0       4.7      57.9      9.73
   03/23/2020 11:20      61.1      58.8       56     44.0      0.00     13.92      57.2     0.52      1021.1     1.4      SW   226   4.3     WSW     249     268       475       0.7       4.4      57.3      9.73
   03/23/2020 11:10      59.3      58.6       57     43.8      0.00     13.92      57.1     0.52      1021.1     2.4      SW   218   5.1       W     269     268       260       1.3       4.2      56.8      9.73
   03/23/2020 11:00      59.4      58.5       58     44.4      0.00     13.92      57.6     0.52      1021.1     2.6       W   262   6.4      SW     227     268       474       1.6       4.0      56.6      9.73
   03/23/2020 10:50      58.6      57.3       64     45.5      0.00     13.92      57.6     0.53      1021.1     2.7     WSW   250   5.6     WSW     256     269       349       1.5       3.8      56.0      9.73
   03/23/2020 10:40      58.3      57.6       62     45.2      0.00     13.92      57.6     0.53      1021.0     0.6       W   272   2.6     SSW     205     269       122       0.5       3.5      55.9      9.73
   03/23/2020 10:30      59.6      57.8       63     46.1      0.00     13.92      57.6     0.53      1021.0     2.1      SW   236   6.1     WSW     247     269       289       1.4       3.4      55.5      9.73
   03/23/2020 10:20      58.8      57.1       66     46.5      0.00     13.92      57.7     0.53      1021.0     2.2       W   271   6.3     WSW     244     268       519       1.2       3.2      54.9      9.73
   03/23/2020 10:10      57.5      56.8       68     46.7      0.00     13.92      57.7     0.53      1021.0     2.7      SW   229   5.1      SW     231     270       370       1.5       3.0      54.3      9.74
   03/23/2020 10:00      56.6      55.9       70     46.5      0.00     13.92      57.8     0.53      1021.0     2.3     WSW   253   5.4       W     274     270       359       1.2       2.8      54.3      9.74
   03/23/2020 09:50      57.1      56.1       71     47.3      0.00     13.92      57.8     0.53      1021.0     2.7     WSW   247   6.1      SW     233     271       279       1.5       2.6      54.1      9.74
   03/23/2020 09:40      56.9      55.9       70     46.9      0.00     13.92      57.8     0.53      1020.9     3.0     WSW   248   6.7     WSW     244     279       394       1.8       2.3      53.7      9.74
   03/23/2020 09:30      56.3      55.6       73     47.3      0.00     13.92      57.9     0.53      1020.8     3.8     WSW   243   7.5      SW     225     292       433       2.0       2.0      53.2      9.74
   03/23/2020 09:20      56.0      55.2       74     47.3      0.00     13.92      57.9     0.53      1020.8     2.8       W   268   5.1      SW     226     304       367       1.4       1.7      52.9      9.74
   03/23/2020 09:10      56.2      54.4       76     47.9      0.00     13.92      57.8     0.53      1020.8     1.1     WSW   245   4.2       W     261     313       361       0.7       1.4      52.5      9.74
   03/23/2020 09:00      54.4      54.0       78     47.6      0.00     13.92      57.9     0.53      1020.8     1.5     WSW   241   3.5     SSW     207     319       225       0.9       1.3      52.4      9.75
   03/23/2020 08:50      54.3      54.0       81     48.4      0.00     13.92      57.9     0.53      1020.7     2.2     SSW   192   4.6     SSW     206     322       211       1.2       1.2      52.2      9.75
   03/23/2020 08:40      54.3      53.6       85     49.6      0.00     13.92      57.9     0.53      1020.4     1.5      SW   230   4.4     WSW     254     327       287       0.7       1.0      52.0      9.75
   03/23/2020 08:30      53.7      52.4       90     50.0      0.00     13.92      57.9     0.53      1020.3     1.2       S   191   3.5     SSE     160     333       263       0.6       0.9      51.7      9.75
   03/23/2020 08:20      52.4      51.6       92     49.7      0.00     13.92      57.9     0.53      1020.2     1.6      SW   233   4.2      SW     223     344       195       0.7       0.8      51.8      9.75
   03/23/2020 08:10      51.6      50.4       94     49.1      0.00     13.92      57.9     0.53      1020.1     1.5      SW   214   2.6      SW     221     355       139       0.5       0.6      51.8      9.75
   03/23/2020 08:00      50.7      50.2       94     48.8      0.00     13.92      57.9     0.53      1020.1     2.2     SSW   209   4.2      SW     222     361        69       1.0       0.5      51.5      9.75
   03/23/2020 07:50      50.7      49.1       96     48.8      0.00     13.92      58.0     0.53      1020.0     1.2       S   185   2.8      SW     220     373        91       0.3       0.4      51.4      9.76
   03/23/2020 07:40      49.1      47.3       95     46.7      0.00     13.92      57.9     0.53      1019.8     0.6     SSE   161   2.1     WSW     240     406        72       0.0       0.3      51.3      9.76
   03/23/2020 07:30      47.4      46.4       95     45.5      0.00     13.92      58.0     0.53      1019.6     0.3     SSE   148   1.0      SE     146     377        44       0.0       0.3      51.2      9.76
   03/23/2020 07:20      46.7      46.2       95     45.0      0.00     13.92      58.0     0.53      1019.4     0.9       S   171   2.5       S     183     388        16       0.0       0.3      51.1      9.76
   03/23/2020 07:10      46.6      46.3       95     45.1      0.00     13.92      58.0     0.53      1019.2     1.3     SSW   200   1.9     SSW     205     386         6       0.0       0.3      51.3      9.76
   03/23/2020 07:00      46.9      46.1       95     45.0      0.00     13.92      57.6     0.54      1019.0     0.4     SSW   206   2.0     SSW     202     381        -2       0.0       0.3      51.4      9.76
   03/23/2020 06:50      47.0      46.3       95     45.2      0.00     13.92      57.5     0.54      1018.7     0.0       N     0   0.0       E      79     375        -5       0.0       0.3      51.4      9.77
   03/23/2020 06:40      47.0      46.2       95     45.1      0.00     13.92      57.5     0.54      1018.5     0.5     ESE   122   1.5      SE     141     397        -7       0.0       0.3      51.6      9.77
   03/23/2020 06:30      48.1      46.6       94     45.9      0.00     13.92      57.5     0.54      1018.3     0.2       S   171   1.3       S     181     393        -6       0.0       0.3      51.9      9.77
   03/23/2020 06:20      48.6      47.8       94     46.7      0.00     13.92      57.7     0.54      1018.2     0.0       N     0   0.0     SSW     204     384        -6       0.0       0.3      52.1      9.77
   03/23/2020 06:10      49.3      48.6       95     47.4      0.00     13.92      57.6     0.54      1018.1     0.2      SW   235   1.1     WSW     246     378        -6       0.0       0.3      52.2      9.78
   03/23/2020 06:00      49.3      48.8       95     47.6      0.00     13.92      57.8     0.54      1018.2     1.0     WNW   282   3.3     WNW     298     368        -5       0.1       0.3      52.6      9.78
   03/23/2020 05:50      49.4      49.0       95     47.8      0.00     13.92      57.9     0.54      1018.1     0.9       S   189   1.5     SSW     206     390        -5       0.0       0.3      52.6      9.78
   03/23/2020 05:40      49.4      49.0       95     47.9      0.00     13.92      57.9     0.54      1018.1     1.5     SSE   168   2.8     SSE     155     394        -4       0.3       0.3      52.7      9.78
   03/23/2020 05:30      49.4      47.9       96     47.6      0.00     13.92      57.9     0.54      1018.0     1.6     SSW   201   2.4     SSW     193     417        -2       0.4       0.3      52.8      9.79
   03/23/2020 05:20      48.5      47.8       95     46.6      0.00     13.92      58.0     0.54      1017.8     1.0       S   190   1.9     SSW     196     419        -3       0.3       0.2      52.9      9.79
   03/23/2020 05:10      48.6      48.3       95     47.0      0.00     13.92      58.0     0.55      1017.6     0.7     WSW   246   1.8       W     268     386        -5       0.0       0.1      53.1      9.79
   03/23/2020 05:00      48.9      48.3       95     47.0      0.00     13.92      58.7     0.55      1017.6     0.0     ESE   115   1.1     ESE     107     385        -6       0.0       0.1      53.8      9.79
   03/23/2020 04:50      49.0      48.7       95     47.4      0.00     13.92      59.0     0.55      1017.6     0.4      SE   126   1.6      SE     134     378        -6       0.0       0.1      54.2      9.80
   03/23/2020 04:40      49.0      48.7       95     47.4      0.00     13.92      58.9     0.55      1017.6     0.3       S   175   1.4       S     181     366        -5       0.0       0.1      54.2      9.80
   03/23/2020 04:30      49.4      48.7       95     47.6      0.01     13.92      58.9     0.55      1017.5     0.5       S   174   1.4       S     184     386        -5       0.0       0.1      54.5      9.81
   03/23/2020 04:20      50.3      49.2       95     48.1      0.00     13.91      58.9     0.55      1017.5     1.1       S   189   2.1      SW     216     381        -5       0.0       0.1      54.6      9.81
   03/23/2020 04:10      50.4      49.9       95     48.7      0.00     13.91      59.0     0.56      1017.6     1.3       S   189   2.4      SW     216     375        -6       0.3       0.1      54.9      9.82
   03/23/2020 04:00      50.7      50.3       95     49.0      0.00     13.91      58.0     0.56      1017.5     0.9       S   170   2.4       S     170     363        -5       0.3       0.0      54.2      9.82
   03/23/2020 03:50      51.0      50.3       95     49.2      0.00     13.91      58.0     0.56      1017.6     0.6     SSE   159   2.4      SE     136     374        -4       0.0       0.0      54.3      9.83
   03/23/2020 03:40      50.5      50.2       95     48.9      0.00     13.91      58.0     0.56      1017.7     0.0       N     0   0.0       S     177     374        -3       0.0       0.0      54.4      9.83
   03/23/2020 03:30      50.5      50.1       95     48.8      0.00     13.91      58.0     0.56      1017.8     0.0       N     0   0.0      SE     140     373        -3       0.0       0.0      54.3      9.84
   03/23/2020 03:20      50.5      50.2       95     48.9      0.00     13.91      58.0     0.56      1017.9     0.0       N     0   0.0     SSE     150     370        -4       0.0       0.0      54.5      9.85
   03/23/2020 03:10      50.4      49.9       95     48.7      0.00     13.91      58.0     0.56      1017.8     0.2     SSE   161   1.1     SSE     162     368        -4       0.0       0.0      54.5      9.85
   03/23/2020 03:00      50.4      49.9       94     48.6      0.00     13.91      58.2     0.57      1017.7     0.2       S   185   1.0     SSW     199     381        -5       0.0       0.0      54.6      9.86
   03/23/2020 02:50      50.7      50.1       94     48.9      0.00     13.91      58.2     0.57      1017.7     0.7       S   182   2.3     SSW     205     383        -4       0.0       0.0      54.8      9.87
   03/23/2020 02:40      51.0      50.5       94     49.3      0.00     13.91      58.2     0.57      1017.8     1.1     SSW   193   2.3       S     191     376        -4       0.1       0.0      54.9      9.87
   03/23/2020 02:30      51.5      50.8       94     49.5      0.00     13.91      58.2     0.57      1017.8     0.0       N     0   0.0     WSW     242     369        -5       0.0       0.0      55.1      9.88
   03/23/2020 02:20      51.5      51.1       95     49.8      0.00     13.91      58.2     0.57      1017.8     0.0       S   183   1.0       S     188     381        -5       0.0       0.0      55.2      9.89
   03/23/2020 02:10      51.5      51.0       94     49.7      0.00     13.91      58.3     0.57      1017.7     0.5     SSW   191   1.4     SSW     198     375        -4       0.0       0.0      55.3      9.90
   03/23/2020 02:00      51.4      50.8       95     49.7      0.00     13.91      58.5     0.57      1017.7     0.0       N     0   0.0       E      87     375        -5       0.0       0.0      55.8      9.91
   03/23/2020 01:50      51.4      50.8       94     49.5      0.00     13.91      58.5     0.57      1017.7     0.0       S   174   0.6     SSE     169     371        -7       0.0       0.0      56.0      9.92
   03/23/2020 01:40      52.0      51.1       94     49.9      0.00     13.91      58.5     0.57      1017.6     0.5     SSE   158   1.8     SSE     150     387        -6       0.0       0.0      56.1      9.93
   03/23/2020 01:30      52.7      51.9       94     50.8      0.00     13.91      59.0     0.57      1017.7     0.1       W   271   1.3      NW     315     376        -6       0.0       0.0      56.7      9.94
   03/23/2020 01:20      52.7      52.4       94     51.0      0.00     13.91      59.2     0.57      1017.6     0.2     NNW   338   1.1      NW     313     384        -4       0.0       0.0      56.9      9.95
   03/23/2020 01:10      52.8      52.5       94     51.0      0.00     13.91      59.2     0.57      1017.6     0.4     SSW   195   1.6      SE     137     377        -4       0.0       0.0      57.1      9.96
   03/23/2020 01:00      52.9      52.6       94     51.1      0.00     13.91      58.2     0.58      1017.6     0.0       N     0   0.0       W     269     438        -4       0.0       0.0      56.2      9.98
   03/23/2020 00:50      52.9      52.5       94     51.0      0.01     13.91      58.2     0.58      1017.6     0.0      NW   317   0.9      NW     321     444        -3       0.0       0.0      56.3      9.98
   03/23/2020 00:40      52.7      52.4       94     50.9      0.00     13.90      58.2     0.58      1017.5     0.1     WNW   291   1.1       W     268     376        -4       0.0       0.0      56.4      9.99
   03/23/2020 00:30      52.7      52.3       94     50.9      0.00     13.90      58.2     0.58      1017.5     0.0       N     0   0.0     NNE      29     380        -4       0.0       0.0      56.4     10.01
   03/23/2020 00:20      52.6      52.4       94     50.9      0.00     13.90      58.3     0.59      1017.6     0.0       N     0   0.0       S     178     386        -4       0.0       0.0      56.5     10.02
   03/23/2020 00:10      52.8      52.4       94     51.0      0.00     13.90      58.3     0.59      1017.7     0.0     SSE   155   0.2     SSE     159     372        -3       0.0       0.0      56.4     10.04
   03/23/2020 00:00      52.7      52.3       94     50.9      0.00     13.90      58.4     0.59      1017.7     0.0      NE    44   0.7      NE      45     426        -4       0.0      13.6      56.5     10.05
   03/22/2020 23:50      52.8      52.4       94     51.0      0.00     13.90      58.5     0.59      1017.7     0.4     NNE    17   1.4     ENE      64     432        -3       0.0      13.6      56.6     10.07
   03/22/2020 23:40      52.8      52.4       94     51.0      0.00     13.90      58.4     0.59      1017.8     0.5     ENE    58   2.2      NE      47     448        -3       0.0      13.6      56.6     10.09
   03/22/2020 23:30      52.6      52.3       94     50.8      0.03     13.90      58.5     0.59      1017.8     0.7     ENE    73   2.2     ESE     107     482        -3       0.2      13.6      56.8     10.09
   03/22/2020 23:20      52.9      52.4       94     51.0      0.02     13.87      58.6     0.59      1017.9     1.1       E    81   3.3       E      84     521        -3       0.4      13.6      56.9     10.09
   03/22/2020 23:10      52.9      52.6       94     51.1      0.02     13.85      58.6     0.59      1017.9     0.1      NE    48   1.9     ENE      64     475        -3       0.0      13.5      56.9     10.09
   03/22/2020 23:00      52.9      52.6       94     51.1      0.03     13.83      58.9     0.59      1017.9     0.0     ENE    63   1.0     ENE      57     505        -3       0.0      13.5      57.2     10.09
   03/22/2020 22:50      52.9      52.5       94     51.1      0.07     13.80      58.9     0.59      1018.0     0.3      SE   134   1.8     SSE     150     502        -3       0.0      13.5      57.2     10.09
   03/22/2020 22:40      52.9      52.7       94     51.1      0.02     13.73      59.1     0.59      1018.0     0.0      SE   132   0.0      SE     132     520        -3       0.0      13.5      57.4     10.06
   03/22/2020 22:30      52.9      52.5       94     51.0      0.01     13.71      59.1     0.59      1017.9     0.0      NE    43   0.7      NE      49     479        -3       0.0      13.5      57.4     10.06
   03/22/2020 22:20      52.9      52.5       94     51.0      0.02     13.70      59.1     0.59      1017.8     0.5     NNE    22   2.2      NE      44     461        -4       0.0      13.5      57.5     10.07
   03/22/2020 22:10      52.8      52.5       94     51.0      0.03     13.68      59.2     0.59      1017.8     1.8      NE    39   3.6     ENE      64     475        -4       0.1      13.5      57.6     10.08
   03/22/2020 22:00      52.9      52.5       94     50.9      0.03     13.65      58.9     0.59      1017.9     2.5      NE    41   4.5     ENE      66     487        -3       0.6      13.5      57.6     10.08
   03/22/2020 21:50      52.8      52.5       94     50.9      0.03     13.62      59.0     0.60      1018.2     1.7     NNW   335   3.9       W     265     510        -3       0.7      13.4      57.7     10.08
   03/22/2020 21:40      52.9      52.5       94     50.8      0.06     13.59      59.2     0.60      1018.3     1.7       W   279   2.8       W     263     447        -3       0.6      13.3      57.8     10.08
   03/22/2020 21:30      52.7      52.3       94     50.7      0.08     13.53      59.4     0.60      1018.1     0.9     NNE    31   4.0     ESE     121     530        -3       0.3      13.1      57.9     10.08
   03/22/2020 21:20      52.8      52.4       93     50.8      0.08     13.45      59.5     0.59      1018.0     0.8     ENE    79   2.1      NE      54     534        -3       0.2      13.1      58.0     10.04
   03/22/2020 21:10      52.9      52.5       93     50.8      0.03     13.37      59.7     0.59      1017.9     0.3     ENE    65   2.2       E      96     515        -4       0.0      13.1      58.1      9.99
   03/22/2020 21:00      52.8      52.5       93     50.8      0.04     13.34      60.4     0.60      1017.7     0.8     NNE    29   2.2       N       4     506        -3       0.0      13.1      58.9      9.97
   03/22/2020 20:50      52.9      52.5       93     50.7      0.09     13.30      60.4     0.60      1017.7     1.0      NE    41   2.4     NNE      28     514        -3       0.0      13.0      59.0      9.93
   03/22/2020 20:40      52.9      52.5       93     50.6      0.09     13.21      60.4     0.59      1017.7     0.9     NNE    21   2.7       N       9     567        -4       0.0      13.0      59.1      9.85
   03/22/2020 20:30      52.8      52.4       92     50.4      0.04     13.12      60.5     0.58      1017.6     0.6     ENE    69   3.6     ESE     112     496        -5       0.2      13.0      59.1      9.76
   03/22/2020 20:20      52.9      52.5       92     50.5      0.04     13.08      60.5     0.57      1017.6     1.9       E    84   4.8       E      99     519        -6       0.9      13.0      59.4      9.72
   03/22/2020 20:10      53.0      52.6       92     50.6      0.00     13.04      60.5     0.57      1017.4     2.6       E    90   5.8       E      93     487        -6       1.3      12.8      59.4      9.70
   03/22/2020 20:00      53.3      52.9       92     50.9      0.02     13.04      59.9     0.54      1017.4     2.4     ENE    65   5.4       E     101     482        -5       0.9      12.6      59.4      9.69
   03/22/2020 19:50      53.3      53.1       92     51.0      0.03     13.02      60.0     0.52      1017.5     1.7     ENE    66   4.0      NE      52     476        -5       0.7      12.5      59.7      9.68
   03/22/2020 19:40      53.5      53.2       92     50.9      0.04     12.99      59.9     0.52      1017.6     1.6     ENE    72   4.3     ESE     105     481        -5       0.4      12.4      59.9      9.66
   03/22/2020 19:30      53.6      53.2       91     50.9      0.04     12.95      59.9     0.52      1017.8     1.6     ENE    71   4.0       E     101     489        -6       0.5      12.3      60.1      9.63
   03/22/2020 19:20      54.1      53.5       91     51.1      0.03     12.91      59.9     0.52      1017.8     1.7      NE    39   4.8     NNE      22     505        -5       0.1      12.2      60.3      9.59
   03/22/2020 19:10      53.9      53.6       90     51.0      0.03     12.88      59.9     0.52      1018.0     0.6     NNE    15   2.0     NNW     331     505        -5       0.0      12.2      60.4      9.57
   03/22/2020 19:00      53.8      53.5       90     50.7      0.02     12.85      59.8     0.51      1018.1     0.0       N     0   0.0     ENE      65     493        -4       0.0      12.2      60.6      9.53
   03/22/2020 18:50      53.8      53.6       89     50.6      0.01     12.83      59.8     0.51      1018.2     0.0      NE    56   0.9      NE      51     485        -4       0.0      12.2      60.9      9.52
   03/22/2020 18:40      53.9      53.5       89     50.5      0.01     12.82      59.9     0.51      1018.2     0.3      NE    55   1.2      NE      52     486        -5       0.0      12.2      61.0      9.50
   03/22/2020 18:30      54.0      53.6       89     50.5      0.01     12.81      59.9     0.51      1018.1     0.0       N     0   0.0     NNE      25     452         0       0.0      12.2      61.0      9.49
   03/22/2020 18:20      53.9      53.6       89     50.5      0.00     12.80      59.9     0.51      1018.1     0.4      NE    47   2.1     ENE      56     445         8       0.0      12.2      61.1      9.49
   03/22/2020 18:10      53.7      53.5       88     50.0      0.00     12.80      59.8     0.51      1018.1     0.9       E   100   2.1      SE     142     388         7       0.2      12.2      61.1      9.49
   03/22/2020 18:00      54.1      53.5       87     49.8      0.02     12.80      59.9     0.51      1018.1     1.1     ESE   117   4.6       E      92     470        18       0.5      12.2      61.5      9.49
   03/22/2020 17:50      54.0      53.7       86     49.8      0.02     12.78      59.7     0.51      1018.3     1.0     ENE    77   3.3      NE      41     478         9       0.2      12.1      61.7      9.47
   03/22/2020 17:40      54.6      53.8       86     50.0      0.01     12.76      59.6     0.51      1018.3     1.3       E    94   5.1     ENE      74     488         3       0.7      12.0      61.8      9.45
   03/22/2020 17:30      54.8      54.2       85     49.9      0.01     12.75      59.6     0.51      1018.2     0.3       N   359   1.3     NNE      21     478         2       0.0      11.9      61.7      9.44
   03/22/2020 17:20      54.4      54.0       84     49.3      0.01     12.74      59.4     0.51      1018.1     0.3     SSE   151   2.2     SSW     202     439         6       0.0      11.9      61.6      9.44
   03/22/2020 17:10      54.5      54.0       82     48.8      0.02     12.73      59.3     0.51      1017.9     2.3       S   182   3.9     SSE     169     455        17       1.3      11.9      61.8      9.43
   03/22/2020 17:00      55.6      54.5       78     48.4      0.03     12.71      59.3     0.51      1017.9     3.2     SSE   164   7.6      SE     125     506        14       1.9      11.7      62.0      9.42
   03/22/2020 16:50      56.1      55.5       77     48.8      0.01     12.68      59.2     0.51      1017.9     3.7       S   174   8.3       S     176     477        18       2.0      11.4      62.5      9.40
   03/22/2020 16:40      56.7      56.0       76     48.9      0.01     12.67      59.2     0.51      1017.8     2.8       S   185   5.5     SSW     195     407        27       1.5      11.1      62.7      9.39
   03/22/2020 16:30      57.2      56.6       74     48.9      0.00     12.66      59.2     0.51      1017.9     3.1       S   176   6.7       S     190     422        30       1.7      10.8      62.9      9.38
   03/22/2020 16:20      58.3      57.0       71     48.2      0.01     12.66      59.2     0.50      1017.9     3.1       S   187   5.7       S     172     376        34       1.9      10.5      63.4      9.38
   03/22/2020 16:10      59.6      58.4       62     46.1      0.00     12.65      59.1     0.50      1017.9     3.9     SSE   150   6.2     SSE     154     450        33       1.8      10.2      63.9      9.38
   03/22/2020 16:00      60.2      59.6       57     44.7      0.00     12.65      58.8     0.50      1018.0     4.1     SSE   167   8.2       S     174     269        10       2.2       9.9      63.8      9.38
   03/22/2020 15:50      61.3      60.0       56     44.8      0.00     12.65      58.7     0.50      1017.9     5.0       S   173   8.5       S     185     268        28       2.9       9.5      64.1      9.38
   03/22/2020 15:40      61.6      61.3       55     45.0      0.00     12.65      58.6     0.50      1018.0     3.8       S   172   9.5     SSW     201     268        66       2.0       9.1      64.2      9.38
   03/22/2020 15:30      61.8      61.4       54     44.8      0.00     12.65      58.5     0.50      1018.1     3.6     SSE   160   8.5      SE     137     268        90       1.9       8.7      64.2      9.38
   03/22/2020 15:20      61.7      61.3       55     45.4      0.00     12.65      58.5     0.50      1018.1     4.1     SSE   161   7.9       S     181     268       119       2.2       8.4      64.3      9.38
   03/22/2020 15:10      62.0      61.4       56     46.0      0.00     12.65      58.4     0.50      1018.2     4.5     SSE   158   7.4      SE     142     268       154       2.5       8.0      64.2      9.38
   03/22/2020 15:00      63.6      61.8       54     45.8      0.00     12.65      58.7     0.50      1018.3     4.8     SSE   165   9.3       S     170     268       173       2.7       7.6      64.5      9.38
   03/22/2020 14:50      63.8      63.1       49     44.1      0.00     12.65      58.4     0.50      1018.3     3.3      SE   130   6.9       E     101     271       185       1.7       7.2      64.2      9.38
   03/22/2020 14:40      63.6      63.1       47     43.1      0.00     12.65      58.4     0.50      1018.5     3.4      SE   127   7.8      SE     124     270       115       1.6       6.9      64.0      9.39
   03/22/2020 14:30      64.1      63.5       48     43.9      0.00     12.65      58.4     0.50      1018.6     3.6     SSE   154   8.9     SSE     158     268       107       1.9       6.7      63.9      9.39
   03/22/2020 14:20      64.4      63.8       48     43.8      0.00     12.65      58.3     0.50      1018.7     3.9     SSE   151   7.1     ESE     119     268       112       1.9       6.3      63.8      9.39
   03/22/2020 14:10      64.4      64.0       46     43.2      0.00     12.65      58.4     0.50      1018.7     2.6      SE   139   6.0       S     190     267       146       1.3       6.0      63.6      9.39
   03/22/2020 14:00      64.9      64.2       45     42.7      0.00     12.65      58.9     0.50      1018.9     4.0     SSE   152   8.1      SE     125     267       160       2.0       5.8      63.9      9.39
   03/22/2020 13:50      64.9      64.3       44     42.2      0.00     12.65      58.9     0.50      1019.0     2.8      SE   143   6.6      SE     132     267       159       1.5       5.5      63.7      9.39
   03/22/2020 13:40      65.0      63.8       44     42.4      0.00     12.65      58.8     0.50      1019.1     3.5     SSE   159   7.8      SE     138     267       258       2.2       5.2      63.4      9.39
   03/22/2020 13:30      64.5      63.9       44     42.1      0.00     12.65      58.7     0.50      1019.3     4.4      SE   142   8.7     ESE     121     267       233       2.1       4.8      63.0      9.39
   03/22/2020 13:20      64.5      63.6       45     42.6      0.00     12.65      58.7     0.50      1019.4     3.4     SSE   155   7.5      SE     126     267       190       1.9       4.5      62.5      9.39
   03/22/2020 13:10      64.4      63.6       46     42.5      0.00     12.65      58.5     0.50      1019.6     3.2     SSE   168   7.5      SE     141     267       236       1.3       4.2      62.1      9.39
   03/22/2020 13:00      64.7      63.5       46     43.0      0.00     12.65      58.6     0.50      1019.8     4.2     SSE   154   7.8     SSW     210     267       351       2.3       4.0      61.6      9.39
   03/22/2020 12:50      65.0      64.2       45     43.0      0.00     12.65      58.6     0.50      1019.9     3.6      SE   125   8.8     ESE     117     267       426       2.1       3.6      61.1      9.40
   03/22/2020 12:40      64.4      63.1       48     43.4      0.00     12.65      58.6     0.50      1020.0     3.1      SE   125   6.9      SE     133     267       309       1.7       3.2      60.6      9.40
   03/22/2020 12:30      64.5      63.4       49     44.3      0.00     12.65      58.6     0.50      1020.1     2.5     SSE   162   5.8     SSE     156     267       386       1.5       2.9      60.3      9.40
   03/22/2020 12:20      63.9      63.3       50     44.4      0.00     12.65      58.8     0.50      1020.2     1.7     ENE    73   5.0     NNE      22     268       232       0.8       2.7      60.0      9.40
   03/22/2020 12:10      63.7      63.1       51     44.8      0.00     12.65      58.8     0.50      1020.3     2.6     ENE    68   5.0       E      82     268       234       1.0       2.6      59.6      9.40
   03/22/2020 12:00      63.9      62.4       52     45.3      0.00     12.65      57.9     0.50      1020.3     2.3     ENE    62   6.5      NE      54     267       414       1.3       2.4      58.5      9.40
   03/22/2020 11:50      62.8      61.9       53     45.1      0.00     12.65      57.9     0.50      1020.5     1.9     ENE    58   3.8     NNE      25     268       299       0.8       2.2      58.1      9.40
   03/22/2020 11:40      62.2      61.4       54     45.1      0.00     12.65      57.8     0.50      1020.5     2.0     ENE    76   5.1      NE      49     268       171       0.9       2.0      57.6      9.40
   03/22/2020 11:30      63.0      62.1       53     45.1      0.00     12.65      57.9     0.50      1020.7     3.0       E    81   6.9     ESE     110     268       300       1.7       1.9      57.1      9.40
   03/22/2020 11:20      63.0      62.4       53     45.5      0.00     12.65      57.8     0.50      1020.9     1.8       E    90   4.1       E      92     267       322       1.1       1.6      56.5      9.40
   03/22/2020 11:10      63.0      61.6       55     46.2      0.00     12.65      57.9     0.50      1020.9     2.1     ENE    62   4.8       E      89     267       505       1.1       1.4      55.9      9.40
   03/22/2020 11:00      62.4      61.0       56     45.7      0.00     12.65      58.4     0.50      1021.0     2.1       E    85   4.2      NE      49     267       452       1.0       1.2      55.6      9.40
   03/22/2020 10:50      61.5      60.4       57     45.8      0.00     12.65      58.4     0.50      1021.0     2.1      NE    39   4.1     ENE      57     267       444       0.9       1.1      55.1      9.40
   03/22/2020 10:40      60.9      59.8       59     45.9      0.00     12.65      58.4     0.50      1021.1     2.2      NE    39   5.3      NE      37     267       434       1.0       0.9      54.5      9.40
   03/22/2020 10:30      60.0      59.0       60     45.9      0.00     12.65      58.4     0.50      1021.2     2.3      NE    41   4.3      NE      41     268       438       0.8       0.8      53.9      9.40
   03/22/2020 10:20      59.0      58.0       62     45.7      0.00     12.65      58.4     0.50      1021.3     1.8      NE    41   3.6      NE      51     269       291       0.4       0.6      53.5      9.40
   03/22/2020 10:10      58.4      57.9       63     45.6      0.00     12.65      58.4     0.50      1021.3     1.6      NE    37   3.6     WNW     295     269       222       0.5       0.5      53.1      9.40
   03/22/2020 10:00      58.2      57.4       65     46.0      0.00     12.65      59.0     0.50      1021.3     1.5     ENE    58   4.4     ENE      71     268       246       0.5       0.5      53.3      9.40
   03/22/2020 09:50      57.5      56.8       66     45.9      0.00     12.65      59.1     0.50      1021.3     1.6      NE    53   3.3       E      91     270       250       0.4       0.4      52.9      9.40
   03/22/2020 09:40      57.2      56.3       66     45.5      0.00     12.65      59.1     0.50      1021.3     1.3     NNE    17   2.9     NNE      12     285       309       0.2       0.3      52.5      9.40
   03/22/2020 09:30      56.6      55.9       67     45.5      0.00     12.65      59.1     0.50      1021.3     1.0     NNE    18   2.7     NNW     349     296       262       0.2       0.3      52.2      9.40
   03/22/2020 09:20      55.9      54.6       69     45.1      0.00     12.65      59.1     0.50      1021.3     0.8     NNE    32   2.6      NE      52     303       244       0.1       0.2      51.9      9.40
   03/22/2020 09:10      55.1      54.7       67     44.2      0.00     12.65      59.1     0.50      1021.3     1.0     NNE    13   3.0     NNW     340     309       207       0.2       0.2      51.8      9.40
   03/22/2020 09:00      54.7      53.3       69     44.2      0.00     12.65      59.0     0.50      1021.3     0.5      NW   313   2.1     NNW     346     315       262       0.1       0.2      51.5      9.40
   03/22/2020 08:50      53.5      52.9       71     43.9      0.00     12.65      59.4     0.50      1021.2     0.7     NNW   343   2.6       N     350     342       223       0.0       0.2      51.6      9.40
   03/22/2020 08:40      53.1      51.3       75     44.4      0.00     12.65      59.3     0.50      1021.3     0.1     NNW   328   1.2      NW     317     365       224       0.0       0.2      51.4      9.40
   03/22/2020 08:30      51.3      50.3       80     44.8      0.00     12.65      59.5     0.50      1021.3     0.4       N    10   1.2     NNE      20     381       169       0.0       0.1      51.3      9.40
   03/22/2020 08:20      50.6      48.3       86     45.6      0.00     12.65      59.4     0.50      1021.3     0.0     NNW   345   0.4     NNW     345     396       113       0.0       0.1      51.0      9.40
   03/22/2020 08:10      48.3      46.5       89     44.5      0.00     12.65      58.9     0.50      1021.3     0.3      SE   137   1.0      SE     137     410       107       0.0       0.1      50.5      9.40
   03/22/2020 08:00      46.5      45.7       91     43.6      0.00     12.65      58.6     0.50      1021.2     0.9      SE   140   1.7     SSE     147     432        62       0.0       0.1      50.2      9.40
   03/22/2020 07:50      45.8      44.7       92     43.2      0.00     12.65      58.8     0.50      1021.1     0.4     SSE   166   1.3       S     187     446        51       0.0       0.1      50.3      9.40
   03/22/2020 07:40      44.7      43.9       92     42.1      0.00     12.65      58.8     0.50      1021.0     0.7       S   173   1.2       S     175     449        27       0.0       0.1      50.4      9.40
   03/22/2020 07:30      44.0      43.2       93     41.5      0.00     12.65      58.8     0.50      1021.0     0.0       N     0   0.0     ESE     121     449        15       0.0       0.1      50.4      9.40
   03/22/2020 07:20      43.4      43.1       92     41.1      0.00     12.65      58.8     0.50      1021.0     0.1     SSE   152   0.7      SE     140     449         2       0.0       0.1      50.5      9.40
   03/22/2020 07:10      43.4      43.2       92     41.2      0.00     12.65      58.9     0.50      1021.0     0.3     SSE   168   1.2       S     171     446        -7       0.0       0.1      50.6      9.40
   03/22/2020 07:00      43.7      43.2       92     41.3      0.00     12.65      59.2     0.50      1021.0     0.0       S   184   0.6       S     184     444       -16       0.0       0.1      50.9      9.40
   03/22/2020 06:50      43.9      43.6       92     41.6      0.00     12.65      59.2     0.50      1020.9     0.0     SSE   154   0.6     SSE     154     442       -19       0.0       0.1      51.1      9.40
   03/22/2020 06:40      43.9      43.6       92     41.7      0.00     12.65      59.2     0.50      1020.9     0.0       N     0   0.0       S     179     440       -18       0.0       0.1      51.2      9.40
   03/22/2020 06:30      43.9      43.2       92     41.4      0.00     12.65      59.3     0.50      1020.8     0.2       S   180   1.1     SSW     192     437       -18       0.0       0.1      51.4      9.41
   03/22/2020 06:20      43.6      43.1       92     41.3      0.00     12.65      59.3     0.50      1020.5     0.3       S   172   1.3     SSW     193     432       -18       0.0       0.1      51.6      9.41
   03/22/2020 06:10      43.3      43.1       92     41.0      0.00     12.65      59.4     0.50      1020.4     0.4       S   172   1.2       S     178     426       -17       0.0       0.1      51.7      9.41
   03/22/2020 06:00      43.4      43.1       92     41.0      0.00     12.65      59.2     0.50      1020.4     0.5      SE   141   2.0      SE     140     423       -17       0.0       0.1      51.6      9.41
   03/22/2020 05:50      43.7      43.3       92     41.3      0.00     12.65      59.2     0.50      1020.4     0.0     SSE   163   0.6     SSE     160     418       -17       0.0       0.1      51.8      9.41
   03/22/2020 05:40      43.9      43.5       92     41.4      0.00     12.65      59.3     0.50      1020.3     0.1     SSE   160   0.8     SSE     161     415       -17       0.0       0.1      51.9      9.41
   03/22/2020 05:30      43.8      43.6       92     41.4      0.00     12.65      59.3     0.50      1020.4     0.0       S   186   0.7       S     186     412       -17       0.0       0.1      52.1      9.41
   03/22/2020 05:20      43.9      43.5       92     41.3      0.00     12.65      59.3     0.50      1020.4     0.0       S   186   0.5       S     186     408       -17       0.0       0.1      52.2      9.41
   03/22/2020 05:10      43.9      43.4       91     41.3      0.00     12.65      59.3     0.50      1020.3     0.0       N     0   0.0     SSE     161     407       -18       0.0       0.1      52.4      9.41
   03/22/2020 05:00      44.0      43.3       91     41.3      0.00     12.65      59.6     0.50      1020.3     0.2       S   170   0.7     SSE     159     414       -20       0.0       0.1      52.9      9.41
   03/22/2020 04:50      43.6      43.2       91     40.9      0.00     12.65      59.7     0.50      1020.3     0.2     SSE   148   0.8     SSE     151     409       -22       0.0       0.1      53.1      9.41
   03/22/2020 04:40      43.7      43.1       91     40.9      0.00     12.65      59.6     0.50      1020.2     0.4     SSE   163   0.9     SSE     157     405       -23       0.0       0.1      53.3      9.41
   03/22/2020 04:30      44.0      43.1       90     40.9      0.00     12.65      59.7     0.51      1020.2     0.3     SSE   149   1.2      SE     143     399       -24       0.0       0.0      53.4      9.41
   03/22/2020 04:20      44.0      43.5       91     41.4      0.00     12.65      59.8     0.51      1020.4     0.1     SSE   167   0.8     SSE     167     398       -23       0.0       0.0      53.7      9.41
   03/22/2020 04:10      43.7      43.2       90     40.8      0.00     12.65      59.8     0.50      1020.4     0.0     SSE   167   0.7     SSE     167     385       -24       0.0       0.0      53.9      9.41
   03/22/2020 04:00      43.9      43.3       90     40.8      0.00     12.65      60.4     0.51      1020.4     0.2     SSE   159   0.8     SSE     154     376       -24       0.1       0.0      54.8      9.41
   03/22/2020 03:50      44.2      43.8       90     41.2      0.00     12.65      60.5     0.51      1020.5     0.0       N     0   0.0     SSE     151     366       -25       0.0       0.0      55.0      9.41
   03/22/2020 03:40      44.2      44.0       90     41.3      0.00     12.65      60.5     0.51      1020.7     0.0     SSE   164   0.5       S     174     358       -26       0.0       0.0      55.3      9.41
   03/22/2020 03:30      44.5      44.1       90     41.5      0.00     12.65      60.5     0.51      1020.8     0.1     SSE   158   0.6     SSE     160     351       -27       0.0       0.0      55.5      9.41
   03/22/2020 03:20      44.5      44.0       89     41.3      0.00     12.65      60.6     0.51      1020.9     0.3       S   189   1.1     SSW     192     344       -28       0.0       0.0      55.7      9.41
   03/22/2020 03:10      44.3      44.0       89     41.2      0.00     12.65      60.6     0.51      1020.9     0.2     SSE   158   0.9     SSE     159     339       -28       0.0       0.0      55.9      9.41
   03/22/2020 03:00      44.3      43.9       89     41.0      0.00     12.65      60.0     0.51      1021.0     0.4     SSE   150   1.1     SSE     149     334       -30       0.0       0.0      55.5      9.41
   03/22/2020 02:50      44.4      44.0       88     41.0      0.00     12.65      60.0     0.51      1021.0     0.6     SSE   153   1.1     SSE     148     329       -32       0.0       0.0      55.8      9.41
   03/22/2020 02:40      44.2      44.0       88     40.8      0.00     12.65      60.1     0.51      1021.0     0.5     SSE   159   1.1     SSE     151     325       -34       0.0       0.0      56.0      9.41
   03/22/2020 02:30      44.5      44.0       87     40.6      0.00     12.65      60.1     0.51      1021.1     0.0     SSE   155   0.9     SSE     148     320       -36       0.0       0.0      56.3      9.41
   03/22/2020 02:20      45.1      44.4       87     41.1      0.00     12.65      60.2     0.51      1021.1     0.5     SSE   159   1.3     SSE     159     316       -37       0.1       0.0      56.5      9.41
   03/22/2020 02:10      45.0      44.5       87     41.0      0.00     12.65      60.2     0.51      1021.2     0.5     SSE   164   1.3       S     184     312       -38       0.2       0.0      56.7      9.41
   03/22/2020 02:00      45.3      44.9       87     41.3      0.00     12.65      60.6     0.51      1021.4     0.3     SSE   162   0.9     SSE     158     308       -39       0.0       0.0      57.6      9.41
   03/22/2020 01:50      45.6      45.1       87     41.5      0.00     12.65      60.6     0.51      1021.5     0.1     SSE   157   0.7     SSE     157     305       -42       0.0       0.0      57.9      9.41
   03/22/2020 01:40      45.6      45.2       86     41.5      0.00     12.65      60.7     0.51      1021.5     0.1     SSE   152   0.7     SSE     153     301       -45       0.0       0.0      58.1      9.41
   03/22/2020 01:30      46.1      45.6       86     41.9      0.00     12.65      60.7     0.51      1021.5     0.5     SSE   158   1.0      SE     144     298       -47       0.0       0.0      58.4      9.42
   03/22/2020 01:20      46.3      45.9       86     42.0      0.00     12.65      60.7     0.51      1021.5     0.2     SSE   154   0.9     SSE     154     294       -50       0.0       0.0      58.6      9.42
   03/22/2020 01:10      46.2      45.9       85     41.9      0.00     12.65      60.7     0.51      1021.5     0.4     SSE   166   1.3       S     173     291       -53       0.0       0.0      58.9      9.42
   03/22/2020 01:00      46.6      45.9       84     41.7      0.00     12.65      59.9     0.51      1021.5     0.9       S   174   1.6      SE     137     288       -55       0.0       0.0      58.3      9.42
   03/22/2020 00:50      46.6      46.3       84     41.9      0.00     12.65      59.9     0.51      1021.5     0.5       S   170   1.2     SSW     198     285       -56       0.0       0.0      58.5      9.42
   03/22/2020 00:40      46.7      46.4       84     42.0      0.00     12.65      60.0     0.51      1021.5     0.5      SE   144   1.6      SE     138     282       -58       0.0       0.0      58.7      9.42
   03/22/2020 00:30      47.0      46.6       83     42.0      0.00     12.65      59.9     0.51      1021.5     0.7     SSE   167   1.3     SSE     150     281       -59       0.0       0.0      59.0      9.42
   03/22/2020 00:20      47.2      46.8       83     41.9      0.00     12.65      59.9     0.51      1021.4     0.3     SSE   167   1.4      SE     145     279       -64       0.0       0.0      59.3      9.42
   03/22/2020 00:10      47.7      47.1       81     42.0      0.00     12.65      60.0     0.51      1021.4     0.7     SSE   151   1.1     SSE     154     276       -67       0.0       0.0      59.6      9.42
   03/22/2020 00:00      48.3      47.6       80     42.0      0.00     12.65      60.5     0.51      1021.5     0.4       S   172   1.1       S     177     274       -67       0.0      22.7      60.4      9.42
   03/21/2020 23:50      48.5      48.1       80     42.2      0.00     12.65      60.5     0.51      1021.4     0.3     SSE   162   0.9     SSE     161     273       -67       0.0      22.7      60.7      9.42
   03/21/2020 23:40      48.4      48.0       80     42.3      0.00     12.65      60.5     0.51      1021.5     0.2       S   174   0.7       S     177     273       -66       0.0      22.7      61.0      9.42
   03/21/2020 23:30      48.8      48.3       79     42.3      0.00     12.65      60.5     0.51      1021.4     0.1     SSE   165   0.6       S     169     273       -64       0.0      22.7      61.3      9.42
   03/21/2020 23:20      49.0      48.6       78     42.4      0.00     12.65      60.5     0.51      1021.4     0.3     SSE   166   1.2     SSE     166     273       -64       0.0      22.7      61.6      9.42
   03/21/2020 23:10      49.5      48.9       77     42.5      0.00     12.65      60.4     0.51      1021.4     0.4     SSE   163   1.3       S     173     272       -65       0.0      22.7      61.9      9.43
   03/21/2020 23:00      50.2      49.5       76     42.5      0.00     12.65      61.1     0.51      1021.4     0.5     SSE   159   1.1     SSE     156     272       -67       0.0      22.7      62.7      9.43
   03/21/2020 22:50      50.6      50.0       75     42.6      0.00     12.65      61.1     0.51      1021.4     0.3     SSE   160   1.2     SSE     159     272       -67       0.0      22.7      63.0      9.43
   03/21/2020 22:40      51.0      50.6       74     42.8      0.00     12.65      61.1     0.51      1021.4     0.2     SSE   162   0.7     SSE     149     271       -65       0.0      22.7      63.3      9.43
   03/21/2020 22:30      51.0      50.7       75     43.1      0.00     12.65      61.0     0.51      1021.4     0.0     SSW   213   0.4     SSW     213     271       -67       0.0      22.7      63.6      9.43
   03/21/2020 22:20      51.9      51.0       74     43.5      0.00     12.65      60.5     0.51      1021.3     0.0     SSE   167   0.6     SSE     167     271       -65       0.0      22.7      63.2      9.43
   03/21/2020 22:10      52.2      51.8       72     43.2      0.00     12.65      60.4     0.51      1021.4     0.0     SSW   192   0.8     SSW     198     270       -56       0.0      22.7      63.5      9.43
   03/21/2020 22:00      52.5      52.1       71     43.0      0.00     12.65      60.4     0.51      1021.3     0.0     SSW   200   0.8     SSW     197     270       -48       0.0      22.7      64.0      9.43
   03/21/2020 21:50      52.7      52.3       69     42.8      0.00     12.65      60.5     0.51      1021.3     0.2       S   179   1.1       S     185     270       -49       0.0      22.7      64.3      9.43
   03/21/2020 21:40      53.2      52.6       68     42.7      0.00     12.65      60.5     0.51      1021.2     0.2       S   175   1.2       S     177     270       -54       0.2      22.7      64.5      9.43
   03/21/2020 21:30      53.8      53.1       66     42.2      0.00     12.65      60.4     0.51      1021.3     0.6       S   178   1.7       S     177     270       -51       0.0      22.7      64.8      9.43
   03/21/2020 21:20      53.8      53.5       64     41.6      0.00     12.65      60.4     0.51      1021.2     1.2       S   179   2.1       S     184     270       -51       0.1      22.7      65.1      9.44
   03/21/2020 21:10      54.2      53.7       62     41.2      0.00     12.65      60.3     0.51      1021.1     1.1     SSW   193   1.9     SSW     202     270       -60       0.3      22.6      65.1      9.44
   03/21/2020 21:00      55.7      54.2       60     41.4      0.00     12.65      60.1     0.51      1021.0     0.6       S   172   1.4       S     178     269       -64       0.0      22.6      65.5      9.44
   03/21/2020 20:50      56.0      55.5       58     41.2      0.00     12.65      59.7     0.51      1020.9     0.5       S   189   1.9     SSE     165     269       -59       0.0      22.6      65.3      9.44
   03/21/2020 20:40      56.2      55.9       56     40.4      0.00     12.65      59.7     0.51      1020.9     1.5      SW   225   4.7     WSW     237     269       -46       0.6      22.6      65.6      9.44
   03/21/2020 20:30      56.2      55.9       54     39.8      0.00     12.65      59.7     0.51      1020.8     0.6     SSW   196   1.8     SSE     155     269       -39       0.0      22.5      65.9      9.44
   03/21/2020 20:20      56.3      55.9       55     40.2      0.00     12.65      60.2     0.51      1020.7     1.0     SSE   168   2.1     SSW     203     269       -38       0.0      22.5      66.5      9.44
   03/21/2020 20:10      56.5      56.0       55     40.2      0.00     12.65      60.3     0.51      1020.6     0.8       S   178   2.1     SSW     193     269       -38       0.0      22.5      66.7      9.44
   03/21/2020 20:00      56.5      56.0       56     40.6      0.00     12.65      60.2     0.51      1020.6     1.2       S   189   2.1      SW     235     268       -37       0.3      22.4      67.3      9.44
   03/21/2020 19:50      56.6      56.3       55     40.7      0.00     12.65      60.2     0.51      1020.4     1.8     SSW   205   2.7      SW     224     268       -40       0.8      22.4      67.3      9.44
   03/21/2020 19:40      56.6      56.3       55     40.7      0.00     12.65      60.2     0.51      1020.3     2.2     SSW   206   4.1      SW     225     268       -39       1.0      22.3      67.7      9.45
   03/21/2020 19:30      57.4      56.5       55     41.1      0.00     12.65      60.2     0.51      1020.2     2.9      SW   218   4.3     WSW     239     268       -40       1.4      22.1      68.1      9.45
   03/21/2020 19:20      57.6      57.2       55     41.6      0.00     12.65      60.1     0.51      1020.2     1.8     WSW   252   3.6      SW     233     268       -41       0.8      21.9      68.4      9.45
   03/21/2020 19:10      57.7      57.4       56     42.1      0.00     12.65      60.1     0.51      1020.2     1.1     SSW   213   3.4       W     265     268       -38       0.4      21.7      68.6      9.45
   03/21/2020 19:00      57.9      57.5       55     41.7      0.00     12.65      59.5     0.51      1020.2     2.4     SSW   197   4.4      SW     215     268       -34       1.3      21.7      68.8      9.45
   03/21/2020 18:50      58.3      57.7       55     41.7      0.00     12.65      59.4     0.51      1020.2     2.7       S   187   5.9     SSW     206     268       -30       1.5      21.5      69.1      9.46
   03/21/2020 18:40      58.7      58.2       53     41.6      0.00     12.65      59.4     0.51      1020.1     2.7       S   171   5.6       S     182     268       -26       1.4      21.2      69.5      9.46
   03/21/2020 18:30      59.3      58.6       52     41.5      0.00     12.65      59.3     0.51      1019.9     2.9     SSE   168   5.3       S     182     268       -16       1.9      21.0      69.9      9.46
   03/21/2020 18:20      59.6      59.2       51     41.2      0.00     12.65      59.3     0.51      1019.7     3.0       S   174   5.8       S     185     268        -7       1.4      20.7      70.4      9.46
   03/21/2020 18:10      60.3      59.4       50     41.2      0.00     12.65      59.2     0.51      1019.6     4.1       S   189   6.5     SSW     200     268        11       2.5      20.4      70.9      9.46
   03/21/2020 18:00      60.8      60.0       50     41.5      0.00     12.65      59.4     0.51      1019.4     4.5     SSW   204   9.7       S     184     268        51       2.6      20.0      71.5      9.47
   03/21/2020 17:50      62.0      60.5       49     42.0      0.00     12.65      59.2     0.51      1019.3     3.8       S   184   6.5     SSW     194     268        47       2.1      19.6      71.7      9.47
   03/21/2020 17:40      61.9      61.4       48     42.0      0.00     12.65      59.2     0.51      1019.3     3.8     SSW   198   6.5     SSW     209     268       133       2.2      19.2      71.8      9.47
   03/21/2020 17:30      62.5      61.3       48     42.2      0.00     12.65      59.1     0.50      1019.3     4.8     SSW   204   7.8      SW     222     268       166       2.8      18.9      71.8      9.47
   03/21/2020 17:20      62.9      62.2       48     42.7      0.00     12.65      58.9     0.50      1019.2     4.4       S   185   7.6     WSW     251     268       184       2.8      18.4      71.9      9.48
   03/21/2020 17:10      62.7      61.9       48     42.5      0.00     12.65      58.8     0.50      1019.2     4.3     SSW   207   9.5     SSW     210     268       173       2.6      17.9      71.8      9.48
   03/21/2020 17:00      63.0      62.2       48     42.5      0.00     12.65      58.9     0.50      1019.1     4.4     SSW   196   7.1      SW     229     268       211       2.7      17.5      72.5      9.48
   03/21/2020 16:50      62.9      62.1       47     42.3      0.00     12.65      58.8     0.50      1019.1     2.6     SSE   159   6.2       S     170     267       232       1.5      17.1      72.4      9.49
   03/21/2020 16:40      62.9      61.9       47     42.1      0.00     12.65      58.8     0.50      1019.2     4.4       S   169   9.3     SSW     197     268       232       2.3      16.8      72.3      9.49
   03/21/2020 16:30      62.7      62.0       48     42.5      0.00     12.65      58.6     0.50      1019.3     5.1       S   185   9.5     SSE     150     268       269       3.2      16.4      72.3      9.49
   03/21/2020 16:20      63.0      62.2       48     42.8      0.00     12.65      58.5     0.50      1019.3     4.7       S   185  10.3       S     178     268       294       2.9      15.9      72.2      9.49
   03/21/2020 16:10      63.5      62.9       48     43.1      0.00     12.65      58.5     0.50      1019.3     5.1       S   185  10.5     SSW     194     267       315       3.0      15.4      72.1      9.50
   03/21/2020 16:00      63.6      62.7       47     42.8      0.00     12.65      59.1     0.50      1019.3     5.4     SSW   197  10.3       S     190     268       343       3.2      14.9      72.7      9.50
   03/21/2020 15:50      63.7      62.8       48     43.1      0.00     12.65      59.1     0.50      1019.3     4.6     SSW   197   8.6     WSW     240     268       362       3.0      14.4      72.5      9.50
   03/21/2020 15:40      63.3      62.6       48     43.2      0.00     12.65      59.0     0.50      1019.3     4.9     SSW   197   8.9      SW     234     268       386       3.1      13.9      72.4      9.51
   03/21/2020 15:30      64.0      62.8       47     42.9      0.00     12.65      59.0     0.50      1019.2     5.4     SSW   193  10.6     SSE     163     267       406       3.2      13.4      72.2      9.51
   03/21/2020 15:20      64.3      63.6       47     43.5      0.00     12.65      59.0     0.50      1019.3     4.7     SSE   166   8.4      SE     130     267       424       2.9      12.8      71.8      9.51
   03/21/2020 15:10      64.3      63.7       47     43.3      0.00     12.65      58.9     0.50      1019.3     4.4       S   174   9.9       S     189     267       440       2.5      12.4      71.7      9.51
   03/21/2020 15:00      65.0      63.4       47     43.4      0.00     12.65      57.4     0.50      1019.3     4.8       S   173   9.1       S     172     267       457       3.0      12.0      69.3      9.51
   03/21/2020 14:50      64.9      63.6       47     43.7      0.00     12.65      57.3     0.50      1019.3     4.5       S   173  11.0       S     172     267       473       2.7      11.5      68.8      9.52
   03/21/2020 14:40      64.6      63.8       47     43.6      0.00     12.65      57.2     0.50      1019.4     4.3     SSW   206   7.9     SSE     169     267       503       2.7      11.0      68.5      9.52
   03/21/2020 14:30      65.7      64.1       46     43.7      0.00     12.65      57.3     0.50      1019.5     4.4     SSE   161   7.8     SSE     168     267       535       2.6      10.6      68.0      9.52
   03/21/2020 14:20      65.7      64.5       46     43.6      0.00     12.65      57.2     0.50      1019.6     3.4      SE   137   6.7     SSE     160     267       563       2.0      10.1      67.5      9.52
   03/21/2020 14:10      64.7      64.0       46     43.0      0.00     12.65      57.1     0.50      1019.7     3.9     SSE   155   8.1      SE     142     268       460       2.2       9.8      66.8      9.52
   03/21/2020 14:00      64.6      63.3       46     42.3      0.00     12.65      57.7     0.50      1019.8     4.0     SSE   156   8.6      SE     146     267       532       2.1       9.4      67.0      9.52
   03/21/2020 13:50      64.5      62.5       48     43.5      0.00     12.65      57.6     0.50      1019.8     4.4     SSW   199   8.2     SSE     167     267       495       2.7       9.1      66.3      9.53
   03/21/2020 13:40      63.5      62.4       48     43.1      0.00     12.65      57.7     0.50      1020.1     5.4     SSW   207   8.8      SW     233     267       535       3.1       8.6      65.7      9.53
   03/21/2020 13:30      63.6      62.6       49     43.5      0.00     12.65      57.6     0.50      1020.3     4.8     SSW   205   8.9     SSW     206     267       560       2.9       8.1      65.1      9.53
   03/21/2020 13:20      63.8      62.4       49     43.6      0.00     12.65      57.5     0.50      1020.5     5.0       S   179   9.7     SSW     193     267       570       3.1       7.6      64.6      9.53
   03/21/2020 13:10      63.8      62.6       50     44.3      0.00     12.65      57.5     0.50      1020.6     4.3       S   177   8.5     SSW     207     267       586       2.6       7.1      63.9      9.53
   03/21/2020 13:00      63.0      62.4       50     43.9      0.00     12.65      58.2     0.50      1020.7     5.0     SSE   166   9.1       S     177     267       619       3.1       6.7      64.0      9.53
   03/21/2020 12:50      62.6      60.4       53     43.9      0.00     12.65      58.1     0.50      1020.9     4.2     SSE   166   8.6     SSE     147     267       482       2.4       6.2      63.4      9.53
   03/21/2020 12:40      60.8      60.4       54     43.6      0.00     12.65      58.1     0.50      1021.1     3.9       S   189   6.5     SSW     203     268       118       2.3       5.8      63.1      9.53
   03/21/2020 12:30      61.4      60.5       53     43.9      0.00     12.65      58.0     0.50      1021.1     3.1       S   171   6.8     SSW     211     268        90       1.7       5.4      62.8      9.53
   03/21/2020 12:20      63.2      61.1       52     44.3      0.00     12.65      58.0     0.50      1021.1     2.8     SSE   151   5.0       S     189     268       105       1.6       5.1      62.5      9.54
   03/21/2020 12:10      63.6      62.6       50     44.4      0.00     12.65      57.9     0.50      1021.1     2.6       S   172   6.3       S     189     267       562       1.7       4.9      61.9      9.54
   03/21/2020 12:00      64.6      63.3       52     45.5      0.00     12.65      57.6     0.50      1021.1     3.4       S   179   6.7      SW     218     267       634       2.2       4.6      60.9      9.54
   03/21/2020 11:50      64.5      61.6       53     46.1      0.00     12.65      57.6     0.50      1021.2     1.5       W   266   5.8     SSE     165     266       664       1.0       4.2      60.1      9.54
   03/21/2020 11:40      61.6      59.4       59     45.4      0.00     12.65      57.6     0.50      1021.2     1.3       W   260   3.9     WSW     253     268       332       0.9       4.0      59.6      9.54
   03/21/2020 11:30      60.6      59.6       58     45.0      0.00     12.65      57.7     0.50      1021.2     3.3       W   263   5.7     WSW     252     268       136       1.9       3.9      59.3      9.54
   03/21/2020 11:20      61.5      60.3       57     45.4      0.00     12.65      57.7     0.50      1021.2     1.8     SSW   209   4.2     WNW     285     268       124       1.3       3.6      59.0      9.54
   03/21/2020 11:10      61.7      60.6       57     45.8      0.00     12.65      57.7     0.50      1021.4     1.5      SW   220   3.7     SSW     204     267       444       1.3       3.4      58.5      9.54
   03/21/2020 11:00      61.5      59.9       57     45.2      0.00     12.65      57.4     0.50      1021.4     1.9     NNW   336   3.2     NNW     347     267       377       1.2       3.1      57.9      9.54
   03/21/2020 10:50      61.3      60.1       56     44.8      0.00     12.65      57.5     0.50      1021.3     2.0      SE   124   5.3       E      95     267       387       1.2       3.0      57.4      9.54
   03/21/2020 10:40      60.6      59.5       58     45.1      0.00     12.65      57.5     0.50      1021.3     1.8       W   275   3.9     WSW     258     267       437       1.2       2.8      56.8      9.54
   03/21/2020 10:30      59.6      57.9       62     46.0      0.00     12.65      57.6     0.50      1021.3     1.4      SW   216   3.7      SE     125     268       445       0.9       2.6      56.3      9.54
   03/21/2020 10:20      58.2      57.3       65     46.2      0.00     12.65      57.6     0.50      1021.4     1.6      SW   229   4.2      SW     218     269       219       1.0       2.4      55.9      9.54
   03/21/2020 10:10      58.8      57.9       63     45.8      0.00     12.65      57.7     0.50      1021.4     0.8       W   272   2.5       W     265     269        84       0.6       2.3      55.7      9.54
   03/21/2020 10:00      59.6      58.7       63     46.4      0.00     12.65      57.5     0.50      1021.3     0.7     NNW   340   3.2       N     350     268       228       0.5       2.2      55.2      9.54
   03/21/2020 09:50      59.4      58.6       63     46.6      0.00     12.65      58.0     0.50      1021.3     1.2      NE    44   3.3     NNE      21     268       339       0.6       2.1      55.2      9.54
   03/21/2020 09:40      59.3      58.3       66     47.4      0.00     12.65      58.0     0.50      1021.3     0.8     ESE   104   2.5      NE      37     268       306       0.4       2.0      54.9      9.54
   03/21/2020 09:30      58.3      57.0       68     47.3      0.00     12.65      58.0     0.50      1021.2     0.7     NNE    25   2.5       E      98     269       283       0.4       1.9      54.6      9.54
   03/21/2020 09:20      57.1      56.3       70     47.0      0.00     12.65      58.0     0.50      1021.3     0.9       N   350   3.1     NNW     345     269       262       0.2       1.8      54.3      9.54
   03/21/2020 09:10      56.8      55.4       72     47.2      0.00     12.65      58.0     0.50      1021.4     1.0       N   359   2.3     WNW     287     270       240       0.2       1.8      54.2      9.55
   03/21/2020 09:00      55.4      54.1       76     47.4      0.00     12.65      57.7     0.50      1021.5     0.5     NNW   337   1.8       N       0     272       189       0.3       1.8      53.9      9.55
   03/21/2020 08:50      54.6      54.0       76     47.0      0.00     12.65      57.8     0.50      1021.4     2.0       W   262   4.7     WSW     254     276        89       1.0       1.7      53.8      9.55
   03/21/2020 08:40      54.7      54.0       76     47.0      0.00     12.65      57.9     0.50      1021.4     2.2       W   261   4.3       W     266     279       133       1.2       1.5      53.7      9.55
   03/21/2020 08:30      54.7      53.6       78     47.5      0.00     12.65      57.9     0.50      1021.3     0.4     WNW   299   2.0      NW     316     281       104       0.0       1.4      53.7      9.55
   03/21/2020 08:20      53.8      52.7       80     47.3      0.00     12.65      58.0     0.50      1021.3     0.9       W   270   2.2     SSW     212     285        72       0.3       1.3      53.9      9.55
   03/21/2020 08:10      53.0      52.5       80     46.9      0.00     12.65      58.0     0.50      1021.2     1.9      SW   226   3.7      SW     232     288        84       1.1       1.3      53.8      9.55
   03/21/2020 08:00      53.2      52.5       81     47.3      0.00     12.65      58.0     0.50      1021.1     0.6     WSW   244   2.4     WSW     241     292        55       0.2       1.1      53.6      9.55
   03/21/2020 07:50      52.5      51.8       84     47.4      0.00     12.65      58.0     0.50      1021.1     0.2     NNE    14   1.1     NNW     335     295        24       0.0       1.1      53.6      9.55
   03/21/2020 07:40      51.9      50.6       86     47.5      0.00     12.65      58.0     0.50      1021.0     0.2     ENE    73   1.2     ENE      58     296        13       0.0       1.1      53.6      9.55
   03/21/2020 07:30      50.8      50.2       88     47.0      0.00     12.65      58.1     0.50      1020.9     1.2      SW   236   3.0     SSW     203     298         9       0.4       1.1      53.6      9.55
   03/21/2020 07:20      50.4      49.9       89     47.0      0.00     12.65      58.1     0.50      1020.9     0.9     SSW   196   2.3      SW     226     304        -2       0.3       1.0      53.5      9.55
   03/21/2020 07:10      50.1      49.3       90     46.9      0.00     12.65      58.1     0.50      1020.9     1.3     SSW   202   4.2     SSW     202     313       -12       0.6       0.9      53.6      9.55
   03/21/2020 07:00      49.4      48.7       90     46.4      0.00     12.65      57.5     0.50      1020.8     0.8      SW   220   2.8     WSW     248     319       -10       0.2       0.8      53.2      9.55
   03/21/2020 06:50      49.0      48.4       90     45.9      0.00     12.65      57.5     0.50      1020.8     0.7     SSE   160   1.3       S     170     321       -29       0.0       0.8      53.4      9.55
   03/21/2020 06:40      49.2      48.9       89     46.1      0.00     12.65      57.5     0.50      1020.7     1.1       S   188   1.7     SSW     198     317       -39       0.5       0.8      53.6      9.55
   03/21/2020 06:30      49.8      49.2       89     46.4      0.00     12.65      57.5     0.50      1020.5     0.2     SSE   158   0.9     SSE     157     312       -39       0.2       0.7      53.7      9.56
   03/21/2020 06:20      50.1      49.7       89     46.7      0.00     12.65      57.8     0.50      1020.4     0.3       E    89   1.0      NE      36     306       -31       0.0       0.7      54.1      9.56
   03/21/2020 06:10      50.4      49.9       88     46.8      0.00     12.65      58.0     0.50      1020.2     0.1      NW   311   0.8       S     174     303       -31       0.0       0.7      54.4      9.56
   03/21/2020 06:00      50.6      50.2       88     47.0      0.00     12.65      58.0     0.50      1020.1     0.0       S   171   0.9       S     191     298       -26       0.0       0.7      54.5      9.56
   03/21/2020 05:50      50.9      50.5       88     47.3      0.00     12.65      58.0     0.50      1020.1     0.0     SSE   153   0.6      SE     142     298       -16       0.0       0.7      54.5      9.56
   03/21/2020 05:40      50.8      50.3       89     47.4      0.00     12.65      58.1     0.50      1020.0     0.2      SW   225   1.5     WSW     252     299       -19       0.0       0.7      54.5      9.56
   03/21/2020 05:30      50.5      50.1       89     47.3      0.00     12.65      58.1     0.50      1020.0     0.2       S   175   1.1      SW     216     303       -13       0.0       0.7      54.6      9.56
   03/21/2020 05:20      50.3      50.0       89     47.1      0.00     12.65      58.0     0.50      1019.8     0.2     SSE   167   0.9       S     172     307       -12       0.0       0.7      54.7      9.56
   03/21/2020 05:10      50.3      49.9       89     47.0      0.00     12.65      58.1     0.50      1019.7     0.0     SSE   148   0.7     SSE     147     309       -11       0.0       0.7      54.7      9.56
   03/21/2020 05:00      50.5      50.0       89     47.1      0.00     12.65      58.3     0.50      1019.7     0.2     SSE   165   1.1       S     176     311       -22       0.1       0.7      54.8      9.56
   03/21/2020 04:50      50.5      50.1       90     47.4      0.00     12.65      58.3     0.50      1019.7     0.5       S   186   1.4     SSW     213     311       -24       0.0       0.7      54.9      9.56
   03/21/2020 04:40      50.3      50.0       90     47.2      0.00     12.65      58.3     0.50      1019.8     0.2     SSE   154   0.7      SE     139     311       -12       0.0       0.7      55.0      9.56
   03/21/2020 04:30      50.3      49.9       90     47.1      0.00     12.65      58.4     0.50      1019.8     0.5       S   178   1.1       S     175     313       -14       0.2       0.7      55.1      9.56
   03/21/2020 04:20      50.3      49.8       89     46.9      0.00     12.65      58.4     0.50      1019.9     0.4       S   190   1.1       S     180     313       -22       0.0       0.6      55.2      9.56
   03/21/2020 04:10      50.7      50.1       88     47.0      0.00     12.65      58.3     0.50      1019.9     0.3       S   180   1.1       S     180     313       -31       0.1       0.6      55.3      9.56
   03/21/2020 04:00      51.5      50.6       88     47.5      0.00     12.65      58.8     0.50      1020.0     0.6       S   185   1.4       S     173     309       -40       0.2       0.6      56.0      9.56
   03/21/2020 03:50      51.9      51.2       88     48.0      0.00     12.65      58.9     0.50      1020.1     0.5       S   178   1.1       S     186     306       -41       0.0       0.6      56.1      9.56
   03/21/2020 03:40      51.9      51.7       88     48.3      0.00     12.65      58.8     0.50      1020.3     0.4       S   191   1.5       S     188     302       -27       0.0       0.6      56.3      9.56
   03/21/2020 03:30      51.9      51.5       87     48.1      0.00     12.65      58.9     0.50      1020.5     1.3       S   185   1.8       S     176     304       -11       0.2       0.6      56.3      9.56
   03/21/2020 03:20      52.2      51.6       86     47.8      0.00     12.65      58.3     0.50      1020.5     0.5     SSE   147   1.4      SE     145     306       -15       0.0       0.5      56.0      9.57
   03/21/2020 03:10      52.5      52.1       85     47.9      0.00     12.65      57.7     0.50      1020.5     0.0       N     0   0.0     WSW     250     308       -22       0.0       0.5      55.6      9.57
   03/21/2020 03:00      52.7      52.3       85     48.1      0.00     12.65      58.4     0.50      1020.6     0.0       W   273   0.5       W     271     309       -25       0.0       0.5      56.2      9.57
   03/21/2020 02:50      52.7      52.2       85     47.9      0.00     12.65      58.4     0.50      1020.7     2.2      SW   227   3.5      SW     225     311       -14       1.0       0.5      56.2      9.57
   03/21/2020 02:40      52.7      52.4       84     47.8      0.00     12.65      58.4     0.50      1020.8     0.9     WNW   297   2.7      NW     318     326       -15       0.2       0.4      56.3      9.57
   03/21/2020 02:30      52.5      52.0       83     47.5      0.00     12.65      58.4     0.50      1021.0     0.7     NNW   334   2.4      NW     311     275       -13       0.2       0.3      56.4      9.57
   03/21/2020 02:20      52.6      52.2       82     47.2      0.00     12.65      58.4     0.50      1021.0     0.2     ENE    65   1.3     ENE      60     273       -17       0.0       0.3      56.5      9.57
   03/21/2020 02:10      52.5      52.1       83     47.3      0.00     12.65      58.4     0.50      1020.9     1.4     SSW   202   2.9       S     191     273       -22       0.4       0.3      56.6      9.57
   03/21/2020 02:00      52.4      52.1       83     47.4      0.00     12.65      59.0     0.50      1021.0     0.7      NW   314   1.9       S     187     273       -20       0.2       0.2      57.1      9.57
   03/21/2020 01:50      52.1      51.8       84     47.3      0.00     12.65      59.1     0.50      1021.1     0.0     ESE   102   0.7     ESE     114     273       -23       0.0       0.2      57.3      9.57
   03/21/2020 01:40      52.2      51.9       84     47.4      0.00     12.65      59.0     0.50      1021.2     0.6     SSE   150   1.5     SSE     159     273       -25       0.0       0.2      57.3      9.57
   03/21/2020 01:30      52.2      51.9       84     47.5      0.00     12.65      59.1     0.50      1021.1     1.2     SSW   211   2.0     SSW     208     273       -26       0.2       0.2      57.4      9.57
   03/21/2020 01:20      52.4      51.8       84     47.4      0.00     12.65      59.1     0.50      1021.0     0.6     SSW   212   1.3      SW     228     273       -34       0.0       0.1      57.6      9.57
   03/21/2020 01:10      52.4      52.1       84     47.5      0.00     12.65      59.1     0.50      1021.1     0.4       S   172   1.5       S     187     273       -40       0.0       0.1      57.6      9.57
   03/21/2020 01:00      52.4      52.1       84     47.5      0.00     12.65      58.2     0.50      1021.0     0.5     SSE   162   1.8     SSE     162     273       -32       0.3       0.1      57.0      9.57
   03/21/2020 00:50      52.7      52.1       83     47.4      0.00     12.65      58.2     0.50      1021.0     0.7       S   175   1.4       S     191     273       -36       0.2       0.0      57.1      9.57
   03/21/2020 00:40      53.0      52.5       82     47.5      0.00     12.65      58.2     0.50      1021.0     0.8       S   185   1.4     SSW     211     273       -32       0.2       0.0      57.3      9.57
   03/21/2020 00:30      53.0      52.6       82     47.6      0.00     12.65      58.2     0.50      1021.0     0.8     WSW   250   2.0       W     265     273       -32       0.0       0.0      57.4      9.57
   03/21/2020 00:20      52.9      52.2       83     47.5      0.00     12.65      58.2     0.50      1021.0     0.6     WSW   246   2.3     WSW     252     273       -33       0.0       0.0      57.5      9.57
   03/21/2020 00:10      52.6      52.2       82     47.1      0.00     12.65      58.1     0.50      1021.0     0.2     SSW   196   0.6     SSW     199     273       -32       0.0       0.0      57.6      9.57
   03/21/2020 00:00      52.9      52.5       81     47.0      0.00     12.65      58.3     0.50      1021.0     0.4     SSW   205   1.4     SSW     207     272       -30       0.0      13.6      57.9      9.57
   03/20/2020 23:50      53.0      52.7       80     46.8      0.00     12.65      58.7     0.50      1021.1     0.1       S   182   0.9       S     182     273       -31       0.0      13.6      58.4      9.57
   03/20/2020 23:40      53.3      52.7       79     46.8      0.00     12.65      59.1     0.50      1021.2     0.5       S   191   1.5     SSW     193     272       -29       0.0      13.6      58.9      9.57
   03/20/2020 23:30      53.3      53.0       78     46.5      0.00     12.65      59.1     0.50      1021.3     0.6     SSW   198   1.4     SSW     200     272       -28       0.0      13.6      59.0      9.57
   03/20/2020 23:20      53.3      53.1       78     46.5      0.00     12.65      59.1     0.50      1021.2     1.2     SSW   201   1.6     SSW     198     272       -29       0.2      13.5      59.2      9.57
   03/20/2020 23:10      53.8      53.2       77     46.5      0.00     12.65      59.1     0.50      1021.2     0.2       S   177   0.7       S     184     272       -29       0.0      13.5      59.2      9.57
   03/20/2020 23:00      54.0      53.5       76     46.5      0.00     12.65      58.3     0.50      1021.3     0.0      SE   136   0.6      SE     136     272       -29       0.0      13.5      58.7      9.57
   03/20/2020 22:50      54.6      53.9       74     46.2      0.00     12.65      58.3     0.50      1021.4     0.2      SE   145   0.8      SE     140     271       -29       0.0      13.5      58.8      9.57
   03/20/2020 22:40      54.9      54.4       73     46.1      0.00     12.65      58.3     0.50      1021.4     0.0     WSW   236   1.1     WNW     285     271       -28       0.0      13.5      58.9      9.57
   03/20/2020 22:30      54.8      54.5       73     46.0      0.00     12.65      58.3     0.50      1021.4     0.4     SSW   194   1.5       S     191     271       -30       0.0      13.5      59.0      9.58
   03/20/2020 22:20      54.8      54.5       73     46.3      0.00     12.65      58.2     0.50      1021.4     1.0       S   189   1.9       S     190     271       -28       0.3      13.5      59.2      9.58
   03/20/2020 22:10      55.2      54.6       73     46.6      0.00     12.65      58.2     0.50      1021.4     0.2       S   172   1.2       S     189     271       -24       0.0      13.4      59.3      9.58
   03/20/2020 22:00      55.4      55.1       72     46.5      0.00     12.65      58.7     0.50      1021.4     1.2     SSW   200   2.2     SSW     210     271       -25       0.5      13.4      59.8      9.58
   03/20/2020 21:50      55.3      54.9       72     46.3      0.00     12.65      58.8     0.50      1021.3     0.9     SSW   207   1.8       S     189     271       -28       0.1      13.4      59.9      9.58
   03/20/2020 21:40      55.3      55.0       72     46.3      0.00     12.65      58.8     0.50      1021.2     1.2     SSW   197   1.9     SSW     203     271       -26       0.2      13.3      60.0      9.58
   03/20/2020 21:30      55.4      55.1       72     46.4      0.00     12.65      58.8     0.50      1021.2     0.4       S   190   0.9     SSW     198     271       -22       0.0      13.3      60.1      9.58
   03/20/2020 21:20      55.4      55.1       71     45.9      0.00     12.65      58.7     0.50      1021.1     0.9     SSW   198   1.4       S     190     271       -18       0.1      13.3      60.2      9.58
   03/20/2020 21:10      55.4      55.0       71     46.0      0.00     12.65      58.8     0.50      1021.0     0.8       S   188   1.7     SSW     202     271       -23       0.1      13.3      60.4      9.58
   03/20/2020 21:00      55.4      55.1       71     46.0      0.00     12.65      57.8     0.50      1020.9     1.1     SSW   199   1.9      SW     229     270       -23       0.3      13.3      59.7      9.58
   03/20/2020 20:50      55.5      55.2       71     46.0      0.00     12.65      57.7     0.50      1020.9     1.3      SW   220   3.1     WSW     252     270       -25       0.2      13.2      59.8      9.58
   03/20/2020 20:40      55.8      55.4       70     45.9      0.00     12.65      57.7     0.50      1020.8     1.0      SW   221   2.2      SW     225     270       -31       0.0      13.2      60.0      9.58
   03/20/2020 20:30      55.8      55.5       69     45.8      0.00     12.65      57.7     0.50      1020.7     1.4     WSW   245   2.5       W     259     270       -31       0.0      13.2      60.1      9.58
   03/20/2020 20:20      55.8      55.5       68     45.3      0.00     12.65      57.7     0.50      1020.7     0.9     SSW   205   1.6     SSW     196     270       -26       0.0      13.2      60.3      9.58
   03/20/2020 20:10      55.9      55.5       68     45.3      0.00     12.65      57.6     0.50      1020.6     0.7     SSW   203   1.3      SW     220     270       -29       0.0      13.2      60.4      9.58
   03/20/2020 20:00      55.9      55.6       67     44.8      0.00     12.65      58.1     0.50      1020.6     0.4     SSW   210   1.2     SSW     202     270       -29       0.0      13.1      60.8      9.58
   03/20/2020 19:50      56.1      55.7       67     45.1      0.00     12.65      58.1     0.50      1020.6     0.9       S   182   1.6       S     173     270       -30       0.0      13.1      60.9      9.58
   03/20/2020 19:40      56.1      55.8       67     45.1      0.00     12.65      58.0     0.50      1020.6     1.5       S   182   2.1       S     188     270       -29       0.6      13.1      61.1      9.58
   03/20/2020 19:30      56.3      56.0       67     45.2      0.00     12.65      58.0     0.50      1020.6     1.6       S   178   3.2     SSW     196     270       -30       0.8      13.0      61.3      9.58
   03/20/2020 19:20      56.6      56.2       66     45.1      0.00     12.65      57.9     0.50      1020.6     1.8       S   182   2.9       S     186     270       -35       0.9      12.9      61.4      9.59
   03/20/2020 19:10      57.1      56.5       65     45.1      0.00     12.65      57.9     0.50      1020.6     1.5       S   180   3.2      SE     141     270       -36       0.7      12.8      61.6      9.59
   03/20/2020 19:00      57.5      57.0       63     44.7      0.00     12.65      58.5     0.50      1020.5     1.5       S   181   3.4     SSW     212     270       -35       0.6      12.6      62.4      9.59
   03/20/2020 18:50      57.7      57.4       61     44.0      0.00     12.65      58.5     0.50      1020.5     0.9     SSE   168   2.9       S     180     270       -33       0.3      12.5      62.6      9.59
   03/20/2020 18:40      57.9      57.5       58     42.9      0.00     12.65      58.5     0.50      1020.5     2.0     SSE   159   4.1      SE     136     269       -29       0.6      12.5      62.8      9.59
   03/20/2020 18:30      57.9      57.6       61     44.1      0.00     12.65      58.4     0.50      1020.5     2.6       S   179   4.8       S     173     269       -21       1.3      12.4      63.0      9.59
   03/20/2020 18:20      58.3      57.6       63     45.3      0.00     12.65      58.3     0.50      1020.6     3.1       S   190   5.3     SSW     213     270        -7       1.8      12.2      63.3      9.59
   03/20/2020 18:10      59.4      58.2       61     45.4      0.00     12.65      58.3     0.50      1020.6     2.6     SSW   199   4.7      SW     216     269        -4       1.4      11.9      63.5      9.59
   03/20/2020 18:00      61.0      59.6       54     43.9      0.00     12.65      57.7     0.50      1020.6     1.2     SSE   160   3.9      SE     128     269        12       0.5      11.6      63.4      9.60
   03/20/2020 17:50      61.3      60.2       54     43.8      0.00     12.65      57.7     0.50      1020.6     0.3      NE    49   1.5     ENE      69     268        89       0.0      11.6      63.4      9.60
   03/20/2020 17:40      60.5      59.8       57     44.8      0.00     12.65      57.6     0.50      1020.7     1.3      SE   145   3.4       E      83     268       113       0.8      11.5      63.3      9.60
   03/20/2020 17:30      60.9      59.8       57     45.0      0.00     12.65      57.6     0.50      1020.8     1.7      SW   219   4.4     SSW     205     269       106       1.2      11.4      63.2      9.60
   03/20/2020 17:20      60.7      59.8       57     45.1      0.00     12.65      57.6     0.50      1020.9     0.8      SE   133   2.7     ENE      63     269       161       0.7      11.2      63.2      9.60
   03/20/2020 17:10      59.8      59.4       57     44.6      0.00     12.65      57.5     0.50      1021.0     0.7     SSW   213   1.7     NNE      19     269        96       0.3      11.1      63.1      9.60
   03/20/2020 17:00      59.6      58.9       58     44.5      0.00     12.65      57.7     0.50      1021.0     1.0     ESE   106   3.4      SE     133     268       117       0.5      11.1      63.2      9.60
   03/20/2020 16:50      59.4      58.3       61     45.5      0.00     12.65      57.7     0.50      1021.2     1.5       S   183   3.7       S     191     269       129       1.1      11.0      63.2      9.60
   03/20/2020 16:40      59.4      58.3       61     45.5      0.00     12.65      57.7     0.50      1021.2     2.0       S   190   3.8     SSW     193     269       130       1.2      10.8      63.1      9.60
   03/20/2020 16:30      59.1      58.0       61     45.0      0.00     12.65      57.6     0.50      1021.3     0.9       E    93   4.0      SE     132     269       132       0.7      10.6      63.0      9.60
   03/20/2020 16:20      58.6      58.1       62     45.3      0.00     12.65      57.6     0.50      1021.4     2.7     SSE   159   5.5     SSE     147     269       132       1.4      10.5      63.0      9.60
   03/20/2020 16:10      58.5      57.8       61     45.0      0.00     12.65      57.5     0.50      1021.6     2.2     SSE   159   5.6     SSE     151     269       150       1.1      10.2      62.9      9.60
   03/20/2020 16:00      58.0      57.6       63     45.2      0.00     12.65      56.8     0.50      1021.6     3.1       S   171   5.3      SE     145     269        85       1.9      10.1      62.0      9.61
   03/20/2020 15:50      58.3      57.7       63     45.5      0.00     12.65      56.8     0.50      1021.6     4.0       S   182   6.9     SSW     194     269        76       2.3       9.7      62.1      9.61
   03/20/2020 15:40      59.3      58.2       61     45.3      0.00     12.65      56.8     0.50      1021.7     4.6       S   186   8.3       S     185     269        98       2.8       9.3      62.2      9.61
   03/20/2020 15:30      59.4      59.0       56     43.5      0.00     12.65      56.7     0.50      1021.8     3.1       S   171   6.7     SSW     203     268       131       2.0       8.9      62.2      9.61
   03/20/2020 15:20      60.1      59.4       54     42.9      0.00     12.65      56.7     0.50      1021.8     2.7     SSE   164   6.9       S     175     268       153       1.6       8.6      62.2      9.61
   03/20/2020 15:10      59.6      59.3       53     42.6      0.00     12.65      56.7     0.50      1021.7     3.0     ESE   119   6.5       E      92     268       161       1.8       8.3      62.0      9.61
   03/20/2020 15:00      60.4      59.4       54     43.0      0.00     12.65      57.0     0.50      1021.8     2.8      SE   133   6.2       S     173     268       188       1.7       8.0      62.4      9.62
   03/20/2020 14:50      59.9      59.4       54     43.0      0.00     12.65      57.0     0.50      1021.9     3.1     ESE   114   6.7     ENE      63     268       218       1.7       7.7      62.2      9.61
   03/20/2020 14:40      59.8      59.1       56     43.6      0.00     12.65      57.0     0.50      1022.0     4.2     SSE   167   7.5       S     183     268       237       2.7       7.5      62.0      9.62
   03/20/2020 14:30      60.3      59.1       55     43.7      0.00     12.65      57.0     0.50      1022.2     3.3     SSE   150   9.7      SE     143     268       235       1.9       7.0      61.8      9.62
   03/20/2020 14:20      60.2      59.8       56     44.3      0.00     12.65      57.0     0.50      1022.3     1.9     SSE   166   7.0       S     181     268       280       1.2       6.7      61.6      9.62
   03/20/2020 14:10      60.1      58.6       57     44.0      0.00     12.65      56.9     0.50      1022.4     2.9     SSE   162   5.8     SSW     208     268       345       1.6       6.5      61.1      9.62
   03/20/2020 14:00      59.3      58.5       57     43.5      0.00     12.65      57.3     0.50      1022.6     3.5     SSE   165   6.2       S     177     268       290       2.1       6.2      61.5      9.62
   03/20/2020 13:50      58.7      58.3       56     43.0      0.00     12.65      57.3     0.50      1022.7     2.8     SSE   147   5.5      SE     138     269       189       1.7       5.9      61.2      9.62
   03/20/2020 13:40      59.3      58.3       56     43.0      0.00     12.65      57.3     0.50      1022.7     4.0      SE   135   8.9      SE     131     268       241       2.0       5.6      60.8      9.63
   03/20/2020 13:30      59.4      58.6       57     43.5      0.00     12.65      57.3     0.50      1022.9     3.2     SSE   168   6.8       S     190     268       326       2.0       5.3      60.6      9.63
   03/20/2020 13:20      59.6      59.0       56     43.4      0.00     12.65      57.2     0.50      1023.0     1.8     SSE   159   4.9       S     178     268       240       0.9       4.9      60.3      9.63
   03/20/2020 13:10      59.3      58.8       55     42.8      0.00     12.65      57.1     0.50      1023.1     2.7     ENE    69   7.6      SE     126     268       191       1.3       4.8      60.1      9.63
   03/20/2020 13:00      58.7      58.4       55     42.5      0.00     12.65      56.7     0.50      1023.2     2.4     ESE   116   6.1      NE      49     269       226       1.5       4.6      59.5      9.63
   03/20/2020 12:50      58.7      57.9       56     42.5      0.00     12.65      56.6     0.50      1023.3     3.0     ESE   102   7.9      SE     124     268       204       1.6       4.3      59.3      9.63
   03/20/2020 12:40      58.5      58.0       56     42.5      0.00     12.65      56.6     0.50      1023.4     3.1     ESE   113   6.1      SE     130     269       233       1.6       4.1      59.0      9.63
   03/20/2020 12:30      58.4      57.4       56     42.1      0.00     12.65      56.7     0.50      1023.4     3.3      SE   136   6.3     SSE     147     269       247       1.5       3.8      58.6      9.63
   03/20/2020 12:20      58.1      57.5       55     41.6      0.00     12.65      56.6     0.50      1023.5     3.1      SE   125   6.0      SE     124     269       128       1.5       3.6      58.4      9.64
   03/20/2020 12:10      58.8      57.9       54     41.6      0.00     12.65      56.6     0.50      1023.5     2.7       E    90   6.4      SE     134     269       126       1.5       3.3      58.5      9.64
   03/20/2020 12:00      58.6      57.9       56     42.7      0.00     12.65      56.8     0.50      1023.5     1.0     NNE    19   2.3     NNW     341     269       153       0.2       3.1      58.2      9.64
   03/20/2020 11:50      58.1      57.4       58     43.0      0.00     12.65      56.7     0.50      1023.5     1.4     NNE    31   3.2       N     350     269       168       0.6       3.0      57.9      9.64
   03/20/2020 11:40      57.7      57.2       58     42.9      0.00     12.65      56.8     0.50      1023.7     1.6      NE    45   3.0      NE      42     269       150       0.6       2.9      57.7      9.64
   03/20/2020 11:30      57.4      57.0       59     43.0      0.00     12.65      56.7     0.50      1023.7     1.5      NE    52   3.0      NE      37     269       111       0.6       2.8      57.5      9.64
   03/20/2020 11:20      57.2      56.6       59     42.6      0.00     12.65      56.8     0.50      1023.8     0.9       E    91   2.5     ESE     113     269        92       0.6       2.7      57.4      9.64
   03/20/2020 11:10      57.7      56.8       59     43.0      0.00     12.65      56.8     0.50      1023.7     1.7     ENE    77   5.5     ENE      61     269       101       0.8       2.6      57.4      9.65
   03/20/2020 11:00      57.7      57.0       59     43.2      0.00     12.65      56.7     0.50      1023.7     1.9      NE    40   4.4     ENE      66     269       157       0.7       2.5      57.2      9.65
   03/20/2020 10:50      58.0      56.9       59     43.2      0.00     12.65      56.7     0.50      1023.8     3.0       E    88   7.5     ESE     121     268       279       1.7       2.4      56.8      9.65
   03/20/2020 10:40      58.6      57.5       59     43.9      0.00     12.65      56.5     0.50      1023.9     2.4     ENE    75   4.8     ESE     103     268       438       1.4       2.1      56.3      9.65
   03/20/2020 10:30      57.5      56.8       61     43.9      0.00     12.65      56.6     0.50      1023.8     2.5     ENE    77   5.6      SE     124     268       487       0.9       1.9      55.7      9.65
   03/20/2020 10:20      57.4      56.4       63     44.3      0.00     12.65      56.5     0.50      1023.8     2.5      NE    49   4.8      NE      45     268       484       0.8       1.7      55.2      9.65
   03/20/2020 10:10      57.1      55.4       65     44.8      0.00     12.65      56.6     0.50      1023.8     1.8     ENE    57   5.5     ENE      70     269       381       0.9       1.6      54.8      9.66
   03/20/2020 10:00      55.6      55.1       66     44.2      0.00     12.65      56.5     0.50      1023.8     2.2      NE    51   4.6     ENE      62     270       281       0.6       1.5      54.4      9.66
   03/20/2020 09:50      55.6      55.0       66     44.2      0.00     12.65      56.7     0.50      1023.8     1.9      NE    48   4.6     ENE      59     270       305       0.7       1.4      53.9      9.66
   03/20/2020 09:40      56.1      55.2       66     44.7      0.00     12.65      56.9     0.50      1023.8     1.4      NE    51   4.5      NE      45     270       260       0.6       1.3      53.7      9.66
   03/20/2020 09:30      55.5      53.3       70     44.8      0.00     12.65      56.9     0.50      1023.7     1.6      NE    55   3.9     ESE     111     269       395       0.6       1.2      53.5      9.66
   03/20/2020 09:20      54.9      53.3       69     44.2      0.00     12.65      56.9     0.50      1023.7     2.4     ESE   103   5.9     ESE     111     271       151       1.2       1.1      53.3      9.66
   03/20/2020 09:10      54.9      53.7       70     44.6      0.00     12.65      57.0     0.50      1023.6     2.4     ENE    74   4.6     ESE     116     270       322       0.9       0.9      53.2      9.66
   03/20/2020 09:00      54.0      53.1       72     44.6      0.00     12.65      56.8     0.50      1023.5     2.4     ESE   108   6.8      SE     124     273       307       1.4       0.7      52.9      9.67
   03/20/2020 08:50      53.7      52.2       73     44.7      0.00     12.65      56.9     0.50      1023.4     2.7       E    89   6.4      SE     136     278       319       1.1       0.5      52.8      9.67
   03/20/2020 08:40      52.5      51.8       78     45.7      0.00     12.65      56.9     0.50      1023.2     1.2     ENE    74   3.6     ESE     108     285       168       0.4       0.3      52.6      9.67
   03/20/2020 08:30      52.0      51.2       86     47.5      0.00     12.65      56.9     0.50      1023.1     0.7     ENE    70   3.2       E      87     291       156       0.4       0.2      52.5      9.67
   03/20/2020 08:20      51.3      50.3       90     48.1      0.00     12.65      57.0     0.50      1023.0     0.2     NNE    14   1.2     NNE      28     296       156       0.0       0.2      52.3      9.67
   03/20/2020 08:10      50.2      49.7       91     47.5      0.00     12.65      57.0     0.50      1022.8     0.0       N     0   0.0      SE     142     303        95       0.0       0.2      52.1      9.68
   03/20/2020 08:00      49.7      48.8       92     47.0      0.00     12.65      56.4     0.50      1022.7     0.0       N     0   0.0      SE     134     311        73       0.0       0.2      51.7      9.68
   03/20/2020 07:50      48.9      47.6       93     46.4      0.00     12.65      56.4     0.50      1022.6     0.2      SE   127   1.0      SE     131     323        67       0.0       0.2      51.6      9.68
   03/20/2020 07:40      47.6      47.0       93     45.3      0.00     12.65      56.4     0.50      1022.6     0.4     SSE   156   1.3       S     185     337        35       0.0       0.2      51.5      9.68
   03/20/2020 07:30      47.0      46.4       93     44.5      0.00     12.65      56.4     0.50      1022.4     0.5     SSE   146   1.8      SE     145     341        17       0.0       0.2      51.6      9.68
   03/20/2020 07:20      47.1      46.4       92     44.5      0.00     12.65      56.5     0.50      1022.3     0.2     SSE   152   1.5     SSE     155     336         6       0.0       0.2      51.7      9.69
   03/20/2020 07:10      47.2      46.8       92     44.8      0.00     12.65      56.5     0.50      1022.2     0.0     SSE   157   0.5     SSE     168     343         2       0.0       0.2      51.9      9.69
   03/20/2020 07:00      47.1      47.0       92     44.9      0.00     12.65      56.9     0.50      1022.1     0.0       N     0   0.0       S     170     343        -3       0.0       0.2      52.3      9.69
   03/20/2020 06:50      47.3      46.9       92     44.8      0.00     12.65      56.9     0.50      1022.0     0.0       N     0   0.0     SSE     161     343        -5       0.0       0.2      52.3      9.69
   03/20/2020 06:40      47.6      46.9       92     44.9      0.00     12.65      56.9     0.50      1021.9     0.0       N     0   0.0     SSE     155     345        -6       0.0       0.2      52.3      9.70
   03/20/2020 06:30      47.9      47.5       91     45.2      0.00     12.65      56.9     0.50      1021.8     0.0       N     0   0.0     SSE     151     343        -6       0.0       0.2      52.6      9.70
   03/20/2020 06:20      48.0      47.6       91     45.4      0.00     12.65      57.0     0.50      1021.9     0.0       N     0   0.0     SSE     148     339        -6       0.0       0.2      52.8      9.70
   03/20/2020 06:10      48.3      47.7       91     45.4      0.00     12.65      56.9     0.50      1021.8     0.0      SE   142   0.5      SE     142     336        -6       0.0       0.2      52.9      9.70
   03/20/2020 06:00      48.6      48.2       91     45.9      0.00     12.65      57.5     0.50      1021.8     0.0      SE   138   0.9      SE     135     335        -7       0.0       0.2      53.4      9.71
   03/20/2020 05:50      48.6      48.3       91     46.0      0.00     12.65      57.6     0.50      1021.9     0.0      SE   131   0.8      SE     133     330        -6       0.0       0.2      53.5      9.71
   03/20/2020 05:40      48.9      48.5       91     46.3      0.00     12.65      57.5     0.50      1021.9     0.0       N     0   0.0     ESE     114     332        -6       0.0       0.2      53.6      9.71
   03/20/2020 05:30      49.0      48.7       91     46.4      0.00     12.65      57.6     0.50      1022.0     0.0       N     0   0.0      SE     142     334        -5       0.0       0.2      53.7      9.71
   03/20/2020 05:20      49.0      48.7       91     46.4      0.00     12.65      57.6     0.50      1022.0     0.0       N     0   0.0      SE     143     337        -5       0.0       0.2      53.8      9.72
   03/20/2020 05:10      49.0      48.7       91     46.4      0.00     12.65      57.5     0.50      1022.0     0.0       N     0   0.0      NE      55     339        -6       0.0       0.2      53.8      9.72
   03/20/2020 05:00      49.0      48.7       91     46.4      0.00     12.65      57.2     0.50      1022.0     0.0       N     0   0.0      SE     126     322        -6       0.0       0.2      53.5      9.72
   03/20/2020 04:50      49.0      48.7       91     46.4      0.00     12.65      57.2     0.50      1022.0     0.0       N     0   0.0      SE     126     318        -6       0.0       0.2      53.5      9.72
   03/20/2020 04:40      48.9      48.7       92     46.5      0.00     12.65      57.2     0.50      1021.9     0.0       N     0   0.0      SE     126     319        -6       0.0       0.2      53.7      9.73
   03/20/2020 04:30      49.0      48.7       91     46.5      0.00     12.65      57.1     0.50      1021.9     0.0       N     0   0.0       E      83     320        -6       0.0       0.2      53.7      9.73
   03/20/2020 04:20      49.0      48.8       92     46.5      0.00     12.65      57.1     0.50      1021.9     0.0       N     0   0.0     ESE     103     321        -6       0.0       0.2      53.8      9.73
   03/20/2020 04:10      49.0      48.7       92     46.5      0.00     12.65      57.2     0.50      1021.9     0.0     ESE   106   0.3     ESE     105     323        -6       0.0       0.2      53.9      9.74
   03/20/2020 04:00      49.0      48.7       92     46.5      0.00     12.65      57.4     0.50      1021.9     0.0       N     0   0.0     ESE     119     326        -6       0.0       0.2      53.9      9.74
   03/20/2020 03:50      49.2      48.9       91     46.7      0.00     12.65      57.4     0.50      1021.9     0.0       N     0   0.0     ESE     103     328        -6       0.0       0.2      54.0      9.74
   03/20/2020 03:40      49.4      49.0       92     46.9      0.00     12.65      58.0     0.50      1022.0     0.0       N     0   0.0      SE     135     331        -6       0.0       0.2      54.7      9.75
   03/20/2020 03:30      49.5      49.1       92     46.9      0.00     12.65      57.9     0.50      1022.1     0.0       N     0   0.0     ENE      70     337        -6       0.0       0.2      54.7      9.75
   03/20/2020 03:20      49.4      49.1       92     46.9      0.00     12.65      58.0     0.50      1022.2     0.0       E    84   0.9       E      87     320        -6       0.0       0.2      54.9      9.75
   03/20/2020 03:10      49.5      49.1       92     47.0      0.00     12.65      58.0     0.50      1022.2     0.6     ESE   122   1.2      SE     141     324        -5       0.0       0.2      54.9      9.75
   03/20/2020 03:00      49.6      49.3       92     47.1      0.00     12.65      57.1     0.50      1022.1     0.0       N     0   0.0      NE      41     324        -5       0.0       0.2      54.1      9.76
   03/20/2020 02:50      49.7      49.3       92     47.1      0.00     12.65      57.2     0.50      1022.1     0.0       N     0   0.0       E      81     323        -5       0.0       0.2      54.2      9.76
   03/20/2020 02:40      49.7      49.4       91     47.1      0.00     12.65      57.2     0.50      1022.2     0.0       N     0   0.0      SE     126     324        -5       0.0       0.2      54.3      9.77
   03/20/2020 02:30      49.7      49.4       91     47.1      0.00     12.65      57.1     0.50      1022.2     0.0       N     0   0.0      SE     125     327        -5       0.0       0.2      54.4      9.77
   03/20/2020 02:20      49.7      49.4       91     47.0      0.00     12.65      57.2     0.50      1022.2     0.0       N     0   0.0       N       0     355        -5       0.0       0.2      54.4      9.77
   03/20/2020 02:10      49.6      49.3       91     46.9      0.00     12.65      57.2     0.50      1022.2     0.0       N     0   0.0     ENE      60     360        -5       0.0       0.2      54.5      9.78
   03/20/2020 02:00      49.5      49.2       90     46.7      0.00     12.65      57.5     0.50      1022.3     0.0       N     0   0.0      NE      54     344        -5       0.0       0.2      55.0      9.78
   03/20/2020 01:50      49.5      49.2       90     46.6      0.00     12.65      57.5     0.50      1022.3     0.0       N     0   0.0      NE      54     350        -6       0.0       0.2      55.0      9.78
   03/20/2020 01:40      49.6      49.2       90     46.6      0.00     12.65      57.6     0.50      1022.2     0.0       N     0   0.0      NE      54     354        -6       0.0       0.2      55.1      9.79
   03/20/2020 01:30      49.5      49.2       90     46.4      0.00     12.65      57.5     0.50      1022.2     0.0       N     0   0.0       N       0     363        -6       0.0       0.2      55.2      9.79
   03/20/2020 01:20      49.4      49.2       89     46.3      0.00     12.65      57.6     0.50      1022.1     0.0       N     0   0.0       N       0     376        -6       0.0       0.2      55.3      9.79
   03/20/2020 01:10      49.4      49.2       89     46.3      0.00     12.65      57.6     0.50      1022.1     0.0       N     0   0.0       N       0     427        -6       0.0       0.2      55.3      9.79
   03/20/2020 01:00      49.5      49.2       89     46.1      0.01     12.65      56.9     0.50      1022.1     0.0       N     0   0.0     ENE      66     422        -6       0.0       0.2      54.7      9.79
   03/20/2020 00:50      49.4      49.2       88     45.9      0.00     12.64      56.9     0.50      1022.2     0.1       E    83   1.5       E      95     480        -6       0.0       0.2      54.8      9.79
   03/20/2020 00:40      49.6      49.2       86     45.5      0.01     12.64      56.9     0.50      1022.2     0.5       E    82   1.9       E      86     480        -6       0.0       0.2      54.8      9.79
   03/20/2020 00:30      49.9      49.4       84     44.9      0.01     12.63      56.9     0.50      1022.2     1.1     ESE   117   2.9      SE     135     489        -7       0.2       0.2      55.0      9.79
   03/20/2020 00:20      50.0      49.7       81     44.3      0.00     12.62      56.9     0.50      1022.1     1.0     ESE   112   2.6     ENE      74     410       -13       0.4       0.1      55.1      9.78
   03/20/2020 00:10      49.9      49.4       81     44.0      0.00     12.62      56.9     0.50      1022.1     1.1       E    95   2.6      SE     125     273       -13       0.3       0.0      55.1      9.79
   03/20/2020 00:00      49.5      49.2       81     43.7      0.00     12.62      57.5     0.50      1022.1     0.9     ESE   102   2.0       E      81     272       -22       0.0      26.3      55.7      9.79
   03/19/2020 23:50      49.2      48.8       81     43.3      0.00     12.62      57.4     0.50      1022.1     0.8      SE   135   1.6     SSE     148     272       -21       0.0      26.3      55.8      9.79
   03/19/2020 23:40      49.3      48.8       80     43.1      0.00     12.62      57.4     0.50      1022.1     0.3     SSE   167   1.0      SE     144     272       -24       0.0      26.3      56.0      9.79
   03/19/2020 23:30      49.4      49.0       79     43.2      0.00     12.62      57.4     0.50      1022.1     0.0       N     0   0.0      SE     131     272       -40       0.0      26.3      56.0      9.80
   03/19/2020 23:20      49.5      49.2       78     42.9      0.00     12.62      57.4     0.50      1022.1     0.0      SE   131   0.6      SE     131     272       -30       0.0      26.3      56.1      9.80
   03/19/2020 23:10      49.6      49.1       79     43.0      0.00     12.62      57.4     0.50      1022.0     0.9       S   180   2.7       S     181     272       -29       0.4      26.3      56.2      9.80
   03/19/2020 23:00      49.4      49.1       79     43.0      0.00     12.62      57.5     0.50      1021.9     0.9       S   173   2.5       S     173     271       -29       0.4      26.2      56.7      9.81
   03/19/2020 22:50      49.7      49.2       78     42.8      0.00     12.62      57.5     0.50      1021.8     1.0       S   175   2.4     SSW     193     272       -42       0.2      26.1      56.9      9.81
   03/19/2020 22:40      50.0      49.7       77     42.8      0.00     12.62      57.5     0.50      1021.6     0.8     ESE   117   1.7       E      95     272       -47       0.0      26.1      57.1      9.81
   03/19/2020 22:30      50.3      49.9       76     42.7      0.00     12.62      57.5     0.50      1021.6     0.2       E   100   1.3       E      93     272       -44       0.0      26.1      57.3      9.81
   03/19/2020 22:20      50.5      50.2       74     42.5      0.00     12.62      57.5     0.50      1021.5     0.4      SE   128   1.1      SE     126     271       -41       0.0      26.1      57.5      9.82
   03/19/2020 22:10      50.6      50.3       74     42.4      0.00     12.62      57.5     0.50      1021.5     0.5     ESE   115   1.0      SE     134     271       -34       0.0      26.1      57.5      9.82
   03/19/2020 22:00      50.6      50.2       74     42.3      0.00     12.62      57.4     0.50      1021.5     1.1       E    91   1.6       E      89     271       -34       0.0      26.1      57.6      9.83
   03/19/2020 21:50      50.5      50.0       74     42.3      0.00     12.62      57.4     0.50      1021.6     0.4     ESE   103   1.4       E      85     271       -35       0.0      26.1      57.8      9.83
   03/19/2020 21:40      50.6      50.4       72     41.8      0.00     12.62      57.4     0.50      1021.5     0.0     ESE   109   0.6     ESE     108     271       -27       0.0      26.1      57.9      9.84
   03/19/2020 21:30      50.7      50.3       71     41.3      0.00     12.62      57.3     0.50      1021.4     0.4     SSW   198   1.2     SSW     210     271       -29       0.0      26.1      58.0      9.84
   03/19/2020 21:20      51.0      50.5       69     41.0      0.00     12.62      57.3     0.50      1021.3     1.0       S   178   2.0       S     189     270       -43       0.3      26.1      58.1      9.84
   03/19/2020 21:10      50.9      50.7       69     41.0      0.00     12.62      57.3     0.50      1021.2     1.6       S   183   2.2     SSW     195     270       -49       0.8      26.0      58.5      9.85
   03/19/2020 21:00      50.9      50.5       70     41.1      0.00     12.62      57.6     0.50      1021.2     0.9     SSE   160   2.9     SSW     208     270       -40       0.2      25.9      58.9      9.86
   03/19/2020 20:50      51.2      50.6       69     41.2      0.00     12.62      57.6     0.50      1021.1     0.4       S   173   1.7       S     184     270       -35       0.0      25.9      59.1      9.86
   03/19/2020 20:40      51.5      51.1       68     41.1      0.00     12.62      57.6     0.50      1021.0     0.0     SSE   149   1.0     SSE     153     270       -36       0.0      25.9      59.2      9.87
   03/19/2020 20:30      51.8      51.3       66     40.8      0.00     12.62      57.6     0.50      1020.9     0.8     SSE   152   2.0      SE     129     270       -31       0.1      25.9      59.3      9.87
   03/19/2020 20:20      51.8      51.3       67     41.1      0.00     12.62      57.5     0.50      1020.8     1.0      SE   133   3.9      SE     128     270       -37       0.4      25.9      59.5      9.88
   03/19/2020 20:10      51.9      51.6       67     41.3      0.00     12.62      57.5     0.50      1020.7     0.0     ENE    63   0.9      NE      46     270       -33       0.0      25.8      59.6      9.88
   03/19/2020 20:00      51.9      51.4       67     41.0      0.00     12.62      56.6     0.50      1020.5     0.4     ESE   102   1.5     ENE      63     270       -34       0.2      25.8      59.1      9.89
   03/19/2020 19:50      51.8      51.3       69     41.8      0.00     12.62      56.5     0.50      1020.3     0.6      SE   143   1.3       S     187     270       -48       0.4      25.8      59.2      9.90
   03/19/2020 19:40      51.9      51.6       68     41.7      0.00     12.62      56.5     0.50      1020.1     2.0     SSW   198   5.2     SSW     212     270       -49       0.9      25.7      59.3      9.91
   03/19/2020 19:30      52.0      51.7       68     41.7      0.00     12.62      56.5     0.50      1020.0     2.5      SW   221   5.5      SW     231     270       -45       1.3      25.5      59.7      9.92
   03/19/2020 19:20      52.0      51.7       67     41.4      0.00     12.62      56.4     0.50      1019.9     1.8     SSW   205   3.4     SSW     201     270       -44       0.9      25.3      59.9      9.93
   03/19/2020 19:10      52.2      51.8       67     41.3      0.00     12.62      56.4     0.50      1019.8     1.9     SSW   204   4.6     SSW     208     270       -48       1.0      25.2      60.2      9.94
   03/19/2020 19:00      52.5      52.0       66     41.3      0.00     12.62      56.8     0.50      1019.7     2.3     SSW   193   4.5       S     188     270       -40       1.3      25.0      61.0      9.95
   03/19/2020 18:50      52.8      52.4       64     41.0      0.00     12.62      56.8     0.50      1019.6     1.2       S   189   2.7       S     179     270       -57       0.6      24.8      61.1      9.97
   03/19/2020 18:40      53.4      52.7       62     40.5      0.00     12.62      56.8     0.50      1019.5     2.6     SSE   161   5.3     SSE     149     270       -63       1.0      24.7      61.6      9.99
   03/19/2020 18:30      54.2      53.1       60     40.1      0.00     12.62      56.7     0.50      1019.5     3.4       S   178   7.0       S     177     269       -42       2.2      24.5      61.9     10.01
   03/19/2020 18:20      54.7      54.0       60     40.6      0.00     12.62      56.6     0.50      1019.5     3.2       S   190   5.3      SE     126     269        -5       1.8      24.1      62.5     10.04
   03/19/2020 18:10      55.0      54.3       59     40.8      0.00     12.62      56.2     0.50      1019.3     3.9     SSW   195   7.9     SSE     166     269        20       2.3      23.9      62.8     10.09
   03/19/2020 18:00      55.6      54.6       57     40.3      0.00     12.62      56.6     0.50      1019.3     3.8       S   182   8.9       S     177     269        47       2.3      23.5      63.7      9.53
   03/19/2020 17:50      56.0      55.5       56     40.5      0.00     12.62      56.5     0.50      1019.2     3.5       S   181   7.0     SSW     193     269        77       2.2      23.1      63.8      9.53
   03/19/2020 17:40      56.1      55.3       56     40.2      0.00     12.62      56.4     0.50      1019.1     5.0       S   181   9.7     SSW     197     269        92       2.9      22.7      63.9      9.53
   03/19/2020 17:30      56.4      55.7       55     40.0      0.00     12.62      56.4     0.50      1019.1     4.2     SSE   166   6.9       S     182     269       130       2.1      22.3      64.0      9.53
   03/19/2020 17:20      56.8      56.1       53     39.6      0.00     12.62      56.4     0.50      1019.1     4.9       S   186   9.2      SE     141     268       184       2.7      21.9      63.9      9.54
   03/19/2020 17:10      56.6      56.0       52     39.1      0.00     12.62      56.3     0.50      1019.0     4.3     SSE   167   9.1     SSE     162     269       185       2.5      21.5      63.9      9.54
   03/19/2020 17:00      56.8      56.3       52     39.2      0.00     12.62      56.2     0.50      1019.0     5.6     SSE   165   9.6      SE     135     268       221       3.0      21.0      63.9      9.54
   03/19/2020 16:50      56.6      56.0       53     39.4      0.00     12.62      56.1     0.50      1019.0     5.6       S   178   9.1       S     178     268       247       3.2      20.5      63.8      9.54
   03/19/2020 16:40      56.6      56.1       53     39.5      0.00     12.62      55.9     0.50      1018.9     6.2       S   184  11.2     SSE     164     268       276       4.0      20.0      63.7      9.54
   03/19/2020 16:30      57.1      56.5       52     39.3      0.00     12.62      55.9     0.50      1018.9     6.3     SSE   165  11.9     SSE     150     268       303       3.3      19.3      63.4      9.54
   03/19/2020 16:20      57.1      56.5       52     39.5      0.00     12.62      55.7     0.50      1018.9     6.0     SSE   167  10.0      SE     140     268       333       3.4      18.8      63.2      9.55
   03/19/2020 16:10      57.2      56.6       53     39.8      0.00     12.62      55.7     0.50      1018.9     7.0       S   171  12.1       S     187     268       338       3.8      18.2      62.9      9.55
   03/19/2020 16:00      58.0      56.7       53     40.5      0.00     12.62      56.0     0.50      1018.8     4.5       S   174   9.3     SSW     194     268       357       2.5      17.6      63.0      9.55
   03/19/2020 15:50      57.5      56.4       55     41.1      0.00     12.62      55.9     0.50      1018.8     5.7     SSE   155  11.0      SE     125     269       373       3.0      17.2      62.8      9.55
   03/19/2020 15:40      56.7      56.0       56     40.8      0.00     12.62      55.8     0.50      1018.8     6.5       S   170  11.9     SSW     209     268       425       4.2      16.7      62.5      9.55
   03/19/2020 15:30      57.1      56.0       57     41.2      0.01     12.62      55.8     0.50      1018.8     5.4       S   174  10.0     SSE     161     269       181       3.2      16.0      62.3      9.55
   03/19/2020 15:20      58.1      57.0       53     40.7      0.00     12.61      55.7     0.50      1018.8     4.8     SSE   158   8.0       S     176     268       321       2.9      15.4      62.0      9.56
   03/19/2020 15:10      57.8      56.9       53     40.6      0.00     12.61      55.7     0.50      1018.7     5.7     SSE   168  11.5       S     183     269       397       3.5      15.0      61.6      9.56
   03/19/2020 15:00      57.9      57.1       54     41.1      0.00     12.61      56.3     0.50      1018.7     5.8     SSE   157  12.1       S     187     268       511       3.3      14.4      61.6      9.56
   03/19/2020 14:50      57.5      57.0       55     41.1      0.00     12.61      56.2     0.50      1018.7     5.6     SSE   161  11.3     SSW     195     268       468       2.9      13.8      61.0      9.56
   03/19/2020 14:40      57.2      56.8       55     41.2      0.00     12.61      55.7     0.50      1018.8     5.6     SSE   159  11.5       S     191     269       506       2.8      13.3      60.1      9.56
   03/19/2020 14:30      57.2      56.4       56     41.4      0.00     12.61      55.4     0.50      1018.9     6.4       S   178  12.6     SSW     196     269       510       4.2      12.9      59.4      9.56
   03/19/2020 14:20      57.2      56.0       58     42.1      0.00     12.61      55.4     0.50      1018.9     6.0       S   172  10.7       S     185     269       540       3.6      12.2      58.9      9.56
   03/19/2020 14:10      57.0      56.1       59     42.4      0.00     12.61      55.4     0.50      1019.0     6.0       S   175  10.7     ESE     102     269       572       3.7      11.6      58.3      9.56
   03/19/2020 14:00      56.6      54.8       62     43.3      0.00     12.61      55.1     0.50      1019.0     5.7     SSE   152   9.9     ESE     116     269       596       3.0      11.0      57.6      9.56
   03/19/2020 13:50      54.9      54.2       66     43.7      0.00     12.61      56.0     0.50      1019.2     5.7     SSE   151   9.7      SE     134     269       483       3.1      10.5      57.7      9.56
   03/19/2020 13:40      55.8      54.7       64     43.3      0.00     12.61      55.9     0.50      1019.3     5.8     SSE   162   9.1       S     175     269       431       3.2      10.0      57.1      9.56
   03/19/2020 13:30      56.2      55.5       62     42.8      0.00     12.61      56.0     0.50      1019.2     5.6     SSE   166  11.2       S     171     268       521       3.1       9.4      56.5      9.56
   03/19/2020 13:20      56.1      54.5       61     42.5      0.00     12.61      56.0     0.50      1019.2     4.4     SSE   160   8.2      SE     135     269       522       2.2       8.9      56.0      9.56
   03/19/2020 13:10      54.5      53.8       61     41.0      0.00     12.61      56.0     0.50      1019.4     5.2       S   182  10.8       S     176     270       367       3.3       8.6      55.5      9.56
   03/19/2020 13:00      55.3      54.4       59     40.8      0.00     12.61      55.0     0.50      1019.3     5.7       S   175  10.5     SSW     193     269       274       3.5       8.0      54.1      9.57
   03/19/2020 12:50      55.6      55.0       59     41.2      0.00     12.61      54.9     0.50      1019.2     6.1       S   172  12.1     SSW     197     269       466       3.5       7.4      53.6      9.57
   03/19/2020 12:40      55.8      55.0       59     41.2      0.00     12.61      54.9     0.50      1019.3     4.7       S   171   9.7       S     190     269       438       2.5       6.8      53.2      9.56
   03/19/2020 12:30      55.8      55.3       55     39.6      0.00     12.61      55.0     0.50      1019.2     3.6       S   171   7.9     SSW     203     269       361       2.3       6.4      52.8      9.56
   03/19/2020 12:20      56.1      55.5       56     40.5      0.00     12.61      55.0     0.50      1019.1     3.6       S   184   8.3       S     184     272       288       2.0       6.0      52.2      9.56
   03/19/2020 12:10      55.7      55.3       60     41.7      0.00     12.61      54.9     0.50      1019.1     2.3       S   190   5.4     SSE     167     285       334       1.3       5.7      51.6      9.57
   03/19/2020 12:00      55.9      54.0       63     42.6      0.00     12.61      55.1     0.50      1019.1     2.3      SE   141   5.7      SE     133     293       714       1.4       5.5      51.1      9.57
   03/19/2020 11:50      54.5      53.2       66     42.9      0.00     12.61      55.1     0.50      1019.1     3.0      SE   143   8.8      SE     139     305       526       1.3       5.2      50.4      9.57
   03/19/2020 11:40      53.6      52.2       69     43.0      0.00     12.61      55.1     0.50      1019.1     3.3       S   178   5.8     SSE     159     313       576       1.9       5.0      50.1      9.56
   03/19/2020 11:30      52.1      51.0       73     43.0      0.00     12.61      55.2     0.50      1019.1     3.0     SSW   210   6.0     SSW     211     324       455       1.8       4.7      49.7      9.56
   03/19/2020 11:20      51.1      50.7       69     41.2      0.01     12.61      55.2     0.50      1019.1     2.6     SSW   193   4.9       W     262     365       225       1.6       4.4      49.2      9.56
   03/19/2020 11:10      53.5      51.0       64     40.6      0.03     12.60      55.3     0.50      1018.9     4.6       S   185  11.9      SW     227     584       128       2.8       4.1      49.1      9.55
   03/19/2020 11:00      53.8      53.5       62     41.0      0.00     12.57      55.3     0.50      1018.6     2.3       S   176   5.3     SSW     194     282       168       1.4       3.7      48.9      9.53
   03/19/2020 10:50      53.7      53.0       64     41.3      0.00     12.57      55.3     0.50      1018.6     2.5      SW   220   5.2       W     264     273       278       1.6       3.5      48.5      9.53
   03/19/2020 10:40      53.0      52.5       65     41.4      0.00     12.57      55.3     0.50      1018.5     1.6      SW   225   4.6       S     190     289       188       1.0       3.2      48.3      9.53
   03/19/2020 10:30      52.5      51.6       68     41.9      0.00     12.57      55.3     0.50      1018.4     0.4     ESE   114   1.8      SE     135     296       197       0.3       3.0      48.0      9.53
   03/19/2020 10:20      51.8      51.1       72     42.8      0.00     12.57      55.3     0.50      1018.4     0.6       E    87   1.9       E      87     303       179       0.0       3.0      47.6      9.53
   03/19/2020 10:10      51.1      50.8       72     42.3      0.00     12.57      55.2     0.50      1018.3     0.3     ESE   109   1.1       E      85     310       102       0.1       3.0      47.4      9.53
   03/19/2020 10:00      51.0      50.6       72     41.9      0.00     12.57      55.3     0.50      1018.3     0.4       W   274   2.0       W     280     328        69       0.0       2.9      47.5      9.53
   03/19/2020 09:50      51.1      50.5       70     41.4      0.00     12.57      55.4     0.50      1018.2     1.9     WSW   244   4.3       W     266     339        80       0.9       2.9      47.4      9.53
   03/19/2020 09:40      51.9      50.8       69     41.5      0.00     12.57      55.4     0.50      1018.1     1.9     WSW   257   3.8     WSW     243     311        83       1.0       2.8      47.2      9.53
   03/19/2020 09:30      51.9      51.5       69     41.8      0.00     12.57      55.5     0.50      1018.0     0.4     SSW   206   2.5     SSW     203     310        93       0.2       2.6      47.1      9.52
   03/19/2020 09:20      51.7      51.1       70     42.1      0.00     12.57      55.5     0.50      1017.9     0.3     WSW   254   1.3     WSW     254     313       120       0.2       2.6      47.0      9.53
   03/19/2020 09:10      51.9      51.6       70     42.3      0.00     12.57      55.5     0.50      1017.7     0.5       N    10   1.6      NE      43     318       164       0.1       2.5      46.7      9.53
   03/19/2020 09:00      51.3      49.3       74     42.1      0.00     12.57      56.1     0.50      1017.5     0.5     WNW   292   1.6      NW     324     350       269       0.2       2.5      46.9      9.52
   03/19/2020 08:50      49.7      48.8       77     42.3      0.00     12.57      56.2     0.50      1017.4     0.9      NW   320   2.8      NW     311     379       129       0.0       2.5      46.7      9.52
   03/19/2020 08:40      48.8      48.0       80     42.4      0.00     12.57      56.2     0.50      1017.3     2.4     WSW   252   3.5     WSW     253     392       193       1.4       2.5      46.5      9.53
   03/19/2020 08:30      48.0      47.0       84     43.0      0.00     12.57      56.1     0.50      1017.1     1.9       W   276   3.2     WSW     242     404       174       0.7       2.2      46.3      9.53
   03/19/2020 08:20      47.2      45.4       89     43.2      0.00     12.57      56.3     0.50      1017.0     1.4     WNW   293   3.3      NW     315     421       149       0.5       2.1      46.3      9.52
   03/19/2020 08:10      45.5      44.8       91     42.6      0.00     12.57      56.3     0.50      1016.8     2.6       W   262   4.3       W     266     436       121       1.3       2.0      46.2      9.53
   03/19/2020 08:00      44.7      43.4       92     41.9      0.00     12.57      55.9     0.50      1016.7     1.0       W   260   2.2     WSW     258     451        87       0.3       1.8      45.9      9.53
   03/19/2020 07:50      43.3      42.2       93     41.0      0.00     12.57      56.0     0.50      1016.4     0.0       N     0   0.0       E      82     452        83       0.0       1.8      45.9      9.53
   03/19/2020 07:40      42.1      40.3       93     39.3      0.00     12.57      56.0     0.50      1016.3     0.3      SE   143   1.4      SE     141     451        53       0.0       1.8      45.9      9.53
   03/19/2020 07:30      40.6      40.1       93     38.5      0.00     12.57      56.0     0.50      1016.2     0.3     SSE   159   1.2     SSE     156     449         1       0.1       1.8      46.0      9.53
   03/19/2020 07:20      40.8      39.9       92     38.2      0.00     12.57      56.0     0.50      1016.2     0.6     SSE   156   1.7      SE     140     447       -10       0.0       1.7      46.1      9.53
   03/19/2020 07:10      41.0      40.3       93     38.5      0.00     12.57      56.0     0.50      1016.1     1.2     SSW   196   1.6      SW     215     446       -16       0.3       1.7      46.3      9.53
   03/19/2020 07:00      40.9      40.4       92     38.5      0.00     12.57      56.4     0.50      1015.9     0.2     SSW   192   1.1     SSW     195     442       -22       0.0       1.7      47.0      9.53
   03/19/2020 06:50      41.4      40.7       92     38.8      0.00     12.57      56.5     0.50      1015.7     1.3     SSW   212   2.0      SW     224     434       -23       0.2       1.7      47.1      9.53
   03/19/2020 06:40      41.4      40.7       92     38.8      0.00     12.57      56.4     0.50      1015.6     0.6     SSW   206   1.1      SW     215     433       -25       0.2       1.6      47.4      9.53
   03/19/2020 06:30      42.0      41.2       91     39.3      0.00     12.57      56.4     0.50      1015.5     0.7       S   182   1.6      SW     221     428       -25       0.0       1.6      47.6      9.53
   03/19/2020 06:20      42.0      41.5       91     39.3      0.00     12.57      56.5     0.50      1015.4     0.5     SSW   213   1.7      SW     221     418       -26       0.2       1.6      47.8      9.53
   03/19/2020 06:10      42.8      41.8       91     39.9      0.00     12.57      56.5     0.50      1015.2     0.1     SSE   151   0.7     SSE     167     407       -27       0.0       1.6      47.9      9.53
   03/19/2020 06:00      42.8      42.3       91     40.0      0.00     12.57      56.1     0.51      1015.1     0.4     SSW   196   1.3     SSW     199     402       -26       0.0       1.6      47.7      9.53
   03/19/2020 05:50      43.1      42.5       90     40.2      0.00     12.57      56.2     0.50      1015.0     0.5      SE   124   1.6      SE     137     387       -24       0.0       1.6      47.9      9.53
   03/19/2020 05:40      43.8      43.1       90     40.8      0.00     12.57      56.2     0.51      1014.9     0.1      SE   136   0.9      SE     135     376       -26       0.0       1.6      48.0      9.53
   03/19/2020 05:30      44.1      43.7       91     41.3      0.00     12.57      56.2     0.51      1014.9     0.3     ESE   104   1.0       E      91     368       -20       0.0       1.6      48.1      9.53
   03/19/2020 05:20      44.2      43.7       91     41.5      0.00     12.57      56.2     0.51      1014.8     0.2     SSW   206   1.4       W     275     364       -12       0.0       1.6      48.1      9.53
   03/19/2020 05:10      44.0      43.4       91     41.4      0.00     12.57      56.2     0.51      1014.6     0.0     NNW   344   0.6       N       0     365       -19       0.0       1.6      48.2      9.53
   03/19/2020 05:00      43.8      43.3       91     41.2      0.00     12.57      56.4     0.51      1014.4     0.1     ESE   123   1.5     SSE     153     363        -9       0.1       1.6      48.2      9.53
   03/19/2020 04:50      43.4      42.9       91     40.8      0.00     12.57      56.3     0.51      1014.3     0.2     WSW   253   0.9     WSW     245     364        -9       0.0       1.5      48.2      9.53
   03/19/2020 04:40      43.4      42.8       91     40.6      0.00     12.57      56.3     0.51      1014.3     0.2     ESE   121   1.5      SE     127     364       -15       0.0       1.5      48.3      9.54
   03/19/2020 04:30      43.9      43.3       92     41.4      0.00     12.57      56.4     0.51      1014.1     0.5     SSW   209   1.1     SSW     212     362       -25       0.0       1.5      48.5      9.54
   03/19/2020 04:20      43.7      43.0       92     41.1      0.00     12.57      56.4     0.51      1014.1     0.8     SSW   209   1.6      SW     215     357       -14       0.0       1.5      48.5      9.54
   03/19/2020 04:10      43.0      42.4       92     40.6      0.00     12.57      56.5     0.51      1014.1     0.5       S   185   1.3      SE     146     357        -6       0.1       1.5      48.5      9.54
   03/19/2020 04:00      42.5      41.9       92     40.0      0.00     12.57      56.5     0.51      1014.0     0.4     SSE   157   1.6      SE     143     359        -7       0.4       1.5      48.6      9.54
   03/19/2020 03:50      42.0      41.4       92     39.6      0.00     12.57      56.4     0.51      1014.1     0.1     ENE    61   1.1      NE      37     360       -11       0.0       1.4      48.7      9.54
   03/19/2020 03:40      41.6      41.2       91     39.1      0.00     12.57      56.5     0.51      1014.1     0.0       N     0   0.0      SE     140     357       -17       0.0       1.4      48.9      9.54
   03/19/2020 03:30      42.1      41.4       91     39.5      0.00     12.57      56.6     0.51      1013.9     0.4     SSW   209   1.4     SSW     201     353       -29       0.0       1.4      49.0      9.54
   03/19/2020 03:20      41.9      41.6       91     39.4      0.00     12.57      56.5     0.51      1013.8     0.2       S   184   1.4       S     190     346       -33       0.0       1.4      49.2      9.54
   03/19/2020 03:10      42.0      41.5       91     39.3      0.00     12.57      57.0     0.51      1013.8     0.0       S   190   0.5     SSW     198     337       -35       0.1       1.4      49.7      9.54
   03/19/2020 03:00      41.8      41.2       90     38.9      0.00     12.57      56.7     0.51      1013.7     0.4      SE   142   1.6      SE     141     329       -37       0.0       1.4      49.7      9.54
   03/19/2020 02:50      42.2      41.7       90     39.3      0.00     12.57      56.8     0.51      1013.6     1.8     SSW   196   3.0     SSW     211     322       -40       0.7       1.4      49.9      9.54
   03/19/2020 02:40      42.2      41.6       90     39.2      0.00     12.57      56.8     0.51      1013.5     0.2      NE    42   1.3      NE      41     316       -46       0.0       1.3      50.1      9.54
   03/19/2020 02:30      42.7      41.8       89     39.1      0.00     12.57      56.8     0.51      1013.5     0.9     SSE   153   1.9      SE     144     309       -50       0.0       1.3      50.3      9.54
   03/19/2020 02:20      42.8      42.6       88     39.4      0.00     12.57      56.8     0.51      1013.5     1.1     SSW   206   2.0     SSW     210     303       -54       0.3       1.3      50.5      9.54
   03/19/2020 02:10      43.8      42.7       87     39.5      0.00     12.57      56.8     0.51      1013.4     0.3      SE   146   1.0      SE     144     299       -60       0.0       1.2      50.7      9.54
   03/19/2020 02:00      44.0      43.5       86     39.9      0.00     12.57      57.2     0.51      1013.4     0.7      SE   134   1.4      SE     134     293       -63       0.0       1.2      51.1      9.54
   03/19/2020 01:50      45.1      44.0       84     40.0      0.00     12.57      57.2     0.51      1013.3     0.4     SSE   149   1.4     SSE     161     286       -65       0.0       1.2      51.3      9.54
   03/19/2020 01:40      46.6      45.0       81     40.4      0.00     12.57      57.2     0.51      1013.2     1.1       S   171   2.5     SSE     161     279       -66       0.8       1.2      51.6      9.54
   03/19/2020 01:30      47.0      46.4       80     40.9      0.00     12.57      57.2     0.51      1013.2     0.5       S   187   2.0       S     178     274       -68       0.0       1.1      51.8      9.54
   03/19/2020 01:20      47.3      46.9       79     40.9      0.00     12.57      57.2     0.51      1013.0     1.9       S   188   3.5       S     180     273       -69       0.7       1.1      52.0      9.54
   03/19/2020 01:10      47.6      47.2       78     40.9      0.00     12.57      57.2     0.51      1012.8     2.7      SW   224   4.7       W     264     272       -69       1.1       1.0      52.2      9.55
   03/19/2020 01:00      47.5      46.9       78     40.7      0.00     12.57      56.9     0.51      1012.7     2.5      SW   220   3.8      SW     230     273       -68       1.2       0.8      52.1      9.55
   03/19/2020 00:50      47.1      46.4       79     40.5      0.00     12.57      56.9     0.51      1012.7     2.1      SW   230   3.3     WSW     244     273       -67       0.8       0.6      52.4      9.55
   03/19/2020 00:40      47.0      46.5       78     40.2      0.00     12.57      57.1     0.51      1012.7     1.0     SSW   213   2.1     SSW     208     273       -67       0.4       0.4      52.7      9.55
   03/19/2020 00:30      47.1      46.7       77     40.2      0.00     12.57      57.5     0.51      1012.5     1.0     SSW   200   2.3     SSW     208     273       -67       0.5       0.4      53.1      9.55
   03/19/2020 00:20      47.5      47.0       76     40.0      0.00     12.57      57.3     0.51      1012.4     1.9       S   189   3.5      SW     227     273       -68       0.6       0.3      53.2      9.55
   03/19/2020 00:10      47.4      46.6       76     40.1      0.00     12.57      57.4     0.51      1012.3     2.4     SSW   195   4.0     SSW     207     272       -69       1.1       0.2      53.4      9.55
   03/19/2020 00:00      47.0      46.5       78     40.0      0.00     12.57      56.7     0.51      1012.2     1.7       S   171   3.1       S     171     273       -69       0.9      25.9      53.0      9.55
   03/18/2020 23:50      48.1      46.6       75     39.8      0.00     12.57      56.5     0.51      1012.0     1.6       S   171   2.8     SSE     163     273       -70       0.8      25.8      53.2      9.55
   03/18/2020 23:40      48.1      47.8       74     40.0      0.00     12.57      56.4     0.51      1011.8     2.4     SSW   196   4.2       S     189     272       -70       1.2      25.6      53.4      9.55
   03/18/2020 23:30      47.8      46.4       77     40.2      0.00     12.57      56.5     0.51      1011.7     2.7     SSW   201   4.4     SSW     206     272       -69       1.3      25.5      53.6      9.55
   03/18/2020 23:20      46.5      45.7       80     40.2      0.00     12.57      56.5     0.51      1011.6     1.6     SSW   196   3.4     SSW     207     274       -68       0.7      25.2      53.9      9.55
   03/18/2020 23:10      46.5      45.8       79     39.9      0.00     12.57      56.5     0.51      1011.5     0.9     SSE   152   1.8      SE     143     275       -69       0.0      25.1      54.0      9.55
   03/18/2020 23:00      47.9      46.6       75     39.8      0.00     12.57      56.9     0.51      1011.3     0.4     SSE   150   1.2       S     184     273       -69       0.0      25.1      54.6      9.56
   03/18/2020 22:50      49.1      47.8       72     39.8      0.00     12.57      56.9     0.51      1011.2     0.7     SSW   197   1.4       S     188     272       -70       0.0      25.1      54.9      9.56
   03/18/2020 22:40      49.5      48.9       70     40.0      0.00     12.57      56.8     0.51      1011.1     1.0     WSW   240   3.9     WSW     237     271       -71       0.5      25.1      55.2      9.56
   03/18/2020 22:30      49.1      48.1       72     40.3      0.00     12.57      56.8     0.51      1011.0     2.1      SW   220   3.7      SW     216     271       -70       0.9      25.0      55.4      9.56
   03/18/2020 22:20      48.2      47.6       75     40.4      0.00     12.57      56.8     0.51      1011.0     1.6      SW   223   4.4     SSW     206     271       -70       0.9      24.9      55.7      9.56
   03/18/2020 22:10      49.7      48.2       72     40.4      0.00     12.57      56.8     0.51      1010.8     0.2       E    82   0.8     ESE     102     272       -72       0.0      24.7      55.8      9.56
   03/18/2020 22:00      49.8      49.4       71     40.6      0.00     12.57      57.6     0.51      1010.6     1.1      SW   227   2.7      SW     227     271       -72       0.2      24.7      57.0      9.56
   03/18/2020 21:50      49.7      49.2       72     40.8      0.00     12.57      57.4     0.51      1010.5     1.3     SSW   208   3.2      SW     219     271       -73       0.4      24.7      57.2      9.56
   03/18/2020 21:40      49.3      47.7       75     40.8      0.00     12.57      57.2     0.51      1010.4     2.4     SSW   202   4.0      SW     228     271       -72       1.0      24.6      57.5      9.56
   03/18/2020 21:30      48.6      47.8       75     40.5      0.00     12.57      57.3     0.51      1010.4     0.6     SSE   167   1.2       S     176     272       -73       0.0      24.4      57.6      9.56
   03/18/2020 21:20      49.8      48.6       72     40.5      0.00     12.57      57.2     0.51      1010.4     0.1     NNE    14   0.8       N       7     271       -74       0.0      24.4      58.0      9.57
   03/18/2020 21:10      50.6      49.8       69     40.5      0.00     12.57      57.2     0.51      1010.3     0.8     SSW   210   2.5      SW     214     270       -74       0.3      24.4      58.2      9.57
   03/18/2020 21:00      51.3      50.5       67     40.6      0.00     12.57      56.8     0.51      1010.2     1.6      SW   217   2.5      SW     235     270       -75       0.6      24.4      58.2      9.57
   03/18/2020 20:50      51.8      51.2       66     40.6      0.00     12.57      56.9     0.51      1010.0     2.3      SW   225   5.9      SW     234     270       -76       1.3      24.3      58.5      9.57
   03/18/2020 20:40      51.9      51.5       66     40.7      0.00     12.57      56.7     0.51      1009.9     2.3     WSW   240   8.2     WSW     245     270       -76       1.1      24.1      58.8      9.57
   03/18/2020 20:30      51.9      51.6       66     40.7      0.00     12.57      56.7     0.51      1009.8     2.9     WSW   241   7.6       W     261     270       -77       1.7      23.9      59.0      9.57
   03/18/2020 20:20      52.4      51.8       65     40.6      0.00     12.57      56.6     0.51      1009.5     2.9      SW   230   6.0      SW     231     269       -77       1.4      23.6      59.4      9.57
   03/18/2020 20:10      52.5      52.2       64     40.5      0.00     12.57      56.6     0.51      1009.4     3.3     WSW   238   6.4      SW     230     269       -78       1.9      23.4      59.7      9.58
   03/18/2020 20:00      52.7      52.2       64     40.7      0.00     12.57      57.2     0.51      1009.3     4.6      SW   230   8.8      SW     231     269       -78       2.7      23.1      60.4      9.58
   03/18/2020 19:50      53.1      52.6       63     40.8      0.00     12.57      57.1     0.51      1009.1     4.3     WSW   247  10.1     SSW     210     269       -79       2.2      22.6      60.8      9.58
   03/18/2020 19:40      53.2      52.9       63     40.9      0.00     12.57      57.0     0.51      1009.0     5.0     WSW   249  10.2     WSW     242     269       -79       3.0      22.2      61.2      9.58
   03/18/2020 19:30      53.7      53.1       63     40.9      0.00     12.57      56.9     0.51      1008.9     3.6     WSW   241   7.6      SW     236     269       -79       2.1      21.7      61.6      9.58
   03/18/2020 19:20      53.9      53.6       61     40.7      0.00     12.57      57.0     0.51      1008.8     4.7      SW   234  10.7      SW     233     269       -79       2.7      21.4      61.9      9.58
   03/18/2020 19:10      54.4      53.8       60     40.6      0.00     12.57      57.0     0.51      1008.7     5.5     WSW   240   8.5     WSW     241     269       -78       3.1      20.9      62.4      9.59
   03/18/2020 19:00      54.8      54.2       59     40.3      0.00     12.57      55.6     0.51      1008.6     5.7     WSW   240   9.3     SSW     209     268       -74       3.4      20.4      61.8      9.59
   03/18/2020 18:50      55.3      54.7       56     39.7      0.00     12.57      55.5     0.51      1008.5     6.5     WSW   251  12.4       W     279     268       -70       3.9      19.9      62.3      9.59
   03/18/2020 18:40      56.3      55.0       53     39.0      0.00     12.57      55.4     0.51      1008.4     6.3      SW   236  11.0     WSW     240     268       -63       3.9      19.2      62.9      9.59
   03/18/2020 18:30      56.8      56.3       50     38.3      0.00     12.57      55.3     0.51      1008.3     6.6       W   264  11.9     WSW     249     267       -36       3.8      18.6      63.4      9.60
   03/18/2020 18:20      57.2      56.8       48     37.7      0.00     12.57      55.2     0.51      1008.3     6.8       W   265  11.5       W     260     268       -11       4.2      17.9      63.8      9.60
   03/18/2020 18:10      57.5      57.0       47     37.1      0.00     12.57      55.2     0.51      1008.2     6.6     WSW   245  12.0       W     274     267        12       3.9      17.2      64.1      9.60
   03/18/2020 18:00      58.1      57.4       46     37.1      0.00     12.57      55.6     0.51      1008.1     6.9      SW   228  11.4     SSW     207     267        40       4.2      16.6      64.8      9.61
   03/18/2020 17:50      58.7      58.0       43     36.1      0.00     12.57      55.4     0.51      1007.9     5.8      SW   220  10.8     SSW     199     267        65       3.7      15.9      65.0      9.61
   03/18/2020 17:40      60.1      58.7       39     34.6      0.00     12.57      55.4     0.51      1007.9     5.3      SW   225  10.4      SW     233     266        92       3.1      15.3      65.2      9.61
   03/18/2020 17:30      60.5      59.9       34     31.7      0.00     12.57      55.2     0.51      1007.8     4.4       W   264   8.7       W     259     266       119       2.8      14.8      65.2      9.61
   03/18/2020 17:20      60.6      59.9       34     31.5      0.00     12.57      55.1     0.51      1007.7     4.3       W   276  10.3       W     272     266       148       2.4      14.3      65.3      9.61
   03/18/2020 17:10      60.4      59.9       32     30.3      0.00     12.57      55.2     0.51      1007.8     5.5     WSW   258   9.3      SW     236     266       176       3.4      13.9      65.3      9.62
   03/18/2020 17:00      61.2      60.3       32     30.7      0.00     12.57      55.8     0.51      1007.7     5.7     WSW   257  10.6     WNW     294     266       204       3.5      13.3      66.4      9.62
   03/18/2020 16:50      61.4      60.9       33     32.0      0.00     12.57      55.6     0.51      1007.7     4.9       W   270   9.8       W     264     266       237       2.9      12.8      66.2      9.62
   03/18/2020 16:40      61.6      61.2       34     33.1      0.00     12.57      55.5     0.51      1007.7     5.2       W   268   8.8      SW     221     266       275       2.9      12.3      66.2      9.62
   03/18/2020 16:30      61.6      60.8       36     33.8      0.00     12.57      55.4     0.51      1007.7     6.0     WSW   248  11.0     WNW     287     266       291       3.6      11.8      65.9      9.63
   03/18/2020 16:20      61.7      60.6       36     34.3      0.00     12.57      55.3     0.51      1007.7     6.6     WSW   244  10.8     WSW     251     266       322       4.1      11.2      65.8      9.63
   03/18/2020 16:10      61.6      61.3       36     34.2      0.00     12.57      55.2     0.51      1007.6     6.7     WSW   253  12.9     WSW     252     266       375       4.1      10.5      65.6      9.63
   03/18/2020 16:00      62.5      61.5       35     34.0      0.00     12.57      54.5     0.51      1007.6     5.4     WSW   247   9.0       W     278     266       299       3.4       9.8      64.7      9.64
   03/18/2020 15:50      61.7      60.5       39     36.1      0.00     12.57      54.5     0.51      1007.5     5.6     SSW   200   9.3     SSW     201     266       497       3.5       9.3      64.3      9.64
   03/18/2020 15:40      61.1      60.1       39     35.3      0.00     12.57      54.4     0.51      1007.5     5.9      SW   234  12.4     WSW     240     266       316       3.6       8.7      64.2      9.64
   03/18/2020 15:30      61.3      60.0       40     36.0      0.00     12.57      54.4     0.51      1007.6     3.5     WSW   242  10.3     WSW     253     266       203       2.3       8.1      64.0      9.64
   03/18/2020 15:20      63.5      61.1       32     31.7      0.00     12.57      54.3     0.51      1007.6     5.0      SW   223   8.7       W     272     266       177       3.0       7.7      64.0      9.64
   03/18/2020 15:10      63.6      62.5       31     31.7      0.00     12.57      54.2     0.51      1007.6     2.2      NW   308   5.7     WSW     247     266       236       1.2       7.2      63.9      9.64
   03/18/2020 15:00      63.5      62.1       32     32.6      0.00     12.57      53.7     0.51      1007.6     3.8     WSW   238  10.1      SW     234     266       400       2.5       7.0      63.1      9.65
   03/18/2020 14:50      63.9      62.0       30     31.4      0.00     12.57      53.6     0.51      1007.7     4.0       W   273   9.6     WSW     253     266       298       2.1       6.6      62.5      9.65
   03/18/2020 14:40      64.0      63.5       27     28.9      0.00     12.57      53.6     0.51      1007.8     2.0       W   279   7.9       W     272     265       355       1.2       6.2      61.9      9.65
   03/18/2020 14:30      63.6      62.3       27     27.9      0.00     12.57      53.4     0.51      1007.9     2.7      SW   236   6.3     SSW     209     264       553       1.7       6.1      61.1      9.65
   03/18/2020 14:20      64.5      62.5       26     28.3      0.00     12.57      53.3     0.51      1008.2     2.7      SW   229   6.1     SSW     201     265       536       1.9       5.8      60.3      9.65
   03/18/2020 14:10      65.0      64.3       26     28.6      0.00     12.57      53.2     0.51      1008.3     2.4     NNW   340   5.6      NW     325     265       532       1.1       5.4      59.6      9.65
   03/18/2020 14:00      64.6      62.7       29     30.5      0.00     12.57      53.6     0.51      1008.4     2.1       N   353   5.1     NNW     328     266       536       1.1       5.3      59.2      9.65
   03/18/2020 13:50      63.6      62.6       28     29.5      0.00     12.57      53.6     0.51      1008.5     2.7       W   277   6.4     WSW     247     266       522       2.0       5.1      58.4      9.66
   03/18/2020 13:40      63.5      62.3       27     28.3      0.00     12.57      53.6     0.51      1008.7     2.0     NNE    20   5.1     NNW     331     264       530       1.0       4.8      57.7      9.66
   03/18/2020 13:30      62.5      61.9       28     28.4      0.00     12.57      53.5     0.51      1008.8     2.6     NNE    24   5.5     ENE      58     266       537       1.5       4.6      57.0      9.66
   03/18/2020 13:20      62.4      61.5       29     29.7      0.00     12.57      53.5     0.50      1008.9     2.2       W   266   7.4     WSW     249     266       542       1.3       4.3      56.3      9.66
   03/18/2020 13:10      62.5      61.7       30     30.4      0.00     12.57      53.4     0.50      1009.1     3.1       N   357   6.6     NNE      29     266       546       1.4       4.1      55.5      9.66
   03/18/2020 13:00      62.5      61.9       30     30.0      0.00     12.57      54.0     0.51      1009.2     2.2     NNW   332   6.3     WNW     300     265       546       1.1       3.9      55.2      9.66
   03/18/2020 12:50      62.4      60.9       29     29.2      0.00     12.57      54.0     0.51      1009.3     1.8     ENE    61   4.1     ENE      63     266       550       1.0       3.7      54.4      9.66
   03/18/2020 12:40      61.7      60.9       30     29.8      0.00     12.57      54.0     0.51      1009.4     2.9       N   349   7.1      NW     317     266       510       1.0       3.5      53.5      9.66
   03/18/2020 12:30      61.9      60.3       31     30.2      0.00     12.57      53.9     0.50      1009.5     2.2       N     1   4.3      NW     311     266       531       0.9       3.4      52.8      9.66
   03/18/2020 12:20      61.1      58.9       35     32.2      0.00     12.57      53.9     0.50      1009.5     2.2     WSW   258   4.2     SSW     202     266       533       1.3       3.2      51.9      9.66
   03/18/2020 12:10      59.7      58.7       36     32.1      0.00     12.57      53.9     0.50      1009.6     2.6       W   262   5.1     WNW     288     266       498       2.0       3.0      51.2      9.66
   03/18/2020 12:00      59.0      58.3       35     31.5      0.00     12.57      53.4     0.50      1009.7     1.8      SE   141   4.1     ESE     104     266       527       1.2       2.7      49.9      9.67
   03/18/2020 11:50      58.3      57.3       36     31.1      0.00     12.57      53.4     0.51      1009.9     3.4       W   272   7.6     WSW     242     266       493       2.1       2.5      49.1      9.67
   03/18/2020 11:40      58.4      57.5       38     32.3      0.00     12.57      53.4     0.51      1010.0     1.5      SW   227   5.2     WSW     258     266       436       1.2       2.1      48.4      9.67
   03/18/2020 11:30      58.5      57.5       39     33.0      0.00     12.57      53.5     0.51      1010.1     1.8      NE    55   4.5      NE      42     266       512       1.0       1.9      47.7      9.67
   03/18/2020 11:20      58.6      57.4       40     33.9      0.00     12.57      53.6     0.50      1010.3     0.9     ENE    72   3.5      SE     132     266       490       0.5       1.8      47.0      9.67
   03/18/2020 11:10      57.7      56.1       40     32.9      0.00     12.57      53.5     0.51      1010.5     0.9      SE   127   2.4     ESE     114     266       474       0.6       1.7      46.4      9.67
   03/18/2020 11:00      56.6      55.2       42     33.1      0.00     12.57      54.2     0.51      1010.7     0.7     ESE   102   2.8     ESE     116     266       464       0.6       1.6      46.2      9.67
   03/18/2020 10:50      55.7      54.2       43     33.0      0.00     12.57      54.3     0.51      1010.8     0.7       N     9   3.1     NNE      22     266       443       0.3       1.5      45.7      9.67
   03/18/2020 10:40      54.7      52.6       47     33.9      0.00     12.57      54.3     0.51      1010.9     1.1     NNE    20   3.5     NNE      27     267       433       0.4       1.4      45.1      9.67
   03/18/2020 10:30      52.6      51.7       48     33.2      0.00     12.57      54.3     0.51      1010.9     2.1       N     2   5.2       N     353     268       415       0.3       1.4      44.6      9.67
   03/18/2020 10:20      51.9      50.6       52     34.2      0.00     12.57      54.3     0.51      1010.9     2.3     NNE    27   4.4     NNE      15     268       387       0.2       1.3      44.1      9.67
   03/18/2020 10:10      50.6      49.8       53     33.7      0.00     12.57      54.5     0.51      1011.0     1.6     NNE    19   4.4      NE      56     269       263       0.3       1.3      43.8      9.68
   03/18/2020 10:00      50.2      49.8       53     33.6      0.00     12.57      53.5     0.51      1011.0     2.2     NNE    19   5.0      NE      54     269       205       0.4       1.2      42.7      9.68
   03/18/2020 09:50      50.4      50.0       53     33.9      0.00     12.57      53.5     0.51      1010.8     2.1     NNE    31   5.2       N       3     269       228       0.1       1.2      42.4      9.68
   03/18/2020 09:40      50.4      49.6       53     33.5      0.00     12.57      53.6     0.51      1010.8     2.1     NNE    29   4.0      NE      52     270       189       0.3       1.1      42.0      9.68
   03/18/2020 09:30      49.7      48.3       55     33.9      0.00     12.57      53.6     0.51      1010.4     1.9     NNW   341   4.8     NNW     346     271       185       0.5       1.1      41.8      9.68
   03/18/2020 09:20      49.0      48.2       58     34.3      0.00     12.57      53.7     0.51      1010.3     2.2      NW   318   5.1      NW     306     289       166       0.8       1.0      41.5      9.68
   03/18/2020 09:10      48.8      47.3       54     32.4      0.00     12.57      53.7     0.51      1010.2     3.5     WNW   282   7.6     WNW     289     348       181       1.9       0.9      41.2      9.68
   03/18/2020 09:00      47.0      45.1       75     38.6      0.00     12.57      54.1     0.51      1010.2     2.0      NW   311   6.0       W     281     420       128       1.1       0.6      41.4      9.69
   03/18/2020 08:50      46.1      43.6       90     42.3      0.00     12.57      54.2     0.51      1010.1     1.1       S   174   5.9     SSW     208     464       205       0.3       0.4      41.2      9.69
   03/18/2020 08:40      43.6      42.1       92     40.6      0.00     12.57      54.2     0.51      1010.0     1.4     ENE    76   3.2      SE     141     484       195       0.2       0.3      41.0      9.69
   03/18/2020 08:30      42.1      39.7       94     39.3      0.00     12.57      54.2     0.51      1009.9     0.6       S   189   2.0      SE     136     512       144       0.0       0.3      40.9      9.69
   03/18/2020 08:20      39.6      37.8       94     37.0      0.00     12.57      54.3     0.51      1009.8     1.2       S   182   2.6       E      85     516        66       0.3       0.3      40.9      9.69
   03/18/2020 08:10      38.1      37.8       94     36.4      0.00     12.57      54.3     0.51      1009.7     0.1       N     7   0.9     ENE      63     516        18       0.0       0.2      40.9      9.69
   03/18/2020 08:00      37.9      37.1       95     36.1      0.00     12.57      53.6     0.51      1009.5     0.9       S   175   2.6     SSE     166     514         7       0.0       0.2      40.1      9.69
   03/18/2020 07:50      37.4      36.5       95     35.5      0.00     12.57      53.7     0.51      1009.5     0.3       S   171   1.4      SE     142     512         3       0.0       0.2      40.3      9.70
   03/18/2020 07:40      36.8      36.6       94     35.2      0.00     12.57      53.7     0.51      1009.6     0.0       N     0   0.0       E      87     509        -1       0.0       0.2      40.4      9.70
   03/18/2020 07:30      36.9      36.6       94     35.2      0.00     12.57      53.7     0.51      1009.6     0.0       N     0   0.0     SSE     169     505        -4       0.0       0.2      40.5      9.70
   03/18/2020 07:20      37.3      36.8       94     35.4      0.00     12.57      53.9     0.51      1009.6     0.3     ESE   120   1.3     ENE      69     524        -8       0.0       0.2      40.5      9.70
   03/18/2020 07:10      37.1      36.6       95     35.6      0.00     12.57      53.8     0.51      1009.6     0.7      SE   138   1.8      SE     134     522       -13       0.0       0.2      40.6      9.70
   03/18/2020 07:00      37.2      36.7       95     35.5      0.00     12.57      54.3     0.51      1009.6     0.6     SSE   164   1.4      SE     142     518       -16       0.0       0.2      41.1      9.70
   03/18/2020 06:50      37.1      36.6       95     35.5      0.00     12.57      54.3     0.51      1009.7     0.7     SSE   160   1.7     SSE     154     514       -18       0.0       0.2      41.3      9.70
   03/18/2020 06:40      37.2      36.7       95     35.5      0.00     12.57      54.2     0.51      1009.7     0.4     SSE   147   1.5     ESE     105     510       -19       0.0       0.2      41.4      9.71
   03/18/2020 06:30      37.3      36.8       95     35.7      0.00     12.57      54.4     0.51      1009.7     1.2     SSW   193   2.6      SW     220     504       -18       0.6       0.2      41.6      9.71
   03/18/2020 06:20      37.7      37.0       95     35.8      0.00     12.57      54.4     0.51      1009.9     0.2      SW   228   1.6      SW     222     520       -19       0.0       0.1      41.7      9.71
   03/18/2020 06:10      37.7      37.0       95     36.2      0.00     12.57      54.4     0.51      1010.1     0.4     ESE   114   1.5     ESE     121     520       -19       0.0       0.1      41.8      9.71
   03/18/2020 06:00      37.1      36.2       95     35.3      0.00     12.57      54.2     0.51      1010.2     0.7       S   191   1.8       S     188     515       -19       0.0       0.1      41.7      9.71
   03/18/2020 05:50      36.8      36.2       94     35.1      0.00     12.57      54.2     0.51      1010.2     0.2       S   173   1.7       S     181     512       -19       0.0       0.1      41.9      9.71
   03/18/2020 05:40      37.0      36.6       95     35.4      0.00     12.57      54.3     0.51      1010.2     0.1     ESE   120   1.1      NE      35     506       -20       0.0       0.1      42.1      9.71
   03/18/2020 05:30      37.2      36.8       95     35.6      0.00     12.57      54.2     0.51      1010.6     0.4       S   179   1.9       S     182     499       -20       0.1       0.1      42.4      9.71
   03/18/2020 05:20      37.3      37.0       95     35.7      0.00     12.57      54.2     0.51      1010.7     0.1      SW   227   1.2      SW     226     524       -19       0.0       0.0      42.6      9.72
   03/18/2020 05:10      37.4      37.0       94     35.7      0.00     12.57      54.3     0.51      1010.8     0.2     ESE   120   1.0      SE     131     535       -17       0.0       0.0      42.7      9.72
   03/18/2020 05:00      38.2      37.3       94     36.2      0.00     12.57      54.9     0.51      1010.9     0.3     SSE   167   1.6       S     186     550       -16       0.1       0.0      43.4      9.72
   03/18/2020 04:50      38.0      37.4       95     36.2      0.00     12.57      55.1     0.51      1011.0     0.3       S   188   1.3     SSW     202     547       -16       0.1       0.0      43.5      9.72
   03/18/2020 04:40      37.9      37.5       95     36.3      0.00     12.57      55.0     0.52      1011.2     0.0      SE   135   0.5      SE     133     547       -16       0.0       0.0      43.6      9.72
   03/18/2020 04:30      37.7      37.5       94     36.1      0.00     12.57      55.0     0.52      1011.3     0.0     SSE   158   0.7     SSE     151     545       -16       0.0       0.0      43.7      9.72
   03/18/2020 04:20      37.9      37.5       94     36.2      0.00     12.57      55.1     0.52      1011.4     0.0       S   178   0.9     SSE     151     542       -16       0.0       0.0      44.0      9.72
   03/18/2020 04:10      38.2      37.5       94     36.2      0.00     12.57      55.2     0.52      1011.6     0.3      SE   145   1.4      SE     144     541       -17       0.0       0.0      44.0      9.72
   03/18/2020 04:00      38.0      37.5       95     36.3      0.00     12.57      55.2     0.52      1011.7     0.6     SSE   153   1.8      SE     137     539       -18       0.0       0.0      44.6      9.72
   03/18/2020 03:50      37.7      37.1       94     35.9      0.00     12.57      55.2     0.52      1011.9     1.0      SE   135   1.8      SE     141     537       -19       0.0       0.0      44.8      9.73
   03/18/2020 03:40      37.4      37.0       94     35.6      0.00     12.57      55.3     0.52      1012.2     0.2     SSW   197   1.4       S     189     534       -19       0.0       0.0      44.8      9.73
   03/18/2020 03:30      38.1      37.1       94     35.9      0.00     12.57      55.4     0.52      1012.4     0.3      SE   143   0.9      SE     142     532       -17       0.0       0.0      44.9      9.73
   03/18/2020 03:20      38.2      37.9       94     36.5      0.00     12.57      55.6     0.52      1012.5     0.0      SE   146   0.4     SSE     155     529       -17       0.0       0.0      45.0      9.73
   03/18/2020 03:10      38.2      37.8       94     36.4      0.00     12.57      55.4     0.52      1012.7     0.0       N     0   0.0     ESE     110     526       -18       0.0       0.0      45.2      9.73
   03/18/2020 03:00      38.4      37.9       94     36.5      0.00     12.57      55.4     0.52      1012.8     0.0       N     0   0.0     ESE     117     524       -19       0.0       0.0      45.0      9.73
   03/18/2020 02:50      38.5      38.1       94     36.7      0.00     12.57      55.3     0.52      1012.8     0.0     SSE   150   0.5     SSE     152     521       -19       0.0       0.0      45.1      9.73
   03/18/2020 02:40      38.2      37.6       94     36.4      0.00     12.57      55.5     0.52      1012.9     0.2     SSE   157   0.7     SSE     152     518       -20       0.0       0.0      45.3      9.73
   03/18/2020 02:30      37.7      37.4       94     35.8      0.00     12.57      55.5     0.52      1012.9     0.2     SSE   154   1.1      SE     139     515       -21       0.0       0.0      45.5      9.73
   03/18/2020 02:20      37.9      37.5       93     36.0      0.00     12.57      55.4     0.52      1013.0     0.6     SSE   149   1.5      SE     141     513       -21       0.0       0.0      45.7      9.74
   03/18/2020 02:10      38.2      37.8       93     36.3      0.00     12.57      55.4     0.52      1013.2     0.2     SSE   160   0.8     SSE     156     510       -22       0.0       0.0      45.8      9.74
   03/18/2020 02:00      38.4      37.9       93     36.3      0.00     12.57      55.5     0.52      1013.3     0.3       S   171   1.0       S     170     506       -23       0.0       0.0      46.1      9.74
   03/18/2020 01:50      38.4      37.8       93     36.4      0.00     12.57      55.4     0.52      1013.3     0.5      SE   137   1.0      SE     134     502       -24       0.0       0.0      46.2      9.74
   03/18/2020 01:40      38.3      37.7       93     36.1      0.00     12.57      55.4     0.52      1013.4     0.0     SSE   153   0.6       S     180     495       -23       0.0       0.0      46.4      9.74
   03/18/2020 01:30      39.1      38.2       93     36.7      0.00     12.57      55.5     0.52      1013.4     0.6     SSE   161   1.3      SE     146     491       -23       0.0       0.0      46.6      9.74
   03/18/2020 01:20      39.2      38.7       93     37.1      0.00     12.57      55.6     0.52      1013.5     0.2     SSW   200   0.9      SW     235     487       -22       0.0       0.0      46.9      9.74
   03/18/2020 01:10      39.2      38.7       93     36.9      0.00     12.57      55.5     0.52      1013.6     0.4     SSE   149   0.7     SSE     157     484       -23       0.0       0.0      47.0      9.74
   03/18/2020 01:00      39.1      38.8       93     37.0      0.00     12.57      55.3     0.52      1013.6     0.1     SSE   168   0.9       S     184     480       -24       0.0       0.0      47.3      9.74
   03/18/2020 00:50      39.1      38.8       92     36.9      0.00     12.57      55.4     0.52      1013.8     0.4     SSW   204   2.4      SW     217     477       -25       0.0       0.0      47.5      9.75
   03/18/2020 00:40      39.9      39.0       92     37.4      0.00     12.57      55.4     0.52      1013.9     0.5       S   190   1.5      SW     224     472       -25       0.0       0.0      47.7      9.75
   03/18/2020 00:30      39.8      39.3       92     37.4      0.00     12.57      55.5     0.52      1014.0     0.6     SSW   207   1.9      SW     224     467       -26       0.0       0.0      47.9      9.75
   03/18/2020 00:20      39.6      39.1       92     37.2      0.00     12.57      55.5     0.52      1014.1     0.0       N     0   0.0     ENE      69     463       -27       0.0       0.0      48.1      9.75
   03/18/2020 00:10      39.8      39.3       92     37.3      0.00     12.57      55.4     0.52      1014.1     0.2      NE    48   1.0      NE      52     460       -28       0.0       0.0      48.3      9.75
   03/18/2020 00:00      40.0      39.3       92     37.6      0.00     12.57      56.2     0.52      1014.2     0.2       E   100   0.9       E     100     456       -28       0.0      10.2      48.7      9.75
   03/17/2020 23:50      39.9      39.3       91     37.3      0.00     12.57      56.2     0.52      1014.2     0.1       S   174   1.0       S     188     453       -29       0.0      10.2      48.9      9.75
   03/17/2020 23:40      40.1      39.7       91     37.5      0.00     12.57      56.2     0.52      1014.3     0.2       E    83   1.2      NE      54     449       -30       0.1      10.2      49.1      9.76
   03/17/2020 23:30      40.3      39.8       91     37.6      0.00     12.57      56.1     0.52      1014.3     0.3     SSE   148   1.2     SSE     159     446       -31       0.0      10.2      49.3      9.76
   03/17/2020 23:20      40.5      40.1       91     37.8      0.00     12.57      56.2     0.53      1014.3     0.7       S   182   1.7       S     185     441       -32       0.2      10.2      49.5      9.76
   03/17/2020 23:10      40.6      40.3       91     37.9      0.00     12.57      56.2     0.53      1014.4     0.1     SSW   191   1.2       S     189     433       -33       0.0      10.2      49.7      9.76
   03/17/2020 23:00      40.7      40.3       90     37.8      0.00     12.57      55.7     0.53      1014.4     0.2       S   179   1.3       S     175     430       -36       0.2      10.2      49.5      9.76
   03/17/2020 22:50      41.2      40.5       90     38.0      0.00     12.57      55.7     0.53      1014.4     0.2       S   179   0.9       S     186     422       -37       0.0      10.1      49.8      9.76
   03/17/2020 22:40      41.4      40.9       90     38.4      0.00     12.57      55.7     0.53      1014.4     0.2       E    86   1.4       E      97     412       -39       0.0      10.1      50.0      9.76
   03/17/2020 22:30      41.5      40.9       89     38.1      0.00     12.57      55.7     0.53      1014.3     0.4      SE   138   1.2      SE     142     403       -41       0.0      10.1      50.1      9.77
   03/17/2020 22:20      41.6      41.2       88     38.0      0.00     12.57      55.8     0.53      1014.2     0.4      SE   125   1.3      SE     134     394       -44       0.0      10.1      50.3      9.77
   03/17/2020 22:10      42.5      41.6       87     38.4      0.00     12.57      55.7     0.53      1014.2     0.7     SSE   146   1.3      SE     140     381       -45       0.2      10.1      50.4      9.77
   03/17/2020 22:00      42.9      42.3       86     38.7      0.00     12.57      55.6     0.53      1014.2     1.0     SSE   164   1.5     SSE     159     363       -47       0.4      10.1      50.9      9.77
   03/17/2020 21:50      43.7      42.8       84     38.6      0.00     12.57      55.5     0.53      1014.2     1.0     SSE   165   1.6       S     176     347       -49       0.4      10.0      51.1      9.77
   03/17/2020 21:40      44.5      43.6       81     38.7      0.00     12.57      55.6     0.53      1014.2     1.0       S   175   1.8       S     180     336       -51       0.5       9.9      51.4      9.77
   03/17/2020 21:30      45.1      44.4       81     39.2      0.00     12.57      55.5     0.53      1014.1     1.5     SSW   191   2.9     SSW     209     330       -52       0.6       9.9      51.6      9.78
   03/17/2020 21:20      44.4      43.1       85     39.6      0.00     12.57      55.5     0.53      1014.0     1.5     SSW   196   3.6       S     191     329       -51       0.4       9.8      51.8      9.78
   03/17/2020 21:10      43.8      43.3       86     39.6      0.00     12.57      55.5     0.53      1014.1     0.1     SSE   168   1.2     SSE     167     326       -53       0.0       9.7      52.1      9.78
   03/17/2020 21:00      44.0      43.5       86     39.8      0.00     12.57      55.3     0.54      1013.9     0.2     SSE   147   1.4     SSE     155     318       -56       0.0       9.7      52.0      9.78
   03/17/2020 20:50      44.3      43.8       85     39.8      0.00     12.57      55.2     0.54      1013.8     0.8     SSE   155   1.5     SSE     165     309       -60       0.3       9.7      52.2      9.78
   03/17/2020 20:40      44.6      44.1       84     39.8      0.00     12.57      55.3     0.54      1013.8     0.9     SSE   163   1.4      SE     143     303       -65       0.5       9.6      52.5      9.78
   03/17/2020 20:30      44.5      43.5       85     39.8      0.00     12.57      55.3     0.54      1013.7     1.5       S   191   2.3     SSW     192     296       -68       0.4       9.6      52.8      9.79
   03/17/2020 20:20      44.0      43.6       85     39.5      0.00     12.57      55.2     0.54      1013.4     0.6     SSW   192   1.7     SSW     194     292       -72       0.0       9.5      52.9      9.79
   03/17/2020 20:10      44.7      43.8       84     39.7      0.00     12.57      55.1     0.54      1013.3     1.0       S   178   1.7       S     188     287       -73       0.7       9.5      53.2      9.79
   03/17/2020 20:00      45.2      44.6       83     40.1      0.00     12.57      55.2     0.54      1013.4     0.5     SSE   154   1.2     SSE     150     283       -74       0.0       9.4      53.7      9.79
   03/17/2020 19:50      45.5      44.9       82     39.9      0.00     12.57      55.2     0.54      1013.4     0.1       S   172   1.0       S     171     279       -75       0.0       9.4      53.9      9.79
   03/17/2020 19:40      46.7      45.4       77     39.3      0.00     12.57      55.2     0.54      1013.5     0.7       S   169   1.3     SSE     159     275       -75       0.3       9.4      54.2      9.80
   03/17/2020 19:30      48.1      46.5       72     38.5      0.00     12.57      55.2     0.55      1013.6     1.0       S   182   1.4       S     173     272       -76       0.4       9.3      54.5      9.80
   03/17/2020 19:20      49.5      48.1       67     38.3      0.00     12.57      55.2     0.55      1013.6     1.0       S   188   1.5     SSW     192     272       -76       0.3       9.3      54.7      9.80
   03/17/2020 19:10      50.1      49.5       64     38.4      0.00     12.57      55.0     0.55      1013.6     1.6     SSW   195   2.8     SSW     201     271       -75       0.6       9.2      55.0      9.80
   03/17/2020 19:00      50.5      49.8       65     38.6      0.00     12.57      55.7     0.55      1013.6     2.2     SSW   198   3.4     SSW     198     271       -72       1.1       9.1      55.6      9.81
   03/17/2020 18:50      51.4      50.4       62     38.4      0.00     12.57      55.6     0.55      1013.6     2.2     SSW   195   2.8     SSW     205     270       -68       1.3       8.9      56.0      9.81
   03/17/2020 18:40      52.5      51.4       59     38.1      0.00     12.57      55.6     0.55      1013.6     2.0       S   180   3.4     SSW     196     270       -60       1.3       8.7      56.4      9.81
   03/17/2020 18:30      52.9      52.4       56     37.3      0.00     12.57      55.6     0.55      1013.6     2.4     SSW   192   3.7     SSW     199     270       -31       1.3       8.5      56.5      9.81
   03/17/2020 18:20      53.2      52.7       56     37.6      0.00     12.57      55.5     0.55      1013.6     2.7       S   185   4.1       S     173     270        -8       1.5       8.3      56.7      9.82
   03/17/2020 18:10      53.9      53.1       55     37.9      0.00     12.57      55.5     0.55      1013.6     2.0       S   183   4.1       S     188     270       -16       1.3       8.0      57.0      9.82
   03/17/2020 18:00      53.9      53.5       55     37.8      0.00     12.57      55.1     0.55      1013.6     2.2     SSW   199   4.3       S     171     270        50       1.4       7.8      56.5      9.82
   03/17/2020 17:50      53.6      52.6       58     38.5      0.00     12.57      55.1     0.55      1013.6     1.8      SW   235   3.4      SW     223     270        43       1.0       7.6      56.4      9.82
   03/17/2020 17:40      53.7      52.8       57     38.4      0.00     12.57      55.1     0.55      1013.5     2.9      SW   222   4.9     WSW     250     270         0       1.8       7.4      56.7      9.83
   03/17/2020 17:30      54.2      53.0       57     38.6      0.00     12.57      55.0     0.56      1013.6     2.6     WSW   245   4.4       W     270     270        14       1.5       7.1      56.9      9.83
   03/17/2020 17:20      55.8      54.2       56     39.7      0.00     12.57      55.0     0.56      1013.6     1.6      NW   312   3.5       W     263     270        69       0.8       6.8      56.9      9.83
   03/17/2020 17:10      55.8      54.5       56     39.8      0.00     12.57      55.1     0.56      1013.7     1.1       W   273   4.0      SW     230     270       226       0.7       6.7      56.7      9.84
   03/17/2020 17:00      54.4      53.7       59     39.9      0.00     12.57      55.1     0.56      1013.8     1.9     SSW   208   3.0     SSW     199     270       259       1.3       6.6      56.5      9.84
   03/17/2020 16:50      53.8      53.1       60     40.0      0.00     12.57      55.1     0.56      1014.0     0.7     WSW   249   2.4     WSW     250     270       155       0.5       6.4      56.4      9.84
   03/17/2020 16:40      53.8      53.4       60     40.1      0.00     12.57      55.0     0.56      1014.1     1.1      SW   214   3.4       S     179     270       104       0.7       6.3      56.3      9.85
   03/17/2020 16:30      53.7      53.0       61     40.1      0.00     12.57      55.3     0.56      1014.2     0.7     SSE   155   2.3      SE     126     271       261       0.6       6.2      56.3      9.85
   03/17/2020 16:20      53.0      52.2       65     41.1      0.00     12.57      55.5     0.56      1014.4     0.8     WNW   292   3.0     WNW     287     272       133       0.8       6.1      56.4      9.85
   03/17/2020 16:10      53.0      52.4       65     41.4      0.00     12.57      55.5     0.56      1014.5     1.5     WNW   296   2.9     WNW     282     279        63       0.9       5.9      56.4      9.86
   03/17/2020 16:00      53.0      51.7       67     41.6      0.00     12.57      55.2     0.57      1014.6     1.4     NNW   331   3.2     NNW     336     285       317       0.2       5.8      55.8      9.86
   03/17/2020 15:50      53.3      52.2       68     42.6      0.00     12.57      55.2     0.57      1014.7     0.7     NNE    32   2.3      NE      43     296       141       0.2       5.8      55.5      9.86
   03/17/2020 15:40      53.0      52.4       69     43.1      0.00     12.57      55.3     0.57      1014.7     0.8     NNW   333   2.5     NNE      19     302       328       0.3       5.7      55.2      9.87
   03/17/2020 15:30      52.5      50.9       76     44.6      0.00     12.57      55.1     0.57      1014.8     1.1       N   354   2.7     NNE      28     308       565       0.6       5.7      54.6      9.87
   03/17/2020 15:20      50.8      49.9       80     44.3      0.00     12.57      54.8     0.57      1014.8     1.1       N   350   2.7       N       0     314       530       0.4       5.6      54.0      9.87
   03/17/2020 15:10      50.0      48.8       83     44.7      0.00     12.57      54.8     0.57      1014.8     1.1     NNE    14   3.4      NE      35     321       550       0.7       5.5      53.8      9.87
   03/17/2020 15:00      48.8      46.3       87     43.8      0.00     12.57      55.4     0.57      1014.9     1.0      NE    45   3.6       N      11     329       597       0.4       5.4      54.0      9.87
   03/17/2020 14:50      46.4      45.5       88     42.7      0.00     12.57      55.3     0.58      1015.1     1.9       E    90   4.6      NE      37     344       161       0.6       5.3      53.8      9.87
   03/17/2020 14:40      45.6      44.2       87     41.4      0.06     12.57      55.3     0.58      1015.2     1.6       N     8   4.5     NNE      30     396       229       0.4       5.2      53.6      9.87
   03/17/2020 14:30      45.6      44.1       83     39.5      0.17     12.51      55.2     0.53      1015.4     2.1     WNW   295   8.1     WSW     257     511        65       0.9       5.2      54.2      9.84
   03/17/2020 14:20      49.0      45.6       81     42.2      0.09     12.34      55.3     0.52      1015.3     4.5     WNW   282  10.8     WSW     257     390         8       2.9       5.0      54.9      9.78
   03/17/2020 14:10      51.3      49.0       76     42.8      0.02     12.25      55.3     0.51      1015.4     2.3      NW   326   5.8     WNW     297     497        17       0.6       4.5      55.2      9.72
   03/17/2020 14:00      52.9      51.7       65     41.2      0.03     12.23      54.6     0.51      1015.4     1.7     NNE    16   4.4       N       9     588        48       0.4       4.4      54.5      9.70
   03/17/2020 13:50      52.9      52.4       62     39.9      0.00     12.20      54.6     0.51      1015.5     1.4     ENE    61   4.6       E      97     270       120       0.6       4.4      54.2      9.68
   03/17/2020 13:40      54.2      52.9       64     41.7      0.00     12.20      54.5     0.51      1015.7     2.6       E    86   5.1      SE     133     270       516       1.6       4.3      53.7      9.69
   03/17/2020 13:30      53.7      52.7       68     42.8      0.00     12.20      54.5     0.51      1015.8     2.7     ENE    62   5.1      NE      49     270       658       1.6       4.0      52.9      9.69
   03/17/2020 13:20      53.1      52.0       71     43.4      0.00     12.20      54.5     0.51      1016.0     2.7       E    86   5.7     ENE      73     270       701       1.4       3.7      52.1      9.69
   03/17/2020 13:10      53.1      52.2       71     43.5      0.00     12.20      54.5     0.51      1016.1     2.6       E    90   5.5     ESE     116     271       641       1.8       3.5      51.4      9.69
   03/17/2020 13:00      53.0      51.6       71     42.9      0.00     12.20      54.9     0.51      1016.4     1.9     NNE    32   4.4     NNE      31     277       673       0.8       3.2      51.2      9.69
   03/17/2020 12:50      52.1      51.3       72     43.0      0.00     12.20      54.9     0.51      1016.5     2.0     ENE    65   3.7     ENE      72     290       715       1.0       3.1      50.5      9.69
   03/17/2020 12:40      51.3      50.3       73     42.8      0.00     12.20      54.9     0.51      1016.6     1.7     ENE    78   4.5       N       5     301       731       1.3       2.9      49.7      9.69
   03/17/2020 12:30      50.3      48.9       76     42.4      0.00     12.20      54.9     0.51      1016.7     1.7      NE    44   2.9      NE      46     309       732       0.8       2.7      49.0      9.69
   03/17/2020 12:20      49.5      47.1       80     42.4      0.00     12.20      54.9     0.51      1016.9     1.6      NE    55   3.7      NE      35     315       737       0.7       2.6      48.5      9.69
   03/17/2020 12:10      47.1      46.1       83     41.9      0.00     12.20      54.8     0.51      1017.0     1.5      NE    44   2.9      NE      41     326       462       0.4       2.4      48.1      9.69
   03/17/2020 12:00      46.5      46.1       85     42.1      0.00     12.20      55.0     0.51      1017.1     0.9      NE    34   1.8     NNE      33     358       163       0.2       2.4      47.9      9.69
   03/17/2020 11:50      46.5      45.9       85     41.8      0.01     12.20      54.9     0.51      1017.2     1.3      NW   318   2.7       W     266     456       173       0.5       2.4      47.4      9.69
   03/17/2020 11:40      46.1      45.5       82     40.8      0.02     12.19      54.9     0.51      1017.2     2.0       W   261   4.9      SW     235     423       117       1.2       2.3      47.1      9.69
   03/17/2020 11:30      48.2      45.8       79     40.8      0.01     12.17      54.9     0.51      1017.2     4.3      SW   219  10.3     SSW     205     433        51       2.7       2.1      47.0      9.67
   03/17/2020 11:20      48.5      48.0       77     41.4      0.01     12.16      55.0     0.51      1017.0     1.8     ESE   119   5.4     ESE     116     420       140       0.9       1.6      47.0      9.66
   03/17/2020 11:10      49.2      48.3       71     39.7      0.01     12.15      55.0     0.51      1017.0     2.2     ESE   117   5.3      SE     142     454       156       1.1       1.5      46.8      9.66
   03/17/2020 11:00      50.6      49.2       67     39.2      0.00     12.14      54.6     0.51      1016.9     2.8      SE   127   6.5      SE     131     380       161       1.2       1.3      46.3      9.66
   03/17/2020 10:50      50.9      49.9       70     41.0      0.00     12.14      54.6     0.51      1016.9     1.7       E    80   5.1     SSE     153     270       321       0.7       1.1      46.0      9.66
   03/17/2020 10:40      50.0      49.2       70     40.3      0.00     12.14      54.6     0.51      1016.8     1.4       E    89   3.9     ESE     118     271       250       0.6       1.0      45.4      9.66
   03/17/2020 10:30      50.4      49.4       71     40.9      0.00     12.14      54.6     0.51      1016.8     1.5     ESE   102   3.5      SE     125     270       229       1.0       0.9      45.2      9.66
   03/17/2020 10:20      50.8      49.6       72     41.6      0.00     12.14      54.6     0.51      1016.9     1.8       E    83   3.7      SE     130     270       324       0.9       0.7      44.9      9.66
   03/17/2020 10:10      50.6      49.2       77     43.3      0.00     12.14      54.7     0.51      1016.8     1.3     ENE    60   3.0       E      92     270       465       0.6       0.6      44.5      9.66
   03/17/2020 10:00      48.9      47.7       84     43.6      0.00     12.14      55.2     0.51      1016.7     1.4       E    81   3.6       E      90     274       510       0.7       0.5      44.6      9.66
   03/17/2020 09:50      47.7      45.7       89     43.7      0.00     12.14      55.2     0.51      1016.8     0.8     NNE    29   3.0     NNE      11     288       448       0.2       0.4      44.1      9.66
   03/17/2020 09:40      46.2      45.5       90     43.0      0.00     12.14      55.3     0.51      1016.8     1.0     NNE    32   2.9      NE      51     311       166       0.2       0.3      44.0      9.66
   03/17/2020 09:30      47.1      46.2       91     44.3      0.00     12.14      55.3     0.51      1016.8     0.9     NNE    33   3.0      NW     323     306       235       0.2       0.3      43.7      9.66
   03/17/2020 09:20      46.9      45.5       93     44.3      0.00     12.14      55.4     0.51      1016.8     0.9     ENE    77   2.5       E      94     293       427       0.5       0.3      43.2      9.67
   03/17/2020 09:10      45.6      45.0       94     43.6      0.00     12.14      55.4     0.51      1016.8     1.1     NNE    28   2.6     ENE      60     300       340       0.1       0.2      42.9      9.67
   03/17/2020 09:00      45.0      44.2       94     43.1      0.00     12.14      55.5     0.51      1016.7     0.6     NNE    23   2.2       N       2     328       283       0.0       0.2      42.7      9.67
   03/17/2020 08:50      44.2      43.5       95     42.5      0.00     12.14      55.5     0.51      1016.7     0.5     NNW   336   1.8      NW     314     347       268       0.0       0.2      42.3      9.67
   03/17/2020 08:40      43.6      42.2       96     41.8      0.00     12.14      55.6     0.51      1016.7     0.0      NE    54   0.8     ENE      72     350       191       0.0       0.2      42.3      9.67
   03/17/2020 08:30      42.2      41.2       96     40.7      0.00     12.14      55.6     0.51      1016.7     0.0     ENE    63   0.9     ENE      64     349       111       0.0       0.2      42.2      9.68
   03/17/2020 08:20      41.2      40.1       96     39.4      0.00     12.14      55.6     0.51      1016.6     0.0       N     0   0.0     ESE     106     344        67       0.0       0.2      42.1      9.68
   03/17/2020 08:10      40.3      39.8       96     38.9      0.00     12.14      55.7     0.51      1016.6     0.0       N     0   0.0      NE      53     340        51       0.0       0.2      41.9      9.68
   03/17/2020 08:00      39.8      39.4       96     38.4      0.00     12.14      55.4     0.52      1016.5     0.3     ENE    63   0.9      NE      46     345        43       0.0       0.2      41.6      9.68
   03/17/2020 07:50      39.6      38.7       96     38.1      0.00     12.14      55.5     0.52      1016.4     0.0     NNE    24   0.7     NNE      24     353        26       0.0       0.2      41.6      9.68
   03/17/2020 07:40      38.7      37.9       96     37.3      0.00     12.14      55.6     0.52      1016.3     0.2     NNE    13   1.2     NNE      16     391        25       0.0       0.2      41.4      9.68
   03/17/2020 07:30      37.9      36.8       96     36.3      0.00     12.14      55.6     0.52      1016.1     0.3      SE   141   1.8     SSE     150     400        24       0.0       0.2      41.4      9.69
   03/17/2020 07:20      37.0      35.9       96     35.4      0.00     12.14      55.7     0.52      1016.0     0.6      SE   144   2.3      SE     142     420        10       0.0       0.2      41.4      9.69
   03/17/2020 07:10      36.1      35.6       96     34.7      0.00     12.14      55.7     0.52      1015.8     0.0       N     0   0.0      SE     144     425         6       0.0       0.2      41.5      9.69
   03/17/2020 07:00      35.7      35.3       96     34.4      0.00     12.14      55.8     0.52      1015.8     0.0       N     0   0.0     SSE     148     428        -3       0.0       0.2      41.5      9.69
   03/17/2020 06:50      35.5      35.1       96     34.2      0.00     12.14      55.9     0.52      1015.7     0.0       N     0   0.0      SE     141     446        -6       0.0       0.2      41.6      9.69
   03/17/2020 06:40      35.6      35.2       95     34.3      0.00     12.14      55.9     0.52      1015.7     0.0       N     0   0.0      SE     141     447        -6       0.0       0.2      41.8      9.70
   03/17/2020 06:30      36.1      35.5       96     34.7      0.00     12.14      56.0     0.52      1015.7     0.0       N     0   0.0       S     176     449        -7       0.0       0.2      41.9      9.70
   03/17/2020 06:20      35.9      35.6       96     34.6      0.00     12.14      56.0     0.52      1015.8     0.0      SE   143   0.7      SE     143     446        -7       0.0       0.2      42.0      9.70
   03/17/2020 06:10      36.1      35.6       95     34.6      0.00     12.14      56.1     0.52      1015.7     0.4      SE   145   1.6      SE     142     446        -6       0.0       0.2      42.2      9.70
   03/17/2020 06:00      36.1      35.6       96     34.7      0.00     12.14      57.0     0.52      1015.8     0.0       N     0   0.0      SE     129     441        -5       0.0       0.2      43.0      9.70
   03/17/2020 05:50      35.9      35.5       95     34.5      0.00     12.14      57.1     0.52      1015.7     0.0       N     0   0.0      SE     126     463        -6       0.0       0.2      43.1      9.71
   03/17/2020 05:40      36.2      35.7       95     34.7      0.00     12.14      57.2     0.52      1015.6     0.0       N     0   0.0     ENE      75     465        -7       0.0       0.2      43.3      9.71
   03/17/2020 05:30      36.2      35.9       95     34.8      0.00     12.14      57.2     0.52      1015.6     0.0       N     0   0.0     SSE     152     463        -7       0.0       0.2      43.4      9.71
   03/17/2020 05:20      36.3      35.9       96     35.0      0.00     12.14      57.2     0.52      1015.4     0.6      SE   143   1.4      SE     141     460        -7       0.0       0.2      43.6      9.71
   03/17/2020 05:10      36.4      35.9       95     34.8      0.00     12.14      57.3     0.52      1015.4     0.4      SE   145   1.5      SE     144     458        -7       0.0       0.2      43.8      9.71
   03/17/2020 05:00      36.7      36.4       95     35.3      0.00     12.14      56.8     0.52      1015.4     0.0       N     0   0.0     SSE     167     478        -6       0.0       0.2      43.5      9.72
   03/17/2020 04:50      36.8      36.5       95     35.4      0.00     12.14      56.8     0.52      1015.3     0.0       N     0   0.0     SSE     161     481        -6       0.0       0.2      43.6      9.72
   03/17/2020 04:40      37.4      36.7       95     35.9      0.00     12.14      56.8     0.52      1015.4     0.0       N     0   0.0     SSW     212     475        -5       0.0       0.2      43.7      9.72
   03/17/2020 04:30      37.2      36.7       95     35.6      0.00     12.14      56.9     0.52      1015.4     0.0       N     0   0.0      SE     125     471        -5       0.0       0.2      43.8      9.72
   03/17/2020 04:20      37.3      37.0       95     35.8      0.00     12.14      56.9     0.52      1015.4     0.0       N     0   0.0     SSE     149     471        -6       0.0       0.2      44.0      9.72
   03/17/2020 04:10      37.6      37.0       95     36.0      0.00     12.14      56.9     0.52      1015.4     0.0      SE   138   1.0      SE     136     468        -7       0.0       0.2      44.1      9.73
   03/17/2020 04:00      38.6      37.1       94     36.3      0.00     12.14      57.5     0.52      1015.4     0.5     SSE   162   1.6     SSE     150     460        -6       0.2       0.2      44.8      9.73
   03/17/2020 03:50      38.9      38.3       95     37.4      0.00     12.14      57.5     0.52      1015.5     1.3     SSW   208   2.9      SW     223     478        -3       0.4       0.1      44.9      9.73
   03/17/2020 03:40      38.9      38.2       95     37.2      0.00     12.14      57.5     0.52      1015.5     0.7     SSW   210   2.8     SSW     193     490        -4       0.2       0.0      45.0      9.74
   03/17/2020 03:30      38.4      37.6       95     36.6      0.00     12.14      57.5     0.52      1015.6     0.3     SSW   212   2.5     WSW     244     487        -6       0.0       0.0      45.1      9.74
   03/17/2020 03:20      38.1      37.6       95     36.5      0.00     12.14      57.6     0.52      1015.6     0.0      SE   146   0.7      SE     145     482        -7       0.0       0.0      45.3      9.74
   03/17/2020 03:10      38.2      37.8       95     36.7      0.00     12.14      57.6     0.52      1015.7     0.0     NNE    23   0.2     NNE      23     475        -6       0.0       0.0      45.4      9.74
   03/17/2020 03:00      37.9      37.4       95     36.3      0.00     12.14      56.3     0.52      1015.6     0.0      SE   146   0.7      SE     146     468        -7       0.0       0.0      44.7      9.75
   03/17/2020 02:50      37.8      37.5       95     36.2      0.00     12.14      56.3     0.52      1015.6     0.2     SSE   147   1.3      SE     143     481        -7       0.0       0.0      44.9      9.75
   03/17/2020 02:40      38.2      37.6       95     36.6      0.00     12.14      56.3     0.52      1015.6     0.1      SE   143   1.1      SE     144     478        -7       0.0       0.0      45.1      9.75
   03/17/2020 02:30      38.2      37.8       95     36.6      0.00     12.14      56.4     0.52      1015.6     0.5      SE   144   1.4      SE     137     472        -7       0.0       0.0      45.2      9.76
   03/17/2020 02:20      38.7      37.9       95     36.9      0.00     12.14      56.3     0.52      1015.6     1.1       S   179   2.2     WSW     246     466        -6       0.2       0.0      45.5      9.76
   03/17/2020 02:10      38.4      37.9       94     36.6      0.00     12.14      56.3     0.52      1015.7     0.9      SW   218   2.4     WSW     255     458        -7       0.0       0.0      45.7      9.76
   03/17/2020 02:00      38.8      38.2       94     37.0      0.00     12.14      57.2     0.52      1015.7     0.0     SSE   149   0.8     SSE     147     476        -7       0.0       0.0      46.1      9.76
   03/17/2020 01:50      39.3      38.6       94     37.4      0.00     12.14      57.2     0.52      1015.7     0.0       N     0   0.0       S     179     473        -7       0.0       0.0      46.4      9.77
   03/17/2020 01:40      39.6      39.2       94     37.8      0.00     12.14      57.2     0.53      1015.7     0.0       N     0   0.0       S     179     468        -7       0.0       0.0      46.5      9.77
   03/17/2020 01:30      39.9      39.4       94     38.0      0.00     12.14      57.3     0.53      1015.6     0.1       S   178   0.7       S     186     463        -7       0.0       0.0      46.7      9.77
   03/17/2020 01:20      40.0      39.4       94     38.1      0.00     12.14      57.3     0.53      1015.6     0.4       S   180   1.0     SSW     195     459        -6       0.0       0.0      46.9      9.78
   03/17/2020 01:10      39.7      39.3       94     37.8      0.00     12.14      57.3     0.53      1015.6     0.0       S   177   0.4       S     177     454        -7       0.0       0.0      47.2      9.78
   03/17/2020 01:00      40.1      39.6       94     38.3      0.00     12.14      57.0     0.53      1015.6     0.0       N     0   0.0     ESE     122     451        -7       0.0       0.0      47.3      9.78
   03/17/2020 00:50      40.5      39.6       94     38.3      0.00     12.14      57.0     0.53      1015.4     0.2     ESE   123   0.9      SE     129     447        -7       0.0       0.0      47.5      9.79
   03/17/2020 00:40      40.6      39.5       94     38.5      0.00     12.14      57.0     0.53      1015.3     0.3     SSE   162   1.0     SSE     166     465        -7       0.0       0.0      47.7      9.79
   03/17/2020 00:30      40.1      39.5       93     37.9      0.00     12.14      57.1     0.53      1015.4     0.0     SSE   160   0.5     SSE     157     464        -8       0.0       0.0      47.8      9.80
   03/17/2020 00:20      40.5      40.0       93     38.5      0.00     12.14      57.1     0.53      1015.4     0.7     SSE   152   1.7      SE     140     462        -7       0.0       0.0      48.1      9.80
   03/17/2020 00:10      41.0      40.4       93     38.9      0.00     12.14      57.1     0.53      1015.5     0.3       S   172   1.0       S     190     458        -7       0.0       0.0      48.3      9.80
   03/17/2020 00:00      41.2      40.5       93     39.0      0.00     12.14      57.5     0.53      1015.5     0.0       N     0   0.0       S     191     456        -7       0.0      19.0      48.5      9.81
   03/16/2020 23:50      41.5      41.1       93     39.4      0.00     12.14      57.5     0.53      1015.5     0.0       N     0   0.0       S     191     451        -7       0.0      19.0      48.8      9.81
   03/16/2020 23:40      41.5      41.2       93     39.3      0.00     12.14      57.5     0.53      1015.5     0.0     SSW   199   0.8     SSW     199     446        -7       0.0      19.0      49.0      9.81
   03/16/2020 23:30      41.5      41.2       93     39.4      0.00     12.14      57.6     0.54      1015.5     0.3      SE   133   0.9     ESE     107     439        -8       0.0      19.0      49.2      9.82
   03/16/2020 23:20      41.8      41.2       92     39.3      0.00     12.14      57.6     0.54      1015.4     0.2      SE   135   1.0      SE     137     429        -8       0.0      19.0      49.3      9.82
   03/16/2020 23:10      42.5      41.6       92     39.9      0.00     12.14      57.6     0.54      1015.4     0.4       S   176   1.7     SSW     203     419        -7       0.2      19.0      49.5      9.82
   03/16/2020 23:00      42.3      41.7       92     39.8      0.00     12.14      58.0     0.54      1015.5     1.3       S   172   2.5      SE     140     408        -7       0.2      18.9      50.2      9.83
   03/16/2020 22:50      42.4      42.1       91     39.8      0.00     12.14      57.3     0.54      1015.4     0.7     SSW   193   1.8      SE     140     384        -7       0.0      18.9      49.9      9.83
   03/16/2020 22:40      42.9      42.2       90     40.0      0.00     12.14      57.3     0.54      1015.3     0.5     SSE   149   2.0      SE     143     367        -7       0.0      18.9      50.1      9.84
   03/16/2020 22:30      43.4      42.8       90     40.3      0.00     12.14      57.4     0.54      1015.3     0.7       S   189   1.9     SSW     198     354        -7       0.0      18.9      50.2      9.84
   03/16/2020 22:20      44.0      43.4       89     40.7      0.00     12.14      57.4     0.54      1015.2     0.8      SW   225   2.2     WSW     249     345        -7       0.0      18.9      50.5      9.85
   03/16/2020 22:10      44.2      43.6       88     40.7      0.00     12.14      57.3     0.54      1015.2     0.1     SSW   202   1.0     SSW     208     337        -8       0.0      18.9      50.7      9.85
   03/16/2020 22:00      44.8      44.0       88     41.0      0.00     12.14      57.4     0.55      1015.2     0.0       N     0   0.0       E      84     330        -8       0.0      18.9      50.8      9.86
   03/16/2020 21:50      45.3      44.6       86     41.1      0.00     12.14      57.4     0.55      1015.2     0.6      SE   146   1.6      SE     142     323        -7       0.0      18.9      50.9      9.86
   03/16/2020 21:40      45.9      45.2       85     41.3      0.00     12.14      57.5     0.55      1015.0     1.5       S   170   2.8       S     177     314        -7       0.2      18.9      51.2      9.87
   03/16/2020 21:30      46.3      45.7       84     41.4      0.00     12.14      57.4     0.55      1014.9     1.4       S   180   2.7     SSW     201     308        -6       0.4      18.8      51.3      9.87
   03/16/2020 21:20      46.6      46.1       83     41.6      0.00     12.14      57.3     0.55      1015.0     1.8       S   189   3.4       S     190     305        -4       0.7      18.8      51.5      9.88
   03/16/2020 21:10      47.0      46.5       81     41.4      0.00     12.14      57.3     0.55      1014.8     2.2       S   183   3.7      SW     221     306        -2       1.3      18.6      51.6      9.88
   03/16/2020 21:00      47.1      46.8       81     41.4      0.00     12.14      57.2     0.56      1014.8     3.3     SSW   202   5.6       S     186     308        -0       1.9      18.4      51.6      9.88
   03/16/2020 20:50      47.5      47.0       80     41.5      0.00     12.14      57.1     0.56      1014.7     3.5     SSW   209   6.6     WSW     243     311        -0       2.0      18.1      51.8      9.89
   03/16/2020 20:40      48.1      47.5       81     42.2      0.00     12.14      57.2     0.56      1014.6     4.5      SW   234   7.3     SSW     209     314        -0       2.8      17.8      52.0      9.89
   03/16/2020 20:30      48.6      48.1       82     43.0      0.00     12.14      57.2     0.56      1014.5     4.0      SW   232   8.7      SW     220     318        -1       2.4      17.3      52.2      9.90
   03/16/2020 20:20      48.6      48.3       83     43.5      0.00     12.14      57.2     0.56      1014.3     3.3      SW   218   6.8     SSW     209     322        -2       1.9      16.9      52.3      9.90
   03/16/2020 20:10      48.9      48.3       86     44.6      0.00     12.14      57.2     0.56      1014.3     2.7      SW   216   5.8     WSW     239     327        -0       1.6      16.6      52.5      9.91
   03/16/2020 20:00      48.9      48.6       88     45.3      0.00     12.14      57.6     0.56      1014.2     2.7      SW   226   5.4     WSW     244     334        -0       1.5      16.3      53.0      9.91
   03/16/2020 19:50      48.9      48.6       88     45.5      0.00     12.14      57.6     0.57      1014.2     1.8      SW   231   3.2      SW     234     345        -2       0.7      16.1      53.1      9.92
   03/16/2020 19:40      49.0      48.7       89     45.7      0.00     12.14      57.6     0.57      1014.0     1.4     SSW   207   3.1      SW     230     344        -2       0.6      16.0      53.3      9.92
   03/16/2020 19:30      49.4      48.9       89     46.1      0.00     12.14      57.6     0.57      1013.9     0.9      SW   225   1.8       S     181     341        -2       0.2      15.9      53.3      9.93
   03/16/2020 19:20      49.5      49.2       90     46.4      0.00     12.14      57.6     0.57      1013.9     0.8       S   170   2.6       S     180     373        -1       0.4      15.8      53.5      9.94
   03/16/2020 19:10      49.5      49.3       90     46.6      0.01     12.14      57.6     0.57      1013.9     1.7       S   178   3.5       S     177     365        -0       0.8      15.8      53.5      9.94
   03/16/2020 19:00      49.9      49.4       91     47.0      0.00     12.13      58.1     0.57      1013.8     1.7       S   177   3.5       S     177     368         3       0.7      15.6      54.4      9.95
   03/16/2020 18:50      50.0      49.7       91     47.4      0.00     12.13      58.1     0.57      1013.8     1.4       S   181   3.9       S     187     408        10       0.5      15.5      54.5      9.96
   03/16/2020 18:40      50.3      49.9       91     47.6      0.00     12.13      58.1     0.57      1013.7     1.2     SSE   157   3.7     SSE     159     410        15       0.2      15.4      54.6      9.96
   03/16/2020 18:30      50.3      50.0       91     47.7      0.00     12.13      58.1     0.58      1013.7     0.6      SE   145   2.1     SSE     150     433        23       0.1      15.4      54.7      9.97
   03/16/2020 18:20      50.3      49.8       91     47.6      0.00     12.13      58.2     0.58      1013.7     0.7     ESE   124   2.0     ESE     113     459        26       0.0      15.4      54.7      9.98
   03/16/2020 18:10      50.0      49.8       91     47.5      0.01     12.13      58.2     0.58      1013.7     0.8      SE   134   2.2       S     174     482        25       0.1      15.3      54.8      9.99
   03/16/2020 18:00      50.0      49.7       91     47.4      0.01     12.12      57.8     0.58      1013.7     0.1     NNE    21   1.4       N       9     518        22       0.0      15.3      54.2     10.00
   03/16/2020 17:50      49.9      49.4       91     47.0      0.00     12.11      57.8     0.59      1013.7     0.8     ENE    70   2.8       E      83     452        52       0.2      15.3      54.2     10.01
   03/16/2020 17:40      49.6      49.2       90     46.5      0.02     12.11      57.8     0.59      1013.8     0.7     ENE    72   1.7     ENE      59     483        42       0.0      15.3      54.1     10.02
   03/16/2020 17:30      49.3      48.9       89     45.9      0.02     12.09      57.9     0.59      1013.9     1.1       S   174   2.4     SSW     213     478        29       0.2      15.3      54.1     10.02
   03/16/2020 17:20      49.4      49.0       88     45.9      0.03     12.07      58.0     0.59      1014.0     1.5     WSW   251   4.6     WSW     243     468        31       0.6      15.3      54.3     10.02
   03/16/2020 17:10      50.6      49.2       87     46.2      0.06     12.04      57.9     0.59      1014.1     3.1      SW   224   7.3     WNW     291     460        19       1.8      15.2      54.3     10.01
   03/16/2020 17:00      50.8      50.4       88     47.2      0.06     11.98      58.4     0.59      1013.9     4.4       S   184   9.4     SSW     203     459        16       2.4      14.9      54.8      9.98
   03/16/2020 16:50      50.8      50.6       87     46.9      0.04     11.92      58.4     0.59      1013.8     4.2     SSE   150   8.5       S     183     520        20       2.1      14.5      55.0      9.95
   03/16/2020 16:40      51.0      50.6       86     46.8      0.04     11.88      58.4     0.59      1013.8     3.0     SSE   154   6.3      SE     140     482        30       1.3      14.1      55.1      9.92
   03/16/2020 16:30      50.8      50.3       87     46.9      0.04     11.84      58.5     0.58      1013.7     5.0     ESE   123  11.5      SE     132     487        25       2.6      13.9      55.3      9.89
   03/16/2020 16:20      51.1      50.6       86     46.7      0.06     11.80      58.5     0.57      1013.7     2.7      SE   127   8.1     ESE     124     500        32       1.1      13.5      55.4      9.86
   03/16/2020 16:10      51.1      50.8       84     46.2      0.01     11.74      58.5     0.53      1013.8     4.1      SE   133  11.0       S     179     490        57       1.9      13.3      55.6      9.81
   03/16/2020 16:00      51.5      51.0       84     46.6      0.06     11.72      57.6     0.52      1013.8     5.8     SSE   155  10.9       S     188     497        56       2.8      13.0      55.1      9.80
   03/16/2020 15:50      52.2      51.4       83     46.7      0.03     11.66      57.5     0.52      1013.7     3.4      SE   141   8.3     ENE      73     506        53       1.7      12.5      55.4      9.74
   03/16/2020 15:40      52.7      52.2       82     47.1      0.02     11.63      57.5     0.52      1013.7     4.5     SSE   151  11.4     SSE     163     499       112       2.0      12.2      55.6      9.72
   03/16/2020 15:30      52.9      52.5       84     48.1      0.02     11.61      57.5     0.52      1013.6     3.2      SE   142   7.9      SE     142     502       116       1.8      11.9      55.6      9.70
   03/16/2020 15:20      52.7      51.9       84     47.5      0.01     11.59      57.5     0.52      1013.6     2.8     ESE   122   7.9     SSE     150     451       238       1.4      11.6      55.5      9.68
   03/16/2020 15:10      52.0      51.7       85     47.4      0.01     11.58      57.5     0.52      1013.8     4.8     SSE   146  15.0      SE     136     482       147       2.5      11.4      55.4      9.68
   03/16/2020 15:00      52.2      51.8       85     47.5      0.03     11.57      57.8     0.52      1013.9     2.9     ESE   111   6.1       E     100     489       160       1.4      11.0      55.6      9.67
   03/16/2020 14:50      52.7      52.1       82     47.0      0.03     11.54      57.9     0.51      1014.1     3.7     ESE   122  10.9      SE     142     498       121       1.8      10.7      55.5      9.65
   03/16/2020 14:40      53.0      52.6       83     47.8      0.00     11.51      57.8     0.51      1014.2     2.2     ESE   122   5.6       E      89     457       134       1.3      10.4      55.3      9.62
   03/16/2020 14:30      52.9      52.0       83     47.4      0.01     11.51      57.8     0.51      1014.2     3.3     SSE   157  10.8       S     179     365       191       1.7      10.2      55.3      9.62
   03/16/2020 14:20      52.5      51.6       80     46.1      0.02     11.50      57.8     0.51      1014.4     6.0     SSE   150  15.6       S     174     449       194       3.1       9.9      55.0      9.62
   03/16/2020 14:10      53.3      52.4       81     47.0      0.00     11.48      57.8     0.51      1014.5     6.4     SSE   165  11.6       S     179     427       133       3.6       9.4      54.9      9.61
   03/16/2020 14:00      55.2      53.4       74     46.5      0.01     11.48      58.2     0.51      1014.5     6.3       S   175  10.7     SSE     150     448        90       3.4       8.8      55.4      9.60
   03/16/2020 13:50      55.2      54.7       73     46.5      0.00     11.47      57.3     0.51      1014.4     6.8     SSE   161  11.9      SE     127     305       145       3.7       8.3      54.7      9.60
   03/16/2020 13:40      55.2      54.8       74     46.9      0.00     11.47      57.3     0.51      1014.6     4.9     SSE   169   8.9       S     172     312       259       2.9       7.6      54.5      9.59
   03/16/2020 13:30      55.7      55.1       71     46.0      0.00     11.47      57.3     0.51      1014.8     5.4     SSE   162  10.5     SSE     168     361       212       3.0       7.2      54.1      9.59
   03/16/2020 13:20      55.9      55.4       70     46.2      0.00     11.47      57.4     0.51      1014.9     6.5     SSE   153  13.4      SE     133     271       223       3.1       6.7      53.9      9.59
   03/16/2020 13:10      55.4      54.5       72     46.0      0.00     11.47      57.4     0.51      1015.2     5.1      SE   131   9.3     ESE     119     272       334       2.5       6.1      53.5      9.59
   03/16/2020 13:00      54.8      54.5       72     45.8      0.00     11.47      57.8     0.51      1015.4     3.4      SE   128   8.4       S     173     285       119       1.6       5.7      53.8      9.59
   03/16/2020 12:50      54.7      54.1       73     45.8      0.00     11.47      57.8     0.51      1015.5     4.2      SE   130   9.4     ESE     120     294       161       2.0       5.5      53.5      9.59
   03/16/2020 12:40      54.1      53.8       74     45.9      0.00     11.47      57.8     0.51      1015.9     2.9      SE   146   6.5      SE     135     303        94       1.5       5.1      53.4      9.59
   03/16/2020 12:30      54.2      53.6       77     46.8      0.00     11.47      57.8     0.51      1015.8     3.5     SSE   150   8.7       S     170     309        99       1.9       4.9      53.4      9.59
   03/16/2020 12:20      53.8      52.8       81     47.7      0.00     11.47      57.8     0.51      1015.7     3.9      SE   128   8.7     ESE     112     314       223       1.9       4.6      53.2      9.59
   03/16/2020 12:10      52.9      51.8       85     47.9      0.00     11.47      57.8     0.51      1016.0     2.9     ESE   117   7.1      SE     139     321       247       1.6       4.3      53.1      9.59
   03/16/2020 12:00      51.9      51.6       85     47.4      0.00     11.47      58.5     0.51      1016.0     3.3     ESE   106   6.2      SE     137     333        99       1.6       4.0      53.2      9.59
   03/16/2020 11:50      52.2      51.6       84     47.3      0.01     11.47      58.4     0.51      1016.1     3.6     ESE   116   7.3     SSE     152     410        53       1.8       3.7      53.2      9.59
   03/16/2020 11:40      53.4      52.0       81     47.0      0.02     11.46      58.5     0.51      1016.3     3.6     ESE   118   7.7      SE     133     489        41       2.3       3.4      53.2      9.59
   03/16/2020 11:30      53.9      53.3       77     46.5      0.00     11.44      58.2     0.51      1016.4     3.4     ESE   112   7.1     ESE     114     427        60       1.6       3.1      52.9      9.57
   03/16/2020 11:20      53.8      53.2       77     46.3      0.00     11.44      57.8     0.51      1016.5     2.7     ESE   110   5.7       E      97     272       126       1.4       2.8      52.4      9.57
   03/16/2020 11:10      53.3      53.1       77     46.2      0.00     11.44      57.8     0.51      1016.5     2.2     ESE   107   7.0     ESE     113     272        37       1.2       2.6      52.3      9.57
   03/16/2020 11:00      53.5      53.1       77     46.1      0.00     11.44      58.5     0.51      1016.6     2.4     ESE   122   5.6     ENE      61     273        35       1.4       2.4      52.8      9.57
   03/16/2020 10:50      53.5      53.2       77     46.4      0.00     11.44      58.5     0.51      1016.8     3.3      SE   135   7.2      SE     138     273        36       1.4       2.1      52.8      9.57
   03/16/2020 10:40      54.0      53.5       77     46.5      0.00     11.44      58.6     0.51      1016.8     2.8      SE   125   6.1      SE     128     275        45       1.2       1.9      52.8      9.57
   03/16/2020 10:30      54.1      53.7       76     46.5      0.00     11.44      58.2     0.51      1016.9     3.8      SE   128   7.5      SE     145     277       106       2.0       1.7      52.4      9.57
   03/16/2020 10:20      54.1      53.8       76     46.6      0.00     11.44      58.0     0.51      1016.9     3.2     ESE   118   8.2      SE     128     286       148       1.5       1.3      52.1      9.57
   03/16/2020 10:10      54.1      53.3       78     47.1      0.00     11.44      58.0     0.51      1017.0     2.7     ESE   113   7.3       E      85     295       215       1.3       1.1      52.0      9.57
   03/16/2020 10:00      53.5      52.2       84     48.3      0.00     11.44      58.8     0.51      1017.2     1.5       E    99   3.9       E      87     305       222       0.8       0.9      52.3      9.57
   03/16/2020 09:50      52.3      51.4       87     48.1      0.00     11.44      58.8     0.51      1017.4     0.7       E    86   2.3     ENE      61     319       176       0.2       0.7      52.0      9.57
   03/16/2020 09:40      51.5      50.9       88     47.6      0.00     11.44      58.8     0.51      1017.4     0.5     ENE    72   2.1     NNW     338     341        83       0.0       0.7      51.8      9.57
   03/16/2020 09:30      51.0      50.5       87     47.1      0.00     11.44      58.8     0.51      1017.5     0.5     ENE    67   1.5     ESE     113     394        77       0.0       0.7      51.8      9.57
   03/16/2020 09:20      50.8      50.3       86     46.5      0.01     11.44      58.8     0.51      1017.6     0.8      NE    43   1.9      NE      48     430        93       0.3       0.7      51.7      9.57
   03/16/2020 09:10      50.4      49.9       86     46.0      0.00     11.43      58.9     0.51      1017.7     0.4     WSW   258   1.2     WSW     253     448        77       0.0       0.6      51.6      9.56
   03/16/2020 09:00      50.1      49.5       87     46.0      0.00     11.43      58.3     0.51      1017.7     0.0       N     0   0.0     NNE      20     316        59       0.0       0.6      51.0      9.56
   03/16/2020 08:50      49.7      49.4       87     45.9      0.00     11.43      58.6     0.51      1017.8     0.5     NNW   336   1.9     WNW     302     347        50       0.0       0.6      51.3      9.56
   03/16/2020 08:40      49.7      49.1       88     45.8      0.01     11.43      58.6     0.51      1017.8     0.2     WNW   301   1.9     WNW     297     409        90       0.1       0.6      51.2      9.56
   03/16/2020 08:30      49.3      48.8       88     45.6      0.00     11.42      58.6     0.51      1017.7     0.0      NE    50   1.2     ENE      61     375        80       0.0       0.6      51.1      9.56
   03/16/2020 08:20      48.9      48.6       89     45.7      0.00     11.42      58.7     0.51      1017.8     0.0     NNE    24   0.9      NE      44     425        63       0.0       0.6      51.0      9.55
   03/16/2020 08:10      48.8      48.3       89     45.5      0.00     11.42      58.8     0.51      1017.6     0.0       N     0   0.0       N       7     406        61       0.0       0.6      50.7      9.55
   03/16/2020 08:00      48.5      47.8       89     45.2      0.00     11.42      58.6     0.51      1017.6     0.0       N     0   0.0       N      11     423        28       0.0       0.6      50.2      9.55
   03/16/2020 07:50      48.1      47.7       89     44.9      0.01     11.42      58.6     0.51      1017.6     0.0       N     0   0.0       N       7     427        18       0.0       0.6      50.1      9.55
   03/16/2020 07:40      47.7      47.0       90     44.6      0.00     11.41      58.6     0.51      1017.6     0.1     ESE   112   1.1      SE     128     457        14       0.0       0.6      50.0      9.55
   03/16/2020 07:30      47.0      46.3       91     44.2      0.00     11.41      58.7     0.51      1017.5     0.4     SSW   210   1.6      SW     233     431        10       0.0       0.6      50.1      9.55
   03/16/2020 07:20      46.3      45.6       91     43.6      0.00     11.41      58.7     0.51      1017.4     0.4     SSE   164   1.3     SSW     201     399         5       0.1       0.6      50.0      9.55
   03/16/2020 07:10      45.8      45.1       91     43.1      0.00     11.41      58.7     0.51      1017.4     0.6     SSE   148   1.8     SSE     158     404        -2       0.2       0.6      50.1      9.55
   03/16/2020 07:00      45.2      44.7       91     42.6      0.00     11.41      58.5     0.51      1017.4     1.0     SSE   146   1.8      SE     143     410        -6       0.0       0.6      50.2      9.55
   03/16/2020 06:50      44.9      44.5       91     42.1      0.00     11.41      58.7     0.51      1017.4     0.9      SE   146   2.0      SE     139     412       -10       0.0       0.6      50.4      9.55
   03/16/2020 06:40      45.0      44.4       90     42.0      0.00     11.41      58.8     0.51      1017.3     0.5       S   177   2.1       S     179     412       -15       0.3       0.6      50.6      9.55
   03/16/2020 06:30      45.1      44.5       90     41.9      0.00     11.41      58.9     0.51      1017.3     0.6       S   177   1.7      SE     137     411       -21       0.2       0.5      50.8      9.55
   03/16/2020 06:20      45.8      45.1       90     42.5      0.00     11.41      58.4     0.51      1017.4     0.5     SSW   214   1.3      SW     231     408       -23       0.2       0.5      50.5      9.55
   03/16/2020 06:10      46.1      45.6       90     43.0      0.00     11.41      59.0     0.51      1017.3     0.9     WSW   236   3.0     SSW     211     402       -23       0.2       0.4      51.2      9.55
   03/16/2020 06:00      46.5      46.0       90     43.5      0.00     11.41      58.7     0.51      1017.2     0.5     ENE    68   2.3      SW     222     397       -24       0.2       0.4      51.0      9.55
   03/16/2020 05:50      46.6      46.2       90     43.7      0.00     11.41      58.7     0.51      1017.3     1.0     ESE   112   2.7       E      95     389       -22       0.2       0.4      51.2      9.55
   03/16/2020 05:40      46.6      46.3       90     43.8      0.00     11.41      58.9     0.51      1017.5     0.2      SE   129   1.1       E      96     383       -10       0.0       0.3      51.5      9.55
   03/16/2020 05:30      46.4      46.1       91     43.6      0.00     11.41      59.0     0.51      1017.6     0.2     ESE   108   0.9      SE     144     385        -7       0.0       0.3      51.6      9.55
   03/16/2020 05:20      46.3      45.9       91     43.5      0.00     11.41      59.0     0.51      1017.7     0.4     SSE   157   1.4     SSW     193     393        -8       0.0       0.3      51.6      9.55
   03/16/2020 05:10      46.2      45.9       91     43.4      0.00     11.41      59.0     0.51      1017.6     0.5     SSW   198   1.6     SSW     199     397        -9       0.2       0.3      51.7      9.55
   03/16/2020 05:00      46.2      45.8       91     43.4      0.00     11.41      58.8     0.51      1017.6     0.6     SSE   149   2.4      SE     135     399       -10       0.3       0.3      51.3      9.55
   03/16/2020 04:50      46.0      45.6       91     43.4      0.00     11.41      58.6     0.51      1017.8     0.0       N     0   0.0     ESE     107     401       -13       0.0       0.3      51.3      9.56
   03/16/2020 04:40      45.9      45.4       91     43.1      0.00     11.41      58.7     0.52      1017.9     0.3     SSW   199   1.4     SSW     201     401       -10       0.0       0.3      51.5      9.56
   03/16/2020 04:30      45.8      45.5       91     43.0      0.00     11.41      58.8     0.52      1017.9     0.0     SSE   146   0.7     SSE     147     404       -10       0.0       0.2      51.6      9.56
   03/16/2020 04:20      45.8      45.5       91     43.1      0.00     11.41      58.8     0.52      1018.0     0.0       N     0   0.0      SW     216     405       -10       0.0       0.2      51.7      9.56
   03/16/2020 04:10      45.7      45.4       91     43.1      0.00     11.41      58.8     0.52      1017.9     0.2       S   184   1.1      SE     138     406       -10       0.0       0.2      51.8      9.56
   03/16/2020 04:00      45.6      45.0       91     42.9      0.00     11.41      59.1     0.52      1018.0     0.0     SSE   152   0.4     SSE     152     407        -8       0.0       0.2      52.3      9.56
   03/16/2020 03:50      45.1      44.5       91     42.3      0.00     11.41      59.2     0.52      1018.1     0.8       S   176   2.6     SSW     192     409        -9       0.3       0.2      52.4      9.56
   03/16/2020 03:40      45.1      44.5       91     42.2      0.00     11.41      59.3     0.52      1018.1     0.3      SE   135   1.2      SE     135     411       -12       0.0       0.2      52.6      9.56
   03/16/2020 03:30      45.3      44.9       91     42.5      0.00     11.41      59.2     0.52      1018.3     0.2     NNW   328   1.3     NNW     327     409       -18       0.0       0.2      52.6      9.56
   03/16/2020 03:20      45.0      44.7       91     42.4      0.00     11.41      59.4     0.52      1018.4     0.8     WNW   284   2.3     WNW     292     406       -21       0.0       0.2      52.9      9.56
   03/16/2020 03:10      45.1      44.6       91     42.3      0.00     11.41      59.5     0.52      1018.4     1.0     SSE   147   2.2      SE     128     401       -24       0.2       0.2      53.2      9.56
   03/16/2020 03:00      45.5      44.6       90     42.3      0.00     11.41      59.0     0.52      1018.6     0.4      SE   138   1.4      SE     138     393       -24       0.0       0.2      52.6      9.56
   03/16/2020 02:50      45.8      45.3       90     42.8      0.00     11.41      59.2     0.52      1018.8     0.0     SSE   156   0.5      SE     137     386       -23       0.0       0.2      52.8      9.56
   03/16/2020 02:40      45.6      45.3       90     42.8      0.00     11.41      59.5     0.52      1018.8     0.3     SSE   158   0.9      SE     146     376       -16       0.0       0.2      53.4      9.56
   03/16/2020 02:30      45.4      44.9       91     42.5      0.00     11.41      59.6     0.52      1018.9     0.4     SSE   147   1.2      SE     146     372       -11       0.0       0.2      53.6      9.56
   03/16/2020 02:20      45.2      44.6       90     42.2      0.00     11.41      59.4     0.52      1019.0     0.7     SSE   161   2.1       S     177     371       -14       0.2       0.2      53.4      9.56
   03/16/2020 02:10      45.1      44.6       90     42.1      0.00     11.41      59.3     0.52      1019.1     0.5      SE   145   1.5      SE     143     365       -18       0.0       0.1      53.4      9.56
   03/16/2020 02:00      45.1      44.6       90     42.1      0.00     11.41      59.4     0.52      1019.2     0.7     SSE   155   1.9     SSE     147     361       -16       0.0       0.1      53.6      9.56
   03/16/2020 01:50      44.8      44.4       90     41.9      0.00     11.41      59.7     0.52      1019.2     0.8       W   261   2.3      SW     229     357       -19       0.3       0.1      53.9      9.56
   03/16/2020 01:40      44.6      44.0       90     41.5      0.00     11.41      59.5     0.52      1019.1     0.7       S   175   2.7      SE     136     350       -26       0.0       0.0      53.9      9.56
   03/16/2020 01:30      44.8      44.1       89     41.3      0.00     11.41      59.2     0.52      1019.0     0.4       S   180   1.1       S     185     341       -32       0.0       0.0      54.0      9.56
   03/16/2020 01:20      45.6      44.8       88     41.8      0.00     11.41      59.3     0.52      1019.2     0.7     SSE   160   1.6      SE     143     333       -33       0.0       0.0      54.1      9.56
   03/16/2020 01:10      46.2      45.5       88     42.3      0.00     11.41      59.3     0.52      1019.2     0.6     SSW   207   1.4     SSW     200     326       -34       0.0       0.0      54.4      9.56
   03/16/2020 01:00      46.7      46.1       87     42.8      0.00     11.41      59.5     0.52      1019.3     0.2     SSE   163   1.3     SSW     204     321       -35       0.0       0.0      54.7      9.56
   03/16/2020 00:50      46.7      46.3       88     43.2      0.00     11.41      59.5     0.52      1019.5     1.3     SSW   196   2.3       S     190     316       -26       0.2       0.0      55.0      9.56
   03/16/2020 00:40      46.6      46.4       88     43.2      0.00     11.41      59.6     0.52      1019.5     0.4     SSE   154   1.2      SW     230     317       -20       0.0       0.0      55.1      9.57
   03/16/2020 00:30      46.5      46.3       88     43.2      0.00     11.41      59.6     0.52      1019.6     0.0      SE   143   0.7     SSE     157     317       -18       0.0       0.0      55.3      9.57
   03/16/2020 00:20      46.5      46.2       89     43.1      0.00     11.41      59.6     0.52      1019.6     0.2      SE   138   1.0      SE     140     318       -19       0.0       0.0      55.5      9.57
   03/16/2020 00:10      46.3      46.0       89     43.0      0.00     11.41      59.7     0.52      1019.6     0.4     SSE   153   1.5     SSE     147     318       -20       0.0       0.0      55.6      9.57
   03/16/2020 00:00      46.1      45.8       89     43.0      0.00     11.41      60.1     0.52      1019.8     1.2      SE   144   1.8      SE     135     320       -16       0.0      26.7      55.9      9.57
   03/15/2020 23:50      46.0      45.1       89     42.6      0.00     11.41      60.0     0.52      1019.8     0.5       S   186   1.4     SSW     205     322       -13       0.0      26.7      56.0      9.57
   03/15/2020 23:40      45.2      44.7       89     42.0      0.00     11.41      60.0     0.52      1019.9     0.4     SSE   155   1.2      SE     142     324       -12       0.0      26.7      56.2      9.57
   03/15/2020 23:30      44.9      44.4       89     41.6      0.00     11.41      59.9     0.52      1019.9     0.0     SSW   202   0.6     SSW     201     326       -23       0.0      26.7      56.2      9.57
   03/15/2020 23:20      44.8      44.3       89     41.5      0.00     11.41      59.7     0.52      1020.0     0.0      SE   131   0.5      SE     124     325       -33       0.0      26.7      56.2      9.57
   03/15/2020 23:10      44.6      44.2       88     41.2      0.00     11.41      59.7     0.52      1020.1     0.4     SSE   167   1.1       S     173     321       -37       0.2      26.7      56.5      9.57
   03/15/2020 23:00      45.0      44.5       87     41.2      0.00     11.41      59.8     0.52      1020.1     0.6     SSE   152   1.3     SSE     150     316       -41       0.2      26.6      56.9      9.57
   03/15/2020 22:50      45.1      44.8       87     41.5      0.00     11.41      59.8     0.52      1020.2     0.8     SSW   197   1.8     SSW     209     311       -44       0.2      26.6      57.2      9.57
   03/15/2020 22:40      45.3      44.9       87     41.5      0.00     11.41      59.9     0.52      1020.3     0.1       S   172   0.8       S     169     307       -47       0.0      26.6      57.5      9.57
   03/15/2020 22:30      45.7      45.0       86     41.5      0.00     11.41      59.9     0.52      1020.3     0.0     SSE   155   0.7      SE     144     303       -51       0.0      26.6      57.7      9.57
   03/15/2020 22:20      45.8      45.3       86     41.7      0.00     11.41      59.9     0.52      1020.3     0.5     SSE   161   1.5      SE     138     299       -53       0.1      26.6      58.0      9.57
   03/15/2020 22:10      45.6      45.3       86     41.6      0.00     11.41      60.0     0.52      1020.3     0.2     SSW   206   1.2       S     177     294       -57       0.0      26.6      58.3      9.57
   03/15/2020 22:00      46.2      45.5       85     41.6      0.00     11.41      59.5     0.52      1020.3     0.4     SSE   155   1.4      SE     140     291       -61       0.0      26.6      58.2      9.57
   03/15/2020 21:50      46.6      46.0       85     41.9      0.00     11.41      59.4     0.52      1020.2     0.8      SE   143   2.1      SE     134     286       -65       0.0      26.6      58.5      9.58
   03/15/2020 21:40      47.1      46.4       83     42.0      0.00     11.41      59.5     0.52      1020.1     0.9     SSE   154   1.7      SE     139     282       -67       0.1      26.6      58.7      9.58
   03/15/2020 21:30      47.2      46.8       84     42.3      0.00     11.41      59.4     0.52      1020.1     1.1       S   171   2.3       S     172     279       -68       0.4      26.5      59.0      9.58
   03/15/2020 21:20      47.5      46.9       83     42.1      0.00     11.41      59.4     0.52      1020.1     1.0     SSE   148   2.2      SE     142     278       -70       0.0      26.5      59.3      9.58
   03/15/2020 21:10      48.1      47.4       81     42.2      0.00     11.41      59.4     0.52      1020.1     0.9     SSE   148   1.9      SE     141     275       -71       0.2      26.4      59.5      9.58
   03/15/2020 21:00      48.4      48.0       80     42.2      0.00     11.41      59.8     0.52      1020.1     1.0     SSE   154   1.8      SE     140     273       -72       0.5      26.4      60.1      9.58
   03/15/2020 20:50      48.8      48.3       79     42.2      0.00     11.41      59.7     0.52      1020.2     0.9     SSE   161   1.2     SSE     160     273       -72       0.8      26.3      60.4      9.58
   03/15/2020 20:40      49.2      48.7       78     42.2      0.00     11.41      59.8     0.52      1020.3     1.1     SSE   152   2.5      SE     140     273       -73       0.6      26.2      60.8      9.58
   03/15/2020 20:30      49.4      48.9       75     41.7      0.00     11.41      59.7     0.52      1020.2     0.9     SSE   162   1.9       S     182     272       -73       0.9      26.1      61.1      9.58
   03/15/2020 20:20      50.0      49.4       73     41.5      0.00     11.41      59.7     0.52      1020.2     1.1       S   179   2.2     SSE     164     272       -72       0.3      25.9      61.5      9.58
   03/15/2020 20:10      50.6      49.9       72     41.6      0.00     11.41      59.7     0.52      1020.1     1.2     SSW   202   1.8     SSW     195     271       -72       0.4      25.9      61.8      9.59
   03/15/2020 20:00      51.1      50.5       70     41.3      0.00     11.41      60.1     0.52      1020.0     1.3     SSW   194   1.9     SSW     203     271       -73       0.6      25.8      62.5      9.59
   03/15/2020 19:50      51.5      51.0       68     41.1      0.00     11.41      60.1     0.52      1020.0     1.0       S   177   1.9     SSE     159     271       -75       0.3      25.7      62.8      9.59
   03/15/2020 19:40      52.0      51.4       67     41.1      0.00     11.41      60.1     0.52      1019.9     0.9       S   172   1.9       S     178     270       -78       0.3      25.7      63.1      9.59
   03/15/2020 19:30      52.5      51.9       66     41.1      0.00     11.41      60.0     0.52      1019.8     1.1     SSE   169   2.4       S     182     270       -78       0.2      25.6      63.5      9.59
   03/15/2020 19:20      53.0      52.5       64     41.0      0.00     11.41      60.0     0.52      1019.7     1.0     SSE   169   3.3       S     176     270       -78       0.3      25.6      63.8      9.59
   03/15/2020 19:10      53.3      52.9       63     41.0      0.00     11.41      60.0     0.52      1019.7     1.6       S   182   3.6       S     187     270       -78       0.9      25.6      64.1      9.59
   03/15/2020 19:00      53.8      53.2       62     40.8      0.00     11.41      59.1     0.52      1019.6     2.8     SSE   168   4.9       S     179     270       -74       1.8      25.4      63.8      9.60
   03/15/2020 18:50      54.2      53.7       61     41.0      0.00     11.41      59.0     0.52      1019.5     2.5       S   179   6.1     SSW     198     270       -69       1.4      25.1      64.2      9.60
   03/15/2020 18:40      55.0      54.2       60     41.1      0.00     11.41      59.0     0.52      1019.4     3.6       S   184   6.5     SSW     212     269       -62       2.2      24.9      64.8      9.60
   03/15/2020 18:30      56.1      55.0       59     41.3      0.00     11.41      59.0     0.52      1019.4     3.5       S   170   7.4      SE     143     269       -33       1.8      24.5      65.4      9.60
   03/15/2020 18:20      56.4      56.0       57     41.0      0.00     11.41      59.0     0.52      1019.4     3.1       S   171   7.8     SSW     193     269         2       1.9      24.2      65.7      9.61
   03/15/2020 18:10      57.5      56.3       53     40.0      0.00     11.41      59.0     0.52      1019.4     4.4     SSE   153  10.0      SE     126     268        48       2.2      23.9      66.0      9.61
   03/15/2020 18:00      58.2      57.4       49     38.6      0.00     11.41      59.1     0.52      1019.3     3.7       S   172   6.7     SSE     160     268       103       2.5      23.5      66.5      9.61
   03/15/2020 17:50      58.2      57.5       47     37.6      0.00     11.41      59.0     0.52      1019.3     4.2       S   180   6.9     SSE     165     268       152       2.5      23.1      66.5      9.61
   03/15/2020 17:40      58.1      57.4       46     37.2      0.00     11.41      59.1     0.52      1019.3     4.3     SSE   160   8.4     ESE     109     268       198       2.4      22.7      66.5      9.61
   03/15/2020 17:30      57.5      57.0       47     37.4      0.00     11.41      59.0     0.52      1019.3     3.8     SSE   165   7.0      SW     216     268        77       2.0      22.3      66.7      9.62
   03/15/2020 17:20      58.4      57.4       47     37.9      0.00     11.41      59.0     0.52      1019.4     3.8       S   173   6.6       S     180     268       139       2.3      22.0      66.8      9.62
   03/15/2020 17:10      58.6      57.7       47     38.0      0.00     11.41      59.0     0.52      1019.5     3.5     SSW   192   6.9       S     182     268       154       1.9      21.6      66.8      9.62
   03/15/2020 17:00      58.6      58.0       47     38.2      0.00     11.41      58.9     0.52      1019.5     3.9     SSW   194   7.7       S     179     268       256       2.5      21.3      66.7      9.62
   03/15/2020 16:50      58.6      58.0       48     38.8      0.00     11.41      58.9     0.52      1019.5     4.3       S   189   6.0     SSE     161     268       272       2.7      20.9      66.5      9.62
   03/15/2020 16:40      58.4      58.0       49     39.0      0.00     11.41      58.8     0.52      1019.5     4.8     SSW   205   7.9       S     184     268       267       3.1      20.4      66.5      9.62
   03/15/2020 16:30      58.4      57.8       49     39.1      0.00     11.41      58.7     0.52      1019.6     4.7       S   169   8.7       S     180     268       286       2.7      19.9      66.3      9.63
   03/15/2020 16:20      58.6      57.9       49     39.1      0.00     11.41      58.7     0.52      1019.6     5.4       S   173   9.7       S     187     268       330       3.1      19.4      66.1      9.63
   03/15/2020 16:10      58.8      58.3       50     39.8      0.00     11.41      58.6     0.52      1019.6     5.3       S   179   9.5      SW     223     268       340       3.3      18.9      65.8      9.63
   03/15/2020 16:00      59.3      58.7       50     40.6      0.00     11.41      59.0     0.52      1019.7     4.4       S   189  10.4      SW     220     268       344       2.8      18.4      65.8      9.63
   03/15/2020 15:50      59.0      58.5       51     40.5      0.00     11.41      59.0     0.52      1019.7     4.7       S   176   9.0     SSW     196     268       373       2.8      17.9      65.5      9.63
   03/15/2020 15:40      58.7      57.6       51     40.1      0.00     11.41      58.9     0.52      1019.8     5.0     SSE   168   8.6     SSE     151     269       415       2.7      17.5      65.3      9.63
   03/15/2020 15:30      57.6      56.7       52     39.6      0.00     11.41      58.8     0.52      1019.9     5.2       S   176   9.1       S     182     269       167       3.2      17.0      65.2      9.63
   03/15/2020 15:20      57.8      57.0       51     39.2      0.00     11.41      58.9     0.52      1020.0     5.3     SSE   168  11.2     SSE     168     269       191       3.0      16.5      65.3      9.64
   03/15/2020 15:10      58.9      57.8       49     39.1      0.00     11.41      58.9     0.52      1020.0     6.6       S   187  11.4       S     183     268       389       4.3      16.0      65.1      9.64
   03/15/2020 15:00      59.2      58.1       49     39.2      0.00     11.41      58.5     0.52      1020.1     5.3       S   187   9.6     SSE     162     268       506       3.4      15.3      64.9      9.64
   03/15/2020 14:50      59.3      57.8       47     38.4      0.00     11.41      58.5     0.52      1020.2     6.4       S   191  12.4     SSW     213     268       376       4.2      14.7      64.5      9.64
   03/15/2020 14:40      59.5      58.7       47     39.2      0.00     11.41      58.5     0.52      1020.2     5.8     SSW   191  11.1       S     174     268       541       3.7      14.0      64.2      9.64
   03/15/2020 14:30      59.4      58.2       48     39.4      0.00     11.41      58.4     0.52      1020.2     4.8       S   190   9.1      SW     223     268       532       3.1      13.4      63.7      9.65
   03/15/2020 14:20      59.8      58.2       46     38.4      0.00     11.41      58.4     0.52      1020.4     5.4       S   185   8.9       S     177     268       547       3.2      12.9      63.2      9.65
   03/15/2020 14:10      60.1      59.1       48     39.9      0.00     11.41      58.6     0.52      1020.4     5.3       S   178   8.9     SSE     161     268       640       3.2      12.3      63.1      9.65
   03/15/2020 14:00      59.4      58.1       48     39.3      0.00     11.41      57.8     0.52      1020.4     4.7       S   180  10.1     WNW     285     268       554       3.0      11.8      62.0      9.65
   03/15/2020 13:50      58.0      57.2       50     39.1      0.00     11.41      57.9     0.52      1020.6     5.6     SSE   168  11.3     SSE     166     269       385       2.9      11.3      61.9      9.65
   03/15/2020 13:40      58.2      57.4       51     39.8      0.00     11.41      57.8     0.52      1020.7     5.1     SSE   159   8.9     SSE     169     269       265       2.8      10.8      61.6      9.66
   03/15/2020 13:30      58.6      58.0       52     40.6      0.00     11.41      57.9     0.52      1020.7     5.1     SSE   167  10.5       S     179     269       331       3.1      10.4      61.3      9.66
   03/15/2020 13:20      58.3      57.8       51     40.3      0.00     11.41      57.9     0.52      1020.8     4.6       S   177   8.4     SSW     202     269       301       2.6       9.8      61.2      9.66
   03/15/2020 13:10      59.1      58.2       51     40.8      0.00     11.41      58.1     0.52      1020.9     4.7       S   170  10.5       S     174     269       405       3.0       9.4      61.1      9.66
   03/15/2020 13:00      58.5      57.5       53     40.8      0.00     11.41      57.9     0.52      1020.8     5.5     SSE   165  10.0       S     185     269       419       3.2       8.9      60.5      9.66
   03/15/2020 12:50      58.2      57.4       58     43.0      0.00     11.41      57.9     0.52      1020.9     3.2       S   175   5.6       S     180     270       287       2.2       8.4      60.1      9.66
   03/15/2020 12:40      58.3      57.5       59     43.4      0.00     11.41      57.8     0.52      1020.9     4.0     SSW   208   6.7     SSW     202     270       287       2.5       8.0      59.7      9.66
   03/15/2020 12:30      58.4      57.5       59     43.5      0.00     11.41      57.8     0.52      1021.0     3.4     SSW   200   9.0     SSW     192     269       393       2.0       7.6      59.3      9.67
   03/15/2020 12:20      57.7      57.0       60     43.5      0.00     11.41      57.8     0.52      1021.1     3.5     WSW   257   7.8      SW     230     270       411       2.2       7.3      58.8      9.67
   03/15/2020 12:10      57.9      57.1       60     43.7      0.00     11.41      57.8     0.52      1021.1     3.7     SSW   210   8.6      SW     234     270       459       2.5       6.9      58.2      9.67
   03/15/2020 12:00      58.0      56.9       61     44.3      0.00     11.41      58.2     0.52      1021.2     3.8      SW   230   7.7     SSE     154     285       733       2.4       6.5      58.1      9.67
   03/15/2020 11:50      56.9      54.8       66     44.9      0.00     11.41      58.2     0.52      1021.3     3.1     WSW   248   6.6      SW     218     302       642       2.0       6.1      57.6      9.67
   03/15/2020 11:40      54.8      53.1       72     45.3      0.00     11.41      58.1     0.52      1021.3     4.0     WSW   258   8.4       W     279     312       451       2.5       5.7      57.1      9.67
   03/15/2020 11:30      53.2      51.4       79     45.9      0.00     11.41      58.1     0.52      1021.5     5.2      SW   236   7.9     WSW     239     319       407       3.2       5.3      56.6      9.67
   03/15/2020 11:20      51.6      51.0       84     46.6      0.00     11.41      58.1     0.52      1021.6     5.1     SSW   205   8.1      SW     220     327       232       3.0       4.8      56.1      9.67
   03/15/2020 11:10      52.3      51.1       82     46.2      0.01     11.41      58.1     0.52      1021.6     4.7       S   191   8.6      SW     217     371       128       3.0       4.3      56.2      9.67
   03/15/2020 11:00      53.2      52.2       84     47.9      0.00     11.40      58.2     0.52      1021.3     4.4      SW   219   9.3     SSW     193     272       218       2.6       3.8      56.7      9.67
   03/15/2020 10:50      53.6      52.3       83     47.7      0.00     11.40      58.2     0.52      1021.3     4.9     WSW   238   8.0      SW     214     272       163       3.1       3.3      56.3      9.66
   03/15/2020 10:40      55.1      53.6       77     47.3      0.00     11.40      58.0     0.52      1021.2     3.6     WSW   242   5.9      SW     231     272        90       2.3       2.8      56.2      9.66
   03/15/2020 10:30      55.6      54.7       76     47.9      0.00     11.40      58.1     0.52      1021.2     0.8       W   263   2.5      SW     236     271       204       0.6       2.4      56.1      9.66
   03/15/2020 10:20      55.2      54.7       77     48.0      0.00     11.40      58.1     0.52      1021.2     0.8       N   357   2.8     NNE      19     272       203       0.2       2.3      55.8      9.67
   03/15/2020 10:10      55.0      54.1       78     47.8      0.00     11.40      58.1     0.52      1021.3     0.6     WNW   291   1.7     NNW     344     273       237       0.4       2.3      55.5      9.67
   03/15/2020 10:00      54.5      54.0       79     47.8      0.00     11.40      58.1     0.52      1021.3     0.8       E    87   2.2       N       8     273       224       0.3       2.2      55.2      9.67
   03/15/2020 09:50      54.6      54.1       80     48.2      0.00     11.40      58.1     0.52      1021.2     0.8     NNE    34   2.8     NNE      17     276       189       0.2       2.2      54.9      9.67
   03/15/2020 09:40      54.2      53.5       80     47.8      0.00     11.40      58.1     0.52      1021.2     0.3      NE    35   1.1     NNE      25     282       236       0.1       2.2      54.7      9.67
   03/15/2020 09:30      53.5      53.0       83     48.0      0.00     11.40      58.1     0.52      1021.0     0.2     NNW   343   1.4     NNW     343     290       202       0.0       2.1      54.6      9.67
   03/15/2020 09:20      53.2      52.7       85     48.5      0.00     11.40      58.2     0.52      1020.9     0.5      NW   316   1.9      NW     318     294       186       0.2       2.1      54.3      9.67
   03/15/2020 09:10      53.2      52.4       87     48.9      0.00     11.40      58.2     0.52      1020.8     0.6      NW   315   2.3     WNW     303     298       218       0.5       2.1      54.1      9.67
   03/15/2020 09:00      52.5      51.6       89     48.8      0.00     11.40      58.3     0.52      1020.7     0.4     ESE   107   1.1       E      98     302       190       0.0       2.0      54.1      9.67
   03/15/2020 08:50      51.9      51.4       90     48.7      0.00     11.40      58.4     0.52      1020.5     0.4     ENE    76   1.3     ESE     109     304       143       0.0       2.0      54.0      9.67
   03/15/2020 08:40      51.4      50.8       90     48.3      0.00     11.40      58.4     0.52      1020.4     0.5     ESE   102   1.7      SE     139     306       128       0.2       2.0      53.9      9.67
   03/15/2020 08:30      52.0      51.1       91     48.8      0.00     11.40      58.5     0.53      1020.3     0.4     ESE   107   1.8     SSE     151     308        97       0.2       2.0      53.8      9.67
   03/15/2020 08:20      52.2      50.2       93     49.2      0.00     11.40      58.5     0.53      1020.3     0.0      SE   132   0.8       E      99     311       154       0.0       1.9      53.7      9.68
   03/15/2020 08:10      50.4      49.8       93     48.1      0.00     11.40      58.5     0.52      1020.2     0.0       N     0   0.0     SSE     168     322        89       0.0       1.9      53.6      9.68
   03/15/2020 08:00      49.9      49.1       93     47.5      0.00     11.40      58.0     0.52      1020.0     0.0       N     0   0.0     SSW     203     339        60       0.0       1.9      53.0      9.68
   03/15/2020 07:50      49.3      48.9       93     47.2      0.00     11.40      58.5     0.52      1019.9     0.0      SE   137   0.8       E      94     350        37       0.0       1.9      53.5      9.68
   03/15/2020 07:40      49.1      48.9       93     47.1      0.00     11.40      58.7     0.53      1019.8     0.5     ESE   123   1.5      SE     130     356        20       0.0       1.9      53.6      9.68
   03/15/2020 07:30      49.5      49.0       93     47.2      0.00     11.40      58.7     0.53      1019.7     0.5     ESE   109   1.2     ENE      74     353        16       0.0       1.9      53.7      9.68
   03/15/2020 07:20      49.4      49.1       93     47.3      0.00     11.40      58.7     0.53      1019.7     0.0       N     0   0.0      NE      55     348         6       0.0       1.9      53.7      9.68
   03/15/2020 07:10      49.5      49.2       93     47.3      0.00     11.40      58.7     0.53      1019.6     0.0     ENE    65   0.4     ENE      65     347        -2       0.0       1.9      53.8      9.68
   03/15/2020 07:00      49.4      49.2       93     47.3      0.00     11.40      58.1     0.53      1019.6     0.5       E    87   1.9       E      82     349        -4       0.0       1.9      53.3      9.68
   03/15/2020 06:50      49.4      49.2       92     47.2      0.00     11.40      58.1     0.53      1019.5     0.7     ESE   113   1.7       E     101     352        -4       0.0       1.9      53.4      9.69
   03/15/2020 06:40      49.6      49.2       92     47.2      0.00     11.40      58.2     0.53      1019.4     0.9       E    81   2.2     NNE      21     357        -5       0.2       1.9      53.5      9.69
   03/15/2020 06:30      49.7      49.4       92     47.3      0.01     11.40      58.2     0.53      1019.5     0.7       N    10   1.8       N     353     371        -5       0.0       1.9      53.5      9.69
   03/15/2020 06:20      49.5      49.3       92     47.1      0.00     11.39      58.2     0.53      1019.7     0.9       E    90   1.9     ESE     117     470        -5       0.2       1.9      53.6      9.69
   03/15/2020 06:10      49.5      49.2       92     47.1      0.00     11.39      58.2     0.52      1019.7     0.9       S   186   1.9      SE     143     427        -5       0.0       1.9      53.6      9.69
   03/15/2020 06:00      49.8      49.4       92     47.3      0.00     11.39      58.7     0.53      1019.7     0.7     SSE   162   1.8       S     180     359        -5       0.1       1.8      54.1      9.69
   03/15/2020 05:50      49.9      49.5       92     47.5      0.00     11.39      58.7     0.52      1019.6     0.7     ESE   113   1.9      SE     139     355        -4       0.0       1.8      54.2      9.69
   03/15/2020 05:40      50.1      49.8       92     47.5      0.00     11.39      58.8     0.52      1019.6     0.2      SE   146   1.6      SE     144     380        -5       0.0       1.8      54.3      9.69
   03/15/2020 05:30      49.9      49.7       91     47.4      0.00     11.39      59.0     0.52      1019.6     0.0       N     0   0.0       S     191     340        -5       0.0       1.8      54.5      9.69
   03/15/2020 05:20      49.9      49.7       91     47.4      0.00     11.39      58.8     0.52      1019.5     0.0     SSE   165   0.8     SSE     161     344        -6       0.0       1.8      54.4      9.69
   03/15/2020 05:10      50.0      49.7       91     47.4      0.00     11.39      58.7     0.52      1019.4     0.0     SSE   163   0.7     SSE     155     355        -5       0.0       1.8      54.4      9.69
   03/15/2020 05:00      50.1      49.8       91     47.5      0.00     11.39      58.2     0.52      1019.3     0.2       S   184   1.3       S     188     374        -5       0.0       1.8      54.0      9.69
   03/15/2020 04:50      50.0      49.7       91     47.4      0.00     11.39      58.5     0.52      1019.3     0.5      SW   220   1.4      SW     235     350        -6       0.1       1.8      54.4      9.69
   03/15/2020 04:40      50.0      49.7       91     47.4      0.00     11.39      58.5     0.52      1019.4     0.5      SW   230   2.2       S     175     367        -5       0.2       1.8      54.4      9.69
   03/15/2020 04:30      50.1      49.8       91     47.5      0.00     11.39      58.6     0.52      1019.5     0.0       S   179   0.8       S     179     350        -5       0.0       1.8      54.5      9.69
   03/15/2020 04:20      50.4      50.0       91     47.8      0.00     11.39      59.1     0.52      1019.5     0.0       N     0   0.0       E      83     343        -5       0.0       1.8      54.8      9.69
   03/15/2020 04:10      50.4      50.1       91     47.8      0.00     11.39      59.0     0.52      1019.6     0.0       N     0   0.0       E      83     349        -5       0.0       1.8      54.8      9.69
   03/15/2020 04:00      50.5      50.1       91     47.7      0.00     11.39      58.6     0.52      1019.6     0.0       N     0   0.0       E      88     357        -5       0.0       1.8      54.5      9.69
   03/15/2020 03:50      50.5      50.2       91     47.7      0.00     11.39      58.6     0.52      1019.7     0.0       N     0   0.0       E      88     365        -5       0.0       1.8      54.5      9.69
   03/15/2020 03:40      50.4      50.1       90     47.5      0.00     11.39      58.6     0.52      1019.7     0.0       N     0   0.0       E      93     380        -5       0.0       1.8      54.6      9.69
   03/15/2020 03:30      50.3      50.0       90     47.4      0.01     11.39      58.6     0.52      1019.9     0.2     SSW   209   1.2     SSW     212     396        -6       0.0       1.8      54.6      9.69
   03/15/2020 03:20      50.3      50.0       90     47.4      0.00     11.38      58.7     0.52      1020.0     1.8      SW   220   3.9     SSW     193     419        -5       0.7       1.8      54.7      9.69
   03/15/2020 03:10      50.8      50.1       91     47.9      0.01     11.38      58.6     0.52      1020.1     3.0     SSW   204   4.9       S     175     382        -5       1.7       1.7      54.9      9.69
   03/15/2020 03:00      50.9      50.7       91     48.3      0.00     11.37      58.8     0.52      1020.1     1.5     SSW   195   3.0      SW     229     408        -5       0.6       1.4      55.0      9.69
   03/15/2020 02:50      51.0      50.7       91     48.4      0.00     11.37      58.8     0.52      1020.1     2.1     SSW   209   4.0      SW     229     431        -5       1.0       1.3      55.2      9.68
   03/15/2020 02:40      51.0      50.7       91     48.3      0.01     11.37      58.9     0.52      1020.1     1.3      SW   218   3.1     WSW     243     432        -5       0.5       1.1      55.3      9.68
   03/15/2020 02:30      51.1      50.7       91     48.3      0.00     11.36      58.9     0.52      1020.1     1.3     SSW   200   2.1     SSW     195     388        -5       0.5       1.0      55.4      9.68
   03/15/2020 02:20      51.1      50.9       90     48.3      0.00     11.36      58.9     0.52      1020.1     0.0     WSW   244   0.7     WSW     255     368        -4       0.0       0.9      55.5      9.68
   03/15/2020 02:10      51.1      50.8       90     48.1      0.02     11.36      58.9     0.52      1020.3     0.3      SE   141   1.5      SE     128     450        -4       0.0       0.9      55.5      9.68
   03/15/2020 02:00      51.1      50.9       89     47.9      0.02     11.34      58.5     0.52      1020.3     0.7      SW   215   2.8      SW     217     509        -4       0.3       0.9      55.3      9.67
   03/15/2020 01:50      51.6      51.0       88     47.7      0.06     11.32      58.6     0.52      1020.3     2.1     SSW   211   4.5     WSW     248     503        -5       1.2       0.9      55.5      9.65
   03/15/2020 01:40      52.0      51.5       85     47.3      0.03     11.26      58.6     0.51      1020.3     3.0     WSW   255   5.5     WSW     240     435        -5       1.8       0.7      55.8      9.60
   03/15/2020 01:30      52.2      51.9       82     46.9      0.01     11.23      59.3     0.51      1020.2     1.6       W   269   2.8       W     266     455        -8       0.8       0.4      56.6      9.57
   03/15/2020 01:20      52.1      51.7       83     46.8      0.00     11.22      59.3     0.51      1020.1     1.2     WSW   256   2.4       W     260     284       -13       0.5       0.3      56.7      9.57
   03/15/2020 01:10      52.1      51.8       82     46.8      0.00     11.22      59.3     0.51      1020.2     0.3     WSW   238   1.3       W     281     274       -15       0.0       0.2      56.8      9.57
   03/15/2020 01:00      52.1      51.8       82     46.5      0.00     11.22      59.0     0.51      1020.2     0.7     WSW   256   1.5     WSW     248     273       -16       0.3       0.2      56.5      9.57
   03/15/2020 00:50      52.1      51.8       81     46.2      0.00     11.22      59.0     0.51      1020.1     0.0       N     0   0.0     NNE      33     273       -19       0.0       0.1      56.6      9.57
   03/15/2020 00:40      52.1      51.8       80     46.0      0.00     11.22      59.0     0.51      1020.1     0.0       N     0   0.0     SSW     198     273       -21       0.0       0.1      56.7      9.57
   03/15/2020 00:30      52.4      51.9       79     45.9      0.00     11.22      59.0     0.51      1020.2     0.0       E   100   1.1      SE     141     273       -19       0.0       0.1      56.7      9.57
   03/15/2020 00:20      52.2      51.8       80     45.9      0.00     11.22      59.1     0.51      1020.3     0.5      SW   220   1.9     SSW     208     273       -18       0.1       0.1      56.9      9.57
   03/15/2020 00:10      51.9      51.3       82     46.2      0.00     11.22      59.1     0.51      1020.3     1.1     WSW   253   2.3       W     276     273       -20       0.6       0.0      57.0      9.57
   03/15/2020 00:00      51.8      51.3       83     46.6      0.00     11.22      59.2     0.51      1020.3     0.3     ENE    69   1.7     ENE      57     273       -35       0.0      20.3      57.0      9.57
   03/14/2020 23:50      51.8      51.4       83     46.7      0.00     11.22      59.1     0.51      1020.5     0.3     ENE    72   1.6     ENE      77     273       -25       0.0      20.3      57.1      9.57
   03/14/2020 23:40      51.9      51.6       83     46.6      0.00     11.22      59.1     0.51      1020.6     0.0     ENE    76   0.7     ENE      67     273       -24       0.0      20.3      57.2      9.58
   03/14/2020 23:30      52.0      51.6       82     46.4      0.00     11.22      59.1     0.51      1020.7     0.1     ESE   117   0.7      SE     138     273       -23       0.0      20.3      57.3      9.58
   03/14/2020 23:20      52.1      51.8       82     46.7      0.00     11.22      59.0     0.51      1020.6     0.0       N     0   0.0       W     270     273       -22       0.0      20.3      57.4      9.58
   03/14/2020 23:10      52.1      51.8       82     46.6      0.00     11.22      59.1     0.51      1020.6     0.4      SW   233   1.2       W     270     273       -26       0.1      20.3      57.4      9.58
   03/14/2020 23:00      52.4      51.9       82     46.8      0.00     11.22      59.5     0.51      1020.6     0.2      SE   128   1.4      SE     128     273       -26       0.0      20.2      57.9      9.58
   03/14/2020 22:50      52.4      52.1       82     46.8      0.00     11.22      59.4     0.51      1020.6     0.3       W   270   1.1     WSW     244     273       -22       0.0      20.2      58.0      9.58
   03/14/2020 22:40      52.2      51.8       83     46.8      0.00     11.22      59.5     0.51      1020.5     0.5     WNW   293   1.7     WNW     302     273       -25       0.1      20.2      58.2      9.58
   03/14/2020 22:30      52.1      51.8       83     47.0      0.00     11.22      59.4     0.51      1020.4     0.0       N     0   0.0     ENE      61     273       -22       0.0      20.2      58.2      9.58
   03/14/2020 22:20      52.2      51.8       83     46.9      0.00     11.22      59.4     0.51      1020.3     0.1     SSW   206   0.8      SW     217     273       -23       0.0      20.2      58.3      9.58
   03/14/2020 22:10      52.0      51.7       83     46.9      0.00     11.22      59.5     0.51      1020.3     0.4      SE   128   1.2       E      95     273       -28       0.0      20.2      58.4      9.58
   03/14/2020 22:00      52.1      51.7       84     47.1      0.00     11.22      58.8     0.51      1020.2     0.3       E   100   1.3       E      80     274       -38       0.0      20.2      57.9      9.58
   03/14/2020 21:50      52.5      52.0       84     47.4      0.00     11.22      58.7     0.51      1020.0     0.4       E    86   1.1      SE     134     273       -42       0.0      20.2      58.0      9.58
   03/14/2020 21:40      52.7      52.4       83     47.4      0.00     11.22      58.8     0.51      1020.0     0.4     SSE   160   1.5     SSE     160     273       -32       0.0      20.2      58.2      9.58
   03/14/2020 21:30      52.9      52.6       82     47.5      0.00     11.22      58.8     0.51      1020.1     0.0       E    97   0.3       E      97     273       -28       0.0      20.2      58.3      9.58
   03/14/2020 21:20      53.1      52.7       80     47.1      0.00     11.22      58.8     0.51      1020.2     0.0     SSW   213   0.6      SW     220     273       -20       0.0      20.2      58.4      9.58
   03/14/2020 21:10      52.9      52.6       80     46.8      0.00     11.22      58.7     0.51      1020.2     0.7     SSW   207   1.5     SSW     201     273       -17       0.0      20.2      58.6      9.58
   03/14/2020 21:00      53.2      52.7       81     47.3      0.00     11.22      58.6     0.51      1020.2     0.0      SE   146   0.6     SSE     150     273       -18       0.0      20.2      58.9      9.58
   03/14/2020 20:50      53.1      52.7       81     47.2      0.00     11.22      58.7     0.51      1020.2     0.1       E    91   1.1       E      90     273       -21       0.0      20.2      59.0      9.58
   03/14/2020 20:40      53.2      52.9       81     47.2      0.00     11.22      58.7     0.51      1020.2     0.3     SSE   153   1.1       S     181     273       -25       0.0      20.2      59.1      9.58
   03/14/2020 20:30      53.5      53.1       80     47.1      0.00     11.22      58.5     0.51      1020.2     0.0       N     0   0.0     SSW     193     273       -22       0.0      20.2      59.2      9.58
   03/14/2020 20:20      53.3      53.0       79     46.8      0.00     11.22      58.6     0.51      1020.2     0.2       S   185   1.3       S     182     273       -20       0.0      20.2      59.3      9.58
   03/14/2020 20:10      53.3      53.1       78     46.7      0.00     11.22      58.6     0.51      1020.2     1.0     ESE   106   2.4     ENE      58     273       -22       0.3      20.2      59.5      9.59
   03/14/2020 20:00      53.5      53.2       78     46.7      0.00     11.22      58.8     0.51      1020.2     1.2     ESE   109   2.3      SE     132     272       -20       0.5      20.2      59.4      9.59
   03/14/2020 19:50      53.6      53.2       78     46.7      0.00     11.22      58.7     0.51      1020.0     2.1     ESE   118   4.1      SE     133     272       -29       1.0      20.1      59.6      9.59
   03/14/2020 19:40      53.8      53.5       77     46.7      0.00     11.22      58.7     0.51      1020.0     1.8     ESE   117   3.7      SE     131     272       -22       0.8      19.9      59.8      9.59
   03/14/2020 19:30      53.9      53.6       77     46.7      0.00     11.22      58.6     0.51      1019.9     1.8     ESE   105   2.8      SE     128     272       -19       0.7      19.8      59.9      9.59
   03/14/2020 19:20      54.1      53.6       77     46.6      0.00     11.22      58.7     0.51      1019.9     1.6     ESE   108   3.4     ENE      68     272       -19       0.6      19.7      60.0      9.59
   03/14/2020 19:10      54.3      53.8       76     46.5      0.00     11.22      58.7     0.51      1020.0     2.1      SE   130   4.1     SSW     212     272       -19       1.0      19.6      60.1      9.59
   03/14/2020 19:00      54.3      54.0       76     46.6      0.00     11.22      58.7     0.51      1020.0     2.1     ESE   120   3.7     ESE     115     272       -20       1.0      19.4      60.7      9.59
   03/14/2020 18:50      54.7      54.1       76     46.9      0.00     11.22      58.6     0.51      1020.1     3.5      SE   137   6.0      SE     126     272       -18       1.6      19.2      60.9      9.59
   03/14/2020 18:40      54.8      54.4       77     47.5      0.00     11.22      58.6     0.51      1020.1     1.8     SSE   159   3.9      SE     146     272       -14       0.8      19.0      61.2      9.59
   03/14/2020 18:30      55.0      54.6       76     47.3      0.00     11.22      58.6     0.51      1020.0     2.4     SSE   164   5.2      SE     125     272        -7       1.4      18.8      61.3      9.59
   03/14/2020 18:20      55.3      54.8       74     47.0      0.00     11.22      58.6     0.51      1019.9     2.7     SSE   156   4.6       S     184     272         0       1.3      18.6      61.5      9.59
   03/14/2020 18:10      55.4      55.0       73     46.8      0.00     11.22      58.7     0.51      1019.9     2.2       S   170   4.6       S     177     271        13       1.1      18.4      61.8      9.59
   03/14/2020 18:00      55.5      55.0       71     46.0      0.00     11.22      58.3     0.51      1019.9     1.8       S   172   4.7     SSW     197     271        19       0.7      18.2      61.5      9.59
   03/14/2020 17:50      55.5      54.9       72     46.2      0.00     11.22      58.2     0.51      1019.7     1.7       S   191   5.5     SSW     203     271        35       1.0      18.1      61.5      9.60
   03/14/2020 17:40      55.4      54.9       73     46.8      0.00     11.22      58.1     0.51      1019.7     3.3       S   175   7.0     SSW     199     272        32       2.2      17.9      61.7      9.60
   03/14/2020 17:30      55.4      54.7       75     47.5      0.00     11.22      58.1     0.51      1019.7     1.9       S   178   4.7      SW     220     272        34       1.1      17.6      61.9      9.60
   03/14/2020 17:20      54.9      54.5       76     47.3      0.00     11.22      58.1     0.51      1019.6     2.9     SSE   159   5.9     ESE     119     272        70       1.6      17.4      62.1      9.60
   03/14/2020 17:10      54.9      54.5       77     47.7      0.00     11.22      58.0     0.51      1019.6     4.0      SE   145   7.3      SE     134     271        96       1.8      17.1      62.2      9.60
   03/14/2020 17:00      55.0      54.6       78     48.1      0.00     11.22      58.2     0.51      1019.6     3.9     SSE   168   7.0     SSE     154     271       137       2.4      16.8      62.5      9.60
   03/14/2020 16:50      55.4      54.7       78     48.4      0.00     11.22      58.3     0.51      1019.6     3.8       S   183   7.4     SSW     199     271       151       2.4      16.4      62.5      9.60
   03/14/2020 16:40      55.5      54.7       78     48.5      0.00     11.22      58.2     0.51      1019.6     3.4       S   190   6.8       S     174     271       152       2.0      16.0      62.5      9.60
   03/14/2020 16:30      55.5      54.7       77     48.2      0.00     11.22      58.2     0.51      1019.6     5.5     SSW   208  11.7      SW     216     272       212       3.4      15.7      62.6      9.60
   03/14/2020 16:20      55.5      54.9       78     48.5      0.00     11.22      58.1     0.51      1019.7     3.9       S   177   7.6       S     182     272       207       2.6      15.1      62.5      9.60
   03/14/2020 16:10      55.3      55.0       77     48.0      0.00     11.22      58.1     0.51      1019.8     4.8     SSW   194   8.4     WSW     239     272       166       3.1      14.7      62.5      9.60
   03/14/2020 16:00      56.6      55.4       78     48.9      0.00     11.22      58.5     0.51      1019.7     4.4       S   186   9.9     SSW     201     272       152       2.9      14.2      62.9      9.61
   03/14/2020 15:50      57.4      56.4       75     49.2      0.00     11.22      58.4     0.51      1019.6     4.3       S   172   7.9       S     174     271       206       2.4      13.7      62.8      9.61
   03/14/2020 15:40      58.0      57.2       74     49.4      0.00     11.22      58.4     0.51      1019.5     4.6     SSW   211  10.9     SSW     201     271       374       2.9      13.3      62.6      9.61
   03/14/2020 15:30      58.0      57.0       74     49.2      0.00     11.22      58.4     0.51      1019.6     4.6     SSW   197   8.7      SW     235     271       473       2.9      12.8      62.1      9.61
   03/14/2020 15:20      58.0      57.2       73     49.1      0.00     11.22      58.2     0.51      1019.5     4.0     SSE   162   8.1     SSW     195     271       363       2.3      12.3      61.7      9.61
   03/14/2020 15:10      57.4      56.8       74     48.8      0.00     11.22      58.3     0.51      1019.5     4.5       S   177   8.3     SSW     208     271       348       2.7      11.9      61.5      9.61
   03/14/2020 15:00      57.5      56.8       74     48.9      0.00     11.22      57.3     0.51      1019.5     3.9     SSE   156   7.5      SE     127     271       359       2.2      11.5      60.3      9.61
   03/14/2020 14:50      57.2      56.5       74     48.6      0.00     11.22      57.3     0.51      1019.6     5.1       S   176   8.9     SSW     195     271       274       3.1      11.1      60.1      9.61
   03/14/2020 14:40      57.6      57.1       74     49.1      0.00     11.22      57.3     0.51      1019.6     4.1       S   190   7.8     SSW     192     271       253       2.6      10.6      59.9      9.61
   03/14/2020 14:30      57.4      56.8       74     48.6      0.00     11.22      57.5     0.51      1019.7     3.5     SSE   165   6.4      SE     134     272       266       1.9      10.2      59.7      9.61
   03/14/2020 14:20      57.4      56.5       75     49.2      0.00     11.22      57.4     0.51      1019.7     4.0       S   188   7.8       S     183     272       359       2.6       9.8      59.4      9.61
   03/14/2020 14:10      56.7      55.6       78     49.3      0.00     11.22      57.2     0.51      1019.7     3.7       S   169   7.6     SSW     203     279       346       2.3       9.4      59.1      9.61
   03/14/2020 14:00      56.5      55.6       80     50.0      0.00     11.22      57.6     0.51      1019.9     4.0       S   171   7.0       S     178     290       287       2.2       9.0      59.2      9.61
   03/14/2020 13:50      56.1      55.4       85     51.2      0.00     11.22      57.7     0.51      1020.0     3.2     SSW   197   5.4       S     190     298       370       1.9       8.7      59.0      9.61
   03/14/2020 13:40      55.4      54.6       86     50.9      0.00     11.22      57.6     0.51      1020.1     3.0       S   181   6.7     SSW     210     310       265       2.0       8.3      58.7      9.61
   03/14/2020 13:30      54.8      54.3       85     50.3      0.01     11.22      57.5     0.51      1020.2     3.8       S   177   7.4       S     184     351       266       2.1       8.0      58.3      9.61
   03/14/2020 13:20      55.4      54.5       82     49.7      0.00     11.21      57.6     0.51      1020.1     4.0       S   180   7.5       S     181     417       148       2.5       7.6      58.1      9.61
   03/14/2020 13:10      55.9      55.3       79     49.4      0.00     11.21      57.6     0.51      1020.1     4.2     SSE   163   7.4       S     176     381       120       2.2       7.2      58.1      9.61
   03/14/2020 13:00      56.3      55.8       79     49.5      0.00     11.21      58.2     0.51      1020.1     4.0     SSE   162   7.1      SE     134     273       162       2.4       6.9      58.5      9.61
   03/14/2020 12:50      56.4      56.0       79     49.6      0.00     11.21      58.1     0.51      1020.1     4.3     SSE   149   8.1      SE     143     273       234       1.9       6.4      58.3      9.61
   03/14/2020 12:40      56.1      55.4       81     50.0      0.00     11.21      58.1     0.51      1020.2     3.9       S   177   7.0     SSW     206     282       277       2.5       6.1      57.9      9.61
   03/14/2020 12:30      55.4      54.9       82     49.9      0.00     11.21      58.0     0.51      1020.2     4.0       S   191   8.9       S     170     291       216       2.6       5.7      57.7      9.61
   03/14/2020 12:20      55.8      55.0       83     50.3      0.00     11.21      58.0     0.51      1020.2     3.7       S   191   6.9     SSW     207     297       279       2.2       5.3      57.5      9.61
   03/14/2020 12:10      55.7      55.2       82     50.0      0.00     11.21      58.0     0.51      1020.1     4.4     SSE   161   8.2      SE     128     303       243       2.3       4.9      57.2      9.61
   03/14/2020 12:00      55.4      54.4       84     49.9      0.00     11.21      57.6     0.51      1020.1     3.5     SSE   150   7.3      SE     127     307       396       1.6       4.5      56.3      9.61
   03/14/2020 11:50      54.9      54.3       84     49.8      0.00     11.21      57.6     0.51      1020.1     3.6     SSE   167   7.1       S     175     315       168       1.9       4.3      56.1      9.61
   03/14/2020 11:40      55.1      54.5       85     50.5      0.00     11.21      57.6     0.51      1020.0     3.9     SSE   154   7.1      SE     140     316       245       2.0       3.9      56.0      9.61
   03/14/2020 11:30      54.9      54.4       86     50.5      0.01     11.21      57.6     0.51      1020.1     1.7     SSW   211   4.3     SSW     205     377       151       1.2       3.6      55.6      9.61
   03/14/2020 11:20      54.6      54.1       85     50.1      0.00     11.20      57.6     0.51      1020.1     1.6     WSW   256   4.2       W     260     273        98       1.0       3.4      55.5      9.61
   03/14/2020 11:10      55.3      54.2       83     49.9      0.00     11.20      57.6     0.51      1020.1     3.8       W   274   5.9     WSW     255     273       143       2.1       3.2      55.5      9.61
   03/14/2020 11:00      55.3      54.9       81     49.4      0.00     11.20      57.9     0.51      1020.1     2.6      SW   230   5.6      SW     231     274       163       1.7       2.9      55.5      9.61
   03/14/2020 10:50      55.7      55.0       77     48.4      0.00     11.20      57.9     0.51      1020.1     3.0     SSW   198   5.9     SSE     155     275        93       2.0       2.6      55.3      9.61
   03/14/2020 10:40      55.7      55.4       76     48.1      0.00     11.20      57.8     0.51      1020.1     2.0       S   175   4.7       S     187     274       129       1.2       2.3      55.3      9.61
   03/14/2020 10:30      55.8      55.5       78     48.7      0.00     11.20      57.9     0.51      1020.0     3.0       S   177   5.9       S     188     278       183       1.8       2.1      55.0      9.61
   03/14/2020 10:20      55.6      54.9       78     48.5      0.00     11.20      57.9     0.51      1020.0     2.0     SSE   163   3.9     SSW     201     285       197       1.2       1.8      54.8      9.61
   03/14/2020 10:10      54.9      54.2       80     48.6      0.00     11.20      57.9     0.51      1020.1     1.1     SSE   151   3.1      SE     126     292       141       0.4       1.6      54.5      9.61
   03/14/2020 10:00      54.8      54.3       84     49.8      0.00     11.20      57.5     0.51      1020.1     1.3     SSE   165   3.5      SW     219     297        75       0.7       1.5      54.4      9.61
   03/14/2020 09:50      54.8      54.4       86     50.3      0.00     11.20      57.6     0.51      1020.1     0.2       N     0   0.9     NNE      18     300        89       0.0       1.4      54.4      9.61
   03/14/2020 09:40      54.6      54.0       86     50.3      0.00     11.20      57.5     0.51      1020.1     1.0     WNW   297   2.7       W     267     303       120       0.5       1.4      54.2      9.61
   03/14/2020 09:30      54.1      53.5       87     50.1      0.00     11.20      57.5     0.51      1020.0     1.3     WSW   246   2.6      SW     226     305       157       0.8       1.3      54.1      9.61
   03/14/2020 09:20      53.6      53.2       89     50.1      0.00     11.20      57.6     0.51      1020.0     1.2     WSW   254   2.6       W     278     309       134       0.5       1.1      54.0      9.61
   03/14/2020 09:10      53.6      53.1       90     50.5      0.00     11.20      57.5     0.51      1020.0     0.5     WSW   255   2.2       W     275     311       131       0.4       1.1      53.8      9.61
   03/14/2020 09:00      53.3      52.5       91     50.4      0.00     11.20      57.8     0.51      1019.9     0.3      NW   314   1.8       W     277     313       109       0.0       1.0      53.8      9.61
   03/14/2020 08:50      52.7      52.2       91     50.0      0.00     11.20      57.8     0.51      1020.0     1.2     WSW   242   2.7      SW     236     318        88       0.6       1.0      53.7      9.61
   03/14/2020 08:40      52.4      51.9       92     49.8      0.00     11.20      57.8     0.51      1019.8     1.6       W   261   3.3     WSW     259     326        73       0.8       0.9      53.6      9.61
   03/14/2020 08:30      52.3      51.9       92     49.8      0.00     11.20      57.8     0.51      1019.7     1.7     WSW   249   2.8      SW     226     351        59       0.9       0.8      53.5      9.61
   03/14/2020 08:20      52.2      51.8       92     49.6      0.00     11.20      57.8     0.51      1019.6     0.4     WSW   256   1.4      SW     230     376        47       0.1       0.6      53.4      9.61
   03/14/2020 08:10      52.1      51.8       92     49.6      0.01     11.20      57.9     0.51      1019.4     0.0       N     0   0.0       N     353     398        33       0.0       0.6      53.3      9.61
   03/14/2020 08:00      52.0      51.7       92     49.5      0.00     11.19      57.1     0.51      1019.3     0.0       N     0   0.0     SSW     202     406        18       0.0       0.6      52.3      9.61
   03/14/2020 07:50      51.9      51.6       92     49.5      0.02     11.19      57.1     0.51      1019.1     0.0      SW   223   1.0      SW     234     480         8       0.0       0.6      52.3      9.61
   03/14/2020 07:40      51.9      51.6       92     49.5      0.00     11.17      57.0     0.51      1018.9     0.2      SW   236   1.1      SW     236     449         4       0.0       0.6      52.3      9.60
   03/14/2020 07:30      51.8      51.6       92     49.4      0.00     11.17      57.1     0.51      1018.7     0.0       N     0   0.0      SE     144     447         0       0.0       0.6      52.3      9.60
   03/14/2020 07:20      51.8      51.5       92     49.3      0.00     11.17      57.1     0.51      1018.6     0.0       N     0   0.0      SE     132     347        -0       0.0       0.6      52.3      9.60
   03/14/2020 07:10      51.6      51.4       92     49.2      0.00     11.17      57.1     0.51      1018.5     0.0     SSW   213   0.7     SSW     212     311        -2       0.0       0.6      52.3      9.60
   03/14/2020 07:00      51.6      51.3       92     49.1      0.00     11.17      57.7     0.51      1018.5     0.3       S   184   1.1       S     182     313        -3       0.0       0.6      53.0      9.60
   03/14/2020 06:50      51.6      51.3       91     49.0      0.00     11.17      57.7     0.51      1018.5     0.0       S   173   0.1       S     173     313        -3       0.0       0.6      52.9      9.60
   03/14/2020 06:40      51.6      51.2       91     48.9      0.00     11.17      57.7     0.51      1018.4     0.0       N     0   0.0      SE     146     313        -3       0.0       0.6      53.0      9.60
   03/14/2020 06:30      51.6      51.1       91     48.7      0.00     11.17      57.7     0.51      1018.4     0.0       N     0   0.0      SE     146     313        -3       0.0       0.6      53.1      9.60
   03/14/2020 06:20      51.3      50.8       91     48.5      0.00     11.17      57.7     0.51      1018.4     0.0       N     0   0.0      SE     146     313        -3       0.0       0.6      53.0      9.60
   03/14/2020 06:10      51.3      50.8       90     48.3      0.00     11.17      57.7     0.51      1018.3     0.2     SSE   155   1.2       S     170     314        -4       0.0       0.6      53.1      9.61
   03/14/2020 06:00      51.4      51.1       90     48.5      0.00     11.17      57.6     0.51      1018.2     0.0       N     0   0.0      NE      51     314        -4       0.0       0.6      53.1      9.61
   03/14/2020 05:50      51.4      51.2       90     48.5      0.00     11.17      57.5     0.51      1018.1     0.0     ENE    71   0.8     ENE      71     311        -5       0.0       0.6      53.1      9.61
   03/14/2020 05:40      51.5      51.0       90     48.4      0.00     11.17      57.5     0.51      1018.1     0.9      SE   142   2.6     SSW     202     308        -4       0.2       0.6      53.1      9.61
   03/14/2020 05:30      51.4      51.1       90     48.6      0.00     11.17      57.6     0.51      1018.1     0.4     ESE   104   2.8      SE     131     317        -4       0.0       0.5      53.2      9.61
   03/14/2020 05:20      51.6      51.2       90     48.6      0.00     11.17      57.6     0.51      1018.1     0.4      SE   132   2.0      SE     138     319        -4       0.0       0.5      53.2      9.61
   03/14/2020 05:10      51.5      51.2       90     48.5      0.00     11.17      57.6     0.51      1018.1     0.0      NW   316   1.2      NW     317     322        -4       0.0       0.5      53.2      9.61
   03/14/2020 05:00      51.5      51.0       90     48.4      0.00     11.17      58.0     0.51      1017.9     0.8       W   280   2.2       W     279     322        -4       0.2       0.5      53.6      9.61
   03/14/2020 04:50      51.3      51.0       90     48.3      0.00     11.17      58.0     0.52      1017.7     0.0       N     0   0.0     ENE      76     324        -5       0.0       0.5      53.8      9.61
   03/14/2020 04:40      51.4      51.0       90     48.4      0.00     11.17      58.0     0.52      1017.7     0.4     ENE    72   2.0     ENE      76     326        -5       0.0       0.5      53.8      9.61
   03/14/2020 04:30      51.5      51.1       90     48.4      0.00     11.17      58.0     0.51      1017.7     0.8       E    87   1.7      SE     126     330        -5       0.0       0.5      53.8      9.61
   03/14/2020 04:20      51.5      51.2       90     48.6      0.00     11.17      57.9     0.52      1017.8     0.3     ENE    77   1.2       S     174     335        -4       0.0       0.5      53.8      9.61
   03/14/2020 04:10      51.6      51.3       90     48.7      0.00     11.17      58.0     0.52      1017.9     0.0       E    81   1.0       E      83     323        -4       0.0       0.5      53.8      9.62
   03/14/2020 04:00      51.6      51.1       91     48.7      0.00     11.17      57.6     0.52      1017.9     0.1     ENE    77   0.9     ENE      69     297        -4       0.0       0.5      53.7      9.62
   03/14/2020 03:50      51.4      51.1       91     48.7      0.00     11.17      57.6     0.52      1017.9     1.3      SW   221   2.5     WSW     244     299        -4       0.3       0.5      53.7      9.62
   03/14/2020 03:40      51.8      51.3       91     49.0      0.00     11.17      57.7     0.52      1018.0     0.7     WSW   244   1.7     WSW     249     333        -4       0.0       0.4      53.7      9.62
   03/14/2020 03:30      51.8      51.4       92     49.2      0.00     11.17      57.6     0.52      1018.0     0.0       N     0   0.0     ENE      77     348        -4       0.0       0.4      53.8      9.62
   03/14/2020 03:20      51.6      51.4       92     49.1      0.01     11.17      57.7     0.52      1018.1     0.0       N     0   0.0      SE     142     361        -4       0.0       0.4      53.8      9.62
   03/14/2020 03:10      51.9      51.3       92     49.2      0.00     11.16      57.7     0.52      1018.1     0.3       S   178   2.9     SSW     202     414        -4       0.2       0.4      53.9      9.62
   03/14/2020 03:00      52.2      51.6       92     49.7      0.00     11.16      57.8     0.52      1018.3     1.1     WSW   243   2.6      SW     218     364        -3       0.5       0.4      53.9      9.62
   03/14/2020 02:50      52.4      52.1       92     50.0      0.00     11.16      57.8     0.52      1018.4     1.1     SSW   202   2.4     SSW     200     380        -2       0.4       0.3      53.9      9.62
   03/14/2020 02:40      52.5      52.1       92     50.0      0.00     11.16      57.8     0.52      1018.4     0.0       N     0   0.0     SSW     212     428        -3       0.0       0.3      53.9      9.62
   03/14/2020 02:30      52.4      52.1       92     49.9      0.00     11.16      57.8     0.52      1018.3     0.2     WNW   292   1.5       N      11     321        -3       0.0       0.3      54.0      9.62
   03/14/2020 02:20      52.4      52.1       92     49.8      0.00     11.16      57.9     0.52      1018.4     0.0       N     0   0.0      NE      50     318        -3       0.0       0.3      54.0      9.62
   03/14/2020 02:10      52.4      52.0       91     49.7      0.00     11.16      57.9     0.52      1018.4     0.0       S   176   0.4       S     176     315        -3       0.0       0.3      54.1      9.62
   03/14/2020 02:00      52.3      52.1       91     49.6      0.00     11.16      56.9     0.52      1018.5     0.3       S   182   1.4     SSW     198     314        -4       0.0       0.3      53.5      9.62
   03/14/2020 01:50      52.4      52.1       91     49.5      0.00     11.16      56.9     0.52      1018.4     0.0     SSW   195   1.2       S     189     313        -4       0.0       0.3      53.5      9.62
   03/14/2020 01:40      52.2      51.9       91     49.4      0.00     11.16      57.2     0.52      1018.2     0.6       E    96   3.0     NNE      34     313        -4       0.0       0.3      53.7      9.62
   03/14/2020 01:30      52.5      52.1       91     49.6      0.00     11.16      58.0     0.52      1018.2     0.9      NE    52   2.4      NE      46     323        -3       0.0       0.3      54.2      9.62
   03/14/2020 01:20      52.5      52.2       90     49.5      0.00     11.16      58.0     0.52      1018.2     0.2     ENE    63   1.1     ENE      65     324        -4       0.0       0.3      54.3      9.62
   03/14/2020 01:10      52.7      52.4       89     49.5      0.00     11.16      58.0     0.52      1018.3     0.0     NNE    14   0.6     NNE      16     326        -4       0.0       0.3      54.3      9.62
   03/14/2020 01:00      52.9      52.5       89     49.4      0.00     11.16      58.1     0.52      1018.3     0.2      NW   309   1.4      NW     310     328        -4       0.0       0.3      54.6      9.62
   03/14/2020 00:50      52.9      52.6       88     49.3      0.00     11.16      58.1     0.52      1018.1     0.2       W   267   1.3       W     266     331        -4       0.0       0.3      54.5      9.62
   03/14/2020 00:40      52.9      52.5       87     49.0      0.01     11.16      58.2     0.52      1018.1     0.0      NE    38   0.5      NE      38     367        -4       0.0       0.3      54.6      9.62
   03/14/2020 00:30      53.2      52.7       86     48.8      0.01     11.15      58.2     0.52      1018.1     0.4     SSW   207   1.5     SSW     199     443        -4       0.0       0.3      54.7      9.62
   03/14/2020 00:20      53.3      53.0       84     48.5      0.00     11.14      58.1     0.52      1018.1     1.3     WSW   243   2.4     WSW     253     431        -8       0.5       0.2      54.7      9.62
   03/14/2020 00:10      53.3      53.0       84     48.3      0.00     11.14      58.2     0.52      1018.0     2.1     WSW   246   4.0      SW     220     276       -11       1.0       0.2      54.8      9.62
   03/14/2020 00:00      53.2      52.7       84     48.2      0.00     11.14      57.0     0.52      1017.9     1.4      SW   216   2.6     SSW     192     273       -13       0.6       6.2      54.0      9.62
   03/13/2020 23:50      53.0      52.7       85     48.3      0.00     11.14      57.0     0.52      1017.8     1.7      SW   230   4.1     SSW     207     273       -14       0.7       6.1      54.0      9.62
   03/13/2020 23:40      52.9      52.5       85     48.4      0.00     11.14      57.0     0.52      1017.9     0.3      NE    53   1.3      SW     236     273       -14       0.0       6.0      54.1      9.62
   03/13/2020 23:30      53.0      52.6       86     48.7      0.00     11.14      57.0     0.52      1017.8     0.2     ESE   104   1.5       E      84     273       -15       0.0       6.0      54.1      9.62
   03/13/2020 23:20      53.2      52.7       86     48.8      0.00     11.14      57.0     0.52      1017.8     0.0      NE    54   0.5      NE      48     274       -18       0.0       6.0      54.2      9.63
   03/13/2020 23:10      53.2      53.0       85     48.7      0.00     11.14      57.0     0.52      1017.8     0.5     ENE    76   1.2     ENE      78     273       -15       0.0       6.0      54.2      9.63
   03/13/2020 23:00      53.5      53.0       85     48.9      0.00     11.14      57.7     0.52      1017.7     0.2     ESE   106   1.2     ESE     123     273       -14       0.1       6.0      54.9      9.63
   03/13/2020 22:50      53.3      53.0       85     48.8      0.00     11.14      57.6     0.52      1017.6     0.3       S   186   1.2     SSW     209     274       -13       0.0       6.0      54.9      9.63
   03/13/2020 22:40      53.4      53.0       85     48.8      0.00     11.14      57.7     0.52      1017.5     0.7      SW   219   1.4       W     260     274       -13       0.1       6.0      55.0      9.63
   03/13/2020 22:30      53.5      53.1       85     48.9      0.00     11.14      57.7     0.52      1017.4     0.7     SSE   160   1.8      SW     217     274       -13       0.3       5.9      54.9      9.63
   03/13/2020 22:20      53.7      53.3       85     49.0      0.00     11.14      57.7     0.52      1017.3     0.2     NNW   334   1.9     NNW     337     274       -13       0.0       5.9      55.0      9.63
   03/13/2020 22:10      53.8      53.3       83     48.6      0.00     11.14      57.8     0.52      1017.2     0.6     ESE   109   1.8     SSW     194     274       -14       0.2       5.9      55.1      9.63
   03/13/2020 22:00      53.8      53.4       83     48.4      0.00     11.14      57.3     0.52      1017.0     1.3     SSW   192   3.1     SSW     194     273       -13       0.7       5.9      54.8      9.64
   03/13/2020 21:50      53.8      53.3       83     48.6      0.00     11.14      57.2     0.52      1017.0     1.3     SSW   197   2.6      SW     222     273       -12       0.7       5.8      54.9      9.64
   03/13/2020 21:40      53.8      53.4       84     48.9      0.00     11.14      57.3     0.52      1016.9     0.1     SSW   194   1.1      SW     214     273       -11       0.0       5.6      55.0      9.64
   03/13/2020 21:30      53.6      53.3       84     48.8      0.00     11.14      57.2     0.52      1016.8     0.9       S   190   2.5       S     188     273        -9       0.3       5.6      55.0      9.64
   03/13/2020 21:20      53.8      53.4       84     48.7      0.00     11.14      57.3     0.52      1016.7     0.6     SSW   196   1.5      SW     223     273        -6       0.0       5.6      55.0      9.64
   03/13/2020 21:10      53.7      53.4       83     48.5      0.00     11.14      57.3     0.52      1016.6     1.2       S   189   2.1      SE     128     273        -5       0.5       5.6      55.2      9.64
   03/13/2020 21:00      53.8      53.4       83     48.6      0.00     11.14      57.6     0.52      1016.4     2.0       S   178   4.6       S     178     273        -4       1.2       5.5      55.2      9.64
   03/13/2020 20:50      53.8      53.5       84     48.9      0.00     11.14      57.5     0.52      1016.3     1.0       S   182   3.4     SSE     151     273        -4       0.5       5.3      55.3      9.65
   03/13/2020 20:40      54.0      53.5       84     49.1      0.00     11.14      57.6     0.52      1016.3     0.2     ESE   123   1.2     SSW     200     274        -4       0.1       5.2      55.3      9.65
   03/13/2020 20:30      54.0      53.7       84     49.1      0.00     11.14      57.5     0.52      1016.2     0.0      NW   314   0.8      NW     314     274        -4       0.0       5.2      55.4      9.65
   03/13/2020 20:20      54.1      53.6       83     48.9      0.00     11.14      57.5     0.52      1016.1     0.4     NNW   340   1.6     WSW     255     274        -3       0.0       5.2      55.3      9.65
   03/13/2020 20:10      54.0      53.6       83     48.8      0.00     11.14      57.5     0.52      1015.9     0.8      SW   231   2.9      SW     228     273        -3       0.4       5.2      55.4      9.65
   03/13/2020 20:00      53.9      53.6       83     48.8      0.00     11.14      57.9     0.52      1015.9     1.2       S   181   2.6       S     178     273        -3       0.6       5.1      56.1      9.65
   03/13/2020 19:50      53.8      53.5       83     48.8      0.00     11.14      57.4     0.52      1015.7     1.9      SE   128   3.8     SSE     153     273        -3       0.7       5.0      55.5      9.66
   03/13/2020 19:40      54.0      53.6       84     49.0      0.00     11.14      57.2     0.52      1015.6     1.0      SE   130   3.4      SE     134     273        -4       0.4       4.9      55.5      9.66
   03/13/2020 19:30      54.2      53.8       84     49.2      0.00     11.14      57.2     0.52      1015.5     0.5     ESE   107   2.1      SE     136     275        -4       0.2       4.8      55.6      9.66
   03/13/2020 19:20      54.7      54.0       83     49.3      0.00     11.14      57.2     0.52      1015.4     0.2      NE    47   1.4      NE      50     273        -4       0.0       4.8      55.7      9.66
   03/13/2020 19:10      54.7      54.3       82     49.1      0.00     11.14      57.2     0.52      1015.3     0.2     NNE    31   0.9       E      99     273        -3       0.0       4.8      55.7      9.66
   03/13/2020 19:00      54.6      54.3       81     48.8      0.00     11.14      57.4     0.52      1015.2     1.1     ESE   103   3.8      SE     136     273        -1       0.3       4.8      55.9      9.67
   03/13/2020 18:50      54.8      54.4       81     48.9      0.00     11.14      57.4     0.52      1015.1     1.2     ESE   110   3.1     ENE      66     273         0       0.5       4.7      56.0      9.67
   03/13/2020 18:40      54.9      54.5       81     49.0      0.00     11.14      57.3     0.52      1015.0     0.6      SE   145   2.1     SSE     153     273         5       0.1       4.7      56.1      9.67
   03/13/2020 18:30      55.2      54.7       80     48.9      0.00     11.14      57.3     0.52      1014.8     1.8      SE   146   3.8     SSE     159     273        12       0.8       4.6      56.2      9.67
   03/13/2020 18:20      55.4      55.0       78     48.5      0.00     11.14      57.2     0.52      1014.7     2.7       S   175   5.3       S     172     272        21       1.4       4.5      56.3      9.67
   03/13/2020 18:10      55.7      55.3       77     48.3      0.00     11.14      57.2     0.52      1014.5     2.8     SSE   160   5.7      SE     134     272        32       1.2       4.3      56.4      9.68
   03/13/2020 18:00      56.0      55.5       76     48.3      0.00     11.14      57.4     0.52      1014.5     3.3       S   176   6.4       S     189     275        73       1.9       4.1      56.5      9.68
   03/13/2020 17:50      56.5      55.9       75     48.5      0.00     11.14      57.3     0.52      1014.4     2.9       S   170   5.0       S     189     283       105       1.6       3.7      56.5      9.68
   03/13/2020 17:40      56.7      56.3       76     48.9      0.00     11.14      57.3     0.52      1014.4     2.7     SSE   165   5.3     SSE     149     290       132       1.6       3.5      56.4      9.68
   03/13/2020 17:30      56.8      56.0       76     49.0      0.00     11.14      57.2     0.52      1014.4     2.7     SSE   156   6.3       S     189     297       211       1.6       3.2      56.2      9.69
   03/13/2020 17:20      56.2      55.7       77     49.0      0.00     11.14      57.2     0.52      1014.4     2.9       S   174   6.2       S     170     303       142       1.6       3.0      56.0      9.69
   03/13/2020 17:10      56.2      55.6       83     51.0      0.00     11.14      57.3     0.52      1014.4     1.4     SSW   192   3.4      SW     216     308       149       0.9       2.7      56.0      9.69
   03/13/2020 17:00      55.7      55.1       87     51.4      0.00     11.14      57.3     0.52      1014.4     1.2      SE   137   3.2       S     189     312       132       0.6       2.6      56.0      9.70
   03/13/2020 16:50      55.2      54.6       89     51.8      0.00     11.14      57.3     0.52      1014.4     1.5     ESE   102   2.8     ENE      74     315       156       0.8       2.4      55.9      9.70
   03/13/2020 16:40      54.8      54.1       90     51.8      0.00     11.14      57.3     0.52      1014.4     1.3       E    92   3.5     ENE      67     319       181       0.4       2.3      55.8      9.70
   03/13/2020 16:30      54.3      53.8       91     51.5      0.00     11.14      57.3     0.52      1014.4     1.2     ESE   108   3.0      NE      42     337       109       0.5       2.2      55.6      9.70
   03/13/2020 16:20      54.1      53.6       91     51.2      0.00     11.14      57.3     0.52      1014.5     1.3       E    80   2.1     ENE      65     359        56       0.4       2.2      55.5      9.71
   03/13/2020 16:10      54.2      53.7       90     51.2      0.00     11.14      57.2     0.52      1014.4     0.9     ENE    76   3.6      SE     126     383        60       0.5       2.1      55.5      9.71
   03/13/2020 16:00      53.9      53.6       90     50.8      0.01     11.14      56.7     0.52      1014.4     0.8     ENE    68   2.0     ENE      58     452        66       0.1       2.0      55.0      9.72
   03/13/2020 15:50      54.0      53.5       89     50.5      0.00     11.13      56.7     0.52      1014.4     1.0      NE    52   3.2      NE      49     478        50       0.0       2.0      54.9      9.72
   03/13/2020 15:40      54.1      53.5       88     50.3      0.00     11.13      56.7     0.52      1014.3     0.5       E    79   2.4      SE     128     403        37       0.1       2.0      54.9      9.72
   03/13/2020 15:30      54.0      53.6       87     50.0      0.00     11.13      56.7     0.52      1014.2     0.6     ESE   121   1.5     ESE     114     426        45       0.1       2.0      54.9      9.72
   03/13/2020 15:20      54.0      53.5       88     50.2      0.00     11.13      56.7     0.53      1014.2     0.1       E    93   1.0     ENE      60     416        56       0.0       1.9      54.8      9.72
   03/13/2020 15:10      53.7      53.4       88     50.1      0.00     11.13      56.7     0.53      1014.2     0.5       E    85   2.1       E      89     381        80       0.2       1.9      54.8      9.73
   03/13/2020 15:00      53.6      53.2       89     50.0      0.00     11.13      56.9     0.53      1014.1     0.5       E    82   2.0      NE      47     317        86       0.2       1.9      55.1      9.73
   03/13/2020 14:50      53.5      52.9       89     50.0      0.00     11.13      57.0     0.53      1014.1     0.5     ENE    79   1.7       E      80     340        73       0.1       1.9      55.0      9.73
   03/13/2020 14:40      53.2      52.8       88     49.6      0.00     11.13      56.9     0.53      1014.0     1.1     ENE    70   2.1       E      85     384        62       0.3       1.8      54.9      9.73
   03/13/2020 14:30      53.2      52.7       88     49.5      0.00     11.13      56.5     0.53      1014.0     1.3     ENE    70   3.0     ENE      65     432        60       0.4       1.8      54.5      9.73
   03/13/2020 14:20      53.2      52.9       88     49.7      0.00     11.13      56.2     0.53      1014.1     1.0       E    91   3.1     ENE      60     422        55       0.5       1.7      54.1      9.74
   03/13/2020 14:10      53.5      53.1       89     50.1      0.00     11.13      56.3     0.53      1014.0     0.6       E    84   2.8      SE     145     338        47       0.3       1.6      54.0      9.74
   03/13/2020 14:00      53.3      52.7       89     50.0      0.00     11.13      56.7     0.53      1013.9     0.8      SE   132   3.7     SSW     198     309        61       0.4       1.6      54.5      9.74
   03/13/2020 13:50      53.2      52.5       90     50.0      0.00     11.13      56.6     0.53      1013.9     1.6      SE   126   3.0     SSE     163     308        72       0.9       1.5      54.5      9.74
   03/13/2020 13:40      52.9      52.2       90     49.8      0.00     11.13      56.6     0.53      1013.9     1.3     ESE   109   3.2      SE     146     310       114       0.7       1.4      54.4      9.75
   03/13/2020 13:30      52.4      51.9       91     49.5      0.00     11.13      56.6     0.53      1014.0     2.2       E    90   6.2     ENE      58     315        89       1.2       1.3      54.3      9.75
   03/13/2020 13:20      52.2      51.8       91     49.5      0.00     11.13      56.6     0.53      1014.0     2.4       E    92   4.4     ENE      70     331       105       1.1       1.0      54.1      9.75
   03/13/2020 13:10      52.5      52.0       91     49.9      0.01     11.13      56.5     0.53      1014.1     2.3       E    85   5.1      NE      55     373        73       1.1       0.9      54.0      9.76
   03/13/2020 13:00      52.7      52.3       92     50.1      0.00     11.12      56.9     0.53      1014.1     1.7     ENE    75   4.0     ESE     109     418        72       0.5       0.7      54.3      9.76
   03/13/2020 12:50      52.9      52.3       91     50.1      0.00     11.12      56.9     0.53      1014.2     1.8       E    89   4.4       E      94     465        82       0.7       0.6      54.3      9.77
   03/13/2020 12:40      52.9      52.4       91     50.1      0.00     11.12      56.9     0.53      1014.2     1.7       E    79   3.6      SE     126     390        91       0.7       0.5      54.2      9.77
   03/13/2020 12:30      52.7      52.2       91     50.0      0.00     11.12      56.8     0.53      1014.1     1.6     ENE    78   3.8       E      79     374        88       0.6       0.4      54.0      9.78
   03/13/2020 12:20      53.0      52.4       92     50.4      0.00     11.12      56.8     0.53      1014.0     1.3     ENE    77   3.7       E      91     347       104       0.5       0.3      53.9      9.78
   03/13/2020 12:10      53.2      52.4       92     50.5      0.00     11.12      56.8     0.53      1013.9     0.6       E    88   2.0      NE      51     385        97       0.2       0.2      53.8      9.79
   03/13/2020 12:00      53.2      52.6       93     50.8      0.00     11.12      56.2     0.53      1013.9     0.5       E    80   1.3      SE     134     358       130       0.0       0.1      53.2      9.79
   03/13/2020 11:50      52.9      52.4       92     50.5      0.00     11.12      56.3     0.53      1013.9     0.4     ENE    69   1.2       S     174     413       109       0.0       0.1      53.0      9.80
   03/13/2020 11:40      52.9      52.6       93     50.7      0.00     11.12      56.3     0.53      1013.9     0.2       E    92   1.2       E     100     407       110       0.0       0.1      53.0      9.80
   03/13/2020 11:30      52.6      51.8       93     50.2      0.00     11.12      56.2     0.53      1013.9     0.2      NE    34   1.2     NNE      31     416       133       0.0       0.1      52.8      9.81
   03/13/2020 11:20      52.0      51.6       93     49.8      0.01     11.12      56.3     0.53      1014.0     0.3     NNE    17   1.2      NE      41     457       113       0.0       0.1      52.6      9.81
   03/13/2020 11:10      51.9      51.5       93     49.7      0.00     11.11      56.3     0.54      1013.8     0.2     NNE    23   1.3     NNE      33     470       103       0.0       0.0      52.5      9.82
   03/13/2020 11:00      51.8      51.2       93     49.7      0.00     11.11      56.4     0.54      1013.8     0.0       N     0   0.0      NE      47     438        77       0.0       0.0      52.4      9.82
   03/13/2020 10:50      51.8      51.1       93     49.6      0.01     11.11      56.4     0.54      1013.7     0.3      NE    43   1.3      NE      53     481        74       0.0       0.0      52.3      9.83
   03/13/2020 10:40      51.9      51.3       93     49.7      0.00     11.10      56.4     0.54      1013.6     0.1      NE    36   1.2      NE      48     481        95       0.0       0.0      52.3      9.83
   03/13/2020 10:30      51.6      51.1       94     49.6      0.00     11.10      56.3     0.54      1013.6     0.0      NE    46   0.7     NNE      31     385        75       0.0       0.0      52.1      9.84
   03/13/2020 10:20      51.4      51.1       94     49.6      0.00     11.10      56.4     0.54      1013.5     0.2      NE    48   1.8      NE      48     412        59       0.0       0.0      52.0      9.84
   03/13/2020 10:10      51.4      50.8       94     49.4      0.00     11.10      56.4     0.54      1013.3     0.5     ENE    72   1.6     ENE      78     383        64       0.0       0.0      52.0      9.85
   03/13/2020 10:00      51.3      50.8       94     49.5      0.00     11.10      55.9     0.54      1013.2     0.9     ESE   103   2.7     ESE     115     438        77       0.3       0.0      51.5      9.86
   03/13/2020 09:50      51.3      50.8       94     49.4      0.01     11.10      55.9     0.54      1013.1     0.4     ESE   108   1.5       E     101     480        80       0.0       0.0      51.4      9.87
   03/13/2020 09:40      51.2      50.9       94     49.5      0.00     11.09      55.8     0.54      1013.0     0.2     NNE    21   1.4       E      82     442        59       0.0       0.0      51.3      9.88
   03/13/2020 09:30      51.4      50.9       95     49.6      0.00     11.09      56.7     0.54      1013.0     0.2     ENE    73   1.4     ENE      63     496        47       0.0       0.0      52.0      9.88
   03/13/2020 09:20      51.1      50.7       95     49.4      0.00     11.09      56.8     0.54      1012.8     0.0      NE    55   0.8      NE      55     437        62       0.0       0.0      52.0      9.89
   03/13/2020 09:10      51.0      50.6       95     49.3      0.01     11.09      56.8     0.55      1012.7     0.1     ESE   104   1.0       E      90     460        32       0.0       0.0      51.8      9.90
   03/13/2020 09:00      50.8      50.5       95     49.1      0.00     11.08      56.4     0.55      1012.7     0.0      SE   133   0.6      SE     133     475        20       0.0       0.0      51.5      9.90
   03/13/2020 08:50      50.8      50.4       95     49.0      0.00     11.08      56.4     0.55      1012.6     0.2      SE   130   1.0     SSE     150     491        14       0.0       0.0      51.5      9.90
   03/13/2020 08:40      50.8      50.4       95     49.1      0.00     11.08      56.4     0.55      1012.5     0.3      NE    53   1.3      NE      53     418         8       0.0       0.0      51.5      9.91
   03/13/2020 08:30      50.6      50.2       95     49.0      0.01     11.08      56.4     0.55      1012.4     0.3      NE    55   1.1     ENE      59     423         8       0.0       0.0      51.5      9.92
   03/13/2020 08:20      50.6      50.2       95     48.9      0.00     11.07      56.4     0.55      1012.2     0.0       N     0   0.0      NE      40     462         5       0.0       0.0      51.4      9.92
   03/13/2020 08:10      50.5      50.1       95     48.8      0.00     11.07      56.5     0.56      1012.1     0.0       N     0   0.0      NE      40     449         5       0.0       0.0      51.4      9.93
   03/13/2020 08:00      50.3      50.0       95     48.6      0.00     11.07      56.5     0.56      1012.0     0.0       N     0   0.0     NNW     341     427         4       0.0       0.0      51.4      9.93
   03/13/2020 07:50      50.3      50.0       95     48.6      0.01     11.07      56.5     0.56      1011.9     0.0       N     0   0.0      SW     228     465         2       0.0       0.0      51.3      9.94
   03/13/2020 07:40      50.1      49.9       95     48.5      0.01     11.06      56.5     0.56      1011.8     0.0       N     0   0.0     SSE     147     468         1       0.0       0.0      51.3      9.94
   03/13/2020 07:30      50.2      49.9       95     48.5      0.00     11.05      56.6     0.56      1011.7     0.0       N     0   0.0       E      85     442        -0       0.0       0.0      51.3      9.95
   03/13/2020 07:20      50.1      49.9       95     48.4      0.00     11.05      56.6     0.56      1011.7     0.0       N     0   0.0     ESE     106     441        -1       0.0       0.0      51.3      9.95
   03/13/2020 07:10      50.1      49.8       94     48.4      0.00     11.05      56.6     0.56      1011.6     0.0       N     0   0.0     ESE     114     454        -2       0.0       0.0      51.3      9.96
   03/13/2020 07:00      50.1      49.7       94     48.4      0.00     11.05      56.3     0.56      1011.5     0.0       N     0   0.0     ESE     114     456        -3       0.0       0.0      51.2      9.97
   03/13/2020 06:50      50.0      49.7       94     48.3      0.01     11.05      56.4     0.57      1011.4     0.0       N     0   0.0     ESE     114     457        -3       0.0       0.0      51.2      9.98
   03/13/2020 06:40      50.0      49.7       94     48.3      0.01     11.04      56.3     0.57      1011.4     0.0       N     0   0.0       E      90     489        -3       0.0       0.0      51.3      9.99
   03/13/2020 06:30      50.0      49.7       94     48.3      0.01     11.03      56.4     0.57      1011.3     0.0       N     0   0.0       E      88     490        -3       0.0       0.0      51.3     10.00
   03/13/2020 06:20      50.0      49.7       94     48.3      0.02     11.02      56.4     0.57      1011.3     0.2       E    89   1.3       E     101     471        -2       0.0       0.0      51.3     10.00
   03/13/2020 06:10      50.0      49.7       94     48.4      0.01     11.00      56.5     0.57      1011.3     0.0       N     0   0.0     ENE      76     506        -2       0.0       0.0      51.4     10.00
   03/13/2020 06:00      50.1      49.8       94     48.4      0.01     10.98      56.6     0.57      1011.3     0.0       N     0   0.0     ENE      76     472        -2       0.0       0.0      51.1     10.00
   03/13/2020 05:50      50.0      49.7       94     48.3      0.01     10.97      56.7     0.57      1011.1     0.0       N     0   0.0     SSE     162     497        -2       0.0       0.0      51.2     10.00
   03/13/2020 05:40      50.0      49.7       94     48.3      0.01     10.96      56.7     0.58      1011.1     0.0       N     0   0.0       S     182     474        -2       0.0       0.0      51.1     10.01
   03/13/2020 05:30      50.0      49.7       94     48.3      0.01     10.95      56.7     0.58      1011.0     0.0       N     0   0.0       S     185     482        -2       0.0       0.0      51.2     10.02
   03/13/2020 05:20      50.1      49.7       94     48.3      0.01     10.94      56.7     0.58      1011.0     0.0       N     0   0.0     NNW     341     470        -2       0.0       0.0      51.2     10.03
   03/13/2020 05:10      50.1      49.8       94     48.4      0.01     10.93      56.8     0.58      1011.0     0.0       N     0   0.0     ENE      57     468        -2       0.0       0.0      51.3     10.04
   03/13/2020 05:00      50.0      49.7       95     48.4      0.03     10.92      57.3     0.58      1010.9     0.0       N     0   0.0     ENE      57     480        -2       0.0       0.0      51.8     10.04
   03/13/2020 04:50      50.0      49.7       95     48.3      0.04     10.89      57.3     0.58      1010.8     0.0      NE    55   0.6      NE      55     463        -3       0.0       0.0      51.8     10.04
   03/13/2020 04:40      50.0      49.7       94     48.3      0.02     10.85      57.3     0.57      1010.7     0.1     NNE    24   1.5     NNE      28     497        -2       0.0       0.0      51.9     10.03
   03/13/2020 04:30      50.0      49.9       94     48.4      0.03     10.83      57.4     0.57      1010.7     0.0       N     0   0.0       W     277     471        -2       0.0       0.0      51.8     10.03
   03/13/2020 04:20      50.0      49.7       94     48.3      0.02     10.80      57.4     0.57      1010.6     0.0       N     0   0.0       W     263     491        -3       0.0       0.0      51.9     10.03
   03/13/2020 04:10      50.0      49.7       94     48.3      0.03     10.78      57.4     0.57      1010.7     0.0       E    79   0.7       E      83     472        -3       0.0       0.0      51.9     10.03
   03/13/2020 04:00      50.1      49.8       94     48.4      0.02     10.75      57.1     0.57      1010.7     0.0       E    89   1.1     ENE      60     487        -3       0.0       0.0      51.7     10.02
   03/13/2020 03:50      50.0      49.9       94     48.4      0.02     10.73      57.1     0.56      1010.7     0.0       N     0   0.0       W     279     504        -3       0.0       0.0      51.7     10.01
   03/13/2020 03:40      50.1      49.8       94     48.3      0.02     10.71      57.1     0.56      1010.7     0.0       N     0   0.0       W     281     486        -2       0.0       0.0      51.7     10.01
   03/13/2020 03:30      50.0      49.7       94     48.2      0.01     10.69      57.2     0.56      1010.7     0.0       N     0   0.0     SSE     154     457        -3       0.0       0.0      51.7     10.01
   03/13/2020 03:20      50.0      49.8       94     48.3      0.02     10.68      57.2     0.56      1010.8     0.0       N     0   0.0     SSE     154     480        -3       0.0       0.0      51.7     10.01
   03/13/2020 03:10      50.0      49.8       94     48.3      0.02     10.66      57.3     0.56      1010.8     0.0       N     0   0.0     SSW     208     484        -3       0.0       0.0      51.8     10.00
   03/13/2020 03:00      50.0      49.8       94     48.3      0.02     10.64      58.2     0.56      1010.9     0.2      SW   231   1.1     SSW     213     492        -3       0.0       0.0      52.3     10.00
   03/13/2020 02:50      50.0      49.8       94     48.3      0.02     10.62      58.2     0.55      1011.0     0.0     WSW   255   0.8       W     269     484        -3       0.0       0.0      52.3     10.00
   03/13/2020 02:40      49.9      49.7       94     48.2      0.03     10.60      58.3     0.55      1011.0     0.0       N     0   0.0      SW     224     523        -3       0.0       0.0      52.4      9.99
   03/13/2020 02:30      50.0      49.7       94     48.2      0.02     10.57      58.3     0.55      1011.0     0.0       N     0   0.0      SW     220     500        -3       0.0       0.0      52.4      9.98
   03/13/2020 02:20      50.0      49.7       94     48.2      0.01     10.55      58.3     0.55      1011.0     0.3     SSW   206   1.0     SSW     212     480        -3       0.0       0.0      52.5      9.98
   03/13/2020 02:10      50.0      49.7       94     48.2      0.02     10.54      58.4     0.55      1011.0     0.2     WSW   238   1.0     WSW     238     497        -3       0.0       0.0      52.5      9.98
   03/13/2020 02:00      50.0      49.7       94     48.2      0.02     10.52      57.3     0.55      1011.0     0.0       N     0   0.0      NW     325     496        -3       0.0       0.0      51.7      9.97
   03/13/2020 01:50      49.9      49.7       94     48.2      0.01     10.50      57.3     0.55      1011.0     0.0       N     0   0.7       N       4     482        -3       0.0       0.0      51.7      9.97
   03/13/2020 01:40      50.0      49.7       94     48.2      0.01     10.49      57.3     0.55      1010.9     0.0     NNW   330   0.8     NNW     332     492        -3       0.0       0.0      51.7      9.97
   03/13/2020 01:30      50.0      49.7       94     48.2      0.02     10.48      57.3     0.55      1010.9     0.0       N     0   0.0      NW     320     486        -3       0.0       0.0      51.7      9.97
   03/13/2020 01:20      49.9      49.6       94     48.1      0.01     10.46      57.4     0.55      1011.0     0.0       N     0   0.0      SW     223     487        -3       0.0       0.0      51.8      9.97
   03/13/2020 01:10      49.9      49.5       94     48.1      0.01     10.45      57.4     0.55      1011.0     0.2      SW   228   0.9      SW     230     477        -3       0.0       0.0      51.8      9.97
   03/13/2020 01:00      49.9      49.6       94     48.1      0.01     10.44      57.5     0.55      1011.1     0.0       N     0   0.0       S     174     489        -3       0.0       0.0      52.0      9.97
   03/13/2020 00:50      49.9      49.5       94     48.1      0.00     10.43      57.4     0.55      1011.1     0.2       S   184   1.1       S     183     487        -3       0.0       0.0      52.0      9.97
   03/13/2020 00:40      50.0      49.7       94     48.1      0.01     10.43      57.5     0.55      1011.2     0.0       N     0   0.0     SSE     158     476        -4       0.0       0.0      52.0      9.98
   03/13/2020 00:30      49.9      49.7       94     48.1      0.01     10.42      57.5     0.55      1011.3     0.0       N     0   0.0      NW     318     463        -4       0.0       0.0      52.1      9.98
   03/13/2020 00:20      49.9      49.7       94     48.1      0.00     10.41      57.5     0.55      1011.5     0.2      NW   305   1.1      NW     305     466        -3       0.0       0.0      52.1      9.98
   03/13/2020 00:10      50.0      49.6       94     48.1      0.01     10.41      57.5     0.56      1011.5     0.2     NNW   343   1.1      NW     306     475        -3       0.0       0.0      52.2      9.99
   03/13/2020 00:00      49.9      49.7       94     48.0      0.01     10.39      57.2     0.56      1011.3     0.0       N     0   0.0     WNW     287     485        -4       0.0      10.5      51.8      9.99
   03/12/2020 23:50      49.9      49.6       94     48.0      0.01     10.38      57.2     0.56      1011.4     0.1      NW   319   0.9     NNW     347     475        -3       0.0      10.5      51.8      9.99
   03/12/2020 23:40      49.9      49.5       94     48.0      0.01     10.37      57.3     0.56      1011.3     0.0       N     0   0.0     NNW     342     465        -4       0.0      10.5      51.8     10.00
   03/12/2020 23:30      49.9      49.5       94     47.9      0.01     10.36      57.3     0.56      1011.3     0.4      NW   313   1.7     WNW     288     480        -3       0.0      10.5      51.9     10.00
   03/12/2020 23:20      49.9      49.4       94     47.8      0.02     10.35      57.3     0.56      1011.2     0.4     WNW   285   1.4     WNW     295     479        -3       0.0      10.5      51.8     10.00
   03/12/2020 23:10      49.7      49.4       93     47.7      0.01     10.33      57.3     0.56      1011.1     0.3       S   187   1.2       S     185     479        -4       0.0      10.5      51.9     10.00
   03/12/2020 23:00      49.9      49.5       93     47.9      0.01     10.32      57.9     0.56      1011.2     0.3       S   182   1.3       S     176     497        -3       0.0      10.5      52.8     10.00
   03/12/2020 22:50      49.9      49.5       93     47.9      0.02     10.31      58.1     0.56      1011.2     0.2       W   278   1.1      NW     311     470        -3       0.0      10.5      53.0     10.01
   03/12/2020 22:40      49.9      49.6       93     47.9      0.01     10.29      58.1     0.56      1011.1     0.6      NW   310   1.9       N     350     479        -3       0.2      10.5      53.1     10.01
   03/12/2020 22:30      50.0      49.5       93     47.8      0.01     10.28      58.1     0.56      1010.9     0.3     NNW   346   2.0      NW     325     458        -4       0.0      10.4      53.1     10.01
   03/12/2020 22:20      49.8      49.5       93     47.8      0.02     10.27      58.1     0.56      1010.7     0.7     ENE    77   1.6      NE      53     501        -4       0.0      10.4      53.1     10.01
   03/12/2020 22:10      50.0      49.6       93     47.9      0.01     10.25      58.1     0.56      1010.9     0.8      NE    42   2.5     ENE      60     490        -4       0.0      10.4      53.3     10.01
   03/12/2020 22:00      50.8      50.1       93     48.6      0.02     10.24      57.5     0.56      1011.0     0.9     NNE    28   2.3     NNE      16     473        -3       0.0      10.4      52.4     10.01
   03/12/2020 21:50      50.7      50.5       93     48.7      0.02     10.22      57.4     0.56      1010.9     0.0      NE    53   0.5      NE      54     463        -3       0.0      10.4      52.4     10.01
   03/12/2020 21:40      50.8      50.4       93     48.7      0.01     10.20      57.5     0.56      1010.8     0.3      NE    47   2.0      NE      55     486        -4       0.0      10.4      52.5     10.01
   03/12/2020 21:30      50.8      50.4       93     48.7      0.01     10.19      57.4     0.56      1010.6     0.2     ENE    72   1.9     ESE     108     456        -3       0.0      10.4      52.5     10.01
   03/12/2020 21:20      50.8      50.5       93     48.7      0.01     10.18      57.5     0.56      1010.5     0.3     ENE    79   1.1     ESE     113     465        -4       0.0      10.4      52.6     10.02
   03/12/2020 21:10      50.8      50.3       93     48.6      0.01     10.17      57.4     0.56      1010.5     0.5     NNW   327   1.8     NNW     330     473        -4       0.0      10.4      52.6     10.02
   03/12/2020 21:00      51.0      50.4       93     48.7      0.01     10.16      58.0     0.56      1010.4     1.0     ESE   102   2.3     ESE     121     476        -3       0.3      10.4      53.1     10.03
   03/12/2020 20:50      51.0      50.6       93     48.8      0.01     10.15      58.0     0.57      1010.4     0.6     ESE   107   2.0      SE     130     457        -4       0.0      10.3      53.1     10.04
   03/12/2020 20:40      50.8      50.5       93     48.6      0.02     10.14      58.1     0.57      1010.4     0.6      SW   214   1.5     WSW     237     447        -4       0.0      10.3      53.1     10.04
   03/12/2020 20:30      51.0      50.6       93     48.8      0.02     10.12      58.0     0.57      1010.4     0.0      SW   222   0.7      SW     233     468        -4       0.0      10.3      53.2     10.04
   03/12/2020 20:20      51.0      50.7       92     48.7      0.02     10.10      58.1     0.57      1010.3     0.2      SW   234   1.2     SSW     204     446        -4       0.0      10.3      53.3     10.04
   03/12/2020 20:10      51.1      50.7       92     48.7      0.02     10.08      58.1     0.57      1010.3     0.0       N     0   0.0      SE     146     472        -4       0.0      10.3      53.3     10.04
   03/12/2020 20:00      51.0      50.7       92     48.7      0.02     10.06      59.0     0.57      1010.3     0.9      SE   128   1.9      SE     140     470        -4       0.1      10.3      53.9     10.04
   03/12/2020 19:50      51.0      50.7       92     48.7      0.01     10.04      59.1     0.57      1010.2     1.1     SSE   156   2.5       S     170     477        -4       0.4      10.3      53.9     10.04
   03/12/2020 19:40      51.0      50.7       92     48.7      0.02     10.03      59.1     0.57      1010.2     2.2     SSW   202   3.0     SSW     208     474        -5       1.1      10.3      54.0     10.04
   03/12/2020 19:30      51.0      50.7       93     48.7      0.02     10.01      58.8     0.57      1010.3     2.8     SSW   203   3.9      SW     221     463        -4       1.5      10.1      53.8     10.04
   03/12/2020 19:20      51.0      50.6       93     48.6      0.02      9.99      58.5     0.57      1010.3     1.7     SSW   206   2.8       S     191     475        -5       0.5       9.8      53.6     10.04
   03/12/2020 19:10      50.9      50.6       92     48.6      0.02      9.97      58.5     0.57      1010.3     1.3     SSW   194   2.2     SSW     201     480        -4       0.3       9.7      53.7     10.04
   03/12/2020 19:00      51.0      50.7       92     48.7      0.01      9.95      58.1     0.57      1010.3     0.7      SW   215   1.8     WSW     244     487        -4       0.2       9.7      53.5     10.04
   03/12/2020 18:50      51.0      50.7       93     48.7      0.02      9.94      58.1     0.57      1010.2     0.7     NNW   336   2.5     NNW     341     477        -3       0.0       9.7      53.5     10.04
   03/12/2020 18:40      51.0      50.7       93     48.8      0.02      9.92      58.2     0.57      1010.2     0.8       N   352   3.4       W     264     486        -1       0.2       9.6      53.6     10.04
   03/12/2020 18:30      51.1      50.8       93     48.9      0.03      9.90      58.3     0.58      1010.1     0.6     NNW   342   2.8     WNW     282     486         2       0.0       9.6      53.7     10.05
   03/12/2020 18:20      51.4      51.1       93     49.3      0.02      9.87      58.4     0.58      1010.1     0.6       N   352   2.2       N       9     486         4       0.0       9.6      53.8     10.05
   03/12/2020 18:10      51.5      51.2       93     49.4      0.02      9.85      58.5     0.58      1010.1     0.1      NE    40   1.0     ENE      60     478         4       0.0       9.6      53.8     10.05
   03/12/2020 18:00      51.5      51.2       93     49.4      0.03      9.83      59.0     0.58      1010.0     0.7      NE    40   2.4     NNE      34     482         7       0.1       9.6      54.1     10.05
   03/12/2020 17:50      51.8      51.3       93     49.5      0.03      9.80      58.9     0.59      1010.0     0.8     NNE    17   3.5      NE      34     478         9       0.2       9.6      54.1     10.05
   03/12/2020 17:40      51.5      51.2       93     49.4      0.03      9.77      59.0     0.59      1010.1     0.9     NNE    13   2.4      NE      34     479        10       0.0       9.6      54.2     10.06
   03/12/2020 17:30      51.9      51.3       93     49.5      0.03      9.74      59.3     0.59      1010.2     2.0       N     5   5.2       W     266     483         9       0.1       9.5      54.3     10.06
   03/12/2020 17:20      51.9      51.3       93     49.6      0.04      9.71      59.4     0.59      1010.1     1.4       N   360   5.6       N     354     505         8       0.2       9.5      54.3     10.06
   03/12/2020 17:10      51.6      51.2       93     49.3      0.03      9.67      59.5     0.59      1010.0     1.8       N   353   4.1     NNE      17     521         6       0.2       9.5      54.4     10.06
   03/12/2020 17:00      51.6      51.3       92     49.4      0.04      9.63      60.0     0.59      1010.3     1.1     NNW   341   3.5      NW     318     478        10       0.1       9.5      54.9     10.06
   03/12/2020 16:50      51.9      51.4       92     49.5      0.06      9.59      60.0     0.59      1010.5     0.8     NNW   332   3.3      NW     305     494        10       0.0       9.4      55.0     10.05
   03/12/2020 16:40      51.9      51.7       92     49.6      0.04      9.53      60.1     0.59      1010.7     1.1       N     7   2.7      NE      38     522        10       0.0       9.4      55.0     10.04
   03/12/2020 16:30      52.1      51.8       92     49.6      0.04      9.49      60.4     0.59      1010.9     0.8     NNE    31   2.7      NE      51     482        12       0.0       9.4      55.2     10.03
   03/12/2020 16:20      52.2      51.9       92     49.7      0.05      9.45      60.7     0.59      1010.8     1.0     NNE    26   3.1      NE      40     491        15       0.0       9.4      55.2     10.03
   03/12/2020 16:10      52.4      52.1       91     49.8      0.03      9.40      60.7     0.58      1010.8     0.6      NE    37   1.4     NNE      22     517        15       0.0       9.4      55.3     10.02
   03/12/2020 16:00      52.4      52.1       91     49.6      0.04      9.37      59.7     0.58      1010.7     0.2     ENE    71   1.1     ENE      63     480        16       0.0       9.4      54.5     10.01
   03/12/2020 15:50      52.4      52.0       90     49.4      0.03      9.33      59.8     0.57      1010.6     0.5      NE    51   1.9       E      79     478        15       0.0       9.4      54.4     10.01
   03/12/2020 15:40      52.4      52.1       89     48.9      0.04      9.30      59.8     0.57      1010.5     0.3      SE   127   1.2      SE     127     474        14       0.0       9.4      54.4     10.01
   03/12/2020 15:30      52.4      52.1       86     48.1      0.04      9.26      59.8     0.57      1010.5     0.7      NE    56   1.5     ENE      57     478        12       0.0       9.4      54.4     10.00
   03/12/2020 15:20      52.4      52.1       83     47.4      0.03      9.22      59.8     0.57      1010.4     1.1      SW   225   4.0     SSW     207     480        10       0.6       9.4      54.4     10.00
   03/12/2020 15:10      52.5      52.1       83     47.3      0.01      9.19      59.8     0.58      1010.1     4.3     SSW   207   6.7      SW     228     438        13       2.6       9.3      54.5     10.00
   03/12/2020 15:00      52.5      52.1       84     47.5      0.01      9.18      60.1     0.58      1010.1     4.3     SSW   195   7.8       S     179     430        16       2.6       8.9      54.9     10.00
   03/12/2020 14:50      52.4      51.8       85     47.8      0.01      9.17      60.2     0.59      1010.2     6.1     SSW   206  10.1     SSW     202     380        17       3.7       8.4      55.0     10.01
   03/12/2020 14:40      52.3      51.8       87     48.3      0.02      9.16      60.3     0.59      1010.3     6.3     SSW   210   9.2      SW     223     434        13       4.0       7.8      55.1     10.03
   03/12/2020 14:30      52.7      52.1       86     48.4      0.04      9.14      60.3     0.59      1011.0     4.0       S   190   5.8      SW     222     476        15       2.5       7.1      55.3     10.03
   03/12/2020 14:20      53.0      52.5       84     48.1      0.05      9.10      60.5     0.59      1011.1     4.9     SSW   200   7.8       S     185     467        18       3.0       6.7      55.4     10.03
   03/12/2020 14:10      53.2      53.0       83     48.0      0.03      9.05      60.7     0.59      1011.2     6.1     SSW   211   9.5     SSW     212     449        20       3.9       6.2      55.5     10.03
   03/12/2020 14:00      53.7      53.2       83     48.6      0.06      9.01      60.6     0.59      1011.3     3.8     SSW   202   9.2       S     185     444        18       2.4       5.6      55.5     10.03
   03/12/2020 13:50      53.8      53.2       86     49.3      0.05      8.95      60.5     0.58      1011.5     4.8     SSW   196   7.5     SSW     208     446        16       2.8       5.2      55.5     10.02
   03/12/2020 13:40      54.0      53.4       89     50.5      0.06      8.90      60.7     0.54      1011.9     5.1       S   186   9.0     SSW     201     457        16       3.3       4.7      55.7     10.02
   03/12/2020 13:30      54.5      53.8       89     51.0      0.06      8.84      60.8     0.53      1012.4     3.3      SW   217   7.6     SSW     197     455        17       1.8       4.2      55.9     10.00
   03/12/2020 13:20      54.5      54.1       89     51.0      0.04      8.78      60.7     0.52      1012.6     0.4     SSW   203   1.4     SSW     211     474        17       0.0       3.9      55.9      9.97
   03/12/2020 13:10      54.9      54.4       88     51.1      0.05      8.74      60.6     0.52      1012.5     0.6     WSW   251   1.8     SSW     207     487        18       0.0       3.9      55.9      9.96
   03/12/2020 13:00      54.8      54.5       87     50.9      0.04      8.69      61.4     0.52      1012.7     1.1     SSW   191   2.9     WNW     288     473        13       0.4       3.8      56.3      9.94
   03/12/2020 12:50      54.9      54.6       87     51.1      0.02      8.65      61.3     0.52      1012.9     1.6     ESE   123   3.0      SE     144     476        12       0.7       3.8      56.5      9.92
   03/12/2020 12:40      55.7      54.7       87     51.3      0.02      8.63      61.3     0.52      1012.7     2.1       S   172   4.0     SSW     204     463        18       1.2       3.7      56.5      9.92
   03/12/2020 12:30      56.1      55.4       86     51.7      0.05      8.61      61.2     0.52      1012.7     0.3     WSW   237   3.6     SSW     203     456        21       0.1       3.5      56.6      9.91
   03/12/2020 12:20      56.1      55.8       84     51.0      0.05      8.56      61.3     0.50      1012.8     0.8     NNE    26   2.0     NNW     337     527        19       0.1       3.5      56.5      9.87
   03/12/2020 12:10      57.4      56.0       80     50.5      0.02      8.51      61.3     0.50      1012.8     3.2      SE   139   6.2      SE     139     471        15       1.6       3.4      56.6      9.83
   03/12/2020 12:00      57.9      57.2       76     49.9      0.00      8.49      62.2     0.50      1012.5     2.0     ESE   104   5.7     ENE      70     443        15       1.0       3.2      57.3      9.83
   03/12/2020 11:50      58.8      57.9       71     49.1      0.00      8.49      62.3     0.50      1012.3     2.9     ENE    61   5.7     ENE      72     338        13       0.9       3.0      57.4      9.83
   03/12/2020 11:40      59.2      58.6       68     48.6      0.00      8.49      62.2     0.50      1011.8     3.0      NE    46   6.8      NE      34     272        23       0.6       2.9      57.5      9.84
   03/12/2020 11:30      59.5      59.0       69     49.2      0.00      8.49      62.1     0.50      1011.2     3.4      NE    37   5.4     NNE      29     282        41       0.7       2.8      57.4      9.84
   03/12/2020 11:20      59.6      59.4       71     50.0      0.00      8.49      62.3     0.50      1011.4     2.0     NNE    23   5.6     NNW     330     298        49       0.4       2.6      57.3      9.86
   03/12/2020 11:10      59.7      59.3       69     49.4      0.00      8.49      62.4     0.50      1011.5     1.3     ENE    74   3.3     ENE      72     306        45       0.4       2.6      57.3      9.86
   03/12/2020 11:00      59.6      59.2       69     49.3      0.00      8.49      61.5     0.50      1011.5     0.9     ESE   105   2.6     ENE      63     292        60       0.3       2.5      56.4      9.87
   03/12/2020 10:50      59.4      59.1       70     49.4      0.00      8.49      61.5     0.50      1011.4     0.5       E    83   2.0       E      94     297        40       0.0       2.5      56.2      9.88
   03/12/2020 10:40      59.4      59.0       69     49.0      0.00      8.49      61.5     0.50      1011.4     1.2     ENE    65   3.0     ENE      57     300        40       0.3       2.5      56.2      9.89
   03/12/2020 10:30      59.6      59.1       68     48.9      0.00      8.49      61.6     0.50      1011.4     2.1     ENE    66   4.3       E      93     304        62       0.6       2.4      56.2      9.91
   03/12/2020 10:20      59.4      58.8       69     48.9      0.00      8.49      61.7     0.50      1011.6     1.1     ENE    62   3.1      NE      54     308        75       0.2       2.3      56.0      9.92
   03/12/2020 10:10      59.0      58.6       69     48.8      0.00      8.49      61.6     0.50      1011.4     1.7      NE    36   3.3     ENE      64     311        85       0.3       2.3      56.0      9.94
   03/12/2020 10:00      58.8      58.0       71     49.0      0.00      8.49      61.6     0.50      1011.3     1.6     NNE    13   3.9     NNE      32     314       150       0.2       2.2      55.8      9.96
   03/12/2020 09:50      58.2      57.7       72     49.0      0.00      8.49      61.7     0.50      1011.3     1.1     NNE    33   3.6     NNW     334     317       112       0.2       2.2      55.4      9.98
   03/12/2020 09:40      57.8      57.1       73     48.9      0.00      8.49      61.7     0.50      1011.2     1.4      NE    51   2.9     NNE      29     319       181       0.2       2.1      55.1     10.02
   03/12/2020 09:30      57.6      57.1       73     48.6      0.00      8.49      61.7     0.50      1011.2     1.7      NE    54   3.4      NE      55     322       115       0.4       2.1      54.8      9.61
   03/12/2020 09:20      57.5      57.0       73     48.6      0.00      8.49      61.8     0.50      1011.2     1.7     ENE    63   4.2      NE      48     324       151       0.4       2.0      54.6      9.61
   03/12/2020 09:10      57.5      57.0       72     48.3      0.00      8.49      61.9     0.50      1011.0     1.7     ENE    62   2.9     ENE      64     325       128       0.2       2.0      54.5      9.62
   03/12/2020 09:00      58.8      57.5       69     48.2      0.00      8.49      61.7     0.50      1010.7     1.3      NE    41   3.2     NNE      29     326       121       0.0       1.9      54.2      9.62
   03/12/2020 08:50      61.0      58.7       64     47.9      0.00      8.49      61.6     0.50      1010.5     1.3     ENE    59   3.7     ENE      57     327        25       0.2       1.9      54.0      9.62
   03/12/2020 08:40      61.0      59.0       64     47.6      0.00      8.49      61.7     0.50      1010.3     1.4      SE   134   2.1      SE     131     328       126       0.3       1.9      53.8      9.62
   03/12/2020 08:30      59.0      58.6       66     47.3      0.00      8.49      61.7     0.50      1010.2     1.7     SSE   147   2.7      SE     134     335       102       0.2       1.8      53.8      9.62
   03/12/2020 08:20      58.6      57.6       67     47.2      0.00      8.49      61.8     0.50      1010.1     1.4      SE   145   2.3      SE     140     344        83       0.0       1.8      53.6      9.62
   03/12/2020 08:10      57.6      56.2       71     47.5      0.00      8.49      61.9     0.50      1010.0     1.4     SSE   152   3.0      SE     138     355        44       0.3       1.8      53.6      9.62
   03/12/2020 08:00      57.1      56.3       68     46.5      0.00      8.49      62.1     0.50      1010.0     2.1     SSE   167   3.2      SE     133     364         0       1.1       1.8      53.8      9.62
   03/12/2020 07:50      57.1      54.5       70     46.1      0.00      8.49      62.1     0.50      1009.9     3.1     SSW   204   5.0      SW     233     373         4       1.5       1.6      53.8      9.62
   03/12/2020 07:40      56.0      54.6       70     45.8      0.00      8.49      62.1     0.50      1010.0     2.5       S   188   5.1     SSW     194     387        -1       1.4       1.3      53.8      9.62
   03/12/2020 07:30      56.2      55.5       69     45.7      0.00      8.49      62.1     0.50      1010.0     2.9     SSW   210   4.1     SSW     209     395        -5       1.5       1.1      53.9      9.63
   03/12/2020 07:20      55.5      52.7       76     46.6      0.00      8.49      62.2     0.50      1010.0     2.0      SW   224   5.9      SW     231     408        -9       0.9       0.9      54.1      9.63
   03/12/2020 07:10      53.3      51.8       88     49.2      0.00      8.49      62.2     0.50      1010.1     1.7     SSW   199   4.1     SSW     210     422       -12       0.8       0.7      54.1      9.63
   03/12/2020 07:00      51.4      47.8       95     47.5      0.00      8.49      62.5     0.50      1010.1     2.3     SSW   194   4.5      SW     230     459       -14       1.1       0.6      54.7      9.63
   03/12/2020 06:50      47.8      47.2       94     45.6      0.00      8.49      62.4     0.50      1010.1     0.4     ENE    59   1.4     NNE      21     492       -16       0.0       0.4      54.7      9.63
   03/12/2020 06:40      47.7      47.0       94     45.6      0.00      8.49      62.4     0.50      1010.0     0.3     ENE    62   1.2     SSE     160     489       -16       0.0       0.4      54.8      9.64
   03/12/2020 06:30      47.7      47.2       94     45.7      0.00      8.49      62.4     0.50      1010.1     0.5     SSE   153   1.8     SSE     168     485       -16       0.0       0.4      55.0      9.64
   03/12/2020 06:20      47.5      47.0       94     45.5      0.00      8.49      62.4     0.50      1010.1     0.4     SSE   161   1.4       S     190     481       -17       0.0       0.4      55.2      9.64
   03/12/2020 06:10      47.2      46.7       93     45.2      0.00      8.49      62.5     0.50      1010.2     0.2      SE   130   0.9       E      92     476       -17       0.0       0.4      55.4      9.64
   03/12/2020 06:00      47.6      46.9       93     45.3      0.00      8.49      62.4     0.50      1010.5     0.3      SE   141   1.0      SE     138     472       -18       0.0       0.3      55.4      9.64
   03/12/2020 05:50      47.5      46.9       93     45.3      0.00      8.49      62.4     0.50      1010.6     0.2     SSE   147   1.3      SE     143     468       -18       0.0       0.3      55.6      9.64
   03/12/2020 05:40      47.5      47.0       93     45.4      0.00      8.49      62.5     0.50      1010.8     0.0       N     0   0.0      SE     128     463       -18       0.0       0.3      55.8      9.65
   03/12/2020 05:30      47.6      47.2       93     45.5      0.00      8.49      62.5     0.50      1010.9     0.5     SSE   151   1.5      SE     137     462       -19       0.0       0.3      56.0      9.65
   03/12/2020 05:20      47.9      47.4       93     45.7      0.00      8.49      62.5     0.50      1011.0     0.2     SSE   149   0.9     ESE     111     458       -18       0.0       0.3      56.2      9.65
   03/12/2020 05:10      48.0      47.3       93     45.6      0.00      8.49      62.6     0.50      1011.2     1.1       S   181   2.4     WSW     256     453       -18       0.3       0.3      56.5      9.65
   03/12/2020 05:00      48.0      47.6       93     45.9      0.00      8.49      62.9     0.50      1011.4     0.7     SSW   206   1.8       W     260     446       -19       0.4       0.3      56.7      9.65
   03/12/2020 04:50      48.4      47.9       93     46.1      0.00      8.49      62.9     0.50      1011.6     0.5      SE   133   1.4     ESE     106     436       -19       0.2       0.2      56.9      9.65
   03/12/2020 04:40      48.6      47.9       92     46.1      0.00      8.49      62.9     0.50      1011.7     0.5     SSE   166   1.5       S     185     427       -19       0.0       0.2      57.0      9.66
   03/12/2020 04:30      48.6      48.3       93     46.4      0.00      8.49      63.0     0.50      1011.8     0.0       N     0   0.0       S     172     419       -20       0.0       0.2      57.3      9.66
   03/12/2020 04:20      48.8      48.5       93     46.6      0.00      8.49      63.0     0.50      1012.0     0.0     SSW   213   0.4     SSW     214     420       -20       0.0       0.2      57.5      9.66
   03/12/2020 04:10      48.6      48.3       92     46.3      0.00      8.49      63.0     0.50      1012.1     0.0     NNE    14   0.9     NNE      14     410       -20       0.0       0.2      57.7      9.66
   03/12/2020 04:00      48.9      48.3       92     46.5      0.00      8.49      63.3     0.50      1012.2     0.5      SE   137   1.5     ESE     123     404       -21       0.0       0.2      58.2      9.66
   03/12/2020 03:50      48.9      48.4       92     46.5      0.00      8.49      63.3     0.50      1012.4     1.3      SE   138   2.2      SE     137     401       -21       0.0       0.2      58.4      9.66
   03/12/2020 03:40      49.1      48.8       92     46.7      0.00      8.49      63.4     0.50      1012.7     0.2     SSE   169   0.9     SSE     165     397       -22       0.0       0.2      58.6      9.66
   03/12/2020 03:30      49.4      48.8       92     46.8      0.00      8.49      63.3     0.50      1012.9     0.3     SSE   152   1.0      SE     140     394       -22       0.0       0.2      58.8      9.66
   03/12/2020 03:20      49.4      48.9       92     46.9      0.00      8.49      62.7     0.50      1013.0     0.0     WSW   246   0.0     WSW     246     388       -23       0.0       0.2      58.5      9.66
   03/12/2020 03:10      49.5      49.1       92     47.0      0.00      8.49      62.7     0.50      1013.3     0.0       S   179   0.4       S     179     385       -24       0.0       0.2      58.7      9.66
   03/12/2020 03:00      49.9      49.2       91     47.0      0.00      8.49      63.3     0.50      1013.4     0.5      SE   144   1.3      SE     144     380       -24       0.0       0.2      59.2      9.66
   03/12/2020 02:50      50.0      49.7       91     47.4      0.00      8.49      63.3     0.50      1013.6     0.2       S   174   0.9     SSE     158     373       -24       0.0       0.1      59.5      9.67
   03/12/2020 02:40      50.0      49.7       91     47.3      0.00      8.49      63.4     0.50      1013.9     0.0       N     0   0.0     SSE     163     369       -26       0.0       0.1      59.7      9.67
   03/12/2020 02:30      50.3      49.9       91     47.4      0.00      8.49      63.3     0.50      1013.9     0.0       S   181   0.6       S     181     366       -26       0.0       0.1      59.9      9.67
   03/12/2020 02:20      50.6      50.1       90     47.6      0.00      8.49      63.2     0.50      1014.0     0.0       N     0   0.0     SSE     160     360       -26       0.0       0.1      60.1      9.67
   03/12/2020 02:10      50.6      50.3       90     47.7      0.00      8.49      63.2     0.50      1014.0     0.3       S   176   0.9     SSE     168     352       -25       0.0       0.1      60.3      9.67
   03/12/2020 02:00      50.8      50.3       90     47.7      0.00      8.49      62.9     0.50      1014.0     0.1     SSE   154   0.8     SSE     152     347       -28       0.0       0.1      60.2      9.67
   03/12/2020 01:50      50.8      50.3       90     47.6      0.00      8.49      63.0     0.50      1014.0     0.0       N     0   0.0     SSE     158     341       -30       0.0       0.1      60.5      9.67
   03/12/2020 01:40      51.0      50.6       89     47.8      0.00      8.49      63.0     0.50      1014.1     0.5       S   171   1.2     SSW     193     336       -32       0.0       0.1      60.7      9.67
   03/12/2020 01:30      51.1      50.7       89     47.9      0.00      8.49      63.0     0.50      1014.3     0.0       N     0   0.0      SE     140     331       -32       0.0       0.1      60.9      9.67
   03/12/2020 01:20      51.3      50.8       89     48.0      0.00      8.49      63.0     0.51      1014.3     0.6      SE   138   1.3      SE     126     326       -32       0.0       0.1      61.1      9.67
   03/12/2020 01:10      51.3      51.0       89     48.1      0.00      8.49      63.0     0.50      1014.3     0.4     SSE   151   0.9     SSE     153     322       -33       0.2       0.1      61.4      9.68
   03/12/2020 01:00      51.3      50.9       89     47.9      0.00      8.49      63.4     0.51      1014.5     0.6     SSE   152   1.4     SSE     151     318       -37       0.2       0.1      61.8      9.68
   03/12/2020 00:50      51.5      51.0       88     47.8      0.00      8.49      63.5     0.51      1014.6     0.3      SE   145   1.3      SE     134     313       -38       0.0       0.0      62.1      9.68
   03/12/2020 00:40      51.9      51.3       88     48.2      0.00      8.49      63.5     0.51      1014.6     0.5     SSE   161   1.0     SSE     149     309       -40       0.3       0.0      62.4      9.68
   03/12/2020 00:30      51.8      51.3       88     48.2      0.00      8.49      63.5     0.51      1014.7     0.0      SE   140   0.7      SE     133     305       -41       0.0       0.0      62.6      9.68
   03/12/2020 00:20      51.9      51.3       88     48.0      0.00      8.49      63.5     0.50      1014.8     0.5     SSE   157   1.7     SSE     149     300       -43       0.1       0.0      62.9      9.68
   03/12/2020 00:10      52.2      51.6       87     48.2      0.00      8.49      63.6     0.50      1014.9     0.8     SSE   153   1.2      SE     143     297       -45       0.1       0.0      63.1      9.68
   03/12/2020 00:00      52.3      51.9       87     48.2      0.00      8.49      64.1     0.51      1015.0     0.6     SSE   164   1.0       S     182     294       -47       0.0      20.6      63.8      9.69
   03/11/2020 23:50      52.6      52.1       86     48.3      0.00      8.49      64.1     0.51      1015.0     0.0     SSE   147   0.8     SSE     147     291       -51       0.0      20.6      64.0      9.69
   03/11/2020 23:40      52.9      52.4       86     48.5      0.00      8.49      64.1     0.51      1015.1     0.3     SSE   162   1.0     SSE     159     287       -55       0.0      20.6      64.2      9.69
   03/11/2020 23:30      53.4      52.7       85     48.7      0.00      8.49      64.1     0.51      1015.2     0.0     SSE   160   0.6     SSE     161     283       -58       0.0      20.6      64.5      9.69
   03/11/2020 23:20      53.5      53.2       85     48.9      0.00      8.49      64.1     0.51      1015.3     0.4     SSE   148   1.1      SE     142     279       -60       0.0      20.6      64.8      9.69
   03/11/2020 23:10      53.5      53.0       85     48.8      0.00      8.49      64.2     0.51      1015.2     0.5     SSE   154   0.9      SE     146     276       -61       0.0      20.6      65.0      9.69
   03/11/2020 23:00      53.9      53.2       84     48.8      0.00      8.49      63.2     0.51      1015.2     0.3     SSE   157   0.8       S     173     274       -60       0.2      20.6      64.8      9.70
   03/11/2020 22:50      54.3      53.6       82     48.7      0.00      8.49      63.1     0.51      1015.3     0.3     SSE   148   1.0      SE     141     273       -60       0.1      20.5      65.0      9.70
   03/11/2020 22:40      54.5      54.2       82     48.8      0.00      8.49      63.1     0.51      1015.3     0.3     SSE   161   1.1     SSE     151     273       -59       0.0      20.5      65.2      9.70
   03/11/2020 22:30      54.7      54.3       81     48.7      0.00      8.49      63.2     0.51      1015.4     0.3     SSE   157   0.9     SSE     155     273       -60       0.1      20.5      65.5      9.70
   03/11/2020 22:20      54.8      54.3       80     48.5      0.00      8.49      63.1     0.51      1015.4     0.3     SSE   169   1.1       S     171     273       -61       0.0      20.5      65.7      9.70
   03/11/2020 22:10      55.3      54.6       79     48.5      0.00      8.49      63.1     0.51      1015.5     0.1     SSE   149   0.6      SE     125     272       -56       0.0      20.5      66.1      9.70
   03/11/2020 22:00      55.3      54.9       79     48.7      0.00      8.49      63.6     0.51      1015.5     0.4      SE   144   0.9      SE     134     272       -56       0.0      20.5      66.6      9.71
   03/11/2020 21:50      55.4      54.9       78     48.5      0.00      8.49      63.5     0.51      1015.4     0.9     SSE   147   2.5      SE     138     272       -55       0.0      20.5      66.7      9.71
   03/11/2020 21:40      56.0      55.3       75     48.0      0.00      8.49      63.5     0.51      1015.4     1.2       S   182   2.4     SSW     196     271       -59       0.2      20.5      67.0      9.71
   03/11/2020 21:30      56.2      55.7       76     48.3      0.00      8.49      63.5     0.51      1015.4     2.1     SSW   214   3.0     SSW     200     271       -61       1.0      20.4      67.3      9.71
   03/11/2020 21:20      56.3      55.7       75     48.1      0.00      8.49      63.5     0.51      1015.4     0.3       S   177   1.3      SW     219     271       -64       0.1      20.3      67.7      9.71
   03/11/2020 21:10      56.5      56.0       74     48.1      0.00      8.49      63.5     0.51      1015.2     0.7     ESE   112   2.3       E      93     271       -68       0.2      20.3      68.0      9.71
   03/11/2020 21:00      56.8      56.0       73     47.6      0.00      8.49      64.2     0.51      1015.1     0.5       S   172   1.3     SSE     151     271       -69       0.0      20.2      69.1      9.72
   03/11/2020 20:50      57.0      56.6       71     47.6      0.00      8.49      64.2     0.51      1015.1     0.3     SSE   164   1.4       S     172     270       -70       0.2      20.2      69.4      9.72
   03/11/2020 20:40      58.3      56.8       69     47.6      0.00      8.49      64.1     0.50      1015.0     0.6       S   171   1.7       S     179     270       -71       0.4      20.2      69.8      9.72
   03/11/2020 20:30      58.8      58.0       68     47.9      0.00      8.49      64.1     0.50      1014.9     0.7     SSW   204   1.8       S     176     270       -71       0.3      20.1      70.3      9.72
   03/11/2020 20:20      59.6      58.7       67     48.2      0.00      8.49      63.4     0.51      1014.9     0.3       S   177   0.9       S     179     270       -63       0.0      20.1      69.5      9.72
   03/11/2020 20:10      60.2      59.5       65     48.1      0.00      8.49      63.2     0.50      1014.9     0.3     SSE   164   1.1       S     179     270       -57       0.0      20.1      69.7      9.73
   03/11/2020 20:00      60.9      60.2       61     46.9      0.00      8.49      64.1     0.50      1014.8     0.3       S   177   1.3       S     184     270       -49       0.0      20.1      71.1      9.73
   03/11/2020 19:50      61.9      60.8       60     47.5      0.00      8.49      64.1     0.50      1014.8     0.2       S   180   1.4       S     175     269       -56       0.0      20.1      71.3      9.73
   03/11/2020 19:40      62.0      61.6       59     47.4      0.00      8.49      64.0     0.50      1014.9     0.5     SSW   199   1.3       S     172     269       -53       0.0      20.1      71.7      9.73
   03/11/2020 19:30      62.5      61.8       59     47.8      0.00      8.49      64.0     0.50      1014.9     0.4     SSE   169   1.0       S     181     269       -39       0.0      20.1      71.9      9.73
   03/11/2020 19:20      62.9      62.3       58     47.5      0.00      8.49      63.9     0.50      1014.9     0.5       S   177   1.6       S     175     269       -45       0.2      20.1      72.0      9.73
   03/11/2020 19:10      63.0      62.7       56     46.9      0.00      8.49      63.8     0.50      1014.8     1.0     SSE   163   2.6       S     186     268       -43       0.3      20.0      72.3      9.74
   03/11/2020 19:00      63.6      63.0       55     46.8      0.00      8.49      62.8     0.50      1014.6     1.3       S   176   3.8       S     175     268       -30       0.6      20.0      71.5      9.74
   03/11/2020 18:50      63.6      63.3       56     47.2      0.00      8.49      62.8     0.50      1014.6     1.0     SSE   166   2.2     SSE     167     268       -29       0.3      19.9      71.8      9.74
   03/11/2020 18:40      64.1      63.5       54     47.0      0.00      8.49      62.7     0.50      1014.6     2.0       S   184   4.8     SSW     199     268       -40       1.1      19.8      72.3      9.74
   03/11/2020 18:30      64.8      63.8       54     47.5      0.00      8.49      62.7     0.50      1014.5     2.6       S   182   4.9     SSW     191     268       -28       1.6      19.6      72.8      9.75
   03/11/2020 18:20      65.3      64.4       53     47.4      0.00      8.49      62.7     0.50      1014.6     3.0       S   176   5.4     SSE     147     268        -4       1.8      19.4      73.2      9.75
   03/11/2020 18:10      66.0      65.2       51     47.1      0.00      8.49      62.7     0.50      1014.6     2.8       S   172   4.8     SSE     157     268         1       1.6      19.1      73.5      9.75
   03/11/2020 18:00      66.0      65.4       50     46.7      0.00      8.49      62.8     0.50      1014.5     3.7       S   179   7.0     SSW     195     268        26       2.2      18.8      73.3      9.75
   03/11/2020 17:50      66.7      65.8       50     46.9      0.00      8.49      62.7     0.50      1014.4     4.0     SSW   199   7.5       S     181     268        47       2.6      18.4      73.5      9.76
   03/11/2020 17:40      66.8      66.4       49     46.6      0.00      8.49      62.6     0.50      1014.4     4.1     SSW   198   6.9     SSW     192     267        75       2.8      18.0      73.8      9.76
   03/11/2020 17:30      67.0      66.7       48     46.4      0.00      8.49      62.6     0.50      1014.3     4.5     SSW   210   7.3     SSW     210     268       101       2.9      17.5      73.8      9.77
   03/11/2020 17:20      67.9      66.9       46     46.2      0.00      8.49      62.6     0.50      1014.3     4.8     SSW   197   7.6      SW     217     267       128       3.1      17.1      73.9      9.77
   03/11/2020 17:10      67.9      67.5       46     46.5      0.00      8.49      62.5     0.50      1014.4     3.7       S   188   6.7     SSE     162     268       152       2.4      16.5      74.0      9.77
   03/11/2020 17:00      68.0      67.6       47     46.6      0.00      8.49      63.0     0.50      1014.4     4.2       S   191   7.1     SSE     160     268       181       2.9      16.1      75.2      9.78
   03/11/2020 16:50      68.0      67.4       46     46.5      0.00      8.49      63.0     0.50      1014.4     4.4       S   185   8.1       S     170     267       206       2.9      15.6      75.2      9.78
   03/11/2020 16:40      68.4      67.4       45     45.7      0.00      8.49      62.9     0.50      1014.5     4.8     SSW   208   9.3      SW     225     267       230       3.1      15.2      75.3      9.78
   03/11/2020 16:30      69.2      68.2       44     46.2      0.00      8.49      63.0     0.50      1014.5     3.8     SSW   193   8.0      SW     234     267       240       2.4      14.6      75.2      9.79
   03/11/2020 16:20      69.3      68.5       45     46.6      0.00      8.49      62.8     0.50      1014.6     3.5       S   173   7.8       S     173     267       267       2.4      14.3      75.2      9.79
   03/11/2020 16:10      69.3      68.3       45     46.5      0.00      8.49      62.8     0.50      1014.6     3.5     SSE   147   8.3      SE     139     267       291       1.9      13.8      75.1      9.79
   03/11/2020 16:00      69.7      68.6       45     46.8      0.00      8.49      61.6     0.50      1014.5     3.7       S   174   8.3       S     186     267       307       2.6      13.5      73.7      9.79
   03/11/2020 15:50      69.1      68.2       44     45.6      0.00      8.49      61.7     0.50      1014.6     3.3     SSW   204   6.2       S     183     267       331       2.3      13.1      73.6      9.80
   03/11/2020 15:40      69.8      68.5       46     47.5      0.00      8.49      61.6     0.50      1014.6     3.9       S   180   7.7       S     185     268       327       2.6      12.7      73.3      9.80
   03/11/2020 15:30      69.8      68.3       44     46.5      0.00      8.49      61.7     0.50      1014.7     2.2       S   176   5.6      SE     142     267       388       1.5      12.3      73.1      9.80
   03/11/2020 15:20      69.3      68.7       46     47.2      0.00      8.49      61.7     0.50      1014.8     3.7     SSE   165   8.8      SE     134     267       400       2.4      12.0      72.8      9.81
   03/11/2020 15:10      69.3      68.6       48     48.5      0.00      8.49      61.7     0.50      1014.9     3.7       S   187   7.1      SW     215     267       416       2.6      11.6      72.6      9.81
   03/11/2020 15:00      69.4      68.6       49     48.9      0.00      8.49      61.4     0.50      1015.2     3.3     SSE   163   8.1       S     171     267       469       2.0      11.2      72.5      9.81
   03/11/2020 14:50      69.1      68.0       49     49.0      0.00      8.49      61.5     0.50      1015.3     3.0     SSE   157   6.7       S     190     267       482       1.9      10.8      72.1      9.81
   03/11/2020 14:40      68.8      67.8       50     49.3      0.00      8.49      61.4     0.50      1015.5     3.8       S   183   7.0     SSW     195     268       513       2.2      10.5      71.7      9.82
   03/11/2020 14:30      68.8      67.4       52     49.9      0.00      8.49      61.4     0.50      1015.6     3.1     SSW   205   5.9      SW     220     268       543       2.2      10.2      71.4      9.82
   03/11/2020 14:20      67.5      66.3       54     49.7      0.00      8.49      61.5     0.50      1015.8     2.5       S   182   6.3       S     178     268       346       1.7       9.8      71.1      9.82
   03/11/2020 14:10      67.1      66.2       54     49.3      0.00      8.49      61.4     0.50      1015.9     3.4     SSE   160  10.3      SE     127     268       214       1.8       9.5      70.8      9.82
   03/11/2020 14:00      68.0      67.0       53     49.9      0.00      8.49      61.7     0.50      1016.1     4.5      SE   141   9.9      SE     128     268       538       2.7       9.2      70.3      9.83
   03/11/2020 13:50      67.7      66.8       56     50.9      0.00      8.49      61.7     0.50      1016.2     4.6     SSW   192   7.8     SSW     197     268       631       3.1       8.8      69.5      9.83
   03/11/2020 13:40      68.2      67.3       54     50.3      0.00      8.49      61.6     0.50      1016.5     4.1       S   172   8.7     SSW     207     268       606       2.7       8.2      68.9      9.83
   03/11/2020 13:30      68.4      66.8       54     50.7      0.00      8.49      61.6     0.50      1016.7     3.0      SE   133   7.3     ENE      73     268       665       1.9       7.8      68.1      9.83
   03/11/2020 13:20      66.8      64.9       57     50.1      0.00      8.49      61.4     0.50      1016.9     2.3      SE   146   5.4      SE     145     268       549       1.3       7.5      67.5      9.83
   03/11/2020 13:10      66.0      64.9       59     50.7      0.00      8.49      61.5     0.50      1017.1     2.1     SSW   195   4.2       S     172     269       154       1.4       7.3      67.1      9.84
   03/11/2020 13:00      66.3      65.4       59     51.3      0.00      8.49      61.2     0.50      1017.3     1.4     ENE    77   3.3     SSE     162     269       192       1.0       7.0      66.9      9.84
   03/11/2020 12:50      66.7      65.8       59     51.4      0.00      8.49      61.3     0.50      1017.4     2.1      SE   142   4.3      SE     145     268       435       1.3       6.9      66.4      9.84
   03/11/2020 12:40      66.6      65.9       61     52.1      0.01      8.49      61.3     0.50      1017.5     2.8      SE   142   6.2       S     178     268       558       1.8       6.7      65.7      9.84
   03/11/2020 12:30      65.9      64.4       62     51.9      0.00      8.48      61.2     0.50      1017.6     2.7     SSE   164   6.9      SE     137     268       605       1.5       6.4      65.0      9.84
   03/11/2020 12:20      65.0      63.7       63     51.7      0.00      8.48      61.2     0.50      1017.8     3.3       S   173   8.2     SSW     194     269       518       2.0       6.1      64.1      9.85
   03/11/2020 12:10      64.6      64.0       67     53.1      0.00      8.48      61.1     0.50      1017.8     3.6       S   184   7.0     SSW     192     269       572       2.5       5.8      63.5      9.85
   03/11/2020 12:00      64.0      63.2       70     53.7      0.00      8.48      61.7     0.50      1018.0     3.4     SSW   192   5.5      SW     218     269       551       2.3       5.4      62.9      9.85
   03/11/2020 11:50      63.4      61.3       74     54.0      0.00      8.48      61.8     0.50      1018.1     3.3     SSW   200   5.7      SW     229     270       610       2.1       5.0      62.5      9.85
   03/11/2020 11:40      61.1      59.5       80     54.0      0.00      8.48      61.9     0.50      1018.3     2.7     SSW   193   4.7       S     187     270       549       1.8       4.6      62.0      9.85
   03/11/2020 11:30      60.4      59.5       78     52.9      0.00      8.48      61.8     0.50      1018.4     4.1       S   189   6.0       S     188     305       119       2.7       4.3      61.7      9.85
   03/11/2020 11:20      60.4      60.0       76     52.5      0.00      8.48      61.9     0.50      1018.4     3.0     SSW   192   5.7     SSW     209     271        65       1.9       3.9      61.6      9.85
   03/11/2020 11:10      61.3      60.4       75     52.8      0.00      8.48      62.0     0.50      1018.4     3.6     SSW   212   7.6      SW     229     271        78       2.2       3.6      61.6      9.85
   03/11/2020 11:00      62.3      61.3       72     52.5      0.00      8.48      60.7     0.50      1018.4     2.8      SW   218   5.5      SW     222     270       183       1.9       3.2      60.5      9.86
   03/11/2020 10:50      62.4      61.1       73     53.0      0.00      8.48      60.7     0.50      1018.5     1.1     ESE   105   3.8     ENE      66     270       187       0.7       2.9      60.3      9.86
   03/11/2020 10:40      62.0      61.1       71     52.1      0.00      8.48      60.7     0.50      1018.5     2.3     ESE   116   4.3      NE      51     271       108       0.9       2.8      60.0      9.86
   03/11/2020 10:30      63.5      62.0       71     53.3      0.00      8.48      60.7     0.50      1018.5     1.1       E   100   4.9      SE     131     270       104       0.4       2.6      59.8      9.86
   03/11/2020 10:20      63.4      62.0       73     53.6      0.00      8.48      60.8     0.50      1018.4     1.4     NNE    25   3.0       E      90     269       480       0.4       2.5      59.5      9.86
   03/11/2020 10:10      62.3      61.8       73     53.5      0.00      8.48      60.7     0.50      1018.5     0.9       E    84   3.0     ENE      63     272       244       0.5       2.5      59.1      9.87
   03/11/2020 10:00      61.6      60.3       75     53.0      0.00      8.48      61.3     0.50      1018.5     0.9     WSW   237   3.1       W     264     279       334       0.7       2.4      59.3      9.87
   03/11/2020 09:50      60.7      60.1       78     53.5      0.00      8.48      61.2     0.50      1018.4     1.0       S   187   2.1      SW     223     287       213       0.6       2.3      59.0      9.87
   03/11/2020 09:40      61.2      60.4       77     53.6      0.00      8.48      61.2     0.50      1018.3     1.4       S   171   3.8      SE     144     293       187       0.7       2.2      58.8      9.87
   03/11/2020 09:30      61.5      60.4       78     54.0      0.00      8.48      61.2     0.50      1018.2     2.1       S   170   4.3       S     175     296       387       1.5       2.1      58.5      9.88
   03/11/2020 09:20      60.6      59.6       79     53.6      0.00      8.48      61.2     0.50      1018.1     1.7     ESE   123   4.3      SE     143     302       353       0.5       1.8      58.3      9.88
   03/11/2020 09:10      60.4      59.8       83     54.8      0.00      8.48      61.2     0.50      1018.0     1.5     ESE   116   3.1     SSE     152     310       225       0.6       1.7      58.1      9.88
   03/11/2020 09:00      60.4      59.5       89     56.6      0.00      8.48      62.1     0.50      1017.9     0.6       E    90   2.0      NE      48     315       257       0.2       1.6      58.5      9.88
   03/11/2020 08:50      59.6      58.6       92     56.9      0.00      8.48      62.2     0.50      1017.9     0.2      SE   127   1.3      SE     128     322       208       0.0       1.6      58.4      9.88
   03/11/2020 08:40      58.7      56.8       93     55.4      0.00      8.48      62.1     0.50      1017.8     0.3     ENE    74   1.8     ESE     107     331       175       0.0       1.6      58.3      9.88
   03/11/2020 08:30      57.3      57.0       93     55.0      0.00      8.48      62.2     0.50      1017.8     0.4     ENE    68   1.2      NE      44     341        61       0.0       1.6      58.3      9.88
   03/11/2020 08:20      57.1      56.5       93     54.8      0.00      8.48      62.2     0.50      1017.8     0.0     ENE    64   0.8       E      81     343        70       0.0       1.6      58.2      9.89
   03/11/2020 08:10      56.7      56.0       93     54.4      0.00      8.48      62.2     0.50      1017.7     0.1     ENE    74   0.9     ENE      68     346        45       0.0       1.6      58.1      9.89
   03/11/2020 08:00      56.2      55.9       93     54.0      0.00      8.48      61.4     0.50      1017.6     0.2     ESE   107   1.0     ESE     102     348        35       0.0       1.6      57.3      9.89
   03/11/2020 07:50      56.2      55.9       93     54.0      0.00      8.48      61.5     0.50      1017.6     0.0       N     0   0.0     ESE     122     371        28       0.0       1.6      57.3      9.89
   03/11/2020 07:40      56.2      55.9       93     53.9      0.00      8.48      61.5     0.50      1017.6     0.6      SW   231   1.8     WSW     245     369        29       0.0       1.6      57.3      9.89
   03/11/2020 07:30      56.0      55.6       93     53.7      0.00      8.48      61.5     0.50      1017.5     1.5      SW   217   2.3      SW     220     360        13       0.6       1.6      57.2      9.89
   03/11/2020 07:20      56.1      55.8       93     53.9      0.00      8.48      61.6     0.50      1017.5     0.0       N     0   0.0      NE      44     374         2       0.0       1.5      57.4      9.90
   03/11/2020 07:10      56.2      55.7       93     53.9      0.00      8.48      61.7     0.50      1017.4     0.0       E    95   0.7     ENE      73     371        -2       0.0       1.5      57.5      9.90
   03/11/2020 07:00      56.2      55.9       93     53.9      0.00      8.48      61.1     0.50      1017.5     0.0       N     0   0.0     NNE      17     365        -2       0.0       1.5      57.2      9.90
   03/11/2020 06:50      56.3      55.9       92     53.9      0.00      8.48      61.2     0.50      1017.4     0.0       N     0   0.0      NE      36     384        -2       0.0       1.5      57.3      9.90
   03/11/2020 06:40      56.2      55.9       92     53.8      0.00      8.48      61.2     0.50      1017.3     0.4     ESE   114   1.1      SE     136     377        -2       0.0       1.5      57.3      9.90
   03/11/2020 06:30      56.3      56.0       92     53.8      0.00      8.48      61.3     0.50      1017.3     0.4      SE   133   1.3       E      96     415        -3       0.0       1.5      57.3      9.91
   03/11/2020 06:20      56.3      56.0       92     53.7      0.00      8.48      61.5     0.50      1017.3     0.6      NE    55   1.9     NNE      28     405        -3       0.0       1.5      57.5      9.91
   03/11/2020 06:10      56.4      56.0       91     53.5      0.00      8.48      61.6     0.50      1017.3     0.4     ENE    60   1.4      NE      51     444        -4       0.0       1.5      57.7      9.91
   03/11/2020 06:00      56.5      56.2       91     53.6      0.02      8.48      61.5     0.50      1017.3     1.5       E    99   3.6      SE     132     409        -3       0.5       1.5      57.8      9.91
   03/11/2020 05:50      56.6      56.4       91     53.8      0.05      8.46      61.5     0.50      1017.3     2.1     SSE   155   6.2      SE     146     521        -3       0.8       1.4      57.9      9.90
   03/11/2020 05:40      56.8      56.5       90     53.8      0.00      8.41      61.6     0.49      1017.3     0.4     SSW   212   1.6     SSW     212     411        -2       0.2       1.3      57.9      9.86
   03/11/2020 05:30      56.8      56.4       90     53.7      0.02      8.41      61.6     0.49      1017.3     0.3      NE    42   1.3      NE      53     446        -2       0.0       1.2      58.0      9.86
   03/11/2020 05:20      56.9      56.6       89     53.5      0.03      8.39      61.6     0.49      1017.3     0.2       E    93   1.2     SSE     154     500        -3       0.0       1.2      58.0      9.85
   03/11/2020 05:10      57.0      56.6       89     53.5      0.00      8.36      61.6     0.49      1017.3     1.4     SSW   200   2.9     SSW     197     337        -3       0.6       1.2      58.0      9.84
   03/11/2020 05:00      57.0      56.7       89     53.5      0.00      8.36      61.4     0.49      1017.2     1.3       S   177   2.1       S     173     304        -4       0.6       1.1      57.9      9.84
   03/11/2020 04:50      57.0      56.7       89     53.5      0.00      8.36      61.8     0.49      1017.2     1.2      SE   136   3.5      SE     131     298        -3       0.3       1.0      58.2      9.85
   03/11/2020 04:40      57.0      56.7       89     53.5      0.00      8.36      61.9     0.49      1017.2     1.7      SE   127   3.8      SE     142     299        -3       0.6       1.0      58.3      9.85
   03/11/2020 04:30      56.9      56.5       89     53.6      0.00      8.36      62.0     0.49      1017.2     2.8      SE   142   5.1      SE     128     301        -3       1.0       0.9      58.4      9.85
   03/11/2020 04:20      56.8      56.5       90     53.8      0.00      8.36      62.0     0.49      1017.2     2.1      SE   138   4.8      SE     138     305        -2       0.9       0.7      58.4      9.85
   03/11/2020 04:10      56.8      56.5       91     54.0      0.00      8.36      62.0     0.49      1017.2     1.0     ESE   115   3.3      SE     141     311        -2       0.3       0.6      58.5      9.86
   03/11/2020 04:00      56.8      56.4       92     54.1      0.00      8.36      61.2     0.49      1017.1     0.8     ENE    72   3.1     ENE      58     315        -2       0.3       0.5      57.9      9.86
   03/11/2020 03:50      56.6      56.3       92     54.2      0.00      8.36      61.5     0.49      1017.1     0.9       E    99   1.8      SE     133     321        -2       0.1       0.5      58.1      9.86
   03/11/2020 03:40      56.6      56.3       92     54.3      0.00      8.36      61.7     0.49      1017.2     1.1     ESE   121   3.4     ESE     109     328        -3       0.4       0.4      58.4      9.86
   03/11/2020 03:30      56.7      56.4       93     54.4      0.00      8.36      61.7     0.49      1017.3     0.5     ESE   121   2.1     ESE     117     329        -2       0.0       0.4      58.5      9.86
   03/11/2020 03:20      56.7      56.4       93     54.5      0.00      8.36      61.8     0.49      1017.5     0.3     ENE    64   1.1       E      91     328        -1       0.0       0.4      58.4      9.87
   03/11/2020 03:10      56.7      56.4       93     54.5      0.00      8.36      61.7     0.49      1017.6     0.4     ESE   120   1.6       E      80     331        -2       0.0       0.4      58.5      9.87
   03/11/2020 03:00      56.6      56.1       93     54.5      0.00      8.36      61.7     0.49      1017.6     0.7      SE   134   2.6      SE     127     334        -2       0.0       0.4      58.3      9.87
   03/11/2020 02:50      56.4      56.0       94     54.4      0.00      8.36      61.7     0.49      1017.6     0.6      SE   126   2.0      SE     131     341        -2       0.0       0.4      58.3      9.87
   03/11/2020 02:40      56.2      55.9       94     54.3      0.00      8.36      61.7     0.49      1017.6     0.1     ESE   113   1.1      SE     129     351        -2       0.0       0.4      58.4      9.88
   03/11/2020 02:30      56.2      55.7       94     54.2      0.00      8.36      61.7     0.49      1017.6     0.1     SSW   196   0.9     SSW     208     355        -2       0.0       0.4      58.4      9.88
   03/11/2020 02:20      56.0      55.7       94     54.1      0.00      8.36      61.7     0.49      1017.8     0.2       E    89   1.1     ESE     124     353        -2       0.0       0.4      58.3      9.88
   03/11/2020 02:10      56.1      55.7       94     54.2      0.00      8.36      62.6     0.49      1017.9     1.1     SSW   197   2.2     SSW     199     355        -1       0.4       0.4      59.2      9.88
   03/11/2020 02:00      55.7      55.1       94     53.6      0.00      8.36      61.7     0.49      1017.8     0.3     SSW   206   1.7     SSW     212     359        -1       0.0       0.3      58.4      9.88
   03/11/2020 01:50      55.4      55.0       94     53.3      0.00      8.36      62.0     0.49      1017.9     0.0       N     0   0.0       S     173     363        -2       0.0       0.3      58.5      9.88
   03/11/2020 01:40      55.4      54.9       93     53.3      0.00      8.36      62.2     0.49      1017.9     0.1      SE   146   1.6      SE     143     365        -3       0.0       0.3      58.6      9.88
   03/11/2020 01:30      55.4      55.1       93     53.4      0.00      8.36      62.2     0.49      1017.8     0.3      SW   228   1.4     SSW     212     365        -3       0.0       0.3      58.6      9.88
   03/11/2020 01:20      55.6      55.1       93     53.5      0.00      8.36      62.3     0.49      1017.9     0.5       S   175   1.4     SSW     194     366        -3       0.0       0.3      58.9      9.88
   03/11/2020 01:10      55.6      55.2       93     53.5      0.00      8.36      62.2     0.49      1017.9     0.9     SSW   193   2.0     SSW     195     363        -3       0.2       0.3      58.9      9.88
   03/11/2020 01:00      55.8      55.2       93     53.5      0.00      8.36      61.9     0.49      1017.9     0.3      SE   133   1.7      SE     139     373        -3       0.0       0.3      59.1      9.88
   03/11/2020 00:50      55.9      55.5       93     53.7      0.00      8.36      62.0     0.49      1017.8     0.3      NE    48   2.8     ENE      57     373        -3       0.0       0.3      59.1      9.88
   03/11/2020 00:40      56.0      55.0       93     53.8      0.00      8.36      61.9     0.49      1017.8     2.3      SW   233   3.7      NE      54     369        -2       1.0       0.2      59.2      9.89
   03/11/2020 00:30      55.1      54.6       93     52.8      0.00      8.36      62.0     0.49      1017.8     0.7       S   188   3.8     SSW     191     373        -4       0.5       0.0      59.3      9.89
   03/11/2020 00:20      55.3      54.7       92     52.9      0.00      8.36      62.0     0.49      1017.8     0.9      SW   228   2.0      SW     233     372        -5       0.0       0.0      59.5      9.89
   03/11/2020 00:10      55.9      54.9       92     53.3      0.00      8.36      61.9     0.49      1017.8     0.4       S   177   1.4      SE     136     369        -5       0.0       0.0      59.6      9.89
   03/11/2020 00:00      56.3      55.7       92     53.8      0.00      8.36      62.0     0.49      1017.8     0.2     ENE    62   1.0      NE      47     361        -5       0.0      18.4      59.8      9.89
   03/10/2020 23:50      56.5      56.0       92     54.0      0.00      8.36      62.1     0.49      1017.9     0.2     NNE    26   1.1      NE      34     352        -5       0.0      18.4      60.0      9.89
   03/10/2020 23:40      57.0      56.4       92     54.2      0.00      8.36      62.0     0.49      1017.9     0.1     ENE    56   1.1      NE      48     367        -5       0.0      18.4      60.2      9.89
   03/10/2020 23:30      57.2      56.8       92     54.6      0.00      8.36      62.1     0.49      1018.0     0.0     SSE   167   0.9       S     169     341        -5       0.0      18.4      60.3      9.89
   03/10/2020 23:20      57.3      57.0       92     54.8      0.00      8.36      62.1     0.49      1018.0     1.2       S   181   3.1       S     189     330        -5       0.6      18.4      60.4      9.89
   03/10/2020 23:10      57.5      57.0       92     54.9      0.00      8.36      62.1     0.49      1017.8     1.6       S   170   3.4       S     187     329        -4       0.8      18.2      60.4      9.89
   03/10/2020 23:00      57.6      57.2       92     55.2      0.00      8.36      62.5     0.49      1017.7     1.6       S   187   2.4       S     185     326        -4       0.6      18.1      61.2      9.89
   03/10/2020 22:50      57.7      57.4       92     55.3      0.00      8.36      62.5     0.49      1017.7     0.6       S   183   1.9     SSW     201     324        -4       0.0      18.0      61.4      9.90
   03/10/2020 22:40      57.9      57.6       92     55.5      0.00      8.36      62.5     0.49      1017.8     0.3     SSE   157   1.5     SSE     159     322        -4       0.0      18.0      61.5      9.90
   03/10/2020 22:30      58.1      57.7       92     55.6      0.00      8.36      61.8     0.49      1017.7     0.2     ESE   122   1.0      SE     137     320        -4       0.0      18.0      60.7      9.90
   03/10/2020 22:20      58.2      57.9       92     55.7      0.00      8.36      61.8     0.49      1017.7     0.2     ESE   109   1.1       E      87     319        -3       0.0      18.0      60.8      9.90
   03/10/2020 22:10      58.4      57.9       92     55.9      0.00      8.36      61.7     0.49      1017.6     0.0     ENE    60   0.9     ENE      62     322        -3       0.0      18.0      60.8      9.90
   03/10/2020 22:00      58.4      58.0       92     55.9      0.00      8.36      62.1     0.49      1017.6     0.0       N     0   0.0     ESE     113     323        -3       0.0      18.0      61.1      9.90
   03/10/2020 21:50      58.3      58.0       92     55.8      0.00      8.36      62.1     0.49      1017.5     0.1     SSE   152   0.9      SE     136     324        -3       0.0      18.0      61.2      9.90
   03/10/2020 21:40      58.5      58.2       92     55.9      0.00      8.36      62.0     0.49      1017.4     0.0     SSW   192   0.9     SSW     192     325        -3       0.0      18.0      61.1      9.90
   03/10/2020 21:30      58.4      58.1       92     55.8      0.00      8.36      62.1     0.49      1017.3     0.0       N     0   0.0      NE      47     325        -3       0.0      18.0      61.0      9.90
   03/10/2020 21:20      58.4      58.1       91     55.8      0.00      8.36      62.1     0.49      1017.2     0.0       N     0   0.0      NE      37     325        -4       0.0      18.0      61.2      9.90
   03/10/2020 21:10      58.5      58.2       91     55.9      0.00      8.36      62.1     0.49      1017.2     0.0       N     0   0.0     NNE      19     326        -3       0.0      18.0      61.3      9.90
   03/10/2020 21:00      58.6      58.3       91     55.9      0.00      8.36      62.2     0.49      1017.1     0.1     ESE   112   0.7     ENE      77     330        -3       0.0      18.0      61.6      9.90
   03/10/2020 20:50      58.7      58.4       91     56.0      0.00      8.36      62.1     0.49      1017.1     0.4     ENE    74   1.9     ENE      57     338        -3       0.1      18.0      61.6      9.90
   03/10/2020 20:40      58.7      58.4       91     55.9      0.00      8.36      62.2     0.50      1017.0     0.9     SSE   159   2.0     SSW     201     364        -4       0.2      18.0      61.7      9.90
   03/10/2020 20:30      58.6      58.3       91     55.9      0.00      8.36      62.1     0.50      1016.9     2.3     SSW   202   3.5     SSW     203     375        -4       1.2      17.9      61.8      9.90
   03/10/2020 20:20      59.0      58.5       91     56.1      0.00      8.36      62.1     0.50      1016.9     0.3       E    92   1.2     ENE      73     371        -4       0.0      17.7      61.8      9.90
   03/10/2020 20:10      59.2      58.8       91     56.3      0.01      8.36      62.1     0.50      1016.9     0.4     ESE   102   1.8     ESE     102     450        -4       0.0      17.7      61.9      9.90
   03/10/2020 20:00      59.1      58.8       91     56.2      0.00      8.35      61.9     0.50      1016.9     0.5      SE   139   1.6      SE     131     366        -4       0.0      17.7      61.8      9.90
   03/10/2020 19:50      59.3      58.9       90     56.2      0.02      8.35      61.9     0.50      1016.8     0.5     ESE   114   1.6     ESE     107     430        -4       0.0      17.7      61.8      9.90
   03/10/2020 19:40      59.4      59.0       90     56.1      0.01      8.33      61.9     0.49      1016.6     1.2       S   179   2.5     SSW     208     499        -4       0.4      17.7      62.0      9.89
   03/10/2020 19:30      59.6      59.1       89     56.1      0.00      8.32      61.9     0.49      1016.5     1.7     SSW   194   2.3     SSW     196     384        -4       0.7      17.6      62.0      9.88
   03/10/2020 19:20      59.7      59.4       88     56.1      0.01      8.32      61.9     0.49      1016.3     1.3     SSW   207   2.2      SW     220     385        -5       0.6      17.5      62.3      9.88
   03/10/2020 19:10      60.2      59.6       88     56.2      0.01      8.31      61.8     0.49      1016.3     0.6     SSE   147   1.7       S     178     491        -3       0.0      17.4      62.3      9.87
   03/10/2020 19:00      60.2      59.9       86     55.9      0.00      8.30      61.9     0.49      1016.3     0.3     ENE    64   1.0     ENE      63     352         1       0.0      17.4      62.3      9.87
   03/10/2020 18:50      60.2      59.9       86     55.8      0.00      8.30      62.0     0.49      1016.2     1.2      SW   228   3.2      SW     220     336        15       0.7      17.4      62.3      9.87
   03/10/2020 18:40      60.4      59.9       86     56.0      0.00      8.30      61.9     0.49      1016.1     1.3       S   170   2.9      SW     222     301        27       0.6      17.3      62.4      9.87
   03/10/2020 18:30      60.6      60.2       85     56.0      0.00      8.30      61.9     0.49      1016.1     0.5       E    97   2.0     ESE     117     299        22       0.1      17.2      62.6      9.87
   03/10/2020 18:20      61.0      60.4       85     56.2      0.00      8.30      61.8     0.49      1016.1     1.0     SSE   156   2.3       S     183     300        31       0.0      17.2      62.6      9.87
   03/10/2020 18:10      61.0      60.6       84     56.0      0.00      8.30      61.9     0.49      1016.0     1.9       S   176   5.2       S     191     301        38       1.2      17.2      62.8      9.87
   03/10/2020 18:00      61.3      60.8       85     56.6      0.00      8.30      62.3     0.49      1016.0     3.5       S   182   6.0      SE     139     304       108       2.2      17.0      63.5      9.88
   03/10/2020 17:50      61.1      60.7       86     56.8      0.00      8.30      62.4     0.49      1015.9     3.1       S   170   6.5       S     181     325       120       1.8      16.6      63.4      9.88
   03/10/2020 17:40      61.0      60.3       88     56.9      0.00      8.30      62.2     0.49      1015.9     2.8     SSE   160   5.5       S     174     308        91       1.3      16.3      63.3      9.88
   03/10/2020 17:30      60.7      60.3       89     57.3      0.00      8.30      62.2     0.49      1015.9     3.6     SSE   165   6.7      SE     141     311        85       2.5      16.1      63.4      9.88
   03/10/2020 17:20      60.7      60.2       90     57.6      0.00      8.30      62.1     0.49      1015.8     2.8     SSE   148   5.3     ESE     117     319       116       1.3      15.7      63.4      9.89
   03/10/2020 17:10      60.5      60.0       91     57.6      0.00      8.30      62.2     0.49      1015.7     4.2     SSE   157   7.8     SSE     148     341       179       2.1      15.4      63.2      9.89
   03/10/2020 17:00      60.5      60.1       91     57.8      0.00      8.30      61.8     0.50      1015.7     5.3     SSE   154  10.3      SE     145     334       160       3.0      15.1      62.7      9.89
   03/10/2020 16:50      60.5      60.2       91     57.6      0.00      8.30      61.7     0.50      1015.6     4.4     SSE   156   8.5       S     187     332       163       2.5      14.6      62.5      9.90
   03/10/2020 16:40      60.9      60.4       90     57.7      0.00      8.30      61.7     0.50      1015.6     5.0       S   177  10.0     SSE     153     348        93       3.3      14.2      62.4      9.90
   03/10/2020 16:30      61.3      60.9       90     58.1      0.00      8.30      61.7     0.50      1015.5     3.6       S   188   7.8     SSW     198     367        82       2.1      13.6      62.4      9.90
   03/10/2020 16:20      61.2      60.8       90     58.1      0.06      8.30      61.9     0.50      1015.4     2.8      SE   131   5.6     ESE     103     449       174       1.1      13.3      62.5      9.90
   03/10/2020 16:10      61.2      60.7       90     58.0      0.00      8.24      62.7     0.49      1015.4     4.3      SE   129  10.1       E      95     358       105       2.1      13.1      62.9      9.87
   03/10/2020 16:00      61.5      60.9       90     58.4      0.00      8.24      61.3     0.49      1015.4     3.0      SE   127   7.2       E      92     358        84       1.4      12.8      61.8      9.88
   03/10/2020 15:50      61.5      60.9       91     58.5      0.00      8.24      61.4     0.50      1015.4     2.3     ESE   112   6.0      SE     130     398       158       1.2      12.5      61.7      9.88
   03/10/2020 15:40      61.2      60.9       91     58.3      0.00      8.24      61.4     0.50      1015.4     2.0       E    86   4.4     SSE     151     407       123       1.0      12.3      61.5      9.88
   03/10/2020 15:30      61.6      60.9       90     58.5      0.01      8.24      61.5     0.50      1015.4     1.5       E    87   3.7     ENE      77     425       101       1.0      12.2      61.4      9.88
   03/10/2020 15:20      62.1      60.4       91     58.5      0.03      8.23      61.5     0.49      1015.4     2.6       E    84   4.9     ESE     120     549       329       1.6      12.0      61.3      9.87
   03/10/2020 15:10      61.0      60.4       90     57.8      0.03      8.20      61.4     0.49      1015.4     2.4       E    92   4.8      SE     126     453        90       1.3      11.8      61.0      9.86
   03/10/2020 15:00      60.8      60.3       90     57.5      0.01      8.17      61.3     0.49      1015.4     2.3       E    90   4.8     ESE     107     451       106       1.5      11.5      60.9      9.84
   03/10/2020 14:50      60.5      60.3       90     57.3      0.00      8.16      61.5     0.48      1015.5     3.1       E    87   6.8       E      83     362        64       1.7      11.3      60.9      9.84
   03/10/2020 14:40      60.7      60.3       89     57.3      0.01      8.16      62.0     0.48      1015.5     3.5       E   101   9.4     ENE      59     433        63       1.8      11.0      61.2      9.84
   03/10/2020 14:30      61.0      60.4       89     57.4      0.00      8.15      62.0     0.49      1015.6     2.2       E    80   7.5     ESE     103     432        53       1.2      10.7      61.2      9.84
   03/10/2020 14:20      60.9      60.5       88     57.2      0.00      8.15      61.9     0.49      1015.6     2.7       E    87   6.6       E      81     336        83       1.3      10.5      61.1      9.84
   03/10/2020 14:10      60.9      60.5       89     57.2      0.00      8.15      61.9     0.49      1015.8     3.3       E    96   7.6     ESE     102     312       129       1.5      10.3      61.1      9.84
   03/10/2020 14:00      60.7      60.1       89     57.0      0.00      8.15      61.8     0.49      1015.9     2.2     ESE   101   4.6      SE     129     321       156       1.0      10.1      60.6      9.84
   03/10/2020 13:50      60.9      60.2       87     56.5      0.04      8.15      61.8     0.48      1016.2     2.7     ESE   118   7.2     ESE     114     400        51       1.3       9.9      60.5      9.85
   03/10/2020 13:40      61.5      60.8       85     56.5      0.00      8.11      61.1     0.48      1016.2     3.5     ENE    78   6.3      NE      55     461       106       1.4       9.7      60.3      9.83
   03/10/2020 13:30      61.6      60.5       86     56.6      0.00      8.11      61.1     0.48      1016.5     3.5       E    97   6.5     ESE     120     287       164       1.8       9.4      60.1      9.83
   03/10/2020 13:20      60.7      60.1       87     56.4      0.00      8.11      61.2     0.48      1016.7     2.9     ENE    77   6.6       E      82     295       198       1.4       9.1      59.8      9.84
   03/10/2020 13:10      61.5      60.2       85     56.3      0.01      8.11      61.1     0.48      1016.8     3.1       E    92   7.8       E      85     353        72       1.6       8.9      59.6      9.85
   03/10/2020 13:00      61.9      61.3       82     56.2      0.00      8.10      61.5     0.48      1017.0     2.8       E    91   6.0      SE     143     418       163       1.6       8.6      59.8      9.86
   03/10/2020 12:50      62.3      61.6       81     56.2      0.00      8.10      61.6     0.48      1017.1     2.4       E    97   5.9     ESE     108     288       174       1.4       8.3      59.6      9.87
   03/10/2020 12:40      61.7      61.3       82     55.7      0.00      8.10      61.5     0.48      1017.2     2.7       E    98   5.3     ENE      71     279       159       1.3       8.1      59.3      9.88
   03/10/2020 12:30      61.5      61.3       82     55.8      0.00      8.10      61.5     0.48      1017.1     2.7       E    93  10.6       E      99     272       109       1.4       7.9      59.3      9.89
   03/10/2020 12:20      61.5      60.8       84     56.3      0.00      8.10      61.6     0.48      1017.2     2.1     ENE    75   5.4       E      94     277       117       1.0       7.7      59.1      9.91
   03/10/2020 12:10      61.0      59.6       87     56.4      0.00      8.10      61.6     0.48      1017.4     1.4      NE    54   3.5      NE      47     276       213       0.5       7.5      58.9      9.92
   03/10/2020 12:00      59.8      58.8       89     55.9      0.00      8.10      61.6     0.48      1017.5     1.9     ENE    66   5.1     ENE      71     283       167       0.8       7.4      58.5      9.94
   03/10/2020 11:50      59.3      58.5       90     56.1      0.00      8.10      61.6     0.48      1017.5     2.2     ENE    74   7.4     ENE      65     289       176       0.9       7.3      58.3      9.93
   03/10/2020 11:40      58.6      58.0       91     55.5      0.00      8.10      61.6     0.48      1017.6     1.4     ENE    73   5.1     ESE     118     299       188       0.6       7.1      58.1      9.40
   03/10/2020 11:30      58.2      57.6       90     55.1      0.00      8.10      61.6     0.48      1017.7     1.6     ENE    66   3.4     ENE      65     368       104       0.5       7.0      57.8      9.40
   03/10/2020 11:20      57.7      57.5       90     54.7      0.00      8.10      61.6     0.48      1017.9     2.1     ENE    69   4.7       E      91     390        83       0.8       6.9      57.7      9.40
   03/10/2020 11:10      57.8      57.4       90     54.5      0.00      8.10      62.3     0.48      1018.0     1.8     ENE    61   3.5      NE      39     390        62       0.7       6.8      58.2      9.40
   03/10/2020 11:00      57.6      57.1       90     54.4      0.00      8.10      61.1     0.48      1018.0     1.9       E    80   7.1      SE     126     330        49       0.8       6.7      57.1      9.40
   03/10/2020 10:50      57.3      57.0       90     54.4      0.00      8.10      61.3     0.48      1018.1     1.7       E    89   4.2     ENE      74     315        54       0.5       6.6      57.1      9.39
   03/10/2020 10:40      57.3      56.8       91     54.4      0.00      8.10      61.2     0.48      1018.0     1.2     ENE    72   2.9      SE     133     324        54       0.3       6.5      57.0      9.39
   03/10/2020 10:30      57.0      56.6       91     54.3      0.00      8.10      61.3     0.48      1018.0     1.6       E    85   5.2     ENE      64     330        64       0.7       6.4      57.0      9.39
   03/10/2020 10:20      56.8      56.5       91     54.0      0.01      8.10      61.2     0.48      1018.0     1.4     ENE    78   3.8     ENE      76     371        61       0.7       6.3      56.9      9.39
   03/10/2020 10:10      56.7      56.4       91     53.9      0.00      8.09      61.4     0.48      1018.0     2.2     ENE    70   7.8     ENE      70     455        71       1.0       6.2      56.9      9.39
   03/10/2020 10:00      56.5      56.0       91     53.6      0.00      8.09      61.7     0.48      1018.1     3.4       E    84   8.7     NNE      20     449        92       1.7       6.0      56.8      9.39
   03/10/2020 09:50      56.2      55.8       91     53.5      0.00      8.09      61.7     0.48      1018.1     3.2       E    85   7.4     ENE      73     352        80       1.9       5.7      56.7      9.39
   03/10/2020 09:40      56.0      55.7       92     53.4      0.00      8.09      61.7     0.48      1018.1     2.6       E    80   6.4       E      89     401        46       1.2       5.4      56.6      9.39
   03/10/2020 09:30      55.9      55.6       92     53.4      0.00      8.09      61.7     0.48      1017.9     2.3       E    81   6.0     NNE      22     355        48       1.1       5.2      56.6      9.39
   03/10/2020 09:20      55.8      55.5       92     53.4      0.00      8.09      61.8     0.48      1017.8     2.4       E    88   6.7       E      83     292        63       1.3       5.0      56.5      9.39
   03/10/2020 09:10      55.7      55.2       92     53.3      0.00      8.09      61.8     0.48      1017.7     2.8     ENE    72   7.7     ESE     110     300        43       1.0       4.8      56.4      9.39
   03/10/2020 09:00      55.4      55.1       92     53.1      0.00      8.09      61.8     0.48      1017.6     3.3       E    88   7.2      NE      54     322        34       1.5       4.6      56.5      9.39
   03/10/2020 08:50      55.2      54.9       93     53.0      0.00      8.09      61.8     0.48      1017.5     2.2       E    93   4.8     ESE     123     400        37       1.2       4.4      56.4      9.38
   03/10/2020 08:40      55.0      54.7       93     52.8      0.00      8.09      62.0     0.48      1017.3     2.9       E    84   6.1      SE     137     360        34       1.6       4.2      56.4      9.38
   03/10/2020 08:30      54.8      54.5       93     52.7      0.00      8.09      62.1     0.48      1017.2     3.3       E    81   7.6     ESE     120     362        34       1.7       3.9      56.4      9.38
   03/10/2020 08:20      54.8      54.5       93     52.6      0.01      8.09      62.1     0.48      1017.0     3.6       E    82   8.6     ENE      73     403        25       2.0       3.6      56.3      9.38
   03/10/2020 08:10      54.7      54.2       93     52.6      0.01      8.08      62.1     0.48      1017.0     2.8     ENE    72   5.0      NE      44     460        47       1.3       3.3      56.2      9.38
   03/10/2020 08:00      54.5      54.1       93     52.3      0.01      8.07      62.4     0.48      1016.9     3.2       E    81   7.7      NE      47     487        19       1.6       3.1      56.7      9.37
   03/10/2020 07:50      54.6      54.1       93     52.3      0.02      8.06      62.4     0.48      1016.9     3.4       E    83   8.3       E      97     465         9       1.7       2.8      56.7      9.36
   03/10/2020 07:40      54.5      54.1       93     52.3      0.01      8.04      62.4     0.48      1016.8     3.0     ENE    75   6.6      NE      48     493         4       1.6       2.5      56.8      9.34
   03/10/2020 07:30      54.3      54.0       93     52.1      0.00      8.03      62.3     0.48      1016.8     3.1     ENE    70   9.6     ENE      75     439         2       1.3       2.3      56.7      9.34
   03/10/2020 07:20      54.3      54.0       93     52.1      0.00      8.03      62.4     0.48      1016.7     3.1     ENE    68  10.8     ENE      78     439        -0       1.3       2.1      56.8      9.34
   03/10/2020 07:10      54.3      54.0       93     52.2      0.01      8.03      62.4     0.47      1016.9     3.5     ENE    72   7.4      NE      50     460        -2       1.4       1.9      56.8      9.33
   03/10/2020 07:00      54.4      54.1       93     52.2      0.00      8.02      61.9     0.47      1017.0     2.4     ENE    73   6.2     ENE      60     438        -2       1.1       1.6      56.4      9.33
   03/10/2020 06:50      54.3      54.0       93     52.1      0.01      8.02      61.8     0.47      1016.9     2.3     ENE    63   7.1     ENE      60     491        -2       1.1       1.4      56.5      9.33
   03/10/2020 06:40      54.3      54.0       93     52.0      0.01      8.01      61.9     0.47      1016.9     2.1     ENE    76   6.4       E     100     482        -2       1.0       1.3      56.5      9.32
   03/10/2020 06:30      54.3      54.0       92     51.9      0.01      8.00      61.9     0.47      1016.8     2.5     ENE    61   5.3      NE      52     451        -2       0.6       1.1      56.6      9.31
   03/10/2020 06:20      54.4      54.0       92     51.8      0.01      7.99      61.9     0.47      1016.9     1.8     ENE    72   3.7     ENE      68     482        -3       0.8       1.0      56.6      9.31
   03/10/2020 06:10      54.3      54.0       91     51.6      0.01      7.98      61.9     0.47      1016.9     1.9     ENE    67   4.7     ESE     108     479        -3       0.8       0.9      56.7      9.30
   03/10/2020 06:00      54.3      54.0       90     51.4      0.02      7.97      62.2     0.47      1016.8     2.1     ENE    72   4.3     ESE     103     480        -3       1.0       0.7      57.0      9.29
   03/10/2020 05:50      54.3      54.0       90     51.3      0.00      7.95      62.2     0.47      1016.8     1.3     ENE    71   3.8     ENE      68     517        -4       0.7       0.6      57.1      9.28
   03/10/2020 05:40      54.1      53.9       90     51.3      0.00      7.95      62.2     0.47      1016.7     0.3       E    85   1.9     ESE     115     325        -4       0.2       0.5      57.2      9.28
   03/10/2020 05:30      54.1      53.9       90     51.3      0.00      7.95      62.2     0.47      1016.5     0.5     ENE    72   2.5     ENE      59     343        -4       0.0       0.4      57.1      9.28
   03/10/2020 05:20      54.3      53.9       90     51.2      0.00      7.95      62.2     0.47      1016.3     0.2     ENE    69   1.5     ENE      61     342        -5       0.0       0.4      57.2      9.28
   03/10/2020 05:10      54.2      53.8       90     51.0      0.00      7.95      62.2     0.47      1016.3     0.2      NE    49   0.9      NE      50     360        -5       0.0       0.4      57.3      9.28
   03/10/2020 05:00      54.3      54.0       90     51.2      0.00      7.95      61.6     0.47      1016.3     0.0     NNE    30   0.6     NNE      31     388        -5       0.0       0.4      56.7      9.28
   03/10/2020 04:50      54.2      53.8       89     50.8      0.01      7.95      61.7     0.47      1016.4     0.2     ENE    73   0.9      NE      52     426        -5       0.0       0.4      56.8      9.28
   03/10/2020 04:40      54.3      53.9       89     50.8      0.00      7.94      61.6     0.47      1016.5     0.4     SSE   160   1.4     SSE     147     400        -5       0.0       0.4      56.8      9.27
   03/10/2020 04:30      54.3      53.8       88     50.7      0.00      7.94      61.6     0.47      1016.4     0.5      SE   128   1.9      SE     135     410        -5       0.0       0.4      56.9      9.27
   03/10/2020 04:20      54.1      53.8       90     50.9      0.00      7.94      61.6     0.47      1016.2     1.5     ESE   116   3.3      SE     135     416        -5       0.4       0.4      56.9      9.27
   03/10/2020 04:10      54.1      53.8       90     51.1      0.01      7.94      61.6     0.47      1016.1     0.8      SE   132   2.5     SSE     151     412        -5       0.2       0.3      56.9      9.27
   03/10/2020 04:00      54.2      53.9       89     51.0      0.00      7.93      62.1     0.47      1016.2     0.5     SSE   148   1.4      SE     140     374        -5       0.0       0.3      57.4      9.26
   03/10/2020 03:50      54.3      54.0       90     51.1      0.00      7.93      62.0     0.47      1016.1     0.7     ESE   115   2.0      SE     139     362        -5       0.0       0.3      57.5      9.26
   03/10/2020 03:40      54.3      54.0       91     51.4      0.00      7.93      62.1     0.47      1016.3     1.4      SE   137   2.8     ESE     123     356        -5       0.3       0.3      57.6      9.26
   03/10/2020 03:30      54.4      54.1       91     51.7      0.00      7.93      62.1     0.47      1016.3     1.2     SSE   152   2.5     SSE     167     306        -5       0.4       0.3      57.6      9.26
   03/10/2020 03:20      54.5      54.1       91     51.8      0.00      7.93      62.1     0.47      1016.3     1.2      SE   143   2.9      SE     133     334        -5       0.2       0.2      57.7      9.26
   03/10/2020 03:10      54.5      54.1       91     51.8      0.01      7.93      62.1     0.47      1016.4     0.6     SSE   150   2.3      SE     135     351        -5       0.0       0.2      57.7      9.26
   03/10/2020 03:00      54.4      54.0       91     51.8      0.00      7.92      62.6     0.47      1016.5     0.9     SSE   148   3.7      SE     142     348        -5       0.3       0.2      58.6      9.26
   03/10/2020 02:50      54.6      54.1       91     51.9      0.00      7.92      62.6     0.47      1016.7     1.2     SSE   163   3.0      SE     140     336        -5       0.6       0.1      58.7      9.26
   03/10/2020 02:40      54.5      54.1       91     51.7      0.00      7.92      62.7     0.47      1017.0     0.0     SSE   147   1.2     SSE     147     342        -5       0.0       0.0      58.7      9.26
   03/10/2020 02:30      54.8      54.3       91     51.8      0.00      7.92      62.6     0.47      1017.1     0.3     SSE   153   1.5      SE     137     349        -5       0.0       0.0      58.8      9.26
   03/10/2020 02:20      55.0      54.5       90     51.9      0.00      7.92      62.6     0.47      1017.2     0.2      SE   143   1.0      SE     139     356        -5       0.0       0.0      58.8      9.26
   03/10/2020 02:10      55.1      54.7       90     52.0      0.00      7.92      62.7     0.47      1017.4     0.0       N     0   0.0     ENE      76     362        -5       0.0       0.0      58.9      9.26
   03/10/2020 02:00      55.2      54.9       89     52.0      0.01      7.92      61.8     0.47      1017.8     0.0      NE    39   0.7      NE      39     429        -5       0.0       0.0      58.0      9.26
   03/10/2020 01:50      55.2      54.9       89     51.8      0.00      7.91      61.8     0.47      1018.2     0.6     SSW   198   2.2     SSW     198     432        -5       0.0       0.0      58.0      9.25
   03/10/2020 01:40      55.1      54.7       88     51.5      0.00      7.91      61.8     0.47      1018.2     0.0     SSE   166   0.7     SSE     166     394        -5       0.0       0.0      58.2      9.25
   03/10/2020 01:30      55.3      54.9       88     51.5      0.01      7.91      61.8     0.47      1018.1     0.1      SE   143   0.9     SSE     147     405        -5       0.0       0.0      58.2      9.25
   03/10/2020 01:20      55.4      55.0       86     51.1      0.00      7.90      61.8     0.47      1018.3     0.9       S   176   1.9       S     190     378        -6       0.0       0.0      58.4      9.24
   03/10/2020 01:10      55.9      55.3       84     51.0      0.01      7.90      62.9     0.47      1018.4     0.3       S   191   1.8       S     188     359        -6       0.0       0.0      59.3      9.24
   03/10/2020 01:00      56.2      55.7       83     50.8      0.00      7.89      61.9     0.47      1018.5     0.0       N     0   0.0     SSW     199     395        -6       0.0       0.0      58.6      9.24
   03/10/2020 00:50      56.4      56.0       81     50.5      0.00      7.89      61.9     0.47      1018.6     0.0       N     0   0.0     ESE     113     399        -6       0.0       0.0      58.8      9.24
   03/10/2020 00:40      57.2      56.3       78     50.0      0.00      7.89      61.8     0.47      1018.6     0.2      SE   127   1.0      SE     130     375        -6       0.0       0.0      58.9      9.23
   03/10/2020 00:30      57.3      57.1       74     49.0      0.00      7.89      62.0     0.47      1018.7     0.0       E    87   0.8     ENE      76     341       -14       0.0       0.0      59.0      9.23
   03/10/2020 00:20      57.4      57.1       73     48.5      0.00      7.89      61.9     0.47      1018.8     0.3     ESE   104   1.2     ESE     104     290       -17       0.0       0.0      59.1      9.23
   03/10/2020 00:10      57.6      57.0       72     48.5      0.00      7.89      62.0     0.47      1018.5     0.8     ESE   124   1.6      SE     140     270       -22       0.0       0.0      59.1      9.23
   03/10/2020 00:00      57.7      57.4       71     48.4      0.00      7.89      61.9     0.47      1018.5     0.6     ENE    75   1.6      SE     129     273       -25       0.0      13.0      59.1      9.23
   03/09/2020 23:50      57.9      57.4       71     48.2      0.00      7.89      62.0     0.47      1018.7     0.8      SE   129   2.1      SE     126     272       -24       0.1      13.0      59.3      9.23
   03/09/2020 23:40      58.0      57.7       70     48.2      0.00      7.89      61.9     0.47      1018.7     1.1      NE    38   2.6       E      81     272       -23       0.0      13.0      59.4      9.23
   03/09/2020 23:30      58.2      57.9       70     48.2      0.00      7.89      62.0     0.47      1019.0     0.5     NNE    29   1.8     NNW     333     269       -29       0.0      13.0      59.5      9.23
   03/09/2020 23:20      58.2      57.9       69     48.1      0.00      7.89      61.9     0.47      1019.4     1.4      NE    44   2.7      NE      45     269       -22       0.0      13.0      59.6      9.23
   03/09/2020 23:10      58.2      57.9       69     48.0      0.00      7.89      61.9     0.47      1019.8     0.9     ESE   115   1.9     SSE     157     269       -17       0.2      12.9      59.6      9.23
   03/09/2020 23:00      58.2      57.9       69     48.0      0.00      7.89      62.0     0.47      1019.9     0.6     ESE   110   2.2     ENE      77     269       -13       0.2      12.9      59.8      9.23
   03/09/2020 22:50      58.0      57.9       69     47.9      0.00      7.89      62.0     0.47      1019.8     1.6     SSE   161   4.8     SSW     211     269       -15       0.6      12.9      59.8      9.23
   03/09/2020 22:40      58.1      57.8       69     47.7      0.00      7.89      62.0     0.47      1019.2     1.9      SE   126   4.2     ESE     116     269       -21       0.6      12.8      59.8      9.23
   03/09/2020 22:30      58.0      57.7       69     47.6      0.00      7.89      62.0     0.47      1018.8     2.0       E    98   5.1       E      98     269       -27       1.0      12.7      60.0      9.23
   03/09/2020 22:20      57.9      57.6       68     47.1      0.00      7.89      61.9     0.47      1018.5     2.2       E    90   6.2     ENE      63     268       -31       1.0      12.5      60.1      9.23
   03/09/2020 22:10      58.0      57.7       67     46.8      0.00      7.89      62.5     0.47      1018.0     1.7       E   101   4.0     SSE     148     268       -39       0.6      12.3      60.7      9.23
   03/09/2020 22:00      58.3      57.9       66     46.9      0.00      7.89      62.0     0.47      1017.3     2.4      NE    50   4.2     NNE      33     268       -44       0.6      12.2      60.3      9.24
   03/09/2020 21:50      58.6      58.0       64     46.1      0.00      7.89      61.9     0.47      1017.8     2.7     ENE    65   5.5      NE      54     268       -35       0.9      12.1      60.5      9.24
   03/09/2020 21:40      58.8      58.5       62     45.7      0.00      7.89      62.0     0.47      1018.5     2.8     ENE    79   5.8       E      89     268       -38       1.2      12.0      60.7      9.24
   03/09/2020 21:30      59.3      58.7       60     45.1      0.00      7.89      62.0     0.47      1018.6     2.9       E    97  10.5     ENE      73     268       -37       1.7      11.8      60.9      9.24
   03/09/2020 21:20      59.7      59.1       58     44.4      0.00      7.89      62.0     0.47      1019.0     2.9     ESE   122   7.4     SSE     155     267       -37       1.2      11.5      61.1      9.24
   03/09/2020 21:10      60.4      59.4       55     43.5      0.00      7.89      62.0     0.47      1018.8     4.8     SSE   158   9.0     SSE     155     267       -38       2.8      11.3      61.3      9.24
   03/09/2020 21:00      61.8      60.5       48     41.5      0.00      7.89      62.0     0.47      1018.6     5.9     SSE   153  12.3     SSE     161     267       -38       3.2      10.8      61.7      9.24
   03/09/2020 20:50      63.3      61.8       42     39.4      0.00      7.89      62.0     0.47      1018.2     6.9     SSE   158  14.9     SSE     160     267       -40       3.8      10.3      61.9      9.24
   03/09/2020 20:40      64.0      63.3       38     37.9      0.00      7.89      62.0     0.47      1017.9     6.8      SE   141  13.4     ESE     116     266       -41       3.3       9.7      62.0      9.25
   03/09/2020 20:30      64.0      61.0       37     36.6      0.00      7.89      62.0     0.47      1017.6     6.9      SE   136  12.9      SE     133     266       -38       3.6       9.2      62.0      9.25
   03/09/2020 20:20      61.0      59.4       47     39.7      0.00      7.89      61.9     0.47      1017.2     1.4      SE   138   4.0      SE     146     267       -35       0.3       8.6      62.2      9.25
   03/09/2020 20:10      60.7      59.8       47     39.8      0.00      7.89      61.9     0.47      1016.9     1.7     SSE   162   3.9     SSW     203     267       -38       0.5       8.5      62.3      9.25
   03/09/2020 20:00      60.4      59.3       48     39.6      0.00      7.89      61.3     0.47      1016.3     1.9     SSE   167   3.5     SSW     206     267       -53       0.6       8.4      62.0      9.25
   03/09/2020 19:50      60.4      59.5       45     38.8      0.00      7.89      61.2     0.47      1015.9     0.8       S   175   2.1       S     190     267       -57       0.0       8.3      62.3      9.25
   03/09/2020 19:40      61.0      60.4       45     39.2      0.00      7.89      61.2     0.47      1015.8     0.6     SSE   152   1.2      SE     138     267       -55       0.0       8.3      62.4      9.25
   03/09/2020 19:30      62.8      61.0       43     39.1      0.00      7.89      61.1     0.47      1016.0     1.1     SSE   146   2.5      SE     138     267       -61       0.0       8.3      62.6      9.25
   03/09/2020 19:20      63.4      62.6       41     38.9      0.00      7.89      61.0     0.47      1016.0     0.2     SSW   192   1.3     SSW     202     266       -51       0.0       8.3      62.7      9.26
   03/09/2020 19:10      63.5      63.2       41     39.2      0.00      7.89      61.0     0.47      1016.4     0.0     ENE    78   0.2     ENE      79     266       -43       0.0       8.3      62.8      9.26
   03/09/2020 19:00      63.7      63.2       41     39.2      0.00      7.89      61.6     0.47      1016.8     0.5     ESE   121   1.2       E      97     266       -35       0.0       8.3      63.6      9.26
   03/09/2020 18:50      64.8      63.5       39     39.0      0.00      7.89      61.5     0.47      1016.9     0.6     SSE   154   1.6      SE     140     266       -34       0.2       8.3      63.8      9.26
   03/09/2020 18:40      65.5      64.8       37     38.5      0.00      7.89      61.7     0.47      1016.9     0.0     SSE   157   0.6     SSE     154     266       -34       0.0       8.3      63.9      9.26
   03/09/2020 18:30      66.0      65.5       36     38.4      0.00      7.89      61.7     0.47      1017.0     0.0      NE    56   0.7      NE      56     266       -31       0.0       8.3      64.2      9.26
   03/09/2020 18:20      66.3      65.8       35     37.9      0.00      7.89      61.5     0.47      1016.8     0.4       E    92   1.7       E      84     266       -32       0.0       8.3      64.3      9.26
   03/09/2020 18:10      66.7      66.1       35     37.9      0.00      7.89      61.6     0.47      1016.9     0.9     ESE   113   2.3       S     190     266       -29       0.2       8.3      64.5      9.26
   03/09/2020 18:00      66.7      66.4       34     37.6      0.00      7.89      60.7     0.47      1016.8     0.7     ESE   109   3.2     ESE     118     266        -7       0.2       8.3      63.9      9.26
   03/09/2020 17:50      66.7      66.4       34     37.4      0.00      7.89      60.6     0.47      1016.7     0.9     ESE   110   2.5      SE     132     266        -4       0.4       8.2      63.8      9.26
   03/09/2020 17:40      67.1      66.6       33     37.0      0.00      7.89      60.6     0.47      1016.8     1.3     ESE   110   3.2     ENE      62     266       -11       0.6       8.2      63.9      9.27
   03/09/2020 17:30      67.3      66.9       33     36.7      0.00      7.89      60.5     0.47      1017.0     1.2     ESE   118   3.3       E      88     266         3       0.6       8.1      63.9      9.27
   03/09/2020 17:20      67.4      67.1       33     36.9      0.00      7.89      60.5     0.47      1017.1     0.9     ESE   107   3.0       E      83     266        -0       0.3       8.0      64.0      9.27
   03/09/2020 17:10      67.3      67.0       32     36.4      0.00      7.89      60.4     0.47      1016.9     1.2      SE   137   3.5     ENE      61     266         3       0.6       7.9      64.2      9.27
   03/09/2020 17:00      67.3      67.0       32     36.3      0.00      7.89      61.0     0.47      1016.6     2.8      SE   127   5.3      SE     141     266        11       1.2       7.8      65.0      9.27
   03/09/2020 16:50      67.6      67.1       32     36.6      0.00      7.89      60.9     0.47      1016.4     2.9     ESE   113   8.9      SE     125     266         3       1.7       7.6      65.1      9.27
   03/09/2020 16:40      68.4      67.6       31     36.7      0.00      7.89      60.9     0.47      1016.3     3.6     ESE   118   6.7      SE     133     266        36       1.7       7.3      65.2      9.28
   03/09/2020 16:30      68.7      68.1       31     36.9      0.00      7.89      60.8     0.47      1016.3     2.4       E    95   5.3     ESE     119     266        86       1.2       7.1      65.2      9.28
   03/09/2020 16:20      69.1      68.4       31     37.2      0.00      7.89      60.6     0.47      1016.5     2.7     ESE   114   6.2     ESE     122     266       133       1.4       6.9      65.0      9.28
   03/09/2020 16:10      69.3      68.3       32     37.4      0.00      7.89      60.6     0.47      1016.5     2.9     ESE   104   5.3     ESE     122     266        99       1.6       6.6      64.8      9.28
   03/09/2020 16:00      70.2      69.2       31     37.5      0.00      7.89      61.3     0.47      1016.5     1.6     ENE    75   3.8     ENE      74     266        93       0.8       6.4      65.1      9.28
   03/09/2020 15:50      70.5      70.2       30     37.3      0.00      7.89      61.4     0.47      1016.6     1.0      NE    42   3.4     ENE      58     266        86       0.6       6.2      64.6      9.28
   03/09/2020 15:40      70.6      69.7       29     36.4      0.00      7.89      61.2     0.47      1016.6     2.5      NE    50   5.2     NNW     346     265       352       1.1       6.1      64.3      9.28
   03/09/2020 15:30      70.4      69.5       29     36.7      0.00      7.89      61.4     0.47      1016.6     2.3      NE    45   4.3     NNE      22     265       255       0.8       6.0      63.9      9.28
   03/09/2020 15:20      69.9      68.5       31     37.1      0.00      7.89      61.3     0.47      1016.7     1.4     NNE    33   5.9     NNE      31     266       219       0.3       5.8      63.5      9.28
   03/09/2020 15:10      69.5      68.2       31     36.6      0.00      7.89      61.4     0.47      1016.9     1.7       E    98   5.0      SE     145     266       201       0.9       5.8      63.1      9.29
   03/09/2020 15:00      69.8      69.1       31     37.6      0.00      7.89      60.0     0.47      1016.9     1.8       N   360   4.7     ENE      59     265       230       1.2       5.6      61.6      9.29
   03/09/2020 14:50      69.9      68.8       31     37.7      0.00      7.89      60.0     0.47      1016.9     2.0       W   274   4.7     WSW     251     264       385       1.4       5.4      61.1      9.29
   03/09/2020 14:40      69.5      68.3       32     37.5      0.00      7.89      60.0     0.47      1017.2     1.8      NW   321   4.1     WNW     289     265       302       1.4       5.2      60.5      9.29
   03/09/2020 14:30      69.5      68.4       31     37.0      0.00      7.89      60.0     0.47      1017.3     1.1       E    82   3.9     ESE     106     265       342       0.8       4.9      59.9      9.29
   03/09/2020 14:20      69.2      68.3       31     36.8      0.00      7.89      60.2     0.47      1017.4     2.5      NE    45   5.8     WNW     300     265       439       1.0       4.8      59.3      9.29
   03/09/2020 14:10      68.6      67.5       33     38.1      0.00      7.89      60.1     0.47      1017.4     1.7       N     2   4.4     NNE      30     266       460       0.8       4.6      58.6      9.29
   03/09/2020 14:00      68.6      67.6       35     39.8      0.00      7.89      60.1     0.47      1017.6     1.6     WNW   288   4.1      NW     325     265       465       1.2       4.5      58.0      9.29
   03/09/2020 13:50      67.7      66.8       36     39.4      0.00      7.89      60.2     0.47      1017.9     1.4     SSW   196   4.0     SSE     149     266       500       1.3       4.3      57.4      9.29
   03/09/2020 13:40      67.1      64.7       39     40.6      0.00      7.89      60.1     0.47      1017.9     2.0     ENE    78   5.2       E      82     266       511       1.3       4.1      56.8      9.29
   03/09/2020 13:30      64.9      64.0       41     40.5      0.00      7.89      60.1     0.47      1018.2     2.4      SE   143   6.5     SSE     152     266       501       1.5       3.9      56.3      9.29
   03/09/2020 13:20      64.3      62.9       43     40.8      0.00      7.89      60.1     0.47      1018.4     3.2       S   171   6.2     SSW     194     266       374       2.2       3.6      55.7      9.29
   03/09/2020 13:10      63.4      62.8       44     40.8      0.00      7.89      60.1     0.47      1018.6     3.2     SSW   195   5.7     SSW     196     266       276       2.2       3.3      55.2      9.29
   03/09/2020 13:00      64.9      63.5       44     41.6      0.00      7.89      59.6     0.47      1018.7     2.7     WSW   240   5.9     WSW     236     266       391       1.8       2.9      54.3      9.29
   03/09/2020 12:50      64.7      62.2       42     40.1      0.00      7.89      59.5     0.47      1018.9     1.9     SSW   196   6.3      SW     228     266       419       1.4       2.6      53.6      9.29
   03/09/2020 12:40      62.3      61.2       42     38.2      0.00      7.89      59.4     0.47      1019.1     2.3     SSE   158   4.4     SSW     202     266       356       1.5       2.4      53.0      9.29
   03/09/2020 12:30      61.8      60.9       41     37.5      0.00      7.89      59.5     0.47      1019.1     2.5     WSW   246   5.3      SW     228     266       247       1.6       2.1      52.6      9.29
   03/09/2020 12:20      61.6      60.8       40     37.0      0.00      7.89      59.5     0.47      1019.5     1.5      SE   136   3.8      SE     135     266       309       1.2       1.9      52.0      9.29
   03/09/2020 12:10      61.1      60.3       41     37.0      0.00      7.89      59.5     0.47      1019.5     1.4      NW   314   4.0      NW     320     266       293       0.7       1.7      51.5      9.29
   03/09/2020 12:00      60.6      59.6       42     36.6      0.00      7.89      59.9     0.47      1019.8     0.7     WSW   256   4.1      NW     309     266       205       0.4       1.5      51.7      9.29
   03/09/2020 11:50      59.8      58.9       41     35.8      0.00      7.89      60.1     0.47      1020.0     0.6     NNE    26   1.8      NW     315     266       180       0.5       1.5      51.3      9.29
   03/09/2020 11:40      59.1      58.6       45     37.7      0.00      7.89      60.0     0.47      1019.9     1.5     NNW   332   4.1       N       0     267       140       0.4       1.4      50.9      9.29
   03/09/2020 11:30      59.2      58.6       44     37.1      0.00      7.89      60.1     0.47      1020.3     1.1     SSE   168   2.7       S     171     267       124       0.6       1.3      50.7      9.29
   03/09/2020 11:20      59.2      58.6       46     38.4      0.00      7.89      60.0     0.47      1020.4     1.0     NNE    15   3.2      SE     135     267       169       0.5       1.2      50.4      9.29
   03/09/2020 11:10      58.8      58.2       48     38.8      0.00      7.89      60.0     0.47      1020.2     0.8       N     6   2.3       N       6     267       166       0.2       1.1      50.1      9.29
   03/09/2020 11:00      58.6      57.7       49     39.0      0.00      7.89      60.9     0.47      1020.3     0.7       N     9   2.2       N     349     267       185       0.3       1.1      50.6      9.29
   03/09/2020 10:50      57.9      57.1       50     39.0      0.00      7.89      60.9     0.47      1020.3     0.9     ENE    71   2.0      NE      52     268       171       0.3       1.1      50.2      9.29
   03/09/2020 10:40      57.2      57.0       51     39.1      0.00      7.89      61.0     0.47      1020.4     0.9      SE   127   3.0       E      90     268       151       0.5       1.0      50.0      9.29
   03/09/2020 10:30      57.4      56.5       52     39.7      0.00      7.89      60.9     0.47      1020.3     0.6       E    82   2.6     ESE     103     268       166       0.3       0.9      49.6      9.29
   03/09/2020 10:20      56.6      56.0       52     39.0      0.00      7.89      60.9     0.47      1020.4     0.6     ENE    62   1.7      NE      35     268       117       0.2       0.9      49.4      9.29
   03/09/2020 10:10      56.3      55.5       54     39.8      0.00      7.89      60.9     0.47      1020.3     0.4      NE    55   1.9     NNE      27     268       134       0.1       0.9      49.1      9.29
   03/09/2020 10:00      55.5      55.0       54     38.9      0.00      7.89      60.1     0.47      1020.3     1.1     ESE   109   2.3      SE     132     268       126       0.6       0.8      47.9      9.29
   03/09/2020 09:50      55.9      55.3       55     39.9      0.00      7.89      60.9     0.47      1020.3     1.6       E    83   3.9      NE      55     268       141       0.5       0.7      48.3      9.29
   03/09/2020 09:40      55.8      55.1       57     40.4      0.00      7.89      60.9     0.47      1020.1     1.0       E    92   4.0      SE     144     268       176       0.4       0.6      48.1      9.29
   03/09/2020 09:30      55.7      54.6       59     41.3      0.00      7.89      61.0     0.47      1020.0     0.7       N   360   1.9     NNE      25     268       261       0.2       0.6      47.8      9.29
   03/09/2020 09:20      54.7      50.7       66     41.6      0.00      7.89      61.0     0.47      1019.8     0.2     SSW   196   1.3     SSW     210     283       337       0.1       0.6      47.5      9.29
   03/09/2020 09:10      50.5      48.7       75     41.9      0.00      7.89      61.0     0.47      1019.8     0.0       S   174   0.5       S     172     296       185       0.0       0.5      47.3      9.29
   03/09/2020 09:00      48.6      47.7       78     41.6      0.00      7.89      60.6     0.47      1019.8     0.0      SE   129   0.7     ESE     109     303        72       0.0       0.5      46.6      9.29
   03/09/2020 08:50      47.8      46.9       81     41.6      0.00      7.89      60.7     0.47      1019.7     0.1      SE   131   0.7      SE     131     312        66       0.0       0.5      46.5      9.29
   03/09/2020 08:40      47.1      46.1       83     41.6      0.00      7.89      60.6     0.47      1019.7     0.3      SE   142   1.4     SSE     148     326        49       0.0       0.5      46.4      9.29
   03/09/2020 08:30      46.2      45.4       85     41.4      0.00      7.89      60.7     0.47      1019.6     0.4       W   266   1.6      SE     143     338        34       0.0       0.5      46.3      9.29
   03/09/2020 08:20      45.5      44.5       86     41.2      0.00      7.89      60.7     0.47      1019.4     0.2     NNW   334   1.0     NNE      20     346        28       0.0       0.5      46.1      9.29
   03/09/2020 08:10      44.6      43.7       87     40.7      0.00      7.89      60.6     0.47      1019.4     0.0      SE   143   0.0      SE     143     357        22       0.0       0.5      45.9      9.29
   03/09/2020 08:00      43.7      43.1       89     40.4      0.00      7.89      60.9     0.47      1019.3     0.2      SE   132   1.1      SE     132     361        18       0.0       0.5      46.0      9.29
   03/09/2020 07:50      43.3      42.8       89     40.2      0.00      7.89      60.9     0.47      1019.2     0.0       N     0   0.0      SE     145     367        11       0.0       0.5      45.8      9.29
   03/09/2020 07:40      42.8      42.2       90     39.8      0.00      7.89      60.9     0.47      1019.0     0.0       N     0   0.0      SE     144     368         4       0.0       0.5      45.8      9.29
   03/09/2020 07:30      42.3      42.0       90     39.4      0.00      7.89      61.0     0.47      1018.9     0.3     SSE   167   1.5       S     187     369        -3       0.0       0.5      46.0      9.29
   03/09/2020 07:20      42.3      41.9       90     39.2      0.00      7.89      61.0     0.47      1018.9     0.4     SSE   163   1.7     SSW     198     369        -9       0.1       0.5      46.0      9.29
   03/09/2020 07:10      42.1      41.7       89     39.0      0.00      7.89      61.1     0.47      1019.2     0.4       S   184   1.2       S     177     369       -15       0.2       0.5      46.1      9.29
   03/09/2020 07:00      42.7      42.1       89     39.5      0.00      7.89      61.4     0.47      1019.1     0.5       S   170   1.3      SE     146     366       -17       0.0       0.5      46.5      9.29
   03/09/2020 06:50      42.9      42.3       89     39.5      0.00      7.89      61.4     0.47      1019.2     0.5      SE   145   1.3     SSE     147     364       -18       0.0       0.5      46.6      9.29
   03/09/2020 06:40      43.4      42.8       90     40.3      0.00      7.89      61.5     0.47      1019.3     0.9      SW   224   2.0      SW     217     362       -17       0.1       0.5      46.8      9.29
   03/09/2020 06:30      43.1      42.0       91     40.1      0.00      7.89      61.5     0.47      1019.3     1.8       S   174   2.5     SSW     201     361       -14       0.5       0.5      46.9      9.29
   03/09/2020 06:20      42.3      41.7       91     39.5      0.00      7.89      61.6     0.47      1019.2     0.5       S   172   1.5       S     179     363       -12       0.1       0.4      46.9      9.29
   03/09/2020 06:10      42.1      41.7       91     39.4      0.00      7.89      61.6     0.47      1019.2     0.6      SE   135   1.1     ESE     122     363       -10       0.0       0.3      47.0      9.29
   03/09/2020 06:00      42.1      41.5       91     39.4      0.00      7.89      61.2     0.47      1019.4     0.4       S   191   1.1       S     183     365       -10       0.0       0.3      46.7      9.29
   03/09/2020 05:50      41.9      41.2       91     39.2      0.00      7.89      61.3     0.47      1019.4     0.3       S   187   1.0       S     188     366       -11       0.0       0.3      46.7      9.29
   03/09/2020 05:40      41.5      41.1       91     38.9      0.00      7.89      61.3     0.47      1019.4     0.0     SSE   160   0.7     SSE     147     367       -12       0.0       0.3      46.8      9.29
   03/09/2020 05:30      41.4      40.9       91     38.8      0.00      7.89      61.2     0.47      1019.4     0.0     SSE   151   0.5     SSE     151     366       -14       0.0       0.3      46.9      9.29
   03/09/2020 05:20      41.4      40.9       91     38.8      0.00      7.89      61.2     0.47      1019.2     0.7       S   189   1.7     WSW     246     366       -15       0.3       0.3      47.0      9.29
   03/09/2020 05:10      41.4      41.0       91     38.8      0.00      7.89      61.3     0.47      1019.0     0.0       N     0   0.0     SSE     150     365       -16       0.0       0.3      47.2      9.29
   03/09/2020 05:00      41.5      41.1       91     38.9      0.00      7.89      61.6     0.47      1019.1     0.1     SSE   153   0.6     SSE     152     364       -18       0.0       0.3      47.5      9.29
   03/09/2020 04:50      41.4      40.3       91     38.4      0.00      7.89      61.6     0.47      1019.1     0.5       S   191   1.3       S     184     361       -18       0.0       0.3      47.7      9.29
   03/09/2020 04:40      41.0      40.4       91     38.3      0.00      7.89      61.5     0.47      1019.0     0.0     SSE   165   0.0     SSE     165     358       -18       0.0       0.3      47.8      9.29
   03/09/2020 04:30      41.4      41.0       91     38.8      0.00      7.89      61.3     0.47      1019.1     0.4     SSE   166   1.8     SSW     204     358       -18       0.0       0.3      47.6      9.29
   03/09/2020 04:20      41.0      40.4       91     38.3      0.00      7.89      61.2     0.47      1019.1     0.4     SSW   204   1.8     SSW     203     354       -17       0.2       0.3      47.8      9.29
   03/09/2020 04:10      40.8      40.4       91     38.0      0.00      7.89      61.4     0.47      1019.2     0.0     SSE   149   0.7     SSE     149     352       -17       0.0       0.2      47.9      9.29
   03/09/2020 04:00      41.2      40.4       91     38.2      0.00      7.89      61.8     0.47      1019.3     0.3     SSE   168   1.1       S     181     349       -19       0.0       0.2      48.4      9.29
   03/09/2020 03:50      41.4      40.6       90     38.2      0.00      7.89      61.8     0.47      1019.3     0.1      SE   146   0.9     SSE     150     346       -22       0.0       0.2      48.6      9.29
   03/09/2020 03:40      41.8      41.2       90     38.9      0.00      7.89      61.8     0.47      1019.3     0.0       N     0   0.0     SSE     158     344       -23       0.0       0.2      48.8      9.29
   03/09/2020 03:30      41.7      41.4       90     38.9      0.00      7.89      61.9     0.47      1019.4     0.0     SSE   158   0.7     SSE     158     339       -24       0.0       0.2      49.0      9.29
   03/09/2020 03:20      41.9      41.0       90     38.9      0.00      7.89      61.9     0.47      1019.5     0.3       S   181   1.0       S     169     334       -25       0.0       0.2      49.2      9.29
   03/09/2020 03:10      41.5      40.7       89     38.2      0.00      7.89      61.9     0.47      1019.5     0.3     SSE   163   0.8       S     170     330       -27       0.0       0.2      49.4      9.29
   03/09/2020 03:00      41.6      41.1       89     38.3      0.00      7.89      61.3     0.47      1019.6     0.1       S   172   0.9     SSE     160     326       -27       0.0       0.2      49.0      9.29
   03/09/2020 02:50      42.2      41.2       88     38.4      0.00      7.89      61.3     0.47      1019.7     0.4     SSE   152   0.9      SE     140     321       -28       0.0       0.2      49.3      9.29
   03/09/2020 02:40      42.3      42.0       89     39.0      0.00      7.89      61.2     0.47      1019.8     1.3     SSW   195   2.5       S     174     318       -28       0.5       0.2      49.4      9.29
   03/09/2020 02:30      42.4      41.8       88     38.8      0.00      7.89      61.4     0.47      1019.7     0.3     SSW   209   1.0     SSW     209     314       -32       0.0       0.1      49.7      9.29
   03/09/2020 02:20      42.6      42.2       88     39.2      0.00      7.89      61.3     0.47      1019.8     0.0     SSW   201   0.5     SSW     207     311       -32       0.0       0.1      50.0      9.29
   03/09/2020 02:10      42.4      41.9       88     38.9      0.00      7.89      61.5     0.47      1019.7     0.1      SW   219   0.9      SW     224     307       -33       0.2       0.1      50.2      9.29
   03/09/2020 02:00      42.8      42.1       87     39.0      0.00      7.89      62.3     0.47      1019.7     0.4     SSE   150   1.4     SSE     147     305       -30       0.0       0.1      50.9      9.29
   03/09/2020 01:50      43.0      42.6       87     39.2      0.00      7.89      62.3     0.47      1019.7     0.7       S   177   1.4       S     186     302       -32       0.1       0.1      51.2      9.29
   03/09/2020 01:40      43.4      42.8       86     39.1      0.00      7.89      62.3     0.47      1019.7     0.3     SSE   157   0.8     SSE     163     299       -37       0.0       0.0      51.4      9.30
   03/09/2020 01:30      43.7      43.1       86     39.4      0.00      7.89      62.3     0.47      1019.8     0.8     SSW   192   1.5       S     187     295       -39       0.0       0.0      51.6      9.30
   03/09/2020 01:20      43.7      43.1       85     39.2      0.00      7.89      62.3     0.47      1019.7     0.1       E    86   0.8      NE      35     293       -44       0.0       0.0      51.8      9.30
   03/09/2020 01:10      43.9      43.4       86     39.7      0.00      7.89      62.4     0.47      1019.6     0.6     SSE   147   1.2      SE     141     290       -45       0.0       0.0      51.9      9.30
   03/09/2020 01:00      44.2      43.5       86     39.8      0.00      7.89      61.7     0.47      1019.6     0.5     SSE   162   1.5       S     183     286       -47       0.0       0.0      51.4      9.30
   03/09/2020 00:50      44.3      43.8       86     40.0      0.00      7.89      61.7     0.47      1019.5     0.8     SSE   150   1.4     SSE     148     284       -49       0.2       0.0      51.7      9.30
   03/09/2020 00:40      44.4      44.0       85     40.0      0.00      7.89      61.7     0.47      1019.5     0.5     SSE   162   1.4       S     187     281       -51       0.0       0.0      52.0      9.30
   03/09/2020 00:30      45.3      44.4       84     40.3      0.00      7.89      61.8     0.47      1019.4     0.4     SSE   155   1.0     SSE     148     278       -54       0.0       0.0      52.1      9.30
   03/09/2020 00:20      45.6      45.2       84     40.8      0.00      7.89      61.9     0.47      1019.5     0.3       S   178   1.1       S     183     273       -56       0.0       0.0      52.4      9.30
   03/09/2020 00:10      45.6      45.0       83     40.3      0.00      7.89      61.8     0.47      1019.7     0.0     SSE   153   0.6     SSE     153     269       -60       0.0       0.0      52.6      9.30
   03/09/2020 00:00      46.1      45.7       82     40.7      0.00      7.89      62.6     0.47      1019.8     0.5     SSE   158   1.2     SSE     168     269       -61       0.1      21.1      53.8      9.30
   03/08/2020 23:50      46.3      46.0       81     40.7      0.00      7.89      62.9     0.47      1019.8     0.9       S   183   1.7     SSW     193     271       -60       0.2      21.1      54.1      9.30
   03/08/2020 23:40      46.5      46.1       80     40.6      0.00      7.89      63.0     0.47      1019.7     0.2       S   184   1.4       S     182     271       -60       0.0      21.1      54.5      9.30
   03/08/2020 23:30      46.6      45.9       80     40.5      0.00      7.89      63.0     0.47      1019.6     1.0     SSW   200   2.0      SW     214     271       -56       0.3      21.0      54.6      9.30
   03/08/2020 23:20      46.9      46.1       80     40.8      0.00      7.89      62.8     0.47      1019.6     0.3     SSE   165   1.2       S     180     271       -54       0.0      21.0      54.6      9.30
   03/08/2020 23:10      46.9      46.4       80     40.8      0.00      7.89      62.4     0.47      1019.6     0.5     SSE   165   1.1       S     182     271       -52       0.0      21.0      54.5      9.30
   03/08/2020 23:00      46.9      46.4       80     40.8      0.00      7.89      62.3     0.47      1019.6     0.3     SSE   165   1.5     SSE     147     271       -50       0.0      21.0      54.5      9.30
   03/08/2020 22:50      46.9      46.4       80     40.8      0.00      7.89      62.3     0.47      1019.6     0.2     SSE   161   1.0     SSE     157     271       -53       0.0      21.0      54.7      9.30
   03/08/2020 22:40      47.1      46.8       79     40.9      0.00      7.89      62.3     0.47      1019.6     0.5     SSE   151   1.8      SE     139     271       -57       0.3      21.0      54.9      9.30
   03/08/2020 22:30      47.3      46.9       78     40.7      0.00      7.89      62.3     0.47      1019.4     0.3     SSE   167   1.6      SE     146     271       -59       0.0      20.9      55.2      9.30
   03/08/2020 22:20      47.6      47.2       77     40.5      0.00      7.89      62.3     0.47      1019.2     0.3     SSE   165   0.9      SE     142     270       -60       0.0      20.9      55.5      9.30
   03/08/2020 22:10      48.0      47.5       76     40.6      0.00      7.89      62.2     0.47      1019.0     0.6       S   179   1.6       S     179     270       -59       0.3      20.9      55.7      9.30
   03/08/2020 22:00      48.4      47.8       75     40.4      0.00      7.89      62.6     0.47      1019.1     1.5       S   186   2.3     SSW     204     270       -56       0.4      20.9      56.3      9.30
   03/08/2020 21:50      49.0      48.0       71     39.7      0.00      7.89      62.6     0.47      1018.8     0.4     SSE   153   1.9     SSW     212     269       -57       0.1      20.8      56.5      9.30
   03/08/2020 21:40      49.4      49.0       71     40.2      0.00      7.89      62.6     0.47      1018.8     1.3      SW   222   2.3      SW     228     269       -53       0.0      20.8      56.6      9.31
   03/08/2020 21:30      49.5      49.2       71     40.3      0.00      7.89      62.7     0.47      1018.8     0.7     SSW   193   1.6     SSW     203     269       -54       0.0      20.8      56.9      9.31
   03/08/2020 21:20      50.6      49.3       68     39.8      0.00      7.89      62.7     0.47      1018.7     0.4     ESE   107   1.1       S     186     269       -56       0.1      20.8      57.1      9.31
   03/08/2020 21:10      51.1      50.5       66     39.9      0.00      7.89      62.7     0.47      1018.6     0.8     WSW   256   2.6     SSW     212     269       -54       0.3      20.7      57.3      9.31
   03/08/2020 21:00      50.8      49.8       68     40.1      0.00      7.89      62.7     0.47      1018.7     2.7      SW   229   4.1     WSW     249     269       -54       1.4      20.7      57.9      9.31
   03/08/2020 20:50      50.0      49.8       68     39.6      0.00      7.89      62.8     0.47      1018.6     1.3     SSW   192   3.3      SW     221     269       -55       0.3      20.5      58.2      9.31
   03/08/2020 20:40      50.6      49.6       67     39.3      0.00      7.89      62.8     0.47      1018.5     1.4      SW   221   2.8      SW     222     268       -54       0.2      20.4      58.5      9.31
   03/08/2020 20:30      50.6      50.2       66     39.5      0.00      7.89      62.6     0.47      1018.4     0.5     SSE   166   2.4       S     190     268       -58       0.4      20.4      58.6      9.31
   03/08/2020 20:20      50.7      50.3       65     39.3      0.00      7.89      62.7     0.47      1018.2     0.4     SSW   205   1.2      SW     216     268       -61       0.0      20.3      58.9      9.31
   03/08/2020 20:10      51.4      50.5       63     39.0      0.00      7.89      62.8     0.47      1018.1     0.1     SSE   166   1.1     SSW     212     268       -62       0.0      20.3      59.3      9.31
   03/08/2020 20:00      52.8      51.6       61     39.0      0.00      7.89      62.0     0.47      1017.9     0.2     SSE   147   0.9     SSE     156     268       -70       0.0      20.3      58.7      9.31
   03/08/2020 19:50      52.9      52.5       60     39.1      0.00      7.89      62.0     0.47      1017.9     1.5     SSW   198   2.8     SSW     207     268       -74       0.7      20.3      59.0      9.32
   03/08/2020 19:40      53.2      52.7       58     38.7      0.00      7.89      62.0     0.47      1017.8     2.4       S   179   4.7     SSW     210     268       -76       1.2      20.2      59.2      9.32
   03/08/2020 19:30      53.6      53.0       57     38.3      0.00      7.89      62.0     0.47      1017.6     2.6       S   183   4.2       S     173     268       -75       1.5      20.0      59.6      9.32
   03/08/2020 19:20      53.9      53.5       55     38.0      0.00      7.89      62.0     0.47      1017.5     2.4     SSE   164   4.1     ESE     120     267       -74       1.1      19.7      59.9      9.32
   03/08/2020 19:10      54.3      53.8       53     37.1      0.00      7.89      61.9     0.47      1017.4     2.4       S   169   4.9     SSE     162     267       -70       1.5      19.5      60.2      9.32
   03/08/2020 19:00      55.0      54.3       50     36.3      0.00      7.89      62.2     0.47      1017.3     2.5       S   175   4.6       S     174     267       -70       1.6      19.3      60.7      9.32
   03/08/2020 18:50      55.4      54.8       48     36.0      0.00      7.89      62.1     0.47      1017.1     2.6       S   177   5.3     SSW     208     267       -68       1.6      19.0      61.1      9.32
   03/08/2020 18:40      55.8      55.4       47     35.7      0.00      7.89      62.1     0.47      1017.2     2.8       S   181   4.9       S     189     267       -64       1.8      18.8      61.4      9.33
   03/08/2020 18:30      56.8      55.8       45     35.4      0.00      7.89      62.1     0.47      1017.2     3.3       S   185   6.8     SSW     196     267       -58       2.1      18.5      61.8      9.33
   03/08/2020 18:20      57.6      56.5       43     34.8      0.00      7.89      61.9     0.47      1017.1     3.7       S   178   6.2       S     178     266       -55       2.2      18.1      62.2      9.33
   03/08/2020 18:10      58.3      57.5       41     34.1      0.00      7.89      62.0     0.47      1017.0     3.8     SSE   161   7.3     SSE     151     266       -31       1.9      17.8      62.5      9.33
   03/08/2020 18:00      58.8      58.3       39     34.0      0.00      7.89      62.5     0.47      1016.9     3.8       S   183   7.3       S     175     266         9       2.5      17.4      63.1      9.34
   03/08/2020 17:50      59.4      58.5       38     33.7      0.00      7.89      62.5     0.47      1016.8     4.5     SSE   162   7.7       S     177     266        40       2.7      17.0      63.3      9.34
   03/08/2020 17:40      59.8      59.3       38     33.7      0.00      7.89      62.4     0.47      1016.6     4.1     SSE   160   6.7       S     170     266        62       2.3      16.6      63.4      9.34
   03/08/2020 17:30      59.9      59.4       37     33.5      0.00      7.89      62.3     0.47      1016.6     4.2       S   170   7.0      SE     142     266        65       2.6      16.2      63.4      9.34
   03/08/2020 17:20      60.2      59.7       36     33.3      0.00      7.89      62.2     0.47      1016.5     4.2     SSE   162   7.9     SSW     199     266        96       2.5      15.7      63.6      9.34
   03/08/2020 17:10      60.3      59.9       35     32.3      0.00      7.89      62.0     0.47      1016.6     4.4     SSE   159   7.3      SE     138     266       127       2.4      15.3      63.4      9.34
   03/08/2020 17:00      60.6      59.9       36     33.2      0.00      7.89      62.0     0.47      1016.7     4.9       S   181   9.2     SSW     211     266       173       3.6      14.9      63.0      9.35
   03/08/2020 16:50      60.5      59.9       35     32.6      0.00      7.89      62.1     0.47      1016.7     5.3       S   172   8.6       S     181     266       204       3.1      14.3      62.9      9.35
   03/08/2020 16:40      60.8      60.2       35     32.6      0.00      7.89      62.0     0.47      1016.6     4.9     SSE   167   8.8     SSW     195     266       235       2.9      13.8      62.8      9.35
   03/08/2020 16:30      61.1      60.3       36     33.8      0.00      7.89      62.6     0.47      1016.5     5.9     SSE   166  10.2       S     172     266       250       3.2      13.3      63.1      9.35
   03/08/2020 16:20      61.4      60.8       36     34.2      0.00      7.89      62.5     0.47      1016.5     5.5       S   169   9.8       S     181     266       272       3.4      12.8      62.9      9.35
   03/08/2020 16:10      61.1      60.5       37     34.7      0.00      7.89      62.3     0.47      1016.4     6.0       S   171  10.8       S     175     266       314       3.4      12.2      62.5      9.35
   03/08/2020 16:00      60.8      60.3       38     34.5      0.00      7.89      61.6     0.47      1016.2     5.2     SSE   155   9.6       S     174     266       197       3.0      11.6      62.0      9.35
   03/08/2020 15:50      61.1      60.4       37     34.2      0.00      7.89      61.5     0.47      1016.1     3.6     SSE   164   6.9       S     177     266       129       2.0      11.1      61.8      9.36
   03/08/2020 15:40      61.3      60.6       37     34.3      0.00      7.89      61.4     0.47      1016.1     3.7       S   179   6.8     SSE     161     266        93       2.5      10.8      61.7      9.36
   03/08/2020 15:30      62.3      61.3       36     34.6      0.00      7.89      61.3     0.47      1016.0     5.0     SSW   191  10.3      SW     231     266       249       3.2      10.4      61.4      9.36
   03/08/2020 15:20      62.5      61.3       36     34.7      0.00      7.89      61.3     0.47      1015.9     3.0     SSW   211   7.0      SW     235     266       347       2.1       9.8      61.0      9.36
   03/08/2020 15:10      62.6      61.5       36     35.0      0.00      7.89      61.3     0.47      1016.0     5.2     SSW   200   9.6     SSW     196     266       409       3.5       9.5      60.5      9.36
   03/08/2020 15:00      62.5      61.4       36     34.7      0.00      7.89      62.4     0.47      1016.1     2.6     SSW   208   6.7     WSW     252     266       377       1.8       8.9      60.8      9.36
   03/08/2020 14:50      61.6      60.6       37     34.3      0.00      7.89      62.4     0.47      1016.1     2.7     ENE    78   7.2       E      92     266       223       1.3       8.6      60.4      9.36
   03/08/2020 14:40      62.9      61.1       36     34.6      0.00      7.89      62.5     0.47      1016.2     3.8       S   181  10.4      SW     221     266       264       2.5       8.4      59.8      9.37
   03/08/2020 14:30      62.7      61.3       36     34.9      0.00      7.89      62.5     0.47      1016.3     2.5     ESE   102   6.6      SE     132     266       452       1.7       8.0      59.4      9.37
   03/08/2020 14:20      63.3      61.6       37     35.6      0.00      7.89      62.4     0.47      1016.5     4.1     SSE   152   8.9      SE     133     266       408       2.3       7.7      58.8      9.37
   03/08/2020 14:10      63.1      61.5       38     36.6      0.00      7.89      62.3     0.47      1016.6     3.0      SE   144   7.1      SW     227     266       598       1.8       7.3      58.1      9.37
   03/08/2020 14:00      61.6      60.2       41     37.4      0.00      7.89      61.6     0.47      1016.8     4.4     SSW   201   8.3      SW     215     266       625       3.0       7.0      57.0      9.37
   03/08/2020 13:50      60.2      58.7       44     37.6      0.00      7.89      61.8     0.47      1017.0     1.5     SSE   161   5.7       S     185     267       254       1.1       6.5      56.6      9.37
   03/08/2020 13:40      59.1      58.5       46     37.8      0.00      7.89      61.9     0.47      1017.2     1.1      SW   224   2.7       S     189     267       109       0.7       6.3      56.5      9.37
   03/08/2020 13:30      59.1      58.5       46     38.1      0.00      7.89      61.8     0.47      1017.4     2.8      SW   230   5.2     WSW     249     267       109       1.8       6.2      56.3      9.37
   03/08/2020 13:20      59.8      58.8       46     38.7      0.00      7.89      61.7     0.47      1017.4     1.6     WSW   238   3.6       S     190     267       109       1.0       5.9      56.2      9.37
   03/08/2020 13:10      59.7      59.3       48     39.7      0.00      7.89      61.8     0.47      1017.4     0.2     NNW   334   1.6       N     355     267       120       0.6       5.8      56.1      9.37
   03/08/2020 13:00      59.4      58.0       49     39.5      0.00      7.89      61.4     0.47      1017.5     0.4       N   355   1.3       N       8     267       136       0.1       5.7      55.8      9.37
   03/08/2020 12:50      58.2      57.9       50     39.4      0.00      7.89      61.5     0.47      1017.6     1.8     WSW   250   4.3       W     278     267       130       1.2       5.6      55.6      9.37
   03/08/2020 12:40      58.5      57.6       51     39.7      0.00      7.89      61.5     0.47      1017.7     2.3       W   271   4.7     WSW     258     267       124       1.6       5.4      55.4      9.37
   03/08/2020 12:30      58.5      57.6       51     39.9      0.00      7.89      61.5     0.47      1017.7     0.7      SE   142   3.2     WSW     240     268       107       0.5       5.2      55.1      9.37
   03/08/2020 12:20      58.0      57.5       51     39.7      0.00      7.89      61.4     0.47      1017.8     1.0     SSW   208   2.1     SSW     203     268        80       0.6       5.1      55.0      9.37
   03/08/2020 12:10      57.7      57.4       51     39.4      0.00      7.89      61.6     0.47      1017.9     1.2      NE    49   3.8       E      91     268        70       0.5       5.0      54.8      9.37
   03/08/2020 12:00      57.9      57.5       51     39.9      0.00      7.89      62.1     0.47      1017.9     1.4     ESE   109   4.2       E      89     268        96       0.8       4.9      55.1      9.37
   03/08/2020 11:50      57.9      57.4       51     39.9      0.00      7.89      62.2     0.47      1017.8     3.1      SE   144   7.1     SSW     208     268       139       2.0       4.7      54.8      9.37
   03/08/2020 11:40      58.7      57.7       51     40.4      0.00      7.89      62.3     0.47      1017.7     1.6       W   272   5.0     WSW     253     267       101       1.3       4.4      54.5      9.37
   03/08/2020 11:30      58.6      57.5       51     40.1      0.00      7.89      62.3     0.47      1017.6     0.5      NE    36   3.0     NNW     347     267        95       0.2       4.2      54.3      9.37
   03/08/2020 11:20      57.6      57.0       55     41.3      0.00      7.89      62.2     0.47      1017.6     1.8     NNW   334   3.5       W     275     267       144       0.9       4.2      54.1      9.37
   03/08/2020 11:10      57.5      56.7       55     41.3      0.00      7.89      62.4     0.47      1017.6     1.4     WNW   291   3.4     WSW     252     267       137       1.0       4.0      53.7      9.37
   03/08/2020 11:00      57.7      56.7       56     41.6      0.00      7.89      61.6     0.47      1017.6     1.5      SW   229   3.4       W     262     267       123       1.1       3.8      52.9      9.37
   03/08/2020 10:50      58.3      57.2       55     41.8      0.00      7.89      61.7     0.47      1017.6     2.5       W   264   4.7       W     269     266       347       1.8       3.7      52.4      9.37
   03/08/2020 10:40      58.0      57.3       55     41.6      0.00      7.89      61.8     0.47      1017.6     2.1       W   278   4.6     WNW     286     266       373       1.6       3.4      51.9      9.37
   03/08/2020 10:30      58.5      57.5       54     41.7      0.00      7.89      61.9     0.47      1017.6     1.4      SE   136   4.2      SE     140     267       291       0.9       3.1      51.5      9.37
   03/08/2020 10:20      58.0      56.8       57     42.4      0.00      7.89      61.9     0.47      1017.5     1.1     NNE    18   4.1     NNW     335     266       354       0.4       2.9      50.9      9.37
   03/08/2020 10:10      58.0      56.8       59     43.0      0.00      7.89      62.0     0.47      1017.5     1.4     ESE   114   4.1     ESE     116     267       362       0.9       2.9      50.6      9.37
   03/08/2020 10:00      57.1      56.2       60     43.1      0.00      7.89      62.1     0.47      1017.4     1.1      NE    48   3.6     ENE      67     267       328       0.5       2.7      50.0      9.37
   03/08/2020 09:50      57.0      55.9       61     43.1      0.00      7.89      62.2     0.47      1017.3     1.3      NE    44   3.6       E      83     268       306       0.6       2.6      49.7      9.37
   03/08/2020 09:40      56.1      55.6       62     43.1      0.00      7.89      62.1     0.47      1017.4     1.0       N   353   2.5      NE      39     268       277       0.5       2.5      49.4      9.37
   03/08/2020 09:30      55.9      54.5       64     43.1      0.00      7.89      62.2     0.47      1017.2     1.0       W   270   2.5     WSW     250     274       317       0.8       2.4      49.2      9.37
   03/08/2020 09:20      54.6      53.7       66     43.0      0.00      7.89      62.3     0.47      1017.1     0.8     NNW   339   2.0     WNW     285     288       299       0.3       2.3      48.9      9.37
   03/08/2020 09:10      54.2      53.6       67     43.3      0.00      7.89      62.4     0.47      1017.0     1.5       W   267   3.2       W     280     327       276       0.9       2.3      48.7      9.37
   03/08/2020 09:00      53.3      52.3       70     43.2      0.00      7.89      61.9     0.47      1016.8     0.9     WSW   249   3.0     WNW     285     342       246       0.6       2.1      48.2      9.37
   03/08/2020 08:50      52.8      51.8       74     44.2      0.00      7.89      61.9     0.47      1016.8     1.3      SW   236   2.8      SW     225     354       219       0.6       2.0      48.0      9.37
   03/08/2020 08:40      51.8      50.5       80     45.1      0.00      7.89      62.0     0.47      1016.7     0.6     SSW   210   1.5       S     185     363       182       0.1       1.9      47.9      9.37
   03/08/2020 08:30      51.6      50.4       86     46.9      0.00      7.89      62.1     0.47      1016.6     1.3     SSW   206   3.9       S     189     373       141       0.7       1.9      47.8      9.37
   03/08/2020 08:20      50.3      47.9       91     46.2      0.00      7.89      62.1     0.47      1016.6     0.0       N     0   0.0     ENE      57     382        93       0.0       1.8      47.7      9.37
   03/08/2020 08:10      47.9      45.5       93     44.5      0.00      7.89      62.1     0.47      1016.5     0.0       N     0   0.0     SSE     157     383        40       0.0       1.8      47.7      9.37
   03/08/2020 08:00      45.6      44.0       93     43.0      0.00      7.89      62.6     0.47      1016.4     0.0       S   177   0.8       S     178     384        16       0.0       1.8      47.9      9.37
   03/08/2020 07:50      44.0      42.7       94     41.5      0.00      7.89      62.6     0.47      1016.2     0.0       S   177   1.0       S     177     382         6       0.0       1.8      48.0      9.37
   03/08/2020 07:40      43.3      42.8       94     41.3      0.00      7.89      62.7     0.47      1016.1     0.4       E    93   1.0       E      89     393         3       0.0       1.8      48.1      9.37
   03/08/2020 07:30      43.3      42.1       94     41.0      0.00      7.89      62.7     0.47      1016.1     0.5     SSW   206   1.5     SSW     208     407         2       0.0       1.8      48.1      9.37
   03/08/2020 07:20      42.3      42.0       93     40.4      0.00      7.89      62.8     0.47      1016.1     0.3     SSE   154   0.8     SSE     164     408        -5       0.0       1.8      48.3      9.37
   03/08/2020 07:10      42.5      42.0       93     40.4      0.00      7.89      62.8     0.47      1016.1     0.0     SSE   163   1.0       S     175     408        -9       0.0       1.8      48.4      9.37
   03/08/2020 07:00      42.8      42.5       93     40.8      0.00      7.89      63.3     0.47      1016.1     0.3     SSE   159   1.0       S     171     407       -11       0.0       1.8      49.2      9.37
   03/08/2020 06:50      42.8      42.2       93     40.6      0.00      7.89      63.3     0.47      1016.0     0.2     SSW   197   1.7     SSW     208     404       -11       0.0       1.8      49.4      9.37
   03/08/2020 06:40      42.9      42.6       93     40.9      0.00      7.89      63.3     0.47      1016.0     0.0     ESE   121   0.8      SE     131     402       -12       0.0       1.8      49.6      9.37
   03/08/2020 06:30      44.0      42.7       93     41.5      0.00      7.89      63.4     0.47      1015.8     0.5       S   171   1.7     SSW     193     398       -11       0.0       1.8      49.8      9.37
   03/08/2020 06:20      44.2      43.6       93     42.1      0.00      7.89      63.4     0.47      1015.7     1.5     SSW   203   2.1     SSW     197     394       -12       0.4       1.8      50.0      9.37
   03/08/2020 06:10      44.1      42.8       93     41.6      0.00      7.89      63.5     0.47      1015.7     1.0     SSW   199   1.6      SW     227     392       -13       0.1       1.7      50.2      9.37
   03/08/2020 06:00      43.5      42.3       92     40.7      0.00      7.89      63.1     0.47      1015.8     0.4      SE   143   1.1      SE     140     390       -14       0.1       1.7      50.1      9.37
   03/08/2020 05:50      43.8      43.4       93     41.6      0.00      7.89      63.1     0.47      1015.6     0.0      SE   144   0.2      SE     144     388       -15       0.0       1.7      50.3      9.37
   03/08/2020 05:40      44.2      43.5       92     41.8      0.00      7.89      63.1     0.47      1015.5     0.3      SE   144   1.1      SE     145     384       -15       0.0       1.7      50.5      9.37
   03/08/2020 05:30      44.6      44.0       92     42.3      0.00      7.89      63.2     0.47      1015.5     0.1     WSW   246   0.8     WSW     252     380       -15       0.0       1.7      50.7      9.37
   03/08/2020 05:20      44.6      44.2       92     42.3      0.00      7.89      63.2     0.47      1015.4     0.1     SSE   157   0.8     SSE     163     378       -16       0.0       1.7      50.9      9.38
   03/08/2020 05:10      44.6      44.2       92     42.2      0.00      7.89      63.2     0.47      1015.4     0.2     SSE   162   0.9       S     177     376       -16       0.0       1.7      51.0      9.38
   03/08/2020 05:00      45.3      44.5       92     42.6      0.00      7.89      63.4     0.48      1015.5     0.8     SSE   165   1.5       S     179     372       -15       0.7       1.7      51.2      9.38
   03/08/2020 04:50      45.5      45.1       92     43.1      0.00      7.89      63.4     0.48      1015.5     1.0     SSE   164   1.6     SSE     165     371       -15       0.7       1.5      51.4      9.38
   03/08/2020 04:40      45.7      45.2       92     43.1      0.00      7.89      63.5     0.48      1015.5     1.2       S   172   2.1     SSW     199     369       -15       0.7       1.4      51.7      9.38
   03/08/2020 04:30      46.1      45.5       91     43.3      0.00      7.89      63.5     0.48      1015.5     0.8       S   179   1.5       S     181     364       -15       0.3       1.3      51.9      9.38
   03/08/2020 04:20      46.5      45.5       91     43.7      0.00      7.89      63.5     0.48      1015.5     0.8       S   188   1.8     SSW     198     361       -14       0.5       1.2      52.0      9.38
   03/08/2020 04:10      46.6      46.4       92     44.3      0.00      7.89      63.4     0.48      1015.5     1.7     SSW   197   2.3     SSW     193     357       -14       1.2       1.2      52.2      9.38
   03/08/2020 04:00      46.5      46.1       92     44.0      0.00      7.89      63.4     0.48      1015.5     1.2     SSW   198   1.8     SSW     194     350       -15       0.3       1.0      52.5      9.38
   03/08/2020 03:50      46.3      45.9       92     43.8      0.00      7.89      63.3     0.48      1015.6     1.1       S   187   1.5       S     170     345       -15       0.4       0.9      52.6      9.38
   03/08/2020 03:40      46.7      46.1       91     44.1      0.00      7.89      63.4     0.48      1015.7     1.1       S   177   1.6       S     183     340       -16       0.7       0.8      52.8      9.38
   03/08/2020 03:30      46.6      46.3       91     44.0      0.00      7.89      63.2     0.48      1015.8     0.4     SSE   163   1.1     SSE     166     335       -14       0.3       0.7      53.1      9.38
   03/08/2020 03:20      46.6      46.3       91     43.9      0.00      7.89      63.3     0.48      1015.9     0.0     SSE   167   0.9       S     174     331       -13       0.0       0.7      53.3      9.38
   03/08/2020 03:10      47.1      46.4       90     43.9      0.00      7.89      63.3     0.48      1016.0     0.6     SSE   162   1.1       S     174     328       -16       0.1       0.7      53.4      9.38
   03/08/2020 02:00      47.5      46.9       90     44.4      0.00      7.89      63.4     0.48      1016.0     1.3     SSW   204   2.2      SW     232     324       -17       0.6       0.7      53.6      9.38
   03/08/2020 01:50      47.6      47.0       89     44.3      0.00      7.89      63.4     0.48      1016.0     1.8      SW   230   2.3     WSW     237     320       -18       0.4       0.6      53.9      9.38
   03/08/2020 01:40      48.1      47.3       88     44.1      0.00      7.89      63.4     0.48      1016.1     0.4       S   188   1.5     SSW     196     315       -20       0.0       0.5      54.0      9.38
   03/08/2020 01:30      48.9      47.8       87     44.7      0.00      7.89      63.4     0.48      1016.0     0.0       S   174   0.6       S     184     309       -21       0.0       0.5      54.2      9.38
   03/08/2020 01:20      49.5      48.8       87     45.4      0.00      7.89      63.4     0.48      1016.0     0.5       S   181   1.2       S     190     304       -23       0.0       0.5      54.5      9.38
   03/08/2020 01:10      49.8      49.4       87     45.8      0.00      7.89      63.5     0.48      1016.1     0.9       S   184   1.7      SW     215     298       -21       0.1       0.5      54.7      9.38
   03/08/2020 01:00      49.6      49.1       87     45.7      0.00      7.89      63.5     0.48      1016.1     0.9       S   185   1.8       S     177     297       -16       0.0       0.5      54.7      9.38
   03/08/2020 00:50      49.3      49.0       86     45.3      0.00      7.89      63.5     0.48      1016.2     0.3     SSW   192   1.3       S     181     288       -13       0.0       0.5      54.8      9.38
   03/08/2020 00:40      49.9      49.2       85     45.2      0.00      7.89      63.5     0.48      1016.2     1.2     SSW   193   1.9     SSW     200     290       -20       0.9       0.5      55.0      9.38
   03/08/2020 00:30      50.5      49.8       84     45.6      0.00      7.89      63.5     0.48      1016.2     1.3     SSW   207   1.7     SSW     205     292       -25       0.8       0.3      55.2      9.38
   03/08/2020 00:20      51.1      50.3       83     45.6      0.00      7.89      63.5     0.48      1016.1     1.3     SSW   208   1.9      SW     233     293       -24       0.5       0.2      55.4      9.38
   03/08/2020 00:10      51.5      51.0       80     45.3      0.00      7.89      63.6     0.48      1016.1     1.4      SW   215   2.1     WSW     243     298       -23       0.7       0.1      55.7      9.38
   03/08/2020 00:00      51.9      51.4       79     45.3      0.00      7.89      63.6     0.48      1016.0     0.7      SW   225   2.1       W     260     272       -22       0.2      35.0      55.8      9.38
   03/07/2020 23:50      51.9      51.6       78     45.1      0.00      7.89      63.6     0.48      1016.1     0.8      SW   228   2.1     WSW     237     271       -18       0.2      34.9      55.8      9.38
   03/07/2020 23:40      51.9      51.6       76     44.5      0.00      7.89      63.6     0.48      1016.1     1.2     SSW   201   2.4     WSW     258     273       -17       0.4      34.9      55.8      9.38
   03/07/2020 23:30      51.9      51.3       77     44.5      0.00      7.89      63.7     0.48      1016.2     1.2     SSW   198   1.8     SSW     207     270       -15       0.1      34.8      56.0      9.38
   03/07/2020 23:20      51.6      51.3       77     44.4      0.00      7.89      63.6     0.48      1016.1     0.9     SSW   200   1.4     SSW     199     270       -19       0.0      34.8      56.0      9.38
   03/07/2020 23:10      52.0      51.4       76     44.2      0.00      7.89      63.8     0.48      1016.1     0.6     SSW   195   1.3     SSW     197     270       -26       0.0      34.8      56.1      9.38
   03/07/2020 23:00      52.4      51.8       74     44.1      0.00      7.89      63.7     0.48      1016.2     0.0       W   271   0.9       W     280     274       -30       0.0      34.8      56.3      9.38
   03/07/2020 22:50      52.4      52.1       74     44.1      0.00      7.89      63.7     0.48      1016.2     0.0      SW   223   0.8       W     260     270       -24       0.0      34.8      56.4      9.38
   03/07/2020 22:40      52.4      52.1       74     44.1      0.00      7.89      63.7     0.48      1016.3     0.2       W   276   1.5     WSW     252     270       -27       0.1      34.8      56.4      9.38
   03/07/2020 22:30      52.5      52.1       74     44.1      0.00      7.89      63.7     0.48      1016.3     1.5       W   268   3.1     WSW     257     270       -28       1.0      34.8      56.5      9.38
   03/07/2020 22:20      52.4      51.8       74     44.2      0.00      7.89      63.7     0.48      1016.3     0.8      NW   308   2.7     WSW     253     270       -20       0.3      34.6      56.6      9.38
   03/07/2020 22:10      52.0      51.5       75     43.9      0.00      7.89      63.7     0.48      1016.3     0.5       N   352   2.8       N       2     270       -17       0.0      34.5      56.6      9.38
   03/07/2020 22:00      52.1      51.6       74     43.7      0.00      7.89      64.4     0.48      1016.4     0.0     SSE   156   0.5     SSE     156     270       -26       0.0      34.5      57.2      9.38
   03/07/2020 21:50      52.5      52.1       73     43.8      0.00      7.89      64.7     0.48      1016.4     0.5     SSW   197   1.5     SSW     206     270       -31       0.0      34.5      57.6      9.38
   03/07/2020 21:40      52.5      52.2       72     43.8      0.00      7.89      64.8     0.48      1016.5     0.5      SW   231   1.7      SW     233     270       -26       0.0      34.5      57.7      9.38
   03/07/2020 21:30      52.6      52.3       72     43.6      0.00      7.89      64.7     0.48      1016.5     0.7      SW   220   2.0       S     190     270       -27       0.1      34.5      57.8      9.38
   03/07/2020 21:20      52.7      52.4       72     43.6      0.00      7.89      64.8     0.48      1016.4     0.7     WSW   242   1.8      SW     224     270       -30       0.0      34.5      58.0      9.38
   03/07/2020 21:10      52.8      52.4       72     43.7      0.00      7.89      64.8     0.48      1016.4     0.7      SW   215   1.9     WSW     248     270       -24       0.1      34.5      58.0      9.39
   03/07/2020 21:00      52.5      51.9       73     43.7      0.00      7.89      64.8     0.48      1016.4     0.8      SW   223   2.2     WSW     241     270       -22       0.2      34.5      58.1      9.39
   03/07/2020 20:50      52.0      51.2       73     43.3      0.00      7.89      64.8     0.48      1016.3     0.5     SSW   208   1.9     SSW     211     270       -18       0.0      34.4      58.2      9.39
   03/07/2020 20:40      51.4      51.0       72     42.5      0.00      7.89      64.8     0.48      1016.2     0.6     SSE   154   1.6      SE     141     270       -19       0.2      34.4      58.3      9.39
   03/07/2020 20:30      51.1      50.7       73     42.5      0.00      7.89      64.8     0.48      1016.2     0.5     SSE   160   1.4     SSE     154     270       -21       0.0      34.4      58.4      9.39
   03/07/2020 20:20      51.2      50.6       74     42.8      0.00      7.89      64.8     0.48      1016.2     1.0       S   187   2.4       S     185     270       -27       0.5      34.4      58.4      9.39
   03/07/2020 20:10      50.7      50.0       74     42.3      0.00      7.89      64.8     0.48      1016.1     0.8     SSW   212   2.7     SSW     206     270       -44       0.2      34.3      58.7      9.39
   03/07/2020 20:00      50.7      50.0       71     41.3      0.00      7.89      64.8     0.48      1016.1     0.7     SSE   167   1.2       S     175     270       -51       0.3      34.3      58.9      9.39
   03/07/2020 19:50      51.6      50.8       68     41.2      0.00      7.89      64.8     0.48      1016.0     0.1     SSE   159   1.0     SSE     149     270       -60       0.0      34.2      59.1      9.39
   03/07/2020 19:40      51.9      51.4       68     41.3      0.00      7.89      64.8     0.48      1016.0     1.2     SSW   207   1.9     SSW     201     269       -55       0.7      34.2      59.4      9.39
   03/07/2020 19:30      52.1      51.6       67     41.3      0.00      7.89      64.9     0.48      1016.0     1.6      SW   220   2.4     SSW     210     269       -58       0.9      34.1      59.5      9.39
   03/07/2020 19:20      52.1      51.7       67     41.4      0.00      7.89      64.8     0.48      1016.0     1.6       S   181   2.5       S     172     269       -63       0.9      33.9      59.8      9.39
   03/07/2020 19:10      52.6      52.0       67     41.7      0.00      7.89      64.8     0.48      1016.0     1.5       S   174   2.7       S     179     269       -61       0.6      33.8      60.1      9.39
   03/07/2020 19:00      52.6      52.3       66     41.4      0.00      7.89      64.6     0.48      1015.9     2.1       S   182   3.0     SSW     196     269       -58       1.1      33.7      60.1      9.39
   03/07/2020 18:50      53.2      52.6       63     40.6      0.00      7.89      64.5     0.48      1015.9     1.8       S   185   2.9       S     191     269       -61       1.1      33.5      60.3      9.39
   03/07/2020 18:40      53.3      52.9       63     40.7      0.00      7.89      64.4     0.48      1015.8     2.2     SSW   199   4.1     SSW     199     269       -69       1.2      33.3      60.6      9.40
   03/07/2020 18:30      53.5      53.0       63     40.8      0.00      7.89      64.4     0.48      1015.7     1.8       S   190   3.9     SSW     204     268       -72       1.0      33.1      60.9      9.40
   03/07/2020 18:20      53.8      53.3       62     41.0      0.00      7.89      64.5     0.48      1015.6     1.4     SSW   191   2.4     SSW     209     268       -73       0.7      33.0      61.2      9.40
   03/07/2020 18:10      54.2      53.6       62     41.0      0.00      7.89      64.4     0.48      1015.5     2.6     SSW   195   4.2     SSW     200     268       -71       1.5      32.9      61.5      9.40
   03/07/2020 18:00      54.7      54.1       60     41.0      0.00      7.89      64.4     0.48      1015.4     2.5     SSW   195   5.5      SW     221     268       -72       1.5      32.6      61.9      9.40
   03/07/2020 17:50      55.3      54.6       60     41.1      0.00      7.89      64.4     0.48      1015.3     4.2     SSW   200   7.8     SSW     212     268       -64       2.6      32.4      62.3      9.40
   03/07/2020 17:40      55.7      55.1       60     42.0      0.00      7.89      64.4     0.48      1015.3     4.0     SSW   200   6.3      SW     218     268       -46       2.5      31.9      62.6      9.40
   03/07/2020 17:30      56.3      55.7       59     42.0      0.00      7.89      64.4     0.48      1015.1     4.3     SSW   211   7.2     SSW     194     268       -30       2.7      31.5      63.0      9.41
   03/07/2020 17:20      56.6      56.3       59     42.3      0.00      7.89      64.4     0.48      1015.0     4.9      SW   215   8.6      SW     235     268       -23       3.1      31.1      63.3      9.41
   03/07/2020 17:10      56.7      56.4       58     42.2      0.00      7.89      64.4     0.48      1014.8     3.3     SSW   211   7.1      SW     230     268       -40       2.1      30.6      63.5      9.41
   03/07/2020 17:00      56.9      56.6       58     42.1      0.00      7.89      64.4     0.48      1014.8     4.0      SW   217   6.4     SSW     193     268       -34       2.5      30.2      63.8      9.41
   03/07/2020 16:50      57.4      56.6       57     41.9      0.00      7.89      64.3     0.48      1014.8     5.4      SW   217   9.3      SW     215     268       -28       3.4      29.8      64.3      9.41
   03/07/2020 16:40      57.7      57.2       55     41.7      0.00      7.89      64.3     0.48      1014.7     3.9     SSW   212   7.1       S     181     268         3       2.4      29.2      64.6      9.41
   03/07/2020 16:30      58.0      57.5       55     41.8      0.00      7.89      64.3     0.48      1014.7     5.1      SW   232   8.1     WNW     286     268        17       3.3      28.8      64.8      9.41
   03/07/2020 16:20      58.1      57.7       55     41.8      0.00      7.89      64.3     0.48      1014.7     5.2     WSW   240   7.9       W     264     268        27       3.3      28.3      65.1      9.42
   03/07/2020 16:10      58.8      57.9       53     41.5      0.00      7.89      64.0     0.48      1014.7     5.7     WSW   243   9.3       W     268     268        43       3.8      27.7      65.2      9.42
   03/07/2020 16:00      59.0      58.2       54     42.0      0.00      7.89      63.9     0.48      1014.7     4.2     WSW   240   7.5       W     259     267       115       2.6      27.1      65.1      9.42
   03/07/2020 15:50      59.4      58.4       53     41.7      0.00      7.89      63.8     0.48      1014.7     5.5      SW   236   9.2     WSW     245     267       159       3.7      26.7      65.0      9.42
   03/07/2020 15:40      58.7      58.3       54     42.0      0.00      7.89      63.8     0.48      1014.7     5.3     WSW   239   7.8       W     272     268       150       3.4      26.0      65.0      9.42
   03/07/2020 15:30      59.4      58.3       54     42.0      0.00      7.89      63.9     0.48      1014.7     5.9      SW   221  11.1      SW     216     268       176       3.9      25.5      65.2      9.42
   03/07/2020 15:20      59.3      58.4       54     42.2      0.00      7.89      64.1     0.48      1014.9     4.5      SW   228   9.1       W     262     268       138       3.1      24.8      65.5      9.43
   03/07/2020 15:10      59.0      58.5       55     42.5      0.00      7.89      64.1     0.48      1014.9     4.4     SSW   194   8.3     SSW     206     267       128       3.0      24.3      65.5      9.43
   03/07/2020 15:00      58.7      58.2       55     42.3      0.00      7.89      64.1     0.48      1014.8     4.7     SSW   195   8.8       S     175     267       167       3.1      23.8      65.6      9.43
   03/07/2020 14:50      58.8      58.1       54     42.1      0.00      7.89      64.0     0.48      1014.9     4.7       S   183  11.9       S     187     267       106       3.2      23.3      65.7      9.43
   03/07/2020 14:40      59.1      58.2       54     41.8      0.00      7.89      64.0     0.48      1014.9     6.1       S   170  11.0     SSW     202     267       157       3.6      22.8      65.8      9.43
   03/07/2020 14:30      60.8      59.1       51     42.0      0.00      7.89      64.0     0.48      1014.9     5.6       S   178  10.4     SSW     196     267       185       3.6      22.2      65.7      9.44
   03/07/2020 14:20      60.6      59.0       51     41.5      0.00      7.89      64.0     0.48      1014.9     5.1       S   176   9.6     SSW     206     266       352       3.0      21.6      65.5      9.44
   03/07/2020 14:10      60.0      59.1       51     41.2      0.00      7.89      64.0     0.48      1014.9     5.2     SSE   163   9.2      SE     141     267       131       3.1      21.1      65.5      9.44
   03/07/2020 14:00      61.9      60.1       49     41.8      0.00      7.89      64.0     0.48      1014.9     5.4     SSE   157  11.4     SSE     164     267       359       3.1      20.6      65.4      9.44
   03/07/2020 13:50      60.1      58.9       52     41.5      0.00      7.89      64.0     0.48      1015.0     4.7     SSE   160   9.2      SW     226     267       267       2.6      20.0      65.2      9.44
   03/07/2020 13:40      59.7      58.7       52     41.6      0.00      7.89      64.0     0.48      1015.1     5.5     SSE   159  10.5       E      93     267       203       3.3      19.6      65.1      9.44
   03/07/2020 13:30      60.7      59.6       51     41.8      0.00      7.89      64.0     0.48      1015.2     4.7       S   175   9.0       S     187     267       225       3.1      19.1      64.9      9.44
   03/07/2020 13:20      60.5      59.6       51     41.7      0.00      7.89      64.0     0.48      1015.2     4.0       S   182   8.0       S     189     267       291       2.8      18.5      64.7      9.44
   03/07/2020 13:10      59.9      58.6       51     41.3      0.00      7.89      63.9     0.48      1015.3     4.1     SSE   148   8.4     SSE     149     267       261       2.2      18.1      64.5      9.45
   03/07/2020 13:00      59.6      58.6       53     41.9      0.00      7.89      64.0     0.48      1015.5     5.1     SSE   153   8.7     ESE     113     267       214       2.9      17.7      64.3      9.45
   03/07/2020 12:50      60.5      59.3       52     42.0      0.00      7.89      64.0     0.48      1015.7     5.6       S   177   9.3      SE     146     267       316       3.2      17.2      64.0      9.45
   03/07/2020 12:40      60.4      59.5       51     41.9      0.00      7.89      63.9     0.48      1015.8     4.5       S   173  10.1     SSE     153     267       427       2.7      16.7      63.7      9.45
   03/07/2020 12:30      59.7      59.3       52     41.9      0.00      7.89      63.9     0.48      1015.9     4.8     SSE   164   9.3     SSW     193     267       328       3.1      16.2      63.2      9.45
   03/07/2020 12:20      59.6      59.0       53     42.0      0.00      7.89      64.0     0.48      1016.1     5.8       S   180  10.7       S     183     267       349       3.9      15.7      63.0      9.45
   03/07/2020 12:10      59.0      58.5       55     42.4      0.00      7.89      63.9     0.48      1016.2     5.0       S   176   9.3     SSE     157     267       269       3.2      15.1      62.8      9.45
   03/07/2020 12:00      59.5      58.5       55     42.6      0.00      7.89      63.9     0.48      1016.3     5.6       S   177   9.6       S     189     268       192       3.8      14.5      62.6      9.46
   03/07/2020 11:50      59.8      59.4       53     42.4      0.00      7.89      63.9     0.48      1016.4     4.9       S   170   9.3     SSW     193     267       229       3.2      13.9      62.4      9.45
   03/07/2020 11:40      60.2      59.1       53     42.4      0.00      7.89      63.9     0.48      1016.4     5.0       S   183  10.1     SSW     196     267       248       3.0      13.4      62.1      9.46
   03/07/2020 11:30      60.4      59.4       53     42.8      0.00      7.89      63.8     0.48      1016.4     4.4     SSE   154   8.9      SE     143     267       309       2.5      12.9      61.7      9.46
   03/07/2020 11:20      60.1      59.3       53     42.4      0.00      7.89      63.9     0.48      1016.5     3.1      SE   140   7.1     ESE     117     267       336       1.9      12.4      61.5      9.46
   03/07/2020 11:10      59.7      59.0       53     42.0      0.00      7.89      63.9     0.48      1016.5     2.5      SE   135   6.5     SSW     204     267       226       1.4      12.1      61.0      9.46
   03/07/2020 11:00      59.1      58.5       55     42.4      0.00      7.89      63.8     0.48      1016.7     2.5     ENE    77   6.6      SE     132     267       173       1.2      11.9      60.8      9.46
   03/07/2020 10:50      58.7      58.1       56     42.9      0.00      7.89      63.9     0.48      1016.8     2.6      SE   132   6.5       S     172     268       207       1.4      11.7      60.5      9.46
   03/07/2020 10:40      59.0      57.9       57     43.0      0.00      7.89      63.9     0.48      1016.9     3.1     SSE   163   7.0     SSE     161     267       265       2.0      11.4      60.0      9.46
   03/07/2020 10:30      58.5      57.2       57     42.6      0.00      7.89      63.8     0.48      1016.9     3.1     SSE   160   6.9     SSW     198     267       180       1.9      11.1      59.7      9.46
   03/07/2020 10:20      58.9      57.8       57     43.1      0.00      7.89      63.9     0.48      1017.0     4.3     SSE   156   9.3      SE     126     268       237       2.6      10.8      59.4      9.46
   03/07/2020 10:10      58.8      56.4       59     43.9      0.00      7.89      63.9     0.48      1017.2     4.1      SE   135   7.7      SE     146     267       471       2.2      10.4      59.0      9.46
   03/07/2020 10:00      56.5      55.3       65     44.0      0.00      7.89      63.8     0.48      1017.2     5.0     SSE   152   9.7     SSE     151     268       323       2.8      10.0      58.5      9.46
   03/07/2020 09:50      55.7      55.2       65     43.8      0.00      7.89      63.9     0.48      1017.4     4.7     SSE   165   8.1     SSE     151     268       155       2.6       9.5      58.4      9.46
   03/07/2020 09:40      55.8      55.1       64     43.4      0.00      7.89      63.9     0.48      1017.6     5.0     SSE   164   9.4       S     189     268       159       3.0       9.1      58.4      9.46
   03/07/2020 09:30      55.7      55.2       66     44.2      0.00      7.89      63.9     0.48      1017.4     4.3     SSE   166   7.1      SE     127     268       155       2.7       8.6      58.1      9.46
   03/07/2020 09:20      55.6      55.4       64     43.7      0.00      7.89      63.9     0.48      1017.4     4.6       S   175   8.4       S     183     269       111       2.8       8.1      57.9      9.46
   03/07/2020 09:10      56.1      55.4       64     43.8      0.00      7.89      63.9     0.48      1017.3     3.8     SSW   194   7.4     SSW     205     269        76       2.6       7.7      57.9      9.46
   03/07/2020 09:00      56.1      55.7       62     43.2      0.00      7.89      63.8     0.48      1017.2     3.0     SSE   162   5.0       S     183     268       141       1.7       7.2      57.7      9.46
   03/07/2020 08:50      56.0      55.5       62     43.0      0.00      7.89      63.7     0.48      1017.0     3.4       S   176   6.4       S     183     268       131       2.3       7.0      57.3      9.46
   03/07/2020 08:40      56.2      55.5       61     42.6      0.00      7.89      63.6     0.48      1017.0     1.9     ESE   117   4.0      SE     135     268        80       0.9       6.6      57.2      9.47
   03/07/2020 08:30      56.0      55.4       62     42.7      0.00      7.89      63.7     0.48      1017.0     2.0     ESE   111   3.7       E      79     268        55       1.2       6.4      57.2      9.47
   03/07/2020 08:20      56.2      55.8       62     43.0      0.00      7.89      63.7     0.48      1017.0     1.4      NE    56   3.4     NNE      31     269        63       0.5       6.2      57.2      9.47
   03/07/2020 08:10      56.5      56.0       62     43.2      0.00      7.89      63.8     0.48      1017.0     1.1     ENE    73   3.3      SE     139     268       122       0.5       6.2      57.1      9.47
   03/07/2020 08:00      56.0      54.7       64     43.3      0.00      7.89      63.8     0.48      1016.9     1.1     ENE    67   3.2      NE      54     269       149       0.3       6.1      56.9      9.47
   03/07/2020 07:50      55.4      54.8       65     43.4      0.00      7.89      63.8     0.48      1016.8     1.0      NE    35   2.8     ENE      63     269        39       0.0       6.0      56.8      9.47
   03/07/2020 07:40      56.7      55.1       64     43.6      0.00      7.89      63.8     0.48      1016.6     1.3     ENE    71   4.5     ESE     107     269         1       0.6       6.0      56.9      9.47
   03/07/2020 07:30      56.7      56.2       63     44.0      0.00      7.89      63.8     0.48      1016.8     0.6     SSW   192   2.1      SE     144     269       100       0.4       5.9      56.8      9.47
   03/07/2020 07:20      56.4      54.0       67     44.2      0.00      7.89      63.8     0.48      1016.9     0.8     ESE   123   2.4     SSE     150     269       121       0.5       5.8      56.7      9.47
   03/07/2020 07:10      53.8      52.9       71     44.0      0.00      7.89      63.9     0.48      1016.8     1.2       S   181   3.2       S     183     270        46       0.5       5.7      56.6      9.47
   03/07/2020 07:00      53.0      52.7       71     43.6      0.00      7.89      63.9     0.48      1016.8     2.1      SW   223   3.9      SW     231     270        -7       1.3       5.7      56.5      9.47
   03/07/2020 06:50      53.0      52.5       71     43.6      0.00      7.89      63.9     0.48      1016.8     3.0     SSW   213   5.4      SW     216     270       -15       1.8       5.4      56.6      9.47
   03/07/2020 06:40      52.9      52.5       72     44.0      0.00      7.89      63.9     0.48      1016.7     3.5      SW   224   6.0     SSW     212     270       -15       2.4       5.1      56.7      9.47
   03/07/2020 06:30      52.9      52.6       72     44.0      0.00      7.89      64.0     0.48      1016.7     2.7      SW   221   4.1     WSW     243     270       -16       1.8       4.8      56.8      9.47
   03/07/2020 06:20      52.9      52.6       73     44.1      0.00      7.89      63.9     0.48      1016.6     2.1     SSW   199   4.1     SSW     211     270       -18       1.1       4.5      56.9      9.47
   03/07/2020 06:10      52.8      52.5       73     44.3      0.00      7.89      64.0     0.48      1016.5     1.7       S   178   3.2       S     185     270       -18       1.1       4.3      57.0      9.47
   03/07/2020 06:00      52.9      52.5       74     44.5      0.00      7.89      63.8     0.48      1016.4     2.5     SSW   205   4.4       S     191     270       -18       1.4       4.1      57.0      9.47
   03/07/2020 05:50      52.9      52.6       74     44.6      0.00      7.89      63.7     0.48      1016.2     1.9       S   175   3.7     SSE     147     270       -18       0.9       3.9      57.0      9.47
   03/07/2020 05:40      52.9      52.6       74     44.6      0.00      7.89      63.7     0.48      1016.3     2.2       S   177   4.4     SSE     154     270       -18       1.2       3.7      57.1      9.47
   03/07/2020 05:30      53.0      52.6       74     44.6      0.00      7.89      64.0     0.48      1016.3     2.6       S   178   4.6       S     180     270       -17       1.5       3.5      57.5      9.47
   03/07/2020 05:20      53.0      52.7       74     44.7      0.00      7.89      64.0     0.48      1016.3     2.3       S   190   5.3     SSW     197     270       -17       1.3       3.3      57.6      9.47
   03/07/2020 05:10      53.0      52.7       75     45.0      0.00      7.89      64.2     0.48      1016.2     2.2       S   172   4.4      SE     145     270       -17       1.1       3.1      57.8      9.48
   03/07/2020 05:00      53.2      52.8       74     45.0      0.00      7.89      64.3     0.48      1016.0     2.8     SSE   167   5.0       S     176     270       -17       1.6       2.9      58.0      9.48
   03/07/2020 04:50      53.1      52.9       74     45.0      0.00      7.89      64.3     0.48      1015.9     2.1     SSE   164   4.9     SSW     198     270       -17       1.2       2.6      58.1      9.48
   03/07/2020 04:40      53.0      52.7       75     45.2      0.00      7.89      64.0     0.48      1015.7     2.3     SSE   168   5.1     SSE     147     270       -19       1.4       2.4      58.0      9.48
   03/07/2020 04:30      53.1      52.8       76     45.6      0.00      7.89      63.9     0.48      1015.5     1.9     SSE   164   4.1     SSE     151     270       -27       1.0       2.2      58.0      9.48
   03/07/2020 04:20      53.3      53.0       75     45.5      0.00      7.89      64.7     0.48      1015.6     1.7       S   176   3.4      SE     137     270       -23       0.8       2.0      58.8      9.48
   03/07/2020 04:10      53.3      53.1       74     45.3      0.00      7.89      64.6     0.48      1015.6     1.6       S   188   3.2       S     182     270       -22       0.8       1.9      58.9      9.48
   03/07/2020 04:00      53.5      53.1       74     45.2      0.00      7.89      64.6     0.48      1015.6     2.1       S   189   4.0       S     180     270       -25       1.4       1.7      59.1      9.48
   03/07/2020 03:50      53.7      53.2       75     45.5      0.00      7.89      64.4     0.48      1015.6     1.9       S   182   4.0       S     189     270       -24       1.2       1.5      59.0      9.48
   03/07/2020 03:40      53.8      53.5       74     45.5      0.00      7.89      64.2     0.48      1015.7     1.6     SSE   166   3.3     ESE     121     270       -18       0.9       1.3      58.9      9.48
   03/07/2020 03:30      53.7      53.4       73     45.0      0.00      7.89      64.1     0.48      1015.7     0.9     SSE   147   2.1     ESE     116     270       -19       0.2       1.2      58.9      9.48
   03/07/2020 03:20      53.7      53.4       72     44.9      0.00      7.89      64.2     0.48      1015.7     0.9     SSE   149   2.2     ESE     121     270       -24       0.3       1.1      59.0      9.48
   03/07/2020 03:10      53.8      53.5       72     45.0      0.00      7.89      64.3     0.48      1015.8     0.3     ESE   113   1.4     ESE     114     270       -28       0.0       1.1      59.2      9.48
   03/07/2020 03:00      53.8      53.5       72     44.8      0.00      7.89      64.2     0.48      1015.8     1.1       E    96   3.0     ENE      69     270       -19       0.4       1.1      59.3      9.48
   03/07/2020 02:50      53.8      53.6       71     44.7      0.00      7.89      64.3     0.48      1016.0     1.3     ESE   107   4.0     ENE      75     270       -15       0.5       1.0      59.5      9.48
   03/07/2020 02:40      53.9      53.6       71     44.7      0.00      7.89      64.3     0.48      1016.1     1.3     ESE   116   3.3     ESE     119     270       -15       0.6       0.9      59.6      9.48
   03/07/2020 02:30      54.0      53.6       71     44.7      0.00      7.89      64.4     0.48      1016.2     0.7       E   100   1.7     ENE      70     270       -15       0.2       0.8      59.7      9.48
   03/07/2020 02:20      54.1      53.6       72     45.0      0.00      7.89      64.5     0.48      1016.3     0.1     ESE   112   1.5      SE     133     270       -16       0.0       0.8      59.8      9.48
   03/07/2020 02:10      54.0      53.6       73     45.2      0.00      7.89      64.4     0.48      1016.5     0.4      NE    55   1.4      NE      54     270       -16       0.0       0.8      60.0      9.48
   03/07/2020 02:00      53.9      53.6       73     45.4      0.00      7.89      64.5     0.48      1016.6     0.0      NE    44   0.7      NE      46     270       -18       0.0       0.8      60.0      9.48
   03/07/2020 01:50      53.8      53.5       73     45.4      0.00      7.89      64.5     0.48      1016.6     0.0     NNW   330   0.8       N       0     270       -17       0.0       0.8      60.1      9.48
   03/07/2020 01:40      53.8      53.5       74     45.6      0.00      7.89      64.2     0.48      1016.5     0.7     ESE   112   1.9     ESE     117     270       -16       0.1       0.8      60.0      9.49
   03/07/2020 01:30      53.9      53.4       75     46.0      0.00      7.89      64.1     0.48      1016.6     0.5     ENE    63   1.6      NE      48     270       -16       0.0       0.8      60.1      9.49
   03/07/2020 01:20      53.5      53.2       76     45.9      0.00      7.89      64.5     0.48      1016.8     1.1     SSE   163   3.2     SSW     194     270       -14       0.6       0.8      60.5      9.49
   03/07/2020 01:10      53.5      53.1       78     46.4      0.00      7.89      64.6     0.48      1016.8     0.7       E    90   2.3     SSW     204     270       -14       0.2       0.7      60.7      9.49
   03/07/2020 01:00      53.3      53.0       79     46.8      0.00      7.89      64.6     0.48      1016.8     1.7     SSE   163   4.8       S     180     270       -13       0.9       0.6      60.8      9.49
   03/07/2020 00:50      53.4      53.0       80     47.2      0.00      7.89      64.6     0.48      1016.7     1.6     ESE   110   3.4     ESE     124     270       -13       0.8       0.5      61.0      9.49
   03/07/2020 00:40      53.7      53.2       80     47.5      0.00      7.89      64.6     0.48      1016.5     2.0       E    89   5.2     ENE      63     270       -13       1.1       0.4      61.1      9.49
   03/07/2020 00:30      53.7      53.3       80     47.5      0.00      7.89      64.6     0.48      1016.5     1.2      NE    53   2.8     ENE      63     270       -13       0.3       0.2      61.3      9.49
   03/07/2020 00:20      53.7      53.3       80     47.5      0.00      7.89      64.7     0.48      1016.6     1.6     ENE    66   3.5     ENE      59     270       -13       0.5       0.1      61.4      9.49
   03/07/2020 00:10      53.8      53.5       80     47.7      0.00      7.89      64.7     0.48      1016.6     2.0      NE    54   3.2      NE      56     270       -13       0.2       0.0      61.6      9.49
   03/07/2020 00:00      54.0      53.5       80     47.8      0.00      7.89      64.7     0.48      1016.7     1.6     ENE    65   3.4     ENE      58     270       -14       0.5      18.4      61.7      9.49
   03/06/2020 23:50      54.0      53.6       81     48.1      0.00      7.89      64.7     0.48      1016.7     1.1     ENE    64   3.0      NE      52     270       -12       0.3      18.4      61.9      9.49
   03/06/2020 23:40      53.8      53.2       82     48.2      0.00      7.89      64.8     0.48      1016.7     0.6     ENE    66   2.1     NNE      32     271       -12       0.0      18.3      62.0      9.49
   03/06/2020 23:30      53.5      53.2       83     48.2      0.00      7.89      64.8     0.48      1016.7     0.9       E    88   2.2     ENE      68     271       -12       0.2      18.3      62.1      9.49
   03/06/2020 23:20      53.5      53.2       84     48.5      0.00      7.89      64.8     0.48      1016.9     1.2       E    95   2.5     ENE      70     271       -12       0.4      18.3      62.3      9.49
   03/06/2020 23:10      53.3      53.1       85     48.7      0.00      7.89      64.8     0.48      1016.9     1.0     ESE   123   2.5     SSE     159     271       -12       0.2      18.2      62.4      9.49
   03/06/2020 23:00      53.3      53.1       85     48.8      0.00      7.89      64.8     0.48      1017.0     1.3      SE   136   2.6      SE     144     271       -12       0.4      18.2      62.5      9.49
   03/06/2020 22:50      53.3      53.1       85     49.0      0.00      7.89      64.8     0.48      1017.0     1.0      SE   124   2.2     ENE      71     271       -15       0.1      18.1      62.7      9.49
   03/06/2020 22:40      53.3      53.0       85     48.9      0.00      7.89      64.9     0.48      1017.1     1.3      SE   141   2.7      SE     146     271       -12       0.6      18.1      62.9      9.49
   03/06/2020 22:30      53.3      52.9       86     48.9      0.00      7.89      64.8     0.48      1017.1     0.8      SE   145   2.2     ESE     111     271       -12       0.2      18.0      63.0      9.50
   03/06/2020 22:20      53.0      52.5       86     48.6      0.00      7.89      64.9     0.48      1017.2     1.1      SE   131   3.0      SE     140     271       -14       0.4      17.9      63.1      9.50
   03/06/2020 22:10      52.6      52.1       87     48.4      0.00      7.89      64.8     0.48      1017.2     0.5       E   100   1.4       E      83     271       -15       0.1      17.9      63.2      9.50
   03/06/2020 22:00      52.2      51.8       87     48.1      0.00      7.89      64.9     0.48      1017.2     1.4     SSE   168   2.8       S     186     272       -23       0.9      17.9      63.4      9.50
   03/06/2020 21:50      51.9      51.6       86     47.7      0.00      7.89      64.9     0.48      1017.0     1.2     SSE   161   2.9       S     171     272       -28       0.3      17.7      63.6      9.50
   03/06/2020 21:40      51.9      51.4       86     47.7      0.00      7.89      65.0     0.48      1017.0     1.6     SSE   164   4.5       S     174     272       -31       1.0      17.7      63.8      9.50
   03/06/2020 21:30      51.9      51.2       86     47.2      0.00      7.89      65.0     0.48      1016.9     1.0     SSE   160   2.9       S     189     263       -39       0.3      17.5      64.1      9.50
   03/06/2020 21:20      51.9      51.6       85     47.5      0.00      7.89      64.8     0.48      1016.8     0.4     SSE   158   1.7     SSE     159     262       -56       0.1      17.5      64.3      9.50
   03/06/2020 21:10      52.0      51.5       84     47.1      0.00      7.89      64.9     0.48      1016.7     0.7     SSE   159   1.5      SE     141     260       -62       0.0      17.4      64.7      9.50
   03/06/2020 21:00      52.9      52.1       84     47.7      0.00      7.89      64.9     0.48      1016.5     0.2     SSE   169   0.9     SSW     214     258       -62       0.0      17.4      65.0      9.50
   03/06/2020 20:50      52.9      52.5       83     47.7      0.00      7.89      64.9     0.48      1016.4     0.9       S   169   1.9       S     181     260       -65       0.2      17.4      65.4      9.50
   03/06/2020 20:40      53.3      52.7       82     47.7      0.00      7.89      64.9     0.48      1016.4     1.0       S   178   2.1       S     169     264       -66       0.5      17.4      65.7      9.50
   03/06/2020 20:30      54.0      53.2       81     47.7      0.00      7.89      64.9     0.48      1016.3     0.2     ESE   122   1.5      SE     144     263       -68       0.0      17.3      66.0      9.51
   03/06/2020 20:20      54.3      53.7       80     47.9      0.00      7.89      64.9     0.48      1016.2     0.3       S   169   1.1       S     191     268       -69       0.0      17.3      66.3      9.51
   03/06/2020 20:10      54.7      54.1       79     48.0      0.00      7.89      64.8     0.48      1016.2     0.8       S   180   1.9      SW     232     270       -69       0.2      17.3      66.7      9.51
   03/06/2020 20:00      55.3      54.6       78     48.3      0.00      7.89      64.8     0.48      1016.2     1.2       S   174   2.1     ESE     123     270       -70       0.4      17.3      67.0      9.51
   03/06/2020 19:50      55.8      55.0       77     48.3      0.00      7.89      64.8     0.48      1016.1     0.7     SSW   194   2.2      SW     220     270       -71       0.4      17.2      67.3      9.51
   03/06/2020 19:40      56.1      55.5       76     48.4      0.00      7.89      64.8     0.48      1016.0     0.6       S   171   3.0     WSW     254     270       -71       0.2      17.1      67.6      9.51
   03/06/2020 19:30      56.6      56.0       75     48.5      0.00      7.89      64.7     0.48      1015.8     0.4       S   191   1.6     SSW     198     270       -72       0.0      17.1      67.9      9.51
   03/06/2020 19:20      57.1      56.5       74     48.6      0.00      7.89      64.5     0.48      1015.6     0.6     SSW   196   2.6      SW     226     269       -73       0.2      17.1      68.2      9.51
   03/06/2020 19:10      57.2      56.9       74     48.8      0.00      7.89      64.5     0.48      1015.5     2.4     SSW   214   4.2      SW     214     269       -74       1.5      17.1      68.4      9.51
   03/06/2020 19:00      57.7      57.0       73     48.7      0.00      7.89      64.4     0.48      1015.5     1.8     SSW   203   4.1      SW     235     269       -74       0.8      16.8      68.8      9.52
   03/06/2020 18:50      58.5      57.5       71     48.8      0.00      7.89      64.4     0.48      1015.4     3.7      SW   233   6.0     WSW     253     268       -75       2.2      16.7      69.2      9.52
   03/06/2020 18:40      59.1      58.3       69     48.7      0.00      7.89      64.3     0.48      1015.4     3.6     WSW   241   6.5      SW     230     268       -75       2.2      16.3      69.6      9.52
   03/06/2020 18:30      59.6      59.0       67     48.5      0.00      7.89      64.3     0.48      1015.3     2.9      SW   229   4.8      SW     233     268       -76       1.6      15.9      70.0      9.52
   03/06/2020 18:20      60.4      59.4       65     48.2      0.00      7.89      64.3     0.48      1015.2     3.3     SSW   206   5.9     WSW     241     268       -77       1.9      15.7      70.4      9.53
   03/06/2020 18:10      61.0      60.3       63     48.1      0.00      7.89      64.2     0.48      1015.0     3.7      SW   221   7.2     SSW     200     268       -78       2.3      15.3      70.8      9.53
   03/06/2020 18:00      61.1      60.5       63     48.1      0.00      7.89      64.2     0.48      1014.9     3.5      SW   226   6.1       W     264     267       -77       2.1      15.0      71.3      9.53
   03/06/2020 17:50      61.4      60.5       62     47.9      0.00      7.89      64.1     0.48      1014.7     3.1     SSW   194   5.3     SSW     198     267       -75       1.8      14.6      71.7      9.53
   03/06/2020 17:40      62.1      61.3       60     47.6      0.00      7.89      64.1     0.48      1014.6     3.4       S   179   6.3       S     169     267       -70       2.3      14.3      72.2      9.54
   03/06/2020 17:30      64.7      62.2       55     46.8      0.00      7.89      64.0     0.48      1014.6     4.2       S   186   7.2       S     184     266       -66       2.7      13.9      72.8      9.54
   03/06/2020 17:20      66.6      64.7       48     45.3      0.00      7.89      63.9     0.48      1014.4     3.3       S   185   7.2     SSE     148     266       -37       2.2      13.5      73.4      9.55
   03/06/2020 17:10      68.2      66.6       42     43.4      0.00      7.89      63.9     0.48      1014.2     3.6       S   169   7.1       S     185     266       -19       2.4      13.1      73.8      9.55
   03/06/2020 17:00      69.2      68.1       38     42.1      0.00      7.89      63.9     0.48      1014.2     3.8       S   176   7.6       S     185     266        -0       2.7      12.7      74.2      9.55
   03/06/2020 16:50      70.4      69.2       34     40.3      0.00      7.89      63.7     0.48      1014.0     3.8     SSE   166   6.9     SSE     166     265        23       2.8      12.3      74.5      9.56
   03/06/2020 16:40      72.2      70.3       31     39.3      0.00      7.89      63.7     0.48      1014.0     3.5       S   177   7.9       S     189     264        48       2.3      11.8      74.7      9.56
   03/06/2020 16:30      72.5      71.8       29     38.2      0.00      7.89      63.6     0.48      1013.9     2.5     SSE   162   4.3     SSE     151     264        72       1.5      11.4      74.8      9.56
   03/06/2020 16:20      72.3      71.8       28     37.4      0.00      7.89      63.6     0.48      1014.0     3.8      SE   145   6.9      SE     128     264       101       2.5      11.2      74.9      9.57
   03/06/2020 16:10      72.3      71.8       29     37.8      0.00      7.89      63.5     0.48      1014.1     3.8     SSE   155   6.5      SE     132     264       127       2.0      10.8      74.9      9.57
   03/06/2020 16:00      72.4      71.8       29     37.8      0.00      7.89      63.5     0.48      1014.2     4.6       S   176   7.6     SSE     163     264       153       3.2      10.4      75.1      9.58
   03/06/2020 15:50      73.5      72.3       32     40.9      0.00      7.89      63.3     0.48      1014.2     4.0     SSW   209   7.3     SSW     206     264       175       2.6       9.9      75.1      9.58
   03/06/2020 15:40      73.6      72.5       30     39.4      0.00      7.89      63.3     0.48      1014.2     4.5      SE   145   8.5      SW     219     265       204       2.5       9.4      75.1      9.58
   03/06/2020 15:30      74.7      73.5       27     38.1      0.00      7.89      63.2     0.48      1014.2     4.9      SE   143   9.6      SE     136     264       217       2.3       9.0      74.9      9.59
   03/06/2020 15:20      75.1      74.2       28     39.0      0.00      7.89      63.1     0.48      1014.2     3.7     SSE   164   7.5     SSW     207     264       235       2.2       8.7      74.7      9.59
   03/06/2020 15:10      74.8      74.3       27     37.9      0.00      7.89      63.0     0.48      1014.4     4.5     SSE   167   8.2     SSW     192     264       264       2.8       8.3      74.6      9.59
   03/06/2020 15:00      75.7      74.3       29     40.9      0.00      7.89      62.9     0.48      1014.4     3.6      SE   136   8.9      SE     146     264       282       1.9       7.8      74.3      9.59
   03/06/2020 14:50      77.2      74.5       36     46.7      0.00      7.89      62.9     0.48      1014.3     3.4      SW   233   8.0       W     264     265       333       2.7       7.5      74.0      9.60
   03/06/2020 14:40      78.0      76.4       33     45.8      0.00      7.89      62.8     0.48      1014.4     1.1      NE    45   4.5      NE      37     264       358       0.7       7.0      73.6      9.60
   03/06/2020 14:30      76.5      75.3       30     42.3      0.00      7.89      62.7     0.48      1014.4     1.7       W   271   6.3     WSW     242     264       342       1.1       6.9      73.1      9.60
   03/06/2020 14:20      75.6      74.5       30     41.6      0.00      7.89      62.6     0.48      1014.5     3.8     SSW   206   7.4     SSW     205     264       416       2.8       6.7      72.8      9.60
   03/06/2020 14:10      75.0      73.5       30     40.9      0.00      7.89      62.6     0.48      1014.7     4.0     SSW   206   7.6     SSW     196     264       429       2.8       6.3      72.5      9.60
   03/06/2020 14:00      74.0      73.5       33     43.0      0.00      7.89      62.5     0.48      1014.8     3.1       S   178   6.7     SSW     204     265       133       1.9       5.8      72.2      9.60
   03/06/2020 13:50      74.2      72.7       36     44.5      0.00      7.89      62.4     0.48      1014.9     4.4     SSE   165   9.0     SSE     153     264       330       2.5       5.5      72.0      9.61
   03/06/2020 13:40      74.2      73.5       36     45.0      0.00      7.89      62.3     0.48      1015.0     4.1       S   170   6.8      SW     220     265       279       2.5       5.1      71.5      9.61
   03/06/2020 13:30      76.5      74.0       36     46.0      0.00      7.89      62.3     0.48      1015.2     4.3       S   170   8.2     SSW     207     265       357       2.5       4.6      71.0      9.61
   03/06/2020 13:20      77.4      76.0       37     48.1      0.00      7.89      62.3     0.47      1015.2     2.7     NNE    32   4.6      NE      50     265       347       1.2       4.2      70.6      9.61
   03/06/2020 13:10      77.4      76.0       37     48.3      0.00      7.89      62.2     0.47      1015.4     2.4      NE    51   5.4       E      85     264       477       1.1       4.0      69.9      9.61
   03/06/2020 13:00      76.0      74.8       40     49.3      0.00      7.89      62.2     0.47      1015.5     2.4     ENE    62   4.8     ENE      70     265       468       1.3       3.8      69.2      9.61
   03/06/2020 12:50      74.8      73.4       41     48.8      0.00      7.89      62.1     0.47      1015.7     3.1      NE    54   5.2     NNE      23     265       478       1.1       3.6      68.4      9.61
   03/06/2020 12:40      75.0      73.5       40     49.0      0.00      7.89      62.1     0.47      1015.8     3.6      NE    41   6.0     NNE      22     265       269       1.2       3.4      68.0      9.61
   03/06/2020 12:30      75.5      74.8       41     49.7      0.00      7.89      62.2     0.47      1016.1     2.5      NE    35   4.9      NE      46     265       293       1.0       3.2      67.3      9.61
   03/06/2020 12:20      75.7      74.4       41     49.8      0.00      7.89      62.1     0.47      1016.2     2.7      NE    52   6.0     NNE      23     265       476       1.2       3.1      66.7      9.61
   03/06/2020 12:10      75.2      74.5       41     49.4      0.00      7.89      62.2     0.47      1016.4     3.0     NNE    30   6.3       E      85     265       474       1.2       2.9      65.9      9.61
   03/06/2020 12:00      75.2      74.3       40     48.7      0.00      7.89      62.2     0.47      1016.5     2.9      NE    41   5.9      NE      55     265       468       1.2       2.7      65.3      9.61
   03/06/2020 11:50      75.8      74.3       40     48.9      0.00      7.89      62.2     0.47      1016.7     2.8      NE    42   5.7     NNE      27     265       459       1.2       2.4      64.5      9.62
   03/06/2020 11:40      75.7      75.2       39     48.6      0.00      7.89      62.2     0.47      1016.8     1.9     ENE    72   4.2       E      87     265       459       1.1       2.2      63.8      9.62
   03/06/2020 11:30      75.3      74.3       40     48.7      0.00      7.89      62.2     0.47      1017.0     1.4      NE    35   4.0     ENE      68     265       469       0.8       2.1      63.0      9.62
   03/06/2020 11:20      74.9      73.5       40     48.6      0.00      7.89      62.4     0.47      1017.1     1.8     NNE    33   3.9     NNE      20     265       468       0.9       1.9      62.3      9.62
   03/06/2020 11:10      73.8      72.7       40     47.4      0.00      7.89      62.5     0.47      1017.2     2.2       N     4   5.9     NNE      20     265       437       0.9       1.8      61.5      9.62
   03/06/2020 11:00      73.8      73.0       39     46.6      0.00      7.89      62.5     0.47      1017.3     1.8      NE    38   3.7      SE     126     264       421       0.8       1.6      60.7      9.62
   03/06/2020 10:50      73.4      72.0       38     45.8      0.00      7.89      62.4     0.47      1017.3     1.1       N     0   3.8       N     351     264       438       0.6       1.5      59.9      9.62
   03/06/2020 10:40      71.9      71.3       39     45.1      0.00      7.89      62.5     0.47      1017.3     2.0     NNE    26   4.1     NNE      22     264       446       0.8       1.4      59.2      9.62
   03/06/2020 10:30      71.8      70.4       39     44.8      0.00      7.89      62.6     0.47      1017.4     1.0       N     5   3.1     ENE      64     265       409       0.5       1.3      58.6      9.62
   03/06/2020 10:20      70.9      69.2       39     43.9      0.00      7.89      62.6     0.47      1017.5     1.1     NNE    12   2.8     NNE      25     265       395       0.4       1.2      58.1      9.62
   03/06/2020 10:10      70.2      69.1       39     43.5      0.00      7.89      62.6     0.47      1017.5     1.5     NNE    30   4.6      NE      38     264       390       0.8       1.1      57.4      9.62
   03/06/2020 10:00      69.4      68.4       41     44.4      0.00      7.89      62.7     0.47      1017.5     1.4     NNE    20   4.4     NNE      15     265       376       0.5       1.0      56.9      9.62
   03/06/2020 09:50      68.8      67.4       44     45.2      0.00      7.89      62.8     0.47      1017.6     0.9      NW   315   3.7     NNW     347     265       364       0.5       0.9      56.2      9.62
   03/06/2020 09:40      67.9      66.8       44     44.7      0.00      7.89      62.8     0.47      1017.6     1.3       N     0   3.3       N     353     265       336       0.4       0.8      55.7      9.62
   03/06/2020 09:30      67.9      65.9       46     45.5      0.00      7.89      63.0     0.47      1017.6     0.6       N     6   2.1     NNE      18     265       332       0.5       0.7      55.2      9.62
   03/06/2020 09:20      66.0      65.2       50     46.5      0.00      7.89      63.0     0.47      1017.7     0.8       N     3   2.3     NNE      22     266       314       0.3       0.7      54.8      9.62
   03/06/2020 09:10      65.8      64.5       51     46.9      0.00      7.89      63.0     0.48      1017.8     0.7     NNW   346   2.3     NNE      26     266       320       0.4       0.6      54.4      9.62
   03/06/2020 09:00      64.2      63.1       54     46.7      0.00      7.89      63.0     0.48      1017.8     0.6     WNW   287   1.6       W     274     266       275       0.4       0.6      54.1      9.62
   03/06/2020 08:50      63.8      62.5       55     46.9      0.00      7.89      63.0     0.48      1017.8     0.4     NNW   328   1.6      NW     311     266       204       0.1       0.5      53.9      9.62
   03/06/2020 08:40      62.6      61.3       56     46.3      0.00      7.89      63.1     0.48      1017.9     0.2     NNW   346   1.7       N       7     266       217       0.1       0.5      53.6      9.62
   03/06/2020 08:30      61.6      61.3       56     45.5      0.00      7.89      63.1     0.48      1018.0     0.3      NW   322   1.3       N     352     267       231       0.0       0.4      53.3      9.62
   03/06/2020 08:20      61.6      60.1       54     44.4      0.00      7.89      63.1     0.48      1017.9     0.0     NNE    13   1.4     NNE      29     268       168       0.0       0.4      53.1      9.62
   03/06/2020 08:10      60.6      58.5       55     43.6      0.00      7.89      63.2     0.48      1017.8     0.0       W   271   0.9      SW     217     269       173       0.0       0.4      52.9      9.62
   03/06/2020 08:00      58.6      56.3       59     43.0      0.00      7.89      63.3     0.48      1017.8     0.0       N     0   0.0     SSW     213     269       139       0.0       0.4      52.7      9.62
   03/06/2020 07:50      56.1      54.5       61     42.0      0.00      7.89      63.2     0.48      1017.6     0.3      NW   310   1.6      NW     315     270       131       0.0       0.4      52.5      9.62
   03/06/2020 07:40      54.7      53.4       63     41.8      0.00      7.89      63.1     0.48      1017.6     0.0       N    10   0.8       N       6     270        88       0.0       0.4      52.4      9.62
   03/06/2020 07:30      53.4      51.0       69     42.3      0.00      7.89      63.2     0.48      1017.5     0.0     NNE    13   0.5     NNE      13     271        64       0.0       0.4      52.3      9.62
   03/06/2020 07:20      51.0      49.2       76     42.6      0.00      7.89      63.3     0.48      1017.4     0.0       N     0   0.0     SSW     212     271        22       0.0       0.4      52.3      9.62
   03/06/2020 07:10      49.3      48.3       80     42.8      0.00      7.89      63.4     0.48      1017.2     0.0       N     0   0.0     SSW     212     269        -6       0.0       0.4      52.4      9.62
   03/06/2020 07:00      48.5      46.5       83     42.5      0.00      7.89      63.4     0.48      1017.1     0.2      SW   219   0.9      SW     216     269       -14       0.0       0.4      52.4      9.62
   03/06/2020 06:50      46.6      46.4       82     41.4      0.00      7.89      63.5     0.48      1017.0     0.0       S   180   0.8     SSW     212     264       -19       0.0       0.4      52.5      9.62
   03/06/2020 06:40      46.5      45.9       83     41.3      0.00      7.89      63.5     0.48      1016.9     0.1     SSE   155   0.7     SSE     153     264       -31       0.0       0.4      52.5      9.62
   03/06/2020 06:30      46.1      45.8       83     41.1      0.00      7.89      63.5     0.48      1016.8     0.4       S   184   1.1     SSW     196     263       -39       0.0       0.4      52.6      9.62
   03/06/2020 06:20      46.0      45.5       83     40.7      0.00      7.89      63.1     0.48      1016.7     0.2       S   180   0.8       S     183     262       -46       0.0       0.4      52.4      9.63
   03/06/2020 06:10      46.3      45.9       82     40.8      0.00      7.89      62.9     0.48      1016.7     0.0       N     0   0.0     SSE     157     262       -50       0.0       0.4      52.4      9.63
   03/06/2020 06:00      46.5      45.9       80     40.5      0.00      7.89      63.3     0.48      1016.7     0.2     SSE   156   0.8     SSE     152     265       -52       0.0       0.4      52.9      9.63
   03/06/2020 05:50      46.9      46.4       78     40.3      0.00      7.89      63.3     0.48      1016.6     0.0     SSE   156   0.5     SSE     154     266       -52       0.0       0.4      53.0      9.63
   03/06/2020 05:40      47.1      46.7       77     40.2      0.00      7.89      63.5     0.48      1016.5     0.1     SSW   211   0.8       S     182     267       -52       0.0       0.4      53.3      9.63
   03/06/2020 05:30      47.8      46.9       75     39.9      0.00      7.89      63.6     0.48      1016.5     0.1       S   172   1.1       S     179     268       -53       0.0       0.4      53.6      9.63
   03/06/2020 05:20      47.6      47.2       75     39.9      0.00      7.89      63.4     0.48      1016.6     0.5       S   171   1.0     SSE     167     268       -53       0.0       0.4      53.5      9.63
   03/06/2020 05:10      48.2      47.5       73     39.8      0.00      7.89      63.3     0.48      1016.6     0.0       N     0   0.0     SSE     159     269       -55       0.0       0.4      53.8      9.63
   03/06/2020 05:00      48.5      48.0       73     40.0      0.00      7.89      63.5     0.48      1016.6     0.1     SSE   153   0.8     SSE     148     268       -54       0.0       0.4      54.0      9.63
   03/06/2020 04:50      48.0      47.1       74     39.8      0.00      7.89      63.5     0.48      1016.6     0.8     SSE   155   1.6     SSE     169     269       -54       0.3       0.4      54.1      9.63
   03/06/2020 04:40      47.5      47.1       73     39.2      0.00      7.89      63.6     0.48      1016.6     1.0     SSE   151   1.9     SSE     154     269       -55       0.4       0.4      54.3      9.63
   03/06/2020 04:30      47.5      47.1       74     39.5      0.00      7.89      63.6     0.48      1016.7     0.8     SSE   155   1.3     SSE     148     269       -55       0.4       0.3      54.5      9.63
   03/06/2020 04:20      47.5      47.1       75     39.6      0.00      7.89      63.6     0.48      1016.7     1.1     SSE   151   1.8      SE     142     269       -54       0.6       0.2      54.7      9.63
   03/06/2020 04:10      47.7      47.2       73     39.0      0.00      7.89      63.6     0.48      1016.7     0.8     SSE   167   1.6       S     182     269       -53       0.2       0.1      55.0      9.63
   03/06/2020 04:00      48.2      47.6       71     39.0      0.00      7.89      63.7     0.48      1016.8     0.3     SSE   168   0.9       S     177     269       -53       0.0       0.0      55.2      9.63
   03/06/2020 03:50      48.3      47.7       71     39.0      0.00      7.89      63.7     0.48      1016.8     0.2       S   173   0.9       S     176     269       -53       0.0       0.0      55.5      9.64
   03/06/2020 03:40      48.6      48.3       70     39.1      0.00      7.89      63.8     0.48      1016.9     0.2     SSE   160   0.7     SSE     157     269       -53       0.0       0.0      55.7      9.64
   03/06/2020 03:30      48.6      48.3       69     38.8      0.00      7.89      63.7     0.48      1017.0     0.0       N     0   0.0     SSE     167     269       -53       0.0       0.0      55.8      9.64
   03/06/2020 03:20      48.8      48.4       70     39.1      0.00      7.89      63.8     0.48      1017.0     0.0     SSE   153   0.7      SE     145     269       -53       0.0       0.0      56.1      9.64
   03/06/2020 03:10      48.7      48.4       68     38.4      0.00      7.89      63.8     0.48      1017.1     0.1       S   191   0.6       S     191     269       -53       0.0       0.0      56.3      9.64
   03/06/2020 03:00      49.0      48.5       67     38.4      0.00      7.89      63.7     0.48      1017.1     0.0       N     0   0.0       S     177     269       -53       0.0       0.0      56.4      9.64
   03/06/2020 02:50      49.1      48.8       70     39.4      0.00      7.89      63.9     0.48      1017.2     0.2     SSE   157   0.9      SE     143     269       -54       0.0       0.0      56.6      9.64
   03/06/2020 02:40      49.3      48.8       69     39.3      0.00      7.89      64.0     0.48      1017.4     0.6     SSE   166   1.0       S     171     269       -54       0.0       0.0      57.0      9.64
   03/06/2020 02:30      49.7      49.2       67     39.0      0.00      7.89      64.1     0.48      1017.5     0.2     SSE   168   1.0       S     176     269       -55       0.0       0.0      57.3      9.64
   03/06/2020 02:20      49.7      49.3       67     38.9      0.00      7.89      64.2     0.48      1017.6     0.2     SSE   158   0.9     SSE     161     268       -56       0.0       0.0      57.6      9.64
   03/06/2020 02:10      50.2      49.5       65     38.7      0.00      7.89      64.4     0.48      1017.6     0.4     SSE   166   0.9     SSE     161     268       -56       0.0       0.0      58.1      9.64
   03/06/2020 02:00      50.5      50.0       64     38.8      0.00      7.89      64.5     0.48      1017.7     0.4     SSE   150   0.9     SSE     160     268       -56       0.0       0.0      58.3      9.64
   03/06/2020 01:50      50.5      50.0       64     38.5      0.00      7.89      63.8     0.48      1017.7     0.5     SSE   158   0.9     SSE     152     268       -57       0.0       0.0      57.9      9.65
   03/06/2020 01:40      50.5      50.1       63     38.4      0.00      7.89      63.8     0.48      1017.8     0.3       S   170   1.0       S     178     268       -57       0.0       0.0      58.2      9.65
   03/06/2020 01:30      51.3      50.3       61     37.9      0.00      7.89      64.1     0.48      1017.8     0.7       S   172   1.2      SW     232     268       -58       0.0       0.0      58.7      9.65
   03/06/2020 01:20      51.0      50.5       62     38.2      0.00      7.89      64.3     0.48      1017.9     0.6     SSE   165   1.3      SE     139     268       -58       0.0       0.0      59.0      9.65
   03/06/2020 01:10      51.9      50.8       60     37.9      0.00      7.89      64.3     0.48      1017.9     0.8     SSE   149   1.6      SE     137     268       -58       0.4       0.0      59.3      9.65
   03/06/2020 01:00      52.3      51.7       57     37.5      0.00      7.89      64.5     0.48      1018.0     0.6     SSE   161   1.3      SE     143     268       -57       0.0       0.0      59.7      9.65
   03/06/2020 00:50      52.5      51.9       57     37.3      0.00      7.89      64.5     0.48      1017.9     0.4       S   178   1.1       S     180     268       -57       0.0       0.0      60.0      9.65
   03/06/2020 00:40      52.9      52.5       55     36.9      0.00      7.89      64.6     0.48      1017.9     0.1     SSE   158   0.9     SSE     149     267       -57       0.0       0.0      60.3      9.65
   03/06/2020 00:30      52.9      52.5       54     36.8      0.00      7.89      64.6     0.48      1017.9     0.2       S   174   0.8     SSE     152     267       -57       0.0       0.0      60.6      9.65
   03/06/2020 00:20      52.9      52.2       55     36.6      0.00      7.89      64.6     0.48      1017.9     0.3     SSE   160   1.0       S     179     267       -58       0.0       0.0      60.9      9.65
   03/06/2020 00:10      53.0      52.2       54     36.3      0.00      7.89      64.2     0.48      1017.9     0.5     SSE   153   1.6     SSE     149     267       -59       0.0       0.0      60.7      9.66
   03/06/2020 00:00      53.3      52.8       52     35.9      0.00      7.89      64.1     0.48      1017.9     0.7     SSE   155   2.0      SE     146     267       -57       0.2      16.2      60.8      9.66
   03/05/2020 23:50      53.8      53.2       50     35.3      0.00      7.89      64.1     0.48      1017.9     0.9     SSE   166   1.7      SE     144     267       -54       0.3      16.2      61.1      9.66
   03/05/2020 23:40      54.1      53.6       49     35.0      0.00      7.89      64.2     0.48      1017.9     0.8      SE   144   2.5      SE     136     267       -51       0.0      16.1      61.4      9.66
   03/05/2020 23:30      54.2      53.6       47     34.0      0.00      7.89      64.2     0.48      1017.9     1.5       S   190   2.4      SE     136     266       -50       0.2      16.1      61.6      9.66
   03/05/2020 23:20      54.6      54.0       46     33.7      0.00      7.89      63.9     0.48      1017.9     0.7     SSE   168   1.4      SE     126     266       -51       0.1      16.1      61.5      9.66
   03/05/2020 23:10      54.8      53.6       45     33.0      0.00      7.89      63.6     0.48      1017.8     0.9     SSW   192   2.1     SSW     203     266       -51       0.4      16.1      61.5      9.66
   03/05/2020 23:00      55.6      53.9       43     32.9      0.00      7.89      63.6     0.48      1017.8     0.6      SE   146   1.5      SE     135     266       -52       0.0      16.0      61.9      9.66
   03/05/2020 22:50      55.7      55.3       41     32.4      0.00      7.89      63.5     0.48      1018.0     1.0     SSW   195   1.8     SSW     197     266       -55       0.1      16.0      62.1      9.66
   03/05/2020 22:40      55.6      55.1       41     32.0      0.00      7.89      63.6     0.48      1018.0     0.6     SSW   192   1.8     SSW     194     266       -58       0.3      16.0      62.3      9.67
   03/05/2020 22:30      56.2      55.2       40     31.9      0.00      7.89      63.5     0.48      1018.1     0.0       S   182   0.4       S     184     266       -60       0.2      16.0      62.6      9.67
   03/05/2020 22:20      57.1      56.0       38     31.3      0.00      7.89      63.7     0.48      1018.1     0.3     SSE   151   1.2      SE     141     266       -60       0.0      15.9      62.9      9.67
   03/05/2020 22:10      58.1      57.1       36     30.8      0.00      7.89      63.7     0.48      1018.1     0.0     SSE   155   1.0     SSW     207     266       -60       0.0      15.9      63.1      9.67
   03/05/2020 22:00      58.0      57.6       36     31.0      0.00      7.89      63.6     0.48      1018.3     0.4     SSW   210   1.3     SSW     201     266       -60       0.3      15.9      63.5      9.67
   03/05/2020 21:50      58.0      57.5       37     31.8      0.00      7.89      63.6     0.48      1018.3     0.1       S   184   1.4     SSW     196     266       -61       0.0      15.9      63.8      9.67
   03/05/2020 21:40      58.6      57.8       38     32.7      0.00      7.89      63.6     0.48      1018.4     0.2     SSE   156   1.3     SSE     146     266       -62       0.0      15.9      64.1      9.67
   03/05/2020 21:30      59.5      58.6       37     32.8      0.00      7.89      63.7     0.48      1018.3     0.2     SSE   160   1.9      SW     229     266       -63       0.0      15.9      64.3      9.68
   03/05/2020 21:20      59.3      58.4       39     33.7      0.00      7.89      63.5     0.48      1018.3     0.0       S   181   0.9     SSE     156     266       -63       0.0      15.9      64.7      9.68
   03/05/2020 21:10      59.1      58.7       41     35.5      0.00      7.89      63.5     0.48      1018.3     0.3     ESE   119   1.0      SE     125     266       -64       0.0      15.9      65.0      9.68
   03/05/2020 21:00      59.0      58.6       45     37.5      0.00      7.89      63.5     0.48      1018.2     0.4     SSW   201   3.0      SW     234     266       -65       0.2      15.9      65.2      9.68
   03/05/2020 20:50      60.1      59.0       44     37.7      0.00      7.89      63.5     0.48      1018.2     0.3     SSE   160   1.6       S     189     266       -67       0.1      15.8      65.6      9.68
   03/05/2020 20:40      62.0      60.1       41     37.5      0.00      7.89      63.5     0.48      1018.3     0.0     ENE    77   0.7       E      80     266       -70       0.2      15.8      65.9      9.68
   03/05/2020 20:30      62.8      62.1       39     37.4      0.00      7.89      63.5     0.48      1018.2     0.8      SE   129   2.9      SW     233     266       -72       0.3      15.8      66.3      9.68
   03/05/2020 20:20      62.9      62.4       39     37.6      0.00      7.89      63.4     0.48      1018.2     0.8      SW   230   2.6       S     179     266       -73       0.2      15.7      66.6      9.69
   03/05/2020 20:10      63.5      62.8       39     37.9      0.00      7.89      63.4     0.48      1018.2     1.8      SW   228   3.6       W     264     266       -74       1.0      15.7      66.9      9.69
   03/05/2020 20:00      63.7      63.3       39     38.2      0.00      7.89      63.4     0.48      1018.1     3.3      SW   217   6.8     SSW     197     266       -75       2.0      15.5      67.4      9.69
   03/05/2020 19:50      63.9      63.5       38     37.9      0.00      7.89      63.3     0.48      1018.1     3.9     SSW   212   6.3      SW     230     266       -75       2.4      15.2      67.5      9.69
   03/05/2020 19:40      64.0      63.6       37     37.2      0.00      7.89      63.4     0.48      1018.1     3.4     SSW   211   7.3      SW     229     266       -76       1.9      14.8      67.8      9.70
   03/05/2020 19:30      64.5      64.0       37     37.6      0.00      7.89      63.3     0.48      1018.2     3.9     SSW   208   5.9      SW     222     266       -77       2.3      14.5      68.3      9.70
   03/05/2020 19:20      64.9      64.3       39     39.2      0.00      7.89      63.3     0.48      1018.1     4.2     SSW   209   7.3     SSW     205     266       -78       2.5      14.1      68.5      9.70
   03/05/2020 19:10      65.4      64.8       40     40.3      0.00      7.89      63.3     0.48      1018.0     3.4      SW   219   5.4      SW     228     266       -77       2.0      13.7      69.0      9.70
   03/05/2020 19:00      66.0      65.2       39     40.0      0.00      7.89      63.2     0.48      1017.9     2.6     SSW   213   4.4     SSW     206     266       -76       1.5      13.3      69.4      9.70
   03/05/2020 18:50      66.6      65.8       37     39.4      0.00      7.89      63.2     0.48      1018.0     1.9      SW   224   4.1     WSW     241     266       -76       1.0      13.1      69.8      9.71
   03/05/2020 18:40      67.6      66.6       35     38.3      0.00      7.89      63.1     0.48      1018.0     3.2      SW   234   5.9     WSW     248     265       -77       1.7      12.9      70.3      9.71
   03/05/2020 18:30      68.1      67.6       33     37.5      0.00      7.89      63.1     0.48      1018.0     4.3     WSW   243   7.6     WSW     247     265       -76       2.5      12.7      70.8      9.71
   03/05/2020 18:20      68.7      68.0       32     37.6      0.00      7.89      63.0     0.48      1017.9     3.7      SW   235   6.7     SSW     212     265       -76       2.2      12.2      71.1      9.72
   03/05/2020 18:10      69.7      68.7       32     38.3      0.00      7.89      63.0     0.48      1017.9     3.0      SW   236   4.8      SW     235     265       -76       1.7      11.9      71.5      9.72
   03/05/2020 18:00      70.3      69.6       31     37.6      0.00      7.89      63.0     0.48      1017.8     1.3       W   266   3.1     WNW     291     265       -75       0.5      11.6      71.9      9.72
   03/05/2020 17:50      71.1      70.3       28     36.3      0.00      7.89      62.9     0.48      1017.8     0.4      NW   317   1.6      NW     325     264       -70       0.2      11.5      72.3      9.73
   03/05/2020 17:40      71.5      71.0       27     36.0      0.00      7.89      62.9     0.48      1017.7     1.6     WNW   302   4.7       W     260     264       -57       1.0      11.5      72.7      9.73
   03/05/2020 17:30      72.2      71.4       27     36.3      0.00      7.89      62.8     0.48      1017.7     2.0     WNW   292   5.3      NW     313     264       -44       1.1      11.3      73.0      9.73
   03/05/2020 17:20      73.0      72.1       29     38.3      0.00      7.89      62.8     0.48      1017.6     2.6     WNW   303   6.2      NW     322     264       -34       1.2      11.1      73.5      9.74
   03/05/2020 17:10      73.7      72.9       29     39.1      0.00      7.89      62.8     0.48      1017.4     2.1     WNW   303   5.5     NNW     341     264       -23       1.2      10.9      73.9      9.74
   03/05/2020 17:00      74.0      73.5       28     38.3      0.00      7.89      62.7     0.48      1017.4     2.5     WNW   293   5.5     WSW     258     264        -4       1.8      10.7      74.0      9.74
   03/05/2020 16:50      75.2      74.1       26     37.5      0.00      7.89      62.6     0.48      1017.4     3.4     WNW   283   6.7     WSW     257     264         5       2.1      10.4      74.3      9.75
   03/05/2020 16:40      75.7      74.9       27     39.0      0.00      7.89      62.6     0.48      1017.4     2.6     WNW   296   6.4      NW     325     264        37       1.5      10.0      74.6      9.75
   03/05/2020 16:30      76.5      75.6       32     44.0      0.00      7.89      62.6     0.48      1017.4     3.1     WNW   299   6.6     NNW     331     264        21       1.7       9.8      74.8      9.76
   03/05/2020 16:20      77.5      76.4       38     49.1      0.00      7.89      62.4     0.48      1017.4     5.2     WSW   256   7.9      SW     235     265        54       3.6       9.5      75.0      9.76
   03/05/2020 16:10      77.8      77.3       36     48.1      0.00      7.89      61.9     0.48      1017.4     4.1     WSW   244   8.1     WSW     257     264        88       2.8       8.9      74.6      9.76
   03/05/2020 16:00      78.5      77.5       32     45.8      0.00      7.89      61.9     0.48      1017.3     5.1      SW   220   8.6       S     190     264        97       3.4       8.4      74.7      9.77
   03/05/2020 15:50      80.1      78.6       24     39.2      0.00      7.89      61.9     0.48      1017.3     4.4       S   190   8.9     SSW     197     263       148       2.8       7.9      74.6      9.77
   03/05/2020 15:40      80.0      79.3       21     36.0      0.00      7.89      61.8     0.48      1017.4     3.6       S   173   6.8     SSW     196     263       180       2.3       7.4      74.6      9.78
   03/05/2020 15:30      81.0      79.4       21     36.8      0.00      7.89      61.7     0.48      1017.4     4.5     SSW   199   7.6       S     178     263       127       3.1       7.0      74.7      9.78
   03/05/2020 15:20      81.1      80.5       22     39.0      0.00      7.89      61.9     0.48      1017.4     3.5       S   184   6.0       S     184     263       204       2.4       6.5      74.8      9.78
   03/05/2020 15:10      81.3      80.7       24     41.0      0.00      7.89      62.0     0.48      1017.5     3.0     SSE   151   5.7     SSW     196     264       214       1.9       6.1      74.8      9.79
   03/05/2020 15:00      81.5      80.7       25     41.6      0.00      7.89      61.8     0.48      1017.5     2.6     SSE   147   6.2       S     186     264       259       1.5       5.8      74.4      9.79
   03/05/2020 14:50      81.2      80.4       25     41.7      0.00      7.89      61.6     0.47      1017.6     2.7     ENE    64   5.4       E      93     264       280       1.6       5.5      73.9      9.79
   03/05/2020 14:40      82.3      81.2       25     42.8      0.00      7.89      61.4     0.47      1017.7     3.0       E    93   5.8     ESE     112     263       298       1.7       5.3      73.5      9.79
   03/05/2020 14:30      83.0      81.5       25     43.2      0.00      7.89      61.3     0.47      1017.7     2.0      SE   134   7.1      SE     137     263       329       1.4       5.0      73.0      9.79
   03/05/2020 14:20      82.4      81.5       24     41.3      0.00      7.89      61.1     0.47      1017.8     2.0     NNE    24   4.6       N       0     263       354       0.9       4.7      72.4      9.80
   03/05/2020 14:10      81.8      80.4       24     40.9      0.00      7.89      61.0     0.47      1018.0     1.4      NE    40   3.9      NE      41     263       270       0.7       4.6      72.0      9.80
   03/05/2020 14:00      82.2      80.4       24     40.6      0.00      7.89      60.9     0.47      1018.1     2.7     ESE   110   5.9     ESE     107     263       331       1.1       4.5      71.6      9.80
   03/05/2020 13:50      82.3      81.3       23     40.4      0.00      7.89      61.1     0.47      1018.2     1.5       E    82   4.7      SE     127     263       356       1.1       4.3      71.1      9.80
   03/05/2020 13:40      82.0      80.5       22     39.0      0.00      7.89      61.7     0.47      1018.4     1.5      NE    48   4.1     NNE      30     263       383       0.9       4.1      71.2      9.80
   03/05/2020 13:30      82.3      80.7       22     39.5      0.00      7.89      61.8     0.47      1018.6     1.9      SE   128   5.9      SE     137     263       426       1.3       4.0      70.6      9.81
   03/05/2020 13:20      81.9      81.0       21     37.9      0.00      7.89      61.8     0.47      1018.8     1.3      NW   311   3.7     WNW     292     263       342       1.0       3.7      70.0      9.81
   03/05/2020 13:10      81.7      80.9       22     38.3      0.00      7.89      61.8     0.47      1019.1     1.6       N   354   4.2     NNW     332     263       420       0.7       3.6      69.5      9.81
   03/05/2020 13:00      81.1      80.0       22     38.9      0.00      7.89      61.9     0.47      1019.4     1.3     NNE    27   3.5       N       7     263       449       0.6       3.5      68.9      9.81
   03/05/2020 12:50      80.6      79.5       22     38.1      0.00      7.89      61.8     0.47      1019.6     2.4       W   273   5.1       W     274     263       454       1.5       3.4      68.3      9.81
   03/05/2020 12:40      80.2      79.6       23     39.2      0.00      7.89      61.5     0.47      1019.8     2.1     WNW   289   4.1       W     262     263       465       1.7       3.1      67.4      9.81
   03/05/2020 12:30      79.8      78.4       25     40.1      0.00      7.89      61.5     0.47      1020.0     1.3     NNW   335   3.7      NE      35     263       457       1.1       2.8      66.8      9.81
   03/05/2020 12:20      79.6      77.9       25     40.2      0.00      7.89      61.5     0.47      1020.2     0.8     NNW   337   3.0      NW     308     263       436       0.5       2.6      66.2      9.81
   03/05/2020 12:10      77.9      76.9       27     40.3      0.00      7.89      61.4     0.47      1020.4     1.1     NNE    18   2.6     NNE      14     263       455       0.8       2.6      65.4      9.81
   03/05/2020 12:00      77.5      76.6       28     41.1      0.00      7.89      61.4     0.47      1020.6     1.4      NW   323   4.3     WSW     243     263       465       0.9       2.4      64.6      9.81
   03/05/2020 11:50      76.7      75.4       29     41.3      0.00      7.89      61.3     0.47      1020.9     1.3     ENE    74   3.2     ESE     114     264       482       1.1       2.3      63.9      9.82
   03/05/2020 11:40      75.4      74.6       32     43.4      0.00      7.89      61.4     0.47      1021.0     1.7       N     9   4.2     NNW     340     264       445       0.7       2.1      63.1      9.82
   03/05/2020 11:30      74.9      73.8       34     44.1      0.00      7.89      61.3     0.47      1021.1     1.7       N    11   4.6       N       5     265       448       0.7       2.0      62.3      9.82
   03/05/2020 11:20      74.5      73.8       35     44.7      0.00      7.89      61.3     0.47      1021.2     1.8       E    89   4.3      NE      55     264       448       1.2       1.9      61.6      9.82
   03/05/2020 11:10      74.2      73.1       36     44.7      0.00      7.89      61.3     0.47      1021.3     1.7      NE    44   3.6      NW     319     265       456       0.8       1.7      60.7      9.82
   03/05/2020 11:00      73.4      71.8       36     44.4      0.00      7.89      61.3     0.47      1021.3     1.1     NNE    21   3.0     NNW     342     265       466       0.5       1.5      59.9      9.82
   03/05/2020 10:50      72.5      71.3       38     44.8      0.00      7.89      61.3     0.47      1021.4     1.2     ESE   122   2.9     ESE     108     266       398       1.1       1.4      59.2      9.82
   03/05/2020 10:40      71.3      69.2       40     45.4      0.00      7.89      61.3     0.47      1021.5     1.3     ENE    67   3.8       E      90     265       395       0.9       1.2      58.5      9.83
   03/05/2020 10:30      69.7      68.8       44     46.4      0.00      7.89      61.4     0.47      1021.5     1.8     NNE    27   4.0     NNW     340     266       425       0.6       1.1      58.0      9.83
   03/05/2020 10:20      68.6      67.9       48     47.8      0.00      7.89      61.4     0.47      1021.6     1.4       N     2   3.4       N     355     266       379       0.3       1.0      57.4      9.83
   03/05/2020 10:10      68.3      66.7       50     48.3      0.00      7.89      61.4     0.47      1021.7     1.2     NNE    29   3.6     ENE      66     266       390       0.7       0.9      56.8      9.83
   03/05/2020 10:00      67.2      65.9       51     48.3      0.00      7.89      61.4     0.47      1021.8     0.9     NNE    13   2.0     NNE      23     266       376       0.4       0.8      56.2      9.83
   03/05/2020 09:50      65.9      64.4       54     48.1      0.00      7.89      61.4     0.47      1021.8     1.1      NE    39   2.8     NNE      27     266       337       0.4       0.8      55.7      9.83
   03/05/2020 09:40      64.4      63.7       55     47.8      0.00      7.89      61.5     0.47      1021.8     1.6     NNE    12   3.6     NNE      20     267       328       0.4       0.7      55.2      9.83
   03/05/2020 09:30      63.8      63.2       58     48.3      0.00      7.89      61.5     0.47      1022.0     1.2     NNE    31   2.7     ENE      64     270       318       0.5       0.6      54.7      9.83
   03/05/2020 09:20      63.2      61.4       61     48.6      0.00      7.89      61.5     0.47      1022.0     1.0     NNE    28   2.8       N       9     285       303       0.2       0.6      54.4      9.83
   03/05/2020 09:10      61.5      61.0       63     48.6      0.00      7.89      61.5     0.47      1022.0     1.1       N     9   2.7       N     355     296       280       0.3       0.5      54.0      9.84
   03/05/2020 09:00      61.0      60.3       64     48.5      0.00      7.89      61.6     0.47      1022.0     1.0     NNE    25   2.6     NNW     345     305       269       0.2       0.5      53.7      9.84
   03/05/2020 08:50      60.6      59.3       66     48.5      0.00      7.89      61.6     0.47      1022.1     0.9     NNE    26   2.7     NNE      21     317       267       0.1       0.4      53.3      9.84
   03/05/2020 08:40      59.4      58.7       67     48.2      0.00      7.89      61.7     0.47      1022.2     0.7       N     5   1.9      NE      35     321       282       0.0       0.4      53.0      9.85
   03/05/2020 08:20      58.2      56.4       70     47.5      0.00      7.89      61.8     0.47      1022.1     0.4      NE    50   2.1     ENE      64     344       282       0.0       0.4      51.1     10.00
   03/05/2020 08:10      56.4      55.0       75     47.6      0.00      7.89      61.7     0.47      1022.0     0.6       E    82   1.8     ESE     104     378       255       0.2       0.4      50.9      9.36
   03/05/2020 08:00      55.0      53.2       81     48.3      0.00      7.89      61.9     0.47      1022.0     0.2     ENE    75   1.4       E      82     389       213       0.1       0.3      50.5      9.36
   03/05/2020 07:50      53.4      51.4       87     48.5      0.00      7.89      61.9     0.47      1022.0     0.0       N     0   0.0      NE      47     398       161       0.0       0.3      50.5      9.36
   03/05/2020 07:40      51.2      50.0       90     47.9      0.00      7.89      61.9     0.47      1021.9     0.0      NW   304   1.0     WNW     299     406       124       0.0       0.3      50.4      9.36
   03/05/2020 07:30      50.2      49.0       92     47.5      0.00      7.89      62.0     0.47      1021.8     0.0     NNE    13   0.5     NNE      13     411        85       0.0       0.3      50.3      9.36
   03/05/2020 07:20      49.3      46.8       94     46.5      0.00      7.89      62.0     0.48      1021.8     0.0       N     0   0.0      SW     228     414        50       0.0       0.3      50.3      9.36
   03/05/2020 07:10      46.9      45.3       94     44.5      0.00      7.89      62.0     0.48      1021.8     0.0       N     0   0.0     WSW     243     415        33       0.0       0.3      50.3      9.36
   03/05/2020 07:00      45.1      44.4       94     42.9      0.00      7.89      62.1     0.48      1021.7     0.4     WSW   240   0.9     WSW     243     415        17       0.1       0.3      50.4      9.36
   03/05/2020 06:50      44.7      44.4       94     42.9      0.00      7.89      62.1     0.48      1021.7     0.0     SSE   160   0.3     SSE     160     415         6       0.0       0.3      50.4      9.36
   03/05/2020 06:40      44.7      43.9       93     42.3      0.00      7.89      62.2     0.48      1021.7     0.3     SSE   151   1.4      SE     146     413        -0       0.0       0.3      50.5      9.36
   03/05/2020 06:30      44.7      44.0       94     42.6      0.00      7.89      62.2     0.48      1021.6     0.5     SSW   193   1.2     WSW     252     412        -6       0.0       0.3      50.6      9.36
   03/05/2020 06:20      44.5      43.9       93     42.3      0.00      7.89      62.3     0.48      1021.5     0.0     SSE   149   0.6     SSE     148     411       -11       0.0       0.3      50.9      9.36
   03/05/2020 06:10      44.9      44.5       93     42.8      0.00      7.89      62.3     0.48      1021.5     0.0     SSE   157   0.5     SSE     160     409       -13       0.0       0.3      51.0      9.36
   03/05/2020 06:00      44.8      44.4       93     42.8      0.00      7.89      62.3     0.48      1021.5     0.1     SSE   160   0.7     SSE     160     408       -13       0.0       0.3      51.3      9.36
   03/05/2020 05:50      44.8      44.2       93     42.6      0.00      7.89      62.3     0.48      1021.5     0.2     SSE   162   0.6     SSE     160     406       -14       0.0       0.3      51.4      9.36
   03/05/2020 05:40      44.8      44.3       93     42.6      0.00      7.89      62.4     0.48      1021.5     0.0     SSE   152   0.5     SSE     153     404       -14       0.0       0.3      51.6      9.36
   03/05/2020 05:30      45.3      44.8       93     43.1      0.00      7.89      62.4     0.48      1021.5     0.0     SSE   154   0.5     SSE     153     401       -14       0.0       0.3      51.8      9.36
   03/05/2020 05:20      45.6      45.0       93     43.3      0.00      7.89      62.4     0.48      1021.5     0.0       N     0   0.0       S     172     397       -14       0.0       0.3      52.0      9.36
   03/05/2020 05:10      45.7      45.1       93     43.5      0.00      7.89      62.5     0.48      1021.4     0.0       S   176   0.7       S     179     396       -14       0.0       0.3      52.3      9.36
   03/05/2020 05:00      45.6      45.0       93     43.3      0.00      7.89      62.6     0.48      1021.4     0.0     SSE   157   0.3     SSE     146     395       -15       0.0       0.3      52.5      9.36
   03/05/2020 04:50      45.6      45.0       92     43.1      0.00      7.89      62.6     0.48      1021.4     0.0      SE   144   0.5      SE     144     392       -15       0.0       0.3      52.6      9.36
   03/05/2020 04:40      45.7      45.3       92     43.4      0.00      7.89      62.5     0.48      1021.4     0.0     SSE   151   0.5     SSE     162     389       -15       0.0       0.3      52.9      9.36
   03/05/2020 04:30      45.9      45.4       92     43.4      0.00      7.89      62.6     0.48      1021.5     0.1     SSE   150   0.7     SSE     148     386       -16       0.0       0.3      53.1      9.36
   03/05/2020 04:20      45.9      45.0       92     43.5      0.00      7.89      62.6     0.48      1021.5     0.2     SSE   164   0.8     SSE     149     381       -16       0.0       0.3      53.3      9.36
   03/05/2020 04:10      45.0      44.5       92     42.5      0.00      7.89      62.7     0.48      1021.4     0.2     SSE   164   0.9     SSE     159     378       -17       0.0       0.3      53.5      9.36
   03/05/2020 04:00      45.5      45.0       92     42.9      0.00      7.89      62.8     0.48      1021.3     0.6     SSE   149   1.7      SE     142     376       -17       0.1       0.3      53.6      9.37
   03/05/2020 03:50      45.9      44.9       92     42.9      0.00      7.89      62.8     0.48      1021.3     0.6     SSE   154   1.3      SE     144     374       -18       0.0       0.2      53.9      9.37
   03/05/2020 03:40      46.0      45.0       91     43.1      0.00      7.89      62.9     0.48      1021.3     0.4     SSE   150   1.3      SE     144     371       -18       0.0       0.2      54.1      9.37
   03/05/2020 03:30      46.1      45.6       91     43.5      0.00      7.89      62.9     0.48      1021.3     0.0       S   181   0.9       S     184     366       -18       0.0       0.2      54.4      9.37
   03/05/2020 03:20      46.0      45.4       91     43.2      0.00      7.89      62.9     0.48      1021.4     0.3     SSE   158   0.9     SSE     152     364       -19       0.0       0.2      54.6      9.37
   03/05/2020 03:10      46.0      45.6       91     43.3      0.00      7.89      62.9     0.48      1021.4     0.2     SSE   155   0.8     SSE     147     360       -19       0.0       0.2      54.9      9.37
   03/05/2020 03:00      46.2      45.6       90     43.3      0.00      7.89      63.0     0.48      1021.4     0.4     SSE   154   1.3      SE     139     354       -20       0.0       0.2      55.0      9.37
   03/05/2020 02:50      46.3      45.9       90     43.4      0.00      7.89      63.0     0.48      1021.4     0.3       S   187   1.2     SSW     198     352       -20       0.2       0.2      55.3      9.37
   03/05/2020 02:40      46.7      46.3       90     43.8      0.00      7.89      63.0     0.48      1021.4     0.4     SSE   158   1.0     SSE     148     346       -20       0.0       0.2      55.5      9.37
   03/05/2020 02:30      46.5      46.0       90     43.5      0.00      7.89      63.0     0.48      1021.5     1.1       S   187   1.7       S     186     341       -19       0.3       0.2      55.7      9.37
   03/05/2020 02:20      46.9      46.3       90     43.7      0.00      7.89      63.1     0.48      1021.6     0.1       S   172   1.0       S     184     337       -21       0.0       0.1      56.0      9.37
   03/05/2020 02:10      47.1      46.7       89     43.9      0.00      7.89      63.6     0.48      1021.7     0.3       S   184   0.7     SSE     164     332       -21       0.0       0.1      56.7      9.37
   03/05/2020 02:00      47.5      46.9       89     44.1      0.00      7.89      63.6     0.48      1021.7     0.0     SSE   157   0.6     SSE     157     327       -22       0.0       0.1      56.9      9.37
   03/05/2020 01:50      47.8      47.4       89     44.4      0.00      7.89      63.4     0.48      1021.7     0.0       N     0   0.0       S     171     323       -22       0.0       0.1      57.1      9.37
   03/05/2020 01:40      48.0      47.5       89     44.5      0.00      7.89      63.0     0.48      1021.7     0.0       S   179   0.5       S     177     319       -23       0.0       0.1      56.8      9.37
   03/05/2020 01:30      48.0      47.2       88     44.3      0.00      7.89      62.7     0.48      1021.7     0.0     SSE   160   0.5     SSE     160     315       -24       0.0       0.1      56.8      9.37
   03/05/2020 01:20      47.8      47.2       88     43.9      0.00      7.89      62.8     0.48      1021.8     0.5     SSE   157   1.5      SE     145     311       -25       0.1       0.1      57.1      9.38
   03/05/2020 01:10      48.5      47.7       88     44.6      0.00      7.89      62.8     0.48      1021.8     0.6     SSE   161   1.3      SE     145     308       -26       0.3       0.1      57.4      9.38
   03/05/2020 01:00      48.5      47.6       88     44.5      0.00      7.89      62.8     0.48      1021.8     0.5       S   171   1.0     SSE     169     305       -27       0.0       0.0      57.7      9.38
   03/05/2020 00:50      48.4      47.6       87     44.2      0.00      7.89      62.9     0.48      1021.8     0.2     SSE   158   1.0     SSE     154     301       -29       0.0       0.0      57.9      9.38
   03/05/2020 00:40      48.1      47.8       87     44.1      0.00      7.89      62.8     0.48      1021.8     0.0     SSE   154   0.6     SSE     154     297       -30       0.0       0.0      58.2      9.38
   03/05/2020 00:30      48.1      47.8       86     44.0      0.00      7.89      62.9     0.48      1021.8     0.2     SSE   161   0.8     SSE     151     292       -32       0.0       0.0      58.4      9.38
   03/05/2020 00:20      48.6      47.8       85     44.0      0.00      7.89      62.9     0.48      1021.7     0.5     SSE   147   1.3     SSE     147     290       -33       0.0       0.0      58.6      9.38
   03/05/2020 00:10      49.1      48.3       85     44.4      0.00      7.89      63.0     0.48      1021.7     0.8     SSE   153   1.3     SSE     147     287       -34       0.3       0.0      58.9      9.38
   03/05/2020 00:00      49.3      48.6       85     44.6      0.00      7.89      63.0     0.48      1021.7     0.9       S   180   1.5     SSW     194     286       -34       0.2      13.7      59.1      9.38
   03/04/2020 23:50      49.3      48.5       85     44.5      0.00      7.89      63.0     0.48      1021.7     0.3     SSE   158   0.9     SSE     147     286       -36       0.0      13.6      59.4      9.38
   03/04/2020 23:40      50.0      49.3       84     45.1      0.00      7.89      63.3     0.48      1021.8     0.5     SSE   159   1.1       S     171     282       -37       0.0      13.6      60.0      9.38
   03/04/2020 23:30      49.9      49.5       84     45.0      0.00      7.89      63.4     0.48      1021.8     0.4       S   172   0.9     SSE     155     279       -39       0.0      13.6      60.4      9.38
   03/04/2020 23:20      50.5      49.9       83     45.1      0.00      7.89      63.4     0.48      1021.8     0.1       S   172   1.0       S     170     276       -41       0.0      13.6      60.7      9.38
   03/04/2020 23:10      50.5      50.2       82     45.1      0.00      7.89      63.5     0.48      1021.9     0.4     SSE   163   1.3       S     174     274       -42       0.0      13.6      61.1      9.38
   03/04/2020 23:00      50.8      50.2       82     45.2      0.00      7.89      63.7     0.48      1021.8     0.4     SSE   165   1.1       S     191     274       -43       0.0      13.6      61.5      9.38
   03/04/2020 22:50      50.9      50.4       83     45.7      0.00      7.89      63.7     0.48      1021.7     0.0     SSW   209   1.1     SSW     210     275       -44       0.1      13.6      61.8      9.38
   03/04/2020 22:40      50.5      49.9       84     45.4      0.00      7.89      63.7     0.48      1021.6     0.3     SSE   159   1.3     SSE     154     275       -46       0.0      13.6      62.1      9.39
   03/04/2020 22:30      51.2      50.0       83     45.7      0.00      7.89      63.8     0.48      1021.6     0.4     SSE   168   1.3     SSE     164     274       -47       0.0      13.6      62.4      9.39
   03/04/2020 22:20      51.6      50.7       83     46.3      0.00      7.89      63.8     0.48      1021.5     0.5     SSE   160   1.3     SSE     152     273       -48       0.4      13.6      62.7      9.39
   03/04/2020 22:10      51.7      51.3       83     46.6      0.00      7.89      63.8     0.48      1021.5     0.5       S   181   1.7      SW     224     273       -49       0.0      13.5      62.9      9.39
   03/04/2020 22:00      52.1      51.6       84     47.2      0.00      7.89      63.8     0.48      1021.4     0.5     SSE   157   1.5     SSE     147     273       -51       0.0      13.5      63.4      9.39
   03/04/2020 21:50      52.0      51.6       84     47.2      0.00      7.89      63.8     0.48      1021.3     0.5     SSE   158   1.2       S     171     269       -54       0.0      13.5      63.7      9.39
   03/04/2020 21:40      52.2      51.6       84     47.1      0.00      7.89      63.7     0.48      1021.3     0.6     SSE   161   1.2     SSE     159     267       -57       0.0      13.5      63.9      9.39
   03/04/2020 21:30      52.2      51.8       83     47.1      0.00      7.89      63.8     0.48      1021.3     0.6     SSE   146   1.6     ESE     124     266       -59       0.0      13.5      64.3      9.39
   03/04/2020 21:20      52.4      51.8       83     46.9      0.00      7.89      63.9     0.48      1021.2     0.7     SSE   154   1.8     SSE     148     268       -62       0.0      13.5      64.6      9.39
   03/04/2020 21:10      52.4      52.1       82     47.0      0.00      7.89      63.8     0.48      1021.1     0.5     SSE   161   1.1     SSE     163     268       -64       0.0      13.5      64.9      9.39
   03/04/2020 21:00      52.7      52.2       81     46.9      0.00      7.89      63.9     0.48      1021.1     0.5     SSE   151   1.3      SE     137     270       -66       0.0      13.5      65.2      9.39
   03/04/2020 20:50      53.3      52.7       81     47.0      0.00      7.89      63.7     0.48      1021.0     0.5     SSE   163   1.0     SSE     149     271       -67       0.0      13.5      65.4      9.40
   03/04/2020 20:40      53.6      52.9       80     47.3      0.00      7.89      63.7     0.48      1020.9     0.4     SSE   164   1.2     SSE     164     270       -66       0.0      13.5      65.8      9.40
   03/04/2020 20:30      53.8      53.0       79     47.0      0.00      7.89      63.7     0.48      1020.8     0.7     SSE   160   1.6      SE     146     271       -67       0.0      13.5      66.1      9.40
   03/04/2020 20:20      55.1      53.7       77     47.3      0.00      7.89      63.7     0.48      1020.8     0.5     SSE   160   1.1      SE     145     270       -68       0.0      13.5      66.5      9.40
   03/04/2020 20:10      55.6      55.0       75     47.6      0.00      7.89      63.8     0.48      1020.7     0.6       S   184   1.5       S     186     270       -69       0.0      13.5      66.8      9.40
   03/04/2020 20:00      56.2      55.5       73     47.3      0.00      7.89      63.6     0.48      1020.6     0.4       S   187   1.5       S     182     269       -69       0.3      13.5      67.4      9.40
   03/04/2020 19:50      56.9      56.2       72     47.7      0.00      7.89      63.6     0.48      1020.5     0.3     SSW   202   1.1     SSW     197     269       -70       0.0      13.4      67.5      9.40
   03/04/2020 19:40      57.5      56.8       71     47.7      0.00      7.89      63.6     0.48      1020.4     0.0     SSE   158   0.0     SSE     158     269       -73       0.0      13.4      68.0      9.41
   03/04/2020 19:30      58.3      57.4       69     47.6      0.00      7.89      63.5     0.48      1020.4     0.0     SSE   159   0.2     SSE     159     269       -73       0.0      13.4      68.3      9.41
   03/04/2020 19:20      58.6      58.2       67     47.7      0.00      7.89      63.5     0.48      1020.3     0.3     ESE   102   1.3       E      97     268       -73       0.0      13.4      68.6      9.41
   03/04/2020 19:10      59.7      58.4       66     47.5      0.00      7.89      63.5     0.48      1020.3     0.5      SE   140   1.5     SSE     163     268       -74       0.0      13.4      68.8      9.41
   03/04/2020 19:00      60.3      59.4       64     47.7      0.00      7.89      63.4     0.48      1020.2     0.7       E    93   3.2       N       8     267       -75       0.3      13.4      69.2      9.41
   03/04/2020 18:50      60.7      60.2       62     47.5      0.00      7.89      63.4     0.48      1020.1     0.7     ENE    59   2.3      NE      41     268       -75       0.0      13.3      69.6      9.41
   03/04/2020 18:40      61.5      60.5       61     47.4      0.00      7.89      63.3     0.48      1020.0     0.3       E    81   1.7     ENE      62     267       -77       0.0      13.3      69.8      9.41
   03/04/2020 18:30      62.3      61.3       60     47.5      0.00      7.89      63.3     0.48      1019.9     1.0     ENE    66   2.4     ENE      57     267       -78       0.2      13.3      70.2      9.42
   03/04/2020 18:20      63.0      62.1       58     47.5      0.00      7.89      63.2     0.48      1019.8     1.6      NE    49   3.2     ENE      67     267       -79       0.0      13.3      70.5      9.42
   03/04/2020 18:10      63.5      62.9       56     47.0      0.00      7.89      63.1     0.48      1019.8     1.2      NE    40   2.7     ENE      77     266       -80       0.0      13.3      71.0      9.42
   03/04/2020 18:00      64.6      63.5       54     46.8      0.00      7.89      63.1     0.48      1019.7     1.2      NE    49   2.5     NNE      15     266       -79       0.0      13.3      71.3      9.42
   03/04/2020 17:50      65.4      64.4       51     46.6      0.00      7.89      63.0     0.48      1019.5     1.5      NE    52   2.5     ENE      64     266       -75       0.2      13.3      71.5      9.42
   03/04/2020 17:40      66.3      65.4       51     47.1      0.00      7.89      63.0     0.48      1019.4     1.1     ENE    68   3.1     NNE      33     266       -68       0.4      13.2      71.9      9.42
   03/04/2020 17:30      67.1      66.2       47     45.9      0.00      7.89      62.8     0.48      1019.4     1.0     SSE   149   2.3       S     187     266       -65       0.3      13.2      72.2      9.42
   03/04/2020 17:20      67.9      67.0       45     45.6      0.00      7.89      62.8     0.48      1019.3     1.3     SSE   169   3.1     SSE     165     266       -56       0.8      13.1      72.6      9.43
   03/04/2020 17:10      68.3      67.7       45     45.8      0.00      7.89      62.8     0.48      1019.3     1.8     SSE   155   4.1      SE     133     266       -30       1.1      13.0      72.8      9.43
   03/04/2020 17:00      68.7      68.2       44     45.6      0.00      7.89      62.9     0.48      1019.2     2.4     SSE   166   4.2     SSW     191     266        -8       1.4      12.8      73.4      9.43
   03/04/2020 16:50      69.1      68.5       43     45.6      0.00      7.89      63.3     0.48      1019.2     2.8       S   173   4.8       S     189     265        23       1.9      12.6      74.1      9.44
   03/04/2020 16:40      69.8      69.0       42     45.5      0.00      7.89      63.2     0.48      1019.2     2.9       S   176   5.0       S     169     266        37       2.1      12.3      74.2      9.44
   03/04/2020 16:30      69.8      69.0       40     44.1      0.00      7.89      63.1     0.48      1019.2     3.2       S   176   6.3       S     189     265        70       2.2      11.9      74.4      9.44
   03/04/2020 16:20      70.6      69.5       39     44.1      0.00      7.89      63.1     0.48      1019.1     3.7       S   180   6.7       S     173     265        96       2.7      11.5      74.5      9.44
   03/04/2020 16:10      70.8      70.1       39     44.4      0.00      7.89      63.0     0.48      1019.0     3.6       S   172   6.9       S     180     265       123       2.3      11.1      74.6      9.44
   03/04/2020 16:00      71.4      70.3       39     44.4      0.00      7.89      62.7     0.48      1018.9     3.9       S   184   6.4       S     186     265       147       2.7      10.7      74.2      9.45
   03/04/2020 15:50      71.4      70.7       37     43.3      0.00      7.89      61.8     0.48      1018.8     3.8       S   178   6.6     SSE     168     264       182       2.7      10.3      73.3      9.45
   03/04/2020 15:40      71.7      71.0       38     44.6      0.00      7.89      61.6     0.48      1018.8     4.4       S   184   8.0       S     181     265       200       3.0       9.8      73.2      9.45
   03/04/2020 15:30      71.9      71.4       38     45.0      0.00      7.89      61.5     0.48      1018.8     4.2       S   190   7.5       S     183     265       208       2.9       9.3      73.0      9.45
   03/04/2020 15:20      72.4      71.4       39     45.8      0.00      7.89      61.3     0.48      1018.8     5.4     SSW   204   9.7      SW     224     264       222       3.7       8.8      72.9      9.46
   03/04/2020 15:10      72.7      72.2       39     45.9      0.00      7.89      61.2     0.48      1018.7     3.7       S   182   7.3     SSE     165     265       200       2.5       8.2      72.7      9.46
   03/04/2020 15:00      74.2      72.3       38     45.8      0.00      7.89      61.0     0.48      1018.7     4.8       S   181   8.2     SSW     193     264       256       3.3       7.8      72.3      9.46
   03/04/2020 14:50      74.3      73.4       37     45.6      0.00      7.89      61.0     0.48      1018.7     4.1       S   187   7.1      SW     225     264       283       3.0       7.2      72.2      9.46
   03/04/2020 14:40      74.3      73.3       35     44.6      0.00      7.89      61.0     0.47      1018.7     2.6     SSE   167   6.4       S     186     264       290       2.0       6.7      71.6      9.46
   03/04/2020 14:30      74.9      73.5       36     45.3      0.00      7.89      60.9     0.47      1018.7     3.3      SE   137   6.2      SE     144     264       348       2.1       6.4      71.3      9.47
   03/04/2020 14:20      76.5      74.8       36     46.9      0.00      7.89      60.7     0.47      1018.7     2.8     SSE   168   6.7     SSW     202     264       354       2.0       6.0      70.9      9.47
   03/04/2020 14:10      76.1      75.3       36     46.5      0.00      7.89      60.7     0.47      1018.8     2.0      NE    34   5.4     ENE      60     264       336       0.9       5.7      70.4      9.47
   03/04/2020 14:00      75.9      74.8       34     44.9      0.00      7.89      60.6     0.47      1019.0     1.9      NE    53   4.5       E      86     263       368       1.2       5.5      70.0      9.47
   03/04/2020 13:50      75.5      74.6       31     42.8      0.00      7.89      60.6     0.47      1019.0     2.1       E    89   4.7     ESE     103     263       377       1.3       5.3      69.5      9.47
   03/04/2020 13:40      75.6      74.3       31     42.0      0.00      7.89      60.6     0.47      1019.0     2.1     NNE    21   5.8      NE      56     263       410       1.1       5.1      69.0      9.47
   03/04/2020 13:30      75.4      74.9       31     42.3      0.00      7.89      60.8     0.47      1019.2     1.9     NNE    15   4.8     ESE     108     263       420       0.8       4.9      68.7      9.47
   03/04/2020 13:20      75.7      74.9       30     41.9      0.00      7.89      62.0     0.47      1019.3     2.3     NNE    18   6.0     ENE      73     263       434       1.1       4.8      69.3      9.47
   03/04/2020 13:10      75.4      73.8       30     40.9      0.00      7.89      61.9     0.47      1019.5     2.0      NE    42   4.7     ENE      63     263       435       1.1       4.6      68.6      9.47
   03/04/2020 13:00      74.4      73.8       30     40.6      0.00      7.89      61.9     0.47      1019.7     2.5     ENE    70   5.4     ENE      75     263       443       1.4       4.4      67.9      9.48
   03/04/2020 12:50      74.9      74.0       30     40.8      0.00      7.89      61.8     0.47      1019.8     2.3     ENE    62   5.5      NE      37     263       456       1.2       4.2      67.1      9.48
   03/04/2020 12:40      75.0      73.7       31     41.7      0.00      7.89      61.8     0.47      1019.9     2.0     NNE    32   5.5     SSE     151     263       447       1.1       4.0      66.4      9.48
   03/04/2020 12:30      74.0      73.2       31     41.1      0.00      7.89      61.5     0.47      1020.1     2.4      NE    39   4.4      NE      53     264       451       1.2       3.8      65.5      9.48
   03/04/2020 12:20      73.1      72.1       35     43.1      0.00      7.89      60.5     0.47      1020.2     2.5     NNE    30   5.2       E      87     264       460       1.1       3.6      63.8      9.48
   03/04/2020 12:10      72.8      71.3       36     43.9      0.00      7.89      60.5     0.47      1020.4     2.4      NE    41   6.4     ENE      59     264       446       1.0       3.4      63.1      9.48
   03/04/2020 12:00      72.4      71.3       38     44.5      0.00      7.89      60.6     0.47      1020.5     2.1     NNE    32   4.6      NE      38     264       464       0.9       3.3      62.4      9.48
   03/04/2020 11:50      72.1      71.2       37     44.3      0.00      7.89      60.6     0.47      1020.6     2.3      NE    42   5.0     ENE      62     264       459       1.1       3.1      61.6      9.48
   03/04/2020 11:40      71.5      70.1       39     44.6      0.00      7.89      60.6     0.47      1020.7     1.9     NNE    25   3.7      NE      39     264       444       0.9       2.9      61.0      9.48
   03/04/2020 11:30      70.1      69.0       40     44.2      0.00      7.89      60.6     0.47      1020.8     1.8       N    10   5.3       N       3     264       445       0.6       2.8      60.2      9.48
   03/04/2020 11:20      69.2      68.2       43     45.1      0.00      7.89      60.7     0.47      1021.0     2.6     ENE    65   5.1     ESE     103     264       448       1.2       2.7      59.5      9.48
   03/04/2020 11:10      69.2      68.0       43     44.9      0.00      7.89      60.9     0.47      1021.0     2.0       E    82   5.0     ESE     108     265       447       1.5       2.5      58.8      9.48
   03/04/2020 11:00      68.1      67.3       45     45.7      0.00      7.89      60.9     0.47      1021.1     2.2     NNE    28   5.2     NNE      23     265       433       0.6       2.2      57.9      9.48
   03/04/2020 10:50      68.0      67.1       46     46.0      0.00      7.89      61.0     0.47      1021.1     2.2      NE    42   5.0     ENE      62     265       420       1.0       2.1      57.3      9.48
   03/04/2020 10:40      67.5      66.6       47     46.2      0.00      7.89      61.0     0.47      1021.1     2.0     NNE    27   4.1      NE      36     265       421       0.7       2.0      56.8      9.48
   03/04/2020 10:30      66.8      65.6       49     46.3      0.00      7.89      61.2     0.47      1021.2     1.8     ENE    69   3.7     NNE      31     266       409       1.2       1.9      56.1      9.48
   03/04/2020 10:20      65.5      64.9       51     46.8      0.00      7.89      61.1     0.47      1021.2     2.0      NE    35   5.0     NNE      24     266       392       1.0       1.7      55.6      9.49
   03/04/2020 10:10      65.2      64.2       52     46.6      0.00      7.89      61.2     0.47      1021.2     1.8      NE    50   4.0       E      92     266       367       1.0       1.5      54.9      9.49
   03/04/2020 10:00      64.3      63.1       54     46.4      0.00      7.89      61.2     0.47      1021.2     2.2      NE    37   4.9      NE      47     266       366       0.8       1.3      54.3      9.49
   03/04/2020 09:50      64.1      62.8       56     47.1      0.00      7.89      61.2     0.47      1021.2     2.0     NNE    22   4.6     ENE      60     266       365       0.8       1.2      53.8      9.49
   03/04/2020 09:40      63.5      62.4       57     47.5      0.00      7.89      61.3     0.47      1021.2     1.3     NNE    24   3.6      NE      51     266       344       0.8       1.1      53.2      9.49
   03/04/2020 09:30      63.4      62.2       58     47.7      0.00      7.89      61.4     0.47      1021.2     1.2       E    89   3.1     ESE     111     266       324       0.7       0.9      52.8      9.49
   03/04/2020 09:20      62.5      61.0       59     47.3      0.00      7.89      61.5     0.47      1021.2     1.1      NE    46   2.8      NE      52     266       313       0.4       0.8      52.3      9.49
   03/04/2020 09:10      61.4      60.3       59     46.5      0.00      7.89      61.4     0.47      1021.2     0.9     ENE    71   3.1      SE     136     266       287       0.6       0.7      51.9      9.49
   03/04/2020 09:00      60.6      59.3       60     45.9      0.00      7.89      61.6     0.47      1021.2     1.3      NE    50   3.8       E      97     266       278       0.4       0.7      51.5      9.49
   03/04/2020 08:50      59.5      58.4       61     45.2      0.00      7.89      61.5     0.47      1021.2     1.6      NE    41   3.4     NNE      31     266       261       0.2       0.6      51.1      9.49
   03/04/2020 08:40      58.6      57.5       61     44.6      0.00      7.89      61.6     0.47      1021.2     1.4     NNE    21   3.5       N       0     266       245       0.2       0.5      51.0      9.49
   03/04/2020 08:30      58.0      56.9       59     43.3      0.00      7.89      61.7     0.47      1021.1     1.2      NE    49   2.5     NNE      33     266       224       0.2       0.5      50.7      9.49
   03/04/2020 08:20      57.4      56.9       57     42.3      0.00      7.89      61.6     0.47      1021.0     0.9     NNE    31   2.0       N       7     266       204       0.3       0.5      50.4      9.49
   03/04/2020 08:10      57.5      56.9       55     41.3      0.00      7.89      61.8     0.47      1020.9     1.1     ENE    76   2.9       E      90     268       180       0.4       0.4      50.2      9.49
   03/04/2020 08:00      57.7      57.3       53     40.6      0.00      7.89      61.8     0.47      1020.9     0.6     ENE    72   2.4       E      94     269       146       0.2       0.4      50.2      9.49
   03/04/2020 07:50      57.5      54.7       55     40.4      0.00      7.89      61.8     0.47      1020.6     0.1      NE    41   0.9      NE      37     269       129       0.0       0.3      49.9      9.49
   03/04/2020 07:40      54.7      52.3       61     40.2      0.00      7.89      61.8     0.47      1020.6     0.3     NNE    28   1.4      NE      38     269        90       0.0       0.3      49.9      9.49
   03/04/2020 07:30      52.3      49.0       68     40.3      0.00      7.89      61.9     0.47      1020.5     0.2      SE   131   0.8      SE     138     270        68       0.0       0.3      49.8      9.49
   03/04/2020 07:20      49.0      46.9       74     39.9      0.00      7.89      62.0     0.47      1020.4     0.7      SE   137   2.0      SE     138     270        20       0.0       0.3      49.7      9.49
   03/04/2020 07:10      46.9      45.0       78     39.5      0.00      7.89      62.0     0.47      1020.2     1.2      SE   134   2.1      SE     142     270        -1       0.0       0.3      49.7      9.49
   03/04/2020 07:00      45.1      44.0       81     38.8      0.00      7.89      62.0     0.47      1020.0     0.4     SSE   152   1.3      SE     145     271       -23       0.0       0.3      49.7      9.50
   03/04/2020 06:50      44.2      43.1       82     38.6      0.00      7.89      62.1     0.47      1020.0     0.7     SSE   168   1.6      SE     142     271       -29       0.0       0.3      49.8      9.50
   03/04/2020 06:40      43.4      43.1       84     38.5      0.00      7.89      62.1     0.47      1019.9     0.0       S   187   0.7     SSW     200     270       -34       0.0       0.3      50.0      9.50
   03/04/2020 06:30      43.6      43.1       83     38.4      0.00      7.89      62.1     0.47      1019.7     0.0       N     0   0.0     SSW     194     269       -41       0.0       0.3      50.1      9.50
   03/04/2020 06:20      43.4      42.9       83     38.4      0.00      7.89      62.2     0.47      1019.5     0.3     SSW   205   1.3     SSW     197     269       -47       0.0       0.3      50.3      9.50
   03/04/2020 06:10      43.4      42.9       83     38.3      0.00      7.89      62.3     0.47      1019.4     0.0       N     0   0.0      SE     145     269       -51       0.0       0.3      50.5      9.50
   03/04/2020 06:00      43.6      43.2       83     38.4      0.00      7.89      62.2     0.48      1019.2     0.0      SE   143   0.4      SE     143     269       -53       0.0       0.3      50.7      9.50
   03/04/2020 05:50      43.6      43.1       81     37.8      0.00      7.89      62.3     0.48      1019.1     0.3     SSE   155   1.2     SSE     166     271       -56       0.0       0.3      50.9      9.50
   03/04/2020 05:40      43.8      43.4       79     37.4      0.00      7.89      62.3     0.48      1018.9     0.4     SSE   165   1.2       S     175     271       -57       0.1       0.3      51.1      9.50
   03/04/2020 05:30      43.9      43.3       78     37.2      0.00      7.89      62.3     0.48      1018.7     0.2       S   174   1.1       S     186     270       -57       0.0       0.3      51.3      9.50
   03/04/2020 05:20      44.0      43.2       76     36.5      0.00      7.89      62.4     0.48      1018.6     0.5     SSE   164   0.9     SSE     162     270       -58       0.0       0.3      51.6      9.50
   03/04/2020 05:10      44.4      44.0       76     37.0      0.00      7.89      62.4     0.48      1018.4     0.3     SSW   193   1.0      SE     137     270       -57       0.0       0.3      51.8      9.50
   03/04/2020 05:00      44.7      44.0       76     37.1      0.00      7.89      62.5     0.48      1018.3     0.3     SSE   155   1.1      SE     142     270       -57       0.0       0.3      52.0      9.50
   03/04/2020 04:50      45.1      44.5       74     37.1      0.00      7.89      62.4     0.48      1018.2     0.0       N     0   0.0     SSE     163     270       -57       0.0       0.3      52.2      9.51
   03/04/2020 04:40      45.3      44.8       77     38.1      0.00      7.89      62.5     0.48      1018.1     0.0     SSW   197   0.4     SSW     197     269       -56       0.0       0.3      52.4      9.51
   03/04/2020 04:30      45.6      44.9       77     38.3      0.00      7.89      62.5     0.48      1018.0     0.0       S   175   0.7       S     175     269       -57       0.0       0.3      52.7      9.51
   03/04/2020 04:20      45.5      45.1       77     38.5      0.00      7.89      62.6     0.48      1017.9     0.1     SSE   165   0.9     SSE     169     270       -57       0.0       0.3      52.9      9.51
   03/04/2020 04:10      45.5      45.1       75     37.8      0.00      7.89      62.7     0.48      1017.9     0.3     SSE   160   0.9     SSW     197     270       -58       0.0       0.3      53.1      9.51
   03/04/2020 04:00      45.9      45.0       74     37.6      0.00      7.89      62.6     0.48      1017.8     0.7       S   181   1.6     SSW     207     269       -58       0.3       0.3      53.3      9.51
   03/04/2020 03:50      46.0      45.6       74     38.0      0.00      7.89      62.6     0.48      1017.7     0.3       S   180   0.9       S     185     269       -58       0.0       0.2      53.5      9.51
   03/04/2020 03:40      46.1      45.8       73     37.9      0.00      7.89      62.7     0.48      1017.7     0.0       N     0   0.0       S     170     269       -58       0.0       0.2      53.9      9.51
   03/04/2020 03:30      46.6      45.9       71     37.3      0.00      7.89      62.8     0.48      1017.7     0.0       S   169   0.9       S     170     269       -59       0.0       0.2      54.1      9.51
   03/04/2020 03:20      46.7      46.0       69     36.7      0.00      7.89      62.7     0.48      1017.7     0.1     SSE   151   0.8     SSE     151     269       -59       0.0       0.2      54.3      9.51
   03/04/2020 03:10      47.0      46.1       67     36.1      0.00      7.89      62.7     0.48      1017.6     0.2     SSE   158   0.8     SSE     152     268       -59       0.0       0.2      54.5      9.52
   03/04/2020 03:00      47.6      46.9       65     36.2      0.00      7.89      62.9     0.48      1017.6     0.3     SSE   148   1.1     SSE     148     268       -59       0.0       0.2      54.8      9.52
   03/04/2020 02:50      47.5      46.6       67     36.6      0.00      7.89      62.9     0.48      1017.6     0.6     SSE   155   1.4     SSE     148     268       -59       0.0       0.2      55.1      9.52
   03/04/2020 02:40      47.2      46.6       68     37.0      0.00      7.89      63.0     0.48      1017.7     0.6     SSE   165   1.3       S     172     268       -59       0.0       0.2      55.4      9.52
   03/04/2020 02:30      47.4      47.0       69     37.5      0.00      7.89      62.9     0.48      1017.7     1.0     SSE   151   2.1      SE     137     268       -59       0.3       0.2      55.5      9.52
   03/04/2020 02:20      48.2      47.1       69     37.9      0.00      7.89      62.8     0.48      1017.8     0.5     SSE   164   1.1       S     171     268       -59       0.0       0.1      55.7      9.52
   03/04/2020 02:10      48.3      48.0       67     37.7      0.00      7.89      62.9     0.48      1017.8     0.6       S   170   1.3     SSE     167     268       -59       0.0       0.1      56.0      9.52
   03/04/2020 02:00      48.1      47.6       66     37.1      0.00      7.89      62.9     0.48      1017.8     0.4       S   188   1.1     SSW     213     268       -60       0.0       0.1      56.3      9.52
   03/04/2020 01:50      48.6      47.6       64     36.4      0.00      7.89      63.0     0.48      1017.8     0.2     SSE   150   1.0      SE     142     267       -60       0.0       0.1      56.5      9.53
   03/04/2020 01:40      48.9      48.3       62     36.3      0.00      7.89      63.1     0.48      1017.8     0.6     SSE   159   1.2       S     177     267       -60       0.0       0.1      56.8      9.53
   03/04/2020 01:30      49.6      48.6       60     35.5      0.00      7.89      63.1     0.48      1017.7     0.5       S   183   1.6     SSW     200     267       -60       0.1       0.1      57.0      9.53
   03/04/2020 01:20      49.9      49.6       57     35.0      0.00      7.89      63.1     0.48      1017.8     0.3     SSE   157   1.1     SSW     199     267       -60       0.1       0.1      57.2      9.53
   03/04/2020 01:10      49.6      48.9       57     34.5      0.00      7.89      63.1     0.48      1017.8     0.5     SSE   161   1.1      SE     144     267       -60       0.0       0.0      57.4      9.53
   03/04/2020 01:00      49.8      49.2       56     34.4      0.00      7.89      63.2     0.48      1017.7     0.9     SSE   150   1.7      SE     139     266       -61       0.0       0.0      57.7      9.53
   03/04/2020 00:50      50.0      49.3       54     33.6      0.00      7.89      63.1     0.48      1017.6     0.9       S   170   2.0     WSW     239     266       -61       0.1       0.0      58.0      9.53
   03/04/2020 00:40      49.4      48.9       55     33.6      0.00      7.89      63.1     0.48      1017.4     0.8     SSW   195   2.4     WSW     240     266       -60       0.2       0.0      58.3      9.54
   03/04/2020 00:30      49.5      49.1       55     34.0      0.00      7.89      63.1     0.48      1017.3     0.0       S   173   0.4       S     173     266       -61       0.0       0.0      58.6      9.54
   03/04/2020 00:20      50.3      49.5       53     33.7      0.00      7.89      63.2     0.48      1017.2     0.4     SSE   146   1.1      SE     142     266       -61       0.0       0.0      59.0      9.54
   03/04/2020 00:10      50.2      49.7       53     33.6      0.00      7.89      63.2     0.48      1017.1     0.2       S   179   0.9     SSW     200     266       -61       0.0       0.0      59.1      9.54
   03/04/2020 00:00      50.6      50.1       52     33.4      0.00      7.89      63.2     0.48      1017.0     0.5     SSE   159   1.2     SSE     153     266       -62       0.0      25.0      59.4      9.54
   03/03/2020 23:50      50.4      49.8       52     33.3      0.00      7.89      63.2     0.48      1016.9     0.5     SSE   166   1.1      SE     146     266       -62       0.0      25.0      59.7      9.54
   03/03/2020 23:40      50.9      50.3       50     32.9      0.00      7.89      63.2     0.48      1016.7     0.6       S   174   1.4       S     175     266       -62       0.0      25.0      59.9      9.54
   03/03/2020 23:30      51.5      50.9       48     32.5      0.00      7.89      63.2     0.48      1016.7     0.7     SSE   165   1.6     SSW     202     266       -62       0.0      25.0      60.4      9.55
   03/03/2020 23:20      52.0      51.3       47     32.3      0.00      7.89      63.9     0.48      1016.7     0.0       N     0   0.0     SSE     152     266       -61       0.0      25.0      61.1      9.55
   03/03/2020 23:10      52.1      51.6       47     32.2      0.00      7.89      63.9     0.48      1016.7     0.0     SSW   200   0.6     SSW     196     266       -61       0.0      25.0      61.5      9.55
   03/03/2020 23:00      53.1      52.1       45     32.0      0.00      7.89      63.9     0.48      1016.6     0.6       S   170   1.5      SW     216     266       -62       0.2      25.0      61.7      9.55
   03/03/2020 22:50      52.9      52.2       46     32.4      0.00      7.89      64.0     0.48      1016.6     0.3     SSW   209   1.7      SW     216     266       -62       0.2      24.9      62.1      9.56
   03/03/2020 22:40      53.0      52.6       44     31.6      0.00      7.89      64.0     0.48      1016.5     0.3       S   170   1.1       S     176     266       -63       0.0      24.9      62.4      9.56
   03/03/2020 22:30      53.7      52.8       45     32.6      0.00      7.89      63.9     0.48      1016.5     0.2     SSE   152   0.9       E      99     266       -63       0.0      24.9      62.7      9.56
   03/03/2020 22:20      54.6      53.5       41     31.2      0.00      7.89      63.5     0.48      1016.5     0.9       S   175   2.0     WSW     241     266       -63       0.2      24.9      62.5      9.56
   03/03/2020 22:10      54.3      53.8       41     30.8      0.00      7.89      63.3     0.48      1016.4     0.6      SW   223   2.1     WSW     239     266       -63       0.2      24.9      62.8      9.57
   03/03/2020 22:00      54.5      53.8       42     31.7      0.00      7.89      63.3     0.48      1016.4     0.4       S   176   1.3     SSW     195     266       -64       0.1      24.8      63.1      9.57
   03/03/2020 21:50      54.9      54.1       42     31.7      0.00      7.89      63.3     0.48      1016.4     0.4     SSE   153   1.0      SE     142     266       -64       0.0      24.8      63.4      9.57
   03/03/2020 21:40      55.5      54.8       39     30.7      0.00      7.89      63.3     0.48      1016.3     0.5       S   182   1.2     SSE     149     265       -64       0.2      24.8      63.8      9.58
   03/03/2020 21:30      55.5      54.9       40     31.0      0.00      7.89      63.4     0.48      1016.3     0.2       S   171   1.1       S     181     265       -65       0.1      24.8      64.1      9.58
   03/03/2020 21:20      55.6      54.9       40     31.4      0.00      7.89      63.2     0.48      1016.2     0.2     SSE   161   1.1       S     182     265       -66       0.0      24.7      64.4      9.58
   03/03/2020 21:10      56.2      55.6       38     30.8      0.00      7.89      63.2     0.48      1016.2     0.5     SSE   155   1.3      SE     142     265       -66       0.0      24.7      64.7      9.58
   03/03/2020 21:00      57.0      56.0       36     30.1      0.00      7.89      63.2     0.48      1016.1     0.6     SSE   169   1.2       S     176     264       -66       0.0      24.7      65.0      9.59
   03/03/2020 20:50      57.9      56.9       35     29.8      0.00      7.89      63.1     0.48      1016.0     0.5       S   174   1.3       S     176     264       -66       0.3      24.7      65.3      9.59
   03/03/2020 20:40      58.0      57.7       34     29.9      0.00      7.89      63.0     0.48      1015.9     0.8       S   170   1.4     SSE     162     264       -67       0.0      24.7      65.7      9.59
   03/03/2020 20:30      58.4      57.9       33     29.4      0.00      7.89      63.0     0.48      1015.9     0.5     SSE   161   1.5       S     180     264       -68       0.2      24.6      66.2      9.60
   03/03/2020 20:20      59.7      58.3       32     29.2      0.00      7.89      63.1     0.48      1015.7     0.6     SSE   168   1.6     SSW     200     264       -69       0.0      24.6      66.6      9.60
   03/03/2020 20:10      60.1      59.4       31     29.2      0.00      7.89      63.1     0.48      1015.7     0.4     SSE   162   1.1     SSE     155     264       -69       0.0      24.6      66.9      9.60
   03/03/2020 20:00      60.6      59.8       30     28.7      0.00      7.89      63.1     0.48      1015.5     0.5     SSE   157   1.6     SSW     193     264       -70       0.2      24.6      67.2      9.61
   03/03/2020 19:50      60.6      60.2       31     29.9      0.00      7.89      62.8     0.48      1015.4     0.3       S   170   1.2     SSW     194     264       -71       0.0      24.6      67.4      9.61
   03/03/2020 19:40      62.0      60.3       31     30.1      0.00      7.89      62.6     0.48      1015.3     0.8     SSE   153   1.5      SE     144     264       -73       0.0      24.6      67.7      9.62
   03/03/2020 19:30      63.0      61.9       28     28.9      0.00      7.89      62.6     0.48      1015.2     0.5       S   176   2.0     SSW     199     264       -73       0.0      24.6      68.1      9.62
   03/03/2020 19:20      63.5      62.7       29     30.0      0.00      7.89      62.6     0.48      1015.1     1.3     SSW   197   1.9     SSW     195     264       -74       0.4      24.6      68.3      9.62
   03/03/2020 19:10      65.5      63.6       27     30.0      0.00      7.89      62.5     0.48      1014.9     1.5       S   172   2.9       S     178     264       -76       0.6      24.5      68.7      9.62
   03/03/2020 19:00      66.6      65.4       26     29.7      0.00      7.89      62.5     0.48      1014.8     2.2      SW   225   2.8      SW     220     264       -76       0.7      24.4      69.1      9.63
   03/03/2020 18:50      67.4      66.5       24     28.9      0.00      7.89      62.5     0.48      1014.6     2.1     SSW   211   3.0      SW     217     263       -80       0.9      24.3      69.5      9.63
   03/03/2020 18:40      68.7      67.4       22     28.1      0.00      7.89      62.5     0.48      1014.5     2.0      SW   220   4.1     WSW     256     263       -83       0.8      24.1      69.9      9.64
   03/03/2020 18:30      69.0      68.4       21     27.3      0.00      7.89      62.4     0.48      1014.4     3.6     WSW   244   5.0     WSW     249     263       -84       1.8      24.0      70.2      9.64
   03/03/2020 18:20      70.7      68.9       20     27.4      0.00      7.89      62.3     0.48      1014.2     2.8     WSW   238   4.0     NNW     333     263       -86       1.4      23.7      70.8      9.65
   03/03/2020 18:10      71.3      70.5       20     27.6      0.00      7.89      62.3     0.48      1014.0     2.3       W   276   4.8       W     264     263       -89       1.5      23.4      71.3      9.65
   03/03/2020 18:00      72.5      71.3       20     28.2      0.00      7.89      62.3     0.48      1013.8     2.1     WNW   288   4.5       W     263     263       -89       1.5      23.2      71.6      9.66
   03/03/2020 17:50      73.1      72.3       19     28.4      0.00      7.89      62.3     0.48      1013.6     1.5     WNW   301   4.2     WNW     293     262       -88       0.8      22.9      72.1      9.66
   03/03/2020 17:40      74.3      72.9       19     28.6      0.00      7.89      62.3     0.48      1013.4     2.9      NW   305   5.5     WNW     285     262       -86       1.6      22.8      72.6      9.67
   03/03/2020 17:30      77.0      74.2       19     29.8      0.00      7.89      62.2     0.48      1013.2     2.5      NW   322   6.7     WSW     255     262       -84       1.0      22.5      73.0      9.67
   03/03/2020 17:20      79.3      77.0       17     29.0      0.00      7.89      62.2     0.48      1013.0     2.3     NNW   330   7.5      NW     322     262       -68       1.1      22.4      73.5      9.68
   03/03/2020 17:10      79.7      79.2       13     24.9      0.00      7.89      62.1     0.48      1012.7     2.0     NNW   333   5.4       N      11     261       -38       0.7      22.2      73.6      9.68
   03/03/2020 17:00      80.2      79.5       13     24.6      0.00      7.89      62.0     0.48      1012.6     2.2     NNW   344   5.4       N     352     262       -17       0.8      22.1      74.0      9.68
   03/03/2020 16:50      80.5      79.8       13     24.8      0.00      7.89      62.0     0.48      1012.5     2.0      NW   320   5.1     WNW     296     262         8       0.9      21.9      74.2      9.69
   03/03/2020 16:40      80.4      80.1       13     24.7      0.00      7.89      62.0     0.48      1012.4     2.4     NNW   330   8.3     WNW     289     262        34       1.2      21.8      74.1      9.70
   03/03/2020 16:30      80.6      80.1       13     24.2      0.00      7.89      61.9     0.48      1012.4     2.5     NNW   348   7.2       N     349     261        59       0.9      21.6      74.1      9.70
   03/03/2020 16:20      81.1      80.3       13     24.4      0.00      7.89      61.7     0.47      1012.4     2.9       N   350   6.8     NNE      12     262        86       0.9      21.4      74.5      9.71
   03/03/2020 16:10      80.8      80.0       13     24.4      0.00      7.89      61.7     0.47      1012.4     2.4       N   356   6.2      NE      53     262       111       0.9      21.3      75.2      8.99
   03/03/2020 16:00      80.9      80.0       13     24.2      0.00      7.89      61.7     0.47      1012.5     3.6       N   350   7.2     WNW     302     262       137       1.4      21.1      75.2      8.99
   03/03/2020 15:50      81.0      80.3       12     23.7      0.00      7.89      61.6     0.47      1012.4     3.6       N     2   7.8     NNW     346     262       162       1.1      20.9      75.0      8.99
   03/03/2020 15:40      80.9      80.4       12     23.7      0.00      7.89      61.5     0.47      1012.4     3.8       N   356   8.3     NNW     338     262       187       1.2      20.7      74.8      9.00
   03/03/2020 15:30      81.5      80.7       12     24.0      0.00      7.89      61.5     0.47      1012.5     3.9       N   351   9.0      NE      52     262       207       1.1      20.5      74.5      9.00
   03/03/2020 15:20      81.5      80.7       12     24.3      0.00      7.89      61.4     0.47      1012.6     3.6       N   351  10.2       N       3     262       214       1.3      20.3      74.4      9.00
   03/03/2020 15:10      81.1      80.4       12     24.0      0.00      7.89      61.4     0.47      1012.7     3.2     NNW   342   7.7     NNE      30     262       236       1.0      20.1      74.2      9.01
   03/03/2020 15:00      80.9      80.2       12     23.4      0.00      7.89      61.3     0.47      1012.7     4.1     NNE    16   9.9       N     351     262       256       1.2      19.9      73.9      9.01
   03/03/2020 14:50      80.9      80.0       12     23.7      0.00      7.89      61.2     0.47      1012.7     3.6     NNW   346   7.6      NW     308     261       281       1.5      19.8      73.6      9.01
   03/03/2020 14:40      80.6      80.3       12     23.5      0.00      7.89      61.2     0.47      1012.7     4.1       N   354   9.2     NNE      28     261       297       1.2      19.5      73.2      9.02
   03/03/2020 14:30      81.0      80.3       12     23.4      0.00      7.89      61.1     0.47      1012.8     4.6       N   357  10.8       N       2     261       326       1.5      19.3      72.8      9.02
   03/03/2020 14:20      81.5      79.6       12     24.1      0.00      7.89      61.0     0.47      1012.9     3.1     NNW   337   8.9       N      10     261       347       1.3      19.1      72.4      9.02
   03/03/2020 14:10      80.3      79.3       12     23.2      0.00      7.89      61.0     0.47      1013.0     4.4       N   350  10.1       N       8     261       363       1.5      18.8      72.0      9.02
   03/03/2020 14:00      80.5      79.2       12     23.2      0.00      7.89      60.9     0.47      1013.1     4.2       N   358   8.5     NNE      22     261       378       1.2      18.6      71.6      9.02
   03/03/2020 13:50      80.6      79.6       12     23.5      0.00      7.89      60.8     0.47      1013.2     3.6       N   354   8.4     NNE      22     261       392       1.3      18.4      71.2      9.03
   03/03/2020 13:40      80.6      80.0       12     23.7      0.00      7.89      60.8     0.47      1013.3     3.7       N   352  10.7     NNE      29     261       403       1.5      18.1      70.6      9.03
   03/03/2020 13:30      80.4      79.5       12     23.7      0.00      7.89      60.6     0.47      1013.5     3.7       N   351  11.7      NW     315     261       416       1.1      17.9      70.1      9.03
   03/03/2020 13:20      79.9      78.8       13     23.5      0.00      7.89      60.5     0.47      1013.6     3.4     NNW   342   7.1       N       0     261       428       1.6      17.7      69.6      9.03
   03/03/2020 13:10      79.3      78.5       12     23.0      0.00      7.89      60.5     0.47      1013.8     5.2       N     4  10.1     NNW     327     261       438       2.0      17.4      69.1      9.04
   03/03/2020 13:00      79.2      78.5       13     23.3      0.00      7.89      60.5     0.47      1013.9     4.5       N   352  13.3     WNW     302     261       447       1.3      17.1      68.4      9.04
   03/03/2020 12:50      78.8      78.2       13     22.9      0.00      7.89      60.2     0.47      1013.9     4.7       N   357  10.5     NNE      17     261       454       1.4      16.9      67.7      9.04
   03/03/2020 12:40      78.5      77.6       13     22.8      0.00      7.89      60.4     0.47      1014.0     4.6     NNW   338  10.4     NNW     340     261       462       1.4      16.7      67.1      9.04
   03/03/2020 12:30      78.4      77.9       13     22.9      0.00      7.89      60.3     0.47      1014.2     5.2     NNW   347  12.4     NNW     329     261       466       1.9      16.4      66.5      9.05
   03/03/2020 12:20      78.2      77.3       13     22.7      0.00      7.89      60.5     0.47      1014.4     5.8       N     3  12.0       N       0     261       469       1.6      16.1      65.8      9.05
   03/03/2020 12:10      78.0      77.1       13     22.7      0.00      7.89      60.5     0.47      1014.6     4.8       N     2   9.3       N     354     261       471       1.5      15.8      64.9      9.05
   03/03/2020 12:00      77.2      76.5       13     21.9      0.00      7.89      60.5     0.47      1014.7     5.8       N   352  11.7       N       2     261       473       1.7      15.6      64.1      9.05
   03/03/2020 11:50      78.1      76.7       13     21.7      0.00      7.89      60.5     0.47      1014.9     6.9       N   359  14.9     NNE      12     261       469       1.7      15.3      63.2      9.05
   03/03/2020 11:40      78.2      77.0       13     22.2      0.00      7.89      60.5     0.47      1015.0     4.2       N   351   9.5      NW     313     261       464       1.4      15.0      62.4      9.05
   03/03/2020 11:30      77.9      76.9       13     22.3      0.00      7.89      60.4     0.47      1015.0     4.5       N   354  10.9     NNW     327     261       460       1.6      14.8      61.5      9.06
   03/03/2020 11:20      77.3      76.0       13     22.0      0.00      7.89      60.5     0.47      1015.0     3.4     NNW   335   8.6     NNW     336     261       455       1.6      14.5      60.7      9.06
   03/03/2020 11:10      76.3      75.7       13     21.6      0.00      7.89      60.5     0.47      1015.0     4.2     NNW   340   8.1       N       9     261       449       1.6      14.3      59.9      9.06
   03/03/2020 11:00      75.9      75.3       13     21.6      0.00      7.89      60.3     0.47      1015.0     4.5       N   358   9.3     NNE      28     261       442       1.3      14.0      58.9      9.06
   03/03/2020 10:50      75.4      74.7       13     21.3      0.00      7.89      60.6     0.47      1015.1     4.4     NNW   328   9.0       N       0     261       436       1.9      13.8      58.0      9.06
   03/03/2020 10:40      75.0      74.0       13     21.0      0.00      7.89      60.6     0.47      1015.2     4.0     NNW   344   9.2       N     350     261       425       1.3      13.5      57.5      9.06
   03/03/2020 10:30      74.3      73.7       13     20.5      0.00      7.89      60.7     0.47      1015.1     4.6       N     3  11.7     NNE      23     261       414       1.2      13.3      56.7      9.06
   03/03/2020 10:20      74.0      73.4       13     20.6      0.00      7.89      60.8     0.47      1015.0     4.4       N   351   9.4     NNE      18     261       402       1.3      13.1      56.0      9.06
   03/03/2020 10:10      73.5      72.3       14     20.7      0.00      7.89      60.8     0.47      1014.9     3.6       N   353   9.9     WNW     295     261       388       1.3      12.8      55.3      9.07
   03/03/2020 10:00      72.3      71.5       14     20.2      0.00      7.89      60.8     0.47      1014.9     4.0       N   349  12.0       W     263     261       374       1.8      12.6      54.6      9.07
   03/03/2020 09:50      71.8      70.7       14     19.9      0.00      7.89      60.9     0.47      1015.0     4.0       N   350  10.4     NNE      19     261       359       1.3      12.3      54.0      9.07
   03/03/2020 09:40      70.9      69.8       14     19.4      0.00      7.89      60.9     0.47      1015.0     4.6     NNW   347  11.0     ENE      69     261       344       1.8      12.1      53.4      9.07
   03/03/2020 09:30      70.1      69.2       14     18.8      0.00      7.89      61.1     0.47      1015.0     4.7     NNW   346  12.6      NE      44     261       328       1.8      11.8      52.8      9.07
   03/03/2020 09:20      69.6      68.8       15     19.0      0.00      7.89      61.0     0.47      1014.9     4.4       N   354   8.9     NNW     341     261       311       1.8      11.5      52.3      9.07
   03/03/2020 09:10      69.0      67.8       15     18.6      0.00      7.89      61.1     0.47      1014.9     4.1     NNW   347  11.0       N       2     261       294       1.5      11.2      51.8      9.07
   03/03/2020 09:00      67.9      67.5       15     17.8      0.00      7.89      61.2     0.47      1015.1     4.8     NNW   346   9.6      NW     314     261       277       1.6      11.0      51.4      9.07
   03/03/2020 08:50      67.8      67.3       15     17.9      0.00      7.89      61.2     0.47      1015.2     4.4       N   354  10.7     WNW     294     261       258       1.5      10.7      51.1      9.07
   03/03/2020 08:40      67.7      67.2       15     17.7      0.00      7.89      61.3     0.47      1015.3     3.0       N   359   8.0       N       0     262       240       1.1      10.5      50.7      9.07
   03/03/2020 08:30      67.5      66.4       15     17.7      0.00      7.89      61.3     0.47      1015.3     2.6     NNW   333   6.7       N       7     261       220       1.2      10.3      50.4      9.07
   03/03/2020 08:20      66.4      65.6       15     17.2      0.00      7.89      61.4     0.47      1015.3     2.8      NW   320   6.5     WNW     296     262       199       1.5      10.1      50.2      9.07
   03/03/2020 08:10      65.6      64.7       15     16.6      0.00      7.89      61.4     0.47      1015.2     3.4     NNW   344   7.8     NNE      13     263       177       1.1       9.8      50.0      9.07
   03/03/2020 08:00      64.9      64.0       16     17.0      0.00      7.89      61.4     0.47      1015.2     3.5     NNW   331   8.0       W     277     263       151       1.3       9.6      49.8      9.07
   03/03/2020 07:50      64.0      63.2       16     17.1      0.00      7.89      61.5     0.47      1015.2     3.8      NW   326  10.5     NNW     345     263       124       1.5       9.4      49.8      9.07
   03/03/2020 07:40      63.3      62.6       18     18.3      0.00      7.89      61.5     0.47      1015.0     3.7     WNW   301   9.7     WSW     256     263        98       1.6       9.2      49.7      9.08
   03/03/2020 07:30      62.7      61.4       18     17.9      0.00      7.89      61.7     0.47      1014.9     1.7      NW   313   4.9     WNW     300     264        65       0.7       8.9      49.7      9.08
   03/03/2020 07:20      61.5      59.8       18     17.1      0.00      7.89      61.7     0.47      1014.8     1.0      NW   319   2.5     WNW     301     263       -13       0.3       8.8      49.7      9.08
   03/03/2020 07:10      60.2      59.8       18     16.6      0.00      7.89      61.8     0.47      1014.8     1.7     NNW   341   3.4       N     355     264       -39       0.3       8.7      49.8      9.08
   03/03/2020 07:00      60.0      59.8       17     15.0      0.00      7.89      61.8     0.47      1014.8     2.1       N     3   5.6     NNE      30     263       -54       0.1       8.7      49.8      9.08
   03/03/2020 06:50      60.0      59.5       16     13.5      0.00      7.89      61.7     0.47      1014.9     3.2       N    10   5.2     NNE      27     263       -60       0.3       8.7      49.9      9.08
   03/03/2020 06:40      60.6      59.6       16     13.3      0.00      7.89      61.7     0.47      1015.1     3.0       N     6   5.8     NNE      17     264       -65       0.2       8.6      50.0      9.08
   03/03/2020 06:30      60.5      59.6       15     12.7      0.00      7.89      61.8     0.47      1015.2     3.9       N     5   7.4     NNE      15     264       -70       0.4       8.6      50.1      9.08
   03/03/2020 06:20      59.8      59.5       16     12.7      0.00      7.89      61.9     0.47      1015.3     3.0       N     0   5.8       N       6     263       -74       0.4       8.5      50.2      9.08
   03/03/2020 06:10      60.4      59.6       15     12.2      0.00      7.89      61.8     0.47      1015.3     2.9       N   354   7.9      NE      52     263       -77       0.5       8.5      50.3      9.08
   03/03/2020 06:00      60.3      59.9       14     11.5      0.00      7.89      61.8     0.47      1015.2     3.6     NNW   344   9.0      NW     315     263       -79       0.7       8.4      50.4      9.08
   03/03/2020 05:50      60.2      59.5       14     11.2      0.00      7.89      61.9     0.47      1015.2     4.5       N   351   9.3       N       1     263       -79       0.8       8.3      50.5      9.08
   03/03/2020 05:40      59.7      59.3       15     11.3      0.00      7.89      62.0     0.47      1015.3     4.0     NNW   347  10.9     NNW     338     264       -79       0.8       8.1      50.6      9.08
   03/03/2020 05:30      59.5      59.2       15     11.5      0.00      7.89      62.0     0.47      1015.3     3.2     NNW   347   8.8      NW     312     263       -79       0.5       8.0      50.8      9.08
   03/03/2020 05:20      59.7      59.3       15     11.5      0.00      7.89      62.0     0.47      1015.2     2.8     NNW   339   6.2     NNW     332     263       -79       0.6       7.9      50.8      9.09
   03/03/2020 05:10      60.0      59.2       15     11.6      0.00      7.89      62.1     0.47      1015.2     2.5     NNW   345   5.4       N     352     264       -79       0.4       7.8      50.9      9.09
   03/03/2020 05:00      60.1      59.8       14     11.2      0.00      7.89      62.1     0.47      1015.2     2.8     NNW   343   7.0     WNW     299     263       -81       0.7       7.8      51.2      9.09
   03/03/2020 04:50      60.6      60.0       14     10.8      0.00      7.89      62.1     0.47      1015.2     3.1     NNW   340   8.8       N     354     263       -82       0.9       7.6      51.3      9.09
   03/03/2020 04:40      60.8      60.1       14     10.4      0.00      7.89      61.7     0.47      1015.0     2.8      NW   325   6.2      NW     311     263       -82       0.7       7.5      51.0      9.09
   03/03/2020 04:30      61.0      60.3       13     10.1      0.00      7.89      60.8     0.47      1014.9     4.1     NNW   344  10.4     WSW     257     263       -83       1.2       7.4      50.3      9.09
   03/03/2020 04:20      61.0      60.3       13      9.9      0.00      7.89      60.8     0.47      1014.8     4.3     NNW   340   8.7       W     279     263       -83       1.4       7.2      50.4      9.09
   03/03/2020 04:10      60.5      60.1       14     10.2      0.00      7.89      60.9     0.47      1014.7     3.1     NNW   336   6.6     WNW     304     263       -82       1.0       6.9      50.5      9.09
   03/03/2020 04:00      60.2      59.8       14     10.1      0.00      7.89      60.9     0.47      1014.6     2.6     NNW   343   6.4     WNW     290     263       -82       0.9       6.8      50.6      9.09
   03/03/2020 03:50      60.3      59.9       14      9.9      0.00      7.89      60.9     0.47      1014.4     2.9     NNW   340   7.0      NW     316     263       -82       0.9       6.6      50.7      9.10
   03/03/2020 03:40      60.3      59.5       14      9.8      0.00      7.89      60.9     0.47      1014.3     3.5     NNW   333   7.5     NNW     346     263       -82       1.1       6.5      50.8      9.10
   03/03/2020 03:30      59.7      59.0       14      9.9      0.00      7.89      60.9     0.47      1014.3     2.7     NNW   342   5.4     NNE      13     263       -82       0.9       6.3      50.9      9.10
   03/03/2020 03:20      59.3      58.9       14     10.1      0.00      7.89      61.0     0.47      1014.3     2.5     NNW   332   5.9     NNW     338     264       -82       0.5       6.1      51.0      9.10
   03/03/2020 03:10      59.5      59.0       14     10.1      0.00      7.89      61.0     0.47      1014.2     2.3     NNW   336   6.5      NW     307     263       -82       0.6       6.1      51.2      9.10
   03/03/2020 03:00      59.7      59.4       14      9.9      0.00      7.89      61.1     0.47      1014.1     3.3     NNW   347   7.6       N       1     263       -81       0.8       6.0      51.4      9.10
   03/03/2020 02:50      59.6      58.7       14     10.1      0.00      7.89      61.0     0.47      1014.3     3.1       N   351   5.8     NNE      20     263       -81       0.7       5.8      51.4      9.10
   03/03/2020 02:40      59.2      58.9       14     10.3      0.00      7.89      61.1     0.47      1014.3     2.7       N   349   5.8      NW     310     264       -80       0.4       5.7      51.6      9.10
   03/03/2020 02:30      59.6      59.0       14     10.5      0.00      7.89      61.1     0.47      1014.4     2.7       N   353   6.2     NNE      19     264       -81       0.4       5.7      51.8      9.10
   03/03/2020 02:20      59.6      59.0       14     10.5      0.00      7.89      61.1     0.48      1014.5     3.1     NNW   343   5.9     NNW     344     264       -82       0.6       5.6      51.9      9.10
   03/03/2020 02:10      59.4      58.8       15     11.0      0.00      7.89      61.1     0.48      1014.6     2.6     NNW   333   6.1      NW     320     263       -82       0.6       5.5      52.1      9.10
   03/03/2020 02:00      59.5      59.2       15     11.3      0.00      7.89      61.2     0.48      1014.8     3.1      NW   313   6.0     WNW     293     263       -83       1.2       5.4      52.2      9.11
   03/03/2020 01:50      59.7      59.1       15     11.8      0.00      7.89      61.2     0.48      1014.8     4.0       W   279   9.0     WSW     250     263       -83       2.9       5.2      52.4      9.11
   03/03/2020 01:40      59.2      58.9       15     12.1      0.00      7.89      61.2     0.47      1014.7     4.0       W   281   7.8     WNW     303     263       -82       2.7       4.7      52.6      9.11
   03/03/2020 01:30      59.2      58.7       16     12.3      0.00      7.89      61.2     0.48      1014.6     3.7     WNW   289   6.9     WSW     239     263       -82       2.0       4.2      52.9      9.11
   03/03/2020 01:20      59.1      58.4       16     13.0      0.00      7.89      61.2     0.48      1014.5     4.1       W   275  10.1     WNW     284     264       -83       3.0       3.9      53.1      9.11
   03/03/2020 01:10      58.7      57.9       17     13.9      0.00      7.89      61.3     0.48      1014.4     4.6       W   273   7.3      SW     236     264       -82       3.1       3.4      53.2      9.11
   03/03/2020 01:00      58.1      57.0       18     14.9      0.00      7.89      61.3     0.48      1014.3     5.9     WSW   247   9.4     WSW     249     264       -82       3.9       2.9      53.4      9.11
   03/03/2020 00:50      57.6      57.0       19     15.7      0.00      7.89      61.3     0.48      1014.3     5.5     WSW   240   7.6      SW     235     264       -81       3.4       2.2      53.6      9.11
   03/03/2020 00:40      57.6      57.0       19     15.6      0.00      7.89      61.4     0.48      1014.3     4.5      SW   231   7.1     WSW     249     264       -81       2.7       1.7      53.9      9.12
   03/03/2020 00:30      57.8      57.0       19     15.2      0.00      7.89      61.4     0.48      1014.3     3.9     WSW   244   6.7     WSW     246     264       -81       2.4       1.2      54.1      9.12
   03/03/2020 00:20      57.5      56.5       19     15.8      0.00      7.89      61.6     0.48      1014.2     4.0       W   261   6.3     WSW     254     264       -81       2.6       0.8      54.5      9.12
   03/03/2020 00:10      56.8      56.4       21     16.8      0.00      7.89      62.5     0.48      1014.2     4.0     WSW   256   5.8     WSW     249     264       -81       2.5       0.4      55.5      9.12
   03/03/2020 00:00      56.8      56.4       21     17.2      0.00      7.89      62.5     0.48      1014.1     4.2      SW   220   5.9      SW     223     264       -81       2.5      27.6      55.7      9.12
   03/02/2020 23:50      56.5      56.0       22     17.4      0.00      7.89      62.5     0.48      1014.1     4.3     SSW   209   7.1     WSW     246     264       -81       2.4      27.1      56.0      9.12
   03/02/2020 23:40      56.7      55.2       22     17.9      0.00      7.89      62.6     0.48      1014.2     3.7     SSW   205   5.5     SSW     208     264       -81       2.3      26.7      56.3      9.12
   03/02/2020 23:30      55.4      54.9       24     18.9      0.00      7.89      62.5     0.48      1014.3     3.3      SW   231   7.1      SW     229     264       -81       1.8      26.3      56.6      9.12
   03/02/2020 23:20      57.9      55.3       21     16.7      0.00      7.89      62.6     0.48      1014.4     3.6      SW   216   6.1      SW     215     264       -81       1.9      26.0      57.0      9.13
   03/02/2020 23:10      58.7      57.9       18     15.3      0.00      7.89      62.6     0.48      1014.4     2.9       W   271   4.3     WNW     288     264       -82       1.9      25.7      57.3      9.13
   03/02/2020 23:00      58.9      58.5       18     15.5      0.00      7.89      62.6     0.48      1014.5     1.9      NW   318   3.9       N       0     264       -83       0.9      25.4      57.5      9.13
   03/02/2020 22:50      59.1      58.7       18     16.1      0.00      7.89      62.7     0.48      1014.6     1.9     NNW   341   4.4       N     355     264       -84       0.5      25.3      57.9      9.13
   03/02/2020 22:40      59.2      58.9       19     16.5      0.00      7.89      62.6     0.48      1014.6     2.0     NNW   341   5.1       N     352     264       -83       0.4      25.2      58.1      9.13
   03/02/2020 22:30      59.6      59.0       19     16.8      0.00      7.89      62.7     0.48      1014.6     2.8       N   359   8.3      NE      42     264       -84       0.4      25.1      58.4      9.13
   03/02/2020 22:20      59.4      59.0       20     17.7      0.00      7.89      62.7     0.48      1014.6     3.5       N   356   6.9     NNE      20     264       -83       0.5      25.0      58.6      9.13
   03/02/2020 22:10      59.5      58.7       20     18.4      0.00      7.89      62.6     0.48      1014.6     3.4       N     0   9.3      NE      52     264       -83       0.5      24.9      58.9      9.13
   03/02/2020 22:00      58.8      58.5       22     19.8      0.00      7.89      62.7     0.48      1014.5     2.8       N     0   6.9     NNW     346     264       -83       0.3      24.9      59.1      9.14
   03/02/2020 21:50      58.8      58.0       23     20.4      0.00      7.89      62.7     0.48      1014.6     2.9       N   353   6.4     NNW     341     264       -83       0.6      24.8      59.5      9.14
   03/02/2020 21:40      58.2      57.9       24     21.5      0.00      7.89      62.7     0.48      1014.5     2.3       N   352   5.0      NE      44     264       -83       0.3      24.7      59.6      9.14
   03/02/2020 21:30      58.0      57.6       25     22.4      0.00      7.89      62.7     0.48      1014.5     2.5       N     0   5.0       N      11     264       -83       0.1      24.7      59.9      9.14
   03/02/2020 21:20      58.0      57.5       26     22.7      0.00      7.89      62.7     0.48      1014.4     2.3       N   359   4.5       N       5     264       -83       0.2      24.6      60.2      9.14
   03/02/2020 21:10      58.2      57.8       25     22.6      0.00      7.89      62.7     0.48      1014.4     2.6       N   350   5.5       N     349     264       -83       0.2      24.6      60.5      9.14
   03/02/2020 21:00      58.1      57.7       26     23.0      0.00      7.89      62.8     0.48      1014.4     2.3       N   350   4.5     NNW     335     264       -84       0.2      24.6      60.9      9.14
   03/02/2020 20:50      58.3      57.9       26     23.0      0.00      7.89      62.7     0.48      1014.3     2.0     NNW   338   4.1     NNW     347     264       -85       0.2      24.5      61.2      9.14
   03/02/2020 20:40      58.7      58.2       25     23.1      0.00      7.89      62.7     0.48      1014.2     2.4     NNW   327   5.0      NW     315     264       -86       0.4      24.5      61.5      9.15
   03/02/2020 20:30      59.0      58.4       25     23.1      0.00      7.89      62.7     0.48      1014.1     2.3     NNW   341   6.7       N       1     264       -86       0.6      24.4      61.9      9.15
   03/02/2020 20:20      59.2      58.9       25     23.3      0.00      7.89      62.9     0.48      1014.0     2.4     NNW   343   5.3       E      84     264       -86       0.4      24.3      62.2      9.15
   03/02/2020 20:10      59.5      59.1       25     23.3      0.00      7.89      62.7     0.48      1013.9     2.4     NNW   337   4.8     NNW     332     264       -86       0.7      24.3      62.5      9.15
   03/02/2020 20:00      59.6      59.1       25     23.5      0.00      7.89      62.7     0.48      1013.7     2.5     NNW   329   5.7     NNW     337     264       -87       0.7      24.1      62.8      9.15
   03/02/2020 19:50      59.9      59.5       25     23.8      0.00      7.89      62.7     0.48      1013.7     2.2     NNW   330   4.7      NW     320     264       -86       0.5      24.0      63.2      9.16
   03/02/2020 19:40      60.5      59.8       25     23.9      0.00      7.89      62.7     0.48      1013.6     2.2     NNW   332   5.1     NNE      26     264       -87       0.5      23.9      63.5      9.16
   03/02/2020 19:30      60.8      60.3       24     24.0      0.00      7.89      62.6     0.48      1013.5     2.5     NNW   330   5.8      NW     321     264       -87       0.6      23.9      63.9      9.16
   03/02/2020 19:20      61.4      60.6       24     24.3      0.00      7.89      62.6     0.48      1013.5     2.1     NNW   334   4.1     WNW     302     264       -87       0.3      23.8      64.2      9.16
   03/02/2020 19:10      61.8      61.2       24     24.6      0.00      7.89      62.6     0.48      1013.3     1.9     NNW   346   4.9     WNW     289     264       -87       0.4      23.7      64.6      9.16
   03/02/2020 19:00      62.2      61.7       24     24.7      0.00      7.89      62.5     0.48      1013.2     2.0     NNW   339   4.9      NW     313     264       -88       0.6      23.6      64.9      9.17
   03/02/2020 18:50      62.8      62.2       24     24.9      0.00      7.89      62.5     0.48      1013.1     2.0     NNW   337   5.3     NNW     348     264       -89       0.7      23.5      65.3      9.17
   03/02/2020 18:40      63.5      62.6       23     24.5      0.00      7.89      62.5     0.48      1012.9     2.4     NNW   330   6.7     WNW     300     264       -90       0.7      23.4      65.6      9.17
   03/02/2020 18:30      63.9      63.3       22     23.8      0.00      7.89      62.5     0.48      1012.8     2.7     NNW   346   6.7      NW     320     264       -90       0.8      23.3      66.1      9.17
   03/02/2020 18:20      64.2      63.7       21     23.6      0.00      7.89      62.5     0.48      1012.7     2.0     NNW   331   4.6     NNW     340     264       -91       0.5      23.2      66.5      9.18
   03/02/2020 18:10      64.7      64.1       21     23.6      0.00      7.89      62.4     0.48      1012.5     2.0     NNW   336   5.0     NNW     336     264       -91       0.5      23.1      66.8      9.18
   03/02/2020 18:00      65.4      64.6       21     23.6      0.00      7.89      62.4     0.48      1012.4     2.3      NW   320   6.3       N       2     264       -91       1.4      23.0      67.3      9.18
   03/02/2020 17:50      66.0      65.2       20     23.6      0.00      7.89      62.3     0.48      1012.3     3.4      NW   317   8.0      NW     311     264       -88       1.7      22.8      67.8      9.19
   03/02/2020 17:40      67.3      65.8       18     21.2      0.00      7.89      62.2     0.48      1012.1     3.4     NNW   328   8.0      NW     308     263       -85       1.2      22.5      68.0      9.19
   03/02/2020 17:30      67.8      67.1       15     18.6      0.00      7.89      62.1     0.48      1012.0     3.5       N     0   7.3      NE      36     263       -81       1.0      22.3      68.4      9.19
   03/02/2020 17:20      68.3      67.6       15     19.0      0.00      7.89      62.1     0.48      1011.8     3.5       N    10   6.5     NNE      25     263       -61       1.1      22.1      68.8      9.20
   03/02/2020 17:10      68.4      67.9       15     19.2      0.00      7.89      62.1     0.48      1011.7     3.0     NNE    18   6.4     NNE      20     263       -36       0.8      21.9      69.1      9.20
   03/02/2020 17:00      68.6      67.9       15     18.6      0.00      7.89      61.9     0.48      1011.5     6.0     NNE    15  15.9     NNE      21     263       -10       1.6      21.8      69.3      9.20
   03/02/2020 16:50      68.8      68.2       16     20.9      0.00      7.89      62.0     0.48      1011.5     2.9     NNE    12  10.8     NNE      13     263        13       0.7      21.5      69.5      9.21
   03/02/2020 16:40      68.5      68.1       16     20.1      0.00      7.89      61.9     0.48      1011.4     4.3     NNE    22  10.1     NNE      33     263        40       1.0      21.4      69.7      9.21
   03/02/2020 16:30      68.6      68.2       16     20.0      0.00      7.89      61.8     0.47      1011.4     4.7     NNE    29  10.6      NE      42     263        61       1.6      21.2      69.7      9.21
   03/02/2020 16:20      68.8      68.4       16     20.3      0.00      7.89      61.6     0.47      1011.4     4.3      NE    36  10.1     ENE      75     263        87       1.5      21.0      69.7      9.21
   03/02/2020 16:10      69.0      68.5       16     20.4      0.00      7.89      61.9     0.47      1011.5     4.1      NE    38   8.0      NE      45     263       116       1.3      20.7      69.8      9.22
   03/02/2020 16:00      69.2      68.6       16     20.1      0.00      7.89      61.7     0.47      1011.4     5.0     NNE    16  10.8     WNW     297     263       145       1.3      20.5      69.8      9.22
   03/02/2020 15:50      69.3      68.8       16     20.3      0.00      7.89      61.8     0.47      1011.4     4.9     NNE    29   9.7      NE      46     263       168       1.8      20.3      69.8      9.22
   03/02/2020 15:40      69.2      68.7       16     20.4      0.00      7.89      61.8     0.47      1011.4     4.2     NNE    28   8.0     NNE      21     263       195       1.5      20.0      69.8      9.22
   03/02/2020 15:30      69.3      68.6       16     20.3      0.00      7.89      61.6     0.47      1011.4     4.1     NNE    34   7.5      NE      50     263       212       1.2      19.7      69.5      9.23
   03/02/2020 15:20      69.0      68.2       16     20.2      0.00      7.89      61.7     0.47      1011.5     4.7     NNE    17   9.4     NNE      26     263       222       1.4      19.5      69.5      9.23
   03/02/2020 15:10      69.2      68.4       16     20.5      0.00      7.89      61.6     0.47      1011.6     5.3       N     2  11.7       N       2     263       243       1.8      19.3      69.3      9.23
   03/02/2020 15:00      69.5      68.6       16     20.9      0.00      7.89      61.6     0.47      1011.6     4.5     NNE    31   8.7     NNE      26     263       264       1.6      19.0      68.9      9.23
   03/02/2020 14:50      69.3      68.5       16     20.7      0.00      7.89      61.5     0.47      1011.7     4.1     NNE    27   6.9     NNE      33     263       285       1.3      18.8      68.5      9.23
   03/02/2020 14:40      68.7      67.6       16     20.1      0.00      7.89      60.4     0.47      1011.8     5.5     NNE    15  12.5     NNE      17     263       310       2.0      18.5      67.4      9.24
   03/02/2020 14:30      68.5      67.6       16     20.1      0.00      7.89      60.4     0.47      1011.9     5.9     NNE    24  10.8     NNE      33     262       338       2.1      18.2      67.1      9.24
   03/02/2020 14:20      68.4      67.7       16     20.3      0.00      7.89      60.3     0.47      1011.9     5.8       N     7  12.4      NE      48     262       360       1.6      17.9      66.9      9.24
   03/02/2020 14:10      68.1      67.3       16     20.6      0.00      7.89      60.3     0.47      1012.0     5.6     NNE    13  10.4       N     355     262       379       1.9      17.6      66.6      9.24
   03/02/2020 14:00      68.2      67.1       17     20.9      0.00      7.89      60.3     0.47      1012.1     5.9     NNE    30  12.2       N     355     262       354       2.1      17.3      66.3      9.24
   03/02/2020 13:50      68.1      67.6       17     21.4      0.00      7.89      60.3     0.47      1012.3     5.0     NNE    31   8.7     NNE      32     263       389       2.0      16.9      66.1      9.25
   03/02/2020 13:40      67.6      66.5       17     21.1      0.00      7.89      60.3     0.47      1012.4     5.2     NNE    32  10.0       N       7     263       419       1.7      16.6      65.7      9.25
   03/02/2020 13:30      67.3      66.5       17     21.2      0.00      7.89      60.3     0.47      1012.4     7.1     NNE    21  13.0       N     353     262       430       2.2      16.3      65.4      9.25
   03/02/2020 13:20      67.1      66.5       18     21.6      0.00      7.89      60.4     0.47      1012.3     5.8     NNE    30  12.3     NNE      27     263       438       2.2      15.9      65.0      9.25
   03/02/2020 13:10      67.0      65.9       18     21.2      0.00      7.89      60.3     0.47      1012.4     5.8     NNE    23  11.7      NE      39     263       448       2.2      15.6      64.7      9.26
   03/02/2020 13:00      66.9      65.7       18     21.3      0.00      7.89      60.3     0.47      1012.5     5.6     NNE    19  13.1       N       4     263       457       2.0      15.2      64.1      9.26
   03/02/2020 12:50      66.8      65.5       18     21.2      0.00      7.89      60.4     0.47      1012.7     6.8     NNE    27  14.6     NNE      29     263       465       2.2      14.9      63.6      9.26
   03/02/2020 12:40      66.2      65.3       18     21.3      0.00      7.89      60.5     0.47      1012.9     5.3     NNE    21  11.4     NNW     328     263       472       2.1      14.5      63.2      9.26
   03/02/2020 12:30      65.5      65.1       18     21.0      0.00      7.89      60.5     0.47      1013.1     6.9     NNE    15  11.7     NNE      28     263       479       2.4      14.2      62.5      9.26
   03/02/2020 12:20      65.4      64.6       18     20.8      0.00      7.89      60.4     0.47      1013.3     6.5     NNE    11  13.6       N       5     263       483       2.3      13.8      61.8      9.26
   03/02/2020 12:10      65.8      64.9       18     21.2      0.00      7.89      60.4     0.47      1013.3     6.2     NNE    23  12.9     NNE      26     263       483       2.1      13.4      61.1      9.27
   03/02/2020 12:00      65.2      64.3       19     21.0      0.00      7.89      60.5     0.47      1013.4     6.4     NNE    21  13.1     NNE      15     263       483       2.4      13.1      60.5      9.27
   03/02/2020 11:50      65.2      64.0       19     20.9      0.00      7.89      60.5     0.47      1013.8     5.8     NNE    16  11.1       N     353     263       480       1.8      12.7      59.8      9.27
   03/02/2020 11:40      65.8      64.6       19     21.3      0.00      7.89      60.5     0.47      1013.9     5.3     NNE    26  11.2     ENE      73     263       477       1.8      12.4      59.0      9.27
   03/02/2020 11:30      65.0      64.2       19     21.4      0.00      7.89      60.5     0.47      1013.9     5.3     NNE    32  11.4     NNE      13     263       473       1.8      12.1      58.2      9.27
   03/02/2020 11:20      64.4      63.9       19     21.1      0.00      7.89      60.5     0.47      1014.0     5.3     NNE    22  12.7       N     352     263       467       1.9      11.8      57.5      9.27
   03/02/2020 11:10      64.1      62.9       19     20.8      0.00      7.89      60.0     0.47      1014.0     5.3     NNE    15   9.2       N       4     263       463       1.6      11.5      56.0      9.27
   03/02/2020 11:00      63.6      62.4       20     20.7      0.00      7.89      60.2     0.47      1014.1     5.7     NNE    28  11.7     NNE      30     263       459       1.8      11.2      55.5      9.28
   03/02/2020 10:50      62.6      62.2       20     20.6      0.00      7.89      60.6     0.47      1014.2     5.7     NNE    14  10.9     NNE      17     263       460       2.1      10.9      55.3      9.28
   03/02/2020 10:40      62.2      61.4       20     20.6      0.00      7.89      60.6     0.47      1014.3     6.1       N   360  16.5       N       9     264       399       1.6      10.6      54.7      9.28
   03/02/2020 10:30      61.7      61.1       21     20.6      0.00      7.89      60.6     0.47      1014.3     6.6     NNE    23  14.3     NNE      19     264       339       2.2      10.3      54.2      9.28
   03/02/2020 10:20      62.4      61.4       21     21.4      0.00      7.89      60.8     0.47      1014.4     5.8       N     7  14.3      NW     313     264       409       1.8       9.9      53.6      9.28
   03/02/2020 10:10      61.6      61.1       21     21.1      0.00      7.89      60.7     0.47      1014.5     4.9     NNE    16  13.1      NW     315     264       396       1.8       9.6      52.9      9.28
   03/02/2020 10:00      61.2      59.9       22     21.5      0.00      7.89      60.7     0.47      1014.5     5.4     NNE    32  10.5     NNE      28     264       388       1.7       9.3      52.1      9.28
   03/02/2020 09:50      60.5      59.2       22     20.8      0.00      7.89      60.8     0.47      1014.5     6.0      NE    37  12.3       N       0     264       258       1.9       9.0      51.5      9.28
   03/02/2020 09:40      61.1      59.8       22     21.7      0.00      7.89      60.3     0.47      1014.2     5.4      NE    36  12.5      NE      38     264       358       1.8       8.7      50.7      9.28
   03/02/2020 09:30      59.8      59.3       22     21.0      0.00      7.89      60.5     0.47      1014.0     6.7     NNE    28  11.6     NNE      14     264       357       2.4       8.4      50.2      9.28
   03/02/2020 09:20      59.6      59.0       23     21.4      0.00      7.89      60.5     0.47      1014.0     7.8      NE    39  15.3      NE      54     264       359       2.9       8.0      49.8      9.28
   03/02/2020 09:10      59.5      58.5       24     21.7      0.00      7.89      61.3     0.47      1014.1     6.2      NE    37  11.3       E      99     264       317       2.0       7.5      50.2      9.28
   03/02/2020 09:00      58.7      57.9       24     21.9      0.00      7.89      61.1     0.47      1014.0     6.6      NE    48  12.3     NNE      28     264       289       1.8       7.2      49.5      9.29
   03/02/2020 08:50      57.9      57.0       25     21.5      0.00      7.89      61.0     0.47      1014.0     7.5      NE    38  14.4       N       0     264       288       2.8       6.9      49.1      9.29
   03/02/2020 08:40      57.1      56.8       26     22.5      0.00      7.89      61.2     0.47      1013.9     6.8     NNE    30  13.9     NNE      32     265       200       2.2       6.4      49.0      9.29
   03/02/2020 08:30      57.3      56.6       26     22.0      0.00      7.89      61.1     0.47      1013.8     6.4      NE    34  11.6      NE      53     265       166       2.2       6.1      48.7      9.29
   03/02/2020 08:20      57.5      57.1       25     21.9      0.00      7.89      61.3     0.47      1013.9     5.8      NE    40  15.9      NE      48     265       158       2.0       5.7      48.5      9.29
   03/02/2020 08:10      57.5      55.9       25     21.3      0.00      7.89      61.3     0.47      1013.6     5.3      NE    52  11.2      NE      36     266       198       1.6       5.4      48.4      9.29
   03/02/2020 08:00      55.9      54.9       26     21.3      0.00      7.89      61.3     0.47      1013.5     4.3      NE    46  10.0       N       2     266        77       1.2       5.1      48.2      9.29
   03/02/2020 07:50      55.1      53.8       28     21.8      0.00      7.89      61.4     0.47      1013.3     4.4     NNE    29   9.6      NE      38     266        29       1.7       4.9      48.1      9.29
   03/02/2020 07:40      54.0      53.5       30     22.8      0.00      7.89      61.2     0.47      1013.2     2.7      NE    35   8.4     NNE      24     266         0       0.7       4.6      48.0      9.29
   03/02/2020 07:30      53.8      53.5       30     22.8      0.00      7.89      61.2     0.47      1013.2     4.2     NNE    15   9.6       N       7     266        -6       1.3       4.5      47.9      9.29
   03/02/2020 07:20      53.7      53.3       30     23.0      0.00      7.89      61.2     0.47      1012.9     4.9     NNE    11  11.2      NE      34     266       -10       1.2       4.3      48.0      9.29
   03/02/2020 07:10      53.4      53.0       31     23.3      0.00      7.89      61.3     0.47      1012.7     5.3     NNE    13  11.0     NNE      17     267       -19       1.3       4.1      48.0      9.29
   03/02/2020 07:00      53.1      52.5       32     23.4      0.00      7.89      61.4     0.47      1012.6     5.3     NNE    18  11.6     NNE      26     267       -39       1.6       3.9      48.0      9.29
   03/02/2020 06:50      52.8      52.4       32     23.5      0.00      7.89      61.3     0.47      1012.5     4.1     NNE    11  11.4     NNE      12     267       -56       1.1       3.6      48.0      9.29
   03/02/2020 06:40      52.8      52.4       32     23.6      0.00      7.89      61.5     0.47      1012.4     4.0       N     8   9.3      NE      34     267       -62       1.1       3.4      48.0      9.29
   03/02/2020 06:30      52.7      52.2       33     24.1      0.00      7.89      61.5     0.47      1012.4     3.2     NNE    17   7.9      NE      51     267       -66       0.8       3.2      48.1      9.29
   03/02/2020 06:20      52.8      52.1       33     24.0      0.00      7.89      61.6     0.48      1012.5     4.0     NNE    18   9.0      NW     318     267       -69       1.2       3.1      48.2      9.29
   03/02/2020 06:10      52.5      52.1       34     24.5      0.00      7.89      61.6     0.48      1012.5     3.9     NNE    18   8.7      NW     322     268       -69       1.0       2.9      48.4      9.29
   03/02/2020 06:00      52.5      51.8       34     25.0      0.00      7.89      61.6     0.48      1012.4     3.6       N     9   7.3     NNE      24     268       -70       0.6       2.7      48.5      9.29
   03/02/2020 05:50      52.5      52.0       35     25.0      0.00      7.89      61.8     0.48      1012.2     3.9     NNE    21  10.0       N       8     268       -43       1.0       2.7      48.6      9.30
   03/02/2020 05:40      52.3      51.7       36     25.7      0.00      7.89      61.7     0.48      1012.1     3.4     NNE    28  10.7     NNW     336     268        -6       1.1       2.5      48.8      9.30
   03/02/2020 05:30      52.3      51.6       36     26.1      0.00      7.89      61.6     0.48      1012.0     3.6     NNE    27   6.6      NE      46     268        -6       1.2       2.3      48.9      9.30
   03/02/2020 05:20      52.0      51.6       37     26.5      0.00      7.89      62.1     0.48      1012.0     3.7     NNE    16  10.1     WNW     303     268        -6       1.1       2.1      49.3      9.30
   03/02/2020 05:10      52.1      51.6       38     26.7      0.00      7.89      61.7     0.48      1011.8     3.0     NNE    17   7.7     NNE      15     268        -5       0.6       1.9      49.1      9.30
   03/02/2020 05:00      52.2      51.6       38     26.9      0.00      7.89      61.5     0.48      1011.7     3.4     NNE    25   7.3     NNW     342     269        -5       0.7       1.8      49.0      9.30
   03/02/2020 04:50      52.0      51.6       38     27.3      0.00      7.89      61.9     0.48      1011.7     3.6     NNE    15   8.2       N       0     269        -6       1.1       1.7      49.5      9.30
   03/02/2020 04:40      51.9      51.2       40     27.7      0.00      7.89      62.1     0.48      1011.5     3.8     NNE    22   9.2       N       0     269        -7       1.1       1.5      49.6      9.30
   03/02/2020 04:30      51.7      50.7       41     28.1      0.00      7.89      62.0     0.48      1011.3     3.5     NNE    29   9.9       W     265     269        -8       0.9       1.4      49.7      9.30
   03/02/2020 04:20      51.0      48.0       45     28.8      0.00      7.89      62.0     0.48      1011.3     3.0      NE    37   7.8     NNE      28     269       -10       0.9       1.2      49.8      9.30
   03/02/2020 04:10      47.9      44.5       60     32.5      0.00      7.89      62.1     0.48      1011.4     1.7       E    99   5.7     NNE      30     271       -11       0.5       1.0      49.9      9.30
   03/02/2020 04:00      44.5      43.4       68     34.4      0.00      7.89      62.2     0.48      1011.4     0.4     SSE   147   1.3       W     261     271       -11       0.2       1.0      50.1      9.30
   03/02/2020 03:50      43.4      42.3       78     36.4      0.00      7.89      62.2     0.48      1011.4     0.9     SSE   161   2.4     SSE     155     272       -11       0.2       0.9      50.3      9.30
   03/02/2020 03:40      42.6      42.2       80     36.8      0.00      7.89      62.2     0.48      1011.5     1.0       S   169   2.2      SE     142     273       -10       0.4       0.9      50.5      9.30
   03/02/2020 03:30      42.7      42.1       80     36.8      0.00      7.89      62.2     0.48      1011.5     0.9       S   175   2.3     SSE     155     273       -10       0.3       0.8      50.8      9.30
   03/02/2020 03:20      43.1      41.8       82     37.6      0.00      7.89      62.4     0.48      1011.5     1.5     SSE   151   3.6       S     170     273       -10       0.6       0.8      51.0      9.30
   03/02/2020 03:10      42.3      41.6       83     37.2      0.00      7.89      62.2     0.48      1011.6     1.3     SSE   150   3.6     ESE     103     275       -10       0.6       0.7      51.1      9.30
   03/02/2020 03:00      42.3      42.0       82     37.1      0.00      7.89      62.0     0.48      1011.7     0.9     SSE   163   1.5      SE     135     273       -10       0.1       0.6      51.2      9.30
   03/02/2020 02:50      42.7      42.0       83     37.5      0.00      7.89      62.1     0.48      1011.8     0.3     SSW   202   1.0     WSW     246     273       -10       0.0       0.5      51.5      9.30
   03/02/2020 02:40      43.2      42.3       83     37.8      0.00      7.89      62.1     0.48      1011.9     0.8     SSE   155   1.6      SE     139     272       -10       0.2       0.5      51.7      9.30
   03/02/2020 02:30      43.7      43.0       80     37.6      0.00      7.89      62.1     0.48      1012.0     0.8     SSE   149   2.4       S     169     271       -10       0.3       0.5      52.0      9.30
   03/02/2020 02:20      44.0      43.3       78     37.1      0.00      7.89      62.2     0.48      1012.2     0.9     SSE   169   1.7     SSW     202     272       -10       0.2       0.4      52.3      9.30
   03/02/2020 02:10      45.1      44.0       76     37.4      0.00      7.89      62.6     0.48      1012.3     1.2     SSE   165   2.7      SE     141     271       -10       0.3       0.4      53.0      9.30
   03/02/2020 02:00      46.2      45.0       70     36.5      0.00      7.89      62.6     0.48      1012.3     0.9     SSE   155   2.4      SE     138     271        -9       0.2       0.4      53.1      9.30
   03/02/2020 01:50      48.7      46.3       65     36.2      0.00      7.89      62.5     0.48      1012.4     0.8      SE   140   1.6      SE     135     271        -9       0.0       0.3      53.3      9.30
   03/02/2020 01:40      49.6      48.6       60     35.8      0.00      7.89      62.7     0.48      1012.5     0.8      NE    35   2.7     NNE      25     270        -9       0.1       0.3      53.7      9.30
   03/02/2020 01:30      49.9      49.3       59     35.9      0.00      7.89      62.6     0.48      1012.7     1.8     NNE    24   6.1      NE      55     270       -10       0.4       0.3      53.8      9.30
   03/02/2020 01:20      49.6      49.2       62     36.8      0.00      7.89      62.7     0.48      1012.7     2.1       N     3   5.8     NNE      23     270       -10       0.2       0.2      54.0      9.30
   03/02/2020 01:10      49.7      49.3       63     37.5      0.00      7.89      62.7     0.48      1012.8     1.7       N   356   6.4       N      10     272       -10       0.2       0.2      54.3      9.30
   03/02/2020 01:00      49.5      49.2       65     38.2      0.00      7.89      62.3     0.48      1012.9     1.7       N     4   3.9      NE      45     273       -10       0.0       0.2      54.2      9.30
   03/02/2020 00:50      49.3      48.3       69     39.1      0.00      7.89      62.3     0.48      1012.9     1.5     NNE    12   3.4      NE      39     276       -11       0.0       0.1      54.4      9.30
   03/02/2020 00:40      48.3      47.8       78     41.4      0.00      7.89      62.6     0.48      1012.9     0.9      NE    45   3.2     NNW     340     281       -11       0.2       0.1      54.7      9.30
   03/02/2020 00:30      48.1      47.8       80     41.9      0.00      7.89      62.7     0.48      1013.0     0.8      SW   220   3.3     WSW     245     285       -10       0.3       0.0      55.0      9.30
   03/02/2020 00:20      48.4      47.8       79     41.9      0.00      7.89      62.7     0.48      1013.2     0.5       S   171   1.4       S     179     287        -9       0.0       0.0      55.1      9.30
   03/02/2020 00:10      48.9      48.2       78     42.0      0.00      7.89      62.7     0.48      1013.2     1.0     SSW   200   1.6     SSW     200     289       -10       0.3       0.0      55.1      9.30
   03/02/2020 00:00      49.4      48.6       79     42.6      0.00      7.89      63.0     0.48      1013.4     0.3     SSE   162   1.5       S     188     294       -10       0.0      35.3      55.7      9.30
   03/01/2020 23:50      49.3      48.7       80     42.9      0.00      7.89      63.2     0.48      1013.5     0.8     NNE    32   2.6      NE      39     294        -9       0.1      35.3      56.0      9.30
   03/01/2020 23:40      48.8      48.3       84     43.8      0.00      7.89      63.1     0.48      1013.4     0.6     NNE    17   2.4       N       4     303        -9       0.0      35.3      55.8      9.30
   03/01/2020 23:30      48.5      47.8       86     44.2      0.00      7.89      63.0     0.48      1013.4     0.3      NE    37   1.8      NE      35     302        -9       0.0      35.3      55.8      9.30
   03/01/2020 23:20      47.9      47.5       88     44.2      0.00      7.89      63.0     0.48      1013.5     0.2       E    80   1.3      NE      40     303        -9       0.0      35.3      55.9      9.30
   03/01/2020 23:10      47.9      47.5       88     44.3      0.00      7.89      63.0     0.48      1013.5     0.0     SSE   158   1.0     SSE     163     305        -9       0.0      35.3      56.0      9.30
   03/01/2020 23:00      48.0      47.5       88     44.5      0.00      7.89      63.0     0.48      1013.5     0.0     SSE   149   0.7     SSE     151     309        -9       0.0      35.3      56.1      9.30
   03/01/2020 22:50      48.1      47.8       88     44.6      0.00      7.89      63.0     0.48      1013.5     0.0       N     0   0.0     SSE     157     314        -9       0.0      35.3      56.3      9.30
   03/01/2020 22:40      48.1      47.8       88     44.6      0.00      7.89      63.0     0.48      1013.6     0.0      SE   143   0.7     SSE     151     318        -9       0.0      35.3      56.4      9.30
   03/01/2020 22:30      48.0      47.8       88     44.5      0.00      7.89      63.0     0.48      1013.7     0.2     SSE   151   1.4     SSE     162     322        -9       0.1      35.3      56.5      9.30
   03/01/2020 22:20      48.0      47.6       88     44.5      0.00      7.89      63.1     0.48      1013.8     0.2     ESE   105   1.2       N     351     328        -9       0.0      35.3      56.6      9.30
   03/01/2020 22:10      48.0      47.6       88     44.5      0.00      7.89      63.0     0.48      1013.9     0.0     SSE   148   0.6      SE     140     316        -9       0.0      35.3      56.7      9.30
   03/01/2020 22:00      47.8      47.4       88     44.1      0.00      7.89      63.1     0.48      1013.8     0.0       N     0   0.0     ESE     109     323        -9       0.0      35.3      56.9      9.30
   03/01/2020 21:50      47.7      47.3       88     44.0      0.00      7.89      63.1     0.48      1013.8     0.0       N     0   0.0     ENE      70     330       -10       0.0      35.3      56.9      9.30
   03/01/2020 21:40      47.5      47.1       87     43.7      0.00      7.89      63.1     0.48      1013.7     0.7      SE   127   1.8       S     188     337       -10       0.0      35.3      57.0      9.30
   03/01/2020 21:30      48.0      47.2       87     43.8      0.00      7.89      63.1     0.48      1013.7     1.0       S   185   2.3     SSW     194     349        -9       0.3      35.3      57.1      9.30
   03/01/2020 21:20      47.8      47.5       85     43.5      0.01      7.89      63.1     0.48      1013.5     0.0     ESE   110   1.3       E     100     374       -10       0.0      35.2      57.3      9.30
   03/01/2020 21:10      48.1      47.5       83     42.9      0.01      7.88      63.1     0.48      1013.4     1.4       S   181   2.6       S     182     398       -10       0.6      35.2      57.4      9.30
   03/01/2020 21:00      48.5      47.8       79     42.0      0.00      7.87      63.2     0.48      1013.3     1.9       S   176   3.0       S     186     393       -11       1.1      35.1      57.8      9.29
   03/01/2020 20:50      48.6      48.3       76     41.2      0.00      7.87      63.1     0.48      1013.3     1.4       S   190   1.9     SSW     197     350       -10       0.7      34.9      58.1      9.29
   03/01/2020 20:40      48.4      48.1       78     41.8      0.00      7.87      63.0     0.48      1013.3     0.0       N     2   0.8       N       5     326       -10       0.0      34.8      58.3      9.29
   03/01/2020 20:30      48.3      47.8       80     42.1      0.00      7.87      63.0     0.48      1013.2     0.0     ENE    59   0.5     ENE      59     327       -10       0.0      34.8      58.4      9.29
   03/01/2020 20:20      48.0      47.7       80     42.0      0.00      7.87      63.0     0.48      1013.2     0.2      NE    53   0.8      NE      53     327       -10       0.0      34.8      58.5      9.29
   03/01/2020 20:10      48.0      47.5       78     41.2      0.00      7.87      63.0     0.48      1013.1     0.7       S   170   1.8       S     190     327       -10       0.2      34.8      58.7      9.29
   03/01/2020 20:00      48.2      47.6       77     41.0      0.00      7.87      63.0     0.48      1013.1     2.1     SSW   195   2.9     SSW     198     328       -11       1.0      34.8      59.0      9.29
   03/01/2020 19:50      48.4      48.1       76     41.1      0.00      7.87      63.0     0.48      1013.0     2.1      SW   214   2.6       S     188     328       -12       1.0      34.6      59.3      9.30
   03/01/2020 19:40      48.2      47.9       78     41.4      0.00      7.87      63.0     0.48      1013.1     0.4      SW   234   1.8      SW     226     328       -12       0.0      34.5      59.5      9.30
   03/01/2020 19:30      48.2      47.8       78     41.5      0.00      7.87      63.0     0.48      1013.1     1.4     SSW   205   2.0     SSW     203     330       -12       0.7      34.5      59.6      9.30
   03/01/2020 19:20      48.7      48.0       77     41.7      0.00      7.87      63.0     0.48      1013.2     1.2       S   186   2.2     SSW     207     334       -13       0.7      34.4      59.8      9.30
   03/01/2020 19:10      48.8      48.3       76     41.4      0.00      7.87      63.0     0.48      1013.3     0.9     ENE    75   2.5      SE     136     357       -13       0.2      34.2      60.0      9.30
   03/01/2020 19:00      48.9      48.6       78     42.3      0.00      7.87      62.9     0.48      1013.3     0.4     ESE   109   2.0       E     100     339       -14       0.1      34.2      60.1      9.30
   03/01/2020 18:50      48.9      48.6       78     42.1      0.00      7.87      62.9     0.48      1013.3     0.7     SSE   156   1.8      SE     143     339       -15       0.2      34.2      60.3      9.30
   03/01/2020 18:40      49.5      48.7       75     41.3      0.00      7.87      62.8     0.48      1013.4     2.9       S   191   6.0      SW     223     294       -17       1.7      34.1      60.5      9.30
   03/01/2020 18:30      50.0      49.5       71     40.7      0.00      7.87      62.7     0.48      1013.3     2.5       S   176   5.1     SSE     153     277       -24       1.6      33.9      60.9      9.30
   03/01/2020 18:20      50.3      49.9       68     39.9      0.00      7.87      62.8     0.48      1013.2     2.8       S   188   4.3     SSW     199     268       -25       1.7      33.6      61.2      9.30
   03/01/2020 18:10      50.5      50.1       67     39.8      0.00      7.87      62.7     0.48      1013.2     2.4     SSW   206   4.6     SSW     206     268       -27       1.6      33.3      61.4      9.30
   03/01/2020 18:00      50.5      50.2       67     39.7      0.00      7.87      62.7     0.48      1013.1     2.2     SSE   147   4.2      SE     126     268       -29       1.1      33.0      61.8      9.30
   03/01/2020 17:50      50.4      50.1       66     39.4      0.00      7.87      62.7     0.48      1013.0     2.1       S   171   6.7       S     182     268       -28       1.1      32.9      61.9      9.30
   03/01/2020 17:40      50.6      50.2       66     39.5      0.00      7.87      62.5     0.48      1013.1     3.3     SSE   165   6.4       S     188     268       -24       1.7      32.7      62.1      9.30
   03/01/2020 17:30      50.9      50.3       65     39.4      0.00      7.87      62.4     0.48      1013.1     3.7       S   181   7.1       S     174     268       -19       2.3      32.4      62.4      9.31
   03/01/2020 17:20      51.1      50.7       63     38.8      0.00      7.87      62.4     0.48      1013.0     4.0     SSE   154   7.6       S     175     268       -28       2.2      32.0      62.7      9.31
   03/01/2020 17:10      51.6      51.0       61     38.3      0.00      7.87      62.3     0.48      1013.0     4.5       S   169   8.4       S     188     267       -38       2.9      31.6      63.1      9.31
   03/01/2020 17:00      53.2      51.6       58     37.7      0.00      7.87      62.3     0.48      1012.9     5.1     SSE   164   8.7       S     172     267       -41       2.9      31.1      63.8      9.31
   03/01/2020 16:50      54.5      53.1       50     35.7      0.00      7.87      62.3     0.48      1012.9     3.8       S   173   8.0     WSW     239     267       -35       2.4      30.7      64.4      9.31
   03/01/2020 16:40      54.5      53.9       46     33.7      0.00      7.87      62.1     0.48      1012.9     3.7       S   183   7.4     SSW     207     266        47       2.5      30.3      64.8      9.32
   03/01/2020 16:30      55.6      54.2       45     33.9      0.00      7.87      62.2     0.48      1012.8     4.7       S   191   9.8     SSW     208     266        19       3.1      29.9      65.2      9.32
   03/01/2020 16:20      55.1      54.6       45     34.0      0.00      7.87      62.0     0.48      1012.9     5.1     SSW   212  10.2       S     174     266       155       3.5      29.3      65.3      9.32
   03/01/2020 16:10      55.7      54.9       43     33.3      0.00      7.87      62.1     0.48      1012.9     4.2     SSW   211   8.8     SSW     213     266        56       2.8      28.8      65.6      9.32
   03/01/2020 16:00      56.2      55.2       43     33.4      0.00      7.87      62.1     0.48      1013.0     4.5     SSW   195   9.1      SW     214     266       168       3.1      28.3      65.7      9.33
   03/01/2020 15:50      56.1      55.4       43     33.6      0.00      7.87      62.0     0.48      1013.0     3.4     SSW   196   8.2     SSW     203     266       180       2.3      27.8      65.7      9.33
   03/01/2020 15:40      56.3      55.5       44     34.1      0.00      7.87      62.0     0.48      1013.0     4.9      SW   230   9.8     WSW     241     266       209       3.4      27.4      65.7      9.33
   03/01/2020 15:30      56.5      55.5       44     34.4      0.00      7.87      61.9     0.48      1013.0     5.5     SSW   206   9.2     SSW     198     266       229       3.8      26.8      65.8      9.33
   03/01/2020 15:20      56.4      55.5       44     34.2      0.00      7.87      61.9     0.48      1013.1     6.0     SSW   206  10.7     SSW     210     266       239       4.1      26.2      65.8      9.34
   03/01/2020 15:10      56.7      56.0       44     34.7      0.00      7.87      61.9     0.48      1013.1     5.9      SW   218  10.0      SW     219     266       259       4.1      25.5      65.8      9.34
   03/01/2020 15:00      57.6      56.1       44     35.0      0.00      7.87      61.9     0.48      1013.1     6.2       S   187  10.3     SSE     161     266       282       4.2      24.8      65.8      9.34
   03/01/2020 14:50      57.8      56.6       43     35.1      0.00      7.87      62.0     0.48      1013.2     4.7     SSW   195   8.7     SSW     203     266       316       3.4      24.1      65.8      9.34
   03/01/2020 14:40      58.3      56.6       42     35.0      0.00      7.87      62.2     0.48      1013.2     6.2     SSW   195   8.9       S     183     266       253       4.0      23.6      65.9      9.35
   03/01/2020 14:30      58.3      57.1       43     35.2      0.00      7.87      62.2     0.48      1013.1     6.3       S   191  12.2     SSE     160     266       399       4.2      22.9      65.7      9.35
   03/01/2020 14:20      58.7      56.4       45     36.1      0.00      7.87      62.2     0.48      1013.2     6.2       S   191  11.6     SSW     196     266       419       4.1      22.2      65.6      9.35
   03/01/2020 14:10      57.2      56.6       47     36.6      0.00      7.87      62.1     0.48      1013.2     6.6     SSE   159  10.4      SE     140     266       420       3.7      21.5      65.3      9.35
   03/01/2020 14:00      57.5      56.6       46     36.3      0.00      7.87      62.1     0.48      1013.3     6.6     SSE   167  13.5     SSE     157     266       340       4.2      20.9      65.2      9.36
   03/01/2020 13:50      57.6      56.7       44     35.5      0.00      7.87      62.1     0.48      1013.2     6.4     SSE   168  11.4     SSE     152     266       409       4.4      20.2      65.0      9.36
   03/01/2020 13:40      57.1      56.4       45     35.7      0.00      7.87      62.2     0.48      1013.3     5.1       S   169   8.8      SW     218     266       260       3.3      19.5      65.0      9.36
   03/01/2020 13:30      57.2      56.3       47     36.6      0.00      7.87      62.1     0.48      1013.4     5.5     SSE   164  12.8     SSE     151     266       151       3.2      18.9      65.0      9.36
   03/01/2020 13:20      58.9      57.2       46     37.6      0.00      7.87      62.1     0.48      1013.4     6.2     SSE   164  12.1     SSE     152     266       411       3.6      18.4      64.7      9.36
   03/01/2020 13:10      58.6      57.5       47     38.0      0.00      7.87      62.1     0.48      1013.5     6.4     SSE   147  10.8      SE     139     266       558       3.7      17.8      64.1      9.36
   03/01/2020 13:00      58.6      57.8       47     38.1      0.00      7.87      62.1     0.48      1013.6     5.3     SSE   161  10.0       S     182     266       497       3.3      17.2      63.5      9.37
   03/01/2020 12:50      58.8      57.8       47     37.9      0.00      7.87      62.1     0.48      1013.8     5.4       S   171   9.3     SSW     203     266       510       3.5      16.6      63.2      9.37
   03/01/2020 12:40      58.6      58.0       46     37.8      0.00      7.87      62.1     0.48      1013.9     4.8     SSE   157   9.0      SE     138     266       483       2.9      16.1      62.8      9.37
   03/01/2020 12:30      58.5      57.3       48     38.3      0.00      7.87      62.1     0.48      1014.0     4.4     SSE   164   7.4     WSW     241     266       439       2.7      15.6      62.3      9.37
   03/01/2020 12:20      58.1      57.2       49     38.4      0.00      7.87      62.0     0.48      1014.4     4.9     SSE   156   8.9     SSW     193     266       409       2.9      15.1      62.0      9.37
   03/01/2020 12:10      57.2      56.1       51     38.6      0.00      7.87      62.1     0.48      1014.5     5.2     SSE   152  11.9      SE     137     266       398       3.0      14.6      61.6      9.37
   03/01/2020 12:00      57.0      55.6       52     38.8      0.00      7.87      62.1     0.48      1014.7     6.7       S   177  11.2     SSW     210     267       371       4.3      14.1      61.3      9.37
   03/01/2020 11:50      57.0      56.4       52     39.4      0.00      7.87      62.0     0.48      1014.8     5.5     SSE   154  10.8      SE     127     267       455       3.1      13.4      60.8      9.38
   03/01/2020 11:40      56.5      56.1       52     39.2      0.00      7.87      62.1     0.48      1014.8     5.4     SSE   169  11.1       S     187     267       274       3.3      12.9      60.5      9.38
   03/01/2020 11:30      56.8      56.1       52     38.9      0.00      7.87      62.1     0.48      1014.9     5.0       S   179   9.9       S     182     267       338       3.5      12.3      60.3      9.38
   03/01/2020 11:20      57.1      56.4       51     38.9      0.00      7.87      62.1     0.48      1015.0     4.8     SSE   159   8.7       S     170     267       271       3.0      11.8      60.1      9.38
   03/01/2020 11:10      56.9      56.3       53     39.5      0.00      7.87      62.2     0.48      1015.1     5.3     SSE   164  10.2     SSE     147     267       258       3.3      11.3      59.9      9.38
   03/01/2020 11:00      56.8      56.1       54     39.9      0.00      7.87      62.2     0.48      1015.2     6.5       S   172  10.9       S     181     267       314       4.1      10.7      59.6      9.38
   03/01/2020 10:50      56.7      56.3       54     39.9      0.00      7.87      62.2     0.48      1015.5     5.3     SSE   159   8.9     SSE     162     267       323       3.1      10.0      59.2      9.38
   03/01/2020 10:40      57.2      55.9       54     40.2      0.00      7.87      62.2     0.48      1015.5     5.2     SSE   156  11.2     SSW     210     267       263       3.2       9.5      58.8      9.38
   03/01/2020 10:30      58.1      56.8       53     40.4      0.00      7.87      62.3     0.48      1015.5     6.0      SE   143  12.2     SSE     154     267       383       3.1       9.0      58.5      9.38
   03/01/2020 10:20      58.1      56.9       54     40.7      0.00      7.87      62.3     0.48      1015.5     6.0     SSE   161  10.1     SSW     203     267       456       3.7       8.5      57.9      9.38
   03/01/2020 10:10      58.0      56.4       55     41.6      0.00      7.87      62.3     0.48      1015.3     4.1     SSE   168   9.4       S     183     267       314       2.7       7.9      57.4      9.38
   03/01/2020 10:00      57.5      56.0       58     42.1      0.00      7.87      62.3     0.48      1015.3     4.4       S   178   8.3       S     170     268       251       2.6       7.4      57.0      9.38
   03/01/2020 09:50      57.5      56.4       58     42.4      0.00      7.87      62.4     0.48      1015.3     4.8       S   186   9.5     SSW     208     268       209       3.0       7.0      56.6      9.39
   03/01/2020 09:40      57.1      56.1       59     42.6      0.00      7.87      62.4     0.48      1015.2     5.3     SSE   163   8.7      SE     132     267       361       3.2       6.5      56.3      9.39
   03/01/2020 09:30      56.8      56.1       60     42.7      0.00      7.87      62.5     0.48      1015.5     4.5     SSE   150   9.9     ESE     112     268       223       2.6       5.9      55.9      9.39
   03/01/2020 09:20      56.5      55.1       63     43.5      0.00      7.87      62.4     0.48      1015.7     3.7     SSW   193   6.0     SSW     193     268       355       2.4       5.5      55.7      9.39
   03/01/2020 09:10      55.7      54.7       65     43.7      0.00      7.87      62.5     0.48      1015.9     3.8      SW   216   6.1      SW     223     269       207       2.4       5.1      55.4      9.39
   03/01/2020 09:00      55.1      54.6       67     44.0      0.00      7.87      62.5     0.48      1015.9     3.4      SW   230   5.5     WSW     250     269       192       2.5       4.7      55.2      9.39
   03/01/2020 08:50      54.8      54.5       69     44.9      0.00      7.87      62.5     0.48      1016.0     2.0     SSW   196   4.3       S     172     269       105       1.3       4.3      55.0      9.39
   03/01/2020 08:40      54.6      53.8       72     45.5      0.00      7.87      62.6     0.48      1016.0     0.9       W   264   3.8     WSW     259     270       111       0.6       4.1      54.7      9.39
   03/01/2020 08:30      54.0      53.6       73     45.5      0.00      7.87      62.6     0.48      1015.9     1.5     WNW   295   3.5       W     262     270        67       0.8       4.0      54.7      9.39
   03/01/2020 08:20      54.8      54.0       72     45.7      0.00      7.87      62.6     0.48      1015.7     1.7     WNW   294   3.9       W     264     270        96       1.2       3.8      54.5      9.39
   03/01/2020 08:10      54.7      53.5       74     46.0      0.00      7.87      62.6     0.48      1015.5     0.2       N   349   1.3     NNE      12     270        80       0.0       3.7      54.4      9.39
   03/01/2020 08:00      53.5      51.8       78     46.0      0.00      7.87      62.7     0.48      1015.5     0.1     WNW   294   1.4     WNW     284     270        91       0.0       3.6      54.3      9.39
   03/01/2020 07:50      51.9      51.4       80     45.5      0.00      7.87      62.7     0.48      1015.5     1.3      SW   235   2.2     SSW     209     270        42       0.9       3.6      54.1      9.39
   03/01/2020 07:40      51.5      50.8       80     45.4      0.00      7.87      62.7     0.48      1015.5     0.4     WSW   255   2.8      SW     235     271         3       0.1       3.5      54.0      9.39
   03/01/2020 07:30      51.1      50.8       81     45.2      0.00      7.87      62.7     0.48      1015.5     1.6     WSW   246   3.1     WSW     256     271         0       0.8       3.5      54.0      9.39
   03/01/2020 07:20      51.1      50.5       82     45.5      0.00      7.87      62.7     0.48      1015.3     1.8     WSW   258   2.7       W     260     272       -29       0.8       3.3      54.0      9.39
   03/01/2020 07:10      50.6      50.2       83     45.4      0.00      7.87      62.8     0.48      1015.1     0.8     SSW   200   2.2      SW     216     272       -30       0.4       3.2      54.1      9.39
   03/01/2020 07:00      50.5      50.1       84     45.6      0.00      7.87      62.5     0.48      1015.0     2.4      SW   218   3.0     SSW     208     272       -29       1.3       3.1      54.0      9.39
   03/01/2020 06:50      50.4      50.1       84     45.6      0.00      7.87      62.5     0.48      1014.9     1.4     SSW   207   2.5      SW     230     272       -31       0.5       2.9      54.0      9.39
   03/01/2020 06:40      50.6      50.1       83     45.4      0.00      7.87      62.5     0.48      1015.0     0.9       S   178   2.1       S     188     272       -34       0.4       2.8      54.1      9.39
   03/01/2020 06:30      51.0      50.5       83     45.6      0.00      7.87      62.5     0.48      1015.1     1.6       S   182   3.6     SSW     212     272       -50       0.8       2.8      54.3      9.39
   03/01/2020 06:20      51.3      50.8       83     46.1      0.00      7.87      62.5     0.48      1015.1     2.6      SW   234   4.4      SW     232     271       -27       1.6       2.6      54.4      9.39
   03/01/2020 06:10      51.3      50.9       84     46.4      0.00      7.87      62.6     0.48      1015.0     1.3      SW   235   3.1     WSW     255     272       -19       0.6       2.3      54.5      9.39
   03/01/2020 06:00      51.4      51.1       84     46.5      0.00      7.87      62.6     0.48      1015.1     1.4     WSW   253   3.6     WSW     254     272       -19       0.7       2.2      54.6      9.39
   03/01/2020 05:50      51.5      51.3       84     46.6      0.00      7.87      62.7     0.48      1015.1     0.3      NW   305   1.3     WNW     301     273       -32       0.0       2.1      54.7      9.39
   03/01/2020 05:40      51.6      51.3       84     46.6      0.00      7.87      62.7     0.48      1015.1     0.0     ENE    69   0.4     NNE      23     273       -41       0.0       2.1      54.8      9.39
   03/01/2020 05:30      51.6      51.3       84     46.6      0.00      7.87      62.7     0.48      1015.0     0.4     SSW   213   2.2     WSW     244     273       -32       0.2       2.1      54.9      9.39
   03/01/2020 05:20      51.4      51.1       84     46.5      0.00      7.87      62.7     0.48      1015.1     1.6       S   176   4.5      SE     146     273       -13       0.9       2.1      54.9      9.39
   03/01/2020 05:10      51.4      51.1       84     46.4      0.00      7.87      62.7     0.48      1015.2     2.0       S   183   4.2      SW     218     272       -17       1.1       1.9      55.0      9.39
   03/01/2020 05:00      51.5      51.1       83     46.4      0.00      7.87      62.7     0.48      1015.3     2.4      SW   227   4.4      SW     225     272       -24       1.6       1.8      55.0      9.39
   03/01/2020 04:50      52.0      51.4       83     46.7      0.00      7.87      62.7     0.48      1015.3     3.0     WSW   237   4.8     WSW     245     272       -40       1.8       1.5      55.1      9.39
   03/01/2020 04:40      52.1      51.6       84     47.2      0.00      7.87      62.7     0.48      1015.3     3.1       W   262   4.6       W     268     271       -14       1.8       1.2      55.2      9.39
   03/01/2020 04:30      51.7      50.9       85     47.0      0.00      7.87      62.7     0.48      1015.2     0.4       W   268   2.9     WNW     288     272        -7       0.2       0.9      55.2      9.39
   03/01/2020 04:20      51.0      50.6       85     46.6      0.00      7.87      62.8     0.48      1015.1     0.0      SE   140   0.5      SE     141     272       -10       0.0       0.9      55.3      9.39
   03/01/2020 04:10      50.9      50.6       85     46.5      0.00      7.87      62.7     0.48      1015.0     0.7     SSW   205   1.6     SSW     209     272       -15       0.3       0.9      55.3      9.39
   03/01/2020 04:00      51.1      50.6       85     46.6      0.00      7.87      62.8     0.48      1015.0     0.0       N     0   0.0       S     191     273       -46       0.0       0.8      55.4      9.39
   03/01/2020 03:50      51.1      51.0       85     46.8      0.00      7.87      62.6     0.48      1015.1     0.7       S   184   1.6       S     190     273       -41       0.1       0.8      55.4      9.39
   03/01/2020 03:40      51.2      50.8       85     46.8      0.00      7.87      62.7     0.48      1015.2     0.2      SE   133   0.8      SE     133     272       -21       0.0       0.8      55.6      9.39
   03/01/2020 03:30      51.1      50.6       86     46.8      0.00      7.87      63.1     0.48      1015.4     0.1      SE   133   0.9       S     172     272       -10       0.0       0.8      56.0      9.40
   03/01/2020 03:20      50.9      50.3       86     46.5      0.00      7.87      63.1     0.48      1015.4     1.1     SSW   200   2.4     SSW     212     273       -27       0.1       0.8      56.1      9.40
   03/01/2020 03:10      50.9      50.4       85     46.5      0.00      7.87      63.1     0.48      1015.6     0.7       S   184   1.3     SSW     193     273       -30       0.1       0.8      56.3      9.40
   03/01/2020 03:00      51.6      50.7       84     46.6      0.00      7.87      63.2     0.48      1015.5     0.2       S   174   0.7       S     181     271       -42       0.0       0.7      56.4      9.40
   03/01/2020 02:50      51.8      51.4       84     46.9      0.00      7.87      63.2     0.48      1015.7     0.0     SSE   166   0.5     SSE     169     273       -47       0.0       0.7      56.6      9.40
   03/01/2020 02:40      52.0      51.7       83     46.9      0.00      7.87      63.2     0.48      1015.9     0.0       S   179   0.6       S     179     273       -36       0.0       0.7      56.7      9.40
   03/01/2020 02:30      51.9      51.6       83     46.8      0.00      7.87      63.2     0.48      1016.0     0.0       N     0   0.0     SSE     152     272       -25       0.0       0.7      56.8      9.40
   03/01/2020 02:20      52.3      51.7       82     46.8      0.00      7.87      63.3     0.48      1016.2     0.4       S   174   1.4     SSE     147     272       -17       0.0       0.7      56.8      9.40
   03/01/2020 02:10      52.6      52.1       82     46.7      0.00      7.87      63.3     0.48      1016.4     0.2       S   172   1.1       S     175     272       -34       0.0       0.7      56.9      9.40
   03/01/2020 02:00      53.2      52.5       80     46.9      0.00      7.87      63.3     0.48      1016.4     0.6     ESE   119   1.8       E      98     270       -52       0.0       0.7      57.1      9.40
   03/01/2020 01:50      53.5      53.0       80     47.2      0.00      7.87      63.3     0.48      1016.5     0.3       E    83   1.9     ENE      72     271       -59       0.0       0.7      57.3      9.40
   03/01/2020 01:40      53.8      53.3       79     47.4      0.00      7.87      63.4     0.48      1016.5     0.8     ENE    70   3.0      NE      53     272       -55       0.0       0.7      57.4      9.40
   03/01/2020 01:30      53.8      53.5       79     47.5      0.00      7.87      63.4     0.48      1016.7     1.5       E    84   4.0       E      90     271       -48       0.6       0.7      57.6      9.40
   03/01/2020 01:20      54.0      53.6       80     47.7      0.00      7.87      63.4     0.48      1016.8     1.7       E    97   4.1      NE      49     270       -39       0.6       0.6      57.7      9.40
   03/01/2020 01:10      54.1      53.8       80     47.9      0.00      7.87      63.4     0.48      1017.0     1.6       E    89   3.3       E      83     270       -32       0.6       0.5      57.8      9.40
   03/01/2020 01:00      54.2      53.9       80     48.0      0.00      7.87      63.3     0.48      1017.0     1.5       E    96   2.9     SSE     155     271       -36       0.6       0.4      57.6      9.40
   03/01/2020 00:50      54.3      54.0       80     48.2      0.00      7.87      63.3     0.48      1017.0     0.9       E   100   2.4      SE     124     271       -27       0.2       0.3      57.7      9.40
   03/01/2020 00:40      54.2      54.0       81     48.2      0.00      7.87      63.3     0.48      1017.0     0.4     ENE    70   1.9       E      81     271       -22       0.0       0.3      57.8      9.40
   03/01/2020 00:30      54.3      54.0       81     48.2      0.00      7.87      63.4     0.48      1016.9     1.3     ENE    76   4.6      SE     127     271       -25       0.5       0.3      57.9      9.40
   03/01/2020 00:20      54.2      53.6       81     48.3      0.00      7.87      63.5     0.48      1017.0     1.2       E    84   2.9     ENE      60     271       -16       0.4       0.2      57.9      9.40
   03/01/2020 00:10      53.8      52.6       84     48.5      0.00      7.87      63.5     0.48      1017.0     1.8       E    88   4.5      SE     133     271       -14       0.8       0.1      58.0      9.40
   03/01/2020 00:00      52.7      51.6       87     48.4      0.00      7.87      63.5     0.48      1017.1     0.6       E    94   1.6     ESE     119     275       -12       0.2      17.6      58.1      9.40


Back to data home page